﻿<?xml version="1.0" encoding="utf-8"?><gpx creator="Garmin Desktop App" version="1.1" xsi:schemaLocation="http://www.topografix.com/GPX/1/1 http://www.topografix.com/GPX/1/1/gpx.xsd http://www.garmin.com/xmlschemas/WaypointExtension/v1 http://www8.garmin.com/xmlschemas/WaypointExtensionv1.xsd http://www.garmin.com/xmlschemas/TrackPointExtension/v1 http://www.garmin.com/xmlschemas/TrackPointExtensionv1.xsd http://www.garmin.com/xmlschemas/GpxExtensions/v3 http://www8.garmin.com/xmlschemas/GpxExtensionsv3.xsd http://www.garmin.com/xmlschemas/ActivityExtension/v1 http://www8.garmin.com/xmlschemas/ActivityExtensionv1.xsd http://www.garmin.com/xmlschemas/AdventuresExtensions/v1 http://www8.garmin.com/xmlschemas/AdventuresExtensionv1.xsd http://www.garmin.com/xmlschemas/PressureExtension/v1 http://www.garmin.com/xmlschemas/PressureExtensionv1.xsd http://www.garmin.com/xmlschemas/TripExtensions/v1 http://www.garmin.com/xmlschemas/TripExtensionsv1.xsd http://www.garmin.com/xmlschemas/TripMetaDataExtensions/v1 http://www.garmin.com/xmlschemas/TripMetaDataExtensionsv1.xsd http://www.garmin.com/xmlschemas/ViaPointTransportationModeExtensions/v1 http://www.garmin.com/xmlschemas/ViaPointTransportationModeExtensionsv1.xsd http://www.garmin.com/xmlschemas/CreationTimeExtension/v1 http://www.garmin.com/xmlschemas/CreationTimeExtensionsv1.xsd http://www.garmin.com/xmlschemas/AccelerationExtension/v1 http://www.garmin.com/xmlschemas/AccelerationExtensionv1.xsd http://www.garmin.com/xmlschemas/PowerExtension/v1 http://www.garmin.com/xmlschemas/PowerExtensionv1.xsd http://www.garmin.com/xmlschemas/VideoExtension/v1 http://www.garmin.com/xmlschemas/VideoExtensionv1.xsd" xmlns="http://www.topografix.com/GPX/1/1" xmlns:xsi="http://www.w3.org/2001/XMLSchema-instance" xmlns:wptx1="http://www.garmin.com/xmlschemas/WaypointExtension/v1" xmlns:gpxtrx="http://www.garmin.com/xmlschemas/GpxExtensions/v3" xmlns:gpxtpx="http://www.garmin.com/xmlschemas/TrackPointExtension/v1" xmlns:gpxx="http://www.garmin.com/xmlschemas/GpxExtensions/v3" xmlns:trp="http://www.garmin.com/xmlschemas/TripExtensions/v1" xmlns:adv="http://www.garmin.com/xmlschemas/AdventuresExtensions/v1" xmlns:prs="http://www.garmin.com/xmlschemas/PressureExtension/v1" xmlns:tmd="http://www.garmin.com/xmlschemas/TripMetaDataExtensions/v1" xmlns:vptm="http://www.garmin.com/xmlschemas/ViaPointTransportationModeExtensions/v1" xmlns:ctx="http://www.garmin.com/xmlschemas/CreationTimeExtension/v1" xmlns:gpxacc="http://www.garmin.com/xmlschemas/AccelerationExtension/v1" xmlns:gpxpx="http://www.garmin.com/xmlschemas/PowerExtension/v1" xmlns:vidx1="http://www.garmin.com/xmlschemas/VideoExtension/v1">

  <metadata>
    <link href="http://www.garmin.com">
      <text>Garmin International</text>
    </link>
    <time>2024-09-12T19:24:50Z</time>
    <bounds maxlat="51.014994028955698" maxlon="11.040358962491155" minlat="50.049098040908575" minlon="8.475157963111997" />
  </metadata>

  <trk>
    <name>Track 240911</name>
    <extensions>
      <gpxx:TrackExtension>
        <gpxx:DisplayColor>DarkGray</gpxx:DisplayColor>
      </gpxx:TrackExtension>
    </extensions>
    <trkseg>
      <trkpt lat="50.070890989154577" lon="8.481152029708028">
        <ele>115.01000000000001</ele>
        <time>2024-09-11T09:51:32Z</time>
      </trkpt>
      <trkpt lat="50.070890989154577" lon="8.481151023879647">
        <ele>115.01000000000001</ele>
        <time>2024-09-11T09:52:19Z</time>
      </trkpt>
      <trkpt lat="50.070889983326197" lon="8.481154963374138">
        <ele>115.01000000000001</ele>
        <time>2024-09-11T09:52:58Z</time>
      </trkpt>
      <trkpt lat="50.070888977497816" lon="8.481156975030899">
        <ele>115.01000000000001</ele>
        <time>2024-09-11T09:53:33Z</time>
      </trkpt>
      <trkpt lat="50.070945974439383" lon="8.481137026101351">
        <ele>115.5</ele>
        <time>2024-09-11T09:53:45Z</time>
      </trkpt>
      <trkpt lat="50.070975981652737" lon="8.481077011674643">
        <ele>115.5</ele>
        <time>2024-09-11T09:53:46Z</time>
      </trkpt>
      <trkpt lat="50.071014035493135" lon="8.481004005298019">
        <ele>115.5</ele>
        <time>2024-09-11T09:53:47Z</time>
      </trkpt>
      <trkpt lat="50.071142027154565" lon="8.480753973126411">
        <ele>114.53</ele>
        <time>2024-09-11T09:53:50Z</time>
      </trkpt>
      <trkpt lat="50.071190977469087" lon="8.480659006163478">
        <ele>114.05</ele>
        <time>2024-09-11T09:53:51Z</time>
      </trkpt>
      <trkpt lat="50.071234982460737" lon="8.480572002008557">
        <ele>114.05</ele>
        <time>2024-09-11T09:53:52Z</time>
      </trkpt>
      <trkpt lat="50.071727000176907" lon="8.479614034295082">
        <ele>113.56999999999999</ele>
        <time>2024-09-11T09:54:03Z</time>
      </trkpt>
      <trkpt lat="50.072418004274368" lon="8.478280976414681">
        <ele>117.42</ele>
        <time>2024-09-11T09:54:16Z</time>
      </trkpt>
      <trkpt lat="50.072912033647299" lon="8.477142965421081">
        <ele>121.26000000000001</ele>
        <time>2024-09-11T09:54:24Z</time>
      </trkpt>
      <trkpt lat="50.072953021153808" lon="8.477039029821754">
        <ele>121.73999999999999</ele>
        <time>2024-09-11T09:54:25Z</time>
      </trkpt>
      <trkpt lat="50.072986967861652" lon="8.476954959332943">
        <ele>122.22</ele>
        <time>2024-09-11T09:54:26Z</time>
      </trkpt>
      <trkpt lat="50.072946986183524" lon="8.476847000420094">
        <ele>122.70999999999999</ele>
        <time>2024-09-11T09:54:27Z</time>
      </trkpt>
      <trkpt lat="50.072893006727099" lon="8.476776005700231">
        <ele>123.19</ele>
        <time>2024-09-11T09:54:28Z</time>
      </trkpt>
      <trkpt lat="50.072827041149139" lon="8.476690007373691">
        <ele>123.67</ele>
        <time>2024-09-11T09:54:29Z</time>
      </trkpt>
      <trkpt lat="50.072754034772515" lon="8.476615995168686">
        <ele>124.15000000000001</ele>
        <time>2024-09-11T09:54:30Z</time>
      </trkpt>
      <trkpt lat="50.072663007304072" lon="8.476551035419107">
        <ele>123.67</ele>
        <time>2024-09-11T09:54:32Z</time>
      </trkpt>
      <trkpt lat="50.072487993165851" lon="8.476318018510938">
        <ele>123.19</ele>
        <time>2024-09-11T09:54:34Z</time>
      </trkpt>
      <trkpt lat="50.072348015382886" lon="8.476018030196428">
        <ele>122.70999999999999</ele>
        <time>2024-09-11T09:54:35Z</time>
      </trkpt>
      <trkpt lat="50.072309961542487" lon="8.475853996351361">
        <ele>122.22</ele>
        <time>2024-09-11T09:54:36Z</time>
      </trkpt>
      <trkpt lat="50.072286995127797" lon="8.475640006363392">
        <ele>121.26000000000001</ele>
        <time>2024-09-11T09:54:37Z</time>
      </trkpt>
      <trkpt lat="50.072328988462687" lon="8.475481001660228">
        <ele>120.78</ele>
        <time>2024-09-11T09:54:38Z</time>
      </trkpt>
      <trkpt lat="50.072395037859678" lon="8.475325014442205">
        <ele>120.3</ele>
        <time>2024-09-11T09:54:39Z</time>
      </trkpt>
      <trkpt lat="50.072479024529457" lon="8.475216971710324">
        <ele>119.81999999999999</ele>
        <time>2024-09-11T09:54:40Z</time>
      </trkpt>
      <trkpt lat="50.072580026462674" lon="8.475173972547054">
        <ele>119.34</ele>
        <time>2024-09-11T09:54:41Z</time>
      </trkpt>
      <trkpt lat="50.072686979547143" lon="8.475166009739041">
        <ele>118.86</ele>
        <time>2024-09-11T09:54:42Z</time>
      </trkpt>
      <trkpt lat="50.072786975651979" lon="8.475157963111997">
        <ele>118.38</ele>
        <time>2024-09-11T09:54:43Z</time>
      </trkpt>
      <trkpt lat="50.0728739798069" lon="8.475240021944046">
        <ele>117.90000000000001</ele>
        <time>2024-09-11T09:54:44Z</time>
      </trkpt>
      <trkpt lat="50.072974981740117" lon="8.475333983078599">
        <ele>117.90000000000001</ele>
        <time>2024-09-11T09:54:45Z</time>
      </trkpt>
      <trkpt lat="50.073086963966489" lon="8.475439008325338">
        <ele>117.42</ele>
        <time>2024-09-11T09:54:46Z</time>
      </trkpt>
      <trkpt lat="50.073212021961808" lon="8.475556019693613">
        <ele>116.94</ele>
        <time>2024-09-11T09:54:47Z</time>
      </trkpt>
      <trkpt lat="50.073494995012879" lon="8.475845027714968">
        <ele>116.94</ele>
        <time>2024-09-11T09:54:49Z</time>
      </trkpt>
      <trkpt lat="50.073618963360786" lon="8.476031022146344">
        <ele>116.94</ele>
        <time>2024-09-11T09:54:50Z</time>
      </trkpt>
      <trkpt lat="50.074930982664227" lon="8.477746965363622">
        <ele>116.94</ele>
        <time>2024-09-11T09:54:58Z</time>
      </trkpt>
      <trkpt lat="50.076995026320219" lon="8.480483992025256">
        <ele>118.86</ele>
        <time>2024-09-11T09:55:09Z</time>
      </trkpt>
      <trkpt lat="50.078564034774899" lon="8.482571002095938">
        <ele>119.34</ele>
        <time>2024-09-11T09:55:17Z</time>
      </trkpt>
      <trkpt lat="50.080638974905014" lon="8.485532999038696">
        <ele>120.78</ele>
        <time>2024-09-11T09:55:28Z</time>
      </trkpt>
      <trkpt lat="50.082201026380062" lon="8.487938018515706">
        <ele>119.34</ele>
        <time>2024-09-11T09:55:38Z</time>
      </trkpt>
      <trkpt lat="50.082379980012774" lon="8.488609995692968">
        <ele>118.86</ele>
        <time>2024-09-11T09:55:39Z</time>
      </trkpt>
      <trkpt lat="50.082523981109262" lon="8.490741010755301">
        <ele>116.94</ele>
        <time>2024-09-11T09:55:45Z</time>
      </trkpt>
      <trkpt lat="50.082087032496929" lon="8.493622960522771">
        <ele>113.56999999999999</ele>
        <time>2024-09-11T09:55:53Z</time>
      </trkpt>
      <trkpt lat="50.081190001219511" lon="8.496752008795738">
        <ele>106.84</ele>
        <time>2024-09-11T09:56:02Z</time>
      </trkpt>
      <trkpt lat="50.080320965498686" lon="8.49866802804172">
        <ele>100.11</ele>
        <time>2024-09-11T09:56:08Z</time>
      </trkpt>
      <trkpt lat="50.078686997294426" lon="8.501581996679306">
        <ele>92.420000000000002</ele>
        <time>2024-09-11T09:56:18Z</time>
      </trkpt>
      <trkpt lat="50.077167022973299" lon="8.503916021436453">
        <ele>96.269999999999996</ele>
        <time>2024-09-11T09:56:27Z</time>
      </trkpt>
      <trkpt lat="50.07540799677372" lon="8.507043980062008">
        <ele>101.56</ele>
        <time>2024-09-11T09:56:38Z</time>
      </trkpt>
      <trkpt lat="50.07429102435708" lon="8.510149978101254">
        <ele>103</ele>
        <time>2024-09-11T09:56:47Z</time>
      </trkpt>
      <trkpt lat="50.073772016912699" lon="8.513263016939163">
        <ele>105.88</ele>
        <time>2024-09-11T09:56:55Z</time>
      </trkpt>
      <trkpt lat="50.073759024962783" lon="8.516131974756718">
        <ele>106.36</ele>
        <time>2024-09-11T09:57:02Z</time>
      </trkpt>
      <trkpt lat="50.074275014922023" lon="8.519341992214322">
        <ele>107.31999999999999</ele>
        <time>2024-09-11T09:57:10Z</time>
      </trkpt>
      <trkpt lat="50.075358962640166" lon="8.523049978539348">
        <ele>108.29000000000001</ele>
        <time>2024-09-11T09:57:20Z</time>
      </trkpt>
      <trkpt lat="50.076519018039107" lon="8.527063988149166">
        <ele>104.44</ele>
        <time>2024-09-11T09:57:31Z</time>
      </trkpt>
      <trkpt lat="50.07691296748817" lon="8.530195970088244">
        <ele>101.56</ele>
        <time>2024-09-11T09:57:39Z</time>
      </trkpt>
      <trkpt lat="50.076823029667139" lon="8.533421996980906">
        <ele>98.189999999999998</ele>
        <time>2024-09-11T09:57:47Z</time>
      </trkpt>
      <trkpt lat="50.076434025540948" lon="8.536479966714978">
        <ele>98.189999999999998</ele>
        <time>2024-09-11T09:57:55Z</time>
      </trkpt>
      <trkpt lat="50.07613998837769" lon="8.538218038156629">
        <ele>98.670000000000002</ele>
        <time>2024-09-11T09:58:02Z</time>
      </trkpt>
      <trkpt lat="50.075720977038145" lon="8.53981495834887">
        <ele>99.150000000000006</ele>
        <time>2024-09-11T09:58:10Z</time>
      </trkpt>
      <trkpt lat="50.075392993167043" lon="8.540558014065027">
        <ele>99.629999999999995</ele>
        <time>2024-09-11T09:58:14Z</time>
      </trkpt>
      <trkpt lat="50.074375011026859" lon="8.542053010314703">
        <ele>97.709999999999994</ele>
        <time>2024-09-11T09:58:22Z</time>
      </trkpt>
      <trkpt lat="50.074209971353412" lon="8.542205980047584">
        <ele>97.709999999999994</ele>
        <time>2024-09-11T09:58:23Z</time>
      </trkpt>
      <trkpt lat="50.073330961167812" lon="8.5427560005337">
        <ele>97.230000000000004</ele>
        <time>2024-09-11T09:58:29Z</time>
      </trkpt>
      <trkpt lat="50.071530025452375" lon="8.543592011556029">
        <ele>98.189999999999998</ele>
        <time>2024-09-11T09:58:41Z</time>
      </trkpt>
      <trkpt lat="50.070313978940248" lon="8.544919034466147">
        <ele>99.150000000000006</ele>
        <time>2024-09-11T09:58:50Z</time>
      </trkpt>
      <trkpt lat="50.069298008456826" lon="8.546563982963562">
        <ele>100.59999999999999</ele>
        <time>2024-09-11T09:58:59Z</time>
      </trkpt>
      <trkpt lat="50.06821297109127" lon="8.548054033890367">
        <ele>102.04000000000001</ele>
        <time>2024-09-11T09:59:07Z</time>
      </trkpt>
      <trkpt lat="50.066901035606861" lon="8.549160026013851">
        <ele>106.36</ele>
        <time>2024-09-11T09:59:14Z</time>
      </trkpt>
      <trkpt lat="50.065979026257992" lon="8.549654977396131">
        <ele>108.29000000000001</ele>
        <time>2024-09-11T09:59:18Z</time>
      </trkpt>
      <trkpt lat="50.065746009349823" lon="8.549727983772755">
        <ele>108.77</ele>
        <time>2024-09-11T09:59:19Z</time>
      </trkpt>
      <trkpt lat="50.063926968723536" lon="8.54991196654737">
        <ele>112.61</ele>
        <time>2024-09-11T09:59:26Z</time>
      </trkpt>
      <trkpt lat="50.062355026602745" lon="8.549571996554732">
        <ele>115.01000000000001</ele>
        <time>2024-09-11T09:59:32Z</time>
      </trkpt>
      <trkpt lat="50.061836019158363" lon="8.549403017386794">
        <ele>115.5</ele>
        <time>2024-09-11T09:59:34Z</time>
      </trkpt>
      <trkpt lat="50.061564026400447" lon="8.549341997131705">
        <ele>115.5</ele>
        <time>2024-09-11T09:59:35Z</time>
      </trkpt>
      <trkpt lat="50.05871300585568" lon="8.548981994390488">
        <ele>115.98</ele>
        <time>2024-09-11T09:59:46Z</time>
      </trkpt>
      <trkpt lat="50.056130038574338" lon="8.549252981320024">
        <ele>115.98</ele>
        <time>2024-09-11T09:59:56Z</time>
      </trkpt>
      <trkpt lat="50.054411999881268" lon="8.549775006249547">
        <ele>115.01000000000001</ele>
        <time>2024-09-11T10:00:04Z</time>
      </trkpt>
      <trkpt lat="50.052414005622268" lon="8.550817966461182">
        <ele>114.53</ele>
        <time>2024-09-11T10:00:15Z</time>
      </trkpt>
      <trkpt lat="50.051067033782601" lon="8.551749028265476">
        <ele>119.81999999999999</ele>
        <time>2024-09-11T10:00:24Z</time>
      </trkpt>
      <trkpt lat="50.049934973940253" lon="8.552620997652412">
        <ele>122.22</ele>
        <time>2024-09-11T10:00:34Z</time>
      </trkpt>
      <trkpt lat="50.049784015864134" lon="8.552620997652412">
        <ele>122.22</ele>
        <time>2024-09-11T10:00:35Z</time>
      </trkpt>
      <trkpt lat="50.049684019759297" lon="8.552620997652412">
        <ele>121.73999999999999</ele>
        <time>2024-09-11T10:00:36Z</time>
      </trkpt>
      <trkpt lat="50.04960497841239" lon="8.552585039287806">
        <ele>122.22</ele>
        <time>2024-09-11T10:00:37Z</time>
      </trkpt>
      <trkpt lat="50.049532977864146" lon="8.552499040961266">
        <ele>122.22</ele>
        <time>2024-09-11T10:00:38Z</time>
      </trkpt>
      <trkpt lat="50.049419989809394" lon="8.552363002672792">
        <ele>122.70999999999999</ele>
        <time>2024-09-11T10:00:39Z</time>
      </trkpt>
      <trkpt lat="50.049384031444788" lon="8.552262000739574">
        <ele>122.70999999999999</ele>
        <time>2024-09-11T10:00:41Z</time>
      </trkpt>
      <trkpt lat="50.049111032858491" lon="8.551365975290537">
        <ele>122.22</ele>
        <time>2024-09-11T10:00:45Z</time>
      </trkpt>
      <trkpt lat="50.049098040908575" lon="8.551209988072515">
        <ele>121.73999999999999</ele>
        <time>2024-09-11T10:00:46Z</time>
      </trkpt>
      <trkpt lat="50.049141040071845" lon="8.551075961440802">
        <ele>121.26000000000001</ele>
        <time>2024-09-11T10:00:47Z</time>
      </trkpt>
      <trkpt lat="50.049193007871509" lon="8.550972025841475">
        <ele>121.26000000000001</ele>
        <time>2024-09-11T10:00:48Z</time>
      </trkpt>
      <trkpt lat="50.049258973449469" lon="8.550857026129961">
        <ele>120.78</ele>
        <time>2024-09-11T10:00:49Z</time>
      </trkpt>
      <trkpt lat="50.04934798926115" lon="8.550820983946323">
        <ele>119.81999999999999</ele>
        <time>2024-09-11T10:00:50Z</time>
      </trkpt>
      <trkpt lat="50.049448991194367" lon="8.550845040008426">
        <ele>119.34</ele>
        <time>2024-09-11T10:00:51Z</time>
      </trkpt>
      <trkpt lat="50.04954001866281" lon="8.550894996151328">
        <ele>118.86</ele>
        <time>2024-09-11T10:00:52Z</time>
      </trkpt>
      <trkpt lat="50.04962501116097" lon="8.550979988649488">
        <ele>118.38</ele>
        <time>2024-09-11T10:00:53Z</time>
      </trkpt>
      <trkpt lat="50.049716960638762" lon="8.551104962825775">
        <ele>117.42</ele>
        <time>2024-09-11T10:00:54Z</time>
      </trkpt>
      <trkpt lat="50.049774963408709" lon="8.551274025812745">
        <ele>116.94</ele>
        <time>2024-09-11T10:00:55Z</time>
      </trkpt>
      <trkpt lat="50.050171008333564" lon="8.552427040413022">
        <ele>117.42</ele>
        <time>2024-09-11T10:01:01Z</time>
      </trkpt>
      <trkpt lat="50.050239991396666" lon="8.552631977945566">
        <ele>117.90000000000001</ele>
        <time>2024-09-11T10:01:02Z</time>
      </trkpt>
      <trkpt lat="50.050311991944909" lon="8.552836999297142">
        <ele>117.90000000000001</ele>
        <time>2024-09-11T10:01:03Z</time>
      </trkpt>
      <trkpt lat="50.050841979682446" lon="8.554695015773177">
        <ele>119.81999999999999</ele>
        <time>2024-09-11T10:01:12Z</time>
      </trkpt>
      <trkpt lat="50.051296027377248" lon="8.556541968137026">
        <ele>121.73999999999999</ele>
        <time>2024-09-11T10:01:20Z</time>
      </trkpt>
      <trkpt lat="50.051846969872713" lon="8.559217974543572">
        <ele>121.26000000000001</ele>
        <time>2024-09-11T10:01:28Z</time>
      </trkpt>
      <trkpt lat="50.052390033379197" lon="8.562830993905664">
        <ele>114.05</ele>
        <time>2024-09-11T10:01:45Z</time>
      </trkpt>
      <trkpt lat="50.053509017452598" lon="8.570940988138318">
        <ele>116.45999999999999</ele>
        <time>2024-09-11T10:02:07Z</time>
      </trkpt>
      <trkpt lat="50.054770996794105" lon="8.578390991315246">
        <ele>115.5</ele>
        <time>2024-09-11T10:02:20Z</time>
      </trkpt>
      <trkpt lat="50.05568596534431" lon="8.582746982574463">
        <ele>116.94</ele>
        <time>2024-09-11T10:02:32Z</time>
      </trkpt>
      <trkpt lat="50.056519964709878" lon="8.586365031078458">
        <ele>120.3</ele>
        <time>2024-09-11T10:02:42Z</time>
      </trkpt>
      <trkpt lat="50.057185990735888" lon="8.589252009987831">
        <ele>120.78</ele>
        <time>2024-09-11T10:02:50Z</time>
      </trkpt>
      <trkpt lat="50.057836007326841" lon="8.592938035726547">
        <ele>115.01000000000001</ele>
        <time>2024-09-11T10:03:08Z</time>
      </trkpt>
      <trkpt lat="50.057781022042036" lon="8.599965004250407">
        <ele>112.13</ele>
        <time>2024-09-11T10:03:25Z</time>
      </trkpt>
      <trkpt lat="50.056015960872173" lon="8.616770971566439">
        <ele>120.3</ele>
        <time>2024-09-11T10:03:56Z</time>
      </trkpt>
      <trkpt lat="50.055611031129956" lon="8.622092977166176">
        <ele>119.34</ele>
        <time>2024-09-11T10:04:08Z</time>
      </trkpt>
      <trkpt lat="50.055335015058517" lon="8.62742898054421">
        <ele>117.90000000000001</ele>
        <time>2024-09-11T10:04:20Z</time>
      </trkpt>
      <trkpt lat="50.055343983694911" lon="8.63146997988224">
        <ele>113.56999999999999</ele>
        <time>2024-09-11T10:04:29Z</time>
      </trkpt>
      <trkpt lat="50.055687977001071" lon="8.634209018200636">
        <ele>111.17</ele>
        <time>2024-09-11T10:04:36Z</time>
      </trkpt>
      <trkpt lat="50.056203966960311" lon="8.636879995465279">
        <ele>109.25</ele>
        <time>2024-09-11T10:04:44Z</time>
      </trkpt>
      <trkpt lat="50.056607974693179" lon="8.6385159753263">
        <ele>113.09</ele>
        <time>2024-09-11T10:04:51Z</time>
      </trkpt>
      <trkpt lat="50.05658701993525" lon="8.638722002506256">
        <ele>114.05</ele>
        <time>2024-09-11T10:04:52Z</time>
      </trkpt>
      <trkpt lat="50.05656598135829" lon="8.638919983059168">
        <ele>115.01000000000001</ele>
        <time>2024-09-11T10:04:53Z</time>
      </trkpt>
      <trkpt lat="50.05654402077198" lon="8.639123998582363">
        <ele>115.5</ele>
        <time>2024-09-11T10:04:54Z</time>
      </trkpt>
      <trkpt lat="50.056518036872149" lon="8.639343017712236">
        <ele>116.45999999999999</ele>
        <time>2024-09-11T10:04:55Z</time>
      </trkpt>
      <trkpt lat="50.056446958333254" lon="8.639539992436767">
        <ele>116.94</ele>
        <time>2024-09-11T10:04:56Z</time>
      </trkpt>
      <trkpt lat="50.056375963613391" lon="8.639736967161298">
        <ele>117.42</ele>
        <time>2024-09-11T10:04:57Z</time>
      </trkpt>
      <trkpt lat="50.05594396032393" lon="8.640977991744876">
        <ele>117.90000000000001</ele>
        <time>2024-09-11T10:05:03Z</time>
      </trkpt>
      <trkpt lat="50.055905990302563" lon="8.641206985339522">
        <ele>117.42</ele>
        <time>2024-09-11T10:05:04Z</time>
      </trkpt>
      <trkpt lat="50.055843964219093" lon="8.641944006085396">
        <ele>115.5</ele>
        <time>2024-09-11T10:05:07Z</time>
      </trkpt>
      <trkpt lat="50.055851005017757" lon="8.642195966094732">
        <ele>114.53</ele>
        <time>2024-09-11T10:05:08Z</time>
      </trkpt>
      <trkpt lat="50.055859973654151" lon="8.642442980781198">
        <ele>113.56999999999999</ele>
        <time>2024-09-11T10:05:09Z</time>
      </trkpt>
      <trkpt lat="50.055889980867505" lon="8.642683960497379">
        <ele>113.09</ele>
        <time>2024-09-11T10:05:10Z</time>
      </trkpt>
      <trkpt lat="50.055919988080859" lon="8.642925024032593">
        <ele>112.13</ele>
        <time>2024-09-11T10:05:11Z</time>
      </trkpt>
      <trkpt lat="50.056072035804391" lon="8.645062996074557">
        <ele>110.20999999999999</ele>
        <time>2024-09-11T10:05:20Z</time>
      </trkpt>
      <trkpt lat="50.056072035804391" lon="8.646175023168325">
        <ele>107.81</ele>
        <time>2024-09-11T10:05:26Z</time>
      </trkpt>
      <trkpt lat="50.056034987792373" lon="8.646484985947609">
        <ele>107.31999999999999</ele>
        <time>2024-09-11T10:05:29Z</time>
      </trkpt>
      <trkpt lat="50.056005986407399" lon="8.646560003980994">
        <ele>106.84</ele>
        <time>2024-09-11T10:05:30Z</time>
      </trkpt>
      <trkpt lat="50.055975979194045" lon="8.646637033671141">
        <ele>106.84</ele>
        <time>2024-09-11T10:05:31Z</time>
      </trkpt>
      <trkpt lat="50.05592199973762" lon="8.646777011454105">
        <ele>106.36</ele>
        <time>2024-09-11T10:05:32Z</time>
      </trkpt>
      <trkpt lat="50.05583600141108" lon="8.646797966212034">
        <ele>106.36</ele>
        <time>2024-09-11T10:05:33Z</time>
      </trkpt>
      <trkpt lat="50.055768024176359" lon="8.646831996738911">
        <ele>105.88</ele>
        <time>2024-09-11T10:05:34Z</time>
      </trkpt>
      <trkpt lat="50.055676996707916" lon="8.646913971751928">
        <ele>105.88</ele>
        <time>2024-09-11T10:05:35Z</time>
      </trkpt>
      <trkpt lat="50.055586975067854" lon="8.647003993391991">
        <ele>105.88</ele>
        <time>2024-09-11T10:05:36Z</time>
      </trkpt>
      <trkpt lat="50.055520003661513" lon="8.647132990881801">
        <ele>105.88</ele>
        <time>2024-09-11T10:05:37Z</time>
      </trkpt>
      <trkpt lat="50.05546803586185" lon="8.647271040827036">
        <ele>105.88</ele>
        <time>2024-09-11T10:05:38Z</time>
      </trkpt>
      <trkpt lat="50.055425958707929" lon="8.647415963932872">
        <ele>106.36</ele>
        <time>2024-09-11T10:05:39Z</time>
      </trkpt>
      <trkpt lat="50.055415984243155" lon="8.647575974464417">
        <ele>106.36</ele>
        <time>2024-09-11T10:05:40Z</time>
      </trkpt>
      <trkpt lat="50.055411960929632" lon="8.647742019966245">
        <ele>106.84</ele>
        <time>2024-09-11T10:05:41Z</time>
      </trkpt>
      <trkpt lat="50.055445991456509" lon="8.647893983870745">
        <ele>107.31999999999999</ele>
        <time>2024-09-11T10:05:42Z</time>
      </trkpt>
      <trkpt lat="50.055497037246823" lon="8.648048965260387">
        <ele>107.31999999999999</ele>
        <time>2024-09-11T10:05:43Z</time>
      </trkpt>
      <trkpt lat="50.055569037795067" lon="8.64818399772048">
        <ele>107.31999999999999</ele>
        <time>2024-09-11T10:05:44Z</time>
      </trkpt>
      <trkpt lat="50.055664004758" lon="8.648364963009954">
        <ele>107.31999999999999</ele>
        <time>2024-09-11T10:05:45Z</time>
      </trkpt>
      <trkpt lat="50.055773975327611" lon="8.648474011570215">
        <ele>107.31999999999999</ele>
        <time>2024-09-11T10:05:46Z</time>
      </trkpt>
      <trkpt lat="50.055911019444466" lon="8.648598985746503">
        <ele>107.31999999999999</ele>
        <time>2024-09-11T10:05:47Z</time>
      </trkpt>
      <trkpt lat="50.056923972442746" lon="8.649946041405201">
        <ele>107.81</ele>
        <time>2024-09-11T10:05:55Z</time>
      </trkpt>
      <trkpt lat="50.057688988745213" lon="8.650648025795817">
        <ele>106.36</ele>
        <time>2024-09-11T10:06:06Z</time>
      </trkpt>
      <trkpt lat="50.059351958334446" lon="8.652207981795073">
        <ele>104.44</ele>
        <time>2024-09-11T10:06:13Z</time>
      </trkpt>
      <trkpt lat="50.059989988803864" lon="8.653666013851762">
        <ele>106.36</ele>
        <time>2024-09-11T10:06:20Z</time>
      </trkpt>
      <trkpt lat="50.060208002105355" lon="8.654745016247034">
        <ele>110.20999999999999</ele>
        <time>2024-09-11T10:06:33Z</time>
      </trkpt>
      <trkpt lat="50.060716029256582" lon="8.658354012295604">
        <ele>113.56999999999999</ele>
        <time>2024-09-11T10:06:42Z</time>
      </trkpt>
      <trkpt lat="50.061106039211154" lon="8.669426003471017">
        <ele>121.73999999999999</ele>
        <time>2024-09-11T10:07:00Z</time>
      </trkpt>
      <trkpt lat="50.061166975647211" lon="8.678289027884603">
        <ele>121.26000000000001</ele>
        <time>2024-09-11T10:07:20Z</time>
      </trkpt>
      <trkpt lat="50.06116203032434" lon="8.683221023529768">
        <ele>120.3</ele>
        <time>2024-09-11T10:07:31Z</time>
      </trkpt>
      <trkpt lat="50.061135962605476" lon="8.688161987811327">
        <ele>125.11</ele>
        <time>2024-09-11T10:07:42Z</time>
      </trkpt>
      <trkpt lat="50.061178961768746" lon="8.694889973849058">
        <ele>128.47</ele>
        <time>2024-09-11T10:07:57Z</time>
      </trkpt>
      <trkpt lat="50.061438968405128" lon="8.700732998549938">
        <ele>127.03</ele>
        <time>2024-09-11T10:08:10Z</time>
      </trkpt>
      <trkpt lat="50.062158973887563" lon="8.705664994195104">
        <ele>126.06999999999999</ele>
        <time>2024-09-11T10:08:21Z</time>
      </trkpt>
      <trkpt lat="50.063345013186336" lon="8.711839020252228">
        <ele>131.84</ele>
        <time>2024-09-11T10:08:35Z</time>
      </trkpt>
      <trkpt lat="50.064366012811661" lon="8.71807498857379">
        <ele>134.72</ele>
        <time>2024-09-11T10:08:49Z</time>
      </trkpt>
      <trkpt lat="50.064611015841365" lon="8.722628960385919">
        <ele>137.61000000000001</ele>
        <time>2024-09-11T10:08:59Z</time>
      </trkpt>
      <trkpt lat="50.064575979486108" lon="8.72679996304214">
        <ele>137.61000000000001</ele>
        <time>2024-09-11T10:09:08Z</time>
      </trkpt>
      <trkpt lat="50.064448993653059" lon="8.730060020461679">
        <ele>137.13</ele>
        <time>2024-09-11T10:09:15Z</time>
      </trkpt>
      <trkpt lat="50.064229974523187" lon="8.735099975019693">
        <ele>134.72</ele>
        <time>2024-09-11T10:09:26Z</time>
      </trkpt>
      <trkpt lat="50.064198039472103" lon="8.74153702519834">
        <ele>134.24000000000001</ele>
        <time>2024-09-11T10:09:40Z</time>
      </trkpt>
      <trkpt lat="50.064546978101134" lon="8.746569016948342">
        <ele>132.80000000000001</ele>
        <time>2024-09-11T10:09:51Z</time>
      </trkpt>
      <trkpt lat="50.065182996913791" lon="8.752456968650222">
        <ele>132.31999999999999</ele>
        <time>2024-09-11T10:10:04Z</time>
      </trkpt>
      <trkpt lat="50.065982965752482" lon="8.759619975462556">
        <ele>127.98999999999999</ele>
        <time>2024-09-11T10:10:20Z</time>
      </trkpt>
      <trkpt lat="50.066513959318399" lon="8.764373017475009">
        <ele>126.55</ele>
        <time>2024-09-11T10:10:31Z</time>
      </trkpt>
      <trkpt lat="50.066901035606861" lon="8.768860017880797">
        <ele>126.55</ele>
        <time>2024-09-11T10:10:41Z</time>
      </trkpt>
      <trkpt lat="50.067138997837901" lon="8.772994978353381">
        <ele>127.03</ele>
        <time>2024-09-11T10:10:50Z</time>
      </trkpt>
      <trkpt lat="50.067309988662601" lon="8.779434962198138">
        <ele>126.06999999999999</ele>
        <time>2024-09-11T10:11:04Z</time>
      </trkpt>
      <trkpt lat="50.067408978939056" lon="8.785145971924067">
        <ele>127.03</ele>
        <time>2024-09-11T10:11:17Z</time>
      </trkpt>
      <trkpt lat="50.067471005022526" lon="8.789443038403988">
        <ele>128.94999999999999</ele>
        <time>2024-09-11T10:11:28Z</time>
      </trkpt>
      <trkpt lat="50.067534036934376" lon="8.79402500577271">
        <ele>130.88</ele>
        <time>2024-09-11T10:11:38Z</time>
      </trkpt>
      <trkpt lat="50.067608971148729" lon="8.799540968611836">
        <ele>132.31999999999999</ele>
        <time>2024-09-11T10:11:50Z</time>
      </trkpt>
      <trkpt lat="50.067686000838876" lon="8.805525982752442">
        <ele>130.88</ele>
        <time>2024-09-11T10:12:03Z</time>
      </trkpt>
      <trkpt lat="50.0677590072155" lon="8.811500016599894">
        <ele>127.98999999999999</ele>
        <time>2024-09-11T10:12:16Z</time>
      </trkpt>
      <trkpt lat="50.067808963358402" lon="8.814276019111276">
        <ele>127.03</ele>
        <time>2024-09-11T10:12:22Z</time>
      </trkpt>
      <trkpt lat="50.067808963358402" lon="8.814748004078865">
        <ele>126.55</ele>
        <time>2024-09-11T10:12:23Z</time>
      </trkpt>
      <trkpt lat="50.067771999165416" lon="8.819808997213841">
        <ele>127.03</ele>
        <time>2024-09-11T10:12:34Z</time>
      </trkpt>
      <trkpt lat="50.067424988374114" lon="8.824830008670688">
        <ele>130.40000000000001</ele>
        <time>2024-09-11T10:12:45Z</time>
      </trkpt>
      <trkpt lat="50.066861975938082" lon="8.828411009162664">
        <ele>131.36000000000001</ele>
        <time>2024-09-11T10:12:53Z</time>
      </trkpt>
      <trkpt lat="50.065531013533473" lon="8.833996038883925">
        <ele>127.98999999999999</ele>
        <time>2024-09-11T10:13:06Z</time>
      </trkpt>
      <trkpt lat="50.064158979803324" lon="8.839101959019899">
        <ele>127.03</ele>
        <time>2024-09-11T10:13:18Z</time>
      </trkpt>
      <trkpt lat="50.062596006318927" lon="8.845079010352492">
        <ele>127.03</ele>
        <time>2024-09-11T10:13:32Z</time>
      </trkpt>
      <trkpt lat="50.061723031103611" lon="8.849470037966967">
        <ele>125.59</ele>
        <time>2024-09-11T10:13:42Z</time>
      </trkpt>
      <trkpt lat="50.06112196482718" lon="8.854433968663216">
        <ele>123.67</ele>
        <time>2024-09-11T10:13:53Z</time>
      </trkpt>
      <trkpt lat="50.060717035084963" lon="8.859871979802847">
        <ele>121.26000000000001</ele>
        <time>2024-09-11T10:14:05Z</time>
      </trkpt>
      <trkpt lat="50.060634976252913" lon="8.86106195859611">
        <ele>121.26000000000001</ele>
        <time>2024-09-11T10:14:09Z</time>
      </trkpt>
      <trkpt lat="50.060501033440232" lon="8.863001028075814">
        <ele>120.78</ele>
        <time>2024-09-11T10:14:16Z</time>
      </trkpt>
      <trkpt lat="50.060296012088656" lon="8.866155976429582">
        <ele>122.22</ele>
        <time>2024-09-11T10:14:25Z</time>
      </trkpt>
      <trkpt lat="50.060038017109036" lon="8.870144002139568">
        <ele>122.70999999999999</ele>
        <time>2024-09-11T10:14:36Z</time>
      </trkpt>
      <trkpt lat="50.059779016301036" lon="8.874172009527683">
        <ele>123.19</ele>
        <time>2024-09-11T10:14:47Z</time>
      </trkpt>
      <trkpt lat="50.059715984389186" lon="8.875115979462862">
        <ele>123.67</ele>
        <time>2024-09-11T10:14:51Z</time>
      </trkpt>
      <trkpt lat="50.05970299243927" lon="8.875318989157677">
        <ele>123.19</ele>
        <time>2024-09-11T10:14:53Z</time>
      </trkpt>
      <trkpt lat="50.059677008539438" lon="8.875717967748642">
        <ele>123.19</ele>
        <time>2024-09-11T10:14:57Z</time>
      </trkpt>
      <trkpt lat="50.059665022417903" lon="8.875971017405391">
        <ele>122.70999999999999</ele>
        <time>2024-09-11T10:14:59Z</time>
      </trkpt>
      <trkpt lat="50.059556979686022" lon="8.877555029466748">
        <ele>119.81999999999999</ele>
        <time>2024-09-11T10:15:08Z</time>
      </trkpt>
      <trkpt lat="50.059404009953141" lon="8.879705993458629">
        <ele>117.42</ele>
        <time>2024-09-11T10:15:17Z</time>
      </trkpt>
      <trkpt lat="50.05920703522861" lon="8.882270017638803">
        <ele>115.98</ele>
        <time>2024-09-11T10:15:26Z</time>
      </trkpt>
      <trkpt lat="50.058986004441977" lon="8.884902019053698">
        <ele>114.53</ele>
        <time>2024-09-11T10:15:33Z</time>
      </trkpt>
      <trkpt lat="50.058782994747162" lon="8.88722900301218">
        <ele>114.05</ele>
        <time>2024-09-11T10:15:39Z</time>
      </trkpt>
      <trkpt lat="50.058356020599604" lon="8.889942979440093">
        <ele>115.01000000000001</ele>
        <time>2024-09-11T10:15:47Z</time>
      </trkpt>
      <trkpt lat="50.058239009231329" lon="8.891244018450379">
        <ele>115.98</ele>
        <time>2024-09-11T10:15:52Z</time>
      </trkpt>
      <trkpt lat="50.058171031996608" lon="8.891680967062712">
        <ele>115.5</ele>
        <time>2024-09-11T10:15:54Z</time>
      </trkpt>
      <trkpt lat="50.058075981214643" lon="8.892494011670351">
        <ele>115.5</ele>
        <time>2024-09-11T10:15:58Z</time>
      </trkpt>
      <trkpt lat="50.058003980666399" lon="8.892651004716754">
        <ele>115.5</ele>
        <time>2024-09-11T10:15:59Z</time>
      </trkpt>
      <trkpt lat="50.0579400267452" lon="8.892759969457984">
        <ele>115.5</ele>
        <time>2024-09-11T10:16:00Z</time>
      </trkpt>
      <trkpt lat="50.05783399567008" lon="8.892832975834608">
        <ele>115.5</ele>
        <time>2024-09-11T10:16:01Z</time>
      </trkpt>
      <trkpt lat="50.05772695876658" lon="8.892906988039613">
        <ele>115.98</ele>
        <time>2024-09-11T10:16:02Z</time>
      </trkpt>
      <trkpt lat="50.057623023167253" lon="8.892932971939445">
        <ele>116.45999999999999</ele>
        <time>2024-09-11T10:16:03Z</time>
      </trkpt>
      <trkpt lat="50.057487990707159" lon="8.892917968332768">
        <ele>116.94</ele>
        <time>2024-09-11T10:16:04Z</time>
      </trkpt>
      <trkpt lat="50.057402998209" lon="8.892825013026595">
        <ele>117.42</ele>
        <time>2024-09-11T10:16:05Z</time>
      </trkpt>
      <trkpt lat="50.057309037074447" lon="8.892723005264998">
        <ele>117.42</ele>
        <time>2024-09-11T10:16:06Z</time>
      </trkpt>
      <trkpt lat="50.057235024869442" lon="8.892581015825272">
        <ele>117.90000000000001</ele>
        <time>2024-09-11T10:16:07Z</time>
      </trkpt>
      <trkpt lat="50.057202000170946" lon="8.892422011122108">
        <ele>118.38</ele>
        <time>2024-09-11T10:16:08Z</time>
      </trkpt>
      <trkpt lat="50.057169981300831" lon="8.892235010862351">
        <ele>118.86</ele>
        <time>2024-09-11T10:16:09Z</time>
      </trkpt>
      <trkpt lat="50.057197976857424" lon="8.892085980623961">
        <ele>119.34</ele>
        <time>2024-09-11T10:16:10Z</time>
      </trkpt>
      <trkpt lat="50.057226978242397" lon="8.89193301089108">
        <ele>119.81999999999999</ele>
        <time>2024-09-11T10:16:11Z</time>
      </trkpt>
      <trkpt lat="50.057280035689473" lon="8.891764031723142">
        <ele>120.78</ele>
        <time>2024-09-11T10:16:12Z</time>
      </trkpt>
      <trkpt lat="50.05735999904573" lon="8.891652971506119">
        <ele>121.26000000000001</ele>
        <time>2024-09-11T10:16:13Z</time>
      </trkpt>
      <trkpt lat="50.05746603012085" lon="8.891556998714805">
        <ele>121.73999999999999</ele>
        <time>2024-09-11T10:16:14Z</time>
      </trkpt>
      <trkpt lat="50.057579018175602" lon="8.891531014814973">
        <ele>122.22</ele>
        <time>2024-09-11T10:16:15Z</time>
      </trkpt>
      <trkpt lat="50.057707009837031" lon="8.89150301925838">
        <ele>122.70999999999999</ele>
        <time>2024-09-11T10:16:16Z</time>
      </trkpt>
      <trkpt lat="50.057841958478093" lon="8.891473012045026">
        <ele>123.19</ele>
        <time>2024-09-11T10:16:17Z</time>
      </trkpt>
      <trkpt lat="50.057989982888103" lon="8.89143998734653">
        <ele>123.67</ele>
        <time>2024-09-11T10:16:18Z</time>
      </trkpt>
      <trkpt lat="50.059329997748137" lon="8.891450967639685">
        <ele>124.15000000000001</ele>
        <time>2024-09-11T10:16:25Z</time>
      </trkpt>
      <trkpt lat="50.061418013647199" lon="8.891453985124826">
        <ele>122.22</ele>
        <time>2024-09-11T10:16:33Z</time>
      </trkpt>
      <trkpt lat="50.063592027872801" lon="8.891407968476415">
        <ele>122.22</ele>
        <time>2024-09-11T10:16:42Z</time>
      </trkpt>
      <trkpt lat="50.066522005945444" lon="8.890991974622011">
        <ele>120.3</ele>
        <time>2024-09-11T10:16:54Z</time>
      </trkpt>
      <trkpt lat="50.069147972390056" lon="8.89016903936863">
        <ele>119.34</ele>
        <time>2024-09-11T10:17:05Z</time>
      </trkpt>
      <trkpt lat="50.072342986240983" lon="8.889358006417751">
        <ele>118.38</ele>
        <time>2024-09-11T10:17:18Z</time>
      </trkpt>
      <trkpt lat="50.074306027963758" lon="8.889134963974357">
        <ele>112.61</ele>
        <time>2024-09-11T10:17:26Z</time>
      </trkpt>
      <trkpt lat="50.076772989705205" lon="8.889286005869508">
        <ele>109.73</ele>
        <time>2024-09-11T10:17:36Z</time>
      </trkpt>
      <trkpt lat="50.079500963911414" lon="8.890087986364961">
        <ele>113.09</ele>
        <time>2024-09-11T10:17:47Z</time>
      </trkpt>
      <trkpt lat="50.08234603330493" lon="8.891650959849358">
        <ele>114.53</ele>
        <time>2024-09-11T10:17:59Z</time>
      </trkpt>
      <trkpt lat="50.084437988698483" lon="8.893089964985848">
        <ele>116.45999999999999</ele>
        <time>2024-09-11T10:18:08Z</time>
      </trkpt>
      <trkpt lat="50.087917987257242" lon="8.895782986655831">
        <ele>121.73999999999999</ele>
        <time>2024-09-11T10:18:23Z</time>
      </trkpt>
      <trkpt lat="50.089370990172029" lon="8.897590041160584">
        <ele>122.22</ele>
        <time>2024-09-11T10:18:30Z</time>
      </trkpt>
      <trkpt lat="50.090432977303863" lon="8.899994976818562">
        <ele>119.34</ele>
        <time>2024-09-11T10:18:37Z</time>
      </trkpt>
      <trkpt lat="50.091891009360552" lon="8.903050012886524">
        <ele>112.61</ele>
        <time>2024-09-11T10:18:46Z</time>
      </trkpt>
      <trkpt lat="50.093207973986864" lon="8.904796969145536">
        <ele>108.29000000000001</ele>
        <time>2024-09-11T10:18:53Z</time>
      </trkpt>
      <trkpt lat="50.094580007717013" lon="8.905919976532459">
        <ele>105.40000000000001</ele>
        <time>2024-09-11T10:18:59Z</time>
      </trkpt>
      <trkpt lat="50.097702015191317" lon="8.907458977773786">
        <ele>103.95999999999999</ele>
        <time>2024-09-11T10:19:11Z</time>
      </trkpt>
      <trkpt lat="50.099637983366847" lon="8.909115996211767">
        <ele>103.48</ele>
        <time>2024-09-11T10:19:19Z</time>
      </trkpt>
      <trkpt lat="50.10106299072504" lon="8.911085994914174">
        <ele>100.59999999999999</ele>
        <time>2024-09-11T10:19:33Z</time>
      </trkpt>
      <trkpt lat="50.104997958987951" lon="8.917616000398994">
        <ele>108.29000000000001</ele>
        <time>2024-09-11T10:19:54Z</time>
      </trkpt>
      <trkpt lat="50.109022026881576" lon="8.924343986436725">
        <ele>113.09</ele>
        <time>2024-09-11T10:20:07Z</time>
      </trkpt>
      <trkpt lat="50.111129991710186" lon="8.927848041057587">
        <ele>111.17</ele>
        <time>2024-09-11T10:20:18Z</time>
      </trkpt>
      <trkpt lat="50.113334013149142" lon="8.931550998240709">
        <ele>113.56999999999999</ele>
        <time>2024-09-11T10:20:31Z</time>
      </trkpt>
      <trkpt lat="50.115040987730026" lon="8.934425991028547">
        <ele>116.94</ele>
        <time>2024-09-11T10:20:41Z</time>
      </trkpt>
      <trkpt lat="50.116758020594716" lon="8.9377820212394">
        <ele>121.26000000000001</ele>
        <time>2024-09-11T10:20:52Z</time>
      </trkpt>
      <trkpt lat="50.117275016382337" lon="8.94038200378418">
        <ele>121.26000000000001</ele>
        <time>2024-09-11T10:20:59Z</time>
      </trkpt>
      <trkpt lat="50.117340981960297" lon="8.943512979894877">
        <ele>120.3</ele>
        <time>2024-09-11T10:21:07Z</time>
      </trkpt>
      <trkpt lat="50.117577016353607" lon="8.94620600156486">
        <ele>118.38</ele>
        <time>2024-09-11T10:21:14Z</time>
      </trkpt>
      <trkpt lat="50.118197025731206" lon="8.948341961950064">
        <ele>115.01000000000001</ele>
        <time>2024-09-11T10:21:20Z</time>
      </trkpt>
      <trkpt lat="50.119190029799938" lon="8.95009302534163">
        <ele>111.65000000000001</ele>
        <time>2024-09-11T10:21:26Z</time>
      </trkpt>
      <trkpt lat="50.119758993387222" lon="8.950820993632078">
        <ele>112.13</ele>
        <time>2024-09-11T10:21:29Z</time>
      </trkpt>
      <trkpt lat="50.121432021260262" lon="8.953128028661013">
        <ele>114.53</ele>
        <time>2024-09-11T10:21:38Z</time>
      </trkpt>
      <trkpt lat="50.121910041198134" lon="8.954041991382837">
        <ele>114.53</ele>
        <time>2024-09-11T10:21:41Z</time>
      </trkpt>
      <trkpt lat="50.122950989753008" lon="8.956211982294917">
        <ele>114.53</ele>
        <time>2024-09-11T10:21:48Z</time>
      </trkpt>
      <trkpt lat="50.124901961535215" lon="8.960268991068006">
        <ele>120.78</ele>
        <time>2024-09-11T10:22:08Z</time>
      </trkpt>
      <trkpt lat="50.127753987908363" lon="8.966282000765204">
        <ele>119.81999999999999</ele>
        <time>2024-09-11T10:22:20Z</time>
      </trkpt>
      <trkpt lat="50.128810023888946" lon="8.96848501637578">
        <ele>119.34</ele>
        <time>2024-09-11T10:22:27Z</time>
      </trkpt>
      <trkpt lat="50.13000201433897" lon="8.971002018079162">
        <ele>120.78</ele>
        <time>2024-09-11T10:22:35Z</time>
      </trkpt>
      <trkpt lat="50.132447015494108" lon="8.975987993180752">
        <ele>121.26000000000001</ele>
        <time>2024-09-11T10:22:59Z</time>
      </trkpt>
      <trkpt lat="50.134244011715055" lon="8.979233969002962">
        <ele>121.26000000000001</ele>
        <time>2024-09-11T10:23:03Z</time>
      </trkpt>
      <trkpt lat="50.135800028219819" lon="8.981795981526375">
        <ele>121.26000000000001</ele>
        <time>2024-09-11T10:23:11Z</time>
      </trkpt>
      <trkpt lat="50.137110035866499" lon="8.984162025153637">
        <ele>121.73999999999999</ele>
        <time>2024-09-11T10:23:19Z</time>
      </trkpt>
      <trkpt lat="50.138083007186651" lon="8.986881030723453">
        <ele>119.81999999999999</ele>
        <time>2024-09-11T10:23:27Z</time>
      </trkpt>
      <trkpt lat="50.139113981276751" lon="8.989111036062241">
        <ele>119.81999999999999</ele>
        <time>2024-09-11T10:23:34Z</time>
      </trkpt>
      <trkpt lat="50.139453029260039" lon="8.989672958850861">
        <ele>119.81999999999999</ele>
        <time>2024-09-11T10:23:37Z</time>
      </trkpt>
      <trkpt lat="50.14147499576211" lon="8.991897013038397">
        <ele>120.3</ele>
        <time>2024-09-11T10:23:46Z</time>
      </trkpt>
      <trkpt lat="50.142794977873564" lon="8.993033012375236">
        <ele>120.3</ele>
        <time>2024-09-11T10:23:52Z</time>
      </trkpt>
      <trkpt lat="50.144329033792019" lon="8.994989013299346">
        <ele>120.3</ele>
        <time>2024-09-11T10:24:00Z</time>
      </trkpt>
      <trkpt lat="50.146125024184585" lon="8.998248986899853">
        <ele>122.70999999999999</ele>
        <time>2024-09-11T10:24:11Z</time>
      </trkpt>
      <trkpt lat="50.147417010739446" lon="9.000871013849974">
        <ele>121.26000000000001</ele>
        <time>2024-09-11T10:24:21Z</time>
      </trkpt>
      <trkpt lat="50.149075035005808" lon="9.003995032981038">
        <ele>119.81999999999999</ele>
        <time>2024-09-11T10:24:32Z</time>
      </trkpt>
      <trkpt lat="50.150890974327922" lon="9.00707202963531">
        <ele>118.86</ele>
        <time>2024-09-11T10:24:43Z</time>
      </trkpt>
      <trkpt lat="50.152817973867059" lon="9.010050036013126">
        <ele>118.38</ele>
        <time>2024-09-11T10:24:54Z</time>
      </trkpt>
      <trkpt lat="50.155303962528706" lon="9.013422997668386">
        <ele>118.86</ele>
        <time>2024-09-11T10:25:07Z</time>
      </trkpt>
      <trkpt lat="50.157604040578008" lon="9.015789963304997">
        <ele>116.94</ele>
        <time>2024-09-11T10:25:18Z</time>
      </trkpt>
      <trkpt lat="50.159967988729477" lon="9.017403982579708">
        <ele>117.42</ele>
        <time>2024-09-11T10:25:28Z</time>
      </trkpt>
      <trkpt lat="50.162563025951385" lon="9.018299002200365">
        <ele>121.26000000000001</ele>
        <time>2024-09-11T10:25:38Z</time>
      </trkpt>
      <trkpt lat="50.164951030164957" lon="9.01899796910584">
        <ele>122.70999999999999</ele>
        <time>2024-09-11T10:25:47Z</time>
      </trkpt>
      <trkpt lat="50.166426999494433" lon="9.020069008693099">
        <ele>122.70999999999999</ele>
        <time>2024-09-11T10:25:53Z</time>
      </trkpt>
      <trkpt lat="50.167334005236626" lon="9.020627997815609">
        <ele>124.15000000000001</ele>
        <time>2024-09-11T10:25:58Z</time>
      </trkpt>
      <trkpt lat="50.167477000504732" lon="9.020688012242317">
        <ele>124.63</ele>
        <time>2024-09-11T10:25:59Z</time>
      </trkpt>
      <trkpt lat="50.168337989598513" lon="9.021040974184871">
        <ele>127.03</ele>
        <time>2024-09-11T10:26:07Z</time>
      </trkpt>
      <trkpt lat="50.168677037581801" lon="9.021265022456646">
        <ele>126.55</ele>
        <time>2024-09-11T10:26:15Z</time>
      </trkpt>
      <trkpt lat="50.169028993695974" lon="9.021572973579168">
        <ele>126.55</ele>
        <time>2024-09-11T10:26:26Z</time>
      </trkpt>
      <trkpt lat="50.169066041707993" lon="9.021609015762806">
        <ele>126.55</ele>
        <time>2024-09-11T10:26:27Z</time>
      </trkpt>
      <trkpt lat="50.169468959793448" lon="9.022059040144086">
        <ele>124.63</ele>
        <time>2024-09-11T10:26:40Z</time>
      </trkpt>
      <trkpt lat="50.16983499750495" lon="9.022634960711002">
        <ele>125.11</ele>
        <time>2024-09-11T10:26:54Z</time>
      </trkpt>
      <trkpt lat="50.170055022463202" lon="9.023166038095951">
        <ele>124.63</ele>
        <time>2024-09-11T10:27:06Z</time>
      </trkpt>
      <trkpt lat="50.170274041593075" lon="9.023824017494917">
        <ele>124.63</ele>
        <time>2024-09-11T10:27:14Z</time>
      </trkpt>
      <trkpt lat="50.170534970238805" lon="9.024988012388349">
        <ele>124.63</ele>
        <time>2024-09-11T10:27:21Z</time>
      </trkpt>
      <trkpt lat="50.170836970210075" lon="9.027063958346844">
        <ele>122.22</ele>
        <time>2024-09-11T10:27:28Z</time>
      </trkpt>
      <trkpt lat="50.171265034005046" lon="9.030544040724635">
        <ele>121.26000000000001</ele>
        <time>2024-09-11T10:27:38Z</time>
      </trkpt>
      <trkpt lat="50.171371987089515" lon="9.034429974853993">
        <ele>120.78</ele>
        <time>2024-09-11T10:27:48Z</time>
      </trkpt>
      <trkpt lat="50.171433007344604" lon="9.037547959014773">
        <ele>120.3</ele>
        <time>2024-09-11T10:27:56Z</time>
      </trkpt>
      <trkpt lat="50.171538032591343" lon="9.042226988822222">
        <ele>119.81999999999999</ele>
        <time>2024-09-11T10:28:08Z</time>
      </trkpt>
      <trkpt lat="50.17179099842906" lon="9.044910036027432">
        <ele>120.3</ele>
        <time>2024-09-11T10:28:15Z</time>
      </trkpt>
      <trkpt lat="50.172389969229698" lon="9.047470036894083">
        <ele>121.26000000000001</ele>
        <time>2024-09-11T10:28:22Z</time>
      </trkpt>
      <trkpt lat="50.173496967181563" lon="9.050069013610482">
        <ele>122.70999999999999</ele>
        <time>2024-09-11T10:28:30Z</time>
      </trkpt>
      <trkpt lat="50.175111992284656" lon="9.052498005330563">
        <ele>123.67</ele>
        <time>2024-09-11T10:28:39Z</time>
      </trkpt>
      <trkpt lat="50.176590979099274" lon="9.054622985422611">
        <ele>124.63</ele>
        <time>2024-09-11T10:28:47Z</time>
      </trkpt>
      <trkpt lat="50.177600998431444" lon="9.056847961619496">
        <ele>126.06999999999999</ele>
        <time>2024-09-11T10:28:54Z</time>
      </trkpt>
      <trkpt lat="50.178298959508538" lon="9.059767965227366">
        <ele>127.98999999999999</ele>
        <time>2024-09-11T10:29:02Z</time>
      </trkpt>
      <trkpt lat="50.179294981062412" lon="9.065431030467153">
        <ele>126.55</ele>
        <time>2024-09-11T10:29:17Z</time>
      </trkpt>
      <trkpt lat="50.180425029247999" lon="9.071910995990038">
        <ele>126.06999999999999</ele>
        <time>2024-09-11T10:29:34Z</time>
      </trkpt>
      <trkpt lat="50.181275038048625" lon="9.076529005542398">
        <ele>126.55</ele>
        <time>2024-09-11T10:29:45Z</time>
      </trkpt>
      <trkpt lat="50.18238203600049" lon="9.079146003350616">
        <ele>126.55</ele>
        <time>2024-09-11T10:29:52Z</time>
      </trkpt>
      <trkpt lat="50.183923970907927" lon="9.081131005659699">
        <ele>126.06999999999999</ele>
        <time>2024-09-11T10:29:59Z</time>
      </trkpt>
      <trkpt lat="50.18676501698792" lon="9.08420599065721">
        <ele>125.59</ele>
        <time>2024-09-11T10:30:11Z</time>
      </trkpt>
      <trkpt lat="50.188231011852622" lon="9.086328037083149">
        <ele>124.15000000000001</ele>
        <time>2024-09-11T10:30:18Z</time>
      </trkpt>
      <trkpt lat="50.189095018431544" lon="9.0886290371418">
        <ele>124.63</ele>
        <time>2024-09-11T10:30:24Z</time>
      </trkpt>
      <trkpt lat="50.191050013527274" lon="9.095185026526451">
        <ele>128.47</ele>
        <time>2024-09-11T10:30:40Z</time>
      </trkpt>
      <trkpt lat="50.192095991224051" lon="9.098912961781025">
        <ele>130.88</ele>
        <time>2024-09-11T10:30:49Z</time>
      </trkpt>
      <trkpt lat="50.192603012546897" lon="9.102405030280352">
        <ele>130.88</ele>
        <time>2024-09-11T10:30:57Z</time>
      </trkpt>
      <trkpt lat="50.192634025588632" lon="9.106451980769634">
        <ele>129.91999999999999</ele>
        <time>2024-09-11T10:31:06Z</time>
      </trkpt>
      <trkpt lat="50.192689010873437" lon="9.110476970672607">
        <ele>129.43000000000001</ele>
        <time>2024-09-11T10:31:15Z</time>
      </trkpt>
      <trkpt lat="50.193131994456053" lon="9.114918038249016">
        <ele>130.40000000000001</ele>
        <time>2024-09-11T10:31:25Z</time>
      </trkpt>
      <trkpt lat="50.194040006026626" lon="9.119186019524932">
        <ele>133.28</ele>
        <time>2024-09-11T10:31:35Z</time>
      </trkpt>
      <trkpt lat="50.194810973480344" lon="9.121749959886074">
        <ele>133.28</ele>
        <time>2024-09-11T10:31:42Z</time>
      </trkpt>
      <trkpt lat="50.195872038602829" lon="9.124456979334354">
        <ele>132.80000000000001</ele>
        <time>2024-09-11T10:31:50Z</time>
      </trkpt>
      <trkpt lat="50.197560992091894" lon="9.128308966755867">
        <ele>131.84</ele>
        <time>2024-09-11T10:32:02Z</time>
      </trkpt>
      <trkpt lat="50.199010977521539" lon="9.132194984704256">
        <ele>132.31999999999999</ele>
        <time>2024-09-11T10:32:13Z</time>
      </trkpt>
      <trkpt lat="50.199684966355562" lon="9.135448001325131">
        <ele>133.28</ele>
        <time>2024-09-11T10:32:21Z</time>
      </trkpt>
      <trkpt lat="50.199967017397285" lon="9.13838803768158">
        <ele>134.24000000000001</ele>
        <time>2024-09-11T10:32:28Z</time>
      </trkpt>
      <trkpt lat="50.199930975213647" lon="9.140566997230053">
        <ele>134.72</ele>
        <time>2024-09-11T10:32:34Z</time>
      </trkpt>
      <trkpt lat="50.1995500177145" lon="9.14365497417748">
        <ele>134.72</ele>
        <time>2024-09-11T10:32:43Z</time>
      </trkpt>
      <trkpt lat="50.198723981156945" lon="9.146993989124894">
        <ele>132.80000000000001</ele>
        <time>2024-09-11T10:32:52Z</time>
      </trkpt>
      <trkpt lat="50.197392012923956" lon="9.15031598880887">
        <ele>130.88</ele>
        <time>2024-09-11T10:33:02Z</time>
      </trkpt>
      <trkpt lat="50.195824010297656" lon="9.15360102429986">
        <ele>130.88</ele>
        <time>2024-09-11T10:33:13Z</time>
      </trkpt>
      <trkpt lat="50.194463962689042" lon="9.156342996284366">
        <ele>134.24000000000001</ele>
        <time>2024-09-11T10:33:24Z</time>
      </trkpt>
      <trkpt lat="50.19295496866107" lon="9.159405995160341">
        <ele>137.13</ele>
        <time>2024-09-11T10:33:36Z</time>
      </trkpt>
      <trkpt lat="50.191544964909554" lon="9.162960005924106">
        <ele>139.05000000000001</ele>
        <time>2024-09-11T10:33:49Z</time>
      </trkpt>
      <trkpt lat="50.190750025212765" lon="9.166461965069175">
        <ele>138.09</ele>
        <time>2024-09-11T10:34:00Z</time>
      </trkpt>
      <trkpt lat="50.190451964735985" lon="9.16984599083662">
        <ele>136.63999999999999</ele>
        <time>2024-09-11T10:34:10Z</time>
      </trkpt>
      <trkpt lat="50.190605018287897" lon="9.172949977219105">
        <ele>134.72</ele>
        <time>2024-09-11T10:34:19Z</time>
      </trkpt>
      <trkpt lat="50.191143974661827" lon="9.17635403573513">
        <ele>134.72</ele>
        <time>2024-09-11T10:34:29Z</time>
      </trkpt>
      <trkpt lat="50.192121975123882" lon="9.180968021973968">
        <ele>133.28</ele>
        <time>2024-09-11T10:34:43Z</time>
      </trkpt>
      <trkpt lat="50.192770985886455" lon="9.184576012194157">
        <ele>135.68000000000001</ele>
        <time>2024-09-11T10:34:54Z</time>
      </trkpt>
      <trkpt lat="50.19342795945704" lon="9.188926974311471">
        <ele>137.13</ele>
        <time>2024-09-11T10:35:07Z</time>
      </trkpt>
      <trkpt lat="50.193960964679718" lon="9.192614005878568">
        <ele>138.09</ele>
        <time>2024-09-11T10:35:18Z</time>
      </trkpt>
      <trkpt lat="50.194553984329104" lon="9.197787987068296">
        <ele>138.09</ele>
        <time>2024-09-11T10:35:33Z</time>
      </trkpt>
      <trkpt lat="50.194739978760481" lon="9.199893018230796">
        <ele>138.56999999999999</ele>
        <time>2024-09-11T10:35:39Z</time>
      </trkpt>
      <trkpt lat="50.19475900568068" lon="9.200250003486872">
        <ele>139.05000000000001</ele>
        <time>2024-09-11T10:35:40Z</time>
      </trkpt>
      <trkpt lat="50.195009959861636" lon="9.204815961420536">
        <ele>140.00999999999999</ele>
        <time>2024-09-11T10:35:53Z</time>
      </trkpt>
      <trkpt lat="50.19533702172339" lon="9.209706969559193">
        <ele>140.49000000000001</ele>
        <time>2024-09-11T10:36:07Z</time>
      </trkpt>
      <trkpt lat="50.195959964767098" lon="9.212517002597451">
        <ele>139.53</ele>
        <time>2024-09-11T10:36:16Z</time>
      </trkpt>
      <trkpt lat="50.19703502766788" lon="9.215486040338874">
        <ele>139.05000000000001</ele>
        <time>2024-09-11T10:36:26Z</time>
      </trkpt>
      <trkpt lat="50.198748037219048" lon="9.219599040225148">
        <ele>141.44999999999999</ele>
        <time>2024-09-11T10:36:40Z</time>
      </trkpt>
      <trkpt lat="50.200129961594939" lon="9.222787013277412">
        <ele>144.34</ele>
        <time>2024-09-11T10:36:51Z</time>
      </trkpt>
      <trkpt lat="50.201448015868664" lon="9.22501802444458">
        <ele>145.78</ele>
        <time>2024-09-11T10:37:00Z</time>
      </trkpt>
      <trkpt lat="50.203136969357729" lon="9.226726004853845">
        <ele>143.84999999999999</ele>
        <time>2024-09-11T10:37:09Z</time>
      </trkpt>
      <trkpt lat="50.205033039674163" lon="9.227847000584006">
        <ele>141.93000000000001</ele>
        <time>2024-09-11T10:37:18Z</time>
      </trkpt>
      <trkpt lat="50.206118999049067" lon="9.228549990803003">
        <ele>140.49000000000001</ele>
        <time>2024-09-11T10:37:23Z</time>
      </trkpt>
      <trkpt lat="50.207703011110425" lon="9.230123022571206">
        <ele>138.56999999999999</ele>
        <time>2024-09-11T10:37:30Z</time>
      </trkpt>
      <trkpt lat="50.209203036502004" lon="9.232469033449888">
        <ele>138.56999999999999</ele>
        <time>2024-09-11T10:37:38Z</time>
      </trkpt>
      <trkpt lat="50.210843039676547" lon="9.235147973522544">
        <ele>137.61000000000001</ele>
        <time>2024-09-11T10:37:47Z</time>
      </trkpt>
      <trkpt lat="50.212817983701825" lon="9.237645026296377">
        <ele>140.97</ele>
        <time>2024-09-11T10:37:56Z</time>
      </trkpt>
      <trkpt lat="50.215052012354136" lon="9.239541012793779">
        <ele>143.84999999999999</ele>
        <time>2024-09-11T10:38:05Z</time>
      </trkpt>
      <trkpt lat="50.216958979144692" lon="9.240687992423773">
        <ele>142.88999999999999</ele>
        <time>2024-09-11T10:38:12Z</time>
      </trkpt>
      <trkpt lat="50.219641020521522" lon="9.242589008063078">
        <ele>140.49000000000001</ele>
        <time>2024-09-11T10:38:22Z</time>
      </trkpt>
      <trkpt lat="50.221294015645981" lon="9.244611980393529">
        <ele>140.49000000000001</ele>
        <time>2024-09-11T10:38:29Z</time>
      </trkpt>
      <trkpt lat="50.22260301746428" lon="9.247164018452168">
        <ele>140.49000000000001</ele>
        <time>2024-09-11T10:38:36Z</time>
      </trkpt>
      <trkpt lat="50.223579006269574" lon="9.250484006479383">
        <ele>140.97</ele>
        <time>2024-09-11T10:38:44Z</time>
      </trkpt>
      <trkpt lat="50.223989970982075" lon="9.254070958122611">
        <ele>140.49000000000001</ele>
        <time>2024-09-11T10:38:52Z</time>
      </trkpt>
      <trkpt lat="50.224219970405102" lon="9.258163003250957">
        <ele>140.00999999999999</ele>
        <time>2024-09-11T10:39:01Z</time>
      </trkpt>
      <trkpt lat="50.224414011463523" lon="9.261770993471146">
        <ele>139.53</ele>
        <time>2024-09-11T10:39:09Z</time>
      </trkpt>
      <trkpt lat="50.224744006991386" lon="9.26766799762845">
        <ele>141.93000000000001</ele>
        <time>2024-09-11T10:39:22Z</time>
      </trkpt>
      <trkpt lat="50.225252034142613" lon="9.27125402726233">
        <ele>145.30000000000001</ele>
        <time>2024-09-11T10:39:30Z</time>
      </trkpt>
      <trkpt lat="50.226237997412682" lon="9.274572003632784">
        <ele>146.74000000000001</ele>
        <time>2024-09-11T10:39:38Z</time>
      </trkpt>
      <trkpt lat="50.228023007512093" lon="9.278765972703695">
        <ele>148.18000000000001</ele>
        <time>2024-09-11T10:39:49Z</time>
      </trkpt>
      <trkpt lat="50.230256030336022" lon="9.282946027815342">
        <ele>147.69999999999999</ele>
        <time>2024-09-11T10:40:01Z</time>
      </trkpt>
      <trkpt lat="50.232050009071827" lon="9.285233030095696">
        <ele>149.13999999999999</ele>
        <time>2024-09-11T10:40:09Z</time>
      </trkpt>
      <trkpt lat="50.234532980248332" lon="9.287610976025462">
        <ele>151.06</ele>
        <time>2024-09-11T10:40:20Z</time>
      </trkpt>
      <trkpt lat="50.236850995570421" lon="9.290368035435677">
        <ele>152.03</ele>
        <time>2024-09-11T10:40:29Z</time>
      </trkpt>
      <trkpt lat="50.238410029560328" lon="9.29306298494339">
        <ele>153.47</ele>
        <time>2024-09-11T10:40:37Z</time>
      </trkpt>
      <trkpt lat="50.239824978634715" lon="9.296495039016008">
        <ele>160.19999999999999</ele>
        <time>2024-09-11T10:40:46Z</time>
      </trkpt>
      <trkpt lat="50.241043036803603" lon="9.300622036680579">
        <ele>171.25</ele>
        <time>2024-09-11T10:40:56Z</time>
      </trkpt>
      <trkpt lat="50.242114998400211" lon="9.305817978456616">
        <ele>186.63</ele>
        <time>2024-09-11T10:41:08Z</time>
      </trkpt>
      <trkpt lat="50.242581032216549" lon="9.30986300110817">
        <ele>197.69</ele>
        <time>2024-09-11T10:41:17Z</time>
      </trkpt>
      <trkpt lat="50.242622019723058" lon="9.313033958896995">
        <ele>206.34</ele>
        <time>2024-09-11T10:41:24Z</time>
      </trkpt>
      <trkpt lat="50.242565022781491" lon="9.317133966833353">
        <ele>217.40000000000001</ele>
        <time>2024-09-11T10:41:33Z</time>
      </trkpt>
      <trkpt lat="50.242844978347421" lon="9.320268966257572">
        <ele>224.12</ele>
        <time>2024-09-11T10:41:40Z</time>
      </trkpt>
      <trkpt lat="50.243562972173095" lon="9.323278991505504">
        <ele>228.44999999999999</ele>
        <time>2024-09-11T10:41:47Z</time>
      </trkpt>
      <trkpt lat="50.244723027572036" lon="9.325923984870315">
        <ele>232.30000000000001</ele>
        <time>2024-09-11T10:41:54Z</time>
      </trkpt>
      <trkpt lat="50.246442994102836" lon="9.328397987410426">
        <ele>232.30000000000001</ele>
        <time>2024-09-11T10:42:02Z</time>
      </trkpt>
      <trkpt lat="50.248848013579845" lon="9.331039963290095">
        <ele>226.53</ele>
        <time>2024-09-11T10:42:12Z</time>
      </trkpt>
      <trkpt lat="50.250449040904641" lon="9.333681017160416">
        <ele>219.80000000000001</ele>
        <time>2024-09-11T10:42:20Z</time>
      </trkpt>
      <trkpt lat="50.252384003251791" lon="9.337659990414977">
        <ele>204.41999999999999</ele>
        <time>2024-09-11T10:42:31Z</time>
      </trkpt>
      <trkpt lat="50.254480987787247" lon="9.340829020366073">
        <ele>190.96000000000001</ele>
        <time>2024-09-11T10:42:41Z</time>
      </trkpt>
      <trkpt lat="50.256920037791133" lon="9.344773041084409">
        <ele>174.13999999999999</ele>
        <time>2024-09-11T10:42:53Z</time>
      </trkpt>
      <trkpt lat="50.259456988424063" lon="9.34916096739471">
        <ele>165.96000000000001</ele>
        <time>2024-09-11T10:43:06Z</time>
      </trkpt>
      <trkpt lat="50.261225989088416" lon="9.352763006463647">
        <ele>163.08000000000001</ele>
        <time>2024-09-11T10:43:16Z</time>
      </trkpt>
      <trkpt lat="50.262083038687706" lon="9.355200966820121">
        <ele>161.16</ele>
        <time>2024-09-11T10:43:23Z</time>
      </trkpt>
      <trkpt lat="50.263321967795491" lon="9.358578035607934">
        <ele>158.75</ele>
        <time>2024-09-11T10:43:33Z</time>
      </trkpt>
      <trkpt lat="50.264747980982065" lon="9.361241972073913">
        <ele>156.34999999999999</ele>
        <time>2024-09-11T10:43:42Z</time>
      </trkpt>
      <trkpt lat="50.266441963613033" lon="9.363474994897842">
        <ele>151.53999999999999</ele>
        <time>2024-09-11T10:43:51Z</time>
      </trkpt>
      <trkpt lat="50.268804989755154" lon="9.366317968815565">
        <ele>153.47</ele>
        <time>2024-09-11T10:44:03Z</time>
      </trkpt>
      <trkpt lat="50.270514981821179" lon="9.36914099380374">
        <ele>157.78999999999999</ele>
        <time>2024-09-11T10:44:13Z</time>
      </trkpt>
      <trkpt lat="50.272469976916909" lon="9.371533021330833">
        <ele>161.63999999999999</ele>
        <time>2024-09-11T10:44:23Z</time>
      </trkpt>
      <trkpt lat="50.275115976110101" lon="9.373719021677971">
        <ele>166.93000000000001</ele>
        <time>2024-09-11T10:44:35Z</time>
      </trkpt>
      <trkpt lat="50.277986023575068" lon="9.376020021736622">
        <ele>171.72999999999999</ele>
        <time>2024-09-11T10:44:48Z</time>
      </trkpt>
      <trkpt lat="50.280954977497458" lon="9.378393022343516">
        <ele>177.97999999999999</ele>
        <time>2024-09-11T10:45:01Z</time>
      </trkpt>
      <trkpt lat="50.284322993829846" lon="9.381085960194469">
        <ele>181.34999999999999</ele>
        <time>2024-09-11T10:45:14Z</time>
      </trkpt>
      <trkpt lat="50.286960024386644" lon="9.383181016892195">
        <ele>178.94</ele>
        <time>2024-09-11T10:45:24Z</time>
      </trkpt>
      <trkpt lat="50.290350001305342" lon="9.385893987491727">
        <ele>169.33000000000001</ele>
        <time>2024-09-11T10:45:37Z</time>
      </trkpt>
      <trkpt lat="50.294523015618324" lon="9.389236019924283">
        <ele>171.72999999999999</ele>
        <time>2024-09-11T10:45:53Z</time>
      </trkpt>
      <trkpt lat="50.298431999981403" lon="9.392361966893077">
        <ele>176.06</ele>
        <time>2024-09-11T10:46:08Z</time>
      </trkpt>
      <trkpt lat="50.30117598362267" lon="9.394977036863565">
        <ele>185.66999999999999</ele>
        <time>2024-09-11T10:46:19Z</time>
      </trkpt>
      <trkpt lat="50.303613021969795" lon="9.398294007405639">
        <ele>195.28</ele>
        <time>2024-09-11T10:46:30Z</time>
      </trkpt>
      <trkpt lat="50.305269034579396" lon="9.401523973792791">
        <ele>195.28</ele>
        <time>2024-09-11T10:46:39Z</time>
      </trkpt>
      <trkpt lat="50.306221973150969" lon="9.404370971024036">
        <ele>190</ele>
        <time>2024-09-11T10:46:46Z</time>
      </trkpt>
      <trkpt lat="50.30671801418066" lon="9.407460959628224">
        <ele>183.75</ele>
        <time>2024-09-11T10:46:53Z</time>
      </trkpt>
      <trkpt lat="50.306856986135244" lon="9.411090994253755">
        <ele>183.27000000000001</ele>
        <time>2024-09-11T10:47:01Z</time>
      </trkpt>
      <trkpt lat="50.307237021625042" lon="9.416550965979695">
        <ele>189.03999999999999</ele>
        <time>2024-09-11T10:47:13Z</time>
      </trkpt>
      <trkpt lat="50.308055011555552" lon="9.420975018292666">
        <ele>195.28</ele>
        <time>2024-09-11T10:47:23Z</time>
      </trkpt>
      <trkpt lat="50.309050027281046" lon="9.423769041895866">
        <ele>197.21000000000001</ele>
        <time>2024-09-11T10:47:31Z</time>
      </trkpt>
      <trkpt lat="50.310620041564107" lon="9.426449993625283">
        <ele>198.65000000000001</ele>
        <time>2024-09-11T10:47:38Z</time>
      </trkpt>
      <trkpt lat="50.312322992831469" lon="9.42818496376276">
        <ele>200.56999999999999</ele>
        <time>2024-09-11T10:47:45Z</time>
      </trkpt>
      <trkpt lat="50.313927959650755" lon="9.429286010563374">
        <ele>204.90000000000001</ele>
        <time>2024-09-11T10:47:51Z</time>
      </trkpt>
      <trkpt lat="50.315796034410596" lon="9.430603981018066">
        <ele>212.11000000000001</ele>
        <time>2024-09-11T10:47:58Z</time>
      </trkpt>
      <trkpt lat="50.316050006076694" lon="9.430858958512545">
        <ele>214.03</ele>
        <time>2024-09-11T10:48:00Z</time>
      </trkpt>
      <trkpt lat="50.318081025034189" lon="9.433437986299396">
        <ele>226.05000000000001</ele>
        <time>2024-09-11T10:48:08Z</time>
      </trkpt>
      <trkpt lat="50.319272009655833" lon="9.436027994379401">
        <ele>236.13999999999999</ele>
        <time>2024-09-11T10:48:15Z</time>
      </trkpt>
      <trkpt lat="50.320883011445403" lon="9.440969964489341">
        <ele>246.72</ele>
        <time>2024-09-11T10:48:27Z</time>
      </trkpt>
      <trkpt lat="50.32253198325634" lon="9.445321010425687">
        <ele>249.12</ele>
        <time>2024-09-11T10:48:38Z</time>
      </trkpt>
      <trkpt lat="50.323801003396511" lon="9.448058037087321">
        <ele>247.19999999999999</ele>
        <time>2024-09-11T10:48:46Z</time>
      </trkpt>
      <trkpt lat="50.324603989720345" lon="9.449891997501254">
        <ele>242.87</ele>
        <time>2024-09-11T10:48:54Z</time>
      </trkpt>
      <trkpt lat="50.324839018285275" lon="9.450471019372344">
        <ele>241.91</ele>
        <time>2024-09-11T10:48:56Z</time>
      </trkpt>
      <trkpt lat="50.32489500939846" lon="9.450620971620083">
        <ele>240.94999999999999</ele>
        <time>2024-09-11T10:48:57Z</time>
      </trkpt>
      <trkpt lat="50.324774980545044" lon="9.450867986306548">
        <ele>240.47</ele>
        <time>2024-09-11T10:48:58Z</time>
      </trkpt>
      <trkpt lat="50.32478897832334" lon="9.451026991009712">
        <ele>239.99000000000001</ele>
        <time>2024-09-11T10:48:59Z</time>
      </trkpt>
      <trkpt lat="50.32480800524354" lon="9.451246010139585">
        <ele>239.02000000000001</ele>
        <time>2024-09-11T10:49:00Z</time>
      </trkpt>
      <trkpt lat="50.324793001636863" lon="9.451307030394673">
        <ele>237.58000000000001</ele>
        <time>2024-09-11T10:49:02Z</time>
      </trkpt>
      <trkpt lat="50.324737010523677" lon="9.451549015939236">
        <ele>237.09999999999999</ele>
        <time>2024-09-11T10:49:03Z</time>
      </trkpt>
      <trkpt lat="50.324759976938367" lon="9.45173199288547">
        <ele>236.62</ele>
        <time>2024-09-11T10:49:04Z</time>
      </trkpt>
      <trkpt lat="50.324794007465243" lon="9.451840035617352">
        <ele>236.13999999999999</ele>
        <time>2024-09-11T10:49:05Z</time>
      </trkpt>
      <trkpt lat="50.325028030201793" lon="9.452578984200954">
        <ele>232.78</ele>
        <time>2024-09-11T10:49:14Z</time>
      </trkpt>
      <trkpt lat="50.325036998838186" lon="9.452607985585928">
        <ele>231.33000000000001</ele>
        <time>2024-09-11T10:49:23Z</time>
      </trkpt>
      <trkpt lat="50.325101036578417" lon="9.452580995857716">
        <ele>230.37</ele>
        <time>2024-09-11T10:57:58Z</time>
      </trkpt>
      <trkpt lat="50.325117968022823" lon="9.452602034434676">
        <ele>230.84999999999999</ele>
        <time>2024-09-11T10:58:22Z</time>
      </trkpt>
      <trkpt lat="50.325100030750036" lon="9.45261100307107">
        <ele>228.93000000000001</ele>
        <time>2024-09-11T10:58:55Z</time>
      </trkpt>
      <trkpt lat="50.325070023536682" lon="9.452713010832667">
        <ele>228.93000000000001</ele>
        <time>2024-09-11T10:58:58Z</time>
      </trkpt>
      <trkpt lat="50.32508603297174" lon="9.45276296697557">
        <ele>228.93000000000001</ele>
        <time>2024-09-11T10:58:59Z</time>
      </trkpt>
      <trkpt lat="50.325105981901288" lon="9.45282599888742">
        <ele>228.44999999999999</ele>
        <time>2024-09-11T10:59:00Z</time>
      </trkpt>
      <trkpt lat="50.325163984671235" lon="9.452850976958871">
        <ele>228.44999999999999</ele>
        <time>2024-09-11T10:59:01Z</time>
      </trkpt>
      <trkpt lat="50.325206983834505" lon="9.452863968908787">
        <ele>228.44999999999999</ele>
        <time>2024-09-11T10:59:03Z</time>
      </trkpt>
      <trkpt lat="50.325285019353032" lon="9.45288903079927">
        <ele>227.97</ele>
        <time>2024-09-11T10:59:04Z</time>
      </trkpt>
      <trkpt lat="50.32538996078074" lon="9.452931024134159">
        <ele>227.97</ele>
        <time>2024-09-11T10:59:05Z</time>
      </trkpt>
      <trkpt lat="50.325414016842842" lon="9.45302196778357">
        <ele>227.49000000000001</ele>
        <time>2024-09-11T10:59:06Z</time>
      </trkpt>
      <trkpt lat="50.325445029884577" lon="9.453137973323464">
        <ele>227.49000000000001</ele>
        <time>2024-09-11T10:59:07Z</time>
      </trkpt>
      <trkpt lat="50.325477970764041" lon="9.453264959156513">
        <ele>227.00999999999999</ele>
        <time>2024-09-11T10:59:08Z</time>
      </trkpt>
      <trkpt lat="50.325880972668529" lon="9.454787028953433">
        <ele>226.05000000000001</ele>
        <time>2024-09-11T10:59:17Z</time>
      </trkpt>
      <trkpt lat="50.326166041195393" lon="9.455520026385784">
        <ele>226.53</ele>
        <time>2024-09-11T10:59:21Z</time>
      </trkpt>
      <trkpt lat="50.326209962368011" lon="9.455750025808811">
        <ele>226.05000000000001</ele>
        <time>2024-09-11T10:59:22Z</time>
      </trkpt>
      <trkpt lat="50.326250027865171" lon="9.45600600913167">
        <ele>226.05000000000001</ele>
        <time>2024-09-11T10:59:23Z</time>
      </trkpt>
      <trkpt lat="50.326530989259481" lon="9.458012972027063">
        <ele>224.61000000000001</ele>
        <time>2024-09-11T10:59:29Z</time>
      </trkpt>
      <trkpt lat="50.326649006456137" lon="9.461081000044942">
        <ele>219.80000000000001</ele>
        <time>2024-09-11T10:59:36Z</time>
      </trkpt>
      <trkpt lat="50.326757971197367" lon="9.465195005759597">
        <ele>211.63</ele>
        <time>2024-09-11T10:59:45Z</time>
      </trkpt>
      <trkpt lat="50.327293993905187" lon="9.469707990065217">
        <ele>209.69999999999999</ele>
        <time>2024-09-11T10:59:55Z</time>
      </trkpt>
      <trkpt lat="50.328209968283772" lon="9.47358101606369">
        <ele>220.28</ele>
        <time>2024-09-11T11:00:05Z</time>
      </trkpt>
      <trkpt lat="50.329703036695719" lon="9.47751103900373">
        <ele>234.69999999999999</ele>
        <time>2024-09-11T11:00:14Z</time>
      </trkpt>
      <trkpt lat="50.332263959571719" lon="9.482547976076603">
        <ele>257.29000000000002</ele>
        <time>2024-09-11T11:00:28Z</time>
      </trkpt>
      <trkpt lat="50.334092974662781" lon="9.484869008883834">
        <ele>270.26999999999998</ele>
        <time>2024-09-11T11:00:36Z</time>
      </trkpt>
      <trkpt lat="50.336212003603578" lon="9.486471964046359">
        <ele>282.27999999999997</ele>
        <time>2024-09-11T11:00:44Z</time>
      </trkpt>
      <trkpt lat="50.33851602114737" lon="9.488530978560448">
        <ele>295.25999999999999</ele>
        <time>2024-09-11T11:00:53Z</time>
      </trkpt>
      <trkpt lat="50.340197011828423" lon="9.491118974983692">
        <ele>305.83999999999997</ele>
        <time>2024-09-11T11:01:01Z</time>
      </trkpt>
      <trkpt lat="50.342144966125488" lon="9.493925990536809">
        <ele>318.32999999999998</ele>
        <time>2024-09-11T11:01:10Z</time>
      </trkpt>
      <trkpt lat="50.344434985890985" lon="9.496064968407154">
        <ele>325.06</ele>
        <time>2024-09-11T11:01:19Z</time>
      </trkpt>
      <trkpt lat="50.346326027065516" lon="9.498283993452787">
        <ele>326.99000000000001</ele>
        <time>2024-09-11T11:01:27Z</time>
      </trkpt>
      <trkpt lat="50.348467016592622" lon="9.500705022364855">
        <ele>328.43000000000001</ele>
        <time>2024-09-11T11:01:36Z</time>
      </trkpt>
      <trkpt lat="50.350380018353462" lon="9.501896006986499">
        <ele>328.43000000000001</ele>
        <time>2024-09-11T11:01:43Z</time>
      </trkpt>
      <trkpt lat="50.352427968755364" lon="9.502379978075624">
        <ele>330.35000000000002</ele>
        <time>2024-09-11T11:01:50Z</time>
      </trkpt>
      <trkpt lat="50.354496035724878" lon="9.502107985317707">
        <ele>330.35000000000002</ele>
        <time>2024-09-11T11:01:57Z</time>
      </trkpt>
      <trkpt lat="50.35765802487731" lon="9.500894034281373">
        <ele>316.41000000000003</ele>
        <time>2024-09-11T11:02:08Z</time>
      </trkpt>
      <trkpt lat="50.359970005229115" lon="9.500469993799925">
        <ele>307.27999999999997</ele>
        <time>2024-09-11T11:02:16Z</time>
      </trkpt>
      <trkpt lat="50.362304029986262" lon="9.500809041783214">
        <ele>305.83999999999997</ele>
        <time>2024-09-11T11:02:24Z</time>
      </trkpt>
      <trkpt lat="50.364526994526386" lon="9.502021986991167">
        <ele>312.08999999999997</ele>
        <time>2024-09-11T11:02:32Z</time>
      </trkpt>
      <trkpt lat="50.366534041240811" lon="9.50391897931695">
        <ele>318.81</ele>
        <time>2024-09-11T11:02:40Z</time>
      </trkpt>
      <trkpt lat="50.368572017177939" lon="9.506655000150204">
        <ele>319.77999999999997</ele>
        <time>2024-09-11T11:02:49Z</time>
      </trkpt>
      <trkpt lat="50.370949041098356" lon="9.510099040344358">
        <ele>318.32999999999998</ele>
        <time>2024-09-11T11:03:00Z</time>
      </trkpt>
      <trkpt lat="50.372987017035484" lon="9.512715032324195">
        <ele>327.94999999999999</ele>
        <time>2024-09-11T11:03:09Z</time>
      </trkpt>
      <trkpt lat="50.375527990981936" lon="9.515023995190859">
        <ele>343.32999999999998</ele>
        <time>2024-09-11T11:03:19Z</time>
      </trkpt>
      <trkpt lat="50.378374988213181" lon="9.51743102632463">
        <ele>359.19</ele>
        <time>2024-09-11T11:03:30Z</time>
      </trkpt>
      <trkpt lat="50.380141977220774" lon="9.519843002781272">
        <ele>370.24000000000001</ele>
        <time>2024-09-11T11:03:38Z</time>
      </trkpt>
      <trkpt lat="50.381393982097507" lon="9.522403003647924">
        <ele>380.33999999999997</ele>
        <time>2024-09-11T11:03:46Z</time>
      </trkpt>
      <trkpt lat="50.383273959159851" lon="9.52651902101934">
        <ele>385.14999999999998</ele>
        <time>2024-09-11T11:03:56Z</time>
      </trkpt>
      <trkpt lat="50.384866017848253" lon="9.528594966977835">
        <ele>384.66000000000003</ele>
        <time>2024-09-11T11:04:03Z</time>
      </trkpt>
      <trkpt lat="50.387783003970981" lon="9.53176399692893">
        <ele>373.13</ele>
        <time>2024-09-11T11:04:15Z</time>
      </trkpt>
      <trkpt lat="50.391174992546439" lon="9.535504002124071">
        <ele>355.82999999999998</ele>
        <time>2024-09-11T11:04:29Z</time>
      </trkpt>
      <trkpt lat="50.393172986805439" lon="9.538240022957325">
        <ele>343.32999999999998</ele>
        <time>2024-09-11T11:04:38Z</time>
      </trkpt>
      <trkpt lat="50.393374990671873" lon="9.538569012656808">
        <ele>341.88999999999999</ele>
        <time>2024-09-11T11:04:39Z</time>
      </trkpt>
      <trkpt lat="50.395250022411346" lon="9.542106008157134">
        <ele>333.23000000000002</ele>
        <time>2024-09-11T11:04:49Z</time>
      </trkpt>
      <trkpt lat="50.396794974803925" lon="9.546044999733567">
        <ele>327.94999999999999</ele>
        <time>2024-09-11T11:04:59Z</time>
      </trkpt>
      <trkpt lat="50.398468002676964" lon="9.550411971285939">
        <ele>324.10000000000002</ele>
        <time>2024-09-11T11:05:10Z</time>
      </trkpt>
      <trkpt lat="50.399730987846851" lon="9.552921010181308">
        <ele>326.01999999999998</ele>
        <time>2024-09-11T11:05:17Z</time>
      </trkpt>
      <trkpt lat="50.40138297714293" lon="9.556203028187156">
        <ele>332.26999999999998</ele>
        <time>2024-09-11T11:05:26Z</time>
      </trkpt>
      <trkpt lat="50.402230974286795" lon="9.559176005423069">
        <ele>332.75</ele>
        <time>2024-09-11T11:05:33Z</time>
      </trkpt>
      <trkpt lat="50.40361700579524" lon="9.564255019649863">
        <ele>328.91000000000003</ele>
        <time>2024-09-11T11:05:45Z</time>
      </trkpt>
      <trkpt lat="50.404874039813876" lon="9.56680404022336">
        <ele>324.57999999999998</ele>
        <time>2024-09-11T11:05:52Z</time>
      </trkpt>
      <trkpt lat="50.406776983290911" lon="9.569033039733768">
        <ele>316.41000000000003</ele>
        <time>2024-09-11T11:06:00Z</time>
      </trkpt>
      <trkpt lat="50.408974969759583" lon="9.570362996309996">
        <ele>312.08999999999997</ele>
        <time>2024-09-11T11:06:08Z</time>
      </trkpt>
      <trkpt lat="50.411301031708717" lon="9.570974037051201">
        <ele>314.97000000000003</ele>
        <time>2024-09-11T11:06:16Z</time>
      </trkpt>
      <trkpt lat="50.415119994431734" lon="9.57179001532495">
        <ele>315.93000000000001</ele>
        <time>2024-09-11T11:06:29Z</time>
      </trkpt>
      <trkpt lat="50.417073983699083" lon="9.57277899608016">
        <ele>314.49000000000001</ele>
        <time>2024-09-11T11:06:36Z</time>
      </trkpt>
      <trkpt lat="50.418809037655592" lon="9.574485970661044">
        <ele>313.05000000000001</ele>
        <time>2024-09-11T11:06:43Z</time>
      </trkpt>
      <trkpt lat="50.420682979747653" lon="9.577407985925674">
        <ele>313.52999999999997</ele>
        <time>2024-09-11T11:06:52Z</time>
      </trkpt>
      <trkpt lat="50.422916002571583" lon="9.581096023321152">
        <ele>315.44999999999999</ele>
        <time>2024-09-11T11:07:03Z</time>
      </trkpt>
      <trkpt lat="50.425415989011526" lon="9.584368988871574">
        <ele>313.52999999999997</ele>
        <time>2024-09-11T11:07:14Z</time>
      </trkpt>
      <trkpt lat="50.428915014490485" lon="9.587831972166896">
        <ele>304.38999999999999</ele>
        <time>2024-09-11T11:07:28Z</time>
      </trkpt>
      <trkpt lat="50.433652969077229" lon="9.592557018622756">
        <ele>302.47000000000003</ele>
        <time>2024-09-11T11:07:47Z</time>
      </trkpt>
      <trkpt lat="50.43550101108849" lon="9.594835974276066">
        <ele>298.14999999999998</ele>
        <time>2024-09-11T11:07:55Z</time>
      </trkpt>
      <trkpt lat="50.438474994152784" lon="9.59933303296566">
        <ele>293.81999999999999</ele>
        <time>2024-09-11T11:08:09Z</time>
      </trkpt>
      <trkpt lat="50.440290011465549" lon="9.602366024628282">
        <ele>292.86000000000001</ele>
        <time>2024-09-11T11:08:18Z</time>
      </trkpt>
      <trkpt lat="50.442343996837735" lon="9.606645992025733">
        <ele>289.97000000000003</ele>
        <time>2024-09-11T11:08:30Z</time>
      </trkpt>
      <trkpt lat="50.443335995078087" lon="9.608778012916446">
        <ele>289.00999999999999</ele>
        <time>2024-09-11T11:08:38Z</time>
      </trkpt>
      <trkpt lat="50.44486896134913" lon="9.611884010955691">
        <ele>287.08999999999997</ele>
        <time>2024-09-11T11:08:51Z</time>
      </trkpt>
      <trkpt lat="50.445113964378834" lon="9.612341998144984">
        <ele>287.08999999999997</ele>
        <time>2024-09-11T11:08:53Z</time>
      </trkpt>
      <trkpt lat="50.445250002667308" lon="9.612630000337958">
        <ele>286.61000000000001</ele>
        <time>2024-09-11T11:08:54Z</time>
      </trkpt>
      <trkpt lat="50.450640991330147" lon="9.618587018921971">
        <ele>286.61000000000001</ele>
        <time>2024-09-11T11:09:26Z</time>
      </trkpt>
      <trkpt lat="50.454758014529943" lon="9.621435021981597">
        <ele>286.61000000000001</ele>
        <time>2024-09-11T11:09:48Z</time>
      </trkpt>
      <trkpt lat="50.458133993670344" lon="9.624419985339046">
        <ele>279.88</ele>
        <time>2024-09-11T11:10:04Z</time>
      </trkpt>
      <trkpt lat="50.459405025467277" lon="9.626196026802063">
        <ele>279.88</ele>
        <time>2024-09-11T11:10:10Z</time>
      </trkpt>
      <trkpt lat="50.460862973704934" lon="9.629124999046326">
        <ele>279.88</ele>
        <time>2024-09-11T11:10:18Z</time>
      </trkpt>
      <trkpt lat="50.463079987093806" lon="9.634601986035705">
        <ele>277.95999999999998</ele>
        <time>2024-09-11T11:10:32Z</time>
      </trkpt>
      <trkpt lat="50.464964993298054" lon="9.639280010014772">
        <ele>278.92000000000002</ele>
        <time>2024-09-11T11:10:44Z</time>
      </trkpt>
      <trkpt lat="50.466397041454911" lon="9.642784986644983">
        <ele>279.39999999999998</ele>
        <time>2024-09-11T11:10:53Z</time>
      </trkpt>
      <trkpt lat="50.468225972726941" lon="9.646998988464475">
        <ele>277</ele>
        <time>2024-09-11T11:11:04Z</time>
      </trkpt>
      <trkpt lat="50.471576973795891" lon="9.65407800860703">
        <ele>277.48000000000002</ele>
        <time>2024-09-11T11:11:23Z</time>
      </trkpt>
      <trkpt lat="50.473363995552063" lon="9.658346995711327">
        <ele>277</ele>
        <time>2024-09-11T11:11:34Z</time>
      </trkpt>
      <trkpt lat="50.475619984790683" lon="9.66374896466732">
        <ele>279.88</ele>
        <time>2024-09-11T11:11:48Z</time>
      </trkpt>
      <trkpt lat="50.477709006518126" lon="9.667663984000683">
        <ele>282.27999999999997</ele>
        <time>2024-09-11T11:11:59Z</time>
      </trkpt>
      <trkpt lat="50.480053005740047" lon="9.671172983944416">
        <ele>281.31999999999999</ele>
        <time>2024-09-11T11:12:10Z</time>
      </trkpt>
      <trkpt lat="50.482869995757937" lon="9.675255976617336">
        <ele>290.45999999999998</ele>
        <time>2024-09-11T11:12:23Z</time>
      </trkpt>
      <trkpt lat="50.484391981735826" lon="9.678096016868949">
        <ele>295.74000000000001</ele>
        <time>2024-09-11T11:12:31Z</time>
      </trkpt>
      <trkpt lat="50.485478024929762" lon="9.681380968540907">
        <ele>299.58999999999997</ele>
        <time>2024-09-11T11:12:39Z</time>
      </trkpt>
      <trkpt lat="50.486224014312029" lon="9.684893991798163">
        <ele>302.94999999999999</ele>
        <time>2024-09-11T11:12:47Z</time>
      </trkpt>
      <trkpt lat="50.486654005944729" lon="9.687112011015415">
        <ele>305.83999999999997</ele>
        <time>2024-09-11T11:12:52Z</time>
      </trkpt>
      <trkpt lat="50.486744027584791" lon="9.687537979334593">
        <ele>305.83999999999997</ele>
        <time>2024-09-11T11:12:53Z</time>
      </trkpt>
      <trkpt lat="50.487836021929979" lon="9.692376013845205">
        <ele>307.75999999999999</ele>
        <time>2024-09-11T11:13:04Z</time>
      </trkpt>
      <trkpt lat="50.489044021815062" lon="9.698107978329063">
        <ele>303.91000000000003</ele>
        <time>2024-09-11T11:13:17Z</time>
      </trkpt>
      <trkpt lat="50.489979023113847" lon="9.703423026949167">
        <ele>306.80000000000001</ele>
        <time>2024-09-11T11:13:29Z</time>
      </trkpt>
      <trkpt lat="50.489872992038727" lon="9.706615023314953">
        <ele>312.56999999999999</ele>
        <time>2024-09-11T11:13:36Z</time>
      </trkpt>
      <trkpt lat="50.489205038174987" lon="9.70964097417891">
        <ele>316.41000000000003</ele>
        <time>2024-09-11T11:13:43Z</time>
      </trkpt>
      <trkpt lat="50.487936018034816" lon="9.712735991925001">
        <ele>321.69999999999999</ele>
        <time>2024-09-11T11:13:51Z</time>
      </trkpt>
      <trkpt lat="50.487451963126659" lon="9.714564001187682">
        <ele>324.57999999999998</ele>
        <time>2024-09-11T11:13:56Z</time>
      </trkpt>
      <trkpt lat="50.487397983670235" lon="9.715281995013356">
        <ele>325.06</ele>
        <time>2024-09-11T11:13:58Z</time>
      </trkpt>
      <trkpt lat="50.487410975620151" lon="9.715653983876109">
        <ele>325.06</ele>
        <time>2024-09-11T11:13:59Z</time>
      </trkpt>
      <trkpt lat="50.487535027787089" lon="9.71677104011178">
        <ele>324.57999999999998</ele>
        <time>2024-09-11T11:14:02Z</time>
      </trkpt>
      <trkpt lat="50.487613985314965" lon="9.717126013711095">
        <ele>324.57999999999998</ele>
        <time>2024-09-11T11:14:03Z</time>
      </trkpt>
      <trkpt lat="50.487720016390085" lon="9.717461038380861">
        <ele>324.10000000000002</ele>
        <time>2024-09-11T11:14:04Z</time>
      </trkpt>
      <trkpt lat="50.487834010273218" lon="9.717793967574835">
        <ele>323.62</ele>
        <time>2024-09-11T11:14:05Z</time>
      </trkpt>
      <trkpt lat="50.487928977236152" lon="9.718073001131415">
        <ele>323.13999999999999</ele>
        <time>2024-09-11T11:14:06Z</time>
      </trkpt>
      <trkpt lat="50.488101979717612" lon="9.718388998880982">
        <ele>322.66000000000003</ele>
        <time>2024-09-11T11:14:07Z</time>
      </trkpt>
      <trkpt lat="50.488258972764015" lon="9.718673983588815">
        <ele>321.69999999999999</ele>
        <time>2024-09-11T11:14:08Z</time>
      </trkpt>
      <trkpt lat="50.488430969417095" lon="9.718927033245564">
        <ele>321.22000000000003</ele>
        <time>2024-09-11T11:14:09Z</time>
      </trkpt>
      <trkpt lat="50.488619981333613" lon="9.719145968556404">
        <ele>320.74000000000001</ele>
        <time>2024-09-11T11:14:10Z</time>
      </trkpt>
      <trkpt lat="50.488814022392035" lon="9.719362976029515">
        <ele>320.25999999999999</ele>
        <time>2024-09-11T11:14:11Z</time>
      </trkpt>
      <trkpt lat="50.489024994894862" lon="9.719530027359724">
        <ele>319.77999999999997</ele>
        <time>2024-09-11T11:14:12Z</time>
      </trkpt>
      <trkpt lat="50.489242002367973" lon="9.71969498321414">
        <ele>319.30000000000001</ele>
        <time>2024-09-11T11:14:13Z</time>
      </trkpt>
      <trkpt lat="50.489473007619381" lon="9.719809982925654">
        <ele>319.30000000000001</ele>
        <time>2024-09-11T11:14:14Z</time>
      </trkpt>
      <trkpt lat="50.489708036184311" lon="9.719906961545348">
        <ele>318.81</ele>
        <time>2024-09-11T11:14:15Z</time>
      </trkpt>
      <trkpt lat="50.489948010072112" lon="9.719966975972056">
        <ele>318.81</ele>
        <time>2024-09-11T11:14:16Z</time>
      </trkpt>
      <trkpt lat="50.490187983959913" lon="9.720012992620468">
        <ele>318.81</ele>
        <time>2024-09-11T11:14:17Z</time>
      </trkpt>
      <trkpt lat="50.490426030009985" lon="9.720035959035158">
        <ele>318.81</ele>
        <time>2024-09-11T11:14:18Z</time>
      </trkpt>
      <trkpt lat="50.491140000522137" lon="9.720161017030478">
        <ele>320.74000000000001</ele>
        <time>2024-09-11T11:14:22Z</time>
      </trkpt>
      <trkpt lat="50.491604022681713" lon="9.720328990370035">
        <ele>321.22000000000003</ele>
        <time>2024-09-11T11:14:23Z</time>
      </trkpt>
      <trkpt lat="50.49183301627636" lon="9.72046603448689">
        <ele>321.69999999999999</ele>
        <time>2024-09-11T11:14:24Z</time>
      </trkpt>
      <trkpt lat="50.492063015699387" lon="9.720625039190054">
        <ele>322.18000000000001</ele>
        <time>2024-09-11T11:14:25Z</time>
      </trkpt>
      <trkpt lat="50.492271976545453" lon="9.720872975885868">
        <ele>324.10000000000002</ele>
        <time>2024-09-11T11:14:27Z</time>
      </trkpt>
      <trkpt lat="50.493802009150386" lon="9.723041038960218">
        <ele>331.31</ele>
        <time>2024-09-11T11:14:34Z</time>
      </trkpt>
      <trkpt lat="50.495231039822102" lon="9.725305996835232">
        <ele>338.51999999999998</ele>
        <time>2024-09-11T11:14:42Z</time>
      </trkpt>
      <trkpt lat="50.49746498465538" lon="9.728900995105505">
        <ele>351.98000000000002</ele>
        <time>2024-09-11T11:14:53Z</time>
      </trkpt>
      <trkpt lat="50.499442024156451" lon="9.731624023988843">
        <ele>362.55000000000001</ele>
        <time>2024-09-11T11:15:02Z</time>
      </trkpt>
      <trkpt lat="50.502085005864501" lon="9.734513014554977">
        <ele>371.69</ele>
        <time>2024-09-11T11:15:13Z</time>
      </trkpt>
      <trkpt lat="50.504678031429648" lon="9.736746037378907">
        <ele>379.86000000000001</ele>
        <time>2024-09-11T11:15:23Z</time>
      </trkpt>
      <trkpt lat="50.507411034777761" lon="9.738518977537751">
        <ele>385.14999999999998</ele>
        <time>2024-09-11T11:15:33Z</time>
      </trkpt>
      <trkpt lat="50.509442975744605" lon="9.739436041563749">
        <ele>386.11000000000001</ele>
        <time>2024-09-11T11:15:41Z</time>
      </trkpt>
      <trkpt lat="50.511850006878376" lon="9.740232992917299">
        <ele>381.77999999999997</ele>
        <time>2024-09-11T11:15:51Z</time>
      </trkpt>
      <trkpt lat="50.514396009966731" lon="9.74070799537003">
        <ele>375.05000000000001</ele>
        <time>2024-09-11T11:16:00Z</time>
      </trkpt>
      <trkpt lat="50.517343003302813" lon="9.740777984261513">
        <ele>367.36000000000001</ele>
        <time>2024-09-11T11:16:10Z</time>
      </trkpt>
      <trkpt lat="50.519665963947773" lon="9.74044899456203">
        <ele>363.51999999999998</ele>
        <time>2024-09-11T11:16:18Z</time>
      </trkpt>
      <trkpt lat="50.522578004747629" lon="9.739634022116661">
        <ele>362.06999999999999</ele>
        <time>2024-09-11T11:16:28Z</time>
      </trkpt>
      <trkpt lat="50.525107998400927" lon="9.738469021394849">
        <ele>362.55000000000001</ele>
        <time>2024-09-11T11:16:37Z</time>
      </trkpt>
      <trkpt lat="50.527835972607136" lon="9.736721981316805">
        <ele>363.51999999999998</ele>
        <time>2024-09-11T11:16:47Z</time>
      </trkpt>
      <trkpt lat="50.530479038134217" lon="9.734699008986354">
        <ele>363.51999999999998</ele>
        <time>2024-09-11T11:16:57Z</time>
      </trkpt>
      <trkpt lat="50.533671034500003" lon="9.732360038906336">
        <ele>361.58999999999997</ele>
        <time>2024-09-11T11:17:09Z</time>
      </trkpt>
      <trkpt lat="50.536188036203384" lon="9.731175005435944">
        <ele>360.14999999999998</ele>
        <time>2024-09-11T11:17:18Z</time>
      </trkpt>
      <trkpt lat="50.538783995434642" lon="9.730470003560185">
        <ele>360.63</ele>
        <time>2024-09-11T11:17:27Z</time>
      </trkpt>
      <trkpt lat="50.541134029626846" lon="9.730309993028641">
        <ele>358.70999999999998</ele>
        <time>2024-09-11T11:17:35Z</time>
      </trkpt>
      <trkpt lat="50.543793020769954" lon="9.730611992999911">
        <ele>358.23000000000002</ele>
        <time>2024-09-11T11:17:44Z</time>
      </trkpt>
      <trkpt lat="50.546418987214565" lon="9.731069980189204">
        <ele>358.23000000000002</ele>
        <time>2024-09-11T11:17:53Z</time>
      </trkpt>
      <trkpt lat="50.549066998064518" lon="9.731441969051957">
        <ele>357.75</ele>
        <time>2024-09-11T11:18:02Z</time>
      </trkpt>
      <trkpt lat="50.551717020571232" lon="9.731544982641935">
        <ele>355.82999999999998</ele>
        <time>2024-09-11T11:18:11Z</time>
      </trkpt>
      <trkpt lat="50.555209005251527" lon="9.731223033741117">
        <ele>351.5</ele>
        <time>2024-09-11T11:18:23Z</time>
      </trkpt>
      <trkpt lat="50.557540012523532" lon="9.730683993548155">
        <ele>347.64999999999998</ele>
        <time>2024-09-11T11:18:32Z</time>
      </trkpt>
      <trkpt lat="50.560402013361454" lon="9.729717979207635">
        <ele>345.25</ele>
        <time>2024-09-11T11:18:41Z</time>
      </trkpt>
      <trkpt lat="50.563203999772668" lon="9.728337982669473">
        <ele>343.32999999999998</ele>
        <time>2024-09-11T11:18:51Z</time>
      </trkpt>
      <trkpt lat="50.566202038899064" lon="9.726446019485593">
        <ele>341.88999999999999</ele>
        <time>2024-09-11T11:19:02Z</time>
      </trkpt>
      <trkpt lat="50.56883797980845" lon="9.724397985264659">
        <ele>338.04000000000002</ele>
        <time>2024-09-11T11:19:12Z</time>
      </trkpt>
      <trkpt lat="50.572388973087072" lon="9.721095012500882">
        <ele>334.19999999999999</ele>
        <time>2024-09-11T11:19:26Z</time>
      </trkpt>
      <trkpt lat="50.574557036161423" lon="9.718727963045239">
        <ele>332.26999999999998</ele>
        <time>2024-09-11T11:19:35Z</time>
      </trkpt>
      <trkpt lat="50.577789014205337" lon="9.714761981740594">
        <ele>330.82999999999998</ele>
        <time>2024-09-11T11:19:49Z</time>
      </trkpt>
      <trkpt lat="50.580622013658285" lon="9.710748977959156">
        <ele>335.63999999999999</ele>
        <time>2024-09-11T11:20:02Z</time>
      </trkpt>
      <trkpt lat="50.5832530092448" lon="9.706431040540338">
        <ele>345.25</ele>
        <time>2024-09-11T11:20:16Z</time>
      </trkpt>
      <trkpt lat="50.586053989827633" lon="9.701112974435091">
        <ele>359.67000000000002</ele>
        <time>2024-09-11T11:20:30Z</time>
      </trkpt>
      <trkpt lat="50.589269958436489" lon="9.694541981443763">
        <ele>381.30000000000001</ele>
        <time>2024-09-11T11:20:48Z</time>
      </trkpt>
      <trkpt lat="50.59058197773993" lon="9.691966976970434">
        <ele>388.50999999999999</ele>
        <time>2024-09-11T11:20:56Z</time>
      </trkpt>
      <trkpt lat="50.591911012306809" lon="9.68965700827539">
        <ele>398.60000000000002</ele>
        <time>2024-09-11T11:21:05Z</time>
      </trkpt>
      <trkpt lat="50.593871958553791" lon="9.686722001060844">
        <ele>403.41000000000003</ele>
        <time>2024-09-11T11:21:16Z</time>
      </trkpt>
      <trkpt lat="50.596068017184734" lon="9.684048006311059">
        <ele>407.74000000000001</ele>
        <time>2024-09-11T11:21:26Z</time>
      </trkpt>
      <trkpt lat="50.598373962566257" lon="9.682127963751555">
        <ele>411.57999999999998</ele>
        <time>2024-09-11T11:21:35Z</time>
      </trkpt>
      <trkpt lat="50.600901022553444" lon="9.680917030200362">
        <ele>416.38999999999999</ele>
        <time>2024-09-11T11:21:44Z</time>
      </trkpt>
      <trkpt lat="50.603530006483197" lon="9.680506987497211">
        <ele>419.26999999999998</ele>
        <time>2024-09-11T11:21:53Z</time>
      </trkpt>
      <trkpt lat="50.605578040704131" lon="9.680764982476831">
        <ele>422.16000000000003</ele>
        <time>2024-09-11T11:22:00Z</time>
      </trkpt>
      <trkpt lat="50.607586009427905" lon="9.681431008502841">
        <ele>424.07999999999998</ele>
        <time>2024-09-11T11:22:07Z</time>
      </trkpt>
      <trkpt lat="50.610429989174008" lon="9.682424012571573">
        <ele>425.51999999999998</ele>
        <time>2024-09-11T11:22:17Z</time>
      </trkpt>
      <trkpt lat="50.612789997830987" lon="9.682730035856366">
        <ele>426.95999999999998</ele>
        <time>2024-09-11T11:22:25Z</time>
      </trkpt>
      <trkpt lat="50.615112036466599" lon="9.682342959567905">
        <ele>428.88999999999999</ele>
        <time>2024-09-11T11:22:33Z</time>
      </trkpt>
      <trkpt lat="50.617944030091166" lon="9.681077040731907">
        <ele>429.37</ele>
        <time>2024-09-11T11:22:43Z</time>
      </trkpt>
      <trkpt lat="50.62119503505528" lon="9.678933033719659">
        <ele>429.85000000000002</ele>
        <time>2024-09-11T11:22:55Z</time>
      </trkpt>
      <trkpt lat="50.624488033354282" lon="9.676993964239955">
        <ele>431.76999999999998</ele>
        <time>2024-09-11T11:23:07Z</time>
      </trkpt>
      <trkpt lat="50.62708499841392" lon="9.676218973472714">
        <ele>431.76999999999998</ele>
        <time>2024-09-11T11:23:16Z</time>
      </trkpt>
      <trkpt lat="50.629416005685925" lon="9.676174968481064">
        <ele>433.20999999999998</ele>
        <time>2024-09-11T11:23:24Z</time>
      </trkpt>
      <trkpt lat="50.631520031020045" lon="9.676693975925446">
        <ele>433.69</ele>
        <time>2024-09-11T11:23:31Z</time>
      </trkpt>
      <trkpt lat="50.633995039388537" lon="9.67799099162221">
        <ele>434.17000000000002</ele>
        <time>2024-09-11T11:23:40Z</time>
      </trkpt>
      <trkpt lat="50.637475959956646" lon="9.680438004434109">
        <ele>429.85000000000002</ele>
        <time>2024-09-11T11:23:53Z</time>
      </trkpt>
      <trkpt lat="50.63937496393919" lon="9.681594958528876">
        <ele>424.07999999999998</ele>
        <time>2024-09-11T11:24:00Z</time>
      </trkpt>
      <trkpt lat="50.642227996140718" lon="9.682684019207954">
        <ele>415.43000000000001</ele>
        <time>2024-09-11T11:24:10Z</time>
      </trkpt>
      <trkpt lat="50.644856980070472" lon="9.68304100446403">
        <ele>406.29000000000002</ele>
        <time>2024-09-11T11:24:19Z</time>
      </trkpt>
      <trkpt lat="50.647781006991863" lon="9.682702040299773">
        <ele>394.75999999999999</ele>
        <time>2024-09-11T11:24:29Z</time>
      </trkpt>
      <trkpt lat="50.650665974244475" lon="9.681705012917519">
        <ele>382.25999999999999</ele>
        <time>2024-09-11T11:24:39Z</time>
      </trkpt>
      <trkpt lat="50.653624031692743" lon="9.680220996960998">
        <ele>367.83999999999997</ele>
        <time>2024-09-11T11:24:50Z</time>
      </trkpt>
      <trkpt lat="50.656673032790422" lon="9.678638996556401">
        <ele>353.89999999999998</ele>
        <time>2024-09-11T11:25:02Z</time>
      </trkpt>
      <trkpt lat="50.659132031723857" lon="9.677629983052611">
        <ele>344.76999999999998</ele>
        <time>2024-09-11T11:25:12Z</time>
      </trkpt>
      <trkpt lat="50.660655023530126" lon="9.677188005298376">
        <ele>341.88999999999999</ele>
        <time>2024-09-11T11:25:20Z</time>
      </trkpt>
      <trkpt lat="50.660791983827949" lon="9.67734600417316">
        <ele>341.41000000000003</ele>
        <time>2024-09-11T11:25:21Z</time>
      </trkpt>
      <trkpt lat="50.660936990752816" lon="9.677424961701036">
        <ele>341.41000000000003</ele>
        <time>2024-09-11T11:25:22Z</time>
      </trkpt>
      <trkpt lat="50.661044027656317" lon="9.67749503441155">
        <ele>340.92000000000002</ele>
        <time>2024-09-11T11:25:23Z</time>
      </trkpt>
      <trkpt lat="50.661135977134109" lon="9.677609028294683">
        <ele>340.44</ele>
        <time>2024-09-11T11:25:24Z</time>
      </trkpt>
      <trkpt lat="50.66120102070272" lon="9.677708018571138">
        <ele>339.48000000000002</ele>
        <time>2024-09-11T11:25:25Z</time>
      </trkpt>
      <trkpt lat="50.661216024309397" lon="9.677868029102683">
        <ele>339</ele>
        <time>2024-09-11T11:25:26Z</time>
      </trkpt>
      <trkpt lat="50.661230022087693" lon="9.678027033805847">
        <ele>338.04000000000002</ele>
        <time>2024-09-11T11:25:27Z</time>
      </trkpt>
      <trkpt lat="50.661232033744454" lon="9.678186038509011">
        <ele>337.56</ele>
        <time>2024-09-11T11:25:28Z</time>
      </trkpt>
      <trkpt lat="50.661174030974507" lon="9.678327022120357">
        <ele>336.60000000000002</ele>
        <time>2024-09-11T11:25:29Z</time>
      </trkpt>
      <trkpt lat="50.661100018769503" lon="9.678454007953405">
        <ele>336.12</ele>
        <time>2024-09-11T11:25:30Z</time>
      </trkpt>
      <trkpt lat="50.661003962159157" lon="9.67854998074472">
        <ele>335.63999999999999</ele>
        <time>2024-09-11T11:25:31Z</time>
      </trkpt>
      <trkpt lat="50.660875970497727" lon="9.678612006828189">
        <ele>335.63999999999999</ele>
        <time>2024-09-11T11:25:32Z</time>
      </trkpt>
      <trkpt lat="50.660749990493059" lon="9.678612006828189">
        <ele>335.16000000000003</ele>
        <time>2024-09-11T11:25:33Z</time>
      </trkpt>
      <trkpt lat="50.660625016316772" lon="9.678612006828189">
        <ele>334.68000000000001</ele>
        <time>2024-09-11T11:25:34Z</time>
      </trkpt>
      <trkpt lat="50.660503981634974" lon="9.678612006828189">
        <ele>333.70999999999998</ele>
        <time>2024-09-11T11:25:35Z</time>
      </trkpt>
      <trkpt lat="50.659880032762885" lon="9.678581999614835">
        <ele>330.82999999999998</ele>
        <time>2024-09-11T11:25:42Z</time>
      </trkpt>
      <trkpt lat="50.659851031377912" lon="9.678577976301312">
        <ele>329.87</ele>
        <time>2024-09-11T11:25:49Z</time>
      </trkpt>
      <trkpt lat="50.659726979210973" lon="9.678559033200145">
        <ele>328.91000000000003</ele>
        <time>2024-09-11T11:26:05Z</time>
      </trkpt>
      <trkpt lat="50.659654978662729" lon="9.678546963259578">
        <ele>329.38999999999999</ele>
        <time>2024-09-11T11:26:06Z</time>
      </trkpt>
      <trkpt lat="50.659635029733181" lon="9.678623992949724">
        <ele>328.91000000000003</ele>
        <time>2024-09-11T11:26:07Z</time>
      </trkpt>
      <trkpt lat="50.659606028348207" lon="9.678732035681605">
        <ele>328.43000000000001</ele>
        <time>2024-09-11T11:26:08Z</time>
      </trkpt>
      <trkpt lat="50.659573003649712" lon="9.678858015686274">
        <ele>328.43000000000001</ele>
        <time>2024-09-11T11:26:09Z</time>
      </trkpt>
      <trkpt lat="50.659537967294455" lon="9.678998999297619">
        <ele>327.94999999999999</ele>
        <time>2024-09-11T11:26:10Z</time>
      </trkpt>
      <trkpt lat="50.65911803394556" lon="9.680821979418397">
        <ele>326.99000000000001</ele>
        <time>2024-09-11T11:26:21Z</time>
      </trkpt>
      <trkpt lat="50.658751996234059" lon="9.682556027546525">
        <ele>327.94999999999999</ele>
        <time>2024-09-11T11:26:32Z</time>
      </trkpt>
      <trkpt lat="50.658451002091169" lon="9.684508005157113">
        <ele>332.26999999999998</ele>
        <time>2024-09-11T11:26:44Z</time>
      </trkpt>
      <trkpt lat="50.658387970179319" lon="9.684840012341738">
        <ele>332.75</ele>
        <time>2024-09-11T11:26:46Z</time>
      </trkpt>
      <trkpt lat="50.658261990174651" lon="9.686749996617436">
        <ele>335.63999999999999</ele>
        <time>2024-09-11T11:26:57Z</time>
      </trkpt>
      <trkpt lat="50.658277999609709" lon="9.688430987298489">
        <ele>338.51999999999998</ele>
        <time>2024-09-11T11:27:05Z</time>
      </trkpt>
      <trkpt lat="50.658692987635732" lon="9.691082015633583">
        <ele>338.04000000000002</ele>
        <time>2024-09-11T11:27:16Z</time>
      </trkpt>
      <trkpt lat="50.65916002728045" lon="9.694474004209042">
        <ele>339.48000000000002</ele>
        <time>2024-09-11T11:27:29Z</time>
      </trkpt>
      <trkpt lat="50.658914018422365" lon="9.69694297760725">
        <ele>340.44</ele>
        <time>2024-09-11T11:27:38Z</time>
      </trkpt>
      <trkpt lat="50.658326027914882" lon="9.698926974087954">
        <ele>342.85000000000002</ele>
        <time>2024-09-11T11:27:46Z</time>
      </trkpt>
      <trkpt lat="50.657965019345284" lon="9.699729960411787">
        <ele>343.32999999999998</ele>
        <time>2024-09-11T11:27:51Z</time>
      </trkpt>
      <trkpt lat="50.657938029617071" lon="9.699790980666876">
        <ele>343.81</ele>
        <time>2024-09-11T11:27:52Z</time>
      </trkpt>
      <trkpt lat="50.657938029617071" lon="9.699790980666876">
        <ele>343.81</ele>
        <time>2024-09-11T11:27:53Z</time>
      </trkpt>
      <trkpt lat="50.657972982153296" lon="9.699812019243836">
        <ele>343.81</ele>
        <time>2024-09-11T11:27:54Z</time>
      </trkpt>
      <trkpt lat="50.658014975488186" lon="9.699839008972049">
        <ele>343.32999999999998</ele>
        <time>2024-09-11T11:27:55Z</time>
      </trkpt>
      <trkpt lat="50.658073984086514" lon="9.699875973165035">
        <ele>343.32999999999998</ele>
        <time>2024-09-11T11:27:56Z</time>
      </trkpt>
      <trkpt lat="50.658141039311886" lon="9.699917966499925">
        <ele>342.85000000000002</ele>
        <time>2024-09-11T11:27:57Z</time>
      </trkpt>
      <trkpt lat="50.658204993233085" lon="9.699959037825465">
        <ele>342.37</ele>
        <time>2024-09-11T11:27:58Z</time>
      </trkpt>
      <trkpt lat="50.65825997851789" lon="9.699993990361691">
        <ele>342.37</ele>
        <time>2024-09-11T11:27:59Z</time>
      </trkpt>
      <trkpt lat="50.65834597684443" lon="9.700047969818115">
        <ele>341.88999999999999</ele>
        <time>2024-09-11T11:28:00Z</time>
      </trkpt>
      <trkpt lat="50.658337008208036" lon="9.699989967048168">
        <ele>341.88999999999999</ele>
        <time>2024-09-11T11:28:01Z</time>
      </trkpt>
      <trkpt lat="50.658330973237753" lon="9.699950991198421">
        <ele>342.37</ele>
        <time>2024-09-11T11:28:02Z</time>
      </trkpt>
      <trkpt lat="50.658287974074483" lon="9.700012011453509">
        <ele>342.37</ele>
        <time>2024-09-11T11:28:03Z</time>
      </trkpt>
      <trkpt lat="50.658272970467806" lon="9.700002036988735">
        <ele>342.37</ele>
        <time>2024-09-11T11:28:04Z</time>
      </trkpt>
      <trkpt lat="50.658272970467806" lon="9.700002036988735">
        <ele>342.85000000000002</ele>
        <time>2024-09-11T11:28:15Z</time>
      </trkpt>
      <trkpt lat="50.658272970467806" lon="9.700002036988735">
        <ele>343.32999999999998</ele>
        <time>2024-09-11T11:29:03Z</time>
      </trkpt>
      <trkpt lat="50.658272970467806" lon="9.700002036988735">
        <ele>343.81</ele>
        <time>2024-09-11T11:29:49Z</time>
      </trkpt>
      <trkpt lat="50.658272970467806" lon="9.700002036988735">
        <ele>344.76999999999998</ele>
        <time>2024-09-11T11:30:51Z</time>
      </trkpt>
      <trkpt lat="50.658272970467806" lon="9.700002036988735">
        <ele>344.76999999999998</ele>
        <time>2024-09-11T11:31:39Z</time>
      </trkpt>
      <trkpt lat="50.658272970467806" lon="9.700002036988735">
        <ele>344.76999999999998</ele>
        <time>2024-09-11T11:32:26Z</time>
      </trkpt>
      <trkpt lat="50.658272970467806" lon="9.700002036988735">
        <ele>345.25</ele>
        <time>2024-09-11T11:33:19Z</time>
      </trkpt>
      <trkpt lat="50.658272970467806" lon="9.700002036988735">
        <ele>345.73000000000002</ele>
        <time>2024-09-11T11:34:08Z</time>
      </trkpt>
      <trkpt lat="50.658272970467806" lon="9.700002036988735">
        <ele>346.20999999999998</ele>
        <time>2024-09-11T11:35:05Z</time>
      </trkpt>
      <trkpt lat="50.658272970467806" lon="9.700002036988735">
        <ele>346.20999999999998</ele>
        <time>2024-09-11T11:36:04Z</time>
      </trkpt>
      <trkpt lat="50.65834597684443" lon="9.700047969818115">
        <ele>346.69</ele>
        <time>2024-09-11T11:36:14Z</time>
      </trkpt>
      <trkpt lat="50.65834597684443" lon="9.700047969818115">
        <ele>346.69</ele>
        <time>2024-09-11T11:36:16Z</time>
      </trkpt>
      <trkpt lat="50.658214967697859" lon="9.699964988976717">
        <ele>346.69</ele>
        <time>2024-09-11T11:36:17Z</time>
      </trkpt>
      <trkpt lat="50.658170040696859" lon="9.699936993420124">
        <ele>346.20999999999998</ele>
        <time>2024-09-11T11:36:18Z</time>
      </trkpt>
      <trkpt lat="50.658121006563306" lon="9.699905980378389">
        <ele>346.20999999999998</ele>
        <time>2024-09-11T11:36:19Z</time>
      </trkpt>
      <trkpt lat="50.658077001571655" lon="9.699877984821796">
        <ele>346.20999999999998</ele>
        <time>2024-09-11T11:36:20Z</time>
      </trkpt>
      <trkpt lat="50.657987985759974" lon="9.699821993708611">
        <ele>346.20999999999998</ele>
        <time>2024-09-11T11:36:23Z</time>
      </trkpt>
      <trkpt lat="50.65791598521173" lon="9.699832974001765">
        <ele>346.20999999999998</ele>
        <time>2024-09-11T11:36:24Z</time>
      </trkpt>
      <trkpt lat="50.657870974391699" lon="9.699917966499925">
        <ele>346.69</ele>
        <time>2024-09-11T11:36:25Z</time>
      </trkpt>
      <trkpt lat="50.657816994935274" lon="9.700019974261522">
        <ele>346.69</ele>
        <time>2024-09-11T11:36:26Z</time>
      </trkpt>
      <trkpt lat="50.657757986336946" lon="9.700132962316275">
        <ele>346.69</ele>
        <time>2024-09-11T11:36:27Z</time>
      </trkpt>
      <trkpt lat="50.657692020758986" lon="9.700258020311594">
        <ele>346.69</ele>
        <time>2024-09-11T11:36:28Z</time>
      </trkpt>
      <trkpt lat="50.657040998339653" lon="9.701499966904521">
        <ele>346.20999999999998</ele>
        <time>2024-09-11T11:36:35Z</time>
      </trkpt>
      <trkpt lat="50.656114965677261" lon="9.703756961971521">
        <ele>344.76999999999998</ele>
        <time>2024-09-11T11:36:44Z</time>
      </trkpt>
      <trkpt lat="50.655673993751407" lon="9.706261977553368">
        <ele>339.95999999999998</ele>
        <time>2024-09-11T11:36:52Z</time>
      </trkpt>
      <trkpt lat="50.655763009563088" lon="9.708633972331882">
        <ele>332.26999999999998</ele>
        <time>2024-09-11T11:36:59Z</time>
      </trkpt>
      <trkpt lat="50.656306995078921" lon="9.711030023172498">
        <ele>327.94999999999999</ele>
        <time>2024-09-11T11:37:07Z</time>
      </trkpt>
      <trkpt lat="50.657235961407423" lon="9.714183965697885">
        <ele>325.54000000000002</ele>
        <time>2024-09-11T11:37:19Z</time>
      </trkpt>
      <trkpt lat="50.65767802298069" lon="9.716560989618301">
        <ele>322.18000000000001</ele>
        <time>2024-09-11T11:37:28Z</time>
      </trkpt>
      <trkpt lat="50.657891007140279" lon="9.719167007133365">
        <ele>319.77999999999997</ele>
        <time>2024-09-11T11:37:37Z</time>
      </trkpt>
      <trkpt lat="50.658168029040098" lon="9.723143968731165">
        <ele>314.49000000000001</ele>
        <time>2024-09-11T11:37:50Z</time>
      </trkpt>
      <trkpt lat="50.658459970727563" lon="9.726951029151678">
        <ele>308.72000000000003</ele>
        <time>2024-09-11T11:38:03Z</time>
      </trkpt>
      <trkpt lat="50.658766999840736" lon="9.731386983767152">
        <ele>300.55000000000001</ele>
        <time>2024-09-11T11:38:17Z</time>
      </trkpt>
      <trkpt lat="50.658860960975289" lon="9.73495096899569">
        <ele>295.74000000000001</ele>
        <time>2024-09-11T11:38:29Z</time>
      </trkpt>
      <trkpt lat="50.658512022346258" lon="9.737586993724108">
        <ele>296.69999999999999</ele>
        <time>2024-09-11T11:38:40Z</time>
      </trkpt>
      <trkpt lat="50.657921014353633" lon="9.739666962996125">
        <ele>300.06999999999999</ele>
        <time>2024-09-11T11:38:48Z</time>
      </trkpt>
      <trkpt lat="50.65699003636837" lon="9.741769982501864">
        <ele>304.38999999999999</ele>
        <time>2024-09-11T11:38:57Z</time>
      </trkpt>
      <trkpt lat="50.656301965937018" lon="9.744148012250662">
        <ele>302.94999999999999</ele>
        <time>2024-09-11T11:39:07Z</time>
      </trkpt>
      <trkpt lat="50.65634697675705" lon="9.746054979041219">
        <ele>295.74000000000001</ele>
        <time>2024-09-11T11:39:15Z</time>
      </trkpt>
      <trkpt lat="50.656849974766374" lon="9.747900003567338">
        <ele>287.08999999999997</ele>
        <time>2024-09-11T11:39:24Z</time>
      </trkpt>
      <trkpt lat="50.657254988327622" lon="9.749230965971947">
        <ele>280.83999999999997</ele>
        <time>2024-09-11T11:39:32Z</time>
      </trkpt>
      <trkpt lat="50.657685985788703" lon="9.750688998028636">
        <ele>275.06999999999999</ele>
        <time>2024-09-11T11:39:42Z</time>
      </trkpt>
      <trkpt lat="50.658358968794346" lon="9.752672994509339">
        <ele>269.79000000000002</ele>
        <time>2024-09-11T11:39:55Z</time>
      </trkpt>
      <trkpt lat="50.65907696262002" lon="9.753570025786758">
        <ele>267.38</ele>
        <time>2024-09-11T11:40:04Z</time>
      </trkpt>
      <trkpt lat="50.660231988877058" lon="9.754060031846166">
        <ele>262.10000000000002</ele>
        <time>2024-09-11T11:40:13Z</time>
      </trkpt>
      <trkpt lat="50.66133001819253" lon="9.754426991567016">
        <ele>258.25</ele>
        <time>2024-09-11T11:40:22Z</time>
      </trkpt>
      <trkpt lat="50.662517985329032" lon="9.75503602065146">
        <ele>257.29000000000002</ele>
        <time>2024-09-11T11:40:34Z</time>
      </trkpt>
      <trkpt lat="50.663386015221477" lon="9.75553197786212">
        <ele>259.69</ele>
        <time>2024-09-11T11:40:42Z</time>
      </trkpt>
      <trkpt lat="50.664339959621429" lon="9.75669102743268">
        <ele>266.42000000000002</ele>
        <time>2024-09-11T11:40:52Z</time>
      </trkpt>
      <trkpt lat="50.664770035073161" lon="9.757829960435629">
        <ele>270.26999999999998</ele>
        <time>2024-09-11T11:41:00Z</time>
      </trkpt>
      <trkpt lat="50.664863996207714" lon="9.75821896456182">
        <ele>272.19</ele>
        <time>2024-09-11T11:41:05Z</time>
      </trkpt>
      <trkpt lat="50.664882017299533" lon="9.758289959281683">
        <ele>272.19</ele>
        <time>2024-09-11T11:41:06Z</time>
      </trkpt>
      <trkpt lat="50.664900960400701" lon="9.758361959829927">
        <ele>272.19</ele>
        <time>2024-09-11T11:41:07Z</time>
      </trkpt>
      <trkpt lat="50.665031969547272" lon="9.758966965600848">
        <ele>271.23000000000002</ele>
        <time>2024-09-11T11:41:14Z</time>
      </trkpt>
      <trkpt lat="50.665018977597356" lon="9.759271983057261">
        <ele>271.23000000000002</ele>
        <time>2024-09-11T11:41:17Z</time>
      </trkpt>
      <trkpt lat="50.665041022002697" lon="9.75931397639215">
        <ele>270.75</ele>
        <time>2024-09-11T11:41:18Z</time>
      </trkpt>
      <trkpt lat="50.665041022002697" lon="9.75931397639215">
        <ele>270.75</ele>
        <time>2024-09-11T11:41:19Z</time>
      </trkpt>
      <trkpt lat="50.665276972576976" lon="9.759618993848562">
        <ele>269.31</ele>
        <time>2024-09-11T11:41:23Z</time>
      </trkpt>
      <trkpt lat="50.665352996438742" lon="9.759785961359739">
        <ele>268.82999999999998</ele>
        <time>2024-09-11T11:41:25Z</time>
      </trkpt>
      <trkpt lat="50.665606968104839" lon="9.760308992117643">
        <ele>266.89999999999998</ele>
        <time>2024-09-11T11:41:31Z</time>
      </trkpt>
      <trkpt lat="50.665706964209676" lon="9.760448969900608">
        <ele>265.94</ele>
        <time>2024-09-11T11:41:34Z</time>
      </trkpt>
      <trkpt lat="50.665739988908172" lon="9.76049498654902">
        <ele>265.45999999999998</ele>
        <time>2024-09-11T11:41:35Z</time>
      </trkpt>
      <trkpt lat="50.666184984147549" lon="9.76109798066318">
        <ele>262.57999999999998</ele>
        <time>2024-09-11T11:41:43Z</time>
      </trkpt>
      <trkpt lat="50.667188968509436" lon="9.762096013873816">
        <ele>261.62</ele>
        <time>2024-09-11T11:41:56Z</time>
      </trkpt>
      <trkpt lat="50.668123969808221" lon="9.762632958590984">
        <ele>261.62</ele>
        <time>2024-09-11T11:42:07Z</time>
      </trkpt>
      <trkpt lat="50.669318977743387" lon="9.763252967968583">
        <ele>260.64999999999998</ele>
        <time>2024-09-11T11:42:20Z</time>
      </trkpt>
      <trkpt lat="50.669425008818507" lon="9.763319017365575">
        <ele>260.64999999999998</ele>
        <time>2024-09-11T11:42:22Z</time>
      </trkpt>
      <trkpt lat="50.669635981321335" lon="9.763450026512146">
        <ele>259.20999999999998</ele>
        <time>2024-09-11T11:42:31Z</time>
      </trkpt>
      <trkpt lat="50.669958014041185" lon="9.76365496404469">
        <ele>258.25</ele>
        <time>2024-09-11T11:42:39Z</time>
      </trkpt>
      <trkpt lat="50.670008976012468" lon="9.763687988743186">
        <ele>258.25</ele>
        <time>2024-09-11T11:42:40Z</time>
      </trkpt>
      <trkpt lat="50.670067984610796" lon="9.763725958764553">
        <ele>258.25</ele>
        <time>2024-09-11T11:42:41Z</time>
      </trkpt>
      <trkpt lat="50.670428993180394" lon="9.764029970392585">
        <ele>257.29000000000002</ele>
        <time>2024-09-11T11:42:46Z</time>
      </trkpt>
      <trkpt lat="50.670598978176713" lon="9.764157962054014">
        <ele>257.29000000000002</ele>
        <time>2024-09-11T11:42:48Z</time>
      </trkpt>
      <trkpt lat="50.670696040615439" lon="9.764192998409271">
        <ele>257.29000000000002</ele>
        <time>2024-09-11T11:42:49Z</time>
      </trkpt>
      <trkpt lat="50.670791007578373" lon="9.764228034764528">
        <ele>256.81</ele>
        <time>2024-09-11T11:42:50Z</time>
      </trkpt>
      <trkpt lat="50.670888992026448" lon="9.764219988137484">
        <ele>256.81</ele>
        <time>2024-09-11T11:42:51Z</time>
      </trkpt>
      <trkpt lat="50.670987982302904" lon="9.76421101950109">
        <ele>256.32999999999998</ele>
        <time>2024-09-11T11:42:52Z</time>
      </trkpt>
      <trkpt lat="50.671555018052459" lon="9.764176988974214">
        <ele>256.32999999999998</ele>
        <time>2024-09-11T11:42:57Z</time>
      </trkpt>
      <trkpt lat="50.672220960259438" lon="9.764157962054014">
        <ele>255.37</ele>
        <time>2024-09-11T11:43:04Z</time>
      </trkpt>
      <trkpt lat="50.673240032047033" lon="9.76412401534617">
        <ele>252</ele>
        <time>2024-09-11T11:43:14Z</time>
      </trkpt>
      <trkpt lat="50.673339022323489" lon="9.764119992032647">
        <ele>252</ele>
        <time>2024-09-11T11:43:15Z</time>
      </trkpt>
      <trkpt lat="50.673442035913467" lon="9.764115968719125">
        <ele>252</ele>
        <time>2024-09-11T11:43:16Z</time>
      </trkpt>
      <trkpt lat="50.674620028585196" lon="9.764077998697758">
        <ele>250.08000000000001</ele>
        <time>2024-09-11T11:43:28Z</time>
      </trkpt>
      <trkpt lat="50.675028981640935" lon="9.764108005911112">
        <ele>250.08000000000001</ele>
        <time>2024-09-11T11:43:33Z</time>
      </trkpt>
      <trkpt lat="50.675067035481334" lon="9.764113035053015">
        <ele>250.08000000000001</ele>
        <time>2024-09-11T11:43:34Z</time>
      </trkpt>
      <trkpt lat="50.675114979967475" lon="9.764117980375886">
        <ele>251.03999999999999</ele>
        <time>2024-09-11T11:43:44Z</time>
      </trkpt>
      <trkpt lat="50.675384039059281" lon="9.764148993417621">
        <ele>252.47999999999999</ele>
        <time>2024-09-11T11:43:52Z</time>
      </trkpt>
      <trkpt lat="50.675508007407188" lon="9.764162991195917">
        <ele>253.44</ele>
        <time>2024-09-11T11:43:54Z</time>
      </trkpt>
      <trkpt lat="50.675582019612193" lon="9.764142036437988">
        <ele>253.44</ele>
        <time>2024-09-11T11:43:55Z</time>
      </trkpt>
      <trkpt lat="50.67566298879683" lon="9.764132983982563">
        <ele>253.93000000000001</ele>
        <time>2024-09-11T11:43:56Z</time>
      </trkpt>
      <trkpt lat="50.676262965425849" lon="9.763992000371218">
        <ele>252.96000000000001</ele>
        <time>2024-09-11T11:44:02Z</time>
      </trkpt>
      <trkpt lat="50.676362961530685" lon="9.763992000371218">
        <ele>252.47999999999999</ele>
        <time>2024-09-11T11:44:03Z</time>
      </trkpt>
      <trkpt lat="50.676869982853532" lon="9.763988982886076">
        <ele>251.52000000000001</ele>
        <time>2024-09-11T11:44:08Z</time>
      </trkpt>
      <trkpt lat="50.676968973129988" lon="9.763942966237664">
        <ele>251.52000000000001</ele>
        <time>2024-09-11T11:44:09Z</time>
      </trkpt>
      <trkpt lat="50.677071986719966" lon="9.763894015923142">
        <ele>251.52000000000001</ele>
        <time>2024-09-11T11:44:10Z</time>
      </trkpt>
      <trkpt lat="50.677173994481564" lon="9.76384598761797">
        <ele>251.52000000000001</ele>
        <time>2024-09-11T11:44:11Z</time>
      </trkpt>
      <trkpt lat="50.677277008071542" lon="9.763797959312797">
        <ele>251.03999999999999</ele>
        <time>2024-09-11T11:44:12Z</time>
      </trkpt>
      <trkpt lat="50.677379015833139" lon="9.763751020655036">
        <ele>251.03999999999999</ele>
        <time>2024-09-11T11:44:13Z</time>
      </trkpt>
      <trkpt lat="50.677670035511255" lon="9.763601990416646">
        <ele>250.56</ele>
        <time>2024-09-11T11:44:16Z</time>
      </trkpt>
      <trkpt lat="50.677769025787711" lon="9.763579024001956">
        <ele>251.03999999999999</ele>
        <time>2024-09-11T11:44:17Z</time>
      </trkpt>
      <trkpt lat="50.677966000512242" lon="9.76356603205204">
        <ele>251.52000000000001</ele>
        <time>2024-09-11T11:44:19Z</time>
      </trkpt>
      <trkpt lat="50.678063984960318" lon="9.763600984588265">
        <ele>252</ele>
        <time>2024-09-11T11:44:20Z</time>
      </trkpt>
      <trkpt lat="50.678172027692199" lon="9.763639960438013">
        <ele>252.47999999999999</ele>
        <time>2024-09-11T11:44:21Z</time>
      </trkpt>
      <trkpt lat="50.678528007119894" lon="9.763826038688421">
        <ele>254.41</ele>
        <time>2024-09-11T11:44:24Z</time>
      </trkpt>
      <trkpt lat="50.678649041801691" lon="9.763922011479735">
        <ele>254.88999999999999</ele>
        <time>2024-09-11T11:44:25Z</time>
      </trkpt>
      <trkpt lat="50.678772004321218" lon="9.764021001756191">
        <ele>255.84999999999999</ele>
        <time>2024-09-11T11:44:26Z</time>
      </trkpt>
      <trkpt lat="50.67888599820435" lon="9.764112029224634">
        <ele>256.81</ele>
        <time>2024-09-11T11:44:27Z</time>
      </trkpt>
      <trkpt lat="50.67897099070251" lon="9.7642329800874">
        <ele>257.76999999999998</ele>
        <time>2024-09-11T11:44:28Z</time>
      </trkpt>
      <trkpt lat="50.679039973765612" lon="9.764366000890732">
        <ele>259.20999999999998</ele>
        <time>2024-09-11T11:44:29Z</time>
      </trkpt>
      <trkpt lat="50.679112980142236" lon="9.764506984502077">
        <ele>260.17000000000002</ele>
        <time>2024-09-11T11:44:30Z</time>
      </trkpt>
      <trkpt lat="50.679189004004002" lon="9.764652997255325">
        <ele>261.62</ele>
        <time>2024-09-11T11:44:31Z</time>
      </trkpt>
      <trkpt lat="50.679243989288807" lon="9.764827005565167">
        <ele>262.57999999999998</ele>
        <time>2024-09-11T11:44:32Z</time>
      </trkpt>
      <trkpt lat="50.679279025644064" lon="9.765011994168162">
        <ele>263.54000000000002</ele>
        <time>2024-09-11T11:44:33Z</time>
      </trkpt>
      <trkpt lat="50.679311966523528" lon="9.765192037448287">
        <ele>264.5</ele>
        <time>2024-09-11T11:44:34Z</time>
      </trkpt>
      <trkpt lat="50.679353037849069" lon="9.765408039093018">
        <ele>265.45999999999998</ele>
        <time>2024-09-11T11:44:35Z</time>
      </trkpt>
      <trkpt lat="50.679406011477113" lon="9.767298996448517">
        <ele>275.56</ele>
        <time>2024-09-11T11:44:45Z</time>
      </trkpt>
      <trkpt lat="50.679411040619016" lon="9.768233997747302">
        <ele>279.88</ele>
        <time>2024-09-11T11:44:50Z</time>
      </trkpt>
      <trkpt lat="50.679414980113506" lon="9.768419992178679">
        <ele>280.83999999999997</ele>
        <time>2024-09-11T11:44:51Z</time>
      </trkpt>
      <trkpt lat="50.679445993155241" lon="9.768599029630423">
        <ele>281.31999999999999</ele>
        <time>2024-09-11T11:44:52Z</time>
      </trkpt>
      <trkpt lat="50.679496033117175" lon="9.768773959949613">
        <ele>281.80000000000001</ele>
        <time>2024-09-11T11:44:53Z</time>
      </trkpt>
      <trkpt lat="50.679544983431697" lon="9.768946962431073">
        <ele>282.27999999999997</ele>
        <time>2024-09-11T11:44:54Z</time>
      </trkpt>
      <trkpt lat="50.680029960349202" lon="9.770901035517454">
        <ele>289.49000000000001</ele>
        <time>2024-09-11T11:45:05Z</time>
      </trkpt>
      <trkpt lat="50.68023799918592" lon="9.771790020167828">
        <ele>291.89999999999998</ele>
        <time>2024-09-11T11:45:10Z</time>
      </trkpt>
      <trkpt lat="50.680287033319473" lon="9.771966962143779">
        <ele>292.86000000000001</ele>
        <time>2024-09-11T11:45:11Z</time>
      </trkpt>
      <trkpt lat="50.680335983633995" lon="9.772141976282001">
        <ele>292.86000000000001</ele>
        <time>2024-09-11T11:45:12Z</time>
      </trkpt>
      <trkpt lat="50.680394992232323" lon="9.772305004298687">
        <ele>293.33999999999997</ele>
        <time>2024-09-11T11:45:13Z</time>
      </trkpt>
      <trkpt lat="50.680465986952186" lon="9.772457974031568">
        <ele>293.81999999999999</ele>
        <time>2024-09-11T11:45:14Z</time>
      </trkpt>
      <trkpt lat="50.681257992982864" lon="9.774170983582735">
        <ele>299.58999999999997</ele>
        <time>2024-09-11T11:45:25Z</time>
      </trkpt>
      <trkpt lat="50.682110013440251" lon="9.776021959260106">
        <ele>305.36000000000001</ele>
        <time>2024-09-11T11:45:37Z</time>
      </trkpt>
      <trkpt lat="50.682318974286318" lon="9.77647902444005">
        <ele>307.27999999999997</ele>
        <time>2024-09-11T11:45:40Z</time>
      </trkpt>
      <trkpt lat="50.68309597671032" lon="9.778118021786213">
        <ele>310.16000000000003</ele>
        <time>2024-09-11T11:45:49Z</time>
      </trkpt>
      <trkpt lat="50.684378994628787" lon="9.78043301962316">
        <ele>313.05000000000001</ele>
        <time>2024-09-11T11:45:59Z</time>
      </trkpt>
      <trkpt lat="50.686068031936884" lon="9.782912973314524">
        <ele>313.52999999999997</ele>
        <time>2024-09-11T11:46:09Z</time>
      </trkpt>
      <trkpt lat="50.688470033928752" lon="9.785428969189525">
        <ele>317.37</ele>
        <time>2024-09-11T11:46:21Z</time>
      </trkpt>
      <trkpt lat="50.68868100643158" lon="9.785599038004875">
        <ele>317.37</ele>
        <time>2024-09-11T11:46:22Z</time>
      </trkpt>
      <trkpt lat="50.688904970884323" lon="9.785715965554118">
        <ele>317.85000000000002</ele>
        <time>2024-09-11T11:46:23Z</time>
      </trkpt>
      <trkpt lat="50.689132958650589" lon="9.785815039649606">
        <ele>318.81</ele>
        <time>2024-09-11T11:46:24Z</time>
      </trkpt>
      <trkpt lat="50.6914740242064" lon="9.786420967429876">
        <ele>324.10000000000002</ele>
        <time>2024-09-11T11:46:34Z</time>
      </trkpt>
      <trkpt lat="50.692556966096163" lon="9.786568991839886">
        <ele>325.54000000000002</ele>
        <time>2024-09-11T11:46:39Z</time>
      </trkpt>
      <trkpt lat="50.692770034074783" lon="9.786494979634881">
        <ele>326.01999999999998</ele>
        <time>2024-09-11T11:46:40Z</time>
      </trkpt>
      <trkpt lat="50.69300003349781" lon="9.786415016278625">
        <ele>326.01999999999998</ele>
        <time>2024-09-11T11:46:41Z</time>
      </trkpt>
      <trkpt lat="50.693635968491435" lon="9.786112010478973">
        <ele>326.5</ele>
        <time>2024-09-11T11:46:44Z</time>
      </trkpt>
      <trkpt lat="50.693856999278069" lon="9.786104969680309">
        <ele>326.99000000000001</ele>
        <time>2024-09-11T11:46:45Z</time>
      </trkpt>
      <trkpt lat="50.694076018407941" lon="9.78614897467196">
        <ele>327.47000000000003</ele>
        <time>2024-09-11T11:46:46Z</time>
      </trkpt>
      <trkpt lat="50.69426603615284" lon="9.786301022395492">
        <ele>328.43000000000001</ele>
        <time>2024-09-11T11:46:47Z</time>
      </trkpt>
      <trkpt lat="50.694425962865353" lon="9.786487016826868">
        <ele>328.91000000000003</ele>
        <time>2024-09-11T11:46:48Z</time>
      </trkpt>
      <trkpt lat="50.694580022245646" lon="9.786666976287961">
        <ele>330.35000000000002</ele>
        <time>2024-09-11T11:46:49Z</time>
      </trkpt>
      <trkpt lat="50.694728968665004" lon="9.786846013739705">
        <ele>331.31</ele>
        <time>2024-09-11T11:46:50Z</time>
      </trkpt>
      <trkpt lat="50.694869030267" lon="9.787027984857559">
        <ele>332.26999999999998</ele>
        <time>2024-09-11T11:46:51Z</time>
      </trkpt>
      <trkpt lat="50.695006996393204" lon="9.787177015095949">
        <ele>333.23000000000002</ele>
        <time>2024-09-11T11:46:52Z</time>
      </trkpt>
      <trkpt lat="50.695139011368155" lon="9.787310035899282">
        <ele>334.19999999999999</ele>
        <time>2024-09-11T11:46:53Z</time>
      </trkpt>
      <trkpt lat="50.695262979716063" lon="9.787434004247189">
        <ele>334.68000000000001</ele>
        <time>2024-09-11T11:46:54Z</time>
      </trkpt>
      <trkpt lat="50.69540698081255" lon="9.787475997582078">
        <ele>335.16000000000003</ele>
        <time>2024-09-11T11:46:55Z</time>
      </trkpt>
      <trkpt lat="50.695552993565798" lon="9.787510028108954">
        <ele>336.12</ele>
        <time>2024-09-11T11:46:56Z</time>
      </trkpt>
      <trkpt lat="50.695692971348763" lon="9.787484966218472">
        <ele>336.12</ele>
        <time>2024-09-11T11:46:57Z</time>
      </trkpt>
      <trkpt lat="50.695838984102011" lon="9.78745898231864">
        <ele>336.60000000000002</ele>
        <time>2024-09-11T11:46:58Z</time>
      </trkpt>
      <trkpt lat="50.695967981591821" lon="9.787406008690596">
        <ele>337.07999999999998</ele>
        <time>2024-09-11T11:46:59Z</time>
      </trkpt>
      <trkpt lat="50.696102008223534" lon="9.787297965958715">
        <ele>337.07999999999998</ele>
        <time>2024-09-11T11:47:00Z</time>
      </trkpt>
      <trkpt lat="50.696239974349737" lon="9.787186989560723">
        <ele>337.07999999999998</ele>
        <time>2024-09-11T11:47:01Z</time>
      </trkpt>
      <trkpt lat="50.696382969617844" lon="9.78707299567759">
        <ele>336.60000000000002</ele>
        <time>2024-09-11T11:47:02Z</time>
      </trkpt>
      <trkpt lat="50.696871969848871" lon="9.786732019856572">
        <ele>335.16000000000003</ele>
        <time>2024-09-11T11:47:05Z</time>
      </trkpt>
      <trkpt lat="50.697063999250531" lon="9.7866649646312">
        <ele>335.16000000000003</ele>
        <time>2024-09-11T11:47:06Z</time>
      </trkpt>
      <trkpt lat="50.697263991460204" lon="9.786604028195143">
        <ele>334.68000000000001</ele>
        <time>2024-09-11T11:47:07Z</time>
      </trkpt>
      <trkpt lat="50.697470018640161" lon="9.786577960476279">
        <ele>334.68000000000001</ele>
        <time>2024-09-11T11:47:08Z</time>
      </trkpt>
      <trkpt lat="50.697675962001085" lon="9.786551976576448">
        <ele>335.16000000000003</ele>
        <time>2024-09-11T11:47:09Z</time>
      </trkpt>
      <trkpt lat="50.699824998155236" lon="9.786058031022549">
        <ele>342.85000000000002</ele>
        <time>2024-09-11T11:47:20Z</time>
      </trkpt>
      <trkpt lat="50.700709959492087" lon="9.785564001649618">
        <ele>347.17000000000002</ele>
        <time>2024-09-11T11:47:26Z</time>
      </trkpt>
      <trkpt lat="50.700807021930814" lon="9.785504993051291">
        <ele>347.64999999999998</ele>
        <time>2024-09-11T11:47:27Z</time>
      </trkpt>
      <trkpt lat="50.700791012495756" lon="9.785436009988189">
        <ele>348.13</ele>
        <time>2024-09-11T11:47:28Z</time>
      </trkpt>
      <trkpt lat="50.700793024152517" lon="9.785358980298042">
        <ele>348.13</ele>
        <time>2024-09-11T11:47:29Z</time>
      </trkpt>
      <trkpt lat="50.700796041637659" lon="9.785280022770166">
        <ele>348.62</ele>
        <time>2024-09-11T11:47:30Z</time>
      </trkpt>
      <trkpt lat="50.700797969475389" lon="9.785176003351808">
        <ele>349.10000000000002</ele>
        <time>2024-09-11T11:47:31Z</time>
      </trkpt>
      <trkpt lat="50.700801992788911" lon="9.785036025568843">
        <ele>349.10000000000002</ele>
        <time>2024-09-11T11:47:32Z</time>
      </trkpt>
      <trkpt lat="50.700807021930814" lon="9.784866962581873">
        <ele>349.10000000000002</ele>
        <time>2024-09-11T11:47:33Z</time>
      </trkpt>
      <trkpt lat="50.700830994173884" lon="9.784675016999245">
        <ele>349.57999999999998</ele>
        <time>2024-09-11T11:47:34Z</time>
      </trkpt>
      <trkpt lat="50.700892014428973" lon="9.784477036446333">
        <ele>349.57999999999998</ele>
        <time>2024-09-11T11:47:35Z</time>
      </trkpt>
      <trkpt lat="50.700958985835314" lon="9.784258017316461">
        <ele>350.06</ele>
        <time>2024-09-11T11:47:36Z</time>
      </trkpt>
      <trkpt lat="50.70105898194015" lon="9.784038998186588">
        <ele>349.57999999999998</ele>
        <time>2024-09-11T11:47:37Z</time>
      </trkpt>
      <trkpt lat="50.701178004965186" lon="9.783816961571574">
        <ele>349.57999999999998</ele>
        <time>2024-09-11T11:47:38Z</time>
      </trkpt>
      <trkpt lat="50.701308008283377" lon="9.783573970198631">
        <ele>349.10000000000002</ele>
        <time>2024-09-11T11:47:39Z</time>
      </trkpt>
      <trkpt lat="50.701562985777855" lon="9.783036019653082">
        <ele>348.13</ele>
        <time>2024-09-11T11:47:41Z</time>
      </trkpt>
      <trkpt lat="50.70191795937717" lon="9.782180981710553">
        <ele>346.20999999999998</ele>
        <time>2024-09-11T11:47:44Z</time>
      </trkpt>
      <trkpt lat="50.702499998733401" lon="9.781318986788392">
        <ele>340.92000000000002</ele>
        <time>2024-09-11T11:47:48Z</time>
      </trkpt>
      <trkpt lat="50.702653974294662" lon="9.781213039532304">
        <ele>339.95999999999998</ele>
        <time>2024-09-11T11:47:49Z</time>
      </trkpt>
      <trkpt lat="50.702837035059929" lon="9.781146990135312">
        <ele>339</ele>
        <time>2024-09-11T11:47:50Z</time>
      </trkpt>
      <trkpt lat="50.703024035319686" lon="9.781079012900591">
        <ele>338.04000000000002</ele>
        <time>2024-09-11T11:47:51Z</time>
      </trkpt>
      <trkpt lat="50.703215980902314" lon="9.781009024009109">
        <ele>337.07999999999998</ele>
        <time>2024-09-11T11:47:52Z</time>
      </trkpt>
      <trkpt lat="50.703417984768748" lon="9.780894024297595">
        <ele>336.60000000000002</ele>
        <time>2024-09-11T11:47:53Z</time>
      </trkpt>
      <trkpt lat="50.703612025827169" lon="9.780764020979404">
        <ele>336.12</ele>
        <time>2024-09-11T11:47:54Z</time>
      </trkpt>
      <trkpt lat="50.703801037743688" lon="9.780638040974736">
        <ele>335.16000000000003</ele>
        <time>2024-09-11T11:47:55Z</time>
      </trkpt>
      <trkpt lat="50.704273022711277" lon="9.780146023258567">
        <ele>334.19999999999999</ele>
        <time>2024-09-11T11:47:58Z</time>
      </trkpt>
      <trkpt lat="50.704752970486879" lon="9.77961603552103">
        <ele>332.75</ele>
        <time>2024-09-11T11:48:02Z</time>
      </trkpt>
      <trkpt lat="50.704864030703902" lon="9.779550991952419">
        <ele>332.75</ele>
        <time>2024-09-11T11:48:03Z</time>
      </trkpt>
      <trkpt lat="50.704969977959991" lon="9.779489971697331">
        <ele>332.75</ele>
        <time>2024-09-11T11:48:04Z</time>
      </trkpt>
      <trkpt lat="50.705069974064827" lon="9.77944596670568">
        <ele>332.26999999999998</ele>
        <time>2024-09-11T11:48:05Z</time>
      </trkpt>
      <trkpt lat="50.705170975998044" lon="9.779414031654596">
        <ele>331.79000000000002</ele>
        <time>2024-09-11T11:48:06Z</time>
      </trkpt>
      <trkpt lat="50.705553023144603" lon="9.779290985316038">
        <ele>329.38999999999999</ele>
        <time>2024-09-11T11:48:10Z</time>
      </trkpt>
      <trkpt lat="50.705648995935917" lon="9.779205992817879">
        <ele>328.91000000000003</ele>
        <time>2024-09-11T11:48:11Z</time>
      </trkpt>
      <trkpt lat="50.705730970948935" lon="9.779132986441255">
        <ele>328.43000000000001</ele>
        <time>2024-09-11T11:48:12Z</time>
      </trkpt>
      <trkpt lat="50.705796014517546" lon="9.779045982286334">
        <ele>327.94999999999999</ele>
        <time>2024-09-11T11:48:13Z</time>
      </trkpt>
      <trkpt lat="50.705859968438745" lon="9.778953026980162">
        <ele>327.47000000000003</ele>
        <time>2024-09-11T11:48:14Z</time>
      </trkpt>
      <trkpt lat="50.705925012007356" lon="9.778858982026577">
        <ele>326.99000000000001</ele>
        <time>2024-09-11T11:48:15Z</time>
      </trkpt>
      <trkpt lat="50.705982008948922" lon="9.778776001185179">
        <ele>326.5</ele>
        <time>2024-09-11T11:48:16Z</time>
      </trkpt>
      <trkpt lat="50.706260958686471" lon="9.778135037049651">
        <ele>323.62</ele>
        <time>2024-09-11T11:48:21Z</time>
      </trkpt>
      <trkpt lat="50.706318039447069" lon="9.77800402790308">
        <ele>322.66000000000003</ele>
        <time>2024-09-11T11:48:22Z</time>
      </trkpt>
      <trkpt lat="50.706376964226365" lon="9.777867989614606">
        <ele>322.18000000000001</ele>
        <time>2024-09-11T11:48:23Z</time>
      </trkpt>
      <trkpt lat="50.706433039158583" lon="9.777723988518119">
        <ele>321.69999999999999</ele>
        <time>2024-09-11T11:48:24Z</time>
      </trkpt>
      <trkpt lat="50.706487018615007" lon="9.77757403627038">
        <ele>321.69999999999999</ele>
        <time>2024-09-11T11:48:25Z</time>
      </trkpt>
      <trkpt lat="50.706754988059402" lon="9.776862999424338">
        <ele>317.37</ele>
        <time>2024-09-11T11:48:30Z</time>
      </trkpt>
      <trkpt lat="50.706781977787614" lon="9.776712041348219">
        <ele>316.41000000000003</ele>
        <time>2024-09-11T11:48:31Z</time>
      </trkpt>
      <trkpt lat="50.706796981394291" lon="9.77663098834455">
        <ele>315.44999999999999</ele>
        <time>2024-09-11T11:48:32Z</time>
      </trkpt>
      <trkpt lat="50.706889014691114" lon="9.776464020833373">
        <ele>314.49000000000001</ele>
        <time>2024-09-11T11:48:33Z</time>
      </trkpt>
      <trkpt lat="50.706949029117823" lon="9.776353966444731">
        <ele>313.52999999999997</ele>
        <time>2024-09-11T11:48:34Z</time>
      </trkpt>
      <trkpt lat="50.707084983587265" lon="9.776153974235058">
        <ele>311.60000000000002</ele>
        <time>2024-09-11T11:48:36Z</time>
      </trkpt>
      <trkpt lat="50.707314983010292" lon="9.775945013388991">
        <ele>310.16000000000003</ele>
        <time>2024-09-11T11:48:39Z</time>
      </trkpt>
      <trkpt lat="50.707431994378567" lon="9.775838982313871">
        <ele>309.19999999999999</ele>
        <time>2024-09-11T11:48:41Z</time>
      </trkpt>
      <trkpt lat="50.707528972998261" lon="9.77581299841404">
        <ele>308.72000000000003</ele>
        <time>2024-09-11T11:48:43Z</time>
      </trkpt>
      <trkpt lat="50.707554034888744" lon="9.77585599757731">
        <ele>308.72000000000003</ele>
        <time>2024-09-11T11:48:44Z</time>
      </trkpt>
      <trkpt lat="50.707972962409258" lon="9.776556976139545">
        <ele>306.80000000000001</ele>
        <time>2024-09-11T11:48:50Z</time>
      </trkpt>
      <trkpt lat="50.708213020116091" lon="9.77693097665906">
        <ele>307.27999999999997</ele>
        <time>2024-09-11T11:48:53Z</time>
      </trkpt>
      <trkpt lat="50.708312010392547" lon="9.776993002742529">
        <ele>307.27999999999997</ele>
        <time>2024-09-11T11:48:54Z</time>
      </trkpt>
      <trkpt lat="50.708414018154144" lon="9.777057962492108">
        <ele>307.27999999999997</ele>
        <time>2024-09-11T11:48:55Z</time>
      </trkpt>
      <trkpt lat="50.70851200260222" lon="9.77708101272583">
        <ele>307.27999999999997</ele>
        <time>2024-09-11T11:48:56Z</time>
      </trkpt>
      <trkpt lat="50.708628008142114" lon="9.77708101272583">
        <ele>307.27999999999997</ele>
        <time>2024-09-11T11:48:57Z</time>
      </trkpt>
      <trkpt lat="50.708739990368485" lon="9.777067014947534">
        <ele>307.27999999999997</ele>
        <time>2024-09-11T11:48:58Z</time>
      </trkpt>
      <trkpt lat="50.708854990079999" lon="9.7770169749856">
        <ele>307.27999999999997</ele>
        <time>2024-09-11T11:48:59Z</time>
      </trkpt>
      <trkpt lat="50.708969989791512" lon="9.776966013014317">
        <ele>307.75999999999999</ele>
        <time>2024-09-11T11:49:00Z</time>
      </trkpt>
      <trkpt lat="50.709213986992836" lon="9.776882026344538">
        <ele>307.75999999999999</ele>
        <time>2024-09-11T11:49:02Z</time>
      </trkpt>
      <trkpt lat="50.709347007796168" lon="9.776861993595958">
        <ele>308.24000000000001</ele>
        <time>2024-09-11T11:49:03Z</time>
      </trkpt>
      <trkpt lat="50.709496038034558" lon="9.776852019131184">
        <ele>308.72000000000003</ele>
        <time>2024-09-11T11:49:04Z</time>
      </trkpt>
      <trkpt lat="50.710689034312963" lon="9.776784041896462">
        <ele>313.05000000000001</ele>
        <time>2024-09-11T11:49:10Z</time>
      </trkpt>
      <trkpt lat="50.712368013337255" lon="9.776896024122834">
        <ele>315.44999999999999</ele>
        <time>2024-09-11T11:49:17Z</time>
      </trkpt>
      <trkpt lat="50.713711967691779" lon="9.776553036645055">
        <ele>317.37</ele>
        <time>2024-09-11T11:49:23Z</time>
      </trkpt>
      <trkpt lat="50.713912965729833" lon="9.776408029720187">
        <ele>317.37</ele>
        <time>2024-09-11T11:49:24Z</time>
      </trkpt>
      <trkpt lat="50.714106000959873" lon="9.776232009753585">
        <ele>317.37</ele>
        <time>2024-09-11T11:49:25Z</time>
      </trkpt>
      <trkpt lat="50.714276991784573" lon="9.775995975360274">
        <ele>317.85000000000002</ele>
        <time>2024-09-11T11:49:26Z</time>
      </trkpt>
      <trkpt lat="50.714434990659356" lon="9.775740997865796">
        <ele>318.32999999999998</ele>
        <time>2024-09-11T11:49:27Z</time>
      </trkpt>
      <trkpt lat="50.714563988149166" lon="9.775447966530919">
        <ele>318.81</ele>
        <time>2024-09-11T11:49:28Z</time>
      </trkpt>
      <trkpt lat="50.714684017002583" lon="9.775130962952972">
        <ele>319.30000000000001</ele>
        <time>2024-09-11T11:49:29Z</time>
      </trkpt>
      <trkpt lat="50.714792981743813" lon="9.774799961596727">
        <ele>320.25999999999999</ele>
        <time>2024-09-11T11:49:30Z</time>
      </trkpt>
      <trkpt lat="50.71517201140523" lon="9.773874012753367">
        <ele>321.69999999999999</ele>
        <time>2024-09-11T11:49:33Z</time>
      </trkpt>
      <trkpt lat="50.715316012501717" lon="9.773602019995451">
        <ele>322.18000000000001</ele>
        <time>2024-09-11T11:49:34Z</time>
      </trkpt>
      <trkpt lat="50.71549597196281" lon="9.773403033614159">
        <ele>322.18000000000001</ele>
        <time>2024-09-11T11:49:35Z</time>
      </trkpt>
      <trkpt lat="50.715695964172482" lon="9.77321301586926">
        <ele>322.66000000000003</ele>
        <time>2024-09-11T11:49:36Z</time>
      </trkpt>
      <trkpt lat="50.715912971645594" lon="9.773049987852573">
        <ele>323.13999999999999</ele>
        <time>2024-09-11T11:49:37Z</time>
      </trkpt>
      <trkpt lat="50.716132996603847" lon="9.772885031998158">
        <ele>323.62</ele>
        <time>2024-09-11T11:49:38Z</time>
      </trkpt>
      <trkpt lat="50.717440992593765" lon="9.771718019619584">
        <ele>327.47000000000003</ele>
        <time>2024-09-11T11:49:44Z</time>
      </trkpt>
      <trkpt lat="50.717627992853522" lon="9.771448960527778">
        <ele>327.47000000000003</ele>
        <time>2024-09-11T11:49:45Z</time>
      </trkpt>
      <trkpt lat="50.717808958142996" lon="9.771169004961848">
        <ele>327.94999999999999</ele>
        <time>2024-09-11T11:49:46Z</time>
      </trkpt>
      <trkpt lat="50.717976009473205" lon="9.770868010818958">
        <ele>328.43000000000001</ele>
        <time>2024-09-11T11:49:47Z</time>
      </trkpt>
      <trkpt lat="50.718123028054833" lon="9.770542038604617">
        <ele>328.43000000000001</ele>
        <time>2024-09-11T11:49:48Z</time>
      </trkpt>
      <trkpt lat="50.719274030998349" lon="9.768538009375334">
        <ele>331.79000000000002</ele>
        <time>2024-09-11T11:49:55Z</time>
      </trkpt>
      <trkpt lat="50.719477040693164" lon="9.768361989408732">
        <ele>332.26999999999998</ele>
        <time>2024-09-11T11:49:56Z</time>
      </trkpt>
      <trkpt lat="50.719676027074456" lon="9.768188986927271">
        <ele>332.75</ele>
        <time>2024-09-11T11:49:57Z</time>
      </trkpt>
      <trkpt lat="50.721444021910429" lon="9.76706899702549">
        <ele>341.41000000000003</ele>
        <time>2024-09-11T11:50:06Z</time>
      </trkpt>
      <trkpt lat="50.723110008984804" lon="9.766289982944727">
        <ele>351.01999999999998</ele>
        <time>2024-09-11T11:50:14Z</time>
      </trkpt>
      <trkpt lat="50.724850008264184" lon="9.765661004930735">
        <ele>363.04000000000002</ele>
        <time>2024-09-11T11:50:23Z</time>
      </trkpt>
      <trkpt lat="50.725022004917264" lon="9.765710039064288">
        <ele>364</ele>
        <time>2024-09-11T11:50:24Z</time>
      </trkpt>
      <trkpt lat="50.725201964378357" lon="9.765774998813868">
        <ele>364.48000000000002</ele>
        <time>2024-09-11T11:50:25Z</time>
      </trkpt>
      <trkpt lat="50.725391982123256" lon="9.765893016010523">
        <ele>365.44</ele>
        <time>2024-09-11T11:50:26Z</time>
      </trkpt>
      <trkpt lat="50.727134998887777" lon="9.766908986493945">
        <ele>366.88</ele>
        <time>2024-09-11T11:50:34Z</time>
      </trkpt>
      <trkpt lat="50.728545002639294" lon="9.767431011423469">
        <ele>367.83999999999997</ele>
        <time>2024-09-11T11:50:41Z</time>
      </trkpt>
      <trkpt lat="50.729112960398197" lon="9.767724964767695">
        <ele>367.36000000000001</ele>
        <time>2024-09-11T11:50:46Z</time>
      </trkpt>
      <trkpt lat="50.729155959561467" lon="9.767747009173036">
        <ele>367.83999999999997</ele>
        <time>2024-09-11T11:50:47Z</time>
      </trkpt>
      <trkpt lat="50.729171968996525" lon="9.767637960612774">
        <ele>367.83999999999997</ele>
        <time>2024-09-11T11:50:48Z</time>
      </trkpt>
      <trkpt lat="50.729187978431582" lon="9.767528995871544">
        <ele>367.83999999999997</ele>
        <time>2024-09-11T11:50:49Z</time>
      </trkpt>
      <trkpt lat="50.729212034493685" lon="9.767373008653522">
        <ele>367.36000000000001</ele>
        <time>2024-09-11T11:50:50Z</time>
      </trkpt>
      <trkpt lat="50.729241035878658" lon="9.767177039757371">
        <ele>367.36000000000001</ele>
        <time>2024-09-11T11:50:51Z</time>
      </trkpt>
      <trkpt lat="50.729491990059614" lon="9.765481967478991">
        <ele>365.44</ele>
        <time>2024-09-11T11:50:57Z</time>
      </trkpt>
      <trkpt lat="50.729580000042915" lon="9.764886014163494">
        <ele>364.95999999999998</ele>
        <time>2024-09-11T11:50:59Z</time>
      </trkpt>
      <trkpt lat="50.729673039168119" lon="9.764631036669016">
        <ele>364.48000000000002</ele>
        <time>2024-09-11T11:51:00Z</time>
      </trkpt>
      <trkpt lat="50.729782003909349" lon="9.764377987012267">
        <ele>364</ele>
        <time>2024-09-11T11:51:01Z</time>
      </trkpt>
      <trkpt lat="50.729920975863934" lon="9.764137007296085">
        <ele>363.51999999999998</ele>
        <time>2024-09-11T11:51:02Z</time>
      </trkpt>
      <trkpt lat="50.73006397113204" lon="9.76388898678124">
        <ele>363.04000000000002</ele>
        <time>2024-09-11T11:51:03Z</time>
      </trkpt>
      <trkpt lat="50.730511983856559" lon="9.762993967160583">
        <ele>361.11000000000001</ele>
        <time>2024-09-11T11:51:07Z</time>
      </trkpt>
      <trkpt lat="50.730565963312984" lon="9.762807972729206">
        <ele>360.63</ele>
        <time>2024-09-11T11:51:08Z</time>
      </trkpt>
      <trkpt lat="50.730596976354718" lon="9.762632036581636">
        <ele>360.14999999999998</ele>
        <time>2024-09-11T11:51:09Z</time>
      </trkpt>
      <trkpt lat="50.730623966082931" lon="9.762476971372962">
        <ele>359.67000000000002</ele>
        <time>2024-09-11T11:51:10Z</time>
      </trkpt>
      <trkpt lat="50.730647016316652" lon="9.762347973883152">
        <ele>359.67000000000002</ele>
        <time>2024-09-11T11:51:11Z</time>
      </trkpt>
      <trkpt lat="50.730736032128334" lon="9.761837013065815">
        <ele>359.19</ele>
        <time>2024-09-11T11:51:18Z</time>
      </trkpt>
      <trkpt lat="50.730741983279586" lon="9.7618049941957">
        <ele>359.19</ele>
        <time>2024-09-11T11:51:19Z</time>
      </trkpt>
      <trkpt lat="50.730741983279586" lon="9.7618049941957">
        <ele>358.70999999999998</ele>
        <time>2024-09-11T11:51:20Z</time>
      </trkpt>
      <trkpt lat="50.73074902407825" lon="9.761767024174333">
        <ele>358.70999999999998</ele>
        <time>2024-09-11T11:51:21Z</time>
      </trkpt>
      <trkpt lat="50.730752041563392" lon="9.761745985597372">
        <ele>358.70999999999998</ele>
        <time>2024-09-11T11:51:22Z</time>
      </trkpt>
      <trkpt lat="50.730755981057882" lon="9.761725030839443">
        <ele>358.23000000000002</ele>
        <time>2024-09-11T11:51:23Z</time>
      </trkpt>
      <trkpt lat="50.730760004371405" lon="9.761701980605722">
        <ele>358.23000000000002</ele>
        <time>2024-09-11T11:51:24Z</time>
      </trkpt>
      <trkpt lat="50.730760004371405" lon="9.761701980605722">
        <ele>357.75</ele>
        <time>2024-09-11T11:51:25Z</time>
      </trkpt>
      <trkpt lat="50.730766039341688" lon="9.761631991714239">
        <ele>350.06</ele>
        <time>2024-09-11T12:12:53Z</time>
      </trkpt>
      <trkpt lat="50.730806021019816" lon="9.761640960350633">
        <ele>358.70999999999998</ele>
        <time>2024-09-11T12:13:15Z</time>
      </trkpt>
      <trkpt lat="50.730762016028166" lon="9.761669039726257">
        <ele>351.5</ele>
        <time>2024-09-11T12:14:04Z</time>
      </trkpt>
      <trkpt lat="50.730772996321321" lon="9.76161397062242">
        <ele>351.98000000000002</ele>
        <time>2024-09-11T12:14:57Z</time>
      </trkpt>
      <trkpt lat="50.730770984664559" lon="9.761622017249465">
        <ele>351.98000000000002</ele>
        <time>2024-09-11T12:15:46Z</time>
      </trkpt>
      <trkpt lat="50.730795040726662" lon="9.761501988396049">
        <ele>351.98000000000002</ele>
        <time>2024-09-11T12:16:09Z</time>
      </trkpt>
      <trkpt lat="50.730813983827829" lon="9.761391011998057">
        <ele>351.5</ele>
        <time>2024-09-11T12:16:10Z</time>
      </trkpt>
      <trkpt lat="50.731060998514295" lon="9.760179994627833">
        <ele>349.10000000000002</ele>
        <time>2024-09-11T12:16:17Z</time>
      </trkpt>
      <trkpt lat="50.731432987377048" lon="9.758507972583175">
        <ele>348.13</ele>
        <time>2024-09-11T12:16:24Z</time>
      </trkpt>
      <trkpt lat="50.731508005410433" lon="9.7582389973104">
        <ele>347.64999999999998</ele>
        <time>2024-09-11T12:16:25Z</time>
      </trkpt>
      <trkpt lat="50.731557039543986" lon="9.757924005389214">
        <ele>346.69</ele>
        <time>2024-09-11T12:16:26Z</time>
      </trkpt>
      <trkpt lat="50.731583023443818" lon="9.757627034559846">
        <ele>345.73000000000002</ele>
        <time>2024-09-11T12:16:27Z</time>
      </trkpt>
      <trkpt lat="50.73160900734365" lon="9.75733500905335">
        <ele>344.76999999999998</ele>
        <time>2024-09-11T12:16:28Z</time>
      </trkpt>
      <trkpt lat="50.731637002900243" lon="9.757032003253698">
        <ele>344.29000000000002</ele>
        <time>2024-09-11T12:16:29Z</time>
      </trkpt>
      <trkpt lat="50.731663992628455" lon="9.756722040474415">
        <ele>343.32999999999998</ele>
        <time>2024-09-11T12:16:30Z</time>
      </trkpt>
      <trkpt lat="50.731726018711925" lon="9.756444012746215">
        <ele>342.37</ele>
        <time>2024-09-11T12:16:31Z</time>
      </trkpt>
      <trkpt lat="50.731792990118265" lon="9.756158022210002">
        <ele>341.88999999999999</ele>
        <time>2024-09-11T12:16:32Z</time>
      </trkpt>
      <trkpt lat="50.731923999264836" lon="9.755603978410363">
        <ele>341.41000000000003</ele>
        <time>2024-09-11T12:16:34Z</time>
      </trkpt>
      <trkpt lat="50.73195300064981" lon="9.755310025066137">
        <ele>341.41000000000003</ele>
        <time>2024-09-11T12:16:35Z</time>
      </trkpt>
      <trkpt lat="50.731979990378022" lon="9.755038032308221">
        <ele>340.92000000000002</ele>
        <time>2024-09-11T12:16:36Z</time>
      </trkpt>
      <trkpt lat="50.73197697289288" lon="9.754770984873176">
        <ele>340.92000000000002</ele>
        <time>2024-09-11T12:16:37Z</time>
      </trkpt>
      <trkpt lat="50.731959035620093" lon="9.754487005993724">
        <ele>340.44</ele>
        <time>2024-09-11T12:16:38Z</time>
      </trkpt>
      <trkpt lat="50.7319310400635" lon="9.754189029335976">
        <ele>339.48000000000002</ele>
        <time>2024-09-11T12:16:39Z</time>
      </trkpt>
      <trkpt lat="50.731877982616425" lon="9.753880994394422">
        <ele>338.51999999999998</ele>
        <time>2024-09-11T12:16:40Z</time>
      </trkpt>
      <trkpt lat="50.731687964871526" lon="9.752566041424871">
        <ele>335.16000000000003</ele>
        <time>2024-09-11T12:16:44Z</time>
      </trkpt>
      <trkpt lat="50.731615964323282" lon="9.751370027661324">
        <ele>331.31</ele>
        <time>2024-09-11T12:16:48Z</time>
      </trkpt>
      <trkpt lat="50.731586962938309" lon="9.751088982447982">
        <ele>330.35000000000002</ele>
        <time>2024-09-11T12:16:49Z</time>
      </trkpt>
      <trkpt lat="50.731505993753672" lon="9.750819001346827">
        <ele>329.38999999999999</ele>
        <time>2024-09-11T12:16:50Z</time>
      </trkpt>
      <trkpt lat="50.730829993262887" lon="9.748971965163946">
        <ele>322.66000000000003</ele>
        <time>2024-09-11T12:16:57Z</time>
      </trkpt>
      <trkpt lat="50.73070602491498" lon="9.748810026794672">
        <ele>322.18000000000001</ele>
        <time>2024-09-11T12:16:58Z</time>
      </trkpt>
      <trkpt lat="50.730550959706306" lon="9.748607017099857">
        <ele>322.18000000000001</ele>
        <time>2024-09-11T12:16:59Z</time>
      </trkpt>
      <trkpt lat="50.729572959244251" lon="9.747752984985709">
        <ele>322.66000000000003</ele>
        <time>2024-09-11T12:17:07Z</time>
      </trkpt>
      <trkpt lat="50.729538006708026" lon="9.74764795973897">
        <ele>323.13999999999999</ele>
        <time>2024-09-11T12:17:08Z</time>
      </trkpt>
      <trkpt lat="50.729499030858278" lon="9.747533965855837">
        <ele>323.13999999999999</ele>
        <time>2024-09-11T12:17:09Z</time>
      </trkpt>
      <trkpt lat="50.729530965909362" lon="9.747449979186058">
        <ele>323.13999999999999</ele>
        <time>2024-09-11T12:17:10Z</time>
      </trkpt>
      <trkpt lat="50.729563990607858" lon="9.747361969202757">
        <ele>323.62</ele>
        <time>2024-09-11T12:17:11Z</time>
      </trkpt>
      <trkpt lat="50.729643031954765" lon="9.747288962826133">
        <ele>323.62</ele>
        <time>2024-09-11T12:17:12Z</time>
      </trkpt>
      <trkpt lat="50.72971997782588" lon="9.74721604026854">
        <ele>323.13999999999999</ele>
        <time>2024-09-11T12:17:13Z</time>
      </trkpt>
      <trkpt lat="50.729794995859265" lon="9.747145967558026">
        <ele>322.66000000000003</ele>
        <time>2024-09-11T12:17:14Z</time>
      </trkpt>
      <trkpt lat="50.729860039427876" lon="9.747085031121969">
        <ele>322.18000000000001</ele>
        <time>2024-09-11T12:17:15Z</time>
      </trkpt>
      <trkpt lat="50.729886023327708" lon="9.747061980888248">
        <ele>321.22000000000003</ele>
        <time>2024-09-11T12:17:16Z</time>
      </trkpt>
      <trkpt lat="50.729886023327708" lon="9.747061980888248">
        <ele>320.74000000000001</ele>
        <time>2024-09-11T12:17:17Z</time>
      </trkpt>
      <trkpt lat="50.730045028030872" lon="9.746972965076566">
        <ele>320.25999999999999</ele>
        <time>2024-09-11T12:17:18Z</time>
      </trkpt>
      <trkpt lat="50.730094984173775" lon="9.747035996988416">
        <ele>319.77999999999997</ele>
        <time>2024-09-11T12:17:19Z</time>
      </trkpt>
      <trkpt lat="50.730159021914005" lon="9.747115960344672">
        <ele>318.81</ele>
        <time>2024-09-11T12:17:20Z</time>
      </trkpt>
      <trkpt lat="50.730237979441881" lon="9.747216962277889">
        <ele>318.32999999999998</ele>
        <time>2024-09-11T12:17:21Z</time>
      </trkpt>
      <trkpt lat="50.730325989425182" lon="9.747327016666532">
        <ele>317.85000000000002</ele>
        <time>2024-09-11T12:17:22Z</time>
      </trkpt>
      <trkpt lat="50.730435037985444" lon="9.747417038306594">
        <ele>317.37</ele>
        <time>2024-09-11T12:17:23Z</time>
      </trkpt>
      <trkpt lat="50.730554983019829" lon="9.747508987784386">
        <ele>316.41000000000003</ele>
        <time>2024-09-11T12:17:24Z</time>
      </trkpt>
      <trkpt lat="50.730680963024497" lon="9.747606972232461">
        <ele>315.44999999999999</ele>
        <time>2024-09-11T12:17:25Z</time>
      </trkpt>
      <trkpt lat="50.73160900734365" lon="9.748223964124918">
        <ele>310.63999999999999</ele>
        <time>2024-09-11T12:17:31Z</time>
      </trkpt>
      <trkpt lat="50.731790978461504" lon="9.748245002701879">
        <ele>309.68000000000001</ele>
        <time>2024-09-11T12:17:32Z</time>
      </trkpt>
      <trkpt lat="50.731974961236119" lon="9.748252965509892">
        <ele>309.19999999999999</ele>
        <time>2024-09-11T12:17:33Z</time>
      </trkpt>
      <trkpt lat="50.732157016173005" lon="9.748189011588693">
        <ele>309.19999999999999</ele>
        <time>2024-09-11T12:17:34Z</time>
      </trkpt>
      <trkpt lat="50.732345022261143" lon="9.748123968020082">
        <ele>309.68000000000001</ele>
        <time>2024-09-11T12:17:35Z</time>
      </trkpt>
      <trkpt lat="50.733997011557221" lon="9.74743296392262">
        <ele>316.41000000000003</ele>
        <time>2024-09-11T12:17:44Z</time>
      </trkpt>
      <trkpt lat="50.734744006767869" lon="9.746825024485588">
        <ele>321.22000000000003</ele>
        <time>2024-09-11T12:17:49Z</time>
      </trkpt>
      <trkpt lat="50.734905023127794" lon="9.746741959825158">
        <ele>322.18000000000001</ele>
        <time>2024-09-11T12:17:50Z</time>
      </trkpt>
      <trkpt lat="50.735082970932126" lon="9.746700972318649">
        <ele>323.13999999999999</ele>
        <time>2024-09-11T12:17:51Z</time>
      </trkpt>
      <trkpt lat="50.735278017818928" lon="9.746741037815809">
        <ele>324.10000000000002</ele>
        <time>2024-09-11T12:17:52Z</time>
      </trkpt>
      <trkpt lat="50.735483039170504" lon="9.746807003393769">
        <ele>325.06</ele>
        <time>2024-09-11T12:17:53Z</time>
      </trkpt>
      <trkpt lat="50.735697029158473" lon="9.746883027255535">
        <ele>326.01999999999998</ele>
        <time>2024-09-11T12:17:54Z</time>
      </trkpt>
      <trkpt lat="50.737611958757043" lon="9.747419971972704">
        <ele>330.35000000000002</ele>
        <time>2024-09-11T12:18:02Z</time>
      </trkpt>
      <trkpt lat="50.739766024053097" lon="9.74790696054697">
        <ele>329.87</ele>
        <time>2024-09-11T12:18:11Z</time>
      </trkpt>
      <trkpt lat="50.740174977108836" lon="9.748049033805728">
        <ele>329.87</ele>
        <time>2024-09-11T12:18:13Z</time>
      </trkpt>
      <trkpt lat="50.740364994853735" lon="9.748089015483856">
        <ele>329.87</ele>
        <time>2024-09-11T12:18:14Z</time>
      </trkpt>
      <trkpt lat="50.740553000941873" lon="9.748048027977347">
        <ele>330.35000000000002</ele>
        <time>2024-09-11T12:18:15Z</time>
      </trkpt>
      <trkpt lat="50.740746958181262" lon="9.747992036864162">
        <ele>330.35000000000002</ele>
        <time>2024-09-11T12:18:16Z</time>
      </trkpt>
      <trkpt lat="50.740936975926161" lon="9.747880976647139">
        <ele>330.35000000000002</ele>
        <time>2024-09-11T12:18:17Z</time>
      </trkpt>
      <trkpt lat="50.74166402220726" lon="9.747502030804753">
        <ele>331.79000000000002</ele>
        <time>2024-09-11T12:18:21Z</time>
      </trkpt>
      <trkpt lat="50.741810034960508" lon="9.747548969462514">
        <ele>331.79000000000002</ele>
        <time>2024-09-11T12:18:22Z</time>
      </trkpt>
      <trkpt lat="50.741967028006911" lon="9.747637985274196">
        <ele>332.75</ele>
        <time>2024-09-11T12:18:23Z</time>
      </trkpt>
      <trkpt lat="50.742138018831611" lon="9.747735969722271">
        <ele>333.23000000000002</ele>
        <time>2024-09-11T12:18:24Z</time>
      </trkpt>
      <trkpt lat="50.742323007434607" lon="9.747842000797391">
        <ele>333.70999999999998</ele>
        <time>2024-09-11T12:18:25Z</time>
      </trkpt>
      <trkpt lat="50.743604013696313" lon="9.748358996585012">
        <ele>338.51999999999998</ele>
        <time>2024-09-11T12:18:31Z</time>
      </trkpt>
      <trkpt lat="50.744955008849502" lon="9.748496962711215">
        <ele>342.37</ele>
        <time>2024-09-11T12:18:37Z</time>
      </trkpt>
      <trkpt lat="50.745823038741946" lon="9.748465027660132">
        <ele>344.29000000000002</ele>
        <time>2024-09-11T12:18:41Z</time>
      </trkpt>
      <trkpt lat="50.7460050098598" lon="9.748566029593349">
        <ele>345.25</ele>
        <time>2024-09-11T12:18:42Z</time>
      </trkpt>
      <trkpt lat="50.746187986806035" lon="9.748667031526566">
        <ele>345.73000000000002</ele>
        <time>2024-09-11T12:18:43Z</time>
      </trkpt>
      <trkpt lat="50.74669199064374" lon="9.748901976272464">
        <ele>348.13</ele>
        <time>2024-09-11T12:18:46Z</time>
      </trkpt>
      <trkpt lat="50.746830040588975" lon="9.748889990150929">
        <ele>348.62</ele>
        <time>2024-09-11T12:18:47Z</time>
      </trkpt>
      <trkpt lat="50.746951997280121" lon="9.748880015686154">
        <ele>348.62</ele>
        <time>2024-09-11T12:18:48Z</time>
      </trkpt>
      <trkpt lat="50.747491037473083" lon="9.748879009857774">
        <ele>349.57999999999998</ele>
        <time>2024-09-11T12:18:54Z</time>
      </trkpt>
      <trkpt lat="50.747549962252378" lon="9.748900970444083">
        <ele>349.57999999999998</ele>
        <time>2024-09-11T12:18:55Z</time>
      </trkpt>
      <trkpt lat="50.747592961415648" lon="9.748932989314199">
        <ele>349.57999999999998</ele>
        <time>2024-09-11T12:18:56Z</time>
      </trkpt>
      <trkpt lat="50.747623974457383" lon="9.748964002355933">
        <ele>349.57999999999998</ele>
        <time>2024-09-11T12:18:57Z</time>
      </trkpt>
      <trkpt lat="50.747677031904459" lon="9.748965008184314">
        <ele>349.57999999999998</ele>
        <time>2024-09-11T12:18:58Z</time>
      </trkpt>
      <trkpt lat="50.747719025239348" lon="9.74891496822238">
        <ele>349.57999999999998</ele>
        <time>2024-09-11T12:18:59Z</time>
      </trkpt>
      <trkpt lat="50.747789014130831" lon="9.748841039836407">
        <ele>349.57999999999998</ele>
        <time>2024-09-11T12:19:00Z</time>
      </trkpt>
      <trkpt lat="50.747880963608623" lon="9.748813966289163">
        <ele>349.57999999999998</ele>
        <time>2024-09-11T12:19:01Z</time>
      </trkpt>
      <trkpt lat="50.747994035482407" lon="9.748796029016376">
        <ele>350.06</ele>
        <time>2024-09-11T12:19:02Z</time>
      </trkpt>
      <trkpt lat="50.748946974053979" lon="9.748735008761287">
        <ele>351.01999999999998</ele>
        <time>2024-09-11T12:19:08Z</time>
      </trkpt>
      <trkpt lat="50.749731017276645" lon="9.748641969636083">
        <ele>352.45999999999998</ele>
        <time>2024-09-11T12:19:12Z</time>
      </trkpt>
      <trkpt lat="50.749926986172795" lon="9.748564017936587">
        <ele>352.94</ele>
        <time>2024-09-11T12:19:13Z</time>
      </trkpt>
      <trkpt lat="50.750141981989145" lon="9.748478019610047">
        <ele>353.42000000000002</ele>
        <time>2024-09-11T12:19:14Z</time>
      </trkpt>
      <trkpt lat="50.750313978642225" lon="9.748324966058135">
        <ele>354.38</ele>
        <time>2024-09-11T12:19:15Z</time>
      </trkpt>
      <trkpt lat="50.750501984730363" lon="9.748159004375339">
        <ele>354.86000000000001</ele>
        <time>2024-09-11T12:19:16Z</time>
      </trkpt>
      <trkpt lat="50.750893000513315" lon="9.747812999412417">
        <ele>356.79000000000002</ele>
        <time>2024-09-11T12:19:18Z</time>
      </trkpt>
      <trkpt lat="50.751039013266563" lon="9.747614013031125">
        <ele>358.23000000000002</ele>
        <time>2024-09-11T12:19:19Z</time>
      </trkpt>
      <trkpt lat="50.752516994252801" lon="9.745605960488319">
        <ele>367.36000000000001</ele>
        <time>2024-09-11T12:19:28Z</time>
      </trkpt>
      <trkpt lat="50.752689996734262" lon="9.745452990755439">
        <ele>368.31999999999999</ele>
        <time>2024-09-11T12:19:29Z</time>
      </trkpt>
      <trkpt lat="50.752882026135921" lon="9.745320975780487">
        <ele>369.27999999999997</ele>
        <time>2024-09-11T12:19:30Z</time>
      </trkpt>
      <trkpt lat="50.753077995032072" lon="9.745186027139425">
        <ele>369.75999999999999</ele>
        <time>2024-09-11T12:19:31Z</time>
      </trkpt>
      <trkpt lat="50.753272958099842" lon="9.745075972750783">
        <ele>370.73000000000002</ele>
        <time>2024-09-11T12:19:32Z</time>
      </trkpt>
      <trkpt lat="50.754463020712137" lon="9.744626032188535">
        <ele>376.49000000000001</ele>
        <time>2024-09-11T12:19:39Z</time>
      </trkpt>
      <trkpt lat="50.755113959312439" lon="9.744485970586538">
        <ele>376.49000000000001</ele>
        <time>2024-09-11T12:19:46Z</time>
      </trkpt>
      <trkpt lat="50.755789959803224" lon="9.744381029158831">
        <ele>374.56999999999999</ele>
        <time>2024-09-11T12:19:54Z</time>
      </trkpt>
      <trkpt lat="50.755891967564821" lon="9.744343981146812">
        <ele>374.56999999999999</ele>
        <time>2024-09-11T12:19:55Z</time>
      </trkpt>
      <trkpt lat="50.755989030003548" lon="9.744267035275698">
        <ele>374.56999999999999</ele>
        <time>2024-09-11T12:19:56Z</time>
      </trkpt>
      <trkpt lat="50.756085002794862" lon="9.744179025292397">
        <ele>374.56999999999999</ele>
        <time>2024-09-11T12:19:57Z</time>
      </trkpt>
      <trkpt lat="50.756417009979486" lon="9.743873002007604">
        <ele>375.52999999999997</ele>
        <time>2024-09-11T12:20:01Z</time>
      </trkpt>
      <trkpt lat="50.756485993042588" lon="9.743831008672714">
        <ele>375.52999999999997</ele>
        <time>2024-09-11T12:20:02Z</time>
      </trkpt>
      <trkpt lat="50.756538966670632" lon="9.74386596120894">
        <ele>376.00999999999999</ele>
        <time>2024-09-11T12:20:03Z</time>
      </trkpt>
      <trkpt lat="50.756599986925721" lon="9.743908038362861">
        <ele>376.49000000000001</ele>
        <time>2024-09-11T12:20:04Z</time>
      </trkpt>
      <trkpt lat="50.756651032716036" lon="9.743986995890737">
        <ele>376.97000000000003</ele>
        <time>2024-09-11T12:20:05Z</time>
      </trkpt>
      <trkpt lat="50.756712974980474" lon="9.744083974510431">
        <ele>376.97000000000003</ele>
        <time>2024-09-11T12:20:06Z</time>
      </trkpt>
      <trkpt lat="50.756822023540735" lon="9.744255971163511">
        <ele>376.49000000000001</ele>
        <time>2024-09-11T12:20:08Z</time>
      </trkpt>
      <trkpt lat="50.75685597024858" lon="9.744309028610587">
        <ele>376.00999999999999</ele>
        <time>2024-09-11T12:20:09Z</time>
      </trkpt>
      <trkpt lat="50.756884971633554" lon="9.744428973644972">
        <ele>376.00999999999999</ele>
        <time>2024-09-11T12:20:10Z</time>
      </trkpt>
      <trkpt lat="50.756877008825541" lon="9.744454035535455">
        <ele>376.00999999999999</ele>
        <time>2024-09-11T12:20:11Z</time>
      </trkpt>
      <trkpt lat="50.756860999390483" lon="9.744504997506738">
        <ele>375.52999999999997</ele>
        <time>2024-09-11T12:20:15Z</time>
      </trkpt>
      <trkpt lat="50.756836021319032" lon="9.744585966691375">
        <ele>375.05000000000001</ele>
        <time>2024-09-11T12:20:16Z</time>
      </trkpt>
      <trkpt lat="50.756799979135394" lon="9.744699038565159">
        <ele>375.05000000000001</ele>
        <time>2024-09-11T12:20:17Z</time>
      </trkpt>
      <trkpt lat="50.756757985800505" lon="9.744830969721079">
        <ele>374.56999999999999</ele>
        <time>2024-09-11T12:20:18Z</time>
      </trkpt>
      <trkpt lat="50.756711969152093" lon="9.744975976645947">
        <ele>374.56999999999999</ele>
        <time>2024-09-11T12:20:19Z</time>
      </trkpt>
      <trkpt lat="50.756664024665952" lon="9.745128024369478">
        <ele>374.56999999999999</ele>
        <time>2024-09-11T12:20:20Z</time>
      </trkpt>
      <trkpt lat="50.756464032456279" lon="9.746066965162754">
        <ele>373.13</ele>
        <time>2024-09-11T12:20:26Z</time>
      </trkpt>
      <trkpt lat="50.756411980837584" lon="9.746841033920646">
        <ele>369.75999999999999</ele>
        <time>2024-09-11T12:20:31Z</time>
      </trkpt>
      <trkpt lat="50.756366970017552" lon="9.747952977195382">
        <ele>362.55000000000001</ele>
        <time>2024-09-11T12:20:39Z</time>
      </trkpt>
      <trkpt lat="50.756364958360791" lon="9.748021038249135">
        <ele>359.67000000000002</ele>
        <time>2024-09-11T12:20:47Z</time>
      </trkpt>
      <trkpt lat="50.756364958360791" lon="9.748021038249135">
        <ele>359.67000000000002</ele>
        <time>2024-09-11T12:21:03Z</time>
      </trkpt>
      <trkpt lat="50.756376022472978" lon="9.747631028294563">
        <ele>357.26999999999998</ele>
        <time>2024-09-11T12:21:10Z</time>
      </trkpt>
      <trkpt lat="50.756383985280991" lon="9.747379990294576">
        <ele>356.79000000000002</ele>
        <time>2024-09-11T12:21:14Z</time>
      </trkpt>
      <trkpt lat="50.756436958909035" lon="9.747360963374376">
        <ele>356.79000000000002</ele>
        <time>2024-09-11T12:21:15Z</time>
      </trkpt>
      <trkpt lat="50.75646897777915" lon="9.74738703109324">
        <ele>356.79000000000002</ele>
        <time>2024-09-11T12:21:16Z</time>
      </trkpt>
      <trkpt lat="50.756508037447929" lon="9.747418966144323">
        <ele>356.79000000000002</ele>
        <time>2024-09-11T12:21:17Z</time>
      </trkpt>
      <trkpt lat="50.756543995812535" lon="9.747448973357678">
        <ele>356.31</ele>
        <time>2024-09-11T12:21:18Z</time>
      </trkpt>
      <trkpt lat="50.756572997197509" lon="9.747472023591399">
        <ele>356.31</ele>
        <time>2024-09-11T12:21:19Z</time>
      </trkpt>
      <trkpt lat="50.756572997197509" lon="9.747472023591399">
        <ele>356.31</ele>
        <time>2024-09-11T12:21:29Z</time>
      </trkpt>
      <trkpt lat="50.756834009662271" lon="9.747686013579369">
        <ele>356.31</ele>
        <time>2024-09-11T12:21:37Z</time>
      </trkpt>
      <trkpt lat="50.757689969614148" lon="9.748440971598029">
        <ele>362.06999999999999</ele>
        <time>2024-09-11T12:21:45Z</time>
      </trkpt>
      <trkpt lat="50.759273981675506" lon="9.749895986169577">
        <ele>365.92000000000002</ele>
        <time>2024-09-11T12:21:58Z</time>
      </trkpt>
      <trkpt lat="50.760750034824014" lon="9.751267014071345">
        <ele>360.63</ele>
        <time>2024-09-11T12:22:08Z</time>
      </trkpt>
      <trkpt lat="50.761760976165533" lon="9.752439977601171">
        <ele>356.79000000000002</ele>
        <time>2024-09-11T12:22:17Z</time>
      </trkpt>
      <trkpt lat="50.762031963095069" lon="9.752812972292304">
        <ele>355.82999999999998</ele>
        <time>2024-09-11T12:22:22Z</time>
      </trkpt>
      <trkpt lat="50.762093989178538" lon="9.752897964790463">
        <ele>355.82999999999998</ele>
        <time>2024-09-11T12:22:24Z</time>
      </trkpt>
      <trkpt lat="50.762078985571861" lon="9.752977006137371">
        <ele>355.82999999999998</ele>
        <time>2024-09-11T12:22:25Z</time>
      </trkpt>
      <trkpt lat="50.762063981965184" lon="9.753056969493628">
        <ele>355.82999999999998</ele>
        <time>2024-09-11T12:22:26Z</time>
      </trkpt>
      <trkpt lat="50.761943031102419" lon="9.75411300547421">
        <ele>357.75</ele>
        <time>2024-09-11T12:22:33Z</time>
      </trkpt>
      <trkpt lat="50.761800035834312" lon="9.755519991740584">
        <ele>362.06999999999999</ele>
        <time>2024-09-11T12:22:39Z</time>
      </trkpt>
      <trkpt lat="50.761256972327828" lon="9.7575309779495">
        <ele>366.39999999999998</ele>
        <time>2024-09-11T12:22:47Z</time>
      </trkpt>
      <trkpt lat="50.761179020628333" lon="9.757986031472683">
        <ele>366.88</ele>
        <time>2024-09-11T12:22:49Z</time>
      </trkpt>
      <trkpt lat="50.761105008423328" lon="9.758856995031238">
        <ele>367.36000000000001</ele>
        <time>2024-09-11T12:22:53Z</time>
      </trkpt>
      <trkpt lat="50.761093022301793" lon="9.760059965774417">
        <ele>368.31999999999999</ele>
        <time>2024-09-11T12:22:58Z</time>
      </trkpt>
      <trkpt lat="50.761091010645032" lon="9.760316032916307">
        <ele>367.83999999999997</ele>
        <time>2024-09-11T12:22:59Z</time>
      </trkpt>
      <trkpt lat="50.761085981503129" lon="9.760787012055516">
        <ele>367.36000000000001</ele>
        <time>2024-09-11T12:23:01Z</time>
      </trkpt>
      <trkpt lat="50.761083969846368" lon="9.761007037013769">
        <ele>366.88</ele>
        <time>2024-09-11T12:23:02Z</time>
      </trkpt>
      <trkpt lat="50.761081036180258" lon="9.761234018951654">
        <ele>366.39999999999998</ele>
        <time>2024-09-11T12:23:03Z</time>
      </trkpt>
      <trkpt lat="50.761077012866735" lon="9.761689994484186">
        <ele>365.92000000000002</ele>
        <time>2024-09-11T12:23:05Z</time>
      </trkpt>
      <trkpt lat="50.761073995381594" lon="9.761920999735594">
        <ele>365.44</ele>
        <time>2024-09-11T12:23:06Z</time>
      </trkpt>
      <trkpt lat="50.761016998440027" lon="9.763428987935185">
        <ele>363.04000000000002</ele>
        <time>2024-09-11T12:23:13Z</time>
      </trkpt>
      <trkpt lat="50.760811977088451" lon="9.764935970306397">
        <ele>357.75</ele>
        <time>2024-09-11T12:23:20Z</time>
      </trkpt>
      <trkpt lat="50.760794961825013" lon="9.765047030523419">
        <ele>357.26999999999998</ele>
        <time>2024-09-11T12:23:21Z</time>
      </trkpt>
      <trkpt lat="50.760780964046717" lon="9.765135040506721">
        <ele>356.31</ele>
        <time>2024-09-11T12:23:22Z</time>
      </trkpt>
      <trkpt lat="50.760653978213668" lon="9.765925034880638">
        <ele>351.01999999999998</ele>
        <time>2024-09-11T12:23:29Z</time>
      </trkpt>
      <trkpt lat="50.76037704013288" lon="9.767661010846496">
        <ele>339</ele>
        <time>2024-09-11T12:23:38Z</time>
      </trkpt>
      <trkpt lat="50.76029104180634" lon="9.767853962257505">
        <ele>337.56</ele>
        <time>2024-09-11T12:23:39Z</time>
      </trkpt>
      <trkpt lat="50.760369999334216" lon="9.768113968893886">
        <ele>335.63999999999999</ele>
        <time>2024-09-11T12:23:41Z</time>
      </trkpt>
      <trkpt lat="50.760417021811008" lon="9.76827003993094">
        <ele>334.68000000000001</ele>
        <time>2024-09-11T12:23:42Z</time>
      </trkpt>
      <trkpt lat="50.760474018752575" lon="9.768456034362316">
        <ele>333.70999999999998</ele>
        <time>2024-09-11T12:23:43Z</time>
      </trkpt>
      <trkpt lat="50.760732013732195" lon="9.76936798542738">
        <ele>330.82999999999998</ele>
        <time>2024-09-11T12:23:47Z</time>
      </trkpt>
      <trkpt lat="50.760759003460407" lon="9.769596979022026">
        <ele>329.87</ele>
        <time>2024-09-11T12:23:48Z</time>
      </trkpt>
      <trkpt lat="50.760804014280438" lon="9.769982965663075">
        <ele>327.94999999999999</ele>
        <time>2024-09-11T12:23:50Z</time>
      </trkpt>
      <trkpt lat="50.760837960988283" lon="9.770137025043368">
        <ele>326.99000000000001</ele>
        <time>2024-09-11T12:23:51Z</time>
      </trkpt>
      <trkpt lat="50.760876014828682" lon="9.770306004211307">
        <ele>325.54000000000002</ele>
        <time>2024-09-11T12:23:52Z</time>
      </trkpt>
      <trkpt lat="50.761024039238691" lon="9.770945962518454">
        <ele>322.18000000000001</ele>
        <time>2024-09-11T12:23:55Z</time>
      </trkpt>
      <trkpt lat="50.761075001209974" lon="9.771169004961848">
        <ele>321.22000000000003</ele>
        <time>2024-09-11T12:23:56Z</time>
      </trkpt>
      <trkpt lat="50.761123029515147" lon="9.771378971636295">
        <ele>320.25999999999999</ele>
        <time>2024-09-11T12:23:57Z</time>
      </trkpt>
      <trkpt lat="50.761513961479068" lon="9.773081000894308">
        <ele>311.60000000000002</ele>
        <time>2024-09-11T12:24:06Z</time>
      </trkpt>
      <trkpt lat="50.761871030554175" lon="9.774247007444501">
        <ele>305.83999999999997</ele>
        <time>2024-09-11T12:24:14Z</time>
      </trkpt>
      <trkpt lat="50.761978989467025" lon="9.77454699575901">
        <ele>304.38999999999999</ele>
        <time>2024-09-11T12:24:16Z</time>
      </trkpt>
      <trkpt lat="50.76203104108572" lon="9.774688985198736">
        <ele>303.91000000000003</ele>
        <time>2024-09-11T12:24:17Z</time>
      </trkpt>
      <trkpt lat="50.762061970308423" lon="9.774817982688546">
        <ele>303.43000000000001</ele>
        <time>2024-09-11T12:24:18Z</time>
      </trkpt>
      <trkpt lat="50.762158026918769" lon="9.775480991229415">
        <ele>301.02999999999997</ele>
        <time>2024-09-11T12:24:23Z</time>
      </trkpt>
      <trkpt lat="50.762175964191556" lon="9.775606971234083">
        <ele>300.55000000000001</ele>
        <time>2024-09-11T12:24:24Z</time>
      </trkpt>
      <trkpt lat="50.762293981388211" lon="9.77613503113389">
        <ele>299.58999999999997</ele>
        <time>2024-09-11T12:24:30Z</time>
      </trkpt>
      <trkpt lat="50.762345027178526" lon="9.77619999088347">
        <ele>299.11000000000001</ele>
        <time>2024-09-11T12:24:31Z</time>
      </trkpt>
      <trkpt lat="50.76250403188169" lon="9.776416998356581">
        <ele>298.63</ele>
        <time>2024-09-11T12:24:33Z</time>
      </trkpt>
      <trkpt lat="50.762522974982858" lon="9.776553958654404">
        <ele>298.63</ele>
        <time>2024-09-11T12:24:34Z</time>
      </trkpt>
      <trkpt lat="50.762544013559818" lon="9.776700977236033">
        <ele>298.14999999999998</ele>
        <time>2024-09-11T12:24:35Z</time>
      </trkpt>
      <trkpt lat="50.762673011049628" lon="9.777815015986562">
        <ele>296.69999999999999</ele>
        <time>2024-09-11T12:24:43Z</time>
      </trkpt>
      <trkpt lat="50.762665970250964" lon="9.777989024296403">
        <ele>296.22000000000003</ele>
        <time>2024-09-11T12:24:44Z</time>
      </trkpt>
      <trkpt lat="50.762630011886358" lon="9.778126990422607">
        <ele>296.22000000000003</ele>
        <time>2024-09-11T12:24:45Z</time>
      </trkpt>
      <trkpt lat="50.76259296387434" lon="9.778270991519094">
        <ele>296.22000000000003</ele>
        <time>2024-09-11T12:24:46Z</time>
      </trkpt>
      <trkpt lat="50.762554993852973" lon="9.778414992615581">
        <ele>296.22000000000003</ele>
        <time>2024-09-11T12:24:47Z</time>
      </trkpt>
      <trkpt lat="50.762522974982858" lon="9.778540972620249">
        <ele>296.22000000000003</ele>
        <time>2024-09-11T12:24:48Z</time>
      </trkpt>
      <trkpt lat="50.762505037710071" lon="9.778680028393865">
        <ele>296.22000000000003</ele>
        <time>2024-09-11T12:24:49Z</time>
      </trkpt>
      <trkpt lat="50.762528004124761" lon="9.778792010620236">
        <ele>296.69999999999999</ele>
        <time>2024-09-11T12:24:50Z</time>
      </trkpt>
      <trkpt lat="50.762571003288031" lon="9.778920002281666">
        <ele>296.69999999999999</ele>
        <time>2024-09-11T12:24:51Z</time>
      </trkpt>
      <trkpt lat="50.762616014108062" lon="9.779055034741759">
        <ele>296.69999999999999</ele>
        <time>2024-09-11T12:24:52Z</time>
      </trkpt>
      <trkpt lat="50.762661024928093" lon="9.779191995039582">
        <ele>296.69999999999999</ele>
        <time>2024-09-11T12:24:53Z</time>
      </trkpt>
      <trkpt lat="50.762693965807557" lon="9.779290985316038">
        <ele>296.69999999999999</ele>
        <time>2024-09-11T12:24:54Z</time>
      </trkpt>
      <trkpt lat="50.762754986062646" lon="9.7794000338763">
        <ele>296.69999999999999</ele>
        <time>2024-09-11T12:24:55Z</time>
      </trkpt>
      <trkpt lat="50.762798991054296" lon="9.779478991404176">
        <ele>296.22000000000003</ele>
        <time>2024-09-11T12:24:56Z</time>
      </trkpt>
      <trkpt lat="50.762836961075664" lon="9.779547974467278">
        <ele>296.22000000000003</ele>
        <time>2024-09-11T12:24:57Z</time>
      </trkpt>
      <trkpt lat="50.762865962460637" lon="9.779600026085973">
        <ele>296.22000000000003</ele>
        <time>2024-09-11T12:24:58Z</time>
      </trkpt>
      <trkpt lat="50.762884989380836" lon="9.779633972793818">
        <ele>296.22000000000003</ele>
        <time>2024-09-11T12:24:59Z</time>
      </trkpt>
      <trkpt lat="50.762900998815894" lon="9.779662974178791">
        <ele>295.74000000000001</ele>
        <time>2024-09-11T12:25:00Z</time>
      </trkpt>
      <trkpt lat="50.762951960787177" lon="9.779548980295658">
        <ele>295.74000000000001</ele>
        <time>2024-09-11T12:25:01Z</time>
      </trkpt>
      <trkpt lat="50.762940980494022" lon="9.779582004994154">
        <ele>295.74000000000001</ele>
        <time>2024-09-11T12:25:02Z</time>
      </trkpt>
      <trkpt lat="50.762978028506041" lon="9.779471028596163">
        <ele>296.22000000000003</ele>
        <time>2024-09-11T12:25:03Z</time>
      </trkpt>
      <trkpt lat="50.763017004355788" lon="9.779356028884649">
        <ele>295.74000000000001</ele>
        <time>2024-09-11T12:25:04Z</time>
      </trkpt>
      <trkpt lat="50.763058997690678" lon="9.779232982546091">
        <ele>294.77999999999997</ele>
        <time>2024-09-11T12:25:05Z</time>
      </trkpt>
      <trkpt lat="50.763523019850254" lon="9.777872012928128">
        <ele>291.42000000000002</ele>
        <time>2024-09-11T12:25:14Z</time>
      </trkpt>
      <trkpt lat="50.763872964307666" lon="9.776964001357555">
        <ele>287.56999999999999</ele>
        <time>2024-09-11T12:25:20Z</time>
      </trkpt>
      <trkpt lat="50.763932978734374" lon="9.776809019967914">
        <ele>287.08999999999997</ele>
        <time>2024-09-11T12:25:21Z</time>
      </trkpt>
      <trkpt lat="50.764487022534013" lon="9.775711996480823">
        <ele>283.73000000000002</ele>
        <time>2024-09-11T12:25:27Z</time>
      </trkpt>
      <trkpt lat="50.764967976137996" lon="9.775188965722919">
        <ele>282.76999999999998</ele>
        <time>2024-09-11T12:25:30Z</time>
      </trkpt>
      <trkpt lat="50.765156988054514" lon="9.77506197988987">
        <ele>283.25</ele>
        <time>2024-09-11T12:25:31Z</time>
      </trkpt>
      <trkpt lat="50.766828004270792" lon="9.774002004414797">
        <ele>285.64999999999998</ele>
        <time>2024-09-11T12:25:39Z</time>
      </trkpt>
      <trkpt lat="50.76787699945271" lon="9.773089969530702">
        <ele>285.64999999999998</ele>
        <time>2024-09-11T12:25:45Z</time>
      </trkpt>
      <trkpt lat="50.768770007416606" lon="9.772647991776466">
        <ele>284.69</ele>
        <time>2024-09-11T12:25:50Z</time>
      </trkpt>
      <trkpt lat="50.768956001847982" lon="9.772634999826551">
        <ele>284.69</ele>
        <time>2024-09-11T12:25:51Z</time>
      </trkpt>
      <trkpt lat="50.77073497697711" lon="9.772503990679979">
        <ele>282.27999999999997</ele>
        <time>2024-09-11T12:26:00Z</time>
      </trkpt>
      <trkpt lat="50.772266015410423" lon="9.772023037075996">
        <ele>276.04000000000002</ele>
        <time>2024-09-11T12:26:07Z</time>
      </trkpt>
      <trkpt lat="50.773125998675823" lon="9.771738974377513">
        <ele>272.67000000000002</ele>
        <time>2024-09-11T12:26:11Z</time>
      </trkpt>
      <trkpt lat="50.773349963128567" lon="9.771721959114075">
        <ele>272.19</ele>
        <time>2024-09-11T12:26:12Z</time>
      </trkpt>
      <trkpt lat="50.773573005571961" lon="9.771759007126093">
        <ele>271.23000000000002</ele>
        <time>2024-09-11T12:26:13Z</time>
      </trkpt>
      <trkpt lat="50.774883013218641" lon="9.771836958825588">
        <ele>267.86000000000001</ele>
        <time>2024-09-11T12:26:20Z</time>
      </trkpt>
      <trkpt lat="50.77505299821496" lon="9.771828996017575">
        <ele>267.86000000000001</ele>
        <time>2024-09-11T12:26:21Z</time>
      </trkpt>
      <trkpt lat="50.775209991261363" lon="9.771804017946124">
        <ele>267.86000000000001</ele>
        <time>2024-09-11T12:26:22Z</time>
      </trkpt>
      <trkpt lat="50.775366984307766" lon="9.771739980205894">
        <ele>267.86000000000001</ele>
        <time>2024-09-11T12:26:23Z</time>
      </trkpt>
      <trkpt lat="50.775519032031298" lon="9.771678037941456">
        <ele>267.86000000000001</ele>
        <time>2024-09-11T12:26:24Z</time>
      </trkpt>
      <trkpt lat="50.776412039995193" lon="9.770994996652007">
        <ele>267.86000000000001</ele>
        <time>2024-09-11T12:26:31Z</time>
      </trkpt>
      <trkpt lat="50.777281997725368" lon="9.769458007067442">
        <ele>264.5</ele>
        <time>2024-09-11T12:26:40Z</time>
      </trkpt>
      <trkpt lat="50.777654992416501" lon="9.768803967162967">
        <ele>262.10000000000002</ele>
        <time>2024-09-11T12:26:44Z</time>
      </trkpt>
      <trkpt lat="50.777768986299634" lon="9.768687039613724">
        <ele>261.62</ele>
        <time>2024-09-11T12:26:45Z</time>
      </trkpt>
      <trkpt lat="50.777883986011147" lon="9.768580002710223">
        <ele>261.13999999999999</ele>
        <time>2024-09-11T12:26:46Z</time>
      </trkpt>
      <trkpt lat="50.778007032349706" lon="9.768476989120245">
        <ele>261.13999999999999</ele>
        <time>2024-09-11T12:26:47Z</time>
      </trkpt>
      <trkpt lat="50.778136029839516" lon="9.768396019935608">
        <ele>261.13999999999999</ele>
        <time>2024-09-11T12:26:48Z</time>
      </trkpt>
      <trkpt lat="50.778281036764383" lon="9.768376993015409">
        <ele>261.13999999999999</ele>
        <time>2024-09-11T12:26:49Z</time>
      </trkpt>
      <trkpt lat="50.778423026204109" lon="9.768362995237112">
        <ele>261.13999999999999</ele>
        <time>2024-09-11T12:26:50Z</time>
      </trkpt>
      <trkpt lat="50.778572978451848" lon="9.768347991630435">
        <ele>261.13999999999999</ele>
        <time>2024-09-11T12:26:51Z</time>
      </trkpt>
      <trkpt lat="50.778703987598419" lon="9.768361989408732">
        <ele>261.13999999999999</ele>
        <time>2024-09-11T12:26:52Z</time>
      </trkpt>
      <trkpt lat="50.779861025512218" lon="9.768584026023746">
        <ele>260.64999999999998</ele>
        <time>2024-09-11T12:27:01Z</time>
      </trkpt>
      <trkpt lat="50.779956998303533" lon="9.768668012693524">
        <ele>261.13999999999999</ele>
        <time>2024-09-11T12:27:02Z</time>
      </trkpt>
      <trkpt lat="50.780268972739577" lon="9.768919972702861">
        <ele>261.13999999999999</ele>
        <time>2024-09-11T12:27:05Z</time>
      </trkpt>
      <trkpt lat="50.780376009643078" lon="9.768979987129569">
        <ele>261.13999999999999</ele>
        <time>2024-09-11T12:27:06Z</time>
      </trkpt>
      <trkpt lat="50.780485980212688" lon="9.769041007384658">
        <ele>261.13999999999999</ele>
        <time>2024-09-11T12:27:07Z</time>
      </trkpt>
      <trkpt lat="50.780589999631047" lon="9.769099010154605">
        <ele>261.13999999999999</ele>
        <time>2024-09-11T12:27:08Z</time>
      </trkpt>
      <trkpt lat="50.780696030706167" lon="9.769099010154605">
        <ele>261.13999999999999</ele>
        <time>2024-09-11T12:27:09Z</time>
      </trkpt>
      <trkpt lat="50.780798960477114" lon="9.769085012376308">
        <ele>261.13999999999999</ele>
        <time>2024-09-11T12:27:10Z</time>
      </trkpt>
      <trkpt lat="50.780898034572601" lon="9.76904796436429">
        <ele>261.62</ele>
        <time>2024-09-11T12:27:11Z</time>
      </trkpt>
      <trkpt lat="50.78098202124238" lon="9.76900496520102">
        <ele>261.13999999999999</ele>
        <time>2024-09-11T12:27:12Z</time>
      </trkpt>
      <trkpt lat="50.781057961285114" lon="9.768955009058118">
        <ele>261.13999999999999</ele>
        <time>2024-09-11T12:27:13Z</time>
      </trkpt>
      <trkpt lat="50.781130967661738" lon="9.768888037651777">
        <ele>260.64999999999998</ele>
        <time>2024-09-11T12:27:14Z</time>
      </trkpt>
      <trkpt lat="50.781205985695124" lon="9.768819976598024">
        <ele>260.17000000000002</ele>
        <time>2024-09-11T12:27:15Z</time>
      </trkpt>
      <trkpt lat="50.781287038698792" lon="9.76872400380671">
        <ele>260.17000000000002</ele>
        <time>2024-09-11T12:27:16Z</time>
      </trkpt>
      <trkpt lat="50.781327020376921" lon="9.768599029630423">
        <ele>260.17000000000002</ele>
        <time>2024-09-11T12:27:17Z</time>
      </trkpt>
      <trkpt lat="50.781363984569907" lon="9.768481012433767">
        <ele>260.17000000000002</ele>
        <time>2024-09-11T12:27:18Z</time>
      </trkpt>
      <trkpt lat="50.781402038410306" lon="9.768361989408732">
        <ele>259.69</ele>
        <time>2024-09-11T12:27:19Z</time>
      </trkpt>
      <trkpt lat="50.781504968181252" lon="9.767920011654496">
        <ele>258.73000000000002</ele>
        <time>2024-09-11T12:27:22Z</time>
      </trkpt>
      <trkpt lat="50.781802022829652" lon="9.766687033697963">
        <ele>253.44</ele>
        <time>2024-09-11T12:27:30Z</time>
      </trkpt>
      <trkpt lat="50.781878968700767" lon="9.766383022069931">
        <ele>252</ele>
        <time>2024-09-11T12:27:32Z</time>
      </trkpt>
      <trkpt lat="50.781900007277727" lon="9.766211025416851">
        <ele>251.03999999999999</ele>
        <time>2024-09-11T12:27:33Z</time>
      </trkpt>
      <trkpt lat="50.78190797008574" lon="9.766029976308346">
        <ele>250.56</ele>
        <time>2024-09-11T12:27:34Z</time>
      </trkpt>
      <trkpt lat="50.781980976462364" lon="9.765163036063314">
        <ele>247.19999999999999</ele>
        <time>2024-09-11T12:27:38Z</time>
      </trkpt>
      <trkpt lat="50.782031016424298" lon="9.764932030811906">
        <ele>246.72</ele>
        <time>2024-09-11T12:27:39Z</time>
      </trkpt>
      <trkpt lat="50.782097987830639" lon="9.764697002246976">
        <ele>246.22999999999999</ele>
        <time>2024-09-11T12:27:40Z</time>
      </trkpt>
      <trkpt lat="50.782199995592237" lon="9.76444898173213">
        <ele>246.22999999999999</ele>
        <time>2024-09-11T12:27:41Z</time>
      </trkpt>
      <trkpt lat="50.78231499530375" lon="9.764214958995581">
        <ele>245.75</ele>
        <time>2024-09-11T12:27:42Z</time>
      </trkpt>
      <trkpt lat="50.782463019713759" lon="9.763993006199598">
        <ele>245.75</ele>
        <time>2024-09-11T12:27:43Z</time>
      </trkpt>
      <trkpt lat="50.782629987224936" lon="9.763806005939841">
        <ele>245.75</ele>
        <time>2024-09-11T12:27:44Z</time>
      </trkpt>
      <trkpt lat="50.782812964171171" lon="9.763607019558549">
        <ele>245.75</ele>
        <time>2024-09-11T12:27:45Z</time>
      </trkpt>
      <trkpt lat="50.783003987744451" lon="9.763413984328508">
        <ele>245.75</ele>
        <time>2024-09-11T12:27:46Z</time>
      </trkpt>
      <trkpt lat="50.783226024359465" lon="9.763277024030685">
        <ele>246.22999999999999</ele>
        <time>2024-09-11T12:27:47Z</time>
      </trkpt>
      <trkpt lat="50.7846350222826" lon="9.7626649774611">
        <ele>246.72</ele>
        <time>2024-09-11T12:27:53Z</time>
      </trkpt>
      <trkpt lat="50.786292040720582" lon="9.762688027694821">
        <ele>245.27000000000001</ele>
        <time>2024-09-11T12:28:00Z</time>
      </trkpt>
      <trkpt lat="50.786944990977645" lon="9.762486023828387">
        <ele>244.31</ele>
        <time>2024-09-11T12:28:03Z</time>
      </trkpt>
      <trkpt lat="50.787145989015698" lon="9.762373035773635">
        <ele>244.31</ele>
        <time>2024-09-11T12:28:04Z</time>
      </trkpt>
      <trkpt lat="50.787342041730881" lon="9.762200033292174">
        <ele>243.83000000000001</ele>
        <time>2024-09-11T12:28:05Z</time>
      </trkpt>
      <trkpt lat="50.787541028112173" lon="9.762003980576992">
        <ele>243.34999999999999</ele>
        <time>2024-09-11T12:28:06Z</time>
      </trkpt>
      <trkpt lat="50.78772702254355" lon="9.761751014739275">
        <ele>242.87</ele>
        <time>2024-09-11T12:28:07Z</time>
      </trkpt>
      <trkpt lat="50.787917962297797" lon="9.761491008102894">
        <ele>242.38999999999999</ele>
        <time>2024-09-11T12:28:08Z</time>
      </trkpt>
      <trkpt lat="50.788109991699457" lon="9.761227983981371">
        <ele>241.91</ele>
        <time>2024-09-11T12:28:09Z</time>
      </trkpt>
      <trkpt lat="50.789778996258974" lon="9.759158995002508">
        <ele>237.09999999999999</ele>
        <time>2024-09-11T12:28:17Z</time>
      </trkpt>
      <trkpt lat="50.791227975860238" lon="9.758548038080335">
        <ele>234.22</ele>
        <time>2024-09-11T12:28:23Z</time>
      </trkpt>
      <trkpt lat="50.793129997327924" lon="9.758164985105395">
        <ele>231.33000000000001</ele>
        <time>2024-09-11T12:28:31Z</time>
      </trkpt>
      <trkpt lat="50.793617991730571" lon="9.757963987067342">
        <ele>230.37</ele>
        <time>2024-09-11T12:28:33Z</time>
      </trkpt>
      <trkpt lat="50.793829970061779" lon="9.757812023162842">
        <ele>229.88999999999999</ele>
        <time>2024-09-11T12:28:34Z</time>
      </trkpt>
      <trkpt lat="50.794035997241735" lon="9.7575500048697">
        <ele>229.88999999999999</ele>
        <time>2024-09-11T12:28:35Z</time>
      </trkpt>
      <trkpt lat="50.794222997501493" lon="9.757312964648008">
        <ele>229.41</ele>
        <time>2024-09-11T12:28:36Z</time>
      </trkpt>
      <trkpt lat="50.794404968619347" lon="9.757067039608955">
        <ele>229.41</ele>
        <time>2024-09-11T12:28:37Z</time>
      </trkpt>
      <trkpt lat="50.794551987200975" lon="9.756765961647034">
        <ele>229.88999999999999</ele>
        <time>2024-09-11T12:28:38Z</time>
      </trkpt>
      <trkpt lat="50.794702023267746" lon="9.756457004696131">
        <ele>229.88999999999999</ele>
        <time>2024-09-11T12:28:39Z</time>
      </trkpt>
      <trkpt lat="50.794853987172246" lon="9.756145030260086">
        <ele>229.88999999999999</ele>
        <time>2024-09-11T12:28:40Z</time>
      </trkpt>
      <trkpt lat="50.795163027942181" lon="9.755528038367629">
        <ele>230.37</ele>
        <time>2024-09-11T12:28:42Z</time>
      </trkpt>
      <trkpt lat="50.795347010716796" lon="9.755290998145938">
        <ele>230.37</ele>
        <time>2024-09-11T12:28:43Z</time>
      </trkpt>
      <trkpt lat="50.79552898183465" lon="9.755056975409389">
        <ele>230.84999999999999</ele>
        <time>2024-09-11T12:28:44Z</time>
      </trkpt>
      <trkpt lat="50.795729979872704" lon="9.754862012341619">
        <ele>231.33000000000001</ele>
        <time>2024-09-11T12:28:45Z</time>
      </trkpt>
      <trkpt lat="50.795940030366182" lon="9.754686998203397">
        <ele>231.33000000000001</ele>
        <time>2024-09-11T12:28:46Z</time>
      </trkpt>
      <trkpt lat="50.796169023960829" lon="9.754561018198729">
        <ele>230.84999999999999</ele>
        <time>2024-09-11T12:28:47Z</time>
      </trkpt>
      <trkpt lat="50.796405980363488" lon="9.754474014043808">
        <ele>230.84999999999999</ele>
        <time>2024-09-11T12:28:48Z</time>
      </trkpt>
      <trkpt lat="50.79664696007967" lon="9.754438977688551">
        <ele>230.84999999999999</ele>
        <time>2024-09-11T12:28:49Z</time>
      </trkpt>
      <trkpt lat="50.796888023614883" lon="9.754405030980706">
        <ele>230.37</ele>
        <time>2024-09-11T12:28:50Z</time>
      </trkpt>
      <trkpt lat="50.797822019085288" lon="9.754201015457511">
        <ele>228.44999999999999</ele>
        <time>2024-09-11T12:28:54Z</time>
      </trkpt>
      <trkpt lat="50.79804397188127" lon="9.754118034616113">
        <ele>227.97</ele>
        <time>2024-09-11T12:28:55Z</time>
      </trkpt>
      <trkpt lat="50.798262991011143" lon="9.754035975784063">
        <ele>227.49000000000001</ele>
        <time>2024-09-11T12:28:56Z</time>
      </trkpt>
      <trkpt lat="50.79847102984786" lon="9.753915024921298">
        <ele>227.00999999999999</ele>
        <time>2024-09-11T12:28:57Z</time>
      </trkpt>
      <trkpt lat="50.798662975430489" lon="9.753753002732992">
        <ele>226.53</ele>
        <time>2024-09-11T12:28:58Z</time>
      </trkpt>
      <trkpt lat="50.798861961811781" lon="9.753585029393435">
        <ele>226.53</ele>
        <time>2024-09-11T12:28:59Z</time>
      </trkpt>
      <trkpt lat="50.800409009680152" lon="9.751996994018555">
        <ele>223.16</ele>
        <time>2024-09-11T12:29:07Z</time>
      </trkpt>
      <trkpt lat="50.801762016490102" lon="9.751141034066677">
        <ele>219.80000000000001</ele>
        <time>2024-09-11T12:29:14Z</time>
      </trkpt>
      <trkpt lat="50.803146958351135" lon="9.750265963375568">
        <ele>216.43000000000001</ele>
        <time>2024-09-11T12:29:22Z</time>
      </trkpt>
      <trkpt lat="50.804136022925377" lon="9.74908696487546">
        <ele>214.50999999999999</ele>
        <time>2024-09-11T12:29:29Z</time>
      </trkpt>
      <trkpt lat="50.804533995687962" lon="9.748619003221393">
        <ele>214.03</ele>
        <time>2024-09-11T12:29:32Z</time>
      </trkpt>
      <trkpt lat="50.804859967902303" lon="9.748395960777998">
        <ele>214.03</ele>
        <time>2024-09-11T12:29:34Z</time>
      </trkpt>
      <trkpt lat="50.805042022839189" lon="9.748315997421742">
        <ele>214.03</ele>
        <time>2024-09-11T12:29:35Z</time>
      </trkpt>
      <trkpt lat="50.80521896481514" lon="9.748261012136936">
        <ele>214.03</ele>
        <time>2024-09-11T12:29:36Z</time>
      </trkpt>
      <trkpt lat="50.805414011701941" lon="9.748253971338272">
        <ele>214.03</ele>
        <time>2024-09-11T12:29:37Z</time>
      </trkpt>
      <trkpt lat="50.805608974769711" lon="9.74824701435864">
        <ele>214.03</ele>
        <time>2024-09-11T12:29:38Z</time>
      </trkpt>
      <trkpt lat="50.806583035737276" lon="9.74807501770556">
        <ele>213.06999999999999</ele>
        <time>2024-09-11T12:29:43Z</time>
      </trkpt>
      <trkpt lat="50.806789984926581" lon="9.747984996065497">
        <ele>213.06999999999999</ele>
        <time>2024-09-11T12:29:44Z</time>
      </trkpt>
      <trkpt lat="50.807046974077821" lon="9.747770000249147">
        <ele>212.59</ele>
        <time>2024-09-11T12:29:46Z</time>
      </trkpt>
      <trkpt lat="50.807197010144591" lon="9.747555004432797">
        <ele>212.59</ele>
        <time>2024-09-11T12:29:47Z</time>
      </trkpt>
      <trkpt lat="50.807327013462782" lon="9.74736800417304">
        <ele>212.59</ele>
        <time>2024-09-11T12:29:48Z</time>
      </trkpt>
      <trkpt lat="50.807450981810689" lon="9.747128030285239">
        <ele>212.59</ele>
        <time>2024-09-11T12:29:49Z</time>
      </trkpt>
      <trkpt lat="50.807557012885809" lon="9.746866011992097">
        <ele>212.59</ele>
        <time>2024-09-11T12:29:50Z</time>
      </trkpt>
      <trkpt lat="50.807663965970278" lon="9.746599970385432">
        <ele>212.59</ele>
        <time>2024-09-11T12:29:51Z</time>
      </trkpt>
      <trkpt lat="50.807772008702159" lon="9.746333006769419">
        <ele>212.59</ele>
        <time>2024-09-11T12:29:52Z</time>
      </trkpt>
      <trkpt lat="50.807848032563925" lon="9.746039975434542">
        <ele>212.59</ele>
        <time>2024-09-11T12:29:53Z</time>
      </trkpt>
      <trkpt lat="50.807911986485124" lon="9.745747027918696">
        <ele>212.59</ele>
        <time>2024-09-11T12:29:54Z</time>
      </trkpt>
      <trkpt lat="50.808045007288456" lon="9.74513397552073">
        <ele>213.06999999999999</ele>
        <time>2024-09-11T12:29:56Z</time>
      </trkpt>
      <trkpt lat="50.808112984523177" lon="9.744823006913066">
        <ele>213.55000000000001</ele>
        <time>2024-09-11T12:29:57Z</time>
      </trkpt>
      <trkpt lat="50.808428982272744" lon="9.743267996236682">
        <ele>214.99000000000001</ele>
        <time>2024-09-11T12:30:03Z</time>
      </trkpt>
      <trkpt lat="50.808558985590935" lon="9.742918973788619">
        <ele>214.99000000000001</ele>
        <time>2024-09-11T12:30:05Z</time>
      </trkpt>
      <trkpt lat="50.808622017502785" lon="9.742785030975938">
        <ele>214.99000000000001</ele>
        <time>2024-09-11T12:30:06Z</time>
      </trkpt>
      <trkpt lat="50.808670967817307" lon="9.742684029042721">
        <ele>214.99000000000001</ele>
        <time>2024-09-11T12:30:07Z</time>
      </trkpt>
      <trkpt lat="50.808703992515802" lon="9.742614962160587">
        <ele>214.99000000000001</ele>
        <time>2024-09-11T12:30:08Z</time>
      </trkpt>
      <trkpt lat="50.808726036921144" lon="9.742568023502827">
        <ele>214.99000000000001</ele>
        <time>2024-09-11T12:30:09Z</time>
      </trkpt>
      <trkpt lat="50.80874003469944" lon="9.742539022117853">
        <ele>214.99000000000001</ele>
        <time>2024-09-11T12:30:10Z</time>
      </trkpt>
      <trkpt lat="50.80874003469944" lon="9.742539022117853">
        <ele>214.99000000000001</ele>
        <time>2024-09-11T12:30:11Z</time>
      </trkpt>
      <trkpt lat="50.80874003469944" lon="9.742539022117853">
        <ele>214.99000000000001</ele>
        <time>2024-09-11T12:30:26Z</time>
      </trkpt>
      <trkpt lat="50.80874296836555" lon="9.74253399297595">
        <ele>214.99000000000001</ele>
        <time>2024-09-11T12:30:41Z</time>
      </trkpt>
      <trkpt lat="50.808769958093762" lon="9.742499962449074">
        <ele>215.47</ele>
        <time>2024-09-11T12:30:42Z</time>
      </trkpt>
      <trkpt lat="50.809049997478724" lon="9.742150017991662">
        <ele>217.40000000000001</ele>
        <time>2024-09-11T12:30:48Z</time>
      </trkpt>
      <trkpt lat="50.809862036257982" lon="9.741340996697545">
        <ele>219.80000000000001</ele>
        <time>2024-09-11T12:30:55Z</time>
      </trkpt>
      <trkpt lat="50.810693018138409" lon="9.740477995947003">
        <ele>222.19999999999999</ele>
        <time>2024-09-11T12:31:04Z</time>
      </trkpt>
      <trkpt lat="50.811424003913999" lon="9.739447021856904">
        <ele>225.56999999999999</ele>
        <time>2024-09-11T12:31:14Z</time>
      </trkpt>
      <trkpt lat="50.812334027141333" lon="9.737969962880015">
        <ele>227.49000000000001</ele>
        <time>2024-09-11T12:31:27Z</time>
      </trkpt>
      <trkpt lat="50.812400998547673" lon="9.737865021452308">
        <ele>227.49000000000001</ele>
        <time>2024-09-11T12:31:28Z</time>
      </trkpt>
      <trkpt lat="50.812461012974381" lon="9.737770976498723">
        <ele>227.49000000000001</ele>
        <time>2024-09-11T12:31:29Z</time>
      </trkpt>
      <trkpt lat="50.812555979937315" lon="9.737621024250984">
        <ele>227.00999999999999</ele>
        <time>2024-09-11T12:31:31Z</time>
      </trkpt>
      <trkpt lat="50.812583975493908" lon="9.737578025087714">
        <ele>226.53</ele>
        <time>2024-09-11T12:31:32Z</time>
      </trkpt>
      <trkpt lat="50.812549022957683" lon="9.737507030367851">
        <ele>226.05000000000001</ele>
        <time>2024-09-11T12:31:33Z</time>
      </trkpt>
      <trkpt lat="50.812505017966032" lon="9.737413991242647">
        <ele>225.56999999999999</ele>
        <time>2024-09-11T12:31:34Z</time>
      </trkpt>
      <trkpt lat="50.812451960518956" lon="9.737305026501417">
        <ele>225.56999999999999</ele>
        <time>2024-09-11T12:31:35Z</time>
      </trkpt>
      <trkpt lat="50.812398986890912" lon="9.737194972112775">
        <ele>225.56999999999999</ele>
        <time>2024-09-11T12:31:36Z</time>
      </trkpt>
      <trkpt lat="50.812245011329651" lon="9.736922979354858">
        <ele>225.09</ele>
        <time>2024-09-11T12:31:39Z</time>
      </trkpt>
      <trkpt lat="50.811873022466898" lon="9.736593989655376">
        <ele>222.68000000000001</ele>
        <time>2024-09-11T12:31:46Z</time>
      </trkpt>
      <trkpt lat="50.811820970848203" lon="9.736549984663725">
        <ele>222.19999999999999</ele>
        <time>2024-09-11T12:31:47Z</time>
      </trkpt>
      <trkpt lat="50.811761040240526" lon="9.736492987722158">
        <ele>221.72</ele>
        <time>2024-09-11T12:31:48Z</time>
      </trkpt>
      <trkpt lat="50.811326019465923" lon="9.735749009996653">
        <ele>217.88</ele>
        <time>2024-09-11T12:31:57Z</time>
      </trkpt>
      <trkpt lat="50.811295006424189" lon="9.735530996695161">
        <ele>216.43000000000001</ele>
        <time>2024-09-11T12:32:01Z</time>
      </trkpt>
      <trkpt lat="50.811284026131034" lon="9.735453967005014">
        <ele>215.94999999999999</ele>
        <time>2024-09-11T12:32:02Z</time>
      </trkpt>
      <trkpt lat="50.811278996989131" lon="9.734475966542959">
        <ele>214.03</ele>
        <time>2024-09-11T12:32:09Z</time>
      </trkpt>
      <trkpt lat="50.811400031670928" lon="9.733271989971399">
        <ele>212.11000000000001</ele>
        <time>2024-09-11T12:32:15Z</time>
      </trkpt>
      <trkpt lat="50.811443030834198" lon="9.733096975833178">
        <ele>211.63</ele>
        <time>2024-09-11T12:32:16Z</time>
      </trkpt>
      <trkpt lat="50.8116639778018" lon="9.732183013111353">
        <ele>210.66999999999999</ele>
        <time>2024-09-11T12:32:23Z</time>
      </trkpt>
      <trkpt lat="50.811672024428844" lon="9.732150994241238">
        <ele>210.66999999999999</ele>
        <time>2024-09-11T12:32:32Z</time>
      </trkpt>
      <trkpt lat="50.811672024428844" lon="9.732150994241238">
        <ele>210.66999999999999</ele>
        <time>2024-09-11T12:33:07Z</time>
      </trkpt>
      <trkpt lat="50.811681998893619" lon="9.732109000906348">
        <ele>210.66999999999999</ele>
        <time>2024-09-11T12:33:14Z</time>
      </trkpt>
      <trkpt lat="50.811732038855553" lon="9.732009004801512">
        <ele>210.19</ele>
        <time>2024-09-11T12:33:15Z</time>
      </trkpt>
      <trkpt lat="50.811804039403796" lon="9.731978997588158">
        <ele>210.19</ele>
        <time>2024-09-11T12:33:16Z</time>
      </trkpt>
      <trkpt lat="50.812560003250837" lon="9.731590999290347">
        <ele>210.19</ele>
        <time>2024-09-11T12:33:22Z</time>
      </trkpt>
      <trkpt lat="50.813255030661821" lon="9.731138041242957">
        <ele>209.69999999999999</ele>
        <time>2024-09-11T12:33:26Z</time>
      </trkpt>
      <trkpt lat="50.814607031643391" lon="9.730030037462711">
        <ele>210.19</ele>
        <time>2024-09-11T12:33:33Z</time>
      </trkpt>
      <trkpt lat="50.814819009974599" lon="9.729935992509127">
        <ele>210.66999999999999</ele>
        <time>2024-09-11T12:33:34Z</time>
      </trkpt>
      <trkpt lat="50.81634602509439" lon="9.729695012792945">
        <ele>212.59</ele>
        <time>2024-09-11T12:33:41Z</time>
      </trkpt>
      <trkpt lat="50.818090969696641" lon="9.730235980823636">
        <ele>212.59</ele>
        <time>2024-09-11T12:33:49Z</time>
      </trkpt>
      <trkpt lat="50.820070020854473" lon="9.73043697886169">
        <ele>211.15000000000001</ele>
        <time>2024-09-11T12:33:58Z</time>
      </trkpt>
      <trkpt lat="50.822037002071738" lon="9.729875978082418">
        <ele>209.22</ele>
        <time>2024-09-11T12:34:07Z</time>
      </trkpt>
      <trkpt lat="50.824729017913342" lon="9.728478966280818">
        <ele>208.74000000000001</ele>
        <time>2024-09-11T12:34:20Z</time>
      </trkpt>
      <trkpt lat="50.827155997976661" lon="9.727461989969015">
        <ele>209.69999999999999</ele>
        <time>2024-09-11T12:34:32Z</time>
      </trkpt>
      <trkpt lat="50.829064976423979" lon="9.726958991959691">
        <ele>212.11000000000001</ele>
        <time>2024-09-11T12:34:42Z</time>
      </trkpt>
      <trkpt lat="50.830586040392518" lon="9.727014983072877">
        <ele>216.43000000000001</ele>
        <time>2024-09-11T12:34:49Z</time>
      </trkpt>
      <trkpt lat="50.832350011914968" lon="9.727775976061821">
        <ele>222.68000000000001</ele>
        <time>2024-09-11T12:34:57Z</time>
      </trkpt>
      <trkpt lat="50.834587980061769" lon="9.728987999260426">
        <ele>231.33000000000001</ele>
        <time>2024-09-11T12:35:07Z</time>
      </trkpt>
      <trkpt lat="50.836533000692725" lon="9.729238031432033">
        <ele>236.62</ele>
        <time>2024-09-11T12:35:15Z</time>
      </trkpt>
      <trkpt lat="50.838942965492606" lon="9.728757999837399">
        <ele>243.83000000000001</ele>
        <time>2024-09-11T12:35:25Z</time>
      </trkpt>
      <trkpt lat="50.841587036848068" lon="9.727423014119268">
        <ele>245.27000000000001</ele>
        <time>2024-09-11T12:35:36Z</time>
      </trkpt>
      <trkpt lat="50.843946039676666" lon="9.725617971271277">
        <ele>234.22</ele>
        <time>2024-09-11T12:35:46Z</time>
      </trkpt>
      <trkpt lat="50.8456090092659" lon="9.724456993862987">
        <ele>223.63999999999999</ele>
        <time>2024-09-11T12:35:54Z</time>
      </trkpt>
      <trkpt lat="50.847099982202053" lon="9.724146025255323">
        <ele>216.43000000000001</ele>
        <time>2024-09-11T12:36:01Z</time>
      </trkpt>
      <trkpt lat="50.849018013104796" lon="9.724076958373189">
        <ele>208.74000000000001</ele>
        <time>2024-09-11T12:36:10Z</time>
      </trkpt>
      <trkpt lat="50.850303964689374" lon="9.723284030333161">
        <ele>202.97999999999999</ele>
        <time>2024-09-11T12:36:17Z</time>
      </trkpt>
      <trkpt lat="50.851376010105014" lon="9.722840962931514">
        <ele>199.13</ele>
        <time>2024-09-11T12:36:24Z</time>
      </trkpt>
      <trkpt lat="50.852044969797134" lon="9.722685981541872">
        <ele>197.69</ele>
        <time>2024-09-11T12:36:31Z</time>
      </trkpt>
      <trkpt lat="50.852142032235861" lon="9.722665026783943">
        <ele>196.72999999999999</ele>
        <time>2024-09-11T12:36:38Z</time>
      </trkpt>
      <trkpt lat="50.852186037227511" lon="9.722655974328518">
        <ele>196.72999999999999</ele>
        <time>2024-09-11T12:37:16Z</time>
      </trkpt>
      <trkpt lat="50.85284803994" lon="9.722454976290464">
        <ele>197.21000000000001</ele>
        <time>2024-09-11T12:37:24Z</time>
      </trkpt>
      <trkpt lat="50.854391986504197" lon="9.722162028774619">
        <ele>198.16999999999999</ele>
        <time>2024-09-11T12:37:36Z</time>
      </trkpt>
      <trkpt lat="50.855648014694452" lon="9.721862962469459">
        <ele>197.21000000000001</ele>
        <time>2024-09-11T12:37:46Z</time>
      </trkpt>
      <trkpt lat="50.857003033161163" lon="9.721723990514875">
        <ele>194.80000000000001</ele>
        <time>2024-09-11T12:37:56Z</time>
      </trkpt>
      <trkpt lat="50.857779029756784" lon="9.721918031573296">
        <ele>194.31999999999999</ele>
        <time>2024-09-11T12:38:03Z</time>
      </trkpt>
      <trkpt lat="50.857851030305028" lon="9.721945021301508">
        <ele>194.31999999999999</ele>
        <time>2024-09-11T12:38:04Z</time>
      </trkpt>
      <trkpt lat="50.857905009761453" lon="9.721965976059437">
        <ele>194.31999999999999</ele>
        <time>2024-09-11T12:38:05Z</time>
      </trkpt>
      <trkpt lat="50.858010035008192" lon="9.72225196659565">
        <ele>193.84</ele>
        <time>2024-09-11T12:38:06Z</time>
      </trkpt>
      <trkpt lat="50.857991008087993" lon="9.722360009327531">
        <ele>194.31999999999999</ele>
        <time>2024-09-11T12:38:07Z</time>
      </trkpt>
      <trkpt lat="50.857967035844922" lon="9.722493030130863">
        <ele>194.31999999999999</ele>
        <time>2024-09-11T12:38:08Z</time>
      </trkpt>
      <trkpt lat="50.857940968126059" lon="9.722624961286783">
        <ele>194.31999999999999</ele>
        <time>2024-09-11T12:38:09Z</time>
      </trkpt>
      <trkpt lat="50.857914984226227" lon="9.72276502288878">
        <ele>194.80000000000001</ele>
        <time>2024-09-11T12:38:10Z</time>
      </trkpt>
      <trkpt lat="50.857774000614882" lon="9.723763978108764">
        <ele>197.21000000000001</ele>
        <time>2024-09-11T12:38:17Z</time>
      </trkpt>
      <trkpt lat="50.857757991179824" lon="9.723871015012264">
        <ele>197.21000000000001</ele>
        <time>2024-09-11T12:38:18Z</time>
      </trkpt>
      <trkpt lat="50.857752040028572" lon="9.723908985033631">
        <ele>197.21000000000001</ele>
        <time>2024-09-11T12:38:19Z</time>
      </trkpt>
      <trkpt lat="50.857666041702032" lon="9.724039994180203">
        <ele>197.21000000000001</ele>
        <time>2024-09-11T12:38:20Z</time>
      </trkpt>
      <trkpt lat="50.857666041702032" lon="9.724123980849981">
        <ele>197.69</ele>
        <time>2024-09-11T12:38:21Z</time>
      </trkpt>
      <trkpt lat="50.857756985351443" lon="9.72425096668303">
        <ele>197.69</ele>
        <time>2024-09-11T12:38:22Z</time>
      </trkpt>
      <trkpt lat="50.857766959816217" lon="9.724378036335111">
        <ele>197.69</ele>
        <time>2024-09-11T12:38:23Z</time>
      </trkpt>
      <trkpt lat="50.857887994498014" lon="9.725098041817546">
        <ele>198.65000000000001</ele>
        <time>2024-09-11T12:38:28Z</time>
      </trkpt>
      <trkpt lat="50.857924036681652" lon="9.725239025428891">
        <ele>199.13</ele>
        <time>2024-09-11T12:38:29Z</time>
      </trkpt>
      <trkpt lat="50.857994025573134" lon="9.725383026525378">
        <ele>199.13</ele>
        <time>2024-09-11T12:38:30Z</time>
      </trkpt>
      <trkpt lat="50.858059991151094" lon="9.725520992651582">
        <ele>199.61000000000001</ele>
        <time>2024-09-11T12:38:31Z</time>
      </trkpt>
      <trkpt lat="50.858126040548086" lon="9.725656025111675">
        <ele>200.09</ele>
        <time>2024-09-11T12:38:32Z</time>
      </trkpt>
      <trkpt lat="50.858917040750384" lon="9.72689101472497">
        <ele>208.25999999999999</ele>
        <time>2024-09-11T12:38:43Z</time>
      </trkpt>
      <trkpt lat="50.858997004106641" lon="9.727005008608103">
        <ele>209.22</ele>
        <time>2024-09-11T12:38:44Z</time>
      </trkpt>
      <trkpt lat="50.85916799493134" lon="9.72723500803113">
        <ele>211.15000000000001</ele>
        <time>2024-09-11T12:38:46Z</time>
      </trkpt>
      <trkpt lat="50.859236977994442" lon="9.727332992479205">
        <ele>211.63</ele>
        <time>2024-09-11T12:38:47Z</time>
      </trkpt>
      <trkpt lat="50.859675016254187" lon="9.727949984371662">
        <ele>216.43000000000001</ele>
        <time>2024-09-11T12:38:53Z</time>
      </trkpt>
      <trkpt lat="50.859730001538992" lon="9.728023996576667">
        <ele>216.91</ele>
        <time>2024-09-11T12:38:54Z</time>
      </trkpt>
      <trkpt lat="50.85981197655201" lon="9.728135978803039">
        <ele>217.88</ele>
        <time>2024-09-11T12:38:55Z</time>
      </trkpt>
      <trkpt lat="50.859765959903598" lon="9.728260030969977">
        <ele>218.36000000000001</ele>
        <time>2024-09-11T12:38:56Z</time>
      </trkpt>
      <trkpt lat="50.859734024852514" lon="9.728347035124898">
        <ele>219.31999999999999</ele>
        <time>2024-09-11T12:38:57Z</time>
      </trkpt>
      <trkpt lat="50.859699994325638" lon="9.728437978774309">
        <ele>219.80000000000001</ele>
        <time>2024-09-11T12:38:58Z</time>
      </trkpt>
      <trkpt lat="50.859567979350686" lon="9.72882597707212">
        <ele>222.68000000000001</ele>
        <time>2024-09-11T12:39:02Z</time>
      </trkpt>
      <trkpt lat="50.859515005722642" lon="9.729023035615683">
        <ele>224.61000000000001</ele>
        <time>2024-09-11T12:39:04Z</time>
      </trkpt>
      <trkpt lat="50.859118038788438" lon="9.730447037145495">
        <ele>232.30000000000001</ele>
        <time>2024-09-11T12:39:17Z</time>
      </trkpt>
      <trkpt lat="50.858989963307977" lon="9.730927990749478">
        <ele>234.69999999999999</ele>
        <time>2024-09-11T12:39:25Z</time>
      </trkpt>
      <trkpt lat="50.858813021332026" lon="9.731567027047277">
        <ele>236.62</ele>
        <time>2024-09-11T12:39:33Z</time>
      </trkpt>
      <trkpt lat="50.858603976666927" lon="9.7323929797858">
        <ele>239.50999999999999</ele>
        <time>2024-09-11T12:39:42Z</time>
      </trkpt>
      <trkpt lat="50.858600959181786" lon="9.732430027797818">
        <ele>239.50999999999999</ele>
        <time>2024-09-11T12:39:43Z</time>
      </trkpt>
      <trkpt lat="50.85858897306025" lon="9.732599006965756">
        <ele>239.02000000000001</ele>
        <time>2024-09-11T12:39:44Z</time>
      </trkpt>
      <trkpt lat="50.858610011637211" lon="9.732299018651247">
        <ele>238.53999999999999</ele>
        <time>2024-09-11T12:39:45Z</time>
      </trkpt>
      <trkpt lat="50.85860799998045" lon="9.732335982844234">
        <ele>238.53999999999999</ele>
        <time>2024-09-11T12:39:46Z</time>
      </trkpt>
      <trkpt lat="50.858610011637211" lon="9.732299018651247">
        <ele>238.06</ele>
        <time>2024-09-11T12:39:47Z</time>
      </trkpt>
      <trkpt lat="50.858610011637211" lon="9.732299018651247">
        <ele>238.06</ele>
        <time>2024-09-11T12:39:48Z</time>
      </trkpt>
      <trkpt lat="50.858661979436874" lon="9.73211201839149">
        <ele>237.58000000000001</ele>
        <time>2024-09-11T12:39:49Z</time>
      </trkpt>
      <trkpt lat="50.858684023842216" lon="9.732030965387821">
        <ele>238.06</ele>
        <time>2024-09-11T12:39:50Z</time>
      </trkpt>
      <trkpt lat="50.858954004943371" lon="9.731056988239288">
        <ele>234.69999999999999</ele>
        <time>2024-09-11T12:39:59Z</time>
      </trkpt>
      <trkpt lat="50.859135976061225" lon="9.730376964434981">
        <ele>232.30000000000001</ele>
        <time>2024-09-11T12:40:08Z</time>
      </trkpt>
      <trkpt lat="50.859143016859889" lon="9.73035098053515">
        <ele>231.81</ele>
        <time>2024-09-11T12:40:09Z</time>
      </trkpt>
      <trkpt lat="50.859143016859889" lon="9.73035098053515">
        <ele>229.88999999999999</ele>
        <time>2024-09-11T12:40:20Z</time>
      </trkpt>
      <trkpt lat="50.859250975772738" lon="9.729959964752197">
        <ele>228.93000000000001</ele>
        <time>2024-09-11T12:40:31Z</time>
      </trkpt>
      <trkpt lat="50.859517017379403" lon="9.729012977331877">
        <ele>226.05000000000001</ele>
        <time>2024-09-11T12:40:39Z</time>
      </trkpt>
      <trkpt lat="50.859550964087248" lon="9.728888003155589">
        <ele>226.05000000000001</ele>
        <time>2024-09-11T12:40:40Z</time>
      </trkpt>
      <trkpt lat="50.859764032065868" lon="9.728265982121229">
        <ele>224.61000000000001</ele>
        <time>2024-09-11T12:40:46Z</time>
      </trkpt>
      <trkpt lat="50.859775012359023" lon="9.728235974907875">
        <ele>224.12</ele>
        <time>2024-09-11T12:40:47Z</time>
      </trkpt>
      <trkpt lat="50.859874002635479" lon="9.728235974907875">
        <ele>224.12</ele>
        <time>2024-09-11T12:40:48Z</time>
      </trkpt>
      <trkpt lat="50.85991901345551" lon="9.728307975456119">
        <ele>223.63999999999999</ele>
        <time>2024-09-11T12:40:49Z</time>
      </trkpt>
      <trkpt lat="50.859963018447161" lon="9.728339994326234">
        <ele>223.16</ele>
        <time>2024-09-11T12:40:50Z</time>
      </trkpt>
      <trkpt lat="50.860023032873869" lon="9.728385005146265">
        <ele>223.16</ele>
        <time>2024-09-11T12:40:51Z</time>
      </trkpt>
      <trkpt lat="50.861149979755282" lon="9.729204000905156">
        <ele>216.91</ele>
        <time>2024-09-11T12:41:08Z</time>
      </trkpt>
      <trkpt lat="50.86129498668015" lon="9.729297962039709">
        <ele>216.43000000000001</ele>
        <time>2024-09-11T12:41:10Z</time>
      </trkpt>
      <trkpt lat="50.861366987228394" lon="9.729344984516501">
        <ele>215.94999999999999</ele>
        <time>2024-09-11T12:41:11Z</time>
      </trkpt>
      <trkpt lat="50.861507970839739" lon="9.729442968964577">
        <ele>214.99000000000001</ele>
        <time>2024-09-11T12:41:13Z</time>
      </trkpt>
      <trkpt lat="50.862307017669082" lon="9.730022996664047">
        <ele>208.74000000000001</ele>
        <time>2024-09-11T12:41:25Z</time>
      </trkpt>
      <trkpt lat="50.862918980419636" lon="9.730322984978557">
        <ele>204.41999999999999</ele>
        <time>2024-09-11T12:41:33Z</time>
      </trkpt>
      <trkpt lat="50.86320798844099" lon="9.730445025488734">
        <ele>201.53</ele>
        <time>2024-09-11T12:41:37Z</time>
      </trkpt>
      <trkpt lat="50.86324998177588" lon="9.730496993288398">
        <ele>201.05000000000001</ele>
        <time>2024-09-11T12:41:38Z</time>
      </trkpt>
      <trkpt lat="50.863283006474376" lon="9.730537980794907">
        <ele>200.56999999999999</ele>
        <time>2024-09-11T12:41:39Z</time>
      </trkpt>
      <trkpt lat="50.863308990374207" lon="9.730701008811593">
        <ele>200.09</ele>
        <time>2024-09-11T12:41:40Z</time>
      </trkpt>
      <trkpt lat="50.863266997039318" lon="9.730772003531456">
        <ele>199.61000000000001</ele>
        <time>2024-09-11T12:41:41Z</time>
      </trkpt>
      <trkpt lat="50.863213017582893" lon="9.730864958837628">
        <ele>199.13</ele>
        <time>2024-09-11T12:41:42Z</time>
      </trkpt>
      <trkpt lat="50.863150991499424" lon="9.73097400739789">
        <ele>199.13</ele>
        <time>2024-09-11T12:41:43Z</time>
      </trkpt>
      <trkpt lat="50.862846979871392" lon="9.731472982093692">
        <ele>198.65000000000001</ele>
        <time>2024-09-11T12:41:47Z</time>
      </trkpt>
      <trkpt lat="50.862747989594936" lon="9.731568032875657">
        <ele>199.13</ele>
        <time>2024-09-11T12:41:48Z</time>
      </trkpt>
      <trkpt lat="50.8626479934901" lon="9.731664005666971">
        <ele>199.13</ele>
        <time>2024-09-11T12:41:49Z</time>
      </trkpt>
      <trkpt lat="50.861850036308169" lon="9.732448970898986">
        <ele>200.56999999999999</ele>
        <time>2024-09-11T12:41:57Z</time>
      </trkpt>
      <trkpt lat="50.861779041588306" lon="9.732581991702318">
        <ele>201.05000000000001</ele>
        <time>2024-09-11T12:41:58Z</time>
      </trkpt>
      <trkpt lat="50.861637974157929" lon="9.732873011380434">
        <ele>202.00999999999999</ele>
        <time>2024-09-11T12:42:00Z</time>
      </trkpt>
      <trkpt lat="50.861188033595681" lon="9.734234986826778">
        <ele>208.74000000000001</ele>
        <time>2024-09-11T12:42:08Z</time>
      </trkpt>
      <trkpt lat="50.861128019168973" lon="9.734410000964999">
        <ele>209.69999999999999</ele>
        <time>2024-09-11T12:42:09Z</time>
      </trkpt>
      <trkpt lat="50.860353028401732" lon="9.736775038763881">
        <ele>224.12</ele>
        <time>2024-09-11T12:42:23Z</time>
      </trkpt>
      <trkpt lat="50.859748022630811" lon="9.738556025549769">
        <ele>235.18000000000001</ele>
        <time>2024-09-11T12:42:33Z</time>
      </trkpt>
      <trkpt lat="50.859024999663234" lon="9.7407509945333">
        <ele>250.56</ele>
        <time>2024-09-11T12:42:42Z</time>
      </trkpt>
      <trkpt lat="50.857911966741085" lon="9.743828997015953">
        <ele>271.23000000000002</ele>
        <time>2024-09-11T12:42:53Z</time>
      </trkpt>
      <trkpt lat="50.856875963509083" lon="9.746250025928021">
        <ele>289.97000000000003</ele>
        <time>2024-09-11T12:43:03Z</time>
      </trkpt>
      <trkpt lat="50.856668008491397" lon="9.746869029477239">
        <ele>294.77999999999997</ele>
        <time>2024-09-11T12:43:06Z</time>
      </trkpt>
      <trkpt lat="50.856601959094405" lon="9.747100034728646">
        <ele>296.69999999999999</ele>
        <time>2024-09-11T12:43:07Z</time>
      </trkpt>
      <trkpt lat="50.856532976031303" lon="9.747339002788067">
        <ele>298.14999999999998</ele>
        <time>2024-09-11T12:43:08Z</time>
      </trkpt>
      <trkpt lat="50.856492994353175" lon="9.74758299998939">
        <ele>299.11000000000001</ele>
        <time>2024-09-11T12:43:09Z</time>
      </trkpt>
      <trkpt lat="50.856469022110105" lon="9.747847029939294">
        <ele>300.55000000000001</ele>
        <time>2024-09-11T12:43:10Z</time>
      </trkpt>
      <trkpt lat="50.856444966048002" lon="9.748107958585024">
        <ele>301.99000000000001</ele>
        <time>2024-09-11T12:43:11Z</time>
      </trkpt>
      <trkpt lat="50.856313034892082" lon="9.749546041712165">
        <ele>308.72000000000003</ele>
        <time>2024-09-11T12:43:18Z</time>
      </trkpt>
      <trkpt lat="50.856232987716794" lon="9.750144006684423">
        <ele>313.52999999999997</ele>
        <time>2024-09-11T12:43:25Z</time>
      </trkpt>
      <trkpt lat="50.856213038787246" lon="9.750219024717808">
        <ele>314.97000000000003</ele>
        <time>2024-09-11T12:43:27Z</time>
      </trkpt>
      <trkpt lat="50.856204992160201" lon="9.750248026102781">
        <ele>315.44999999999999</ele>
        <time>2024-09-11T12:43:28Z</time>
      </trkpt>
      <trkpt lat="50.856204992160201" lon="9.750248026102781">
        <ele>316.41000000000003</ele>
        <time>2024-09-11T12:43:40Z</time>
      </trkpt>
      <trkpt lat="50.856195017695427" lon="9.750281972810626">
        <ele>316.41000000000003</ele>
        <time>2024-09-11T12:43:43Z</time>
      </trkpt>
      <trkpt lat="50.856186971068382" lon="9.750313991680741">
        <ele>316.88999999999999</ele>
        <time>2024-09-11T12:43:44Z</time>
      </trkpt>
      <trkpt lat="50.856186971068382" lon="9.750313991680741">
        <ele>317.37</ele>
        <time>2024-09-11T12:43:45Z</time>
      </trkpt>
      <trkpt lat="50.856186971068382" lon="9.750313991680741">
        <ele>317.85000000000002</ele>
        <time>2024-09-11T12:44:04Z</time>
      </trkpt>
      <trkpt lat="50.856186971068382" lon="9.750313991680741">
        <ele>317.37</ele>
        <time>2024-09-11T12:44:30Z</time>
      </trkpt>
      <trkpt lat="50.856186971068382" lon="9.750313991680741">
        <ele>317.37</ele>
        <time>2024-09-11T12:44:34Z</time>
      </trkpt>
      <trkpt lat="50.856199041008949" lon="9.750269986689091">
        <ele>318.32999999999998</ele>
        <time>2024-09-11T12:44:36Z</time>
      </trkpt>
      <trkpt lat="50.856252014636993" lon="9.75007301196456">
        <ele>318.81</ele>
        <time>2024-09-11T12:44:45Z</time>
      </trkpt>
      <trkpt lat="50.856297025457025" lon="9.749726001173258">
        <ele>317.37</ele>
        <time>2024-09-11T12:45:12Z</time>
      </trkpt>
      <trkpt lat="50.856358967721462" lon="9.749048994854093">
        <ele>316.41000000000003</ele>
        <time>2024-09-11T12:45:16Z</time>
      </trkpt>
      <trkpt lat="50.8563759829849" lon="9.748857971280813">
        <ele>315.93000000000001</ele>
        <time>2024-09-11T12:45:17Z</time>
      </trkpt>
      <trkpt lat="50.856429962441325" lon="9.74827098660171">
        <ele>314.49000000000001</ele>
        <time>2024-09-11T12:45:20Z</time>
      </trkpt>
      <trkpt lat="50.856502968817949" lon="9.74747403524816">
        <ele>312.56999999999999</ele>
        <time>2024-09-11T12:45:24Z</time>
      </trkpt>
      <trkpt lat="50.856544962152839" lon="9.747297009453178">
        <ele>312.56999999999999</ele>
        <time>2024-09-11T12:45:25Z</time>
      </trkpt>
      <trkpt lat="50.856600031256676" lon="9.747103974223137">
        <ele>312.56999999999999</ele>
        <time>2024-09-11T12:45:26Z</time>
      </trkpt>
      <trkpt lat="50.856659039855003" lon="9.746901970356703">
        <ele>312.08999999999997</ele>
        <time>2024-09-11T12:45:27Z</time>
      </trkpt>
      <trkpt lat="50.85671997629106" lon="9.746690997853875">
        <ele>311.60000000000002</ele>
        <time>2024-09-11T12:45:28Z</time>
      </trkpt>
      <trkpt lat="50.856786025688052" lon="9.746460998430848">
        <ele>310.63999999999999</ele>
        <time>2024-09-11T12:45:29Z</time>
      </trkpt>
      <trkpt lat="50.857646008953452" lon="9.744442971423268">
        <ele>293.81999999999999</ele>
        <time>2024-09-11T12:45:39Z</time>
      </trkpt>
      <trkpt lat="50.858054962009192" lon="9.743488021194935">
        <ele>285.64999999999998</ele>
        <time>2024-09-11T12:45:46Z</time>
      </trkpt>
      <trkpt lat="50.858684023842216" lon="9.741764031350613">
        <ele>275.06999999999999</ele>
        <time>2024-09-11T12:45:54Z</time>
      </trkpt>
      <trkpt lat="50.859420038759708" lon="9.739520028233528">
        <ele>262.57999999999998</ele>
        <time>2024-09-11T12:46:04Z</time>
      </trkpt>
      <trkpt lat="50.859894035384059" lon="9.738108012825251">
        <ele>251.03999999999999</ele>
        <time>2024-09-11T12:46:12Z</time>
      </trkpt>
      <trkpt lat="50.85991800762713" lon="9.738031988963485">
        <ele>250.08000000000001</ele>
        <time>2024-09-11T12:46:13Z</time>
      </trkpt>
      <trkpt lat="50.85994097404182" lon="9.737964011728764">
        <ele>248.63999999999999</ele>
        <time>2024-09-11T12:46:14Z</time>
      </trkpt>
      <trkpt lat="50.860003000125289" lon="9.738016985356808">
        <ele>247.68000000000001</ele>
        <time>2024-09-11T12:46:15Z</time>
      </trkpt>
      <trkpt lat="50.860045999288559" lon="9.738054033368826">
        <ele>246.22999999999999</ele>
        <time>2024-09-11T12:46:16Z</time>
      </trkpt>
      <trkpt lat="50.860101990401745" lon="9.738101977854967">
        <ele>245.27000000000001</ele>
        <time>2024-09-11T12:46:17Z</time>
      </trkpt>
      <trkpt lat="50.860168039798737" lon="9.738157968968153">
        <ele>243.83000000000001</ele>
        <time>2024-09-11T12:46:18Z</time>
      </trkpt>
      <trkpt lat="50.86024196818471" lon="9.738225024193525">
        <ele>242.87</ele>
        <time>2024-09-11T12:46:19Z</time>
      </trkpt>
      <trkpt lat="50.86028303951025" lon="9.738343041390181">
        <ele>242.38999999999999</ele>
        <time>2024-09-11T12:46:20Z</time>
      </trkpt>
      <trkpt lat="50.860321009531617" lon="9.738452006131411">
        <ele>241.91</ele>
        <time>2024-09-11T12:46:21Z</time>
      </trkpt>
      <trkpt lat="50.860359985381365" lon="9.738561976701021">
        <ele>241.43000000000001</ele>
        <time>2024-09-11T12:46:22Z</time>
      </trkpt>
      <trkpt lat="50.860667014494538" lon="9.739446016028523">
        <ele>239.02000000000001</ele>
        <time>2024-09-11T12:46:30Z</time>
      </trkpt>
      <trkpt lat="50.860704984515905" lon="9.739553974941373">
        <ele>238.53999999999999</ele>
        <time>2024-09-11T12:46:31Z</time>
      </trkpt>
      <trkpt lat="50.860743038356304" lon="9.739665035158396">
        <ele>238.53999999999999</ele>
        <time>2024-09-11T12:46:32Z</time>
      </trkpt>
      <trkpt lat="50.86071495898068" lon="9.739967035129666">
        <ele>238.53999999999999</ele>
        <time>2024-09-11T12:46:34Z</time>
      </trkpt>
      <trkpt lat="50.860743960365653" lon="9.740081029012799">
        <ele>238.53999999999999</ele>
        <time>2024-09-11T12:46:35Z</time>
      </trkpt>
      <trkpt lat="50.860789977014065" lon="9.740182030946016">
        <ele>238.53999999999999</ele>
        <time>2024-09-11T12:46:36Z</time>
      </trkpt>
      <trkpt lat="50.860868012532592" lon="9.740261994302273">
        <ele>238.53999999999999</ele>
        <time>2024-09-11T12:46:37Z</time>
      </trkpt>
      <trkpt lat="50.860949987545609" lon="9.740268029272556">
        <ele>238.53999999999999</ele>
        <time>2024-09-11T12:46:38Z</time>
      </trkpt>
      <trkpt lat="50.861034980043769" lon="9.740273980423808">
        <ele>238.53999999999999</ele>
        <time>2024-09-11T12:46:39Z</time>
      </trkpt>
      <trkpt lat="50.861420966684818" lon="9.740302981808782">
        <ele>240.47</ele>
        <time>2024-09-11T12:46:43Z</time>
      </trkpt>
      <trkpt lat="50.861502019688487" lon="9.740352015942335">
        <ele>240.94999999999999</ele>
        <time>2024-09-11T12:46:44Z</time>
      </trkpt>
      <trkpt lat="50.861590029671788" lon="9.74040599539876">
        <ele>241.43000000000001</ele>
        <time>2024-09-11T12:46:45Z</time>
      </trkpt>
      <trkpt lat="50.862508015707135" lon="9.740970013663173">
        <ele>243.34999999999999</ele>
        <time>2024-09-11T12:46:57Z</time>
      </trkpt>
      <trkpt lat="50.86254003457725" lon="9.740989040583372">
        <ele>243.83000000000001</ele>
        <time>2024-09-11T12:46:58Z</time>
      </trkpt>
      <trkpt lat="50.862530982121825" lon="9.741156008094549">
        <ele>244.78999999999999</ele>
        <time>2024-09-11T12:46:59Z</time>
      </trkpt>
      <trkpt lat="50.862498041242361" lon="9.741185009479523">
        <ele>245.27000000000001</ele>
        <time>2024-09-11T12:47:00Z</time>
      </trkpt>
      <trkpt lat="50.862450012937188" lon="9.741228008642793">
        <ele>245.75</ele>
        <time>2024-09-11T12:47:01Z</time>
      </trkpt>
      <trkpt lat="50.862392010167241" lon="9.741280982270837">
        <ele>246.22999999999999</ele>
        <time>2024-09-11T12:47:02Z</time>
      </trkpt>
      <trkpt lat="50.862323027104139" lon="9.741343008354306">
        <ele>246.72</ele>
        <time>2024-09-11T12:47:03Z</time>
      </trkpt>
      <trkpt lat="50.862251026555896" lon="9.741407968103886">
        <ele>247.68000000000001</ele>
        <time>2024-09-11T12:47:04Z</time>
      </trkpt>
      <trkpt lat="50.862031001597643" lon="9.741605026647449">
        <ele>250.08000000000001</ele>
        <time>2024-09-11T12:47:08Z</time>
      </trkpt>
      <trkpt lat="50.861991019919515" lon="9.741660011932254">
        <ele>250.56</ele>
        <time>2024-09-11T12:47:09Z</time>
      </trkpt>
      <trkpt lat="50.861955983564258" lon="9.741752967238426">
        <ele>251.52000000000001</ele>
        <time>2024-09-11T12:47:10Z</time>
      </trkpt>
      <trkpt lat="50.861949026584625" lon="9.741853969171643">
        <ele>252</ele>
        <time>2024-09-11T12:47:11Z</time>
      </trkpt>
      <trkpt lat="50.861977022141218" lon="9.741967041045427">
        <ele>252.47999999999999</ele>
        <time>2024-09-11T12:47:12Z</time>
      </trkpt>
      <trkpt lat="50.862022032961249" lon="9.742086986079812">
        <ele>252.96000000000001</ele>
        <time>2024-09-11T12:47:13Z</time>
      </trkpt>
      <trkpt lat="50.862098978832364" lon="9.742172984406352">
        <ele>253.93000000000001</ele>
        <time>2024-09-11T12:47:14Z</time>
      </trkpt>
      <trkpt lat="50.86217500269413" lon="9.742258982732892">
        <ele>254.41</ele>
        <time>2024-09-11T12:47:15Z</time>
      </trkpt>
      <trkpt lat="50.86271203123033" lon="9.742883015424013">
        <ele>259.69</ele>
        <time>2024-09-11T12:47:24Z</time>
      </trkpt>
      <trkpt lat="50.863116038963199" lon="9.74337100982666">
        <ele>265.45999999999998</ele>
        <time>2024-09-11T12:47:30Z</time>
      </trkpt>
      <trkpt lat="50.86316498927772" lon="9.743448961526156">
        <ele>266.89999999999998</ele>
        <time>2024-09-11T12:47:31Z</time>
      </trkpt>
      <trkpt lat="50.863208994269371" lon="9.74352004006505">
        <ele>268.35000000000002</ele>
        <time>2024-09-11T12:47:32Z</time>
      </trkpt>
      <trkpt lat="50.863298010081053" lon="9.743664041161537">
        <ele>270.75</ele>
        <time>2024-09-11T12:47:34Z</time>
      </trkpt>
      <trkpt lat="50.863488027825952" lon="9.743969980627298">
        <ele>275.06999999999999</ele>
        <time>2024-09-11T12:47:38Z</time>
      </trkpt>
      <trkpt lat="50.863539995625615" lon="9.74399303086102">
        <ele>276.51999999999998</ele>
        <time>2024-09-11T12:47:39Z</time>
      </trkpt>
      <trkpt lat="50.863607972860336" lon="9.743988001719117">
        <ele>277.48000000000002</ele>
        <time>2024-09-11T12:47:40Z</time>
      </trkpt>
      <trkpt lat="50.863692965358496" lon="9.743977021425962">
        <ele>278.44</ele>
        <time>2024-09-11T12:47:41Z</time>
      </trkpt>
      <trkpt lat="50.863781981170177" lon="9.743965035304427">
        <ele>279.39999999999998</ele>
        <time>2024-09-11T12:47:42Z</time>
      </trkpt>
      <trkpt lat="50.86413100361824" lon="9.74395003169775">
        <ele>283.25</ele>
        <time>2024-09-11T12:47:46Z</time>
      </trkpt>
      <trkpt lat="50.864214990288019" lon="9.743974003940821">
        <ele>284.20999999999998</ele>
        <time>2024-09-11T12:47:47Z</time>
      </trkpt>
      <trkpt lat="50.864372989162803" lon="9.744021026417613">
        <ele>285.64999999999998</ele>
        <time>2024-09-11T12:47:49Z</time>
      </trkpt>
      <trkpt lat="50.864449013024569" lon="9.744044998660684">
        <ele>286.61000000000001</ele>
        <time>2024-09-11T12:47:50Z</time>
      </trkpt>
      <trkpt lat="50.864782026037574" lon="9.744170978665352">
        <ele>288.52999999999997</ele>
        <time>2024-09-11T12:47:54Z</time>
      </trkpt>
      <trkpt lat="50.864871041849256" lon="9.744205009192228">
        <ele>288.52999999999997</ele>
        <time>2024-09-11T12:47:55Z</time>
      </trkpt>
      <trkpt lat="50.865109004080296" lon="9.744295030832291">
        <ele>289.00999999999999</ele>
        <time>2024-09-11T12:47:58Z</time>
      </trkpt>
      <trkpt lat="50.865179998800159" lon="9.744322020560503">
        <ele>289.00999999999999</ele>
        <time>2024-09-11T12:47:59Z</time>
      </trkpt>
      <trkpt lat="50.865255016833544" lon="9.744308022782207">
        <ele>289.00999999999999</ele>
        <time>2024-09-11T12:48:00Z</time>
      </trkpt>
      <trkpt lat="50.865342020988464" lon="9.744239039719105">
        <ele>288.52999999999997</ele>
        <time>2024-09-11T12:48:01Z</time>
      </trkpt>
      <trkpt lat="50.865443022921681" lon="9.744157986715436">
        <ele>288.05000000000001</ele>
        <time>2024-09-11T12:48:02Z</time>
      </trkpt>
      <trkpt lat="50.865541007369757" lon="9.74407902918756">
        <ele>287.56999999999999</ele>
        <time>2024-09-11T12:48:03Z</time>
      </trkpt>
      <trkpt lat="50.865622982382774" lon="9.74395195953548">
        <ele>287.08999999999997</ele>
        <time>2024-09-11T12:48:04Z</time>
      </trkpt>
      <trkpt lat="50.866438960656524" lon="9.742764998227358">
        <ele>277.48000000000002</ele>
        <time>2024-09-11T12:48:13Z</time>
      </trkpt>
      <trkpt lat="50.866534011438489" lon="9.742663996294141">
        <ele>276.51999999999998</ele>
        <time>2024-09-11T12:48:14Z</time>
      </trkpt>
      <trkpt lat="50.866630990058184" lon="9.742561988532543">
        <ele>275.56</ele>
        <time>2024-09-11T12:48:15Z</time>
      </trkpt>
      <trkpt lat="50.866748001426458" lon="9.742484036833048">
        <ele>274.58999999999997</ele>
        <time>2024-09-11T12:48:16Z</time>
      </trkpt>
      <trkpt lat="50.867689959704876" lon="9.741993024945259">
        <ele>269.79000000000002</ele>
        <time>2024-09-11T12:48:25Z</time>
      </trkpt>
      <trkpt lat="50.867987014353275" lon="9.741848018020392">
        <ele>269.31</ele>
        <time>2024-09-11T12:48:28Z</time>
      </trkpt>
      <trkpt lat="50.868054991587996" lon="9.74180300720036">
        <ele>269.31</ele>
        <time>2024-09-11T12:48:29Z</time>
      </trkpt>
      <trkpt lat="50.868102014064789" lon="9.741776017472148">
        <ele>268.82999999999998</ele>
        <time>2024-09-11T12:48:30Z</time>
      </trkpt>
      <trkpt lat="50.868230005726218" lon="9.741880036890507">
        <ele>268.82999999999998</ele>
        <time>2024-09-11T12:48:31Z</time>
      </trkpt>
      <trkpt lat="50.868247020989656" lon="9.741982966661453">
        <ele>268.82999999999998</ele>
        <time>2024-09-11T12:48:32Z</time>
      </trkpt>
      <trkpt lat="50.868269987404346" lon="9.742115987464786">
        <ele>268.35000000000002</ele>
        <time>2024-09-11T12:48:33Z</time>
      </trkpt>
      <trkpt lat="50.868296977132559" lon="9.742271974682808">
        <ele>267.86000000000001</ele>
        <time>2024-09-11T12:48:34Z</time>
      </trkpt>
      <trkpt lat="50.8683190215379" lon="9.742452017962933">
        <ele>267.38</ele>
        <time>2024-09-11T12:48:35Z</time>
      </trkpt>
      <trkpt lat="50.868334025144577" lon="9.742632983252406">
        <ele>266.89999999999998</ele>
        <time>2024-09-11T12:48:36Z</time>
      </trkpt>
      <trkpt lat="50.868348022922873" lon="9.742797017097473">
        <ele>266.42000000000002</ele>
        <time>2024-09-11T12:48:37Z</time>
      </trkpt>
      <trkpt lat="50.868360009044409" lon="9.742938000708818">
        <ele>265.94</ele>
        <time>2024-09-11T12:48:38Z</time>
      </trkpt>
      <trkpt lat="50.868371995165944" lon="9.743097005411983">
        <ele>265.45999999999998</ele>
        <time>2024-09-11T12:48:39Z</time>
      </trkpt>
      <trkpt lat="50.868338970467448" lon="9.743208987638354">
        <ele>264.98000000000002</ele>
        <time>2024-09-11T12:48:40Z</time>
      </trkpt>
      <trkpt lat="50.868308041244745" lon="9.743309989571571">
        <ele>264.5</ele>
        <time>2024-09-11T12:48:41Z</time>
      </trkpt>
      <trkpt lat="50.868279961869121" lon="9.743405040353537">
        <ele>264.01999999999998</ele>
        <time>2024-09-11T12:48:42Z</time>
      </trkpt>
      <trkpt lat="50.868245009332895" lon="9.743520962074399">
        <ele>263.54000000000002</ele>
        <time>2024-09-11T12:48:43Z</time>
      </trkpt>
      <trkpt lat="50.868198992684484" lon="9.74358600564301">
        <ele>263.06</ele>
        <time>2024-09-11T12:48:44Z</time>
      </trkpt>
      <trkpt lat="50.868155993521214" lon="9.743647025898099">
        <ele>262.57999999999998</ele>
        <time>2024-09-11T12:48:45Z</time>
      </trkpt>
      <trkpt lat="50.868096984922886" lon="9.743730006739497">
        <ele>260.64999999999998</ele>
        <time>2024-09-11T12:48:52Z</time>
      </trkpt>
      <trkpt lat="50.868046022951603" lon="9.743803013116121">
        <ele>259.69</ele>
        <time>2024-09-11T12:48:54Z</time>
      </trkpt>
      <trkpt lat="50.868000006303191" lon="9.743916001170874">
        <ele>259.69</ele>
        <time>2024-09-11T12:48:55Z</time>
      </trkpt>
      <trkpt lat="50.868045017123222" lon="9.744022032245994">
        <ele>259.20999999999998</ele>
        <time>2024-09-11T12:48:56Z</time>
      </trkpt>
      <trkpt lat="50.868101008236408" lon="9.744154969230294">
        <ele>258.73000000000002</ele>
        <time>2024-09-11T12:48:57Z</time>
      </trkpt>
      <trkpt lat="50.868163034319878" lon="9.744301987811923">
        <ele>258.25</ele>
        <time>2024-09-11T12:48:58Z</time>
      </trkpt>
      <trkpt lat="50.868299994617701" lon="9.744633994996548">
        <ele>256.81</ele>
        <time>2024-09-11T12:49:00Z</time>
      </trkpt>
      <trkpt lat="50.868338970467448" lon="9.744829041883349">
        <ele>256.32999999999998</ele>
        <time>2024-09-11T12:49:01Z</time>
      </trkpt>
      <trkpt lat="50.868378030136228" lon="9.745014030486345">
        <ele>255.84999999999999</ele>
        <time>2024-09-11T12:49:02Z</time>
      </trkpt>
      <trkpt lat="50.868417005985975" lon="9.745212011039257">
        <ele>255.37</ele>
        <time>2024-09-11T12:49:03Z</time>
      </trkpt>
      <trkpt lat="50.868428992107511" lon="9.745402028784156">
        <ele>254.88999999999999</ele>
        <time>2024-09-11T12:49:04Z</time>
      </trkpt>
      <trkpt lat="50.868428992107511" lon="9.745611995458603">
        <ele>254.88999999999999</ele>
        <time>2024-09-11T12:49:05Z</time>
      </trkpt>
      <trkpt lat="50.868397979065776" lon="9.745790027081966">
        <ele>254.41</ele>
        <time>2024-09-11T12:49:06Z</time>
      </trkpt>
      <trkpt lat="50.868365960195661" lon="9.745975015684962">
        <ele>254.41</ele>
        <time>2024-09-11T12:49:07Z</time>
      </trkpt>
      <trkpt lat="50.868333019316196" lon="9.746161010116339">
        <ele>254.41</ele>
        <time>2024-09-11T12:49:08Z</time>
      </trkpt>
      <trkpt lat="50.868301000446081" lon="9.746347004547715">
        <ele>254.41</ele>
        <time>2024-09-11T12:49:09Z</time>
      </trkpt>
      <trkpt lat="50.868022972717881" lon="9.748165961354971">
        <ele>252.96000000000001</ele>
        <time>2024-09-11T12:49:17Z</time>
      </trkpt>
      <trkpt lat="50.868011992424726" lon="9.748408030718565">
        <ele>252</ele>
        <time>2024-09-11T12:49:18Z</time>
      </trkpt>
      <trkpt lat="50.868024984374642" lon="9.748659990727902">
        <ele>251.03999999999999</ele>
        <time>2024-09-11T12:49:19Z</time>
      </trkpt>
      <trkpt lat="50.868211984634399" lon="9.751461977139115">
        <ele>240.47</ele>
        <time>2024-09-11T12:49:29Z</time>
      </trkpt>
      <trkpt lat="50.868391022086143" lon="9.754322972148657">
        <ele>232.30000000000001</ele>
        <time>2024-09-11T12:49:39Z</time>
      </trkpt>
      <trkpt lat="50.868451036512852" lon="9.756027013063431">
        <ele>229.41</ele>
        <time>2024-09-11T12:49:48Z</time>
      </trkpt>
      <trkpt lat="50.86823302321136" lon="9.758276967331767">
        <ele>228.44999999999999</ele>
        <time>2024-09-11T12:50:00Z</time>
      </trkpt>
      <trkpt lat="50.868005035445094" lon="9.760532034561038">
        <ele>227.00999999999999</ele>
        <time>2024-09-11T12:50:12Z</time>
      </trkpt>
      <trkpt lat="50.867879977449775" lon="9.761657975614071">
        <ele>225.09</ele>
        <time>2024-09-11T12:50:18Z</time>
      </trkpt>
      <trkpt lat="50.867960024625063" lon="9.76283697411418">
        <ele>223.16</ele>
        <time>2024-09-11T12:50:26Z</time>
      </trkpt>
      <trkpt lat="50.867981985211372" lon="9.763044007122517">
        <ele>222.68000000000001</ele>
        <time>2024-09-11T12:50:28Z</time>
      </trkpt>
      <trkpt lat="50.867988020181656" lon="9.76315900683403">
        <ele>222.19999999999999</ele>
        <time>2024-09-11T12:50:29Z</time>
      </trkpt>
      <trkpt lat="50.868032025173306" lon="9.764531962573528">
        <ele>219.31999999999999</ele>
        <time>2024-09-11T12:50:40Z</time>
      </trkpt>
      <trkpt lat="50.868050968274474" lon="9.764695996418595">
        <ele>218.84</ele>
        <time>2024-09-11T12:50:41Z</time>
      </trkpt>
      <trkpt lat="50.868095979094505" lon="9.764846032485366">
        <ele>218.84</ele>
        <time>2024-09-11T12:50:42Z</time>
      </trkpt>
      <trkpt lat="50.868284991011024" lon="9.765476016327739">
        <ele>218.36000000000001</ele>
        <time>2024-09-11T12:50:46Z</time>
      </trkpt>
      <trkpt lat="50.868380963802338" lon="9.765795031562448">
        <ele>218.36000000000001</ele>
        <time>2024-09-11T12:50:48Z</time>
      </trkpt>
      <trkpt lat="50.868480037897825" lon="9.766121003776789">
        <ele>218.84</ele>
        <time>2024-09-11T12:50:50Z</time>
      </trkpt>
      <trkpt lat="50.868529994040728" lon="9.766286965459585">
        <ele>218.84</ele>
        <time>2024-09-11T12:50:51Z</time>
      </trkpt>
      <trkpt lat="50.868953028693795" lon="9.768108017742634">
        <ele>224.61000000000001</ele>
        <time>2024-09-11T12:51:01Z</time>
      </trkpt>
      <trkpt lat="50.869037015363574" lon="9.768667006865144">
        <ele>225.56999999999999</ele>
        <time>2024-09-11T12:51:04Z</time>
      </trkpt>
      <trkpt lat="50.869070962071419" lon="9.769438980147243">
        <ele>226.53</ele>
        <time>2024-09-11T12:51:08Z</time>
      </trkpt>
      <trkpt lat="50.868808021768928" lon="9.771257014945149">
        <ele>227.49000000000001</ele>
        <time>2024-09-11T12:51:18Z</time>
      </trkpt>
      <trkpt lat="50.868253977969289" lon="9.773390041664243">
        <ele>225.09</ele>
        <time>2024-09-11T12:51:29Z</time>
      </trkpt>
      <trkpt lat="50.867420984432101" lon="9.775176979601383">
        <ele>224.61000000000001</ele>
        <time>2024-09-11T12:51:36Z</time>
      </trkpt>
      <trkpt lat="50.865861028432846" lon="9.778540972620249">
        <ele>231.33000000000001</ele>
        <time>2024-09-11T12:51:48Z</time>
      </trkpt>
      <trkpt lat="50.865776035934687" lon="9.778838027268648">
        <ele>232.78</ele>
        <time>2024-09-11T12:51:49Z</time>
      </trkpt>
      <trkpt lat="50.865454003214836" lon="9.780834009870887">
        <ele>238.53999999999999</ele>
        <time>2024-09-11T12:51:56Z</time>
      </trkpt>
      <trkpt lat="50.865216040983796" lon="9.782657995820046">
        <ele>239.99000000000001</ele>
        <time>2024-09-11T12:52:04Z</time>
      </trkpt>
      <trkpt lat="50.865014037117362" lon="9.783660974353552">
        <ele>241.43000000000001</ele>
        <time>2024-09-11T12:52:10Z</time>
      </trkpt>
      <trkpt lat="50.864920997992158" lon="9.784093983471394">
        <ele>241.91</ele>
        <time>2024-09-11T12:52:13Z</time>
      </trkpt>
      <trkpt lat="50.864543979987502" lon="9.785413965582848">
        <ele>245.27000000000001</ele>
        <time>2024-09-11T12:52:20Z</time>
      </trkpt>
      <trkpt lat="50.863734958693385" lon="9.787398967891932">
        <ele>252</ele>
        <time>2024-09-11T12:52:29Z</time>
      </trkpt>
      <trkpt lat="50.862639024853706" lon="9.789497964084148">
        <ele>253.93000000000001</ele>
        <time>2024-09-11T12:52:37Z</time>
      </trkpt>
      <trkpt lat="50.861480981111526" lon="9.792240019887686">
        <ele>252.47999999999999</ele>
        <time>2024-09-11T12:52:44Z</time>
      </trkpt>
      <trkpt lat="50.860100984573364" lon="9.795948006212711">
        <ele>250.56</ele>
        <time>2024-09-11T12:52:54Z</time>
      </trkpt>
      <trkpt lat="50.859390031546354" lon="9.79867497459054">
        <ele>251.52000000000001</ele>
        <time>2024-09-11T12:53:01Z</time>
      </trkpt>
      <trkpt lat="50.858728028833866" lon="9.802291011437774">
        <ele>251.03999999999999</ele>
        <time>2024-09-11T12:53:10Z</time>
      </trkpt>
      <trkpt lat="50.857982039451599" lon="9.803939983248711">
        <ele>252</ele>
        <time>2024-09-11T12:53:15Z</time>
      </trkpt>
      <trkpt lat="50.856984006240964" lon="9.805631032213569">
        <ele>253.44</ele>
        <time>2024-09-11T12:53:22Z</time>
      </trkpt>
      <trkpt lat="50.856258971616626" lon="9.807357033714652">
        <ele>255.84999999999999</ele>
        <time>2024-09-11T12:53:29Z</time>
      </trkpt>
      <trkpt lat="50.856156041845679" lon="9.807598013430834">
        <ele>256.32999999999998</ele>
        <time>2024-09-11T12:53:30Z</time>
      </trkpt>
      <trkpt lat="50.856050010770559" lon="9.80784703977406">
        <ele>256.32999999999998</ele>
        <time>2024-09-11T12:53:31Z</time>
      </trkpt>
      <trkpt lat="50.855701994150877" lon="9.808624964207411">
        <ele>257.76999999999998</ele>
        <time>2024-09-11T12:53:34Z</time>
      </trkpt>
      <trkpt lat="50.855136970058084" lon="9.810505025088787">
        <ele>260.17000000000002</ele>
        <time>2024-09-11T12:53:40Z</time>
      </trkpt>
      <trkpt lat="50.855089025571942" lon="9.810852035880089">
        <ele>260.64999999999998</ele>
        <time>2024-09-11T12:53:41Z</time>
      </trkpt>
      <trkpt lat="50.855073016136885" lon="9.811204997822642">
        <ele>260.64999999999998</ele>
        <time>2024-09-11T12:53:42Z</time>
      </trkpt>
      <trkpt lat="50.855125989764929" lon="9.813647987321019">
        <ele>259.69</ele>
        <time>2024-09-11T12:53:49Z</time>
      </trkpt>
      <trkpt lat="50.855077961459756" lon="9.814261039718986">
        <ele>259.20999999999998</ele>
        <time>2024-09-11T12:53:51Z</time>
      </trkpt>
      <trkpt lat="50.854738997295499" lon="9.816198013722897">
        <ele>258.73000000000002</ele>
        <time>2024-09-11T12:53:58Z</time>
      </trkpt>
      <trkpt lat="50.854547973722219" lon="9.81783801689744">
        <ele>256.81</ele>
        <time>2024-09-11T12:54:06Z</time>
      </trkpt>
      <trkpt lat="50.854508997872472" lon="9.818196007981896">
        <ele>256.32999999999998</ele>
        <time>2024-09-11T12:54:08Z</time>
      </trkpt>
      <trkpt lat="50.854349993169308" lon="9.818927999585867">
        <ele>255.84999999999999</ele>
        <time>2024-09-11T12:54:12Z</time>
      </trkpt>
      <trkpt lat="50.854282015934587" lon="9.819080969318748">
        <ele>255.84999999999999</ele>
        <time>2024-09-11T12:54:13Z</time>
      </trkpt>
      <trkpt lat="50.854214038699865" lon="9.81923402287066">
        <ele>255.84999999999999</ele>
        <time>2024-09-11T12:54:14Z</time>
      </trkpt>
      <trkpt lat="50.854145977646112" lon="9.81938699260354">
        <ele>255.84999999999999</ele>
        <time>2024-09-11T12:54:15Z</time>
      </trkpt>
      <trkpt lat="50.854068025946617" lon="9.819537028670311">
        <ele>255.37</ele>
        <time>2024-09-11T12:54:16Z</time>
      </trkpt>
      <trkpt lat="50.853889994323254" lon="9.819804998114705">
        <ele>254.88999999999999</ele>
        <time>2024-09-11T12:54:18Z</time>
      </trkpt>
      <trkpt lat="50.853572990745306" lon="9.820131976157427">
        <ele>253.93000000000001</ele>
        <time>2024-09-11T12:54:21Z</time>
      </trkpt>
      <trkpt lat="50.853458996862173" lon="9.820178998634219">
        <ele>253.93000000000001</ele>
        <time>2024-09-11T12:54:22Z</time>
      </trkpt>
      <trkpt lat="50.853342991322279" lon="9.820228032767773">
        <ele>253.44</ele>
        <time>2024-09-11T12:54:23Z</time>
      </trkpt>
      <trkpt lat="50.851886970922351" lon="9.820685014128685">
        <ele>253.93000000000001</ele>
        <time>2024-09-11T12:54:34Z</time>
      </trkpt>
      <trkpt lat="50.850921962410212" lon="9.821517001837492">
        <ele>253.93000000000001</ele>
        <time>2024-09-11T12:54:40Z</time>
      </trkpt>
      <trkpt lat="50.850061979144812" lon="9.823100008070469">
        <ele>255.84999999999999</ele>
        <time>2024-09-11T12:54:46Z</time>
      </trkpt>
      <trkpt lat="50.849643973633647" lon="9.823927972465754">
        <ele>257.29000000000002</ele>
        <time>2024-09-11T12:54:49Z</time>
      </trkpt>
      <trkpt lat="50.849488992244005" lon="9.824183033779264">
        <ele>258.25</ele>
        <time>2024-09-11T12:54:50Z</time>
      </trkpt>
      <trkpt lat="50.849314983934164" lon="9.824403980746865">
        <ele>258.73000000000002</ele>
        <time>2024-09-11T12:54:51Z</time>
      </trkpt>
      <trkpt lat="50.849131001159549" lon="9.824586035683751">
        <ele>259.69</ele>
        <time>2024-09-11T12:54:52Z</time>
      </trkpt>
      <trkpt lat="50.848927991464734" lon="9.82473598793149">
        <ele>260.64999999999998</ele>
        <time>2024-09-11T12:54:53Z</time>
      </trkpt>
      <trkpt lat="50.848706960678101" lon="9.824825003743172">
        <ele>261.13999999999999</ele>
        <time>2024-09-11T12:54:54Z</time>
      </trkpt>
      <trkpt lat="50.848481990396976" lon="9.824893986806274">
        <ele>262.10000000000002</ele>
        <time>2024-09-11T12:54:55Z</time>
      </trkpt>
      <trkpt lat="50.848268000409007" lon="9.824909996241331">
        <ele>262.57999999999998</ele>
        <time>2024-09-11T12:54:56Z</time>
      </trkpt>
      <trkpt lat="50.848011011257768" lon="9.824859034270048">
        <ele>263.54000000000002</ele>
        <time>2024-09-11T12:54:57Z</time>
      </trkpt>
      <trkpt lat="50.847767014056444" lon="9.824794996529818">
        <ele>264.01999999999998</ele>
        <time>2024-09-11T12:54:58Z</time>
      </trkpt>
      <trkpt lat="50.847523016855121" lon="9.82469298876822">
        <ele>264.98000000000002</ele>
        <time>2024-09-11T12:54:59Z</time>
      </trkpt>
      <trkpt lat="50.846825977787375" lon="9.824452009052038">
        <ele>266.89999999999998</ele>
        <time>2024-09-11T12:55:02Z</time>
      </trkpt>
      <trkpt lat="50.846595978364348" lon="9.824379002675414">
        <ele>267.38</ele>
        <time>2024-09-11T12:55:03Z</time>
      </trkpt>
      <trkpt lat="50.846376037225127" lon="9.824338015168905">
        <ele>267.86000000000001</ele>
        <time>2024-09-11T12:55:04Z</time>
      </trkpt>
      <trkpt lat="50.846163975074887" lon="9.824361987411976">
        <ele>268.82999999999998</ele>
        <time>2024-09-11T12:55:05Z</time>
      </trkpt>
      <trkpt lat="50.845958031713963" lon="9.824385037645698">
        <ele>269.31</ele>
        <time>2024-09-11T12:55:06Z</time>
      </trkpt>
      <trkpt lat="50.845759967342019" lon="9.824454020708799">
        <ele>270.26999999999998</ele>
        <time>2024-09-11T12:55:07Z</time>
      </trkpt>
      <trkpt lat="50.84556701593101" lon="9.824562985450029">
        <ele>270.75</ele>
        <time>2024-09-11T12:55:08Z</time>
      </trkpt>
      <trkpt lat="50.845365012064576" lon="9.824681002646685">
        <ele>271.23000000000002</ele>
        <time>2024-09-11T12:55:09Z</time>
      </trkpt>
      <trkpt lat="50.845185974612832" lon="9.824876971542835">
        <ele>271.70999999999998</ele>
        <time>2024-09-11T12:55:10Z</time>
      </trkpt>
      <trkpt lat="50.84500702098012" lon="9.825075035914779">
        <ele>272.19</ele>
        <time>2024-09-11T12:55:11Z</time>
      </trkpt>
      <trkpt lat="50.844231024384499" lon="9.825779031962156">
        <ele>275.56</ele>
        <time>2024-09-11T12:55:15Z</time>
      </trkpt>
      <trkpt lat="50.844024997204542" lon="9.825852960348129">
        <ele>276.04000000000002</ele>
        <time>2024-09-11T12:55:16Z</time>
      </trkpt>
      <trkpt lat="50.843793991953135" lon="9.825910041108728">
        <ele>277.48000000000002</ele>
        <time>2024-09-11T12:55:17Z</time>
      </trkpt>
      <trkpt lat="50.843586958944798" lon="9.825870981439948">
        <ele>278.44</ele>
        <time>2024-09-11T12:55:18Z</time>
      </trkpt>
      <trkpt lat="50.843351008370519" lon="9.825807027518749">
        <ele>279.39999999999998</ele>
        <time>2024-09-11T12:55:19Z</time>
      </trkpt>
      <trkpt lat="50.842388011515141" lon="9.825661014765501">
        <ele>283.73000000000002</ele>
        <time>2024-09-11T12:55:23Z</time>
      </trkpt>
      <trkpt lat="50.842131022363901" lon="9.825728992000222">
        <ele>285.17000000000002</ele>
        <time>2024-09-11T12:55:24Z</time>
      </trkpt>
      <trkpt lat="50.841898005455732" lon="9.825823036953807">
        <ele>286.13</ele>
        <time>2024-09-11T12:55:25Z</time>
      </trkpt>
      <trkpt lat="50.841722991317511" lon="9.82593996450305">
        <ele>287.08999999999997</ele>
        <time>2024-09-11T12:55:26Z</time>
      </trkpt>
      <trkpt lat="50.841503972187638" lon="9.826193014159799">
        <ele>288.05000000000001</ele>
        <time>2024-09-11T12:55:27Z</time>
      </trkpt>
      <trkpt lat="50.841315966099501" lon="9.826412033289671">
        <ele>288.52999999999997</ele>
        <time>2024-09-11T12:55:28Z</time>
      </trkpt>
      <trkpt lat="50.841179005801678" lon="9.826675979420543">
        <ele>289.49000000000001</ele>
        <time>2024-09-11T12:55:29Z</time>
      </trkpt>
      <trkpt lat="50.841036010533571" lon="9.82694897800684">
        <ele>290.45999999999998</ele>
        <time>2024-09-11T12:55:30Z</time>
      </trkpt>
      <trkpt lat="50.84092503413558" lon="9.827261036261916">
        <ele>291.42000000000002</ele>
        <time>2024-09-11T12:55:31Z</time>
      </trkpt>
      <trkpt lat="50.84081900306046" lon="9.827573010697961">
        <ele>292.38</ele>
        <time>2024-09-11T12:55:32Z</time>
      </trkpt>
      <trkpt lat="50.840768041089177" lon="9.827926978468895">
        <ele>292.86000000000001</ele>
        <time>2024-09-11T12:55:33Z</time>
      </trkpt>
      <trkpt lat="50.840738033875823" lon="9.828270971775055">
        <ele>293.33999999999997</ele>
        <time>2024-09-11T12:55:34Z</time>
      </trkpt>
      <trkpt lat="50.840714983642101" lon="9.828600967302918">
        <ele>293.81999999999999</ele>
        <time>2024-09-11T12:55:35Z</time>
      </trkpt>
      <trkpt lat="50.840724036097527" lon="9.828909002244473">
        <ele>294.30000000000001</ele>
        <time>2024-09-11T12:55:36Z</time>
      </trkpt>
      <trkpt lat="50.840771980583668" lon="9.830435011535883">
        <ele>296.22000000000003</ele>
        <time>2024-09-11T12:55:41Z</time>
      </trkpt>
      <trkpt lat="50.840763011947274" lon="9.830764001235366">
        <ele>296.69999999999999</ele>
        <time>2024-09-11T12:55:42Z</time>
      </trkpt>
      <trkpt lat="50.840713977813721" lon="9.831087961792946">
        <ele>297.18000000000001</ele>
        <time>2024-09-11T12:55:43Z</time>
      </trkpt>
      <trkpt lat="50.840656980872154" lon="9.831414017826319">
        <ele>297.67000000000002</ele>
        <time>2024-09-11T12:55:44Z</time>
      </trkpt>
      <trkpt lat="50.840557990595698" lon="9.831723980605602">
        <ele>297.67000000000002</ele>
        <time>2024-09-11T12:55:45Z</time>
      </trkpt>
      <trkpt lat="50.840439973399043" lon="9.832015000283718">
        <ele>298.14999999999998</ele>
        <time>2024-09-11T12:55:46Z</time>
      </trkpt>
      <trkpt lat="50.840293038636446" lon="9.832286993041635">
        <ele>298.63</ele>
        <time>2024-09-11T12:55:47Z</time>
      </trkpt>
      <trkpt lat="50.840135961771011" lon="9.832544988021255">
        <ele>299.11000000000001</ele>
        <time>2024-09-11T12:55:48Z</time>
      </trkpt>
      <trkpt lat="50.839963965117931" lon="9.832797031849623">
        <ele>299.58999999999997</ele>
        <time>2024-09-11T12:55:49Z</time>
      </trkpt>
      <trkpt lat="50.839774031192064" lon="9.833004986867309">
        <ele>300.06999999999999</ele>
        <time>2024-09-11T12:55:50Z</time>
      </trkpt>
      <trkpt lat="50.839561969041824" lon="9.833195004612207">
        <ele>300.55000000000001</ele>
        <time>2024-09-11T12:55:51Z</time>
      </trkpt>
      <trkpt lat="50.839346973225474" lon="9.833388039842248">
        <ele>301.02999999999997</ele>
        <time>2024-09-11T12:55:52Z</time>
      </trkpt>
      <trkpt lat="50.837936969473958" lon="9.834233019500971">
        <ele>304.38999999999999</ele>
        <time>2024-09-11T12:55:58Z</time>
      </trkpt>
      <trkpt lat="50.836577005684376" lon="9.834427982568741">
        <ele>309.68000000000001</ele>
        <time>2024-09-11T12:56:04Z</time>
      </trkpt>
      <trkpt lat="50.834937002509832" lon="9.83431801199913">
        <ele>315.44999999999999</ele>
        <time>2024-09-11T12:56:11Z</time>
      </trkpt>
      <trkpt lat="50.834710020571947" lon="9.834364028647542">
        <ele>316.41000000000003</ele>
        <time>2024-09-11T12:56:12Z</time>
      </trkpt>
      <trkpt lat="50.834483960643411" lon="9.834409039467573">
        <ele>317.37</ele>
        <time>2024-09-11T12:56:13Z</time>
      </trkpt>
      <trkpt lat="50.834271982312202" lon="9.834492020308971">
        <ele>318.32999999999998</ele>
        <time>2024-09-11T12:56:14Z</time>
      </trkpt>
      <trkpt lat="50.834056986495852" lon="9.834583969786763">
        <ele>318.81</ele>
        <time>2024-09-11T12:56:15Z</time>
      </trkpt>
      <trkpt lat="50.833850959315896" lon="9.834707016125321">
        <ele>319.30000000000001</ele>
        <time>2024-09-11T12:56:16Z</time>
      </trkpt>
      <trkpt lat="50.833648033440113" lon="9.83485403470695">
        <ele>319.30000000000001</ele>
        <time>2024-09-11T12:56:17Z</time>
      </trkpt>
      <trkpt lat="50.833461033180356" lon="9.835055032745004">
        <ele>319.77999999999997</ele>
        <time>2024-09-11T12:56:18Z</time>
      </trkpt>
      <trkpt lat="50.833284007385373" lon="9.835273968055844">
        <ele>320.25999999999999</ele>
        <time>2024-09-11T12:56:19Z</time>
      </trkpt>
      <trkpt lat="50.833113016560674" lon="9.835513019934297">
        <ele>320.74000000000001</ele>
        <time>2024-09-11T12:56:20Z</time>
      </trkpt>
      <trkpt lat="50.832942025735974" lon="9.83575601130724">
        <ele>321.22000000000003</ele>
        <time>2024-09-11T12:56:21Z</time>
      </trkpt>
      <trkpt lat="50.832784026861191" lon="9.836024986580014">
        <ele>321.69999999999999</ele>
        <time>2024-09-11T12:56:22Z</time>
      </trkpt>
      <trkpt lat="50.831732014194131" lon="9.837981993332505">
        <ele>322.18000000000001</ele>
        <time>2024-09-11T12:56:29Z</time>
      </trkpt>
      <trkpt lat="50.831001028418541" lon="9.838818004354835">
        <ele>319.77999999999997</ele>
        <time>2024-09-11T12:56:33Z</time>
      </trkpt>
      <trkpt lat="50.830799024552107" lon="9.838991006836295">
        <ele>319.30000000000001</ele>
        <time>2024-09-11T12:56:34Z</time>
      </trkpt>
      <trkpt lat="50.830578999593854" lon="9.839093014597893">
        <ele>318.32999999999998</ele>
        <time>2024-09-11T12:56:35Z</time>
      </trkpt>
      <trkpt lat="50.830360986292362" lon="9.839184964075685">
        <ele>317.37</ele>
        <time>2024-09-11T12:56:36Z</time>
      </trkpt>
      <trkpt lat="50.830137021839619" lon="9.839258976280689">
        <ele>316.88999999999999</ele>
        <time>2024-09-11T12:56:37Z</time>
      </trkpt>
      <trkpt lat="50.829676017165184" lon="9.839284038171172">
        <ele>315.44999999999999</ele>
        <time>2024-09-11T12:56:39Z</time>
      </trkpt>
      <trkpt lat="50.829444006085396" lon="9.839251013472676">
        <ele>314.97000000000003</ele>
        <time>2024-09-11T12:56:40Z</time>
      </trkpt>
      <trkpt lat="50.829218029975891" lon="9.8392169829458">
        <ele>314.49000000000001</ele>
        <time>2024-09-11T12:56:41Z</time>
      </trkpt>
      <trkpt lat="50.827705012634397" lon="9.838557997718453">
        <ele>313.52999999999997</ele>
        <time>2024-09-11T12:56:48Z</time>
      </trkpt>
      <trkpt lat="50.826085964217782" lon="9.837825000286102">
        <ele>317.37</ele>
        <time>2024-09-11T12:56:56Z</time>
      </trkpt>
      <trkpt lat="50.824565989896655" lon="9.838025998324156">
        <ele>317.37</ele>
        <time>2024-09-11T12:57:03Z</time>
      </trkpt>
      <trkpt lat="50.822660028934479" lon="9.83883099630475">
        <ele>313.05000000000001</ele>
        <time>2024-09-11T12:57:12Z</time>
      </trkpt>
      <trkpt lat="50.821659984067082" lon="9.839052027091384">
        <ele>311.12</ele>
        <time>2024-09-11T12:57:18Z</time>
      </trkpt>
      <trkpt lat="50.82092204131186" lon="9.839449999853969">
        <ele>310.16000000000003</ele>
        <time>2024-09-11T12:57:25Z</time>
      </trkpt>
      <trkpt lat="50.82051501609385" lon="9.839744037017226">
        <ele>309.68000000000001</ele>
        <time>2024-09-11T12:57:29Z</time>
      </trkpt>
      <trkpt lat="50.820413008332253" lon="9.839816959574819">
        <ele>309.68000000000001</ele>
        <time>2024-09-11T12:57:30Z</time>
      </trkpt>
      <trkpt lat="50.820136992260814" lon="9.840016029775143">
        <ele>309.19999999999999</ele>
        <time>2024-09-11T12:57:33Z</time>
      </trkpt>
      <trkpt lat="50.820028027519584" lon="9.840124994516373">
        <ele>309.68000000000001</ele>
        <time>2024-09-11T12:57:34Z</time>
      </trkpt>
      <trkpt lat="50.819939011707902" lon="9.840214010328054">
        <ele>309.68000000000001</ele>
        <time>2024-09-11T12:57:35Z</time>
      </trkpt>
      <trkpt lat="50.819857958704233" lon="9.840294979512692">
        <ele>309.68000000000001</ele>
        <time>2024-09-11T12:57:36Z</time>
      </trkpt>
      <trkpt lat="50.819802973419428" lon="9.84042196534574">
        <ele>309.68000000000001</ele>
        <time>2024-09-11T12:57:37Z</time>
      </trkpt>
      <trkpt lat="50.819728961214423" lon="9.840595973655582">
        <ele>309.68000000000001</ele>
        <time>2024-09-11T12:57:38Z</time>
      </trkpt>
      <trkpt lat="50.819716975092888" lon="9.840708039700985">
        <ele>309.68000000000001</ele>
        <time>2024-09-11T12:57:39Z</time>
      </trkpt>
      <trkpt lat="50.819699037820101" lon="9.840876013040543">
        <ele>309.68000000000001</ele>
        <time>2024-09-11T12:57:40Z</time>
      </trkpt>
      <trkpt lat="50.819681016728282" lon="9.841045998036861">
        <ele>309.19999999999999</ele>
        <time>2024-09-11T12:57:41Z</time>
      </trkpt>
      <trkpt lat="50.819661989808083" lon="9.841221012175083">
        <ele>309.19999999999999</ele>
        <time>2024-09-11T12:57:42Z</time>
      </trkpt>
      <trkpt lat="50.819583032280207" lon="9.841962978243828">
        <ele>308.24000000000001</ele>
        <time>2024-09-11T12:57:46Z</time>
      </trkpt>
      <trkpt lat="50.819479012861848" lon="9.842313006520271">
        <ele>308.24000000000001</ele>
        <time>2024-09-11T12:57:48Z</time>
      </trkpt>
      <trkpt lat="50.81937700510025" lon="9.84265498816967">
        <ele>308.24000000000001</ele>
        <time>2024-09-11T12:57:50Z</time>
      </trkpt>
      <trkpt lat="50.819308022037148" lon="9.842790020629764">
        <ele>308.24000000000001</ele>
        <time>2024-09-11T12:57:51Z</time>
      </trkpt>
      <trkpt lat="50.81922504119575" lon="9.842924969270825">
        <ele>307.75999999999999</ele>
        <time>2024-09-11T12:57:52Z</time>
      </trkpt>
      <trkpt lat="50.819137031212449" lon="9.8430419806391">
        <ele>308.24000000000001</ele>
        <time>2024-09-11T12:57:53Z</time>
      </trkpt>
      <trkpt lat="50.819040974602103" lon="9.843153962865472">
        <ele>308.24000000000001</ele>
        <time>2024-09-11T12:57:54Z</time>
      </trkpt>
      <trkpt lat="50.818948019295931" lon="9.843263011425734">
        <ele>308.24000000000001</ele>
        <time>2024-09-11T12:57:55Z</time>
      </trkpt>
      <trkpt lat="50.818854980170727" lon="9.843371976166964">
        <ele>307.75999999999999</ele>
        <time>2024-09-11T12:57:56Z</time>
      </trkpt>
      <trkpt lat="50.818759007379413" lon="9.843483958393335">
        <ele>308.24000000000001</ele>
        <time>2024-09-11T12:57:57Z</time>
      </trkpt>
      <trkpt lat="50.818664040416479" lon="9.843595018610358">
        <ele>308.24000000000001</ele>
        <time>2024-09-11T12:57:58Z</time>
      </trkpt>
      <trkpt lat="50.818244023248553" lon="9.844276970252395">
        <ele>308.72000000000003</ele>
        <time>2024-09-11T12:58:04Z</time>
      </trkpt>
      <trkpt lat="50.818170011043549" lon="9.844384007155895">
        <ele>308.72000000000003</ele>
        <time>2024-09-11T12:58:05Z</time>
      </trkpt>
      <trkpt lat="50.818098010495305" lon="9.844479979947209">
        <ele>309.19999999999999</ele>
        <time>2024-09-11T12:58:06Z</time>
      </trkpt>
      <trkpt lat="50.818002037703991" lon="9.844578970223665">
        <ele>309.19999999999999</ele>
        <time>2024-09-11T12:58:07Z</time>
      </trkpt>
      <trkpt lat="50.817918973043561" lon="9.844689024612308">
        <ele>309.68000000000001</ele>
        <time>2024-09-11T12:58:08Z</time>
      </trkpt>
      <trkpt lat="50.817033005878329" lon="9.845719998702407">
        <ele>308.72000000000003</ele>
        <time>2024-09-11T12:58:18Z</time>
      </trkpt>
      <trkpt lat="50.816072020679712" lon="9.846660029143095">
        <ele>308.72000000000003</ele>
        <time>2024-09-11T12:58:28Z</time>
      </trkpt>
      <trkpt lat="50.815739007666707" lon="9.846892040222883">
        <ele>309.19999999999999</ele>
        <time>2024-09-11T12:58:31Z</time>
      </trkpt>
      <trkpt lat="50.814728988334537" lon="9.847669964656234">
        <ele>308.72000000000003</ele>
        <time>2024-09-11T12:58:40Z</time>
      </trkpt>
      <trkpt lat="50.813673958182335" lon="9.848502036184073">
        <ele>312.56999999999999</ele>
        <time>2024-09-11T12:58:51Z</time>
      </trkpt>
      <trkpt lat="50.81353398039937" lon="9.848608989268541">
        <ele>314.00999999999999</ele>
        <time>2024-09-11T12:58:55Z</time>
      </trkpt>
      <trkpt lat="50.813483018428087" lon="9.848733963444829">
        <ele>314.49000000000001</ele>
        <time>2024-09-11T12:58:56Z</time>
      </trkpt>
      <trkpt lat="50.813515959307551" lon="9.848848963156343">
        <ele>314.97000000000003</ele>
        <time>2024-09-11T12:58:57Z</time>
      </trkpt>
      <trkpt lat="50.813557030633092" lon="9.848991958424449">
        <ele>315.44999999999999</ele>
        <time>2024-09-11T12:58:58Z</time>
      </trkpt>
      <trkpt lat="50.813604975119233" lon="9.849161021411419">
        <ele>315.93000000000001</ele>
        <time>2024-09-11T12:58:59Z</time>
      </trkpt>
      <trkpt lat="50.813986016437411" lon="9.851079974323511">
        <ele>317.37</ele>
        <time>2024-09-11T12:59:08Z</time>
      </trkpt>
      <trkpt lat="50.814106967300177" lon="9.853877015411854">
        <ele>320.74000000000001</ele>
        <time>2024-09-11T12:59:18Z</time>
      </trkpt>
      <trkpt lat="50.814188020303845" lon="9.857583995908499">
        <ele>324.57999999999998</ele>
        <time>2024-09-11T12:59:30Z</time>
      </trkpt>
      <trkpt lat="50.814550034701824" lon="9.860128993168473">
        <ele>327.47000000000003</ele>
        <time>2024-09-11T12:59:38Z</time>
      </trkpt>
      <trkpt lat="50.815399959683418" lon="9.862683964893222">
        <ele>331.31</ele>
        <time>2024-09-11T12:59:47Z</time>
      </trkpt>
      <trkpt lat="50.81660502590239" lon="9.865252012386918">
        <ele>336.12</ele>
        <time>2024-09-11T12:59:57Z</time>
      </trkpt>
      <trkpt lat="50.817072987556458" lon="9.866431010887027">
        <ele>338.51999999999998</ele>
        <time>2024-09-11T13:00:03Z</time>
      </trkpt>
      <trkpt lat="50.81765603274107" lon="9.868493964895606">
        <ele>343.32999999999998</ele>
        <time>2024-09-11T13:00:11Z</time>
      </trkpt>
      <trkpt lat="50.818029027432203" lon="9.871251024305821">
        <ele>347.64999999999998</ele>
        <time>2024-09-11T13:00:19Z</time>
      </trkpt>
      <trkpt lat="50.81840998493135" lon="9.875836009159684">
        <ele>357.26999999999998</ele>
        <time>2024-09-11T13:00:31Z</time>
      </trkpt>
      <trkpt lat="50.818629004061222" lon="9.879036974161863">
        <ele>364</ele>
        <time>2024-09-11T13:00:40Z</time>
      </trkpt>
      <trkpt lat="50.818337984383106" lon="9.881549030542374">
        <ele>367.83999999999997</ele>
        <time>2024-09-11T13:00:48Z</time>
      </trkpt>
      <trkpt lat="50.817643040791154" lon="9.885799996554852">
        <ele>372.17000000000002</ele>
        <time>2024-09-11T13:01:01Z</time>
      </trkpt>
      <trkpt lat="50.817581014707685" lon="9.888918986544013">
        <ele>372.17000000000002</ele>
        <time>2024-09-11T13:01:09Z</time>
      </trkpt>
      <trkpt lat="50.818075966089964" lon="9.892767034471035">
        <ele>364.95999999999998</ele>
        <time>2024-09-11T13:01:18Z</time>
      </trkpt>
      <trkpt lat="50.819019014015794" lon="9.89696997217834">
        <ele>347.17000000000002</ele>
        <time>2024-09-11T13:01:28Z</time>
      </trkpt>
      <trkpt lat="50.820337990298867" lon="9.90096596069634">
        <ele>327.94999999999999</ele>
        <time>2024-09-11T13:01:38Z</time>
      </trkpt>
      <trkpt lat="50.821206020191312" lon="9.903603997081518">
        <ele>320.25999999999999</ele>
        <time>2024-09-11T13:01:45Z</time>
      </trkpt>
      <trkpt lat="50.821637017652392" lon="9.905622024089098">
        <ele>316.41000000000003</ele>
        <time>2024-09-11T13:01:51Z</time>
      </trkpt>
      <trkpt lat="50.822437992319465" lon="9.90910797379911">
        <ele>311.60000000000002</ele>
        <time>2024-09-11T13:02:03Z</time>
      </trkpt>
      <trkpt lat="50.823505008593202" lon="9.911592034623027">
        <ele>307.27999999999997</ele>
        <time>2024-09-11T13:02:12Z</time>
      </trkpt>
      <trkpt lat="50.825063958764076" lon="9.914626032114029">
        <ele>297.67000000000002</ele>
        <time>2024-09-11T13:02:23Z</time>
      </trkpt>
      <trkpt lat="50.825989991426468" lon="9.917132975533605">
        <ele>293.33999999999997</ele>
        <time>2024-09-11T13:02:31Z</time>
      </trkpt>
      <trkpt lat="50.827273009344935" lon="9.920095978304744">
        <ele>294.77999999999997</ele>
        <time>2024-09-11T13:02:41Z</time>
      </trkpt>
      <trkpt lat="50.827968036755919" lon="9.922352973371744">
        <ele>295.74000000000001</ele>
        <time>2024-09-11T13:02:48Z</time>
      </trkpt>
      <trkpt lat="50.828835982829332" lon="9.92500701919198">
        <ele>288.52999999999997</ele>
        <time>2024-09-11T13:02:56Z</time>
      </trkpt>
      <trkpt lat="50.830025961622596" lon="9.926883978769183">
        <ele>281.80000000000001</ele>
        <time>2024-09-11T13:03:03Z</time>
      </trkpt>
      <trkpt lat="50.830953000113368" lon="9.928617021068931">
        <ele>276.04000000000002</ele>
        <time>2024-09-11T13:03:09Z</time>
      </trkpt>
      <trkpt lat="50.831132037565112" lon="9.928856994956732">
        <ele>275.06999999999999</ele>
        <time>2024-09-11T13:03:10Z</time>
      </trkpt>
      <trkpt lat="50.832484038546681" lon="9.930505966767669">
        <ele>270.26999999999998</ele>
        <time>2024-09-11T13:03:17Z</time>
      </trkpt>
      <trkpt lat="50.833688015118241" lon="9.931741962209344">
        <ele>268.35000000000002</ele>
        <time>2024-09-11T13:03:23Z</time>
      </trkpt>
      <trkpt lat="50.835651978850365" lon="9.933749008923769">
        <ele>265.45999999999998</ele>
        <time>2024-09-11T13:03:33Z</time>
      </trkpt>
      <trkpt lat="50.83695100620389" lon="9.935896033421159">
        <ele>263.06</ele>
        <time>2024-09-11T13:03:41Z</time>
      </trkpt>
      <trkpt lat="50.838084993883967" lon="9.937605019658804">
        <ele>258.25</ele>
        <time>2024-09-11T13:03:49Z</time>
      </trkpt>
      <trkpt lat="50.838826959952712" lon="9.938502972945571">
        <ele>252.96000000000001</ele>
        <time>2024-09-11T13:03:57Z</time>
      </trkpt>
      <trkpt lat="50.839685015380383" lon="9.939305037260056">
        <ele>249.12</ele>
        <time>2024-09-11T13:04:08Z</time>
      </trkpt>
      <trkpt lat="50.839763972908258" lon="9.939372008666396">
        <ele>249.12</ele>
        <time>2024-09-11T13:04:09Z</time>
      </trkpt>
      <trkpt lat="50.840535024181008" lon="9.939929991960526">
        <ele>249.12</ele>
        <time>2024-09-11T13:04:19Z</time>
      </trkpt>
      <trkpt lat="50.841217981651425" lon="9.940382027998567">
        <ele>248.16</ele>
        <time>2024-09-11T13:04:28Z</time>
      </trkpt>
      <trkpt lat="50.84187101572752" lon="9.940766002982855">
        <ele>246.72</ele>
        <time>2024-09-11T13:04:34Z</time>
      </trkpt>
      <trkpt lat="50.842888997867703" lon="9.941330021247268">
        <ele>244.31</ele>
        <time>2024-09-11T13:04:40Z</time>
      </trkpt>
      <trkpt lat="50.843159984797239" lon="9.941479973495007">
        <ele>242.87</ele>
        <time>2024-09-11T13:04:42Z</time>
      </trkpt>
      <trkpt lat="50.844609970226884" lon="9.9424749892205">
        <ele>234.69999999999999</ele>
        <time>2024-09-11T13:04:53Z</time>
      </trkpt>
      <trkpt lat="50.845571961253881" lon="9.943878035992384">
        <ele>233.25999999999999</ele>
        <time>2024-09-11T13:05:02Z</time>
      </trkpt>
      <trkpt lat="50.846328008919954" lon="9.945686012506485">
        <ele>234.22</ele>
        <time>2024-09-11T13:05:10Z</time>
      </trkpt>
      <trkpt lat="50.847205007448792" lon="9.948609033599496">
        <ele>234.22</ele>
        <time>2024-09-11T13:05:20Z</time>
      </trkpt>
      <trkpt lat="50.847619995474815" lon="9.950393959879875">
        <ele>233.74000000000001</ele>
        <time>2024-09-11T13:05:27Z</time>
      </trkpt>
      <trkpt lat="50.847890982404351" lon="9.951833970844746">
        <ele>233.25999999999999</ele>
        <time>2024-09-11T13:05:35Z</time>
      </trkpt>
      <trkpt lat="50.848380988463759" lon="9.953762982040644">
        <ele>233.25999999999999</ele>
        <time>2024-09-11T13:05:46Z</time>
      </trkpt>
      <trkpt lat="50.84904701448977" lon="9.955762987956405">
        <ele>227.97</ele>
        <time>2024-09-11T13:05:58Z</time>
      </trkpt>
      <trkpt lat="50.849109962582588" lon="9.956476958468556">
        <ele>225.09</ele>
        <time>2024-09-11T13:06:02Z</time>
      </trkpt>
      <trkpt lat="50.849120020866394" lon="9.956601010635495">
        <ele>224.61000000000001</ele>
        <time>2024-09-11T13:06:03Z</time>
      </trkpt>
      <trkpt lat="50.849125972017646" lon="9.956686003133655">
        <ele>224.12</ele>
        <time>2024-09-11T13:06:04Z</time>
      </trkpt>
      <trkpt lat="50.849129995331168" lon="9.956741994246841">
        <ele>223.63999999999999</ele>
        <time>2024-09-11T13:06:05Z</time>
      </trkpt>
      <trkpt lat="50.849132006987929" lon="9.956773007288575">
        <ele>223.63999999999999</ele>
        <time>2024-09-11T13:06:06Z</time>
      </trkpt>
      <trkpt lat="50.84904701448977" lon="9.957051035016775">
        <ele>222.68000000000001</ele>
        <time>2024-09-11T13:06:15Z</time>
      </trkpt>
      <trkpt lat="50.848992029204965" lon="9.957089005038142">
        <ele>222.68000000000001</ele>
        <time>2024-09-11T13:06:16Z</time>
      </trkpt>
      <trkpt lat="50.848924973979592" lon="9.957135021686554">
        <ele>222.68000000000001</ele>
        <time>2024-09-11T13:06:17Z</time>
      </trkpt>
      <trkpt lat="50.848850039765239" lon="9.957185983657837">
        <ele>222.68000000000001</ele>
        <time>2024-09-11T13:06:18Z</time>
      </trkpt>
      <trkpt lat="50.848774015903473" lon="9.95725798420608">
        <ele>222.68000000000001</ele>
        <time>2024-09-11T13:06:19Z</time>
      </trkpt>
      <trkpt lat="50.848698997870088" lon="9.957354962825775">
        <ele>222.19999999999999</ele>
        <time>2024-09-11T13:06:20Z</time>
      </trkpt>
      <trkpt lat="50.848622974008322" lon="9.957453031092882">
        <ele>222.19999999999999</ele>
        <time>2024-09-11T13:06:21Z</time>
      </trkpt>
      <trkpt lat="50.848552985116839" lon="9.957563001662493">
        <ele>222.19999999999999</ele>
        <time>2024-09-11T13:06:22Z</time>
      </trkpt>
      <trkpt lat="50.848486013710499" lon="9.95768403634429">
        <ele>221.72</ele>
        <time>2024-09-11T13:06:23Z</time>
      </trkpt>
      <trkpt lat="50.848432034254074" lon="9.957830971106887">
        <ele>221.72</ele>
        <time>2024-09-11T13:06:24Z</time>
      </trkpt>
      <trkpt lat="50.847763996571302" lon="9.95949100703001">
        <ele>221.72</ele>
        <time>2024-09-11T13:06:35Z</time>
      </trkpt>
      <trkpt lat="50.84694198332727" lon="9.961089016869664">
        <ele>224.12</ele>
        <time>2024-09-11T13:06:47Z</time>
      </trkpt>
      <trkpt lat="50.846357010304928" lon="9.962349990382791">
        <ele>225.56999999999999</ele>
        <time>2024-09-11T13:06:57Z</time>
      </trkpt>
      <trkpt lat="50.846218038350344" lon="9.962660958990455">
        <ele>227.49000000000001</ele>
        <time>2024-09-11T13:07:05Z</time>
      </trkpt>
      <trkpt lat="50.846049981191754" lon="9.963001012802124">
        <ele>227.97</ele>
        <time>2024-09-11T13:07:15Z</time>
      </trkpt>
      <trkpt lat="50.845916960388422" lon="9.963201005011797">
        <ele>227.97</ele>
        <time>2024-09-11T13:07:17Z</time>
      </trkpt>
      <trkpt lat="50.845166025683284" lon="9.964369023218751">
        <ele>228.93000000000001</ele>
        <time>2024-09-11T13:07:28Z</time>
      </trkpt>
      <trkpt lat="50.844507962465286" lon="9.966059988364577">
        <ele>231.33000000000001</ele>
        <time>2024-09-11T13:07:39Z</time>
      </trkpt>
      <trkpt lat="50.844225995242596" lon="9.966875966638327">
        <ele>231.81</ele>
        <time>2024-09-11T13:07:44Z</time>
      </trkpt>
      <trkpt lat="50.844164974987507" lon="9.967051986604929">
        <ele>231.81</ele>
        <time>2024-09-11T13:07:45Z</time>
      </trkpt>
      <trkpt lat="50.844103032723069" lon="9.967230018228293">
        <ele>232.30000000000001</ele>
        <time>2024-09-11T13:07:46Z</time>
      </trkpt>
      <trkpt lat="50.844043018296361" lon="9.967402014881373">
        <ele>232.78</ele>
        <time>2024-09-11T13:07:47Z</time>
      </trkpt>
      <trkpt lat="50.843994989991188" lon="9.967585997655988">
        <ele>232.78</ele>
        <time>2024-09-11T13:07:48Z</time>
      </trkpt>
      <trkpt lat="50.843946961686015" lon="9.967766962945461">
        <ele>233.25999999999999</ele>
        <time>2024-09-11T13:07:49Z</time>
      </trkpt>
      <trkpt lat="50.843904968351126" lon="9.967957986518741">
        <ele>233.25999999999999</ele>
        <time>2024-09-11T13:07:50Z</time>
      </trkpt>
      <trkpt lat="50.843882001936436" lon="9.968151021748781">
        <ele>233.74000000000001</ele>
        <time>2024-09-11T13:07:51Z</time>
      </trkpt>
      <trkpt lat="50.843722997233272" lon="9.969706032425165">
        <ele>234.22</ele>
        <time>2024-09-11T13:07:59Z</time>
      </trkpt>
      <trkpt lat="50.843161996454" lon="9.97162900865078">
        <ele>237.09999999999999</ele>
        <time>2024-09-11T13:08:11Z</time>
      </trkpt>
      <trkpt lat="50.842696968466043" lon="9.973273035138845">
        <ele>240.94999999999999</ele>
        <time>2024-09-11T13:08:21Z</time>
      </trkpt>
      <trkpt lat="50.842205034568906" lon="9.975994974374771">
        <ele>238.53999999999999</ele>
        <time>2024-09-11T13:08:36Z</time>
      </trkpt>
      <trkpt lat="50.841821981593966" lon="9.978542989119887">
        <ele>236.13999999999999</ele>
        <time>2024-09-11T13:08:50Z</time>
      </trkpt>
      <trkpt lat="50.84135795943439" lon="9.980369992554188">
        <ele>239.02000000000001</ele>
        <time>2024-09-11T13:09:00Z</time>
      </trkpt>
      <trkpt lat="50.84060300141573" lon="9.983229981735349">
        <ele>239.50999999999999</ele>
        <time>2024-09-11T13:09:13Z</time>
      </trkpt>
      <trkpt lat="50.840101009234786" lon="9.985588984563947">
        <ele>238.53999999999999</ele>
        <time>2024-09-11T13:09:23Z</time>
      </trkpt>
      <trkpt lat="50.840030014514923" lon="9.988242024555802">
        <ele>235.66</ele>
        <time>2024-09-11T13:09:34Z</time>
      </trkpt>
      <trkpt lat="50.839991960674524" lon="9.989702990278602">
        <ele>232.30000000000001</ele>
        <time>2024-09-11T13:09:42Z</time>
      </trkpt>
      <trkpt lat="50.839982992038131" lon="9.98997900635004">
        <ele>231.33000000000001</ele>
        <time>2024-09-11T13:09:45Z</time>
      </trkpt>
      <trkpt lat="50.839963965117931" lon="9.990143962204456">
        <ele>230.37</ele>
        <time>2024-09-11T13:09:53Z</time>
      </trkpt>
      <trkpt lat="50.839932030066848" lon="9.990559034049511">
        <ele>227.49000000000001</ele>
        <time>2024-09-11T13:10:17Z</time>
      </trkpt>
      <trkpt lat="50.839756010100245" lon="9.992037015035749">
        <ele>224.61000000000001</ele>
        <time>2024-09-11T13:10:27Z</time>
      </trkpt>
      <trkpt lat="50.839565992355347" lon="9.994389982894063">
        <ele>225.56999999999999</ele>
        <time>2024-09-11T13:10:41Z</time>
      </trkpt>
      <trkpt lat="50.839504972100258" lon="9.995445013046265">
        <ele>226.05000000000001</ele>
        <time>2024-09-11T13:10:50Z</time>
      </trkpt>
      <trkpt lat="50.839496003463864" lon="9.995594965294004">
        <ele>226.05000000000001</ele>
        <time>2024-09-11T13:10:52Z</time>
      </trkpt>
      <trkpt lat="50.839492985978723" lon="9.995656991377473">
        <ele>226.05000000000001</ele>
        <time>2024-09-11T13:10:53Z</time>
      </trkpt>
      <trkpt lat="50.839473959058523" lon="9.995979024097323">
        <ele>226.05000000000001</ele>
        <time>2024-09-11T13:11:01Z</time>
      </trkpt>
      <trkpt lat="50.839455015957355" lon="9.996304996311665">
        <ele>226.53</ele>
        <time>2024-09-11T13:11:04Z</time>
      </trkpt>
      <trkpt lat="50.839448980987072" lon="9.996421001851559">
        <ele>226.53</ele>
        <time>2024-09-11T13:11:05Z</time>
      </trkpt>
      <trkpt lat="50.839446969330311" lon="9.996784022077918">
        <ele>227.00999999999999</ele>
        <time>2024-09-11T13:11:08Z</time>
      </trkpt>
      <trkpt lat="50.839353008195758" lon="9.998447997495532">
        <ele>230.84999999999999</ele>
        <time>2024-09-11T13:11:18Z</time>
      </trkpt>
      <trkpt lat="50.839276984333992" lon="9.9991749599576">
        <ele>233.25999999999999</ele>
        <time>2024-09-11T13:11:22Z</time>
      </trkpt>
      <trkpt lat="50.839240020141006" lon="9.99934402294457">
        <ele>234.22</ele>
        <time>2024-09-11T13:11:23Z</time>
      </trkpt>
      <trkpt lat="50.8391850348562" lon="9.999507972970605">
        <ele>235.18000000000001</ele>
        <time>2024-09-11T13:11:24Z</time>
      </trkpt>
      <trkpt lat="50.839126026257873" lon="9.99966798350215">
        <ele>235.66</ele>
        <time>2024-09-11T13:11:25Z</time>
      </trkpt>
      <trkpt lat="50.839056959375739" lon="9.999819025397301">
        <ele>236.62</ele>
        <time>2024-09-11T13:11:26Z</time>
      </trkpt>
      <trkpt lat="50.838987976312637" lon="9.999974006786943">
        <ele>237.58000000000001</ele>
        <time>2024-09-11T13:11:27Z</time>
      </trkpt>
      <trkpt lat="50.838915975764394" lon="10.000136028975248">
        <ele>238.06</ele>
        <time>2024-09-11T13:11:28Z</time>
      </trkpt>
      <trkpt lat="50.838846992701292" lon="10.000306013971567">
        <ele>238.06</ele>
        <time>2024-09-11T13:11:29Z</time>
      </trkpt>
      <trkpt lat="50.838782032951713" lon="10.000493014231324">
        <ele>238.53999999999999</ele>
        <time>2024-09-11T13:11:30Z</time>
      </trkpt>
      <trkpt lat="50.838697962462902" lon="10.000733993947506">
        <ele>239.02000000000001</ele>
        <time>2024-09-11T13:11:31Z</time>
      </trkpt>
      <trkpt lat="50.838299989700317" lon="10.002212980762124">
        <ele>240.94999999999999</ele>
        <time>2024-09-11T13:11:37Z</time>
      </trkpt>
      <trkpt lat="50.837557017803192" lon="10.004305019974709">
        <ele>242.87</ele>
        <time>2024-09-11T13:11:44Z</time>
      </trkpt>
      <trkpt lat="50.83714596927166" lon="10.005289977416396">
        <ele>242.87</ele>
        <time>2024-09-11T13:11:48Z</time>
      </trkpt>
      <trkpt lat="50.837030969560146" lon="10.00553397461772">
        <ele>242.87</ele>
        <time>2024-09-11T13:11:49Z</time>
      </trkpt>
      <trkpt lat="50.836904989555478" lon="10.005775960162282">
        <ele>242.87</ele>
        <time>2024-09-11T13:11:50Z</time>
      </trkpt>
      <trkpt lat="50.836749002337456" lon="10.005979975685477">
        <ele>242.87</ele>
        <time>2024-09-11T13:11:51Z</time>
      </trkpt>
      <trkpt lat="50.836592009291053" lon="10.006183991208673">
        <ele>242.87</ele>
        <time>2024-09-11T13:11:52Z</time>
      </trkpt>
      <trkpt lat="50.835343021899462" lon="10.007438007742167">
        <ele>239.99000000000001</ele>
        <time>2024-09-11T13:11:59Z</time>
      </trkpt>
      <trkpt lat="50.833673011511564" lon="10.008918000385165">
        <ele>234.69999999999999</ele>
        <time>2024-09-11T13:12:08Z</time>
      </trkpt>
      <trkpt lat="50.832512034103274" lon="10.010521039366722">
        <ele>230.37</ele>
        <time>2024-09-11T13:12:15Z</time>
      </trkpt>
      <trkpt lat="50.831714998930693" lon="10.012934021651745">
        <ele>228.44999999999999</ele>
        <time>2024-09-11T13:12:23Z</time>
      </trkpt>
      <trkpt lat="50.831392966210842" lon="10.015628971159458">
        <ele>227.49000000000001</ele>
        <time>2024-09-11T13:12:31Z</time>
      </trkpt>
      <trkpt lat="50.830868007615209" lon="10.018994975835085">
        <ele>227.49000000000001</ele>
        <time>2024-09-11T13:12:41Z</time>
      </trkpt>
      <trkpt lat="50.83039803430438" lon="10.020726006478071">
        <ele>227.49000000000001</ele>
        <time>2024-09-11T13:12:48Z</time>
      </trkpt>
      <trkpt lat="50.829974999651313" lon="10.022030984982848">
        <ele>227.00999999999999</ele>
        <time>2024-09-11T13:12:56Z</time>
      </trkpt>
      <trkpt lat="50.829684985801578" lon="10.022857021540403">
        <ele>226.53</ele>
        <time>2024-09-11T13:13:01Z</time>
      </trkpt>
      <trkpt lat="50.829654978588223" lon="10.023006973788142">
        <ele>226.53</ele>
        <time>2024-09-11T13:13:02Z</time>
      </trkpt>
      <trkpt lat="50.829456998035312" lon="10.023876009508967">
        <ele>227.00999999999999</ele>
        <time>2024-09-11T13:13:07Z</time>
      </trkpt>
      <trkpt lat="50.829392038285732" lon="10.024019004777074">
        <ele>227.00999999999999</ele>
        <time>2024-09-11T13:13:08Z</time>
      </trkpt>
      <trkpt lat="50.829329006373882" lon="10.024159988388419">
        <ele>227.49000000000001</ele>
        <time>2024-09-11T13:13:09Z</time>
      </trkpt>
      <trkpt lat="50.828844029456377" lon="10.025239996612072">
        <ele>226.05000000000001</ele>
        <time>2024-09-11T13:13:18Z</time>
      </trkpt>
      <trkpt lat="50.828805975615978" lon="10.025351978838444">
        <ele>226.05000000000001</ele>
        <time>2024-09-11T13:13:19Z</time>
      </trkpt>
      <trkpt lat="50.828805975615978" lon="10.025505032390356">
        <ele>225.56999999999999</ele>
        <time>2024-09-11T13:13:20Z</time>
      </trkpt>
      <trkpt lat="50.828805975615978" lon="10.025677029043436">
        <ele>225.56999999999999</ele>
        <time>2024-09-11T13:13:21Z</time>
      </trkpt>
      <trkpt lat="50.828805975615978" lon="10.025861011818051">
        <ele>225.56999999999999</ele>
        <time>2024-09-11T13:13:22Z</time>
      </trkpt>
      <trkpt lat="50.828828020021319" lon="10.026054969057441">
        <ele>225.56999999999999</ele>
        <time>2024-09-11T13:13:23Z</time>
      </trkpt>
      <trkpt lat="50.828946959227324" lon="10.027389032766223">
        <ele>225.56999999999999</ele>
        <time>2024-09-11T13:13:29Z</time>
      </trkpt>
      <trkpt lat="50.828936984762549" lon="10.027617020532489">
        <ele>226.05000000000001</ele>
        <time>2024-09-11T13:13:30Z</time>
      </trkpt>
      <trkpt lat="50.828923992812634" lon="10.0278340280056">
        <ele>226.05000000000001</ele>
        <time>2024-09-11T13:13:31Z</time>
      </trkpt>
      <trkpt lat="50.828903038054705" lon="10.028038965538144">
        <ele>226.05000000000001</ele>
        <time>2024-09-11T13:13:32Z</time>
      </trkpt>
      <trkpt lat="50.828868001699448" lon="10.028224959969521">
        <ele>226.53</ele>
        <time>2024-09-11T13:13:33Z</time>
      </trkpt>
      <trkpt lat="50.828822990879416" lon="10.028402991592884">
        <ele>227.00999999999999</ele>
        <time>2024-09-11T13:13:34Z</time>
      </trkpt>
      <trkpt lat="50.828633978962898" lon="10.028951000422239">
        <ele>228.93000000000001</ele>
        <time>2024-09-11T13:13:38Z</time>
      </trkpt>
      <trkpt lat="50.828582011163235" lon="10.029016966000199">
        <ele>228.93000000000001</ele>
        <time>2024-09-11T13:13:39Z</time>
      </trkpt>
      <trkpt lat="50.828549992293119" lon="10.029056025668979">
        <ele>229.41</ele>
        <time>2024-09-11T13:13:40Z</time>
      </trkpt>
      <trkpt lat="50.828524008393288" lon="10.029088966548443">
        <ele>229.88999999999999</ele>
        <time>2024-09-11T13:13:41Z</time>
      </trkpt>
      <trkpt lat="50.828461982309818" lon="10.029165996238589">
        <ele>229.88999999999999</ele>
        <time>2024-09-11T13:13:42Z</time>
      </trkpt>
      <trkpt lat="50.828443039208651" lon="10.029182005673647">
        <ele>230.37</ele>
        <time>2024-09-11T13:13:43Z</time>
      </trkpt>
      <trkpt lat="50.828385958448052" lon="10.0292310398072">
        <ele>230.84999999999999</ele>
        <time>2024-09-11T13:13:44Z</time>
      </trkpt>
      <trkpt lat="50.828327033668756" lon="10.029280995950103">
        <ele>230.84999999999999</ele>
        <time>2024-09-11T13:13:45Z</time>
      </trkpt>
      <trkpt lat="50.828276993706822" lon="10.029326006770134">
        <ele>231.33000000000001</ele>
        <time>2024-09-11T13:13:46Z</time>
      </trkpt>
      <trkpt lat="50.828316975384951" lon="10.029320977628231">
        <ele>231.81</ele>
        <time>2024-09-11T13:13:47Z</time>
      </trkpt>
      <trkpt lat="50.828334996476769" lon="10.029420973733068">
        <ele>231.81</ele>
        <time>2024-09-11T13:13:48Z</time>
      </trkpt>
      <trkpt lat="50.828355029225349" lon="10.029529016464949">
        <ele>232.30000000000001</ele>
        <time>2024-09-11T13:13:49Z</time>
      </trkpt>
      <trkpt lat="50.828375983983278" lon="10.029645022004843">
        <ele>232.30000000000001</ele>
        <time>2024-09-11T13:13:50Z</time>
      </trkpt>
      <trkpt lat="50.82840196788311" lon="10.02978902310133">
        <ele>232.30000000000001</ele>
        <time>2024-09-11T13:13:51Z</time>
      </trkpt>
      <trkpt lat="50.829338980838656" lon="10.035036010667682">
        <ele>230.37</ele>
        <time>2024-09-11T13:14:18Z</time>
      </trkpt>
      <trkpt lat="50.829395977780223" lon="10.035359971225262">
        <ele>230.84999999999999</ele>
        <time>2024-09-11T13:14:21Z</time>
      </trkpt>
      <trkpt lat="50.829435959458351" lon="10.035583013668656">
        <ele>230.84999999999999</ele>
        <time>2024-09-11T13:14:24Z</time>
      </trkpt>
      <trkpt lat="50.829451968893409" lon="10.035674041137099">
        <ele>230.84999999999999</ele>
        <time>2024-09-11T13:14:25Z</time>
      </trkpt>
      <trkpt lat="50.829508965834975" lon="10.035996995866299">
        <ele>231.33000000000001</ele>
        <time>2024-09-11T13:14:28Z</time>
      </trkpt>
      <trkpt lat="50.82975497469306" lon="10.037286970764399">
        <ele>230.84999999999999</ele>
        <time>2024-09-11T13:14:38Z</time>
      </trkpt>
      <trkpt lat="50.830101985484362" lon="10.039239032194018">
        <ele>230.84999999999999</ele>
        <time>2024-09-11T13:14:48Z</time>
      </trkpt>
      <trkpt lat="50.830759964883327" lon="10.041685039177537">
        <ele>231.33000000000001</ele>
        <time>2024-09-11T13:14:59Z</time>
      </trkpt>
      <trkpt lat="50.831302022561431" lon="10.043558981269598">
        <ele>232.78</ele>
        <time>2024-09-11T13:15:07Z</time>
      </trkpt>
      <trkpt lat="50.831894958391786" lon="10.045680021867156">
        <ele>231.33000000000001</ele>
        <time>2024-09-11T13:15:17Z</time>
      </trkpt>
      <trkpt lat="50.832411032170057" lon="10.047965012490749">
        <ele>232.78</ele>
        <time>2024-09-11T13:15:28Z</time>
      </trkpt>
      <trkpt lat="50.83293498493731" lon="10.050258971750736">
        <ele>234.69999999999999</ele>
        <time>2024-09-11T13:15:38Z</time>
      </trkpt>
      <trkpt lat="50.833547031506896" lon="10.052605988457799">
        <ele>234.69999999999999</ele>
        <time>2024-09-11T13:15:46Z</time>
      </trkpt>
      <trkpt lat="50.834032008424401" lon="10.054355040192604">
        <ele>234.69999999999999</ele>
        <time>2024-09-11T13:15:52Z</time>
      </trkpt>
      <trkpt lat="50.83443702198565" lon="10.055657001212239">
        <ele>234.22</ele>
        <time>2024-09-11T13:15:57Z</time>
      </trkpt>
      <trkpt lat="50.834521008655429" lon="10.055876020342112">
        <ele>234.22</ele>
        <time>2024-09-11T13:15:58Z</time>
      </trkpt>
      <trkpt lat="50.834903977811337" lon="10.056738015264273">
        <ele>233.74000000000001</ele>
        <time>2024-09-11T13:16:02Z</time>
      </trkpt>
      <trkpt lat="50.835003973916173" lon="10.0569489877671">
        <ele>233.74000000000001</ele>
        <time>2024-09-11T13:16:03Z</time>
      </trkpt>
      <trkpt lat="50.835106987506151" lon="10.057165995240211">
        <ele>233.74000000000001</ele>
        <time>2024-09-11T13:16:04Z</time>
      </trkpt>
      <trkpt lat="50.83521100692451" lon="10.057386020198464">
        <ele>233.74000000000001</ele>
        <time>2024-09-11T13:16:05Z</time>
      </trkpt>
      <trkpt lat="50.835312008857727" lon="10.057600010186434">
        <ele>233.74000000000001</ele>
        <time>2024-09-11T13:16:06Z</time>
      </trkpt>
      <trkpt lat="50.835777036845684" lon="10.058758975937963">
        <ele>231.81</ele>
        <time>2024-09-11T13:16:11Z</time>
      </trkpt>
      <trkpt lat="50.836301995441318" lon="10.060656974092126">
        <ele>228.44999999999999</ele>
        <time>2024-09-11T13:16:18Z</time>
      </trkpt>
      <trkpt lat="50.836739027872682" lon="10.062253978103399">
        <ele>227.97</ele>
        <time>2024-09-11T13:16:24Z</time>
      </trkpt>
      <trkpt lat="50.837241020053625" lon="10.064094979315996">
        <ele>228.44999999999999</ele>
        <time>2024-09-11T13:16:29Z</time>
      </trkpt>
      <trkpt lat="50.837750975042582" lon="10.066021978855133">
        <ele>230.37</ele>
        <time>2024-09-11T13:16:35Z</time>
      </trkpt>
      <trkpt lat="50.838325973600149" lon="10.068884985521436">
        <ele>230.84999999999999</ele>
        <time>2024-09-11T13:16:44Z</time>
      </trkpt>
      <trkpt lat="50.838788989931345" lon="10.073202000930905">
        <ele>229.41</ele>
        <time>2024-09-11T13:16:56Z</time>
      </trkpt>
      <trkpt lat="50.838868031278253" lon="10.075252968817949">
        <ele>228.93000000000001</ele>
        <time>2024-09-11T13:17:03Z</time>
      </trkpt>
      <trkpt lat="50.83884104155004" lon="10.077675003558397">
        <ele>227.49000000000001</ele>
        <time>2024-09-11T13:17:14Z</time>
      </trkpt>
      <trkpt lat="50.838807011023164" lon="10.079275025054812">
        <ele>227.00999999999999</ele>
        <time>2024-09-11T13:17:23Z</time>
      </trkpt>
      <trkpt lat="50.838614981621504" lon="10.080722998827696">
        <ele>227.97</ele>
        <time>2024-09-11T13:17:33Z</time>
      </trkpt>
      <trkpt lat="50.838429993018508" lon="10.081316018477082">
        <ele>227.97</ele>
        <time>2024-09-11T13:17:42Z</time>
      </trkpt>
      <trkpt lat="50.838357992470264" lon="10.08154802955687">
        <ele>227.97</ele>
        <time>2024-09-11T13:17:45Z</time>
      </trkpt>
      <trkpt lat="50.838335026055574" lon="10.081621035933495">
        <ele>227.97</ele>
        <time>2024-09-11T13:17:46Z</time>
      </trkpt>
      <trkpt lat="50.838309964165092" lon="10.081700999289751">
        <ele>227.97</ele>
        <time>2024-09-11T13:17:47Z</time>
      </trkpt>
      <trkpt lat="50.83828398026526" lon="10.08178498595953">
        <ele>227.97</ele>
        <time>2024-09-11T13:17:48Z</time>
      </trkpt>
      <trkpt lat="50.838256990537047" lon="10.08187199011445">
        <ele>227.97</ele>
        <time>2024-09-11T13:17:49Z</time>
      </trkpt>
      <trkpt lat="50.838139979168773" lon="10.081995036453009">
        <ele>227.97</ele>
        <time>2024-09-11T13:17:50Z</time>
      </trkpt>
      <trkpt lat="50.838139979168773" lon="10.081995036453009">
        <ele>227.97</ele>
        <time>2024-09-11T13:17:51Z</time>
      </trkpt>
      <trkpt lat="50.83809002302587" lon="10.08204398676753">
        <ele>227.97</ele>
        <time>2024-09-11T13:17:52Z</time>
      </trkpt>
      <trkpt lat="50.838050963357091" lon="10.082109030336142">
        <ele>227.97</ele>
        <time>2024-09-11T13:17:53Z</time>
      </trkpt>
      <trkpt lat="50.838038977235556" lon="10.082211038097739">
        <ele>227.97</ele>
        <time>2024-09-11T13:17:54Z</time>
      </trkpt>
      <trkpt lat="50.838044006377459" lon="10.082303993403912">
        <ele>227.97</ele>
        <time>2024-09-11T13:17:55Z</time>
      </trkpt>
      <trkpt lat="50.838078036904335" lon="10.082394015043974">
        <ele>228.44999999999999</ele>
        <time>2024-09-11T13:17:56Z</time>
      </trkpt>
      <trkpt lat="50.838121036067605" lon="10.08245000615716">
        <ele>228.44999999999999</ele>
        <time>2024-09-11T13:17:57Z</time>
      </trkpt>
      <trkpt lat="50.838188007473946" lon="10.082462998107076">
        <ele>228.93000000000001</ele>
        <time>2024-09-11T13:17:58Z</time>
      </trkpt>
      <trkpt lat="50.838257996365428" lon="10.08243097923696">
        <ele>228.93000000000001</ele>
        <time>2024-09-11T13:17:59Z</time>
      </trkpt>
      <trkpt lat="50.838333014398813" lon="10.082381023094058">
        <ele>228.93000000000001</ele>
        <time>2024-09-11T13:18:00Z</time>
      </trkpt>
      <trkpt lat="50.838443990796804" lon="10.082406001165509">
        <ele>229.41</ele>
        <time>2024-09-11T13:18:01Z</time>
      </trkpt>
      <trkpt lat="50.838555973023176" lon="10.082432990893722">
        <ele>229.88999999999999</ele>
        <time>2024-09-11T13:18:02Z</time>
      </trkpt>
      <trkpt lat="50.838676001876593" lon="10.082468027248979">
        <ele>230.37</ele>
        <time>2024-09-11T13:18:03Z</time>
      </trkpt>
      <trkpt lat="50.839632041752338" lon="10.083238994702697">
        <ele>232.78</ele>
        <time>2024-09-11T13:18:11Z</time>
      </trkpt>
      <trkpt lat="50.8407530374825" lon="10.084353033453226">
        <ele>235.66</ele>
        <time>2024-09-11T13:18:21Z</time>
      </trkpt>
      <trkpt lat="50.841858023777604" lon="10.085139004513621">
        <ele>235.18000000000001</ele>
        <time>2024-09-11T13:18:29Z</time>
      </trkpt>
      <trkpt lat="50.843497021123767" lon="10.085922041907907">
        <ele>233.74000000000001</ele>
        <time>2024-09-11T13:18:37Z</time>
      </trkpt>
      <trkpt lat="50.844261031597853" lon="10.086299981921911">
        <ele>233.25999999999999</ele>
        <time>2024-09-11T13:18:41Z</time>
      </trkpt>
      <trkpt lat="50.844411989673972" lon="10.086463009938598">
        <ele>233.25999999999999</ele>
        <time>2024-09-11T13:18:42Z</time>
      </trkpt>
      <trkpt lat="50.844531012699008" lon="10.086653027683496">
        <ele>233.25999999999999</ele>
        <time>2024-09-11T13:18:43Z</time>
      </trkpt>
      <trkpt lat="50.844619022682309" lon="10.086862994357944">
        <ele>233.25999999999999</ele>
        <time>2024-09-11T13:18:44Z</time>
      </trkpt>
      <trkpt lat="50.844705021008849" lon="10.087096011266112">
        <ele>233.74000000000001</ele>
        <time>2024-09-11T13:18:45Z</time>
      </trkpt>
      <trkpt lat="50.84479495882988" lon="10.087348977103829">
        <ele>233.74000000000001</ele>
        <time>2024-09-11T13:18:46Z</time>
      </trkpt>
      <trkpt lat="50.844880035147071" lon="10.087630022317171">
        <ele>233.74000000000001</ele>
        <time>2024-09-11T13:18:47Z</time>
      </trkpt>
      <trkpt lat="50.84552401676774" lon="10.090259006246924">
        <ele>232.78</ele>
        <time>2024-09-11T13:18:55Z</time>
      </trkpt>
      <trkpt lat="50.845748987048864" lon="10.091444039717317">
        <ele>232.30000000000001</ele>
        <time>2024-09-11T13:18:59Z</time>
      </trkpt>
      <trkpt lat="50.845768013969064" lon="10.091702034696937">
        <ele>232.30000000000001</ele>
        <time>2024-09-11T13:19:00Z</time>
      </trkpt>
      <trkpt lat="50.845753010362387" lon="10.092709036543965">
        <ele>231.81</ele>
        <time>2024-09-11T13:19:06Z</time>
      </trkpt>
      <trkpt lat="50.845744963735342" lon="10.092799980193377">
        <ele>231.33000000000001</ele>
        <time>2024-09-11T13:19:07Z</time>
      </trkpt>
      <trkpt lat="50.845799027010798" lon="10.092920009046793">
        <ele>231.33000000000001</ele>
        <time>2024-09-11T13:19:08Z</time>
      </trkpt>
      <trkpt lat="50.84586700424552" lon="10.092944987118244">
        <ele>231.33000000000001</ele>
        <time>2024-09-11T13:19:09Z</time>
      </trkpt>
      <trkpt lat="50.845959959551692" lon="10.092981029301882">
        <ele>231.33000000000001</ele>
        <time>2024-09-11T13:19:10Z</time>
      </trkpt>
      <trkpt lat="50.846070013940334" lon="10.09302101098001">
        <ele>231.33000000000001</ele>
        <time>2024-09-11T13:19:11Z</time>
      </trkpt>
      <trkpt lat="50.846195993945003" lon="10.093063004314899">
        <ele>231.33000000000001</ele>
        <time>2024-09-11T13:19:12Z</time>
      </trkpt>
      <trkpt lat="50.846333038061857" lon="10.093120001256466">
        <ele>230.84999999999999</ele>
        <time>2024-09-11T13:19:13Z</time>
      </trkpt>
      <trkpt lat="50.847538020461798" lon="10.09368896484375">
        <ele>232.30000000000001</ele>
        <time>2024-09-11T13:19:20Z</time>
      </trkpt>
      <trkpt lat="50.847723009064794" lon="10.093863978981972">
        <ele>232.78</ele>
        <time>2024-09-11T13:19:21Z</time>
      </trkpt>
      <trkpt lat="50.849261004477739" lon="10.095284041017294">
        <ele>235.18000000000001</ele>
        <time>2024-09-11T13:19:29Z</time>
      </trkpt>
      <trkpt lat="50.849966006353498" lon="10.095704980194569">
        <ele>235.18000000000001</ele>
        <time>2024-09-11T13:19:34Z</time>
      </trkpt>
      <trkpt lat="50.851298980414867" lon="10.096457004547119">
        <ele>236.62</ele>
        <time>2024-09-11T13:19:45Z</time>
      </trkpt>
      <trkpt lat="50.852634971961379" lon="10.097150020301342">
        <ele>237.09999999999999</ele>
        <time>2024-09-11T13:19:56Z</time>
      </trkpt>
      <trkpt lat="50.852777967229486" lon="10.097177010029554">
        <ele>237.09999999999999</ele>
        <time>2024-09-11T13:19:57Z</time>
      </trkpt>
      <trkpt lat="50.852939989417791" lon="10.097144991159439">
        <ele>237.09999999999999</ele>
        <time>2024-09-11T13:19:58Z</time>
      </trkpt>
      <trkpt lat="50.853096982464194" lon="10.097056981176138">
        <ele>237.09999999999999</ele>
        <time>2024-09-11T13:19:59Z</time>
      </trkpt>
      <trkpt lat="50.853263027966022" lon="10.096961008384824">
        <ele>236.62</ele>
        <time>2024-09-11T13:20:00Z</time>
      </trkpt>
      <trkpt lat="50.854124017059803" lon="10.096475025638938">
        <ele>235.66</ele>
        <time>2024-09-11T13:20:05Z</time>
      </trkpt>
      <trkpt lat="50.854266006499529" lon="10.096418028697371">
        <ele>235.66</ele>
        <time>2024-09-11T13:20:06Z</time>
      </trkpt>
      <trkpt lat="50.854395003989339" lon="10.096468990668654">
        <ele>235.66</ele>
        <time>2024-09-11T13:20:07Z</time>
      </trkpt>
      <trkpt lat="50.854520983994007" lon="10.096526993438601">
        <ele>235.66</ele>
        <time>2024-09-11T13:20:08Z</time>
      </trkpt>
      <trkpt lat="50.854631038382649" lon="10.096658002585173">
        <ele>235.66</ele>
        <time>2024-09-11T13:20:09Z</time>
      </trkpt>
      <trkpt lat="50.854758024215698" lon="10.096848020330071">
        <ele>235.66</ele>
        <time>2024-09-11T13:20:10Z</time>
      </trkpt>
      <trkpt lat="50.854902025312185" lon="10.097063016146421">
        <ele>235.66</ele>
        <time>2024-09-11T13:20:11Z</time>
      </trkpt>
      <trkpt lat="50.856186971068382" lon="10.099086994305253">
        <ele>237.58000000000001</ele>
        <time>2024-09-11T13:20:19Z</time>
      </trkpt>
      <trkpt lat="50.856860959902406" lon="10.100091984495521">
        <ele>239.99000000000001</ele>
        <time>2024-09-11T13:20:24Z</time>
      </trkpt>
      <trkpt lat="50.85699699819088" lon="10.100210001692176">
        <ele>240.47</ele>
        <time>2024-09-11T13:20:25Z</time>
      </trkpt>
      <trkpt lat="50.85714996792376" lon="10.100287031382322">
        <ele>240.94999999999999</ele>
        <time>2024-09-11T13:20:26Z</time>
      </trkpt>
      <trkpt lat="50.857301009818912" lon="10.100361965596676">
        <ele>241.91</ele>
        <time>2024-09-11T13:20:27Z</time>
      </trkpt>
      <trkpt lat="50.85747099481523" lon="10.100349979475141">
        <ele>242.38999999999999</ele>
        <time>2024-09-11T13:20:28Z</time>
      </trkpt>
      <trkpt lat="50.857637962326407" lon="10.100325001403689">
        <ele>243.34999999999999</ele>
        <time>2024-09-11T13:20:29Z</time>
      </trkpt>
      <trkpt lat="50.857783975079656" lon="10.100237997248769">
        <ele>244.31</ele>
        <time>2024-09-11T13:20:30Z</time>
      </trkpt>
      <trkpt lat="50.857896963134408" lon="10.100099025294185">
        <ele>244.78999999999999</ele>
        <time>2024-09-11T13:20:31Z</time>
      </trkpt>
      <trkpt lat="50.857973992824554" lon="10.099921999499202">
        <ele>245.27000000000001</ele>
        <time>2024-09-11T13:20:32Z</time>
      </trkpt>
      <trkpt lat="50.858034007251263" lon="10.099674984812737">
        <ele>245.75</ele>
        <time>2024-09-11T13:20:33Z</time>
      </trkpt>
      <trkpt lat="50.858099972829223" lon="10.099405003711581">
        <ele>245.75</ele>
        <time>2024-09-11T13:20:34Z</time>
      </trkpt>
      <trkpt lat="50.858171973377466" lon="10.099110966548324">
        <ele>246.22999999999999</ele>
        <time>2024-09-11T13:20:35Z</time>
      </trkpt>
      <trkpt lat="50.858709001913667" lon="10.096755987033248">
        <ele>248.63999999999999</ele>
        <time>2024-09-11T13:20:42Z</time>
      </trkpt>
      <trkpt lat="50.859048971906304" lon="10.095547987148166">
        <ele>248.63999999999999</ele>
        <time>2024-09-11T13:20:47Z</time>
      </trkpt>
      <trkpt lat="50.859127007424831" lon="10.09538303129375">
        <ele>249.12</ele>
        <time>2024-09-11T13:20:48Z</time>
      </trkpt>
      <trkpt lat="50.859207976609468" lon="10.095284963026643">
        <ele>249.12</ele>
        <time>2024-09-11T13:20:49Z</time>
      </trkpt>
      <trkpt lat="50.859300009906292" lon="10.095201982185245">
        <ele>249.12</ele>
        <time>2024-09-11T13:20:50Z</time>
      </trkpt>
      <trkpt lat="50.85938299074769" lon="10.095126964151859">
        <ele>249.59999999999999</ele>
        <time>2024-09-11T13:20:51Z</time>
      </trkpt>
      <trkpt lat="50.859492961317301" lon="10.095116989687085">
        <ele>249.59999999999999</ele>
        <time>2024-09-11T13:20:52Z</time>
      </trkpt>
      <trkpt lat="50.859615001827478" lon="10.09510600939393">
        <ele>250.08000000000001</ele>
        <time>2024-09-11T13:20:53Z</time>
      </trkpt>
      <trkpt lat="50.859741987660527" lon="10.095164012163877">
        <ele>250.56</ele>
        <time>2024-09-11T13:20:54Z</time>
      </trkpt>
      <trkpt lat="50.859894035384059" lon="10.095236012712121">
        <ele>251.03999999999999</ele>
        <time>2024-09-11T13:20:55Z</time>
      </trkpt>
      <trkpt lat="50.860062008723617" lon="10.095315976068377">
        <ele>251.03999999999999</ele>
        <time>2024-09-11T13:20:56Z</time>
      </trkpt>
      <trkpt lat="50.86131501942873" lon="10.095944032073021">
        <ele>252.96000000000001</ele>
        <time>2024-09-11T13:21:02Z</time>
      </trkpt>
      <trkpt lat="50.862082969397306" lon="10.096387015655637">
        <ele>253.44</ele>
        <time>2024-09-11T13:21:06Z</time>
      </trkpt>
      <trkpt lat="50.862233005464077" lon="10.096547026187181">
        <ele>253.44</ele>
        <time>2024-09-11T13:21:07Z</time>
      </trkpt>
      <trkpt lat="50.863188039511442" lon="10.09789701551199">
        <ele>255.37</ele>
        <time>2024-09-11T13:21:13Z</time>
      </trkpt>
      <trkpt lat="50.863662958145142" lon="10.098568992689252">
        <ele>256.32999999999998</ele>
        <time>2024-09-11T13:21:16Z</time>
      </trkpt>
      <trkpt lat="50.864857966080308" lon="10.099672973155975">
        <ele>257.76999999999998</ele>
        <time>2024-09-11T13:21:23Z</time>
      </trkpt>
      <trkpt lat="50.865100035443902" lon="10.099892998114228">
        <ele>258.25</ele>
        <time>2024-09-11T13:21:25Z</time>
      </trkpt>
      <trkpt lat="50.865209000185132" lon="10.099990982562304">
        <ele>258.25</ele>
        <time>2024-09-11T13:21:26Z</time>
      </trkpt>
      <trkpt lat="50.866141989827156" lon="10.100834034383297">
        <ele>261.62</ele>
        <time>2024-09-11T13:21:35Z</time>
      </trkpt>
      <trkpt lat="50.86690197698772" lon="10.101349018514156">
        <ele>264.5</ele>
        <time>2024-09-11T13:21:42Z</time>
      </trkpt>
      <trkpt lat="50.867014965042472" lon="10.101353963837028">
        <ele>264.98000000000002</ele>
        <time>2024-09-11T13:21:43Z</time>
      </trkpt>
      <trkpt lat="50.867131976410747" lon="10.101320017129183">
        <ele>265.45999999999998</ele>
        <time>2024-09-11T13:21:44Z</time>
      </trkpt>
      <trkpt lat="50.867492984980345" lon="10.101214991882443">
        <ele>265.94</ele>
        <time>2024-09-11T13:21:47Z</time>
      </trkpt>
      <trkpt lat="50.867613013833761" lon="10.101180039346218">
        <ele>266.42000000000002</ele>
        <time>2024-09-11T13:21:48Z</time>
      </trkpt>
      <trkpt lat="50.867730025202036" lon="10.101242987439036">
        <ele>266.89999999999998</ele>
        <time>2024-09-11T13:21:49Z</time>
      </trkpt>
      <trkpt lat="50.86784896440804" lon="10.10131599381566">
        <ele>267.38</ele>
        <time>2024-09-11T13:21:50Z</time>
      </trkpt>
      <trkpt lat="50.86797502823174" lon="10.101392017677426">
        <ele>267.86000000000001</ele>
        <time>2024-09-11T13:21:51Z</time>
      </trkpt>
      <trkpt lat="50.86810695938766" lon="10.101472986862063">
        <ele>268.35000000000002</ele>
        <time>2024-09-11T13:21:52Z</time>
      </trkpt>
      <trkpt lat="50.868241991847754" lon="10.101555967703462">
        <ele>268.82999999999998</ele>
        <time>2024-09-11T13:21:53Z</time>
      </trkpt>
      <trkpt lat="50.868769967928529" lon="10.101801976561546">
        <ele>271.23000000000002</ele>
        <time>2024-09-11T13:21:57Z</time>
      </trkpt>
      <trkpt lat="50.868887985125184" lon="10.101822009310126">
        <ele>271.70999999999998</ele>
        <time>2024-09-11T13:21:58Z</time>
      </trkpt>
      <trkpt lat="50.868998961523175" lon="10.101800970733166">
        <ele>272.19</ele>
        <time>2024-09-11T13:21:59Z</time>
      </trkpt>
      <trkpt lat="50.869113961234689" lon="10.101780015975237">
        <ele>272.67000000000002</ele>
        <time>2024-09-11T13:22:00Z</time>
      </trkpt>
      <trkpt lat="50.869218986481428" lon="10.101706003770232">
        <ele>273.14999999999998</ele>
        <time>2024-09-11T13:22:01Z</time>
      </trkpt>
      <trkpt lat="50.869327029213309" lon="10.101622017100453">
        <ele>274.11000000000001</ele>
        <time>2024-09-11T13:22:02Z</time>
      </trkpt>
      <trkpt lat="50.8694380056113" lon="10.101537024602294">
        <ele>274.58999999999997</ele>
        <time>2024-09-11T13:22:03Z</time>
      </trkpt>
      <trkpt lat="50.869551999494433" lon="10.101448008790612">
        <ele>275.06999999999999</ele>
        <time>2024-09-11T13:22:04Z</time>
      </trkpt>
      <trkpt lat="50.869664987549186" lon="10.101373996585608">
        <ele>275.56</ele>
        <time>2024-09-11T13:22:05Z</time>
      </trkpt>
      <trkpt lat="50.870600994676352" lon="10.101063027977943">
        <ele>277.48000000000002</ele>
        <time>2024-09-11T13:22:13Z</time>
      </trkpt>
      <trkpt lat="50.870719011873007" lon="10.101104015484452">
        <ele>277.48000000000002</ele>
        <time>2024-09-11T13:22:14Z</time>
      </trkpt>
      <trkpt lat="50.870839040726423" lon="10.101147014647722">
        <ele>277.95999999999998</ele>
        <time>2024-09-11T13:22:15Z</time>
      </trkpt>
      <trkpt lat="50.87094197049737" lon="10.101201999932528">
        <ele>277.95999999999998</ele>
        <time>2024-09-11T13:22:16Z</time>
      </trkpt>
      <trkpt lat="50.871015982702374" lon="10.101321022957563">
        <ele>278.44</ele>
        <time>2024-09-11T13:22:17Z</time>
      </trkpt>
      <trkpt lat="50.87109100073576" lon="10.101441973820329">
        <ele>278.92000000000002</ele>
        <time>2024-09-11T13:22:18Z</time>
      </trkpt>
      <trkpt lat="50.871206000447273" lon="10.101627968251705">
        <ele>279.39999999999998</ele>
        <time>2024-09-11T13:22:19Z</time>
      </trkpt>
      <trkpt lat="50.871285041794181" lon="10.10195997543633">
        <ele>279.88</ele>
        <time>2024-09-11T13:22:21Z</time>
      </trkpt>
      <trkpt lat="50.871333992108703" lon="10.10217203758657">
        <ele>279.88</ele>
        <time>2024-09-11T13:22:22Z</time>
      </trkpt>
      <trkpt lat="50.871385959908366" lon="10.102407988160849">
        <ele>280.36000000000001</ele>
        <time>2024-09-11T13:22:23Z</time>
      </trkpt>
      <trkpt lat="50.871917037293315" lon="10.10440899990499">
        <ele>281.80000000000001</ele>
        <time>2024-09-11T13:22:31Z</time>
      </trkpt>
      <trkpt lat="50.87235901504755" lon="10.105652036145329">
        <ele>282.76999999999998</ele>
        <time>2024-09-11T13:22:36Z</time>
      </trkpt>
      <trkpt lat="50.872486000880599" lon="10.105858985334635">
        <ele>283.25</ele>
        <time>2024-09-11T13:22:37Z</time>
      </trkpt>
      <trkpt lat="50.872622961178422" lon="10.106031987816095">
        <ele>283.25</ele>
        <time>2024-09-11T13:22:38Z</time>
      </trkpt>
      <trkpt lat="50.872780960053205" lon="10.106197027489543">
        <ele>283.73000000000002</ele>
        <time>2024-09-11T13:22:39Z</time>
      </trkpt>
      <trkpt lat="50.872935019433498" lon="10.106358965858817">
        <ele>283.73000000000002</ele>
        <time>2024-09-11T13:22:40Z</time>
      </trkpt>
      <trkpt lat="50.873072985559702" lon="10.106543032452464">
        <ele>284.20999999999998</ele>
        <time>2024-09-11T13:22:41Z</time>
      </trkpt>
      <trkpt lat="50.873158983886242" lon="10.106671024113894">
        <ele>284.20999999999998</ele>
        <time>2024-09-11T13:22:42Z</time>
      </trkpt>
      <trkpt lat="50.873200977221131" lon="10.106863975524902">
        <ele>284.69</ele>
        <time>2024-09-11T13:22:43Z</time>
      </trkpt>
      <trkpt lat="50.873242970556021" lon="10.107147032395005">
        <ele>284.69</ele>
        <time>2024-09-11T13:22:44Z</time>
      </trkpt>
      <trkpt lat="50.873280018568039" lon="10.107391029596329">
        <ele>285.17000000000002</ele>
        <time>2024-09-11T13:22:45Z</time>
      </trkpt>
      <trkpt lat="50.873318994417787" lon="10.107658999040723">
        <ele>285.17000000000002</ele>
        <time>2024-09-11T13:22:46Z</time>
      </trkpt>
      <trkpt lat="50.873360987752676" lon="10.107939038425684">
        <ele>285.17000000000002</ele>
        <time>2024-09-11T13:22:47Z</time>
      </trkpt>
      <trkpt lat="50.873430976644158" lon="10.108224023133516">
        <ele>285.64999999999998</ele>
        <time>2024-09-11T13:22:48Z</time>
      </trkpt>
      <trkpt lat="50.873514963313937" lon="10.108501967042685">
        <ele>285.64999999999998</ele>
        <time>2024-09-11T13:22:49Z</time>
      </trkpt>
      <trkpt lat="50.873620994389057" lon="10.10872702114284">
        <ele>286.13</ele>
        <time>2024-09-11T13:22:50Z</time>
      </trkpt>
      <trkpt lat="50.873744962736964" lon="10.108909998089075">
        <ele>286.13</ele>
        <time>2024-09-11T13:22:51Z</time>
      </trkpt>
      <trkpt lat="50.873869014903903" lon="10.109033966436982">
        <ele>286.13</ele>
        <time>2024-09-11T13:22:52Z</time>
      </trkpt>
      <trkpt lat="50.873999018222094" lon="10.109106972813606">
        <ele>286.61000000000001</ele>
        <time>2024-09-11T13:22:53Z</time>
      </trkpt>
      <trkpt lat="50.874135978519917" lon="10.10915600694716">
        <ele>287.08999999999997</ele>
        <time>2024-09-11T13:22:54Z</time>
      </trkpt>
      <trkpt lat="50.874274028465152" lon="10.109120970591903">
        <ele>287.56999999999999</ele>
        <time>2024-09-11T13:22:55Z</time>
      </trkpt>
      <trkpt lat="50.874424986541271" lon="10.109074031934142">
        <ele>287.56999999999999</ele>
        <time>2024-09-11T13:22:56Z</time>
      </trkpt>
      <trkpt lat="50.874580973759294" lon="10.108954003080726">
        <ele>288.05000000000001</ele>
        <time>2024-09-11T13:22:57Z</time>
      </trkpt>
      <trkpt lat="50.874747019261122" lon="10.108828023076057">
        <ele>288.05000000000001</ele>
        <time>2024-09-11T13:22:58Z</time>
      </trkpt>
      <trkpt lat="50.874911975115538" lon="10.108689973130822">
        <ele>288.52999999999997</ele>
        <time>2024-09-11T13:22:59Z</time>
      </trkpt>
      <trkpt lat="50.875221015885472" lon="10.108444970101118">
        <ele>288.52999999999997</ele>
        <time>2024-09-11T13:23:01Z</time>
      </trkpt>
      <trkpt lat="50.875424025580287" lon="10.108301974833012">
        <ele>289.49000000000001</ele>
        <time>2024-09-11T13:23:03Z</time>
      </trkpt>
      <trkpt lat="50.875579006969929" lon="10.108244977891445">
        <ele>289.49000000000001</ele>
        <time>2024-09-11T13:23:06Z</time>
      </trkpt>
      <trkpt lat="50.875604990869761" lon="10.108237015083432">
        <ele>289.49000000000001</ele>
        <time>2024-09-11T13:23:07Z</time>
      </trkpt>
      <trkpt lat="50.875604990869761" lon="10.108237015083432">
        <ele>289.49000000000001</ele>
        <time>2024-09-11T13:23:08Z</time>
      </trkpt>
      <trkpt lat="50.875604990869761" lon="10.108237015083432">
        <ele>289.97000000000003</ele>
        <time>2024-09-11T13:23:09Z</time>
      </trkpt>
      <trkpt lat="50.875654025003314" lon="10.108250007033348">
        <ele>289.97000000000003</ele>
        <time>2024-09-11T13:23:10Z</time>
      </trkpt>
      <trkpt lat="50.875654025003314" lon="10.108250007033348">
        <ele>290.45999999999998</ele>
        <time>2024-09-11T13:23:11Z</time>
      </trkpt>
      <trkpt lat="50.875654025003314" lon="10.108250007033348">
        <ele>290.45999999999998</ele>
        <time>2024-09-11T13:23:28Z</time>
      </trkpt>
      <trkpt lat="50.875654025003314" lon="10.108250007033348">
        <ele>290.45999999999998</ele>
        <time>2024-09-11T13:24:16Z</time>
      </trkpt>
      <trkpt lat="50.875654025003314" lon="10.108250007033348">
        <ele>290.94</ele>
        <time>2024-09-11T13:25:07Z</time>
      </trkpt>
      <trkpt lat="50.875654025003314" lon="10.108250007033348">
        <ele>289.97000000000003</ele>
        <time>2024-09-11T13:25:54Z</time>
      </trkpt>
      <trkpt lat="50.875670034438372" lon="10.10825403034687">
        <ele>289.97000000000003</ele>
        <time>2024-09-11T13:26:24Z</time>
      </trkpt>
      <trkpt lat="50.875691995024681" lon="10.108258975669742">
        <ele>289.49000000000001</ele>
        <time>2024-09-11T13:26:25Z</time>
      </trkpt>
      <trkpt lat="50.875740023329854" lon="10.108270961791277">
        <ele>289.49000000000001</ele>
        <time>2024-09-11T13:26:26Z</time>
      </trkpt>
      <trkpt lat="50.875814035534859" lon="10.108289988711476">
        <ele>289.49000000000001</ele>
        <time>2024-09-11T13:26:27Z</time>
      </trkpt>
      <trkpt lat="50.87590598501265" lon="10.108332987874746">
        <ele>289.00999999999999</ele>
        <time>2024-09-11T13:26:28Z</time>
      </trkpt>
      <trkpt lat="50.876706959679723" lon="10.108903041109443">
        <ele>288.52999999999997</ele>
        <time>2024-09-11T13:26:34Z</time>
      </trkpt>
      <trkpt lat="50.877219010144472" lon="10.1092420052737">
        <ele>288.05000000000001</ele>
        <time>2024-09-11T13:26:37Z</time>
      </trkpt>
      <trkpt lat="50.878904024139047" lon="10.10982496663928">
        <ele>287.56999999999999</ele>
        <time>2024-09-11T13:26:45Z</time>
      </trkpt>
      <trkpt lat="50.879326974973083" lon="10.109836030751467">
        <ele>288.52999999999997</ele>
        <time>2024-09-11T13:26:47Z</time>
      </trkpt>
      <trkpt lat="50.879530990496278" lon="10.109767969697714">
        <ele>288.52999999999997</ele>
        <time>2024-09-11T13:26:48Z</time>
      </trkpt>
      <trkpt lat="50.879741962999105" lon="10.109697980806231">
        <ele>289.49000000000001</ele>
        <time>2024-09-11T13:26:49Z</time>
      </trkpt>
      <trkpt lat="50.881063034757972" lon="10.108977975323796">
        <ele>291.42000000000002</ele>
        <time>2024-09-11T13:26:55Z</time>
      </trkpt>
      <trkpt lat="50.881642978638411" lon="10.108605986461043">
        <ele>292.86000000000001</ele>
        <time>2024-09-11T13:26:58Z</time>
      </trkpt>
      <trkpt lat="50.881792008876801" lon="10.108440024778247">
        <ele>293.33999999999997</ele>
        <time>2024-09-11T13:26:59Z</time>
      </trkpt>
      <trkpt lat="50.881932992488146" lon="10.108228968456388">
        <ele>294.30000000000001</ele>
        <time>2024-09-11T13:27:00Z</time>
      </trkpt>
      <trkpt lat="50.882230969145894" lon="10.107729993760586">
        <ele>294.77999999999997</ele>
        <time>2024-09-11T13:27:02Z</time>
      </trkpt>
      <trkpt lat="50.8823929913342" lon="10.10756503790617">
        <ele>295.25999999999999</ele>
        <time>2024-09-11T13:27:03Z</time>
      </trkpt>
      <trkpt lat="50.882659032940865" lon="10.107239987701178">
        <ele>296.22000000000003</ele>
        <time>2024-09-11T13:27:05Z</time>
      </trkpt>
      <trkpt lat="50.882744025439024" lon="10.107046030461788">
        <ele>296.69999999999999</ele>
        <time>2024-09-11T13:27:06Z</time>
      </trkpt>
      <trkpt lat="50.882787024602294" lon="10.106831034645438">
        <ele>296.69999999999999</ele>
        <time>2024-09-11T13:27:07Z</time>
      </trkpt>
      <trkpt lat="50.882809991016984" lon="10.106590976938605">
        <ele>296.69999999999999</ele>
        <time>2024-09-11T13:27:08Z</time>
      </trkpt>
      <trkpt lat="50.882831029593945" lon="10.106343040242791">
        <ele>297.18000000000001</ele>
        <time>2024-09-11T13:27:09Z</time>
      </trkpt>
      <trkpt lat="50.882871011272073" lon="10.105862002819777">
        <ele>297.18000000000001</ele>
        <time>2024-09-11T13:27:11Z</time>
      </trkpt>
      <trkpt lat="50.882978970184922" lon="10.105512980371714">
        <ele>297.18000000000001</ele>
        <time>2024-09-11T13:27:13Z</time>
      </trkpt>
      <trkpt lat="50.883021969348192" lon="10.105403009802103">
        <ele>297.67000000000002</ele>
        <time>2024-09-11T13:27:14Z</time>
      </trkpt>
      <trkpt lat="50.883066980168223" lon="10.10535498149693">
        <ele>298.14999999999998</ele>
        <time>2024-09-11T13:27:15Z</time>
      </trkpt>
      <trkpt lat="50.883136969059706" lon="10.105334026739001">
        <ele>299.11000000000001</ele>
        <time>2024-09-11T13:27:16Z</time>
      </trkpt>
      <trkpt lat="50.883244005963206" lon="10.105405021458864">
        <ele>300.06999999999999</ele>
        <time>2024-09-11T13:27:17Z</time>
      </trkpt>
      <trkpt lat="50.883290022611618" lon="10.105562014505267">
        <ele>300.55000000000001</ele>
        <time>2024-09-11T13:27:18Z</time>
      </trkpt>
      <trkpt lat="50.883341990411282" lon="10.105735016986728">
        <ele>301.50999999999999</ele>
        <time>2024-09-11T13:27:19Z</time>
      </trkpt>
      <trkpt lat="50.883392030373216" lon="10.105906007811427">
        <ele>302.47000000000003</ele>
        <time>2024-09-11T13:27:20Z</time>
      </trkpt>
      <trkpt lat="50.883452966809273" lon="10.106036011129618">
        <ele>302.94999999999999</ele>
        <time>2024-09-11T13:27:21Z</time>
      </trkpt>
      <trkpt lat="50.883552962914109" lon="10.106135001406074">
        <ele>303.43000000000001</ele>
        <time>2024-09-11T13:27:22Z</time>
      </trkpt>
      <trkpt lat="50.883677015081048" lon="10.106135001406074">
        <ele>303.43000000000001</ele>
        <time>2024-09-11T13:27:23Z</time>
      </trkpt>
      <trkpt lat="50.883827973157167" lon="10.106135001406074">
        <ele>303.91000000000003</ele>
        <time>2024-09-11T13:27:24Z</time>
      </trkpt>
      <trkpt lat="50.884663984179497" lon="10.106156039983034">
        <ele>306.80000000000001</ele>
        <time>2024-09-11T13:27:30Z</time>
      </trkpt>
      <trkpt lat="50.884788958355784" lon="10.106203984469175">
        <ele>307.27999999999997</ele>
        <time>2024-09-11T13:27:31Z</time>
      </trkpt>
      <trkpt lat="50.884909993037581" lon="10.106275985017419">
        <ele>308.24000000000001</ele>
        <time>2024-09-11T13:27:32Z</time>
      </trkpt>
      <trkpt lat="50.885023986920714" lon="10.10634396225214">
        <ele>308.24000000000001</ele>
        <time>2024-09-11T13:27:33Z</time>
      </trkpt>
      <trkpt lat="50.88512297719717" lon="10.106435995548964">
        <ele>308.72000000000003</ele>
        <time>2024-09-11T13:27:34Z</time>
      </trkpt>
      <trkpt lat="50.885212998837233" lon="10.106550995260477">
        <ele>309.19999999999999</ele>
        <time>2024-09-11T13:27:35Z</time>
      </trkpt>
      <trkpt lat="50.885290028527379" lon="10.106698013842106">
        <ele>309.68000000000001</ele>
        <time>2024-09-11T13:27:36Z</time>
      </trkpt>
      <trkpt lat="50.885370997712016" lon="10.106850983574986">
        <ele>310.16000000000003</ele>
        <time>2024-09-11T13:27:37Z</time>
      </trkpt>
      <trkpt lat="50.885450039058924" lon="10.107001019641757">
        <ele>310.63999999999999</ele>
        <time>2024-09-11T13:27:38Z</time>
      </trkpt>
      <trkpt lat="50.885523967444897" lon="10.107140997424722">
        <ele>311.12</ele>
        <time>2024-09-11T13:27:39Z</time>
      </trkpt>
      <trkpt lat="50.885604014620185" lon="10.107292961329222">
        <ele>311.60000000000002</ele>
        <time>2024-09-11T13:27:40Z</time>
      </trkpt>
      <trkpt lat="50.885699987411499" lon="10.107382982969284">
        <ele>312.08999999999997</ele>
        <time>2024-09-11T13:27:41Z</time>
      </trkpt>
      <trkpt lat="50.885968962684274" lon="10.107637038454413">
        <ele>313.05000000000001</ele>
        <time>2024-09-11T13:27:44Z</time>
      </trkpt>
      <trkpt lat="50.886098966002464" lon="10.107684982940555">
        <ele>314.00999999999999</ele>
        <time>2024-09-11T13:27:45Z</time>
      </trkpt>
      <trkpt lat="50.886208014562726" lon="10.107724964618683">
        <ele>314.49000000000001</ele>
        <time>2024-09-11T13:27:46Z</time>
      </trkpt>
      <trkpt lat="50.886313961818814" lon="10.107764024287462">
        <ele>314.97000000000003</ele>
        <time>2024-09-11T13:27:47Z</time>
      </trkpt>
      <trkpt lat="50.886418987065554" lon="10.10778296738863">
        <ele>315.93000000000001</ele>
        <time>2024-09-11T13:27:48Z</time>
      </trkpt>
      <trkpt lat="50.886528035625815" lon="10.107773998752236">
        <ele>316.88999999999999</ele>
        <time>2024-09-11T13:27:49Z</time>
      </trkpt>
      <trkpt lat="50.886633982881904" lon="10.107765030115843">
        <ele>317.37</ele>
        <time>2024-09-11T13:27:50Z</time>
      </trkpt>
      <trkpt lat="50.886739008128643" lon="10.107712978497148">
        <ele>317.85000000000002</ele>
        <time>2024-09-11T13:27:51Z</time>
      </trkpt>
      <trkpt lat="50.886837998405099" lon="10.107663022354245">
        <ele>318.81</ele>
        <time>2024-09-11T13:27:52Z</time>
      </trkpt>
      <trkpt lat="50.886890972033143" lon="10.107580963522196">
        <ele>319.30000000000001</ele>
        <time>2024-09-11T13:27:53Z</time>
      </trkpt>
      <trkpt lat="50.886959033086896" lon="10.107460012659431">
        <ele>319.77999999999997</ele>
        <time>2024-09-11T13:27:54Z</time>
      </trkpt>
      <trkpt lat="50.887027010321617" lon="10.107335960492492">
        <ele>320.74000000000001</ele>
        <time>2024-09-11T13:27:55Z</time>
      </trkpt>
      <trkpt lat="50.887083001434803" lon="10.10720101185143">
        <ele>321.22000000000003</ele>
        <time>2024-09-11T13:27:56Z</time>
      </trkpt>
      <trkpt lat="50.887432023882866" lon="10.106002986431122">
        <ele>324.10000000000002</ele>
        <time>2024-09-11T13:28:01Z</time>
      </trkpt>
      <trkpt lat="50.887520033866167" lon="10.105839958414435">
        <ele>325.06</ele>
        <time>2024-09-11T13:28:02Z</time>
      </trkpt>
      <trkpt lat="50.887707034125924" lon="10.105488002300262">
        <ele>327.47000000000003</ele>
        <time>2024-09-11T13:28:05Z</time>
      </trkpt>
      <trkpt lat="50.887711979448795" lon="10.105345007032156">
        <ele>327.94999999999999</ele>
        <time>2024-09-11T13:28:06Z</time>
      </trkpt>
      <trkpt lat="50.887777023017406" lon="10.10404497385025">
        <ele>329.87</ele>
        <time>2024-09-11T13:28:12Z</time>
      </trkpt>
      <trkpt lat="50.887899985536933" lon="10.103216003626585">
        <ele>331.31</ele>
        <time>2024-09-11T13:28:17Z</time>
      </trkpt>
      <trkpt lat="50.887968968600035" lon="10.103095974773169">
        <ele>331.79000000000002</ele>
        <time>2024-09-11T13:28:18Z</time>
      </trkpt>
      <trkpt lat="50.888023031875491" lon="10.103056998923421">
        <ele>331.79000000000002</ele>
        <time>2024-09-11T13:28:19Z</time>
      </trkpt>
      <trkpt lat="50.888097966089845" lon="10.103037972003222">
        <ele>332.26999999999998</ele>
        <time>2024-09-11T13:28:20Z</time>
      </trkpt>
      <trkpt lat="50.888166027143598" lon="10.103035038337111">
        <ele>332.75</ele>
        <time>2024-09-11T13:28:21Z</time>
      </trkpt>
      <trkpt lat="50.888227969408035" lon="10.103121958673">
        <ele>333.23000000000002</ele>
        <time>2024-09-11T13:28:22Z</time>
      </trkpt>
      <trkpt lat="50.888300975784659" lon="10.103223966434598">
        <ele>333.70999999999998</ele>
        <time>2024-09-11T13:28:23Z</time>
      </trkpt>
      <trkpt lat="50.888382028788328" lon="10.103346006944776">
        <ele>333.70999999999998</ele>
        <time>2024-09-11T13:28:24Z</time>
      </trkpt>
      <trkpt lat="50.888655027374625" lon="10.103911031037569">
        <ele>333.23000000000002</ele>
        <time>2024-09-11T13:28:28Z</time>
      </trkpt>
      <trkpt lat="50.889209993183613" lon="10.104674035683274">
        <ele>332.26999999999998</ele>
        <time>2024-09-11T13:28:35Z</time>
      </trkpt>
      <trkpt lat="50.889316024258733" lon="10.104804039001465">
        <ele>332.26999999999998</ele>
        <time>2024-09-11T13:28:36Z</time>
      </trkpt>
      <trkpt lat="50.889390958473086" lon="10.104831028729677">
        <ele>332.26999999999998</ele>
        <time>2024-09-11T13:28:37Z</time>
      </trkpt>
      <trkpt lat="50.889491960406303" lon="10.104867992922664">
        <ele>331.79000000000002</ele>
        <time>2024-09-11T13:28:38Z</time>
      </trkpt>
      <trkpt lat="50.889598997309804" lon="10.104873022064567">
        <ele>331.79000000000002</ele>
        <time>2024-09-11T13:28:39Z</time>
      </trkpt>
      <trkpt lat="50.889696981757879" lon="10.10483798570931">
        <ele>331.31</ele>
        <time>2024-09-11T13:28:40Z</time>
      </trkpt>
      <trkpt lat="50.889788009226322" lon="10.104804039001465">
        <ele>331.31</ele>
        <time>2024-09-11T13:28:41Z</time>
      </trkpt>
      <trkpt lat="50.889863027259707" lon="10.104707982391119">
        <ele>330.82999999999998</ele>
        <time>2024-09-11T13:28:42Z</time>
      </trkpt>
      <trkpt lat="50.889926981180906" lon="10.104625001549721">
        <ele>330.82999999999998</ele>
        <time>2024-09-11T13:28:43Z</time>
      </trkpt>
      <trkpt lat="50.889963023364544" lon="10.104492986574769">
        <ele>331.31</ele>
        <time>2024-09-11T13:28:44Z</time>
      </trkpt>
      <trkpt lat="50.889995964244008" lon="10.104335993528366">
        <ele>331.31</ele>
        <time>2024-09-11T13:28:45Z</time>
      </trkpt>
      <trkpt lat="50.890028988942504" lon="10.104179000481963">
        <ele>331.79000000000002</ele>
        <time>2024-09-11T13:28:46Z</time>
      </trkpt>
      <trkpt lat="50.890062013641" lon="10.104026030749083">
        <ele>331.79000000000002</ele>
        <time>2024-09-11T13:28:47Z</time>
      </trkpt>
      <trkpt lat="50.890092020854354" lon="10.103882029652596">
        <ele>332.26999999999998</ele>
        <time>2024-09-11T13:28:48Z</time>
      </trkpt>
      <trkpt lat="50.890133008360863" lon="10.103751020506024">
        <ele>332.75</ele>
        <time>2024-09-11T13:28:49Z</time>
      </trkpt>
      <trkpt lat="50.890188999474049" lon="10.103639038279653">
        <ele>333.23000000000002</ele>
        <time>2024-09-11T13:28:50Z</time>
      </trkpt>
      <trkpt lat="50.890249013900757" lon="10.103532001376152">
        <ele>333.70999999999998</ele>
        <time>2024-09-11T13:28:51Z</time>
      </trkpt>
      <trkpt lat="50.890310034155846" lon="10.103438040241599">
        <ele>334.19999999999999</ele>
        <time>2024-09-11T13:28:52Z</time>
      </trkpt>
      <trkpt lat="50.89036300778389" lon="10.103353969752789">
        <ele>334.68000000000001</ele>
        <time>2024-09-11T13:28:53Z</time>
      </trkpt>
      <trkpt lat="50.890423022210598" lon="10.103279035538435">
        <ele>335.63999999999999</ele>
        <time>2024-09-11T13:28:54Z</time>
      </trkpt>
      <trkpt lat="50.890507008880377" lon="10.103268977254629">
        <ele>336.12</ele>
        <time>2024-09-11T13:28:55Z</time>
      </trkpt>
      <trkpt lat="50.890608010813594" lon="10.103293033316731">
        <ele>336.60000000000002</ele>
        <time>2024-09-11T13:28:56Z</time>
      </trkpt>
      <trkpt lat="50.89068797416985" lon="10.103395963087678">
        <ele>336.60000000000002</ele>
        <time>2024-09-11T13:28:57Z</time>
      </trkpt>
      <trkpt lat="50.890771960839629" lon="10.103504005819559">
        <ele>337.07999999999998</ele>
        <time>2024-09-11T13:28:58Z</time>
      </trkpt>
      <trkpt lat="50.89085703715682" lon="10.10361397638917">
        <ele>338.04000000000002</ele>
        <time>2024-09-11T13:28:59Z</time>
      </trkpt>
      <trkpt lat="50.89094596914947" lon="10.103728976100683">
        <ele>338.51999999999998</ele>
        <time>2024-09-11T13:29:00Z</time>
      </trkpt>
      <trkpt lat="50.891032973304391" lon="10.103840958327055">
        <ele>338.51999999999998</ele>
        <time>2024-09-11T13:29:01Z</time>
      </trkpt>
      <trkpt lat="50.891127018257976" lon="10.103941038250923">
        <ele>339</ele>
        <time>2024-09-11T13:29:02Z</time>
      </trkpt>
      <trkpt lat="50.891275964677334" lon="10.104023013263941">
        <ele>339</ele>
        <time>2024-09-11T13:29:03Z</time>
      </trkpt>
      <trkpt lat="50.891926987096667" lon="10.104383016005158">
        <ele>340.44</ele>
        <time>2024-09-11T13:29:07Z</time>
      </trkpt>
      <trkpt lat="50.89206101372838" lon="10.104457028210163">
        <ele>340.44</ele>
        <time>2024-09-11T13:29:08Z</time>
      </trkpt>
      <trkpt lat="50.892278021201491" lon="10.104740001261234">
        <ele>340.92000000000002</ele>
        <time>2024-09-11T13:29:10Z</time>
      </trkpt>
      <trkpt lat="50.89238204061985" lon="10.104896994307637">
        <ele>340.44</ele>
        <time>2024-09-11T13:29:11Z</time>
      </trkpt>
      <trkpt lat="50.892492011189461" lon="10.105061028152704">
        <ele>340.44</ele>
        <time>2024-09-11T13:29:12Z</time>
      </trkpt>
      <trkpt lat="50.892947986721992" lon="10.105799976736307">
        <ele>340.92000000000002</ele>
        <time>2024-09-11T13:29:16Z</time>
      </trkpt>
      <trkpt lat="50.893062986433506" lon="10.106002986431122">
        <ele>340.92000000000002</ele>
        <time>2024-09-11T13:29:17Z</time>
      </trkpt>
      <trkpt lat="50.89317798614502" lon="10.106205996125937">
        <ele>340.92000000000002</ele>
        <time>2024-09-11T13:29:18Z</time>
      </trkpt>
      <trkpt lat="50.89330698363483" lon="10.106434989720583">
        <ele>340.92000000000002</ele>
        <time>2024-09-11T13:29:19Z</time>
      </trkpt>
      <trkpt lat="50.893451990559697" lon="10.10655602440238">
        <ele>340.92000000000002</ele>
        <time>2024-09-11T13:29:20Z</time>
      </trkpt>
      <trkpt lat="50.893607977777719" lon="10.106686027720571">
        <ele>340.92000000000002</ele>
        <time>2024-09-11T13:29:21Z</time>
      </trkpt>
      <trkpt lat="50.893783997744322" lon="10.106809996068478">
        <ele>340.44</ele>
        <time>2024-09-11T13:29:22Z</time>
      </trkpt>
      <trkpt lat="50.894553037360311" lon="10.107230013236403">
        <ele>339.48000000000002</ele>
        <time>2024-09-11T13:29:26Z</time>
      </trkpt>
      <trkpt lat="50.8947469945997" lon="10.107320034876466">
        <ele>339</ele>
        <time>2024-09-11T13:29:27Z</time>
      </trkpt>
      <trkpt lat="50.894953021779656" lon="10.107378959655762">
        <ele>338.51999999999998</ele>
        <time>2024-09-11T13:29:28Z</time>
      </trkpt>
      <trkpt lat="50.896493028849363" lon="10.107284998521209">
        <ele>337.07999999999998</ele>
        <time>2024-09-11T13:29:35Z</time>
      </trkpt>
      <trkpt lat="50.896683968603611" lon="10.107211992144585">
        <ele>336.60000000000002</ele>
        <time>2024-09-11T13:29:36Z</time>
      </trkpt>
      <trkpt lat="50.896850014105439" lon="10.107104033231735">
        <ele>336.60000000000002</ele>
        <time>2024-09-11T13:29:37Z</time>
      </trkpt>
      <trkpt lat="50.896999966353178" lon="10.106964977458119">
        <ele>336.12</ele>
        <time>2024-09-11T13:29:38Z</time>
      </trkpt>
      <trkpt lat="50.897112032398582" lon="10.106791974976659">
        <ele>335.63999999999999</ele>
        <time>2024-09-11T13:29:39Z</time>
      </trkpt>
      <trkpt lat="50.897202976047993" lon="10.106598017737269">
        <ele>335.16000000000003</ele>
        <time>2024-09-11T13:29:40Z</time>
      </trkpt>
      <trkpt lat="50.897257961332798" lon="10.10636399500072">
        <ele>334.68000000000001</ele>
        <time>2024-09-11T13:29:41Z</time>
      </trkpt>
      <trkpt lat="50.897298026829958" lon="10.106098037213087">
        <ele>335.16000000000003</ele>
        <time>2024-09-11T13:29:42Z</time>
      </trkpt>
      <trkpt lat="50.897342031821609" lon="10.10580500587821">
        <ele>335.16000000000003</ele>
        <time>2024-09-11T13:29:43Z</time>
      </trkpt>
      <trkpt lat="50.897376984357834" lon="10.105493031442165">
        <ele>335.16000000000003</ele>
        <time>2024-09-11T13:29:44Z</time>
      </trkpt>
      <trkpt lat="50.897414032369852" lon="10.105165969580412">
        <ele>335.16000000000003</ele>
        <time>2024-09-11T13:29:45Z</time>
      </trkpt>
      <trkpt lat="50.897686025127769" lon="10.103421024978161">
        <ele>334.19999999999999</ele>
        <time>2024-09-11T13:29:51Z</time>
      </trkpt>
      <trkpt lat="50.897756014019251" lon="10.103232013061643">
        <ele>334.19999999999999</ele>
        <time>2024-09-11T13:29:52Z</time>
      </trkpt>
      <trkpt lat="50.897771017625928" lon="10.103194965049624">
        <ele>334.19999999999999</ele>
        <time>2024-09-11T13:29:53Z</time>
      </trkpt>
      <trkpt lat="50.897907977923751" lon="10.103131011128426">
        <ele>333.70999999999998</ele>
        <time>2024-09-11T13:29:54Z</time>
      </trkpt>
      <trkpt lat="50.898048961535096" lon="10.103065967559814">
        <ele>333.70999999999998</ele>
        <time>2024-09-11T13:29:55Z</time>
      </trkpt>
      <trkpt lat="50.898129008710384" lon="10.103078037500381">
        <ele>333.23000000000002</ele>
        <time>2024-09-11T13:29:56Z</time>
      </trkpt>
      <trkpt lat="50.898279966786504" lon="10.103101003915071">
        <ele>333.23000000000002</ele>
        <time>2024-09-11T13:29:57Z</time>
      </trkpt>
      <trkpt lat="50.8984200283885" lon="10.103178033605218">
        <ele>332.75</ele>
        <time>2024-09-11T13:29:58Z</time>
      </trkpt>
      <trkpt lat="50.898585990071297" lon="10.103302001953125">
        <ele>332.26999999999998</ele>
        <time>2024-09-11T13:29:59Z</time>
      </trkpt>
      <trkpt lat="50.898729991167784" lon="10.103479027748108">
        <ele>332.26999999999998</ele>
        <time>2024-09-11T13:30:00Z</time>
      </trkpt>
      <trkpt lat="50.898870974779129" lon="10.10365404188633">
        <ele>331.79000000000002</ele>
        <time>2024-09-11T13:30:01Z</time>
      </trkpt>
      <trkpt lat="50.899014975875616" lon="10.103831989690661">
        <ele>331.79000000000002</ele>
        <time>2024-09-11T13:30:02Z</time>
      </trkpt>
      <trkpt lat="50.900214007124305" lon="10.105429999530315">
        <ele>326.99000000000001</ele>
        <time>2024-09-11T13:30:10Z</time>
      </trkpt>
      <trkpt lat="50.900343004614115" lon="10.105678020045161">
        <ele>326.01999999999998</ele>
        <time>2024-09-11T13:30:11Z</time>
      </trkpt>
      <trkpt lat="50.900430008769035" lon="10.105959987267852">
        <ele>325.06</ele>
        <time>2024-09-11T13:30:12Z</time>
      </trkpt>
      <trkpt lat="50.900604017078876" lon="10.106525011360645">
        <ele>323.13999999999999</ele>
        <time>2024-09-11T13:30:14Z</time>
      </trkpt>
      <trkpt lat="50.900854971259832" lon="10.107224984094501">
        <ele>321.22000000000003</ele>
        <time>2024-09-11T13:30:17Z</time>
      </trkpt>
      <trkpt lat="50.900947004556656" lon="10.107367979362607">
        <ele>320.74000000000001</ele>
        <time>2024-09-11T13:30:18Z</time>
      </trkpt>
      <trkpt lat="50.901047000661492" lon="10.107413996011019">
        <ele>319.77999999999997</ele>
        <time>2024-09-11T13:30:19Z</time>
      </trkpt>
      <trkpt lat="50.90117197483778" lon="10.107434028759599">
        <ele>319.30000000000001</ele>
        <time>2024-09-11T13:30:20Z</time>
      </trkpt>
      <trkpt lat="50.901284962892532" lon="10.107412990182638">
        <ele>318.81</ele>
        <time>2024-09-11T13:30:21Z</time>
      </trkpt>
      <trkpt lat="50.90138403698802" lon="10.107338977977633">
        <ele>318.32999999999998</ele>
        <time>2024-09-11T13:30:22Z</time>
      </trkpt>
      <trkpt lat="50.901485960930586" lon="10.107202017679811">
        <ele>317.37</ele>
        <time>2024-09-11T13:30:23Z</time>
      </trkpt>
      <trkpt lat="50.901559973135591" lon="10.107070002704859">
        <ele>316.41000000000003</ele>
        <time>2024-09-11T13:30:24Z</time>
      </trkpt>
      <trkpt lat="50.901613030582666" lon="10.106858024373651">
        <ele>315.44999999999999</ele>
        <time>2024-09-11T13:30:25Z</time>
      </trkpt>
      <trkpt lat="50.901654018089175" lon="10.106645962223411">
        <ele>314.49000000000001</ele>
        <time>2024-09-11T13:30:26Z</time>
      </trkpt>
      <trkpt lat="50.901654018089175" lon="10.106380004435778">
        <ele>314.00999999999999</ele>
        <time>2024-09-11T13:30:27Z</time>
      </trkpt>
      <trkpt lat="50.901654018089175" lon="10.106096025556326">
        <ele>313.05000000000001</ele>
        <time>2024-09-11T13:30:28Z</time>
      </trkpt>
      <trkpt lat="50.901670027524233" lon="10.105488002300262">
        <ele>311.12</ele>
        <time>2024-09-11T13:30:30Z</time>
      </trkpt>
      <trkpt lat="50.901725012809038" lon="10.105184996500611">
        <ele>310.16000000000003</ele>
        <time>2024-09-11T13:30:31Z</time>
      </trkpt>
      <trkpt lat="50.901779998093843" lon="10.104875033721328">
        <ele>309.68000000000001</ele>
        <time>2024-09-11T13:30:32Z</time>
      </trkpt>
      <trkpt lat="50.90185803361237" lon="10.10457999072969">
        <ele>308.72000000000003</ele>
        <time>2024-09-11T13:30:33Z</time>
      </trkpt>
      <trkpt lat="50.901955012232065" lon="10.104288971051574">
        <ele>307.75999999999999</ele>
        <time>2024-09-11T13:30:34Z</time>
      </trkpt>
      <trkpt lat="50.902260029688478" lon="10.103469975292683">
        <ele>305.83999999999997</ele>
        <time>2024-09-11T13:30:37Z</time>
      </trkpt>
      <trkpt lat="50.902378968894482" lon="10.103279035538435">
        <ele>305.36000000000001</ele>
        <time>2024-09-11T13:30:38Z</time>
      </trkpt>
      <trkpt lat="50.902506960555911" lon="10.103152971714735">
        <ele>304.38999999999999</ele>
        <time>2024-09-11T13:30:39Z</time>
      </trkpt>
      <trkpt lat="50.902663031592965" lon="10.103022968396544">
        <ele>303.43000000000001</ele>
        <time>2024-09-11T13:30:40Z</time>
      </trkpt>
      <trkpt lat="50.902792029082775" lon="10.103002013638616">
        <ele>302.47000000000003</ele>
        <time>2024-09-11T13:30:41Z</time>
      </trkpt>
      <trkpt lat="50.902965031564236" lon="10.10305599309504">
        <ele>301.50999999999999</ele>
        <time>2024-09-11T13:30:42Z</time>
      </trkpt>
      <trkpt lat="50.903135016560555" lon="10.103108966723084">
        <ele>300.55000000000001</ele>
        <time>2024-09-11T13:30:43Z</time>
      </trkpt>
      <trkpt lat="50.903291003778577" lon="10.103225978091359">
        <ele>300.06999999999999</ele>
        <time>2024-09-11T13:30:44Z</time>
      </trkpt>
      <trkpt lat="50.903430981561542" lon="10.103400992229581">
        <ele>299.11000000000001</ele>
        <time>2024-09-11T13:30:45Z</time>
      </trkpt>
      <trkpt lat="50.903570037335157" lon="10.103582041338086">
        <ele>298.14999999999998</ele>
        <time>2024-09-11T13:30:46Z</time>
      </trkpt>
      <trkpt lat="50.903671961277723" lon="10.1038490049541">
        <ele>297.18000000000001</ele>
        <time>2024-09-11T13:30:47Z</time>
      </trkpt>
      <trkpt lat="50.903758965432644" lon="10.104142958298326">
        <ele>295.74000000000001</ele>
        <time>2024-09-11T13:30:48Z</time>
      </trkpt>
      <trkpt lat="50.903824009001255" lon="10.104459039866924">
        <ele>294.77999999999997</ele>
        <time>2024-09-11T13:30:49Z</time>
      </trkpt>
      <trkpt lat="50.903887962922454" lon="10.10477202013135">
        <ele>293.81999999999999</ele>
        <time>2024-09-11T13:30:50Z</time>
      </trkpt>
      <trkpt lat="50.903949989005923" lon="10.10507402010262">
        <ele>292.86000000000001</ele>
        <time>2024-09-11T13:30:51Z</time>
      </trkpt>
      <trkpt lat="50.904053002595901" lon="10.105576012283564">
        <ele>291.42000000000002</ele>
        <time>2024-09-11T13:30:53Z</time>
      </trkpt>
      <trkpt lat="50.904131038114429" lon="10.105725964531302">
        <ele>290.45999999999998</ele>
        <time>2024-09-11T13:30:54Z</time>
      </trkpt>
      <trkpt lat="50.904209995642304" lon="10.105865020304918">
        <ele>289.97000000000003</ele>
        <time>2024-09-11T13:30:55Z</time>
      </trkpt>
      <trkpt lat="50.904303034767509" lon="10.105952024459839">
        <ele>289.00999999999999</ele>
        <time>2024-09-11T13:30:56Z</time>
      </trkpt>
      <trkpt lat="50.904421973973513" lon="10.106038022786379">
        <ele>288.52999999999997</ele>
        <time>2024-09-11T13:30:57Z</time>
      </trkpt>
      <trkpt lat="50.904558012261987" lon="10.106136007234454">
        <ele>287.56999999999999</ele>
        <time>2024-09-11T13:30:58Z</time>
      </trkpt>
      <trkpt lat="50.904704025015235" lon="10.106242038309574">
        <ele>287.08999999999997</ele>
        <time>2024-09-11T13:30:59Z</time>
      </trkpt>
      <trkpt lat="50.904849031940103" lon="10.106346979737282">
        <ele>286.13</ele>
        <time>2024-09-11T13:31:00Z</time>
      </trkpt>
      <trkpt lat="50.904957996681333" lon="10.106544038280845">
        <ele>285.64999999999998</ele>
        <time>2024-09-11T13:31:01Z</time>
      </trkpt>
      <trkpt lat="50.90506000444293" lon="10.106731960549951">
        <ele>285.17000000000002</ele>
        <time>2024-09-11T13:31:02Z</time>
      </trkpt>
      <trkpt lat="50.90514499694109" lon="10.106909992173314">
        <ele>285.17000000000002</ele>
        <time>2024-09-11T13:31:03Z</time>
      </trkpt>
      <trkpt lat="50.905214985832572" lon="10.107087017968297">
        <ele>284.20999999999998</ele>
        <time>2024-09-11T13:31:04Z</time>
      </trkpt>
      <trkpt lat="50.90536099858582" lon="10.107344007119536">
        <ele>283.73000000000002</ele>
        <time>2024-09-11T13:31:06Z</time>
      </trkpt>
      <trkpt lat="50.905409026890993" lon="10.107401004061103">
        <ele>283.25</ele>
        <time>2024-09-11T13:31:07Z</time>
      </trkpt>
      <trkpt lat="50.90551296249032" lon="10.107430005446076">
        <ele>282.76999999999998</ele>
        <time>2024-09-11T13:31:08Z</time>
      </trkpt>
      <trkpt lat="50.905592003837228" lon="10.107426987960935">
        <ele>282.27999999999997</ele>
        <time>2024-09-11T13:31:09Z</time>
      </trkpt>
      <trkpt lat="50.905644977465272" lon="10.107401004061103">
        <ele>281.80000000000001</ele>
        <time>2024-09-11T13:31:10Z</time>
      </trkpt>
      <trkpt lat="50.905678002163768" lon="10.107269994914532">
        <ele>280.83999999999997</ele>
        <time>2024-09-11T13:31:11Z</time>
      </trkpt>
      <trkpt lat="50.905713960528374" lon="10.107126999646425">
        <ele>280.36000000000001</ele>
        <time>2024-09-11T13:31:12Z</time>
      </trkpt>
      <trkpt lat="50.905732987448573" lon="10.106990039348602">
        <ele>279.39999999999998</ele>
        <time>2024-09-11T13:31:13Z</time>
      </trkpt>
      <trkpt lat="50.905739022418857" lon="10.106812007725239">
        <ele>278.44</ele>
        <time>2024-09-11T13:31:14Z</time>
      </trkpt>
      <trkpt lat="50.905779004096985" lon="10.106143970042467">
        <ele>275.06999999999999</ele>
        <time>2024-09-11T13:31:18Z</time>
      </trkpt>
      <trkpt lat="50.905797025188804" lon="10.105991000309587">
        <ele>274.11000000000001</ele>
        <time>2024-09-11T13:31:19Z</time>
      </trkpt>
      <trkpt lat="50.905815968289971" lon="10.105837024748325">
        <ele>273.14999999999998</ele>
        <time>2024-09-11T13:31:20Z</time>
      </trkpt>
      <trkpt lat="50.905834995210171" lon="10.105675002560019">
        <ele>272.67000000000002</ele>
        <time>2024-09-11T13:31:21Z</time>
      </trkpt>
      <trkpt lat="50.905894003808498" lon="10.10552597232163">
        <ele>271.70999999999998</ele>
        <time>2024-09-11T13:31:22Z</time>
      </trkpt>
      <trkpt lat="50.905959969386458" lon="10.105391023680568">
        <ele>271.23000000000002</ele>
        <time>2024-09-11T13:31:23Z</time>
      </trkpt>
      <trkpt lat="50.906028030440211" lon="10.105250962078571">
        <ele>270.26999999999998</ele>
        <time>2024-09-11T13:31:24Z</time>
      </trkpt>
      <trkpt lat="50.90637001208961" lon="10.104349991306663">
        <ele>264.98000000000002</ele>
        <time>2024-09-11T13:31:30Z</time>
      </trkpt>
      <trkpt lat="50.906404964625835" lon="10.104188974946737">
        <ele>264.5</ele>
        <time>2024-09-11T13:31:31Z</time>
      </trkpt>
      <trkpt lat="50.906440000981092" lon="10.104018989950418">
        <ele>263.54000000000002</ele>
        <time>2024-09-11T13:31:32Z</time>
      </trkpt>
      <trkpt lat="50.906565980985761" lon="10.103039983659983">
        <ele>258.25</ele>
        <time>2024-09-11T13:31:38Z</time>
      </trkpt>
      <trkpt lat="50.906613003462553" lon="10.102917021140456">
        <ele>257.29000000000002</ele>
        <time>2024-09-11T13:31:39Z</time>
      </trkpt>
      <trkpt lat="50.906673017889261" lon="10.102808978408575">
        <ele>256.81</ele>
        <time>2024-09-11T13:31:40Z</time>
      </trkpt>
      <trkpt lat="50.90673697181046" lon="10.102747958153486">
        <ele>256.32999999999998</ele>
        <time>2024-09-11T13:31:41Z</time>
      </trkpt>
      <trkpt lat="50.906826993450522" lon="10.102708982303739">
        <ele>255.84999999999999</ele>
        <time>2024-09-11T13:31:42Z</time>
      </trkpt>
      <trkpt lat="50.906924977898598" lon="10.102665983140469">
        <ele>255.37</ele>
        <time>2024-09-11T13:31:43Z</time>
      </trkpt>
      <trkpt lat="50.907297972589731" lon="10.102482000365853">
        <ele>253.93000000000001</ele>
        <time>2024-09-11T13:31:47Z</time>
      </trkpt>
      <trkpt lat="50.907454965636134" lon="10.102380998432636">
        <ele>253.44</ele>
        <time>2024-09-11T13:31:49Z</time>
      </trkpt>
      <trkpt lat="50.907736010849476" lon="10.102113028988242">
        <ele>252.96000000000001</ele>
        <time>2024-09-11T13:31:52Z</time>
      </trkpt>
      <trkpt lat="50.907812034711242" lon="10.101985037326813">
        <ele>252.47999999999999</ele>
        <time>2024-09-11T13:31:53Z</time>
      </trkpt>
      <trkpt lat="50.907879006117582" lon="10.101839024573565">
        <ele>252</ele>
        <time>2024-09-11T13:31:54Z</time>
      </trkpt>
      <trkpt lat="50.907945977523923" lon="10.101692005991936">
        <ele>251.52000000000001</ele>
        <time>2024-09-11T13:31:55Z</time>
      </trkpt>
      <trkpt lat="50.908012026920915" lon="10.101545993238688">
        <ele>251.03999999999999</ele>
        <time>2024-09-11T13:31:56Z</time>
      </trkpt>
      <trkpt lat="50.90873203240335" lon="10.100087039172649">
        <ele>247.68000000000001</ele>
        <time>2024-09-11T13:32:06Z</time>
      </trkpt>
      <trkpt lat="50.908891037106514" lon="10.099785039201379">
        <ele>246.72</ele>
        <time>2024-09-11T13:32:08Z</time>
      </trkpt>
      <trkpt lat="50.90897100046277" lon="10.099632991477847">
        <ele>246.72</ele>
        <time>2024-09-11T13:32:09Z</time>
      </trkpt>
      <trkpt lat="50.909532001242042" lon="10.098698996007442">
        <ele>243.83000000000001</ele>
        <time>2024-09-11T13:32:15Z</time>
      </trkpt>
      <trkpt lat="50.909653035923839" lon="10.098571004346013">
        <ele>243.34999999999999</ele>
        <time>2024-09-11T13:32:16Z</time>
      </trkpt>
      <trkpt lat="50.909789996221662" lon="10.098442006856203">
        <ele>242.87</ele>
        <time>2024-09-11T13:32:17Z</time>
      </trkpt>
      <trkpt lat="50.909951012581587" lon="10.098366988822818">
        <ele>242.87</ele>
        <time>2024-09-11T13:32:18Z</time>
      </trkpt>
      <trkpt lat="50.910118985921144" lon="10.098288031294942">
        <ele>242.38999999999999</ele>
        <time>2024-09-11T13:32:19Z</time>
      </trkpt>
      <trkpt lat="50.911429999396205" lon="10.097624016925693">
        <ele>240.94999999999999</ele>
        <time>2024-09-11T13:32:26Z</time>
      </trkpt>
      <trkpt lat="50.912851989269257" lon="10.096192974597216">
        <ele>241.43000000000001</ele>
        <time>2024-09-11T13:32:34Z</time>
      </trkpt>
      <trkpt lat="50.913036977872252" lon="10.096033969894052">
        <ele>241.43000000000001</ele>
        <time>2024-09-11T13:32:35Z</time>
      </trkpt>
      <trkpt lat="50.913233030587435" lon="10.095931040123105">
        <ele>241.43000000000001</ele>
        <time>2024-09-11T13:32:36Z</time>
      </trkpt>
      <trkpt lat="50.913441991433501" lon="10.095873037353158">
        <ele>241.43000000000001</ele>
        <time>2024-09-11T13:32:37Z</time>
      </trkpt>
      <trkpt lat="50.913666039705276" lon="10.09585996158421">
        <ele>241.43000000000001</ele>
        <time>2024-09-11T13:32:38Z</time>
      </trkpt>
      <trkpt lat="50.913898972794414" lon="10.095846969634295">
        <ele>241.43000000000001</ele>
        <time>2024-09-11T13:32:39Z</time>
      </trkpt>
      <trkpt lat="50.915434034541249" lon="10.095816040411592">
        <ele>241.43000000000001</ele>
        <time>2024-09-11T13:32:45Z</time>
      </trkpt>
      <trkpt lat="50.916850995272398" lon="10.09618098847568">
        <ele>237.58000000000001</ele>
        <time>2024-09-11T13:32:51Z</time>
      </trkpt>
      <trkpt lat="50.91773696243763" lon="10.096410987898707">
        <ele>234.22</ele>
        <time>2024-09-11T13:32:56Z</time>
      </trkpt>
      <trkpt lat="50.918728038668633" lon="10.096392966806889">
        <ele>232.30000000000001</ele>
        <time>2024-09-11T13:33:04Z</time>
      </trkpt>
      <trkpt lat="50.920232003554702" lon="10.096198003739119">
        <ele>230.84999999999999</ele>
        <time>2024-09-11T13:33:17Z</time>
      </trkpt>
      <trkpt lat="50.921216038987041" lon="10.095915030688047">
        <ele>228.93000000000001</ele>
        <time>2024-09-11T13:33:28Z</time>
      </trkpt>
      <trkpt lat="50.922048026695848" lon="10.095528960227966">
        <ele>227.49000000000001</ele>
        <time>2024-09-11T13:33:37Z</time>
      </trkpt>
      <trkpt lat="50.922384979203343" lon="10.095424018800259">
        <ele>228.44999999999999</ele>
        <time>2024-09-11T13:33:41Z</time>
      </trkpt>
      <trkpt lat="50.922459997236729" lon="10.095399962738156">
        <ele>228.93000000000001</ele>
        <time>2024-09-11T13:33:42Z</time>
      </trkpt>
      <trkpt lat="50.922542978078127" lon="10.095296027138829">
        <ele>229.41</ele>
        <time>2024-09-11T13:33:43Z</time>
      </trkpt>
      <trkpt lat="50.923002976924181" lon="10.094301011413336">
        <ele>229.41</ele>
        <time>2024-09-11T13:33:51Z</time>
      </trkpt>
      <trkpt lat="50.92336599715054" lon="10.093597015365958">
        <ele>229.41</ele>
        <time>2024-09-11T13:33:57Z</time>
      </trkpt>
      <trkpt lat="50.923420982435346" lon="10.093472041189671">
        <ele>228.93000000000001</ele>
        <time>2024-09-11T13:33:58Z</time>
      </trkpt>
      <trkpt lat="50.923477979376912" lon="10.093345977365971">
        <ele>228.44999999999999</ele>
        <time>2024-09-11T13:33:59Z</time>
      </trkpt>
      <trkpt lat="50.923594990745187" lon="10.093083959072828">
        <ele>227.97</ele>
        <time>2024-09-11T13:34:01Z</time>
      </trkpt>
      <trkpt lat="50.923655005171895" lon="10.092950016260147">
        <ele>227.49000000000001</ele>
        <time>2024-09-11T13:34:02Z</time>
      </trkpt>
      <trkpt lat="50.923934960737824" lon="10.092444000765681">
        <ele>225.09</ele>
        <time>2024-09-11T13:34:06Z</time>
      </trkpt>
      <trkpt lat="50.924021964892745" lon="10.092307962477207">
        <ele>224.61000000000001</ele>
        <time>2024-09-11T13:34:07Z</time>
      </trkpt>
      <trkpt lat="50.924873985350132" lon="10.091211022809148">
        <ele>223.16</ele>
        <time>2024-09-11T13:34:15Z</time>
      </trkpt>
      <trkpt lat="50.926077039912343" lon="10.090169990435243">
        <ele>225.56999999999999</ele>
        <time>2024-09-11T13:34:23Z</time>
      </trkpt>
      <trkpt lat="50.927371960133314" lon="10.089303972199559">
        <ele>232.78</ele>
        <time>2024-09-11T13:34:31Z</time>
      </trkpt>
      <trkpt lat="50.928937029093504" lon="10.088261011987925">
        <ele>243.34999999999999</ele>
        <time>2024-09-11T13:34:41Z</time>
      </trkpt>
      <trkpt lat="50.929608000442386" lon="10.087743010371923">
        <ele>251.52000000000001</ele>
        <time>2024-09-11T13:34:46Z</time>
      </trkpt>
      <trkpt lat="50.929719982668757" lon="10.087606972083449">
        <ele>253.93000000000001</ele>
        <time>2024-09-11T13:34:47Z</time>
      </trkpt>
      <trkpt lat="50.929871024563909" lon="10.087422989308834">
        <ele>257.76999999999998</ele>
        <time>2024-09-11T13:34:49Z</time>
      </trkpt>
      <trkpt lat="50.930003961548209" lon="10.087145967409015">
        <ele>259.20999999999998</ele>
        <time>2024-09-11T13:34:50Z</time>
      </trkpt>
      <trkpt lat="50.930089959874749" lon="10.086971037089825">
        <ele>260.64999999999998</ele>
        <time>2024-09-11T13:34:51Z</time>
      </trkpt>
      <trkpt lat="50.930184004828334" lon="10.086755035445094">
        <ele>261.13999999999999</ele>
        <time>2024-09-11T13:34:52Z</time>
      </trkpt>
      <trkpt lat="50.930274026468396" lon="10.086540961638093">
        <ele>262.10000000000002</ele>
        <time>2024-09-11T13:34:53Z</time>
      </trkpt>
      <trkpt lat="50.931386975571513" lon="10.083908960223198">
        <ele>263.06</ele>
        <time>2024-09-11T13:35:03Z</time>
      </trkpt>
      <trkpt lat="50.931534999981523" lon="10.083670997992158">
        <ele>262.57999999999998</ele>
        <time>2024-09-11T13:35:04Z</time>
      </trkpt>
      <trkpt lat="50.931695010513067" lon="10.083435969427228">
        <ele>263.06</ele>
        <time>2024-09-11T13:35:05Z</time>
      </trkpt>
      <trkpt lat="50.933226970955729" lon="10.081693036481738">
        <ele>264.01999999999998</ele>
        <time>2024-09-11T13:35:13Z</time>
      </trkpt>
      <trkpt lat="50.935790995135903" lon="10.079533020034432">
        <ele>262.57999999999998</ele>
        <time>2024-09-11T13:35:24Z</time>
      </trkpt>
      <trkpt lat="50.936630023643374" lon="10.078861964866519">
        <ele>261.13999999999999</ele>
        <time>2024-09-11T13:35:28Z</time>
      </trkpt>
      <trkpt lat="50.936848036944866" lon="10.07881703786552">
        <ele>260.17000000000002</ele>
        <time>2024-09-11T13:35:29Z</time>
      </trkpt>
      <trkpt lat="50.93705196864903" lon="10.078775966539979">
        <ele>259.69</ele>
        <time>2024-09-11T13:35:30Z</time>
      </trkpt>
      <trkpt lat="50.937610035762191" lon="10.07864898070693">
        <ele>257.29000000000002</ele>
        <time>2024-09-11T13:35:33Z</time>
      </trkpt>
      <trkpt lat="50.937752025201917" lon="10.078570023179054">
        <ele>256.32999999999998</ele>
        <time>2024-09-11T13:35:34Z</time>
      </trkpt>
      <trkpt lat="50.937859984114766" lon="10.078458040952682">
        <ele>255.37</ele>
        <time>2024-09-11T13:35:35Z</time>
      </trkpt>
      <trkpt lat="50.937939025461674" lon="10.07836801931262">
        <ele>254.41</ele>
        <time>2024-09-11T13:35:36Z</time>
      </trkpt>
      <trkpt lat="50.937981018796563" lon="10.07815201766789">
        <ele>252.96000000000001</ele>
        <time>2024-09-11T13:35:37Z</time>
      </trkpt>
      <trkpt lat="50.93801898881793" lon="10.077952025458217">
        <ele>252</ele>
        <time>2024-09-11T13:35:38Z</time>
      </trkpt>
      <trkpt lat="50.938057964667678" lon="10.077747004106641">
        <ele>251.03999999999999</ele>
        <time>2024-09-11T13:35:39Z</time>
      </trkpt>
      <trkpt lat="50.938097024336457" lon="10.077546006068587">
        <ele>250.56</ele>
        <time>2024-09-11T13:35:40Z</time>
      </trkpt>
      <trkpt lat="50.938131976872683" lon="10.077361017465591">
        <ele>249.59999999999999</ele>
        <time>2024-09-11T13:35:41Z</time>
      </trkpt>
      <trkpt lat="50.938214035704732" lon="10.07725196890533">
        <ele>248.63999999999999</ele>
        <time>2024-09-11T13:35:42Z</time>
      </trkpt>
      <trkpt lat="50.938260974362493" lon="10.077188014984131">
        <ele>248.16</ele>
        <time>2024-09-11T13:35:43Z</time>
      </trkpt>
      <trkpt lat="50.938375974074006" lon="10.077195977792144">
        <ele>247.68000000000001</ele>
        <time>2024-09-11T13:35:44Z</time>
      </trkpt>
      <trkpt lat="50.938483010977507" lon="10.077203018590808">
        <ele>247.19999999999999</ele>
        <time>2024-09-11T13:35:45Z</time>
      </trkpt>
      <trkpt lat="50.938592981547117" lon="10.077211987227201">
        <ele>246.72</ele>
        <time>2024-09-11T13:35:46Z</time>
      </trkpt>
      <trkpt lat="50.939060021191835" lon="10.077347019687295">
        <ele>244.31</ele>
        <time>2024-09-11T13:35:50Z</time>
      </trkpt>
      <trkpt lat="50.939172003418207" lon="10.077379960566759">
        <ele>243.34999999999999</ele>
        <time>2024-09-11T13:35:51Z</time>
      </trkpt>
      <trkpt lat="50.93928499147296" lon="10.077412985265255">
        <ele>242.38999999999999</ele>
        <time>2024-09-11T13:35:52Z</time>
      </trkpt>
      <trkpt lat="50.939734010025859" lon="10.077493032440543">
        <ele>239.02000000000001</ele>
        <time>2024-09-11T13:35:56Z</time>
      </trkpt>
      <trkpt lat="50.939840963110328" lon="10.077509041875601">
        <ele>238.06</ele>
        <time>2024-09-11T13:35:57Z</time>
      </trkpt>
      <trkpt lat="50.939939031377435" lon="10.077472999691963">
        <ele>237.58000000000001</ele>
        <time>2024-09-11T13:35:58Z</time>
      </trkpt>
      <trkpt lat="50.940041961148381" lon="10.077430000528693">
        <ele>236.62</ele>
        <time>2024-09-11T13:35:59Z</time>
      </trkpt>
      <trkpt lat="50.940136006101966" lon="10.077370991930366">
        <ele>235.66</ele>
        <time>2024-09-11T13:36:00Z</time>
      </trkpt>
      <trkpt lat="50.940224016085267" lon="10.077278958633542">
        <ele>235.18000000000001</ele>
        <time>2024-09-11T13:36:01Z</time>
      </trkpt>
      <trkpt lat="50.940313031896949" lon="10.077184997498989">
        <ele>234.22</ele>
        <time>2024-09-11T13:36:02Z</time>
      </trkpt>
      <trkpt lat="50.940399030223489" lon="10.077094975858927">
        <ele>233.74000000000001</ele>
        <time>2024-09-11T13:36:03Z</time>
      </trkpt>
      <trkpt lat="50.940514029935002" lon="10.076974024996161">
        <ele>232.78</ele>
        <time>2024-09-11T13:36:04Z</time>
      </trkpt>
      <trkpt lat="50.940559040755033" lon="10.076877968385816">
        <ele>232.30000000000001</ele>
        <time>2024-09-11T13:36:05Z</time>
      </trkpt>
      <trkpt lat="50.94068200327456" lon="10.076617039740086">
        <ele>230.84999999999999</ele>
        <time>2024-09-11T13:36:07Z</time>
      </trkpt>
      <trkpt lat="50.940720979124308" lon="10.076475972309709">
        <ele>230.37</ele>
        <time>2024-09-11T13:36:08Z</time>
      </trkpt>
      <trkpt lat="50.940760960802436" lon="10.07632702589035">
        <ele>229.88999999999999</ele>
        <time>2024-09-11T13:36:09Z</time>
      </trkpt>
      <trkpt lat="50.94079096801579" lon="10.076179001480341">
        <ele>228.93000000000001</ele>
        <time>2024-09-11T13:36:10Z</time>
      </trkpt>
      <trkpt lat="50.940818041563034" lon="10.07602502591908">
        <ele>228.44999999999999</ele>
        <time>2024-09-11T13:36:11Z</time>
      </trkpt>
      <trkpt lat="50.940871015191078" lon="10.075537031516433">
        <ele>227.00999999999999</ele>
        <time>2024-09-11T13:36:14Z</time>
      </trkpt>
      <trkpt lat="50.940886018797755" lon="10.075369980186224">
        <ele>226.05000000000001</ele>
        <time>2024-09-11T13:36:15Z</time>
      </trkpt>
      <trkpt lat="50.940861962735653" lon="10.074421986937523">
        <ele>223.16</ele>
        <time>2024-09-11T13:36:21Z</time>
      </trkpt>
      <trkpt lat="50.940858023241162" lon="10.074227023869753">
        <ele>221.72</ele>
        <time>2024-09-11T13:36:23Z</time>
      </trkpt>
      <trkpt lat="50.940877972170711" lon="10.07413599640131">
        <ele>221.24000000000001</ele>
        <time>2024-09-11T13:36:24Z</time>
      </trkpt>
      <trkpt lat="50.940887024626136" lon="10.074100038036704">
        <ele>220.75999999999999</ele>
        <time>2024-09-11T13:36:25Z</time>
      </trkpt>
      <trkpt lat="50.940974028781056" lon="10.074077993631363">
        <ele>220.75999999999999</ele>
        <time>2024-09-11T13:36:26Z</time>
      </trkpt>
      <trkpt lat="50.941000012680888" lon="10.074142031371593">
        <ele>220.75999999999999</ele>
        <time>2024-09-11T13:36:27Z</time>
      </trkpt>
      <trkpt lat="50.941028008237481" lon="10.074213026091456">
        <ele>220.75999999999999</ele>
        <time>2024-09-11T13:36:28Z</time>
      </trkpt>
      <trkpt lat="50.941058015450835" lon="10.074290977790952">
        <ele>220.75999999999999</ele>
        <time>2024-09-11T13:36:29Z</time>
      </trkpt>
      <trkpt lat="50.941085005179048" lon="10.074363984167576">
        <ele>220.75999999999999</ele>
        <time>2024-09-11T13:36:30Z</time>
      </trkpt>
      <trkpt lat="50.941120041534305" lon="10.074441013857722">
        <ele>220.28</ele>
        <time>2024-09-11T13:36:31Z</time>
      </trkpt>
      <trkpt lat="50.941158011555672" lon="10.074527012184262">
        <ele>220.28</ele>
        <time>2024-09-11T13:36:32Z</time>
      </trkpt>
      <trkpt lat="50.9411979932338" lon="10.074618039652705">
        <ele>220.28</ele>
        <time>2024-09-11T13:36:33Z</time>
      </trkpt>
      <trkpt lat="50.941475015133619" lon="10.075240982696414">
        <ele>219.31999999999999</ele>
        <time>2024-09-11T13:36:42Z</time>
      </trkpt>
      <trkpt lat="50.941475015133619" lon="10.075240982696414">
        <ele>219.31999999999999</ele>
        <time>2024-09-11T13:37:05Z</time>
      </trkpt>
      <trkpt lat="50.941475015133619" lon="10.075240982696414">
        <ele>219.31999999999999</ele>
        <time>2024-09-11T13:37:08Z</time>
      </trkpt>
      <trkpt lat="50.941500999033451" lon="10.075299991294742">
        <ele>218.84</ele>
        <time>2024-09-11T13:37:09Z</time>
      </trkpt>
      <trkpt lat="50.941500999033451" lon="10.075299991294742">
        <ele>218.84</ele>
        <time>2024-09-11T13:37:10Z</time>
      </trkpt>
      <trkpt lat="50.941181983798742" lon="10.074581997469068">
        <ele>218.84</ele>
        <time>2024-09-11T13:37:15Z</time>
      </trkpt>
      <trkpt lat="50.941121969372034" lon="10.074446965008974">
        <ele>218.84</ele>
        <time>2024-09-11T13:37:16Z</time>
      </trkpt>
      <trkpt lat="50.941067989915609" lon="10.074321990832686">
        <ele>218.84</ele>
        <time>2024-09-11T13:37:17Z</time>
      </trkpt>
      <trkpt lat="50.940941004082561" lon="10.073997024446726">
        <ele>219.31999999999999</ele>
        <time>2024-09-11T13:37:20Z</time>
      </trkpt>
      <trkpt lat="50.940905967727304" lon="10.073880013078451">
        <ele>219.31999999999999</ele>
        <time>2024-09-11T13:37:21Z</time>
      </trkpt>
      <trkpt lat="50.940877972170711" lon="10.073763001710176">
        <ele>219.80000000000001</ele>
        <time>2024-09-11T13:37:22Z</time>
      </trkpt>
      <trkpt lat="50.94081100076437" lon="10.073420014232397">
        <ele>219.80000000000001</ele>
        <time>2024-09-11T13:37:25Z</time>
      </trkpt>
      <trkpt lat="50.940718967467546" lon="10.072836969047785">
        <ele>220.75999999999999</ele>
        <time>2024-09-11T13:37:31Z</time>
      </trkpt>
      <trkpt lat="50.940531967207789" lon="10.071919988840818">
        <ele>221.72</ele>
        <time>2024-09-11T13:37:41Z</time>
      </trkpt>
      <trkpt lat="50.940481005236506" lon="10.0717500038445">
        <ele>221.72</ele>
        <time>2024-09-11T13:37:43Z</time>
      </trkpt>
      <trkpt lat="50.940449992194772" lon="10.071669034659863">
        <ele>221.72</ele>
        <time>2024-09-11T13:37:44Z</time>
      </trkpt>
      <trkpt lat="50.940389977768064" lon="10.071509024128318">
        <ele>221.24000000000001</ele>
        <time>2024-09-11T13:37:46Z</time>
      </trkpt>
      <trkpt lat="50.94036097638309" lon="10.071431994438171">
        <ele>221.24000000000001</ele>
        <time>2024-09-11T13:37:47Z</time>
      </trkpt>
      <trkpt lat="50.940212029963732" lon="10.071051036939025">
        <ele>221.72</ele>
        <time>2024-09-11T13:37:52Z</time>
      </trkpt>
      <trkpt lat="50.940146986395121" lon="10.070893038064241">
        <ele>222.19999999999999</ele>
        <time>2024-09-11T13:37:54Z</time>
      </trkpt>
      <trkpt lat="50.939668966457248" lon="10.069672968238592">
        <ele>223.16</ele>
        <time>2024-09-11T13:38:09Z</time>
      </trkpt>
      <trkpt lat="50.939580034464598" lon="10.069435006007552">
        <ele>223.63999999999999</ele>
        <time>2024-09-11T13:38:12Z</time>
      </trkpt>
      <trkpt lat="50.939494036138058" lon="10.069233002141118">
        <ele>224.12</ele>
        <time>2024-09-11T13:38:15Z</time>
      </trkpt>
      <trkpt lat="50.93943502753973" lon="10.069097969681025">
        <ele>224.61000000000001</ele>
        <time>2024-09-11T13:38:17Z</time>
      </trkpt>
      <trkpt lat="50.939408959820867" lon="10.069038961082697">
        <ele>225.09</ele>
        <time>2024-09-11T13:38:18Z</time>
      </trkpt>
      <trkpt lat="50.939332013949752" lon="10.068865958601236">
        <ele>224.61000000000001</ele>
        <time>2024-09-11T13:38:27Z</time>
      </trkpt>
      <trkpt lat="50.939231012016535" lon="10.06863503716886">
        <ele>224.12</ele>
        <time>2024-09-11T13:38:44Z</time>
      </trkpt>
      <trkpt lat="50.93922003172338" lon="10.068618021905422">
        <ele>223.16</ele>
        <time>2024-09-11T13:38:45Z</time>
      </trkpt>
      <trkpt lat="50.939188012853265" lon="10.068575022742152">
        <ele>222.68000000000001</ele>
        <time>2024-09-11T13:38:46Z</time>
      </trkpt>
      <trkpt lat="50.939162028953433" lon="10.068540992215276">
        <ele>222.19999999999999</ele>
        <time>2024-09-11T13:38:47Z</time>
      </trkpt>
      <trkpt lat="50.939122969284654" lon="10.06842297501862">
        <ele>221.72</ele>
        <time>2024-09-11T13:38:48Z</time>
      </trkpt>
      <trkpt lat="50.939101008698344" lon="10.068333959206939">
        <ele>221.24000000000001</ele>
        <time>2024-09-11T13:38:49Z</time>
      </trkpt>
      <trkpt lat="50.939080975949764" lon="10.068244021385908">
        <ele>220.75999999999999</ele>
        <time>2024-09-11T13:38:50Z</time>
      </trkpt>
      <trkpt lat="50.939058009535074" lon="10.068146958947182">
        <ele>219.80000000000001</ele>
        <time>2024-09-11T13:38:51Z</time>
      </trkpt>
      <trkpt lat="50.939034959301353" lon="10.068044029176235">
        <ele>219.31999999999999</ele>
        <time>2024-09-11T13:38:52Z</time>
      </trkpt>
      <trkpt lat="50.939010987058282" lon="10.067942021414638">
        <ele>218.84</ele>
        <time>2024-09-11T13:38:53Z</time>
      </trkpt>
      <trkpt lat="50.93889799900353" lon="10.067264009267092">
        <ele>215.94999999999999</ele>
        <time>2024-09-11T13:39:00Z</time>
      </trkpt>
      <trkpt lat="50.938880983740091" lon="10.067172981798649">
        <ele>215.47</ele>
        <time>2024-09-11T13:39:01Z</time>
      </trkpt>
      <trkpt lat="50.938847037032247" lon="10.066988999024034">
        <ele>214.50999999999999</ele>
        <time>2024-09-11T13:39:04Z</time>
      </trkpt>
      <trkpt lat="50.938842007890344" lon="10.06695999763906">
        <ele>214.03</ele>
        <time>2024-09-11T13:39:05Z</time>
      </trkpt>
      <trkpt lat="50.938841002061963" lon="10.066953040659428">
        <ele>214.03</ele>
        <time>2024-09-11T13:39:06Z</time>
      </trkpt>
      <trkpt lat="50.93883203342557" lon="10.066929990425706">
        <ele>213.55000000000001</ele>
        <time>2024-09-11T13:39:07Z</time>
      </trkpt>
      <trkpt lat="50.938823986798525" lon="10.066906018182635">
        <ele>213.06999999999999</ele>
        <time>2024-09-11T13:39:08Z</time>
      </trkpt>
      <trkpt lat="50.938815018162131" lon="10.066881962120533">
        <ele>212.59</ele>
        <time>2024-09-11T13:39:09Z</time>
      </trkpt>
      <trkpt lat="50.938815018162131" lon="10.066881962120533">
        <ele>212.59</ele>
        <time>2024-09-11T13:39:10Z</time>
      </trkpt>
      <trkpt lat="50.938815018162131" lon="10.066881962120533">
        <ele>212.59</ele>
        <time>2024-09-11T13:39:27Z</time>
      </trkpt>
      <trkpt lat="50.938841002061963" lon="10.066953040659428">
        <ele>213.55000000000001</ele>
        <time>2024-09-11T13:39:39Z</time>
      </trkpt>
      <trkpt lat="50.938841002061963" lon="10.066953040659428">
        <ele>214.03</ele>
        <time>2024-09-11T13:39:40Z</time>
      </trkpt>
      <trkpt lat="50.938850976526737" lon="10.067010037600994">
        <ele>214.03</ele>
        <time>2024-09-11T13:39:41Z</time>
      </trkpt>
      <trkpt lat="50.938871009275317" lon="10.067114979028702">
        <ele>213.55000000000001</ele>
        <time>2024-09-11T13:39:42Z</time>
      </trkpt>
      <trkpt lat="50.938892969861627" lon="10.067237019538879">
        <ele>213.06999999999999</ele>
        <time>2024-09-11T13:39:43Z</time>
      </trkpt>
      <trkpt lat="50.93891803175211" lon="10.067373979836702">
        <ele>213.06999999999999</ele>
        <time>2024-09-11T13:39:44Z</time>
      </trkpt>
      <trkpt lat="50.939096985384822" lon="10.068317027762532">
        <ele>211.15000000000001</ele>
        <time>2024-09-11T13:39:51Z</time>
      </trkpt>
      <trkpt lat="50.939125986769795" lon="10.068430015817285">
        <ele>210.66999999999999</ele>
        <time>2024-09-11T13:39:52Z</time>
      </trkpt>
      <trkpt lat="50.93915699981153" lon="10.068525988608599">
        <ele>210.66999999999999</ele>
        <time>2024-09-11T13:39:53Z</time>
      </trkpt>
      <trkpt lat="50.939205028116703" lon="10.068596983328462">
        <ele>210.19</ele>
        <time>2024-09-11T13:39:54Z</time>
      </trkpt>
      <trkpt lat="50.939226988703012" lon="10.068626990541816">
        <ele>210.19</ele>
        <time>2024-09-11T13:39:55Z</time>
      </trkpt>
      <trkpt lat="50.939275017008185" lon="10.068578040227294">
        <ele>209.69999999999999</ele>
        <time>2024-09-11T13:39:56Z</time>
      </trkpt>
      <trkpt lat="50.939322961494327" lon="10.068530011922121">
        <ele>209.69999999999999</ele>
        <time>2024-09-11T13:39:57Z</time>
      </trkpt>
      <trkpt lat="50.939375013113022" lon="10.068477960303426">
        <ele>210.19</ele>
        <time>2024-09-11T13:39:58Z</time>
      </trkpt>
      <trkpt lat="50.939496969804168" lon="10.06835600361228">
        <ele>209.69999999999999</ele>
        <time>2024-09-11T13:40:00Z</time>
      </trkpt>
      <trkpt lat="50.939519014209509" lon="10.068261958658695">
        <ele>209.69999999999999</ele>
        <time>2024-09-11T13:40:01Z</time>
      </trkpt>
      <trkpt lat="50.939538041129708" lon="10.068144025281072">
        <ele>209.22</ele>
        <time>2024-09-11T13:40:02Z</time>
      </trkpt>
      <trkpt lat="50.939556984230876" lon="10.068028019741178">
        <ele>208.74000000000001</ele>
        <time>2024-09-11T13:40:03Z</time>
      </trkpt>
      <trkpt lat="50.939576011151075" lon="10.067904973402619">
        <ele>208.25999999999999</ele>
        <time>2024-09-11T13:40:04Z</time>
      </trkpt>
      <trkpt lat="50.939616998657584" lon="10.067770024761558">
        <ele>208.25999999999999</ele>
        <time>2024-09-11T13:40:05Z</time>
      </trkpt>
      <trkpt lat="50.939677013084292" lon="10.067672040313482">
        <ele>207.78</ele>
        <time>2024-09-11T13:40:06Z</time>
      </trkpt>
      <trkpt lat="50.939737027511001" lon="10.067574977874756">
        <ele>207.30000000000001</ele>
        <time>2024-09-11T13:40:07Z</time>
      </trkpt>
      <trkpt lat="50.939803998917341" lon="10.067491997033358">
        <ele>207.30000000000001</ele>
        <time>2024-09-11T13:40:08Z</time>
      </trkpt>
      <trkpt lat="50.939980018883944" lon="10.067243976518512">
        <ele>206.81999999999999</ele>
        <time>2024-09-11T13:40:11Z</time>
      </trkpt>
      <trkpt lat="50.940041039139032" lon="10.067150015383959">
        <ele>206.81999999999999</ele>
        <time>2024-09-11T13:40:12Z</time>
      </trkpt>
      <trkpt lat="50.940099963918328" lon="10.067036021500826">
        <ele>206.81999999999999</ele>
        <time>2024-09-11T13:40:13Z</time>
      </trkpt>
      <trkpt lat="50.940220998600125" lon="10.066804010421038">
        <ele>206.81999999999999</ele>
        <time>2024-09-11T13:40:15Z</time>
      </trkpt>
      <trkpt lat="50.940279001370072" lon="10.066694961860776">
        <ele>206.34</ele>
        <time>2024-09-11T13:40:16Z</time>
      </trkpt>
      <trkpt lat="50.940678985789418" lon="10.066010998561978">
        <ele>205.86000000000001</ele>
        <time>2024-09-11T13:40:23Z</time>
      </trkpt>
      <trkpt lat="50.940758027136326" lon="10.065952995792031">
        <ele>206.34</ele>
        <time>2024-09-11T13:40:24Z</time>
      </trkpt>
      <trkpt lat="50.94083396717906" lon="10.065976968035102">
        <ele>206.81999999999999</ele>
        <time>2024-09-11T13:40:25Z</time>
      </trkpt>
      <trkpt lat="50.940918037667871" lon="10.066002029925585">
        <ele>206.81999999999999</ele>
        <time>2024-09-11T13:40:26Z</time>
      </trkpt>
      <trkpt lat="50.941007975488901" lon="10.066030025482178">
        <ele>207.30000000000001</ele>
        <time>2024-09-11T13:40:27Z</time>
      </trkpt>
      <trkpt lat="50.941096991300583" lon="10.06605701521039">
        <ele>207.30000000000001</ele>
        <time>2024-09-11T13:40:28Z</time>
      </trkpt>
      <trkpt lat="50.941543998196721" lon="10.066116023808718">
        <ele>208.74000000000001</ele>
        <time>2024-09-11T13:40:34Z</time>
      </trkpt>
      <trkpt lat="50.941686993464828" lon="10.066286008805037">
        <ele>209.22</ele>
        <time>2024-09-11T13:40:35Z</time>
      </trkpt>
      <trkpt lat="50.941715994849801" lon="10.066437972709537">
        <ele>209.69999999999999</ele>
        <time>2024-09-11T13:40:36Z</time>
      </trkpt>
      <trkpt lat="50.941751031205058" lon="10.066536040976644">
        <ele>210.19</ele>
        <time>2024-09-11T13:40:37Z</time>
      </trkpt>
      <trkpt lat="50.941805010661483" lon="10.066691022366285">
        <ele>210.66999999999999</ele>
        <time>2024-09-11T13:40:38Z</time>
      </trkpt>
      <trkpt lat="50.941871982067823" lon="10.066857989877462">
        <ele>210.66999999999999</ele>
        <time>2024-09-11T13:40:39Z</time>
      </trkpt>
      <trkpt lat="50.941957980394363" lon="10.067028980702162">
        <ele>210.66999999999999</ele>
        <time>2024-09-11T13:40:40Z</time>
      </trkpt>
      <trkpt lat="50.942051019519567" lon="10.067208018153906">
        <ele>210.66999999999999</ele>
        <time>2024-09-11T13:40:41Z</time>
      </trkpt>
      <trkpt lat="50.942166019231081" lon="10.067372974008322">
        <ele>210.66999999999999</ele>
        <time>2024-09-11T13:40:42Z</time>
      </trkpt>
      <trkpt lat="50.942288981750607" lon="10.067542959004641">
        <ele>210.66999999999999</ele>
        <time>2024-09-11T13:40:43Z</time>
      </trkpt>
      <trkpt lat="50.943549033254385" lon="10.069153038784862">
        <ele>210.66999999999999</ele>
        <time>2024-09-11T13:40:52Z</time>
      </trkpt>
      <trkpt lat="50.945162968710065" lon="10.071370974183083">
        <ele>213.06999999999999</ele>
        <time>2024-09-11T13:41:04Z</time>
      </trkpt>
      <trkpt lat="50.94525801949203" lon="10.071582030504942">
        <ele>213.06999999999999</ele>
        <time>2024-09-11T13:41:05Z</time>
      </trkpt>
      <trkpt lat="50.945335971191525" lon="10.071798032149673">
        <ele>213.55000000000001</ele>
        <time>2024-09-11T13:41:06Z</time>
      </trkpt>
      <trkpt lat="50.945406965911388" lon="10.071996012702584">
        <ele>213.55000000000001</ele>
        <time>2024-09-11T13:41:07Z</time>
      </trkpt>
      <trkpt lat="50.94570997171104" lon="10.073382966220379">
        <ele>214.99000000000001</ele>
        <time>2024-09-11T13:41:15Z</time>
      </trkpt>
      <trkpt lat="50.945869982242584" lon="10.075869038701057">
        <ele>215.47</ele>
        <time>2024-09-11T13:41:27Z</time>
      </trkpt>
      <trkpt lat="50.945708965882659" lon="10.078500034287572">
        <ele>214.99000000000001</ele>
        <time>2024-09-11T13:41:39Z</time>
      </trkpt>
      <trkpt lat="50.945207979530096" lon="10.081718014553189">
        <ele>212.59</ele>
        <time>2024-09-11T13:41:54Z</time>
      </trkpt>
      <trkpt lat="50.944732977077365" lon="10.083791026845574">
        <ele>210.19</ele>
        <time>2024-09-11T13:42:04Z</time>
      </trkpt>
      <trkpt lat="50.944485040381551" lon="10.084268040955067">
        <ele>208.74000000000001</ele>
        <time>2024-09-11T13:42:07Z</time>
      </trkpt>
      <trkpt lat="50.944392001256347" lon="10.08440600708127">
        <ele>208.74000000000001</ele>
        <time>2024-09-11T13:42:08Z</time>
      </trkpt>
      <trkpt lat="50.944294016808271" lon="10.084537016227841">
        <ele>208.25999999999999</ele>
        <time>2024-09-11T13:42:09Z</time>
      </trkpt>
      <trkpt lat="50.94407700933516" lon="10.084757963195443">
        <ele>208.25999999999999</ele>
        <time>2024-09-11T13:42:11Z</time>
      </trkpt>
      <trkpt lat="50.943873999640346" lon="10.084919985383749">
        <ele>208.25999999999999</ele>
        <time>2024-09-11T13:42:13Z</time>
      </trkpt>
      <trkpt lat="50.943790012970567" lon="10.084987040609121">
        <ele>208.74000000000001</ele>
        <time>2024-09-11T13:42:14Z</time>
      </trkpt>
      <trkpt lat="50.943531012162566" lon="10.085112014785409">
        <ele>211.15000000000001</ele>
        <time>2024-09-11T13:42:19Z</time>
      </trkpt>
      <trkpt lat="50.943498993292451" lon="10.085219973698258">
        <ele>211.63</ele>
        <time>2024-09-11T13:42:20Z</time>
      </trkpt>
      <trkpt lat="50.943501004949212" lon="10.085335979238153">
        <ele>212.11000000000001</ele>
        <time>2024-09-11T13:42:21Z</time>
      </trkpt>
      <trkpt lat="50.943504022434354" lon="10.08548098616302">
        <ele>212.59</ele>
        <time>2024-09-11T13:42:22Z</time>
      </trkpt>
      <trkpt lat="50.943507961928844" lon="10.085657006129622">
        <ele>212.59</ele>
        <time>2024-09-11T13:42:23Z</time>
      </trkpt>
      <trkpt lat="50.943511985242367" lon="10.085861021652818">
        <ele>213.06999999999999</ele>
        <time>2024-09-11T13:42:24Z</time>
      </trkpt>
      <trkpt lat="50.943536041304469" lon="10.087747033685446">
        <ele>216.43000000000001</ele>
        <time>2024-09-11T13:42:31Z</time>
      </trkpt>
      <trkpt lat="50.943587003275752" lon="10.090662008151412">
        <ele>216.91</ele>
        <time>2024-09-11T13:42:40Z</time>
      </trkpt>
      <trkpt lat="50.943898977711797" lon="10.093483021482825">
        <ele>215.94999999999999</ele>
        <time>2024-09-11T13:42:49Z</time>
      </trkpt>
      <trkpt lat="50.944312959909439" lon="10.0954719632864">
        <ele>215.94999999999999</ele>
        <time>2024-09-11T13:42:57Z</time>
      </trkpt>
      <trkpt lat="50.944628035649657" lon="10.096791023388505">
        <ele>215.94999999999999</ele>
        <time>2024-09-11T13:43:04Z</time>
      </trkpt>
      <trkpt lat="50.944716967642307" lon="10.097179021686316">
        <ele>215.47</ele>
        <time>2024-09-11T13:43:11Z</time>
      </trkpt>
      <trkpt lat="50.944729959592223" lon="10.097238030284643">
        <ele>215.47</ele>
        <time>2024-09-11T13:43:22Z</time>
      </trkpt>
      <trkpt lat="50.944857029244304" lon="10.097543969750404">
        <ele>215.47</ele>
        <time>2024-09-11T13:43:38Z</time>
      </trkpt>
      <trkpt lat="50.945390034466982" lon="10.098324995487928">
        <ele>214.03</ele>
        <time>2024-09-11T13:43:46Z</time>
      </trkpt>
      <trkpt lat="50.945588015019894" lon="10.098459022119641">
        <ele>213.06999999999999</ele>
        <time>2024-09-11T13:43:48Z</time>
      </trkpt>
      <trkpt lat="50.945800999179482" lon="10.098731014877558">
        <ele>211.63</ele>
        <time>2024-09-11T13:43:51Z</time>
      </trkpt>
      <trkpt lat="50.945841986685991" lon="10.098835034295917">
        <ele>211.15000000000001</ele>
        <time>2024-09-11T13:43:52Z</time>
      </trkpt>
      <trkpt lat="50.94588196836412" lon="10.098936958238482">
        <ele>210.66999999999999</ele>
        <time>2024-09-11T13:43:53Z</time>
      </trkpt>
      <trkpt lat="50.945921028032899" lon="10.099037038162351">
        <ele>210.19</ele>
        <time>2024-09-11T13:43:54Z</time>
      </trkpt>
      <trkpt lat="50.945961009711027" lon="10.099138040095568">
        <ele>210.19</ele>
        <time>2024-09-11T13:43:55Z</time>
      </trkpt>
      <trkpt lat="50.945998979732394" lon="10.099234012886882">
        <ele>209.69999999999999</ele>
        <time>2024-09-11T13:43:56Z</time>
      </trkpt>
      <trkpt lat="50.946067040786147" lon="10.099407015368342">
        <ele>210.19</ele>
        <time>2024-09-11T13:43:58Z</time>
      </trkpt>
      <trkpt lat="50.946120014414191" lon="10.09946602396667">
        <ele>210.19</ele>
        <time>2024-09-11T13:43:59Z</time>
      </trkpt>
      <trkpt lat="50.946173993870616" lon="10.099520003423095">
        <ele>210.19</ele>
        <time>2024-09-11T13:44:00Z</time>
      </trkpt>
      <trkpt lat="50.946242976933718" lon="10.099589992314577">
        <ele>210.19</ele>
        <time>2024-09-11T13:44:02Z</time>
      </trkpt>
      <trkpt lat="50.946363005787134" lon="10.099589992314577">
        <ele>210.19</ele>
        <time>2024-09-11T13:44:03Z</time>
      </trkpt>
      <trkpt lat="50.946437017992139" lon="10.099589992314577">
        <ele>210.66999999999999</ele>
        <time>2024-09-11T13:44:04Z</time>
      </trkpt>
      <trkpt lat="50.946511030197144" lon="10.099540036171675">
        <ele>210.66999999999999</ele>
        <time>2024-09-11T13:44:05Z</time>
      </trkpt>
      <trkpt lat="50.946575989946723" lon="10.099487984552979">
        <ele>211.15000000000001</ele>
        <time>2024-09-11T13:44:06Z</time>
      </trkpt>
      <trkpt lat="50.946640027686954" lon="10.099392011761665">
        <ele>211.63</ele>
        <time>2024-09-11T13:44:07Z</time>
      </trkpt>
      <trkpt lat="50.946704987436533" lon="10.09929402731359">
        <ele>211.63</ele>
        <time>2024-09-11T13:44:08Z</time>
      </trkpt>
      <trkpt lat="50.946780005469918" lon="10.099181961268187">
        <ele>211.63</ele>
        <time>2024-09-11T13:44:09Z</time>
      </trkpt>
      <trkpt lat="50.947433039546013" lon="10.097938003018498">
        <ele>212.11000000000001</ele>
        <time>2024-09-11T13:44:20Z</time>
      </trkpt>
      <trkpt lat="50.947484001517296" lon="10.097826020792127">
        <ele>212.59</ele>
        <time>2024-09-11T13:44:21Z</time>
      </trkpt>
      <trkpt lat="50.947648035362363" lon="10.097519997507334">
        <ele>213.06999999999999</ele>
        <time>2024-09-11T13:44:24Z</time>
      </trkpt>
      <trkpt lat="50.947705032303929" lon="10.097423018887639">
        <ele>213.06999999999999</ele>
        <time>2024-09-11T13:44:25Z</time>
      </trkpt>
      <trkpt lat="50.947764040902257" lon="10.097321011126041">
        <ele>213.06999999999999</ele>
        <time>2024-09-11T13:44:26Z</time>
      </trkpt>
      <trkpt lat="50.947821959853172" lon="10.097220009192824">
        <ele>213.06999999999999</ele>
        <time>2024-09-11T13:44:27Z</time>
      </trkpt>
      <trkpt lat="50.947881974279881" lon="10.097116995602846">
        <ele>213.06999999999999</ele>
        <time>2024-09-11T13:44:28Z</time>
      </trkpt>
      <trkpt lat="50.947941988706589" lon="10.097013982012868">
        <ele>213.06999999999999</ele>
        <time>2024-09-11T13:44:29Z</time>
      </trkpt>
      <trkpt lat="50.947996973991394" lon="10.096918009221554">
        <ele>212.59</ele>
        <time>2024-09-11T13:44:30Z</time>
      </trkpt>
      <trkpt lat="50.948066962882876" lon="10.096853971481323">
        <ele>212.59</ele>
        <time>2024-09-11T13:44:31Z</time>
      </trkpt>
      <trkpt lat="50.948135023936629" lon="10.096797980368137">
        <ele>212.59</ele>
        <time>2024-09-11T13:44:32Z</time>
      </trkpt>
      <trkpt lat="50.948200989514589" lon="10.096741989254951">
        <ele>212.59</ele>
        <time>2024-09-11T13:44:33Z</time>
      </trkpt>
      <trkpt lat="50.9482660330832" lon="10.096688009798527">
        <ele>212.11000000000001</ele>
        <time>2024-09-11T13:44:34Z</time>
      </trkpt>
      <trkpt lat="50.94833099283278" lon="10.096634030342102">
        <ele>212.59</ele>
        <time>2024-09-11T13:44:35Z</time>
      </trkpt>
      <trkpt lat="50.948393018916249" lon="10.096584996208549">
        <ele>212.59</ele>
        <time>2024-09-11T13:44:36Z</time>
      </trkpt>
      <trkpt lat="50.948478011414409" lon="10.09656697511673">
        <ele>213.06999999999999</ele>
        <time>2024-09-11T13:44:37Z</time>
      </trkpt>
      <trkpt lat="50.948568033054471" lon="10.096548032015562">
        <ele>213.06999999999999</ele>
        <time>2024-09-11T13:44:38Z</time>
      </trkpt>
      <trkpt lat="50.948664005845785" lon="10.096527999266982">
        <ele>213.55000000000001</ele>
        <time>2024-09-11T13:44:39Z</time>
      </trkpt>
      <trkpt lat="50.948765007779002" lon="10.096506960690022">
        <ele>214.03</ele>
        <time>2024-09-11T13:44:40Z</time>
      </trkpt>
      <trkpt lat="50.948877995833755" lon="10.096475025638938">
        <ele>214.03</ele>
        <time>2024-09-11T13:44:41Z</time>
      </trkpt>
      <trkpt lat="50.948989978060126" lon="10.096449963748455">
        <ele>214.03</ele>
        <time>2024-09-11T13:44:42Z</time>
      </trkpt>
      <trkpt lat="50.949099026620388" lon="10.096414005383849">
        <ele>214.03</ele>
        <time>2024-09-11T13:44:43Z</time>
      </trkpt>
      <trkpt lat="50.949204973876476" lon="10.096378969028592">
        <ele>214.50999999999999</ele>
        <time>2024-09-11T13:44:44Z</time>
      </trkpt>
      <trkpt lat="50.949604958295822" lon="10.096178976818919">
        <ele>213.55000000000001</ele>
        <time>2024-09-11T13:44:48Z</time>
      </trkpt>
      <trkpt lat="50.950670968741179" lon="10.095562990754843">
        <ele>213.55000000000001</ele>
        <time>2024-09-11T13:44:57Z</time>
      </trkpt>
      <trkpt lat="50.950819998979568" lon="10.095503982156515">
        <ele>213.55000000000001</ele>
        <time>2024-09-11T13:44:58Z</time>
      </trkpt>
      <trkpt lat="50.950985038653016" lon="10.095439022406936">
        <ele>214.03</ele>
        <time>2024-09-11T13:44:59Z</time>
      </trkpt>
      <trkpt lat="50.951164998114109" lon="10.095409015193582">
        <ele>214.99000000000001</ele>
        <time>2024-09-11T13:45:00Z</time>
      </trkpt>
      <trkpt lat="50.951365996152163" lon="10.095415972173214">
        <ele>215.47</ele>
        <time>2024-09-11T13:45:01Z</time>
      </trkpt>
      <trkpt lat="50.951572023332119" lon="10.095423012971878">
        <ele>215.47</ele>
        <time>2024-09-11T13:45:02Z</time>
      </trkpt>
      <trkpt lat="50.951781990006566" lon="10.095460982993245">
        <ele>215.47</ele>
        <time>2024-09-11T13:45:03Z</time>
      </trkpt>
      <trkpt lat="50.951991034671664" lon="10.095527032390237">
        <ele>215.47</ele>
        <time>2024-09-11T13:45:04Z</time>
      </trkpt>
      <trkpt lat="50.953012034296989" lon="10.095977978780866">
        <ele>214.50999999999999</ele>
        <time>2024-09-11T13:45:10Z</time>
      </trkpt>
      <trkpt lat="50.95320800319314" lon="10.096047967672348">
        <ele>213.06999999999999</ele>
        <time>2024-09-11T13:45:15Z</time>
      </trkpt>
      <trkpt lat="50.953347980976105" lon="10.096084009855986">
        <ele>210.66999999999999</ele>
        <time>2024-09-11T13:45:29Z</time>
      </trkpt>
      <trkpt lat="50.954048037528992" lon="10.09626698680222">
        <ele>211.15000000000001</ele>
        <time>2024-09-11T13:45:35Z</time>
      </trkpt>
      <trkpt lat="50.955280009657145" lon="10.096510984003544">
        <ele>209.69999999999999</ele>
        <time>2024-09-11T13:45:42Z</time>
      </trkpt>
      <trkpt lat="50.956706022843719" lon="10.096787000074983">
        <ele>209.22</ele>
        <time>2024-09-11T13:45:51Z</time>
      </trkpt>
      <trkpt lat="50.95782701857388" lon="10.097004007548094">
        <ele>213.55000000000001</ele>
        <time>2024-09-11T13:46:00Z</time>
      </trkpt>
      <trkpt lat="50.959143983200192" lon="10.097259990870953">
        <ele>213.06999999999999</ele>
        <time>2024-09-11T13:46:07Z</time>
      </trkpt>
      <trkpt lat="50.960767976939678" lon="10.097573976963758">
        <ele>213.06999999999999</ele>
        <time>2024-09-11T13:46:16Z</time>
      </trkpt>
      <trkpt lat="50.961143989115953" lon="10.097650000825524">
        <ele>214.03</ele>
        <time>2024-09-11T13:46:22Z</time>
      </trkpt>
      <trkpt lat="50.961165027692914" lon="10.097655029967427">
        <ele>214.50999999999999</ele>
        <time>2024-09-11T13:46:33Z</time>
      </trkpt>
      <trkpt lat="50.961344987154007" lon="10.097698029130697">
        <ele>215.47</ele>
        <time>2024-09-11T13:46:45Z</time>
      </trkpt>
      <trkpt lat="50.962114026769996" lon="10.097884023562074">
        <ele>216.43000000000001</ele>
        <time>2024-09-11T13:46:51Z</time>
      </trkpt>
      <trkpt lat="50.96345404163003" lon="10.098114022985101">
        <ele>216.91</ele>
        <time>2024-09-11T13:46:59Z</time>
      </trkpt>
      <trkpt lat="50.963796023279428" lon="10.098217036575079">
        <ele>217.40000000000001</ele>
        <time>2024-09-11T13:47:02Z</time>
      </trkpt>
      <trkpt lat="50.963879004120827" lon="10.098149981349707">
        <ele>217.40000000000001</ele>
        <time>2024-09-11T13:47:03Z</time>
      </trkpt>
      <trkpt lat="50.963968019932508" lon="10.098078986629844">
        <ele>216.91</ele>
        <time>2024-09-11T13:47:04Z</time>
      </trkpt>
      <trkpt lat="50.964049994945526" lon="10.097987037152052">
        <ele>215.94999999999999</ele>
        <time>2024-09-11T13:47:05Z</time>
      </trkpt>
      <trkpt lat="50.964139010757208" lon="10.097858039662242">
        <ele>215.47</ele>
        <time>2024-09-11T13:47:06Z</time>
      </trkpt>
      <trkpt lat="50.96508800983429" lon="10.096995960921049">
        <ele>209.69999999999999</ele>
        <time>2024-09-11T13:47:14Z</time>
      </trkpt>
      <trkpt lat="50.966139016672969" lon="10.096364971250296">
        <ele>203.94</ele>
        <time>2024-09-11T13:47:23Z</time>
      </trkpt>
      <trkpt lat="50.966534977778792" lon="10.096113011240959">
        <ele>202.49000000000001</ele>
        <time>2024-09-11T13:47:27Z</time>
      </trkpt>
      <trkpt lat="50.967248026281595" lon="10.09551303461194">
        <ele>197.21000000000001</ele>
        <time>2024-09-11T13:47:34Z</time>
      </trkpt>
      <trkpt lat="50.96826902590692" lon="10.094233034178615">
        <ele>191.44</ele>
        <time>2024-09-11T13:47:44Z</time>
      </trkpt>
      <trkpt lat="50.968473963439465" lon="10.093995993956923">
        <ele>190.96000000000001</ele>
        <time>2024-09-11T13:47:46Z</time>
      </trkpt>
      <trkpt lat="50.968895992264152" lon="10.093592992052436">
        <ele>190</ele>
        <time>2024-09-11T13:47:50Z</time>
      </trkpt>
      <trkpt lat="50.969763016328216" lon="10.091973021626472">
        <ele>190.47999999999999</ele>
        <time>2024-09-11T13:48:01Z</time>
      </trkpt>
      <trkpt lat="50.970258973538876" lon="10.091950977221131">
        <ele>190.47999999999999</ele>
        <time>2024-09-11T13:48:04Z</time>
      </trkpt>
      <trkpt lat="50.970290992408991" lon="10.09186003357172">
        <ele>190.47999999999999</ele>
        <time>2024-09-11T13:48:05Z</time>
      </trkpt>
      <trkpt lat="50.970371961593628" lon="10.091626010835171">
        <ele>190</ele>
        <time>2024-09-11T13:48:08Z</time>
      </trkpt>
      <trkpt lat="50.970391994342208" lon="10.091571025550365">
        <ele>190</ele>
        <time>2024-09-11T13:48:09Z</time>
      </trkpt>
      <trkpt lat="50.970080019906163" lon="10.0912169739604">
        <ele>190</ele>
        <time>2024-09-11T13:48:11Z</time>
      </trkpt>
      <trkpt lat="50.970196025446057" lon="10.09119400754571">
        <ele>190</ele>
        <time>2024-09-11T13:48:16Z</time>
      </trkpt>
      <trkpt lat="50.970448991283774" lon="10.091407997533679">
        <ele>192.88</ele>
        <time>2024-09-11T13:48:26Z</time>
      </trkpt>
      <trkpt lat="50.970532977953553" lon="10.092230010777712">
        <ele>195.28</ele>
        <time>2024-09-11T13:48:35Z</time>
      </trkpt>
      <trkpt lat="50.970530966296792" lon="10.09226898662746">
        <ele>195.77000000000001</ele>
        <time>2024-09-11T13:48:37Z</time>
      </trkpt>
      <trkpt lat="50.970527026802301" lon="10.092316009104252">
        <ele>196.25</ele>
        <time>2024-09-11T13:48:38Z</time>
      </trkpt>
      <trkpt lat="50.97052400931716" lon="10.092358002439141">
        <ele>196.25</ele>
        <time>2024-09-11T13:48:39Z</time>
      </trkpt>
      <trkpt lat="50.970198037102818" lon="10.092238979414105">
        <ele>197.69</ele>
        <time>2024-09-11T13:48:46Z</time>
      </trkpt>
      <trkpt lat="50.970198037102818" lon="10.092238979414105">
        <ele>197.69</ele>
        <time>2024-09-11T13:49:00Z</time>
      </trkpt>
      <trkpt lat="50.970155959948897" lon="10.092239985242486">
        <ele>197.69</ele>
        <time>2024-09-11T13:49:02Z</time>
      </trkpt>
      <trkpt lat="50.970130981877446" lon="10.092307040467858">
        <ele>197.69</ele>
        <time>2024-09-11T13:49:03Z</time>
      </trkpt>
      <trkpt lat="50.970092006027699" lon="10.092407958582044">
        <ele>197.69</ele>
        <time>2024-09-11T13:49:04Z</time>
      </trkpt>
      <trkpt lat="50.970044983550906" lon="10.092529999092221">
        <ele>197.69</ele>
        <time>2024-09-11T13:49:05Z</time>
      </trkpt>
      <trkpt lat="50.969582973048091" lon="10.093727018684149">
        <ele>196.25</ele>
        <time>2024-09-11T13:49:11Z</time>
      </trkpt>
      <trkpt lat="50.968573959544301" lon="10.09551596827805">
        <ele>195.77000000000001</ele>
        <time>2024-09-11T13:49:19Z</time>
      </trkpt>
      <trkpt lat="50.967258000746369" lon="10.096800997853279">
        <ele>195.28</ele>
        <time>2024-09-11T13:49:27Z</time>
      </trkpt>
      <trkpt lat="50.9651979804039" lon="10.09809298440814">
        <ele>197.21000000000001</ele>
        <time>2024-09-11T13:49:39Z</time>
      </trkpt>
      <trkpt lat="50.96410296857357" lon="10.099104009568691">
        <ele>200.09</ele>
        <time>2024-09-11T13:49:46Z</time>
      </trkpt>
      <trkpt lat="50.963181965053082" lon="10.100659020245075">
        <ele>205.38</ele>
        <time>2024-09-11T13:49:53Z</time>
      </trkpt>
      <trkpt lat="50.962494984269142" lon="10.102978963404894">
        <ele>213.55000000000001</ele>
        <time>2024-09-11T13:50:01Z</time>
      </trkpt>
      <trkpt lat="50.962272025644779" lon="10.105599984526634">
        <ele>219.80000000000001</ele>
        <time>2024-09-11T13:50:09Z</time>
      </trkpt>
      <trkpt lat="50.962219974026084" lon="10.108578996732831">
        <ele>223.63999999999999</ele>
        <time>2024-09-11T13:50:18Z</time>
      </trkpt>
      <trkpt lat="50.96197203733027" lon="10.110781006515026">
        <ele>227.97</ele>
        <time>2024-09-11T13:50:25Z</time>
      </trkpt>
      <trkpt lat="50.961809009313583" lon="10.111661022529006">
        <ele>230.84999999999999</ele>
        <time>2024-09-11T13:50:30Z</time>
      </trkpt>
      <trkpt lat="50.961722005158663" lon="10.112032005563378">
        <ele>232.30000000000001</ele>
        <time>2024-09-11T13:50:32Z</time>
      </trkpt>
      <trkpt lat="50.961235016584396" lon="10.114127984270453">
        <ele>236.62</ele>
        <time>2024-09-11T13:50:40Z</time>
      </trkpt>
      <trkpt lat="50.960530014708638" lon="10.117160975933075">
        <ele>244.31</ele>
        <time>2024-09-11T13:50:50Z</time>
      </trkpt>
      <trkpt lat="50.959975970908999" lon="10.119704967364669">
        <ele>248.16</ele>
        <time>2024-09-11T13:50:58Z</time>
      </trkpt>
      <trkpt lat="50.959877986460924" lon="10.122518017888069">
        <ele>253.93000000000001</ele>
        <time>2024-09-11T13:51:06Z</time>
      </trkpt>
      <trkpt lat="50.960350977256894" lon="10.125305000692606">
        <ele>257.29000000000002</ele>
        <time>2024-09-11T13:51:14Z</time>
      </trkpt>
      <trkpt lat="50.961442971602082" lon="10.129001000896096">
        <ele>262.10000000000002</ele>
        <time>2024-09-11T13:51:25Z</time>
      </trkpt>
      <trkpt lat="50.961785959079862" lon="10.131703997030854">
        <ele>265.94</ele>
        <time>2024-09-11T13:51:33Z</time>
      </trkpt>
      <trkpt lat="50.96160901710391" lon="10.134234996512532">
        <ele>270.75</ele>
        <time>2024-09-11T13:51:41Z</time>
      </trkpt>
      <trkpt lat="50.9610500279814" lon="10.136304991319776">
        <ele>271.23000000000002</ele>
        <time>2024-09-11T13:51:48Z</time>
      </trkpt>
      <trkpt lat="50.959861977025867" lon="10.138643039390445">
        <ele>269.79000000000002</ele>
        <time>2024-09-11T13:51:57Z</time>
      </trkpt>
      <trkpt lat="50.958333034068346" lon="10.140953008085489">
        <ele>266.89999999999998</ele>
        <time>2024-09-11T13:52:06Z</time>
      </trkpt>
      <trkpt lat="50.957265011966228" lon="10.142892999574542">
        <ele>267.86000000000001</ele>
        <time>2024-09-11T13:52:13Z</time>
      </trkpt>
      <trkpt lat="50.956020969897509" lon="10.146025987342">
        <ele>266.42000000000002</ele>
        <time>2024-09-11T13:52:23Z</time>
      </trkpt>
      <trkpt lat="50.954988989979029" lon="10.14918596483767">
        <ele>260.64999999999998</ele>
        <time>2024-09-11T13:52:33Z</time>
      </trkpt>
      <trkpt lat="50.954137975350022" lon="10.151793994009495">
        <ele>260.17000000000002</ele>
        <time>2024-09-11T13:52:42Z</time>
      </trkpt>
      <trkpt lat="50.953087974339724" lon="10.154678039252758">
        <ele>264.5</ele>
        <time>2024-09-11T13:52:52Z</time>
      </trkpt>
      <trkpt lat="50.952194966375828" lon="10.157094961032271">
        <ele>265.45999999999998</ele>
        <time>2024-09-11T13:53:00Z</time>
      </trkpt>
      <trkpt lat="50.951186958700418" lon="10.160067016258836">
        <ele>264.5</ele>
        <time>2024-09-11T13:53:10Z</time>
      </trkpt>
      <trkpt lat="50.950645990669727" lon="10.16188396140933">
        <ele>260.17000000000002</ele>
        <time>2024-09-11T13:53:16Z</time>
      </trkpt>
      <trkpt lat="50.950566027313471" lon="10.162197025492787">
        <ele>259.20999999999998</ele>
        <time>2024-09-11T13:53:17Z</time>
      </trkpt>
      <trkpt lat="50.950047019869089" lon="10.165359014645219">
        <ele>253.93000000000001</ele>
        <time>2024-09-11T13:53:26Z</time>
      </trkpt>
      <trkpt lat="50.949926991015673" lon="10.168873965740204">
        <ele>249.59999999999999</ele>
        <time>2024-09-11T13:53:35Z</time>
      </trkpt>
      <trkpt lat="50.950181968510151" lon="10.171878039836884">
        <ele>240.94999999999999</ele>
        <time>2024-09-11T13:53:43Z</time>
      </trkpt>
      <trkpt lat="50.950495032593608" lon="10.174914970993996">
        <ele>234.22</ele>
        <time>2024-09-11T13:53:52Z</time>
      </trkpt>
      <trkpt lat="50.950616989284754" lon="10.177001981064677">
        <ele>233.74000000000001</ele>
        <time>2024-09-11T13:54:00Z</time>
      </trkpt>
      <trkpt lat="50.950395036488771" lon="10.178974997252226">
        <ele>234.69999999999999</ele>
        <time>2024-09-11T13:54:10Z</time>
      </trkpt>
      <trkpt lat="50.950358994305134" lon="10.17915696837008">
        <ele>234.69999999999999</ele>
        <time>2024-09-11T13:54:11Z</time>
      </trkpt>
      <trkpt lat="50.950323035940528" lon="10.179336005821824">
        <ele>234.69999999999999</ele>
        <time>2024-09-11T13:54:12Z</time>
      </trkpt>
      <trkpt lat="50.950280958786607" lon="10.179512025788426">
        <ele>234.69999999999999</ele>
        <time>2024-09-11T13:54:13Z</time>
      </trkpt>
      <trkpt lat="50.950172999873757" lon="10.179846966639161">
        <ele>234.69999999999999</ele>
        <time>2024-09-11T13:54:15Z</time>
      </trkpt>
      <trkpt lat="50.949629014357924" lon="10.181104000657797">
        <ele>235.66</ele>
        <time>2024-09-11T13:54:23Z</time>
      </trkpt>
      <trkpt lat="50.949574029073119" lon="10.181274991482496">
        <ele>236.13999999999999</ele>
        <time>2024-09-11T13:54:24Z</time>
      </trkpt>
      <trkpt lat="50.949520971626043" lon="10.181441958993673">
        <ele>236.13999999999999</ele>
        <time>2024-09-11T13:54:25Z</time>
      </trkpt>
      <trkpt lat="50.949479984119534" lon="10.181608004495502">
        <ele>236.13999999999999</ele>
        <time>2024-09-11T13:54:26Z</time>
      </trkpt>
      <trkpt lat="50.949467997997999" lon="10.1817980222404">
        <ele>235.66</ele>
        <time>2024-09-11T13:54:27Z</time>
      </trkpt>
      <trkpt lat="50.949456011876464" lon="10.181988961994648">
        <ele>235.66</ele>
        <time>2024-09-11T13:54:28Z</time>
      </trkpt>
      <trkpt lat="50.949432039633393" lon="10.182368997484446">
        <ele>235.18000000000001</ele>
        <time>2024-09-11T13:54:30Z</time>
      </trkpt>
      <trkpt lat="50.949418963864446" lon="10.182559015229344">
        <ele>235.18000000000001</ele>
        <time>2024-09-11T13:54:31Z</time>
      </trkpt>
      <trkpt lat="50.94940697774291" lon="10.18274400383234">
        <ele>234.69999999999999</ele>
        <time>2024-09-11T13:54:32Z</time>
      </trkpt>
      <trkpt lat="50.949395997449756" lon="10.182929998263717">
        <ele>234.69999999999999</ele>
        <time>2024-09-11T13:54:33Z</time>
      </trkpt>
      <trkpt lat="50.94938401132822" lon="10.183114986866713">
        <ele>235.18000000000001</ele>
        <time>2024-09-11T13:54:34Z</time>
      </trkpt>
      <trkpt lat="50.949356015771627" lon="10.18330198712647">
        <ele>235.18000000000001</ele>
        <time>2024-09-11T13:54:35Z</time>
      </trkpt>
      <trkpt lat="50.949304969981313" lon="10.183471972122788">
        <ele>235.18000000000001</ele>
        <time>2024-09-11T13:54:36Z</time>
      </trkpt>
      <trkpt lat="50.94925501383841" lon="10.183642040938139">
        <ele>235.66</ele>
        <time>2024-09-11T13:54:37Z</time>
      </trkpt>
      <trkpt lat="50.949202962219715" lon="10.183815965428948">
        <ele>236.13999999999999</ele>
        <time>2024-09-11T13:54:38Z</time>
      </trkpt>
      <trkpt lat="50.949099026620388" lon="10.184168005362153">
        <ele>236.13999999999999</ele>
        <time>2024-09-11T13:54:40Z</time>
      </trkpt>
      <trkpt lat="50.949047980830073" lon="10.184341007843614">
        <ele>236.62</ele>
        <time>2024-09-11T13:54:41Z</time>
      </trkpt>
      <trkpt lat="50.949023002758622" lon="10.184519039466977">
        <ele>236.62</ele>
        <time>2024-09-11T13:54:42Z</time>
      </trkpt>
      <trkpt lat="50.949007999151945" lon="10.184708973392844">
        <ele>236.62</ele>
        <time>2024-09-11T13:54:43Z</time>
      </trkpt>
      <trkpt lat="50.948989978060126" lon="10.184949031099677">
        <ele>236.62</ele>
        <time>2024-09-11T13:54:44Z</time>
      </trkpt>
      <trkpt lat="50.949007999151945" lon="10.185089008882642">
        <ele>236.62</ele>
        <time>2024-09-11T13:54:45Z</time>
      </trkpt>
      <trkpt lat="50.949046975001693" lon="10.185271985828876">
        <ele>236.62</ele>
        <time>2024-09-11T13:54:46Z</time>
      </trkpt>
      <trkpt lat="50.949088968336582" lon="10.185451023280621">
        <ele>237.09999999999999</ele>
        <time>2024-09-11T13:54:47Z</time>
      </trkpt>
      <trkpt lat="50.949130039662123" lon="10.185625031590462">
        <ele>237.09999999999999</ele>
        <time>2024-09-11T13:54:48Z</time>
      </trkpt>
      <trkpt lat="50.949171027168632" lon="10.185798034071922">
        <ele>236.62</ele>
        <time>2024-09-11T13:54:49Z</time>
      </trkpt>
      <trkpt lat="50.949226012453437" lon="10.186172034591436">
        <ele>237.09999999999999</ele>
        <time>2024-09-11T13:54:51Z</time>
      </trkpt>
      <trkpt lat="50.94921100884676" lon="10.186359034851193">
        <ele>237.09999999999999</ele>
        <time>2024-09-11T13:54:52Z</time>
      </trkpt>
      <trkpt lat="50.949194999411702" lon="10.186548968777061">
        <ele>237.09999999999999</ele>
        <time>2024-09-11T13:54:53Z</time>
      </trkpt>
      <trkpt lat="50.949127022176981" lon="10.187499979510903">
        <ele>237.58000000000001</ele>
        <time>2024-09-11T13:54:58Z</time>
      </trkpt>
      <trkpt lat="50.949116963893175" lon="10.187691003084183">
        <ele>237.58000000000001</ele>
        <time>2024-09-11T13:54:59Z</time>
      </trkpt>
      <trkpt lat="50.948981009423733" lon="10.189285995438695">
        <ele>238.06</ele>
        <time>2024-09-11T13:55:08Z</time>
      </trkpt>
      <trkpt lat="50.94895301386714" lon="10.189449023455381">
        <ele>237.58000000000001</ele>
        <time>2024-09-11T13:55:09Z</time>
      </trkpt>
      <trkpt lat="50.948925018310547" lon="10.189614985138178">
        <ele>237.09999999999999</ele>
        <time>2024-09-11T13:55:10Z</time>
      </trkpt>
      <trkpt lat="50.948828961700201" lon="10.190300038084388">
        <ele>235.66</ele>
        <time>2024-09-11T13:55:14Z</time>
      </trkpt>
      <trkpt lat="50.948725026100874" lon="10.191894024610519">
        <ele>234.22</ele>
        <time>2024-09-11T13:55:23Z</time>
      </trkpt>
      <trkpt lat="50.948715973645449" lon="10.192621992900968">
        <ele>234.22</ele>
        <time>2024-09-11T13:55:27Z</time>
      </trkpt>
      <trkpt lat="50.948713961988688" lon="10.192811004817486">
        <ele>234.22</ele>
        <time>2024-09-11T13:55:28Z</time>
      </trkpt>
      <trkpt lat="50.948684960603714" lon="10.193175030872226">
        <ele>234.22</ele>
        <time>2024-09-11T13:55:30Z</time>
      </trkpt>
      <trkpt lat="50.948650008067489" lon="10.193355996161699">
        <ele>234.22</ele>
        <time>2024-09-11T13:55:31Z</time>
      </trkpt>
      <trkpt lat="50.948613965883851" lon="10.193540984764695">
        <ele>234.69999999999999</ele>
        <time>2024-09-11T13:55:32Z</time>
      </trkpt>
      <trkpt lat="50.948465019464493" lon="10.194450002163649">
        <ele>234.69999999999999</ele>
        <time>2024-09-11T13:55:37Z</time>
      </trkpt>
      <trkpt lat="50.948443980887532" lon="10.194644965231419">
        <ele>234.69999999999999</ele>
        <time>2024-09-11T13:55:38Z</time>
      </trkpt>
      <trkpt lat="50.948421014472842" lon="10.195679040625691">
        <ele>233.74000000000001</ele>
        <time>2024-09-11T13:55:43Z</time>
      </trkpt>
      <trkpt lat="50.948707005009055" lon="10.197850959375501">
        <ele>233.74000000000001</ele>
        <time>2024-09-11T13:55:52Z</time>
      </trkpt>
      <trkpt lat="50.949001964181662" lon="10.199892958626151">
        <ele>234.22</ele>
        <time>2024-09-11T13:55:59Z</time>
      </trkpt>
      <trkpt lat="50.949011016637087" lon="10.200225971639156">
        <ele>234.22</ele>
        <time>2024-09-11T13:56:00Z</time>
      </trkpt>
      <trkpt lat="50.949011016637087" lon="10.201394995674491">
        <ele>235.18000000000001</ele>
        <time>2024-09-11T13:56:04Z</time>
      </trkpt>
      <trkpt lat="50.949374036863446" lon="10.204332014545798">
        <ele>237.58000000000001</ele>
        <time>2024-09-11T13:56:14Z</time>
      </trkpt>
      <trkpt lat="50.949434973299503" lon="10.204940037801862">
        <ele>238.06</ele>
        <time>2024-09-11T13:56:16Z</time>
      </trkpt>
      <trkpt lat="50.949399014934897" lon="10.205252012237906">
        <ele>238.53999999999999</ele>
        <time>2024-09-11T13:56:17Z</time>
      </trkpt>
      <trkpt lat="50.949330031871796" lon="10.205557029694319">
        <ele>239.50999999999999</ele>
        <time>2024-09-11T13:56:18Z</time>
      </trkpt>
      <trkpt lat="50.949259959161282" lon="10.205867998301983">
        <ele>240.47</ele>
        <time>2024-09-11T13:56:19Z</time>
      </trkpt>
      <trkpt lat="50.949171027168632" lon="10.206177039071918">
        <ele>241.91</ele>
        <time>2024-09-11T13:56:20Z</time>
      </trkpt>
      <trkpt lat="50.94906197860837" lon="10.206478033214808">
        <ele>242.87</ele>
        <time>2024-09-11T13:56:21Z</time>
      </trkpt>
      <trkpt lat="50.948928035795689" lon="10.206765029579401">
        <ele>243.83000000000001</ele>
        <time>2024-09-11T13:56:22Z</time>
      </trkpt>
      <trkpt lat="50.948794009163976" lon="10.207051020115614">
        <ele>244.31</ele>
        <time>2024-09-11T13:56:23Z</time>
      </trkpt>
      <trkpt lat="50.948645984753966" lon="10.207324018701911">
        <ele>244.78999999999999</ele>
        <time>2024-09-11T13:56:24Z</time>
      </trkpt>
      <trkpt lat="50.948473988100886" lon="10.20755996927619">
        <ele>245.27000000000001</ele>
        <time>2024-09-11T13:56:25Z</time>
      </trkpt>
      <trkpt lat="50.948283970355988" lon="10.207776976749301">
        <ele>245.27000000000001</ele>
        <time>2024-09-11T13:56:26Z</time>
      </trkpt>
      <trkpt lat="50.948092024773359" lon="10.207997001707554">
        <ele>245.75</ele>
        <time>2024-09-11T13:56:27Z</time>
      </trkpt>
      <trkpt lat="50.946587976068258" lon="10.209849989041686">
        <ele>246.72</ele>
        <time>2024-09-11T13:56:35Z</time>
      </trkpt>
      <trkpt lat="50.946434000506997" lon="10.210146037861705">
        <ele>246.72</ele>
        <time>2024-09-11T13:56:36Z</time>
      </trkpt>
      <trkpt lat="50.946306008845568" lon="10.210475027561188">
        <ele>246.22999999999999</ele>
        <time>2024-09-11T13:56:37Z</time>
      </trkpt>
      <trkpt lat="50.94521401450038" lon="10.213072998449206">
        <ele>247.19999999999999</ele>
        <time>2024-09-11T13:56:45Z</time>
      </trkpt>
      <trkpt lat="50.944782011210918" lon="10.213857041671872">
        <ele>249.12</ele>
        <time>2024-09-11T13:56:48Z</time>
      </trkpt>
      <trkpt lat="50.94467899762094" lon="10.214167004451156">
        <ele>249.59999999999999</ele>
        <time>2024-09-11T13:56:49Z</time>
      </trkpt>
      <trkpt lat="50.944014983251691" lon="10.216576969251037">
        <ele>254.41</ele>
        <time>2024-09-11T13:56:56Z</time>
      </trkpt>
      <trkpt lat="50.943892020732164" lon="10.216864971444011">
        <ele>254.88999999999999</ele>
        <time>2024-09-11T13:56:57Z</time>
      </trkpt>
      <trkpt lat="50.943746007978916" lon="10.217129001393914">
        <ele>256.32999999999998</ele>
        <time>2024-09-11T13:56:58Z</time>
      </trkpt>
      <trkpt lat="50.943579040467739" lon="10.217384984716773">
        <ele>256.81</ele>
        <time>2024-09-11T13:56:59Z</time>
      </trkpt>
      <trkpt lat="50.9425950050354" lon="10.219023982062936">
        <ele>257.29000000000002</ele>
        <time>2024-09-11T13:57:05Z</time>
      </trkpt>
      <trkpt lat="50.942483022809029" lon="10.219345008954406">
        <ele>256.81</ele>
        <time>2024-09-11T13:57:06Z</time>
      </trkpt>
      <trkpt lat="50.942393001168966" lon="10.219691013917327">
        <ele>256.81</ele>
        <time>2024-09-11T13:57:07Z</time>
      </trkpt>
      <trkpt lat="50.941780032590032" lon="10.222049010917544">
        <ele>257.29000000000002</ele>
        <time>2024-09-11T13:57:14Z</time>
      </trkpt>
      <trkpt lat="50.941743990406394" lon="10.222373977303505">
        <ele>257.76999999999998</ele>
        <time>2024-09-11T13:57:15Z</time>
      </trkpt>
      <trkpt lat="50.941537041217089" lon="10.225203037261963">
        <ele>264.01999999999998</ele>
        <time>2024-09-11T13:57:23Z</time>
      </trkpt>
      <trkpt lat="50.941145019605756" lon="10.230132015421987">
        <ele>263.06</ele>
        <time>2024-09-11T13:57:37Z</time>
      </trkpt>
      <trkpt lat="50.940855005756021" lon="10.233419984579086">
        <ele>262.57999999999998</ele>
        <time>2024-09-11T13:57:47Z</time>
      </trkpt>
      <trkpt lat="50.940743023529649" lon="10.234074024483562">
        <ele>262.57999999999998</ele>
        <time>2024-09-11T13:57:50Z</time>
      </trkpt>
      <trkpt lat="50.940171964466572" lon="10.235560974106193">
        <ele>263.06</ele>
        <time>2024-09-11T13:57:58Z</time>
      </trkpt>
      <trkpt lat="50.939566036686301" lon="10.236461022868752">
        <ele>263.06</ele>
        <time>2024-09-11T13:58:06Z</time>
      </trkpt>
      <trkpt lat="50.939483977854252" lon="10.236535035073757">
        <ele>263.54000000000002</ele>
        <time>2024-09-11T13:58:12Z</time>
      </trkpt>
      <trkpt lat="50.939498981460929" lon="10.236651040613651">
        <ele>263.54000000000002</ele>
        <time>2024-09-11T13:58:29Z</time>
      </trkpt>
      <trkpt lat="50.939538963139057" lon="10.23675698786974">
        <ele>263.54000000000002</ele>
        <time>2024-09-11T13:58:30Z</time>
      </trkpt>
      <trkpt lat="50.939584979787469" lon="10.236880034208298">
        <ele>263.54000000000002</ele>
        <time>2024-09-11T13:58:31Z</time>
      </trkpt>
      <trkpt lat="50.939788995310664" lon="10.237551005557179">
        <ele>263.54000000000002</ele>
        <time>2024-09-11T13:58:35Z</time>
      </trkpt>
      <trkpt lat="50.939805004745722" lon="10.237735994160175">
        <ele>263.54000000000002</ele>
        <time>2024-09-11T13:58:36Z</time>
      </trkpt>
      <trkpt lat="50.939821014180779" lon="10.237915031611919">
        <ele>263.54000000000002</ele>
        <time>2024-09-11T13:58:37Z</time>
      </trkpt>
      <trkpt lat="50.939819002524018" lon="10.238084010779858">
        <ele>263.54000000000002</ele>
        <time>2024-09-11T13:58:38Z</time>
      </trkpt>
      <trkpt lat="50.939802993088961" lon="10.238249972462654">
        <ele>263.54000000000002</ele>
        <time>2024-09-11T13:58:39Z</time>
      </trkpt>
      <trkpt lat="50.939777009189129" lon="10.238414006307721">
        <ele>263.54000000000002</ele>
        <time>2024-09-11T13:58:40Z</time>
      </trkpt>
      <trkpt lat="50.939750019460917" lon="10.238582985475659">
        <ele>263.54000000000002</ele>
        <time>2024-09-11T13:58:41Z</time>
      </trkpt>
      <trkpt lat="50.939697967842221" lon="10.238745007663965">
        <ele>263.54000000000002</ele>
        <time>2024-09-11T13:58:42Z</time>
      </trkpt>
      <trkpt lat="50.939638037234545" lon="10.238894959911704">
        <ele>263.54000000000002</ele>
        <time>2024-09-11T13:58:43Z</time>
      </trkpt>
      <trkpt lat="50.939577016979456" lon="10.239047007635236">
        <ele>263.54000000000002</ele>
        <time>2024-09-11T13:58:44Z</time>
      </trkpt>
      <trkpt lat="50.939514990895987" lon="10.239201989024878">
        <ele>263.54000000000002</ele>
        <time>2024-09-11T13:58:45Z</time>
      </trkpt>
      <trkpt lat="50.939454976469278" lon="10.239353030920029">
        <ele>263.54000000000002</ele>
        <time>2024-09-11T13:58:46Z</time>
      </trkpt>
      <trkpt lat="50.93939202837646" lon="10.239502983167768">
        <ele>263.54000000000002</ele>
        <time>2024-09-11T13:58:47Z</time>
      </trkpt>
      <trkpt lat="50.939323967322707" lon="10.23965997621417">
        <ele>263.54000000000002</ele>
        <time>2024-09-11T13:58:48Z</time>
      </trkpt>
      <trkpt lat="50.939174015074968" lon="10.240262970328331">
        <ele>264.01999999999998</ele>
        <time>2024-09-11T13:58:51Z</time>
      </trkpt>
      <trkpt lat="50.939139984548092" lon="10.240486012771726">
        <ele>264.5</ele>
        <time>2024-09-11T13:58:52Z</time>
      </trkpt>
      <trkpt lat="50.939106037840247" lon="10.240717018023133">
        <ele>264.98000000000002</ele>
        <time>2024-09-11T13:58:53Z</time>
      </trkpt>
      <trkpt lat="50.938992965966463" lon="10.243208035826683">
        <ele>270.75</ele>
        <time>2024-09-11T13:59:03Z</time>
      </trkpt>
      <trkpt lat="50.938823986798525" lon="10.245742974802852">
        <ele>275.56</ele>
        <time>2024-09-11T13:59:14Z</time>
      </trkpt>
      <trkpt lat="50.938798002898693" lon="10.246145976707339">
        <ele>276.51999999999998</ele>
        <time>2024-09-11T13:59:16Z</time>
      </trkpt>
      <trkpt lat="50.938836978748441" lon="10.246360972523689">
        <ele>277</ele>
        <time>2024-09-11T13:59:17Z</time>
      </trkpt>
      <trkpt lat="50.93887603841722" lon="10.246571023017168">
        <ele>277.48000000000002</ele>
        <time>2024-09-11T13:59:18Z</time>
      </trkpt>
      <trkpt lat="50.938936974853277" lon="10.246771015226841">
        <ele>277.95999999999998</ele>
        <time>2024-09-11T13:59:19Z</time>
      </trkpt>
      <trkpt lat="50.9390480350703" lon="10.246924990788102">
        <ele>278.44</ele>
        <time>2024-09-11T13:59:20Z</time>
      </trkpt>
      <trkpt lat="50.939163034781814" lon="10.247087012976408">
        <ele>279.39999999999998</ele>
        <time>2024-09-11T13:59:21Z</time>
      </trkpt>
      <trkpt lat="50.939311981201172" lon="10.247232019901276">
        <ele>279.88</ele>
        <time>2024-09-11T13:59:22Z</time>
      </trkpt>
      <trkpt lat="50.939478026703" lon="10.247342996299267">
        <ele>280.36000000000001</ele>
        <time>2024-09-11T13:59:23Z</time>
      </trkpt>
      <trkpt lat="50.940027041360736" lon="10.247609037905931">
        <ele>282.76999999999998</ele>
        <time>2024-09-11T13:59:26Z</time>
      </trkpt>
      <trkpt lat="50.940223010256886" lon="10.247624041512609">
        <ele>283.25</ele>
        <time>2024-09-11T13:59:27Z</time>
      </trkpt>
      <trkpt lat="50.940427025780082" lon="10.247620018199086">
        <ele>284.20999999999998</ele>
        <time>2024-09-11T13:59:28Z</time>
      </trkpt>
      <trkpt lat="50.941997040063143" lon="10.247497977688909">
        <ele>289.49000000000001</ele>
        <time>2024-09-11T13:59:35Z</time>
      </trkpt>
      <trkpt lat="50.942188985645771" lon="10.247422959655523">
        <ele>289.97000000000003</ele>
        <time>2024-09-11T13:59:36Z</time>
      </trkpt>
      <trkpt lat="50.942373974248767" lon="10.247350037097931">
        <ele>290.94</ele>
        <time>2024-09-11T13:59:37Z</time>
      </trkpt>
      <trkpt lat="50.942516969516873" lon="10.247196983546019">
        <ele>291.89999999999998</ele>
        <time>2024-09-11T13:59:38Z</time>
      </trkpt>
      <trkpt lat="50.942644961178303" lon="10.247019035741687">
        <ele>293.33999999999997</ele>
        <time>2024-09-11T13:59:39Z</time>
      </trkpt>
      <trkpt lat="50.942771025002003" lon="10.246784007176757">
        <ele>293.81999999999999</ele>
        <time>2024-09-11T13:59:40Z</time>
      </trkpt>
      <trkpt lat="50.942901028320193" lon="10.246542021632195">
        <ele>294.77999999999997</ele>
        <time>2024-09-11T13:59:41Z</time>
      </trkpt>
      <trkpt lat="50.943306963890791" lon="10.245898962020874">
        <ele>296.69999999999999</ele>
        <time>2024-09-11T13:59:44Z</time>
      </trkpt>
      <trkpt lat="50.94491402618587" lon="10.244058966636658">
        <ele>301.99000000000001</ele>
        <time>2024-09-11T13:59:54Z</time>
      </trkpt>
      <trkpt lat="50.946349008008838" lon="10.242303041741252">
        <ele>305.36000000000001</ele>
        <time>2024-09-11T14:00:04Z</time>
      </trkpt>
      <trkpt lat="50.947135984897614" lon="10.241178022697568">
        <ele>309.68000000000001</ele>
        <time>2024-09-11T14:00:10Z</time>
      </trkpt>
      <trkpt lat="50.948238959535956" lon="10.240125004202127">
        <ele>314.49000000000001</ele>
        <time>2024-09-11T14:00:18Z</time>
      </trkpt>
      <trkpt lat="50.94852696172893" lon="10.239868015050888">
        <ele>315.93000000000001</ele>
        <time>2024-09-11T14:00:21Z</time>
      </trkpt>
      <trkpt lat="50.948638021945953" lon="10.239847982302308">
        <ele>315.93000000000001</ele>
        <time>2024-09-11T14:00:22Z</time>
      </trkpt>
      <trkpt lat="50.948745980858803" lon="10.239911014214158">
        <ele>316.41000000000003</ele>
        <time>2024-09-11T14:00:23Z</time>
      </trkpt>
      <trkpt lat="50.948802977800369" lon="10.240039005875587">
        <ele>316.41000000000003</ele>
        <time>2024-09-11T14:00:24Z</time>
      </trkpt>
      <trkpt lat="50.948817981407046" lon="10.240176972001791">
        <ele>316.41000000000003</ele>
        <time>2024-09-11T14:00:25Z</time>
      </trkpt>
      <trkpt lat="50.94878101721406" lon="10.240331031382084">
        <ele>315.93000000000001</ele>
        <time>2024-09-11T14:00:26Z</time>
      </trkpt>
      <trkpt lat="50.948697030544281" lon="10.240461034700274">
        <ele>315.93000000000001</ele>
        <time>2024-09-11T14:00:27Z</time>
      </trkpt>
      <trkpt lat="50.948612038046122" lon="10.240577962249517">
        <ele>315.44999999999999</ele>
        <time>2024-09-11T14:00:28Z</time>
      </trkpt>
      <trkpt lat="50.948324035853148" lon="10.240977024659514">
        <ele>314.00999999999999</ele>
        <time>2024-09-11T14:00:33Z</time>
      </trkpt>
      <trkpt lat="50.948291011154652" lon="10.241023041307926">
        <ele>313.52999999999997</ele>
        <time>2024-09-11T14:00:34Z</time>
      </trkpt>
      <trkpt lat="50.948262009769678" lon="10.241062017157674">
        <ele>313.52999999999997</ele>
        <time>2024-09-11T14:00:35Z</time>
      </trkpt>
      <trkpt lat="50.948239965364337" lon="10.241092024371028">
        <ele>312.56999999999999</ele>
        <time>2024-09-11T14:00:44Z</time>
      </trkpt>
      <trkpt lat="50.94818196259439" lon="10.241172993555665">
        <ele>311.60000000000002</ele>
        <time>2024-09-11T14:01:30Z</time>
      </trkpt>
      <trkpt lat="50.948140975087881" lon="10.241229990497231">
        <ele>313.52999999999997</ele>
        <time>2024-09-11T14:01:31Z</time>
      </trkpt>
      <trkpt lat="50.94809303060174" lon="10.241296039894223">
        <ele>314.00999999999999</ele>
        <time>2024-09-11T14:01:32Z</time>
      </trkpt>
      <trkpt lat="50.947746019810438" lon="10.241800965741277">
        <ele>317.37</ele>
        <time>2024-09-11T14:01:38Z</time>
      </trkpt>
      <trkpt lat="50.947631020098925" lon="10.242093997076154">
        <ele>318.81</ele>
        <time>2024-09-11T14:01:41Z</time>
      </trkpt>
      <trkpt lat="50.947593972086906" lon="10.242187958210707">
        <ele>319.30000000000001</ele>
        <time>2024-09-11T14:01:42Z</time>
      </trkpt>
      <trkpt lat="50.947437984868884" lon="10.242719035595655">
        <ele>321.69999999999999</ele>
        <time>2024-09-11T14:01:47Z</time>
      </trkpt>
      <trkpt lat="50.947423987090588" lon="10.242864964529872">
        <ele>321.69999999999999</ele>
        <time>2024-09-11T14:01:48Z</time>
      </trkpt>
      <trkpt lat="50.947423987090588" lon="10.243017012253404">
        <ele>322.66000000000003</ele>
        <time>2024-09-11T14:01:49Z</time>
      </trkpt>
      <trkpt lat="50.947433961555362" lon="10.243176016956568">
        <ele>323.13999999999999</ele>
        <time>2024-09-11T14:01:50Z</time>
      </trkpt>
      <trkpt lat="50.947455000132322" lon="10.243333010002971">
        <ele>323.13999999999999</ele>
        <time>2024-09-11T14:01:51Z</time>
      </trkpt>
      <trkpt lat="50.947494981810451" lon="10.243494026362896">
        <ele>324.10000000000002</ele>
        <time>2024-09-11T14:01:52Z</time>
      </trkpt>
      <trkpt lat="50.947551978752017" lon="10.243639033287764">
        <ele>324.10000000000002</ele>
        <time>2024-09-11T14:01:53Z</time>
      </trkpt>
      <trkpt lat="50.947608975693583" lon="10.24378496222198">
        <ele>325.06</ele>
        <time>2024-09-11T14:01:54Z</time>
      </trkpt>
      <trkpt lat="50.947667984291911" lon="10.243936004117131">
        <ele>325.54000000000002</ele>
        <time>2024-09-11T14:01:55Z</time>
      </trkpt>
      <trkpt lat="50.947916004806757" lon="10.244570011273026">
        <ele>326.99000000000001</ele>
        <time>2024-09-11T14:01:59Z</time>
      </trkpt>
      <trkpt lat="50.947978030890226" lon="10.244731027632952">
        <ele>326.99000000000001</ele>
        <time>2024-09-11T14:02:00Z</time>
      </trkpt>
      <trkpt lat="50.948641961440444" lon="10.245973980054259">
        <ele>328.43000000000001</ele>
        <time>2024-09-11T14:02:08Z</time>
      </trkpt>
      <trkpt lat="50.948732988908887" lon="10.246141031384468">
        <ele>328.43000000000001</ele>
        <time>2024-09-11T14:02:09Z</time>
      </trkpt>
      <trkpt lat="50.949269011616707" lon="10.24721902795136">
        <ele>328.91000000000003</ele>
        <time>2024-09-11T14:02:15Z</time>
      </trkpt>
      <trkpt lat="50.949328020215034" lon="10.247403010725975">
        <ele>329.38999999999999</ele>
        <time>2024-09-11T14:02:16Z</time>
      </trkpt>
      <trkpt lat="50.949955992400646" lon="10.249471999704838">
        <ele>331.79000000000002</ele>
        <time>2024-09-11T14:02:25Z</time>
      </trkpt>
      <trkpt lat="50.949966972693801" lon="10.249719014391303">
        <ele>331.79000000000002</ele>
        <time>2024-09-11T14:02:26Z</time>
      </trkpt>
      <trkpt lat="50.949977030977607" lon="10.249943984672427">
        <ele>332.26999999999998</ele>
        <time>2024-09-11T14:02:27Z</time>
      </trkpt>
      <trkpt lat="50.949956998229027" lon="10.250204997137189">
        <ele>332.75</ele>
        <time>2024-09-11T14:02:28Z</time>
      </trkpt>
      <trkpt lat="50.949937971308827" lon="10.250448994338512">
        <ele>333.23000000000002</ele>
        <time>2024-09-11T14:02:29Z</time>
      </trkpt>
      <trkpt lat="50.94992003403604" lon="10.250688968226314">
        <ele>333.70999999999998</ele>
        <time>2024-09-11T14:02:30Z</time>
      </trkpt>
      <trkpt lat="50.949901007115841" lon="10.250930031761527">
        <ele>334.19999999999999</ele>
        <time>2024-09-11T14:02:31Z</time>
      </trkpt>
      <trkpt lat="50.949882986024022" lon="10.251172017306089">
        <ele>335.16000000000003</ele>
        <time>2024-09-11T14:02:32Z</time>
      </trkpt>
      <trkpt lat="50.9498789627105" lon="10.251420037820935">
        <ele>335.63999999999999</ele>
        <time>2024-09-11T14:02:33Z</time>
      </trkpt>
      <trkpt lat="50.949912993237376" lon="10.251703010872006">
        <ele>336.60000000000002</ele>
        <time>2024-09-11T14:02:34Z</time>
      </trkpt>
      <trkpt lat="50.94996496103704" lon="10.251898979768157">
        <ele>337.56</ele>
        <time>2024-09-11T14:02:35Z</time>
      </trkpt>
      <trkpt lat="50.950025981292129" lon="10.252125039696693">
        <ele>338.51999999999998</ele>
        <time>2024-09-11T14:02:36Z</time>
      </trkpt>
      <trkpt lat="50.950535014271736" lon="10.253453990444541">
        <ele>344.29000000000002</ele>
        <time>2024-09-11T14:02:42Z</time>
      </trkpt>
      <trkpt lat="50.950640039518476" lon="10.253618024289608">
        <ele>345.25</ele>
        <time>2024-09-11T14:02:43Z</time>
      </trkpt>
      <trkpt lat="50.95075897872448" lon="10.253750961273909">
        <ele>346.20999999999998</ele>
        <time>2024-09-11T14:02:44Z</time>
      </trkpt>
      <trkpt lat="50.950885964557528" lon="10.253863027319312">
        <ele>347.17000000000002</ele>
        <time>2024-09-11T14:02:45Z</time>
      </trkpt>
      <trkpt lat="50.951031977310777" lon="10.253932010382414">
        <ele>347.64999999999998</ele>
        <time>2024-09-11T14:02:46Z</time>
      </trkpt>
      <trkpt lat="50.951184025034308" lon="10.254004010930657">
        <ele>348.62</ele>
        <time>2024-09-11T14:02:47Z</time>
      </trkpt>
      <trkpt lat="50.952786980196834" lon="10.254852008074522">
        <ele>355.82999999999998</ele>
        <time>2024-09-11T14:02:57Z</time>
      </trkpt>
      <trkpt lat="50.953948963433504" lon="10.255821961909533">
        <ele>360.63</ele>
        <time>2024-09-11T14:03:05Z</time>
      </trkpt>
      <trkpt lat="50.954085001721978" lon="10.255937967449427">
        <ele>361.11000000000001</ele>
        <time>2024-09-11T14:03:06Z</time>
      </trkpt>
      <trkpt lat="50.954859992489219" lon="10.256937006488442">
        <ele>362.06999999999999</ele>
        <time>2024-09-11T14:03:12Z</time>
      </trkpt>
      <trkpt lat="50.955805974081159" lon="10.258404007181525">
        <ele>356.31</ele>
        <time>2024-09-11T14:03:20Z</time>
      </trkpt>
      <trkpt lat="50.955984005704522" lon="10.258558988571167">
        <ele>354.38</ele>
        <time>2024-09-11T14:03:22Z</time>
      </trkpt>
      <trkpt lat="50.956049971282482" lon="10.258591007441282">
        <ele>353.89999999999998</ele>
        <time>2024-09-11T14:03:23Z</time>
      </trkpt>
      <trkpt lat="50.95606598071754" lon="10.258563011884689">
        <ele>353.89999999999998</ele>
        <time>2024-09-11T14:03:24Z</time>
      </trkpt>
      <trkpt lat="50.956117026507854" lon="10.25847801938653">
        <ele>353.42000000000002</ele>
        <time>2024-09-11T14:03:25Z</time>
      </trkpt>
      <trkpt lat="50.956177962943912" lon="10.258377017453313">
        <ele>352.94</ele>
        <time>2024-09-11T14:03:26Z</time>
      </trkpt>
      <trkpt lat="50.956177962943912" lon="10.258293030783534">
        <ele>351.98000000000002</ele>
        <time>2024-09-11T14:03:27Z</time>
      </trkpt>
      <trkpt lat="50.956177962943912" lon="10.258124973624945">
        <ele>351.5</ele>
        <time>2024-09-11T14:03:28Z</time>
      </trkpt>
      <trkpt lat="50.956167988479137" lon="10.257952976971865">
        <ele>350.54000000000002</ele>
        <time>2024-09-11T14:03:29Z</time>
      </trkpt>
      <trkpt lat="50.956134963780642" lon="10.257774023339152">
        <ele>349.57999999999998</ele>
        <time>2024-09-11T14:03:30Z</time>
      </trkpt>
      <trkpt lat="50.956103028729558" lon="10.257601020857692">
        <ele>349.10000000000002</ele>
        <time>2024-09-11T14:03:31Z</time>
      </trkpt>
      <trkpt lat="50.955985011532903" lon="10.256960978731513">
        <ele>347.17000000000002</ele>
        <time>2024-09-11T14:03:34Z</time>
      </trkpt>
      <trkpt lat="50.955985011532903" lon="10.256843967363238">
        <ele>346.69</ele>
        <time>2024-09-11T14:03:35Z</time>
      </trkpt>
      <trkpt lat="50.955985011532903" lon="10.256659984588623">
        <ele>345.25</ele>
        <time>2024-09-11T14:03:37Z</time>
      </trkpt>
      <trkpt lat="50.956049971282482" lon="10.256487987935543">
        <ele>344.76999999999998</ele>
        <time>2024-09-11T14:03:38Z</time>
      </trkpt>
      <trkpt lat="50.956200007349253" lon="10.256359996274114">
        <ele>344.29000000000002</ele>
        <time>2024-09-11T14:03:39Z</time>
      </trkpt>
      <trkpt lat="50.956242000684142" lon="10.256355972960591">
        <ele>343.32999999999998</ele>
        <time>2024-09-11T14:03:40Z</time>
      </trkpt>
      <trkpt lat="50.956413997337222" lon="10.256338035687804">
        <ele>342.37</ele>
        <time>2024-09-11T14:03:41Z</time>
      </trkpt>
      <trkpt lat="50.956479040905833" lon="10.256439037621021">
        <ele>340.92000000000002</ele>
        <time>2024-09-11T14:03:42Z</time>
      </trkpt>
      <trkpt lat="50.956570990383625" lon="10.256582032889128">
        <ele>339.48000000000002</ele>
        <time>2024-09-11T14:03:43Z</time>
      </trkpt>
      <trkpt lat="50.956675009801984" lon="10.256744977086782">
        <ele>338.04000000000002</ele>
        <time>2024-09-11T14:03:44Z</time>
      </trkpt>
      <trkpt lat="50.957586038857698" lon="10.258075017482042">
        <ele>327.94999999999999</ele>
        <time>2024-09-11T14:03:51Z</time>
      </trkpt>
      <trkpt lat="50.957735991105437" lon="10.258256988599896">
        <ele>326.5</ele>
        <time>2024-09-11T14:03:52Z</time>
      </trkpt>
      <trkpt lat="50.958449961617589" lon="10.258754035457969">
        <ele>321.69999999999999</ele>
        <time>2024-09-11T14:03:56Z</time>
      </trkpt>
      <trkpt lat="50.958645008504391" lon="10.258829975500703">
        <ele>320.25999999999999</ele>
        <time>2024-09-11T14:03:57Z</time>
      </trkpt>
      <trkpt lat="50.95881499350071" lon="10.258836010470986">
        <ele>318.81</ele>
        <time>2024-09-11T14:03:58Z</time>
      </trkpt>
      <trkpt lat="50.95896796323359" lon="10.258841961622238">
        <ele>317.37</ele>
        <time>2024-09-11T14:03:59Z</time>
      </trkpt>
      <trkpt lat="50.9591159876436" lon="10.258847996592522">
        <ele>315.93000000000001</ele>
        <time>2024-09-11T14:04:00Z</time>
      </trkpt>
      <trkpt lat="50.959248002618551" lon="10.258921002969146">
        <ele>314.49000000000001</ele>
        <time>2024-09-11T14:04:01Z</time>
      </trkpt>
      <trkpt lat="50.959398960694671" lon="10.259022004902363">
        <ele>313.05000000000001</ele>
        <time>2024-09-11T14:04:02Z</time>
      </trkpt>
      <trkpt lat="50.959542961791158" lon="10.259117977693677">
        <ele>311.60000000000002</ele>
        <time>2024-09-11T14:04:03Z</time>
      </trkpt>
      <trkpt lat="50.959713030606508" lon="10.259148990735412">
        <ele>310.16000000000003</ele>
        <time>2024-09-11T14:04:04Z</time>
      </trkpt>
      <trkpt lat="50.959861977025867" lon="10.259141027927399">
        <ele>308.24000000000001</ele>
        <time>2024-09-11T14:04:05Z</time>
      </trkpt>
      <trkpt lat="50.959975970908999" lon="10.259075984358788">
        <ele>306.80000000000001</ele>
        <time>2024-09-11T14:04:06Z</time>
      </trkpt>
      <trkpt lat="50.960085019469261" lon="10.258944975212216">
        <ele>304.88</ele>
        <time>2024-09-11T14:04:07Z</time>
      </trkpt>
      <trkpt lat="50.960168000310659" lon="10.258830981329083">
        <ele>303.43000000000001</ele>
        <time>2024-09-11T14:04:08Z</time>
      </trkpt>
      <trkpt lat="50.960260033607483" lon="10.258688991889358">
        <ele>301.99000000000001</ele>
        <time>2024-09-11T14:04:09Z</time>
      </trkpt>
      <trkpt lat="50.96034100279212" lon="10.258526969701052">
        <ele>300.55000000000001</ele>
        <time>2024-09-11T14:04:10Z</time>
      </trkpt>
      <trkpt lat="50.960415014997125" lon="10.258326977491379">
        <ele>299.58999999999997</ele>
        <time>2024-09-11T14:04:11Z</time>
      </trkpt>
      <trkpt lat="50.960475029423833" lon="10.258106030523777">
        <ele>298.63</ele>
        <time>2024-09-11T14:04:12Z</time>
      </trkpt>
      <trkpt lat="50.960524985566735" lon="10.257846023887396">
        <ele>297.67000000000002</ele>
        <time>2024-09-11T14:04:13Z</time>
      </trkpt>
      <trkpt lat="50.960549041628838" lon="10.257595991715789">
        <ele>295.74000000000001</ele>
        <time>2024-09-11T14:04:14Z</time>
      </trkpt>
      <trkpt lat="50.960571002215147" lon="10.25736297480762">
        <ele>293.81999999999999</ele>
        <time>2024-09-11T14:04:15Z</time>
      </trkpt>
      <trkpt lat="50.960617018863559" lon="10.257158037275076">
        <ele>291.89999999999998</ele>
        <time>2024-09-11T14:04:16Z</time>
      </trkpt>
      <trkpt lat="50.960718020796776" lon="10.257009007036686">
        <ele>290.45999999999998</ele>
        <time>2024-09-11T14:04:17Z</time>
      </trkpt>
      <trkpt lat="50.960819022729993" lon="10.256929965689778">
        <ele>288.52999999999997</ele>
        <time>2024-09-11T14:04:18Z</time>
      </trkpt>
      <trkpt lat="50.960922036319971" lon="10.25697598233819">
        <ele>286.61000000000001</ele>
        <time>2024-09-11T14:04:19Z</time>
      </trkpt>
      <trkpt lat="50.960984984412789" lon="10.257056029513478">
        <ele>284.20999999999998</ele>
        <time>2024-09-11T14:04:20Z</time>
      </trkpt>
      <trkpt lat="50.961052961647511" lon="10.257218973711133">
        <ele>282.27999999999997</ele>
        <time>2024-09-11T14:04:21Z</time>
      </trkpt>
      <trkpt lat="50.96109302714467" lon="10.257412008941174">
        <ele>279.88</ele>
        <time>2024-09-11T14:04:22Z</time>
      </trkpt>
      <trkpt lat="50.961128985509276" lon="10.257662041112781">
        <ele>277.48000000000002</ele>
        <time>2024-09-11T14:04:23Z</time>
      </trkpt>
      <trkpt lat="50.961165027692914" lon="10.257916012778878">
        <ele>275.06999999999999</ele>
        <time>2024-09-11T14:04:24Z</time>
      </trkpt>
      <trkpt lat="50.961324032396078" lon="10.25912300683558">
        <ele>265.45999999999998</ele>
        <time>2024-09-11T14:04:29Z</time>
      </trkpt>
      <trkpt lat="50.961312968283892" lon="10.259370021522045">
        <ele>264.01999999999998</ele>
        <time>2024-09-11T14:04:30Z</time>
      </trkpt>
      <trkpt lat="50.961279021576047" lon="10.25959599763155">
        <ele>262.57999999999998</ele>
        <time>2024-09-11T14:04:31Z</time>
      </trkpt>
      <trkpt lat="50.961210960522294" lon="10.259849969297647">
        <ele>261.62</ele>
        <time>2024-09-11T14:04:32Z</time>
      </trkpt>
      <trkpt lat="50.961139965802431" lon="10.260106036439538">
        <ele>260.64999999999998</ele>
        <time>2024-09-11T14:04:33Z</time>
      </trkpt>
      <trkpt lat="50.960437981411815" lon="10.262312991544604">
        <ele>254.41</ele>
        <time>2024-09-11T14:04:41Z</time>
      </trkpt>
      <trkpt lat="50.960032967850566" lon="10.263788960874081">
        <ele>250.56</ele>
        <time>2024-09-11T14:04:46Z</time>
      </trkpt>
      <trkpt lat="50.959987035021186" lon="10.264079980552197">
        <ele>249.59999999999999</ele>
        <time>2024-09-11T14:04:47Z</time>
      </trkpt>
      <trkpt lat="50.959944035857916" lon="10.264391032978892">
        <ele>249.59999999999999</ele>
        <time>2024-09-11T14:04:48Z</time>
      </trkpt>
      <trkpt lat="50.959940012544394" lon="10.264725973829627">
        <ele>249.12</ele>
        <time>2024-09-11T14:04:49Z</time>
      </trkpt>
      <trkpt lat="50.959946969524026" lon="10.265025962144136">
        <ele>248.63999999999999</ele>
        <time>2024-09-11T14:04:50Z</time>
      </trkpt>
      <trkpt lat="50.95995401032269" lon="10.265318993479013">
        <ele>248.63999999999999</ele>
        <time>2024-09-11T14:04:51Z</time>
      </trkpt>
      <trkpt lat="50.960006983950734" lon="10.265617975965142">
        <ele>248.16</ele>
        <time>2024-09-11T14:04:52Z</time>
      </trkpt>
      <trkpt lat="50.960063980892301" lon="10.2659120131284">
        <ele>247.68000000000001</ele>
        <time>2024-09-11T14:04:53Z</time>
      </trkpt>
      <trkpt lat="50.9607910271734" lon="10.268327007070184">
        <ele>243.83000000000001</ele>
        <time>2024-09-11T14:05:01Z</time>
      </trkpt>
      <trkpt lat="50.961040975525975" lon="10.269209034740925">
        <ele>241.43000000000001</ele>
        <time>2024-09-11T14:05:04Z</time>
      </trkpt>
      <trkpt lat="50.96126401796937" lon="10.270778965204954">
        <ele>235.66</ele>
        <time>2024-09-11T14:05:09Z</time>
      </trkpt>
      <trkpt lat="50.961273992434144" lon="10.271098986268044">
        <ele>234.22</ele>
        <time>2024-09-11T14:05:10Z</time>
      </trkpt>
      <trkpt lat="50.961327971890569" lon="10.272995978593826">
        <ele>223.16</ele>
        <time>2024-09-11T14:05:17Z</time>
      </trkpt>
      <trkpt lat="50.961355967447162" lon="10.274384021759033">
        <ele>215.47</ele>
        <time>2024-09-11T14:05:23Z</time>
      </trkpt>
      <trkpt lat="50.96139402128756" lon="10.274617960676551">
        <ele>214.99000000000001</ele>
        <time>2024-09-11T14:05:24Z</time>
      </trkpt>
      <trkpt lat="50.961440959945321" lon="10.274895988404751">
        <ele>214.50999999999999</ele>
        <time>2024-09-11T14:05:25Z</time>
      </trkpt>
      <trkpt lat="50.961623014882207" lon="10.275456989184022">
        <ele>212.11000000000001</ele>
        <time>2024-09-11T14:05:28Z</time>
      </trkpt>
      <trkpt lat="50.961681017652154" lon="10.275618005543947">
        <ele>211.15000000000001</ele>
        <time>2024-09-11T14:05:29Z</time>
      </trkpt>
      <trkpt lat="50.961724016815424" lon="10.275670979171991">
        <ele>210.19</ele>
        <time>2024-09-11T14:05:30Z</time>
      </trkpt>
      <trkpt lat="50.961756035685539" lon="10.27570903301239">
        <ele>209.22</ele>
        <time>2024-09-11T14:05:31Z</time>
      </trkpt>
      <trkpt lat="50.961777996271849" lon="10.275736022740602">
        <ele>208.25999999999999</ele>
        <time>2024-09-11T14:05:32Z</time>
      </trkpt>
      <trkpt lat="50.961828958243132" lon="10.27579796500504">
        <ele>205.86000000000001</ele>
        <time>2024-09-11T14:05:42Z</time>
      </trkpt>
      <trkpt lat="50.961828958243132" lon="10.27579796500504">
        <ele>205.86000000000001</ele>
        <time>2024-09-11T14:06:20Z</time>
      </trkpt>
      <trkpt lat="50.962005984038115" lon="10.276011032983661">
        <ele>204.90000000000001</ele>
        <time>2024-09-11T14:06:45Z</time>
      </trkpt>
      <trkpt lat="50.962287029251456" lon="10.276337005198002">
        <ele>203.94</ele>
        <time>2024-09-11T14:06:49Z</time>
      </trkpt>
      <trkpt lat="50.962364980950952" lon="10.2764199860394">
        <ele>203.46000000000001</ele>
        <time>2024-09-11T14:06:50Z</time>
      </trkpt>
      <trkpt lat="50.962498001754284" lon="10.276561975479126">
        <ele>202.97999999999999</ele>
        <time>2024-09-11T14:06:52Z</time>
      </trkpt>
      <trkpt lat="50.963110970333219" lon="10.277217021211982">
        <ele>200.56999999999999</ele>
        <time>2024-09-11T14:06:59Z</time>
      </trkpt>
      <trkpt lat="50.963238039985299" lon="10.277258008718491">
        <ele>200.09</ele>
        <time>2024-09-11T14:07:00Z</time>
      </trkpt>
      <trkpt lat="50.963659984990954" lon="10.277394969016314">
        <ele>200.56999999999999</ele>
        <time>2024-09-11T14:07:04Z</time>
      </trkpt>
      <trkpt lat="50.964631028473377" lon="10.277727982029319">
        <ele>204.90000000000001</ele>
        <time>2024-09-11T14:07:12Z</time>
      </trkpt>
      <trkpt lat="50.96476698294282" lon="10.277812974527478">
        <ele>205.38</ele>
        <time>2024-09-11T14:07:13Z</time>
      </trkpt>
      <trkpt lat="50.96491601318121" lon="10.277908025309443">
        <ele>205.38</ele>
        <time>2024-09-11T14:07:14Z</time>
      </trkpt>
      <trkpt lat="50.965166967362165" lon="10.278222011402249">
        <ele>206.34</ele>
        <time>2024-09-11T14:07:16Z</time>
      </trkpt>
      <trkpt lat="50.965297976508737" lon="10.278419991955161">
        <ele>206.81999999999999</ele>
        <time>2024-09-11T14:07:17Z</time>
      </trkpt>
      <trkpt lat="50.965693015605211" lon="10.279379971325397">
        <ele>209.22</ele>
        <time>2024-09-11T14:07:21Z</time>
      </trkpt>
      <trkpt lat="50.965741965919733" lon="10.279710972681642">
        <ele>209.22</ele>
        <time>2024-09-11T14:07:22Z</time>
      </trkpt>
      <trkpt lat="50.965760992839932" lon="10.279997969046235">
        <ele>209.22</ele>
        <time>2024-09-11T14:07:23Z</time>
      </trkpt>
      <trkpt lat="50.965763004496694" lon="10.280314972624183">
        <ele>209.69999999999999</ele>
        <time>2024-09-11T14:07:24Z</time>
      </trkpt>
      <trkpt lat="50.965751018375158" lon="10.280610015615821">
        <ele>209.69999999999999</ele>
        <time>2024-09-11T14:07:25Z</time>
      </trkpt>
      <trkpt lat="50.965507021173835" lon="10.284052966162562">
        <ele>209.69999999999999</ele>
        <time>2024-09-11T14:07:36Z</time>
      </trkpt>
      <trkpt lat="50.965320020914078" lon="10.286663006991148">
        <ele>208.25999999999999</ele>
        <time>2024-09-11T14:07:44Z</time>
      </trkpt>
      <trkpt lat="50.965297976508737" lon="10.287275975570083">
        <ele>208.74000000000001</ele>
        <time>2024-09-11T14:07:46Z</time>
      </trkpt>
      <trkpt lat="50.965381041169167" lon="10.289642019197345">
        <ele>208.74000000000001</ele>
        <time>2024-09-11T14:07:54Z</time>
      </trkpt>
      <trkpt lat="50.965440971776843" lon="10.289910994470119">
        <ele>208.74000000000001</ele>
        <time>2024-09-11T14:07:55Z</time>
      </trkpt>
      <trkpt lat="50.965527975931764" lon="10.290151974186301">
        <ele>208.74000000000001</ele>
        <time>2024-09-11T14:07:56Z</time>
      </trkpt>
      <trkpt lat="50.965641969814897" lon="10.290393959730864">
        <ele>208.74000000000001</ele>
        <time>2024-09-11T14:07:57Z</time>
      </trkpt>
      <trkpt lat="50.966339008882642" lon="10.291903959587216">
        <ele>206.81999999999999</ele>
        <time>2024-09-11T14:08:03Z</time>
      </trkpt>
      <trkpt lat="50.966462977230549" lon="10.292516006156802">
        <ele>205.38</ele>
        <time>2024-09-11T14:08:05Z</time>
      </trkpt>
      <trkpt lat="50.966677973046899" lon="10.294575020670891">
        <ele>201.05000000000001</ele>
        <time>2024-09-11T14:08:12Z</time>
      </trkpt>
      <trkpt lat="50.966712003573775" lon="10.294862017035484">
        <ele>200.56999999999999</ele>
        <time>2024-09-11T14:08:13Z</time>
      </trkpt>
      <trkpt lat="50.966813005506992" lon="10.295148007571697">
        <ele>200.09</ele>
        <time>2024-09-11T14:08:14Z</time>
      </trkpt>
      <trkpt lat="50.966886011883616" lon="10.29534799978137">
        <ele>199.61000000000001</ele>
        <time>2024-09-11T14:08:15Z</time>
      </trkpt>
      <trkpt lat="50.967039987444878" lon="10.295610018074512">
        <ele>198.65000000000001</ele>
        <time>2024-09-11T14:08:16Z</time>
      </trkpt>
      <trkpt lat="50.967178037390113" lon="10.295794000849128">
        <ele>197.69</ele>
        <time>2024-09-11T14:08:17Z</time>
      </trkpt>
      <trkpt lat="50.967339975759387" lon="10.295963985845447">
        <ele>196.25</ele>
        <time>2024-09-11T14:08:18Z</time>
      </trkpt>
      <trkpt lat="50.967503003776073" lon="10.296133970841765">
        <ele>194.80000000000001</ele>
        <time>2024-09-11T14:08:19Z</time>
      </trkpt>
      <trkpt lat="50.968822985887527" lon="10.297339037060738">
        <ele>184.22999999999999</ele>
        <time>2024-09-11T14:08:27Z</time>
      </trkpt>
      <trkpt lat="50.969001017510891" lon="10.297397961840034">
        <ele>183.27000000000001</ele>
        <time>2024-09-11T14:08:28Z</time>
      </trkpt>
      <trkpt lat="50.969177037477493" lon="10.297456970438361">
        <ele>181.83000000000001</ele>
        <time>2024-09-11T14:08:29Z</time>
      </trkpt>
      <trkpt lat="50.970404986292124" lon="10.297824013978243">
        <ele>174.13999999999999</ele>
        <time>2024-09-11T14:08:36Z</time>
      </trkpt>
      <trkpt lat="50.970788039267063" lon="10.298040015622973">
        <ele>171.72999999999999</ele>
        <time>2024-09-11T14:08:39Z</time>
      </trkpt>
      <trkpt lat="50.970878982916474" lon="10.298102963715792">
        <ele>171.25</ele>
        <time>2024-09-11T14:08:40Z</time>
      </trkpt>
      <trkpt lat="50.97093497402966" lon="10.29818301089108">
        <ele>170.28999999999999</ele>
        <time>2024-09-11T14:08:41Z</time>
      </trkpt>
      <trkpt lat="50.970985013991594" lon="10.298272026702762">
        <ele>169.81</ele>
        <time>2024-09-11T14:08:42Z</time>
      </trkpt>
      <trkpt lat="50.971005968749523" lon="10.298308990895748">
        <ele>168.84999999999999</ele>
        <time>2024-09-11T14:08:43Z</time>
      </trkpt>
      <trkpt lat="50.971005968749523" lon="10.298308990895748">
        <ele>168.37</ele>
        <time>2024-09-11T14:08:44Z</time>
      </trkpt>
      <trkpt lat="50.970989959314466" lon="10.29863697476685">
        <ele>167.88999999999999</ele>
        <time>2024-09-11T14:08:46Z</time>
      </trkpt>
      <trkpt lat="50.970962969586253" lon="10.299189006909728">
        <ele>168.37</ele>
        <time>2024-09-11T14:08:48Z</time>
      </trkpt>
      <trkpt lat="50.971027007326484" lon="10.299361003562808">
        <ele>168.84999999999999</ele>
        <time>2024-09-11T14:08:49Z</time>
      </trkpt>
      <trkpt lat="50.971144018694758" lon="10.299510033801198">
        <ele>169.33000000000001</ele>
        <time>2024-09-11T14:08:50Z</time>
      </trkpt>
      <trkpt lat="50.971238985657692" lon="10.299573987722397">
        <ele>169.81</ele>
        <time>2024-09-11T14:08:51Z</time>
      </trkpt>
      <trkpt lat="50.971344010904431" lon="10.299643976613879">
        <ele>169.81</ele>
        <time>2024-09-11T14:08:52Z</time>
      </trkpt>
      <trkpt lat="50.9714509639889" lon="10.299717988818884">
        <ele>169.81</ele>
        <time>2024-09-11T14:08:53Z</time>
      </trkpt>
      <trkpt lat="50.971584990620613" lon="10.299811027944088">
        <ele>169.81</ele>
        <time>2024-09-11T14:08:54Z</time>
      </trkpt>
      <trkpt lat="50.971655985340476" lon="10.299862995743752">
        <ele>170.28999999999999</ele>
        <time>2024-09-11T14:08:55Z</time>
      </trkpt>
      <trkpt lat="50.971743995323777" lon="10.299927033483982">
        <ele>170.28999999999999</ele>
        <time>2024-09-11T14:08:56Z</time>
      </trkpt>
      <trkpt lat="50.971990004181862" lon="10.300105987116694">
        <ele>169.81</ele>
        <time>2024-09-11T14:08:59Z</time>
      </trkpt>
      <trkpt lat="50.972057981416583" lon="10.300156027078629">
        <ele>169.81</ele>
        <time>2024-09-11T14:09:00Z</time>
      </trkpt>
      <trkpt lat="50.972347995266318" lon="10.300362976267934">
        <ele>171.25</ele>
        <time>2024-09-11T14:09:04Z</time>
      </trkpt>
      <trkpt lat="50.972423013299704" lon="10.300417961552739">
        <ele>172.21000000000001</ele>
        <time>2024-09-11T14:09:05Z</time>
      </trkpt>
      <trkpt lat="50.973015027120709" lon="10.300836972892284">
        <ele>177.97999999999999</ele>
        <time>2024-09-11T14:09:15Z</time>
      </trkpt>
      <trkpt lat="50.973046962171793" lon="10.300857005640864">
        <ele>180.38</ele>
        <time>2024-09-11T14:09:26Z</time>
      </trkpt>
      <trkpt lat="50.973066994920373" lon="10.3008689917624">
        <ele>181.34999999999999</ele>
        <time>2024-09-11T14:10:07Z</time>
      </trkpt>
      <trkpt lat="50.973475025966763" lon="10.301117012277246">
        <ele>188.56</ele>
        <time>2024-09-11T14:10:14Z</time>
      </trkpt>
      <trkpt lat="50.974268959835172" lon="10.301486989483237">
        <ele>194.80000000000001</ele>
        <time>2024-09-11T14:10:26Z</time>
      </trkpt>
      <trkpt lat="50.974311958998442" lon="10.301505010575056">
        <ele>195.28</ele>
        <time>2024-09-11T14:10:27Z</time>
      </trkpt>
      <trkpt lat="50.974363004788756" lon="10.301524959504604">
        <ele>195.77000000000001</ele>
        <time>2024-09-11T14:10:28Z</time>
      </trkpt>
      <trkpt lat="50.974418995901942" lon="10.301548009738326">
        <ele>195.77000000000001</ele>
        <time>2024-09-11T14:10:29Z</time>
      </trkpt>
      <trkpt lat="50.97462804056704" lon="10.301633002236485">
        <ele>196.72999999999999</ele>
        <time>2024-09-11T14:10:33Z</time>
      </trkpt>
      <trkpt lat="50.974919982254505" lon="10.301826037466526">
        <ele>198.65000000000001</ele>
        <time>2024-09-11T14:10:38Z</time>
      </trkpt>
      <trkpt lat="50.974979996681213" lon="10.301875993609428">
        <ele>198.65000000000001</ele>
        <time>2024-09-11T14:10:39Z</time>
      </trkpt>
      <trkpt lat="50.975448964163661" lon="10.302269021049142">
        <ele>199.61000000000001</ele>
        <time>2024-09-11T14:10:46Z</time>
      </trkpt>
      <trkpt lat="50.975519958883524" lon="10.30232903547585">
        <ele>200.56999999999999</ele>
        <time>2024-09-11T14:10:47Z</time>
      </trkpt>
      <trkpt lat="50.975590031594038" lon="10.302387038245797">
        <ele>200.56999999999999</ele>
        <time>2024-09-11T14:10:48Z</time>
      </trkpt>
      <trkpt lat="50.975663959980011" lon="10.302449986338615">
        <ele>200.56999999999999</ele>
        <time>2024-09-11T14:10:49Z</time>
      </trkpt>
      <trkpt lat="50.975734032690525" lon="10.302511006593704">
        <ele>200.09</ele>
        <time>2024-09-11T14:10:50Z</time>
      </trkpt>
      <trkpt lat="50.975801004096866" lon="10.302569009363651">
        <ele>199.61000000000001</ele>
        <time>2024-09-11T14:10:51Z</time>
      </trkpt>
      <trkpt lat="50.975866969674826" lon="10.302627012133598">
        <ele>199.61000000000001</ele>
        <time>2024-09-11T14:10:52Z</time>
      </trkpt>
      <trkpt lat="50.975935030728579" lon="10.302686020731926">
        <ele>199.13</ele>
        <time>2024-09-11T14:10:53Z</time>
      </trkpt>
      <trkpt lat="50.976005019620061" lon="10.302746035158634">
        <ele>199.13</ele>
        <time>2024-09-11T14:10:54Z</time>
      </trkpt>
      <trkpt lat="50.976080959662795" lon="10.302813006564975">
        <ele>199.13</ele>
        <time>2024-09-11T14:10:55Z</time>
      </trkpt>
      <trkpt lat="50.97615597769618" lon="10.302877966314554">
        <ele>199.13</ele>
        <time>2024-09-11T14:10:56Z</time>
      </trkpt>
      <trkpt lat="50.976224960759282" lon="10.302937980741262">
        <ele>199.61000000000001</ele>
        <time>2024-09-11T14:10:57Z</time>
      </trkpt>
      <trkpt lat="50.977097013965249" lon="10.303696040064096">
        <ele>201.53</ele>
        <time>2024-09-11T14:11:08Z</time>
      </trkpt>
      <trkpt lat="50.977403959259391" lon="10.303956968709826">
        <ele>203.46000000000001</ele>
        <time>2024-09-11T14:11:16Z</time>
      </trkpt>
      <trkpt lat="50.977576039731503" lon="10.304107004776597">
        <ele>204.90000000000001</ele>
        <time>2024-09-11T14:11:28Z</time>
      </trkpt>
      <trkpt lat="50.977827999740839" lon="10.3044159617275">
        <ele>204.90000000000001</ele>
        <time>2024-09-11T14:11:32Z</time>
      </trkpt>
      <trkpt lat="50.977886002510786" lon="10.304495003074408">
        <ele>205.38</ele>
        <time>2024-09-11T14:11:33Z</time>
      </trkpt>
      <trkpt lat="50.977936964482069" lon="10.30456499196589">
        <ele>205.86000000000001</ele>
        <time>2024-09-11T14:11:34Z</time>
      </trkpt>
      <trkpt lat="50.977975018322468" lon="10.304616959765553">
        <ele>206.34</ele>
        <time>2024-09-11T14:11:35Z</time>
      </trkpt>
      <trkpt lat="50.977944005280733" lon="10.304752998054028">
        <ele>206.34</ele>
        <time>2024-09-11T14:11:36Z</time>
      </trkpt>
      <trkpt lat="50.977909974753857" lon="10.304784011095762">
        <ele>206.81999999999999</ele>
        <time>2024-09-11T14:11:37Z</time>
      </trkpt>
      <trkpt lat="50.977863036096096" lon="10.304824998602271">
        <ele>207.30000000000001</ele>
        <time>2024-09-11T14:11:38Z</time>
      </trkpt>
      <trkpt lat="50.977804027497768" lon="10.304878978058696">
        <ele>207.78</ele>
        <time>2024-09-11T14:11:39Z</time>
      </trkpt>
      <trkpt lat="50.977124003693461" lon="10.305428998544812">
        <ele>210.19</ele>
        <time>2024-09-11T14:11:48Z</time>
      </trkpt>
      <trkpt lat="50.977058038115501" lon="10.305484989657998">
        <ele>210.66999999999999</ele>
        <time>2024-09-11T14:11:49Z</time>
      </trkpt>
      <trkpt lat="50.976994000375271" lon="10.305538969114423">
        <ele>210.66999999999999</ele>
        <time>2024-09-11T14:11:50Z</time>
      </trkpt>
      <trkpt lat="50.976963993161917" lon="10.305635025724769">
        <ele>211.15000000000001</ele>
        <time>2024-09-11T14:11:51Z</time>
      </trkpt>
      <trkpt lat="50.976931974291801" lon="10.305741978809237">
        <ele>211.15000000000001</ele>
        <time>2024-09-11T14:11:52Z</time>
      </trkpt>
      <trkpt lat="50.976928034797311" lon="10.305849015712738">
        <ele>211.15000000000001</ele>
        <time>2024-09-11T14:11:53Z</time>
      </trkpt>
      <trkpt lat="50.976928034797311" lon="10.305972984060645">
        <ele>211.63</ele>
        <time>2024-09-11T14:11:54Z</time>
      </trkpt>
      <trkpt lat="50.976889980956912" lon="10.306459972634912">
        <ele>212.59</ele>
        <time>2024-09-11T14:11:58Z</time>
      </trkpt>
      <trkpt lat="50.976880006492138" lon="10.306578995659947">
        <ele>213.06999999999999</ele>
        <time>2024-09-11T14:11:59Z</time>
      </trkpt>
      <trkpt lat="50.97684103064239" lon="10.307221971452236">
        <ele>214.03</ele>
        <time>2024-09-11T14:12:04Z</time>
      </trkpt>
      <trkpt lat="50.976832984015346" lon="10.30735700391233">
        <ele>214.03</ele>
        <time>2024-09-11T14:12:05Z</time>
      </trkpt>
      <trkpt lat="50.976825021207333" lon="10.30748600140214">
        <ele>214.03</ele>
        <time>2024-09-11T14:12:06Z</time>
      </trkpt>
      <trkpt lat="50.976817980408669" lon="10.307612987235188">
        <ele>214.03</ele>
        <time>2024-09-11T14:12:07Z</time>
      </trkpt>
      <trkpt lat="50.976810017600656" lon="10.307737961411476">
        <ele>214.03</ele>
        <time>2024-09-11T14:12:08Z</time>
      </trkpt>
      <trkpt lat="50.976802976801991" lon="10.307862013578415">
        <ele>214.03</ele>
        <time>2024-09-11T14:12:09Z</time>
      </trkpt>
      <trkpt lat="50.976799037307501" lon="10.3079819586128">
        <ele>214.50999999999999</ele>
        <time>2024-09-11T14:12:10Z</time>
      </trkpt>
      <trkpt lat="50.976707004010677" lon="10.309200016781688">
        <ele>214.99000000000001</ele>
        <time>2024-09-11T14:12:20Z</time>
      </trkpt>
      <trkpt lat="50.976596027612686" lon="10.310552017763257">
        <ele>214.99000000000001</ele>
        <time>2024-09-11T14:12:31Z</time>
      </trkpt>
      <trkpt lat="50.976571971550584" lon="10.310816969722509">
        <ele>214.99000000000001</ele>
        <time>2024-09-11T14:12:34Z</time>
      </trkpt>
      <trkpt lat="50.976545987650752" lon="10.311094997450709">
        <ele>215.47</ele>
        <time>2024-09-11T14:12:37Z</time>
      </trkpt>
      <trkpt lat="50.976507011801004" lon="10.31150596216321">
        <ele>215.94999999999999</ele>
        <time>2024-09-11T14:12:41Z</time>
      </trkpt>
      <trkpt lat="50.976495025679469" lon="10.311610987409949">
        <ele>215.94999999999999</ele>
        <time>2024-09-11T14:12:42Z</time>
      </trkpt>
      <trkpt lat="50.976424030959606" lon="10.311985993757844">
        <ele>216.43000000000001</ele>
        <time>2024-09-11T14:12:46Z</time>
      </trkpt>
      <trkpt lat="50.976403998211026" lon="10.312091019004583">
        <ele>216.43000000000001</ele>
        <time>2024-09-11T14:12:47Z</time>
      </trkpt>
      <trkpt lat="50.976366028189659" lon="10.312290005385876">
        <ele>216.91</ele>
        <time>2024-09-11T14:12:49Z</time>
      </trkpt>
      <trkpt lat="50.97634800709784" lon="10.312381032854319">
        <ele>216.91</ele>
        <time>2024-09-11T14:12:50Z</time>
      </trkpt>
      <trkpt lat="50.976333003491163" lon="10.312459990382195">
        <ele>217.40000000000001</ele>
        <time>2024-09-11T14:12:51Z</time>
      </trkpt>
      <trkpt lat="50.976317999884486" lon="10.312790991738439">
        <ele>217.88</ele>
        <time>2024-09-11T14:12:55Z</time>
      </trkpt>
      <trkpt lat="50.976294027641416" lon="10.313568999990821">
        <ele>217.88</ele>
        <time>2024-09-11T14:13:05Z</time>
      </trkpt>
      <trkpt lat="50.97628204151988" lon="10.313977031037211">
        <ele>217.40000000000001</ele>
        <time>2024-09-11T14:13:15Z</time>
      </trkpt>
      <trkpt lat="50.976208029314876" lon="10.313918022438884">
        <ele>217.40000000000001</ele>
        <time>2024-09-11T14:13:16Z</time>
      </trkpt>
      <trkpt lat="50.976186990737915" lon="10.313920034095645">
        <ele>216.91</ele>
        <time>2024-09-11T14:13:17Z</time>
      </trkpt>
      <trkpt lat="50.976164024323225" lon="10.313921961933374">
        <ele>216.91</ele>
        <time>2024-09-11T14:13:18Z</time>
      </trkpt>
      <trkpt lat="50.976144997403026" lon="10.313924979418516">
        <ele>216.43000000000001</ele>
        <time>2024-09-11T14:13:19Z</time>
      </trkpt>
      <trkpt lat="50.976128987967968" lon="10.313925985246897">
        <ele>215.94999999999999</ele>
        <time>2024-09-11T14:13:20Z</time>
      </trkpt>
      <trkpt lat="50.976114990189672" lon="10.313927996903658">
        <ele>215.94999999999999</ele>
        <time>2024-09-11T14:13:21Z</time>
      </trkpt>
      <trkpt lat="50.976091017946601" lon="10.3139310143888">
        <ele>215.47</ele>
        <time>2024-09-11T14:13:22Z</time>
      </trkpt>
      <trkpt lat="50.976285981014371" lon="10.313833029940724">
        <ele>214.99000000000001</ele>
        <time>2024-09-11T14:13:25Z</time>
      </trkpt>
      <trkpt lat="50.976286986842752" lon="10.313797993585467">
        <ele>214.99000000000001</ele>
        <time>2024-09-11T14:13:26Z</time>
      </trkpt>
      <trkpt lat="50.976288998499513" lon="10.313764968886971">
        <ele>214.99000000000001</ele>
        <time>2024-09-11T14:13:27Z</time>
      </trkpt>
      <trkpt lat="50.976288998499513" lon="10.313764968886971">
        <ele>214.50999999999999</ele>
        <time>2024-09-11T14:13:28Z</time>
      </trkpt>
      <trkpt lat="50.976064028218389" lon="10.313697997480631">
        <ele>212.11000000000001</ele>
        <time>2024-09-11T14:18:11Z</time>
      </trkpt>
      <trkpt lat="50.976117001846433" lon="10.313692968338728">
        <ele>221.72</ele>
        <time>2024-09-11T14:18:34Z</time>
      </trkpt>
      <trkpt lat="50.976123036816716" lon="10.313667990267277">
        <ele>222.19999999999999</ele>
        <time>2024-09-11T14:18:41Z</time>
      </trkpt>
      <trkpt lat="50.976297967135906" lon="10.313447965309024">
        <ele>222.68000000000001</ele>
        <time>2024-09-11T14:18:50Z</time>
      </trkpt>
      <trkpt lat="50.976298972964287" lon="10.313427010551095">
        <ele>222.68000000000001</ele>
        <time>2024-09-11T14:18:51Z</time>
      </trkpt>
      <trkpt lat="50.976299978792667" lon="10.313391974195838">
        <ele>222.19999999999999</ele>
        <time>2024-09-11T14:18:53Z</time>
      </trkpt>
      <trkpt lat="50.976299978792667" lon="10.313391974195838">
        <ele>222.19999999999999</ele>
        <time>2024-09-11T14:18:54Z</time>
      </trkpt>
      <trkpt lat="50.976298972964287" lon="10.31341896392405">
        <ele>221.24000000000001</ele>
        <time>2024-09-11T14:18:57Z</time>
      </trkpt>
      <trkpt lat="50.976297967135906" lon="10.313464980572462">
        <ele>220.75999999999999</ele>
        <time>2024-09-11T14:18:58Z</time>
      </trkpt>
      <trkpt lat="50.976295033469796" lon="10.313536981120706">
        <ele>220.28</ele>
        <time>2024-09-11T14:18:59Z</time>
      </trkpt>
      <trkpt lat="50.976293021813035" lon="10.313622979447246">
        <ele>219.80000000000001</ele>
        <time>2024-09-11T14:19:00Z</time>
      </trkpt>
      <trkpt lat="50.97628396935761" lon="10.313908969983459">
        <ele>219.31999999999999</ele>
        <time>2024-09-11T14:19:01Z</time>
      </trkpt>
      <trkpt lat="50.97628396935761" lon="10.313908969983459">
        <ele>219.31999999999999</ele>
        <time>2024-09-11T14:19:02Z</time>
      </trkpt>
      <trkpt lat="50.97628396935761" lon="10.313929002732038">
        <ele>218.84</ele>
        <time>2024-09-11T14:19:04Z</time>
      </trkpt>
      <trkpt lat="50.976156983524561" lon="10.313922967761755">
        <ele>218.84</ele>
        <time>2024-09-11T14:19:05Z</time>
      </trkpt>
      <trkpt lat="50.97617601044476" lon="10.313921039924026">
        <ele>218.36000000000001</ele>
        <time>2024-09-11T14:19:06Z</time>
      </trkpt>
      <trkpt lat="50.976201994344592" lon="10.313918022438884">
        <ele>218.36000000000001</ele>
        <time>2024-09-11T14:19:07Z</time>
      </trkpt>
      <trkpt lat="50.976232001557946" lon="10.313915004953742">
        <ele>217.88</ele>
        <time>2024-09-11T14:19:08Z</time>
      </trkpt>
      <trkpt lat="50.976257985457778" lon="10.3139119874686">
        <ele>217.88</ele>
        <time>2024-09-11T14:19:09Z</time>
      </trkpt>
      <trkpt lat="50.976282963529229" lon="10.313908969983459">
        <ele>217.40000000000001</ele>
        <time>2024-09-11T14:19:10Z</time>
      </trkpt>
      <trkpt lat="50.976278018206358" lon="10.314093036577106">
        <ele>217.40000000000001</ele>
        <time>2024-09-11T14:19:11Z</time>
      </trkpt>
      <trkpt lat="50.976276006549597" lon="10.31416897661984">
        <ele>217.40000000000001</ele>
        <time>2024-09-11T14:19:12Z</time>
      </trkpt>
      <trkpt lat="50.976271983236074" lon="10.314260004088283">
        <ele>216.91</ele>
        <time>2024-09-11T14:19:13Z</time>
      </trkpt>
      <trkpt lat="50.976268965750933" lon="10.314355976879597">
        <ele>216.91</ele>
        <time>2024-09-11T14:19:14Z</time>
      </trkpt>
      <trkpt lat="50.976266032084823" lon="10.314456978812814">
        <ele>216.91</ele>
        <time>2024-09-11T14:19:15Z</time>
      </trkpt>
      <trkpt lat="50.976263014599681" lon="10.31455303542316">
        <ele>216.91</ele>
        <time>2024-09-11T14:19:16Z</time>
      </trkpt>
      <trkpt lat="50.976251028478146" lon="10.314638027921319">
        <ele>216.43000000000001</ele>
        <time>2024-09-11T14:19:17Z</time>
      </trkpt>
      <trkpt lat="50.976237030699849" lon="10.314723020419478">
        <ele>216.43000000000001</ele>
        <time>2024-09-11T14:19:18Z</time>
      </trkpt>
      <trkpt lat="50.976221021264791" lon="10.314807007089257">
        <ele>216.43000000000001</ele>
        <time>2024-09-11T14:19:19Z</time>
      </trkpt>
      <trkpt lat="50.976205011829734" lon="10.314893005415797">
        <ele>216.43000000000001</ele>
        <time>2024-09-11T14:19:20Z</time>
      </trkpt>
      <trkpt lat="50.975994039326906" lon="10.315764974802732">
        <ele>217.88</ele>
        <time>2024-09-11T14:19:29Z</time>
      </trkpt>
      <trkpt lat="50.975965037941933" lon="10.315868994221091">
        <ele>217.88</ele>
        <time>2024-09-11T14:19:30Z</time>
      </trkpt>
      <trkpt lat="50.975794969126582" lon="10.316506018862128">
        <ele>219.80000000000001</ele>
        <time>2024-09-11T14:19:36Z</time>
      </trkpt>
      <trkpt lat="50.97576797939837" lon="10.316607020795345">
        <ele>220.28</ele>
        <time>2024-09-11T14:19:37Z</time>
      </trkpt>
      <trkpt lat="50.975740989670157" lon="10.316708022728562">
        <ele>220.28</ele>
        <time>2024-09-11T14:19:38Z</time>
      </trkpt>
      <trkpt lat="50.97563998773694" lon="10.317091997712851">
        <ele>220.75999999999999</ele>
        <time>2024-09-11T14:19:42Z</time>
      </trkpt>
      <trkpt lat="50.975567987188697" lon="10.317247984930873">
        <ele>221.24000000000001</ele>
        <time>2024-09-11T14:19:44Z</time>
      </trkpt>
      <trkpt lat="50.975476959720254" lon="10.317383017390966">
        <ele>221.72</ele>
        <time>2024-09-11T14:19:46Z</time>
      </trkpt>
      <trkpt lat="50.975409988313913" lon="10.317527018487453">
        <ele>221.72</ele>
        <time>2024-09-11T14:19:48Z</time>
      </trkpt>
      <trkpt lat="50.975378975272179" lon="10.317607987672091">
        <ele>221.72</ele>
        <time>2024-09-11T14:19:49Z</time>
      </trkpt>
      <trkpt lat="50.975190969184041" lon="10.318102017045021">
        <ele>222.68000000000001</ele>
        <time>2024-09-11T14:19:56Z</time>
      </trkpt>
      <trkpt lat="50.975142018869519" lon="10.31822900287807">
        <ele>222.68000000000001</ele>
        <time>2024-09-11T14:19:58Z</time>
      </trkpt>
      <trkpt lat="50.975115029141307" lon="10.318301003426313">
        <ele>222.68000000000001</ele>
        <time>2024-09-11T14:19:59Z</time>
      </trkpt>
      <trkpt lat="50.974992988631129" lon="10.318848006427288">
        <ele>222.68000000000001</ele>
        <time>2024-09-11T14:20:11Z</time>
      </trkpt>
      <trkpt lat="50.974858039990067" lon="10.319078005850315">
        <ele>222.19999999999999</ele>
        <time>2024-09-11T14:20:19Z</time>
      </trkpt>
      <trkpt lat="50.974827026948333" lon="10.319057973101735">
        <ele>222.19999999999999</ele>
        <time>2024-09-11T14:20:20Z</time>
      </trkpt>
      <trkpt lat="50.974794002249837" lon="10.319038024172187">
        <ele>222.19999999999999</ele>
        <time>2024-09-11T14:20:21Z</time>
      </trkpt>
      <trkpt lat="50.97475997172296" lon="10.319016985595226">
        <ele>222.19999999999999</ele>
        <time>2024-09-11T14:20:22Z</time>
      </trkpt>
      <trkpt lat="50.974730970337987" lon="10.318999970331788">
        <ele>222.19999999999999</ele>
        <time>2024-09-11T14:20:23Z</time>
      </trkpt>
      <trkpt lat="50.974518992006779" lon="10.318868961185217">
        <ele>223.16</ele>
        <time>2024-09-11T14:20:29Z</time>
      </trkpt>
      <trkpt lat="50.974476998671889" lon="10.318842977285385">
        <ele>223.63999999999999</ele>
        <time>2024-09-11T14:20:30Z</time>
      </trkpt>
      <trkpt lat="50.974440034478903" lon="10.318821016699076">
        <ele>223.63999999999999</ele>
        <time>2024-09-11T14:20:31Z</time>
      </trkpt>
      <trkpt lat="50.974408015608788" lon="10.318800983950496">
        <ele>223.63999999999999</ele>
        <time>2024-09-11T14:20:32Z</time>
      </trkpt>
      <trkpt lat="50.974373985081911" lon="10.318780029192567">
        <ele>224.12</ele>
        <time>2024-09-11T14:20:33Z</time>
      </trkpt>
      <trkpt lat="50.974354958161712" lon="10.318871978670359">
        <ele>224.61000000000001</ele>
        <time>2024-09-11T14:20:34Z</time>
      </trkpt>
      <trkpt lat="50.974342972040176" lon="10.318925036117435">
        <ele>224.61000000000001</ele>
        <time>2024-09-11T14:20:35Z</time>
      </trkpt>
      <trkpt lat="50.974330985918641" lon="10.318983038887382">
        <ele>225.09</ele>
        <time>2024-09-11T14:20:36Z</time>
      </trkpt>
      <trkpt lat="50.974317993968725" lon="10.319044981151819">
        <ele>225.09</ele>
        <time>2024-09-11T14:20:37Z</time>
      </trkpt>
      <trkpt lat="50.974308019503951" lon="10.319102983921766">
        <ele>225.09</ele>
        <time>2024-09-11T14:20:38Z</time>
      </trkpt>
      <trkpt lat="50.974300978705287" lon="10.319183031097054">
        <ele>225.09</ele>
        <time>2024-09-11T14:20:39Z</time>
      </trkpt>
      <trkpt lat="50.974228978157043" lon="10.319955004379153">
        <ele>226.53</ele>
        <time>2024-09-11T14:20:50Z</time>
      </trkpt>
      <trkpt lat="50.974225960671902" lon="10.31998903490603">
        <ele>227.00999999999999</ele>
        <time>2024-09-11T14:20:51Z</time>
      </trkpt>
      <trkpt lat="50.974225960671902" lon="10.31998903490603">
        <ele>227.00999999999999</ele>
        <time>2024-09-11T14:20:52Z</time>
      </trkpt>
      <trkpt lat="50.974254962056875" lon="10.320053994655609">
        <ele>225.56999999999999</ele>
        <time>2024-09-11T14:21:07Z</time>
      </trkpt>
      <trkpt lat="50.974254962056875" lon="10.320053994655609">
        <ele>225.56999999999999</ele>
        <time>2024-09-11T14:21:33Z</time>
      </trkpt>
      <trkpt lat="50.974287986755371" lon="10.320061035454273">
        <ele>214.99000000000001</ele>
        <time>2024-09-11T15:08:46Z</time>
      </trkpt>
      <trkpt lat="50.974284969270229" lon="10.32007603906095">
        <ele>219.80000000000001</ele>
        <time>2024-09-11T15:09:32Z</time>
      </trkpt>
      <trkpt lat="50.974284969270229" lon="10.320050977170467">
        <ele>223.63999999999999</ele>
        <time>2024-09-11T15:09:54Z</time>
      </trkpt>
      <trkpt lat="50.974245993420482" lon="10.320061035454273">
        <ele>223.63999999999999</ele>
        <time>2024-09-11T15:10:03Z</time>
      </trkpt>
      <trkpt lat="50.974215986207128" lon="10.320094982162118">
        <ele>223.16</ele>
        <time>2024-09-11T15:10:05Z</time>
      </trkpt>
      <trkpt lat="50.974115990102291" lon="10.320251975208521">
        <ele>222.68000000000001</ele>
        <time>2024-09-11T15:10:08Z</time>
      </trkpt>
      <trkpt lat="50.973891019821167" lon="10.320286005735397">
        <ele>220.28</ele>
        <time>2024-09-11T15:10:15Z</time>
      </trkpt>
      <trkpt lat="50.973773002624512" lon="10.320339985191822">
        <ele>219.31999999999999</ele>
        <time>2024-09-11T15:10:16Z</time>
      </trkpt>
      <trkpt lat="50.973765039816499" lon="10.320729995146394">
        <ele>210.19</ele>
        <time>2024-09-11T15:10:22Z</time>
      </trkpt>
      <trkpt lat="50.973761016502976" lon="10.320925964042544">
        <ele>204.90000000000001</ele>
        <time>2024-09-11T15:10:25Z</time>
      </trkpt>
      <trkpt lat="50.973757999017835" lon="10.321100978180766">
        <ele>201.05000000000001</ele>
        <time>2024-09-11T15:10:27Z</time>
      </trkpt>
      <trkpt lat="50.973755987361073" lon="10.321197034791112">
        <ele>198.65000000000001</ele>
        <time>2024-09-11T15:10:28Z</time>
      </trkpt>
      <trkpt lat="50.973742995411158" lon="10.321491993963718">
        <ele>190.96000000000001</ele>
        <time>2024-09-11T15:10:31Z</time>
      </trkpt>
      <trkpt lat="50.973653979599476" lon="10.322665963321924">
        <ele>169.33000000000001</ele>
        <time>2024-09-11T15:10:42Z</time>
      </trkpt>
      <trkpt lat="50.973649034276605" lon="10.322735030204058">
        <ele>168.84999999999999</ele>
        <time>2024-09-11T15:10:43Z</time>
      </trkpt>
      <trkpt lat="50.973642999306321" lon="10.322811976075172">
        <ele>168.37</ele>
        <time>2024-09-11T15:10:44Z</time>
      </trkpt>
      <trkpt lat="50.973638975992799" lon="10.3228709846735">
        <ele>168.37</ele>
        <time>2024-09-11T15:10:45Z</time>
      </trkpt>
      <trkpt lat="50.973622966557741" lon="10.323071982711554">
        <ele>168.37</ele>
        <time>2024-09-11T15:10:46Z</time>
      </trkpt>
      <trkpt lat="50.973622966557741" lon="10.323071982711554">
        <ele>168.37</ele>
        <time>2024-09-11T15:10:47Z</time>
      </trkpt>
      <trkpt lat="50.973206972703338" lon="10.323561988770962">
        <ele>168.84999999999999</ele>
        <time>2024-09-11T15:10:58Z</time>
      </trkpt>
      <trkpt lat="50.973172020167112" lon="10.323547990992665">
        <ele>168.84999999999999</ele>
        <time>2024-09-11T15:10:59Z</time>
      </trkpt>
      <trkpt lat="50.973001029342413" lon="10.323479007929564">
        <ele>170.28999999999999</ele>
        <time>2024-09-11T15:11:03Z</time>
      </trkpt>
      <trkpt lat="50.972935985773802" lon="10.323464004322886">
        <ele>170.28999999999999</ele>
        <time>2024-09-11T15:11:05Z</time>
      </trkpt>
      <trkpt lat="50.972844958305359" lon="10.323442965745926">
        <ele>171.25</ele>
        <time>2024-09-11T15:11:07Z</time>
      </trkpt>
      <trkpt lat="50.972802964970469" lon="10.323432991281152">
        <ele>171.25</ele>
        <time>2024-09-11T15:11:08Z</time>
      </trkpt>
      <trkpt lat="50.972759965807199" lon="10.323423016816378">
        <ele>171.25</ele>
        <time>2024-09-11T15:11:09Z</time>
      </trkpt>
      <trkpt lat="50.972715960815549" lon="10.323412036523223">
        <ele>171.72999999999999</ele>
        <time>2024-09-11T15:11:10Z</time>
      </trkpt>
      <trkpt lat="50.972663993015885" lon="10.323399966582656">
        <ele>172.21000000000001</ele>
        <time>2024-09-11T15:11:11Z</time>
      </trkpt>
      <trkpt lat="50.972610013559461" lon="10.323396027088165">
        <ele>172.69</ele>
        <time>2024-09-11T15:11:12Z</time>
      </trkpt>
      <trkpt lat="50.972558967769146" lon="10.323399966582656">
        <ele>173.16999999999999</ele>
        <time>2024-09-11T15:11:13Z</time>
      </trkpt>
      <trkpt lat="50.971927978098392" lon="10.323452018201351">
        <ele>178.94</ele>
        <time>2024-09-11T15:11:26Z</time>
      </trkpt>
      <trkpt lat="50.971864024177194" lon="10.323457969352603">
        <ele>180.38</ele>
        <time>2024-09-11T15:11:27Z</time>
      </trkpt>
      <trkpt lat="50.97183502279222" lon="10.323466015979648">
        <ele>181.83000000000001</ele>
        <time>2024-09-11T15:11:28Z</time>
      </trkpt>
      <trkpt lat="50.971797974780202" lon="10.323476996272802">
        <ele>182.31</ele>
        <time>2024-09-11T15:11:29Z</time>
      </trkpt>
      <trkpt lat="50.971713988110423" lon="10.323538016527891">
        <ele>183.27000000000001</ele>
        <time>2024-09-11T15:11:30Z</time>
      </trkpt>
      <trkpt lat="50.971713988110423" lon="10.323609011247754">
        <ele>183.75</ele>
        <time>2024-09-11T15:11:31Z</time>
      </trkpt>
      <trkpt lat="50.971721028909087" lon="10.32377103343606">
        <ele>185.19</ele>
        <time>2024-09-11T15:11:33Z</time>
      </trkpt>
      <trkpt lat="50.971774002537131" lon="10.324633028358221">
        <ele>188.56</ele>
        <time>2024-09-11T15:11:42Z</time>
      </trkpt>
      <trkpt lat="50.971780037507415" lon="10.324736963957548">
        <ele>188.56</ele>
        <time>2024-09-11T15:11:51Z</time>
      </trkpt>
      <trkpt lat="50.971793029457331" lon="10.324945002794266">
        <ele>190</ele>
        <time>2024-09-11T15:12:28Z</time>
      </trkpt>
      <trkpt lat="50.971821025013924" lon="10.325410030782223">
        <ele>193.36000000000001</ele>
        <time>2024-09-11T15:12:33Z</time>
      </trkpt>
      <trkpt lat="50.971809038892388" lon="10.325418999418616">
        <ele>193.84</ele>
        <time>2024-09-11T15:12:34Z</time>
      </trkpt>
      <trkpt lat="50.971756987273693" lon="10.325453029945493">
        <ele>193.84</ele>
        <time>2024-09-11T15:12:35Z</time>
      </trkpt>
      <trkpt lat="50.971698984503746" lon="10.32549200579524">
        <ele>193.84</ele>
        <time>2024-09-11T15:12:36Z</time>
      </trkpt>
      <trkpt lat="50.971622038632631" lon="10.325504997745156">
        <ele>193.84</ele>
        <time>2024-09-11T15:12:37Z</time>
      </trkpt>
      <trkpt lat="50.971550038084388" lon="10.32551396638155">
        <ele>193.84</ele>
        <time>2024-09-11T15:12:38Z</time>
      </trkpt>
      <trkpt lat="50.971389021724463" lon="10.32553399913013">
        <ele>193.36000000000001</ele>
        <time>2024-09-11T15:12:40Z</time>
      </trkpt>
      <trkpt lat="50.971296988427639" lon="10.325525030493736">
        <ele>193.36000000000001</ele>
        <time>2024-09-11T15:12:41Z</time>
      </trkpt>
      <trkpt lat="50.97091100178659" lon="10.325421011075377">
        <ele>192.40000000000001</ele>
        <time>2024-09-11T15:12:45Z</time>
      </trkpt>
      <trkpt lat="50.970790972933173" lon="10.325388992205262">
        <ele>192.40000000000001</ele>
        <time>2024-09-11T15:12:46Z</time>
      </trkpt>
      <trkpt lat="50.970564996823668" lon="10.325219007208943">
        <ele>191.44</ele>
        <time>2024-09-11T15:12:49Z</time>
      </trkpt>
      <trkpt lat="50.970483021810651" lon="10.325137032195926">
        <ele>191.44</ele>
        <time>2024-09-11T15:12:50Z</time>
      </trkpt>
      <trkpt lat="50.970415966585279" lon="10.325056985020638">
        <ele>190.96000000000001</ele>
        <time>2024-09-11T15:12:51Z</time>
      </trkpt>
      <trkpt lat="50.970196025446057" lon="10.324797984212637">
        <ele>190</ele>
        <time>2024-09-11T15:12:54Z</time>
      </trkpt>
      <trkpt lat="50.970122013241053" lon="10.324710980057716">
        <ele>189.52000000000001</ele>
        <time>2024-09-11T15:12:55Z</time>
      </trkpt>
      <trkpt lat="50.969652961939573" lon="10.324168000370264">
        <ele>187.11000000000001</ele>
        <time>2024-09-11T15:13:01Z</time>
      </trkpt>
      <trkpt lat="50.969562018290162" lon="10.324084013700485">
        <ele>186.63</ele>
        <time>2024-09-11T15:13:03Z</time>
      </trkpt>
      <trkpt lat="50.968487961217761" lon="10.323225958272815">
        <ele>186.15000000000001</ele>
        <time>2024-09-11T15:13:13Z</time>
      </trkpt>
      <trkpt lat="50.968385031446815" lon="10.323119005188346">
        <ele>186.15000000000001</ele>
        <time>2024-09-11T15:13:14Z</time>
      </trkpt>
      <trkpt lat="50.968299033120275" lon="10.323002999648452">
        <ele>186.15000000000001</ele>
        <time>2024-09-11T15:13:15Z</time>
      </trkpt>
      <trkpt lat="50.968214040622115" lon="10.322821028530598">
        <ele>186.15000000000001</ele>
        <time>2024-09-11T15:13:16Z</time>
      </trkpt>
      <trkpt lat="50.968173975124955" lon="10.32265598885715">
        <ele>186.15000000000001</ele>
        <time>2024-09-11T15:13:17Z</time>
      </trkpt>
      <trkpt lat="50.968136005103588" lon="10.322494972497225">
        <ele>186.15000000000001</ele>
        <time>2024-09-11T15:13:18Z</time>
      </trkpt>
      <trkpt lat="50.968115972355008" lon="10.322333034127951">
        <ele>186.15000000000001</ele>
        <time>2024-09-11T15:13:19Z</time>
      </trkpt>
      <trkpt lat="50.968101974576712" lon="10.322198001667857">
        <ele>186.15000000000001</ele>
        <time>2024-09-11T15:13:20Z</time>
      </trkpt>
      <trkpt lat="50.968089988455176" lon="10.322086019441485">
        <ele>186.15000000000001</ele>
        <time>2024-09-11T15:13:21Z</time>
      </trkpt>
      <trkpt lat="50.968030979856849" lon="10.321649992838502">
        <ele>186.15000000000001</ele>
        <time>2024-09-11T15:13:28Z</time>
      </trkpt>
      <trkpt lat="50.967980017885566" lon="10.321519989520311">
        <ele>186.63</ele>
        <time>2024-09-11T15:13:38Z</time>
      </trkpt>
      <trkpt lat="50.967959985136986" lon="10.321466010063887">
        <ele>186.63</ele>
        <time>2024-09-11T15:13:39Z</time>
      </trkpt>
      <trkpt lat="50.967958979308605" lon="10.321461986750364">
        <ele>186.15000000000001</ele>
        <time>2024-09-11T15:13:41Z</time>
      </trkpt>
      <trkpt lat="50.967972977086902" lon="10.321232993155718">
        <ele>186.15000000000001</ele>
        <time>2024-09-11T15:13:42Z</time>
      </trkpt>
      <trkpt lat="50.967941964045167" lon="10.321196028962731">
        <ele>186.63</ele>
        <time>2024-09-11T15:13:43Z</time>
      </trkpt>
      <trkpt lat="50.967941964045167" lon="10.321196028962731">
        <ele>186.63</ele>
        <time>2024-09-11T15:13:44Z</time>
      </trkpt>
      <trkpt lat="50.967941964045167" lon="10.321196028962731">
        <ele>186.63</ele>
        <time>2024-09-11T15:14:00Z</time>
      </trkpt>
      <trkpt lat="50.967941964045167" lon="10.321196028962731">
        <ele>186.15000000000001</ele>
        <time>2024-09-11T15:14:42Z</time>
      </trkpt>
      <trkpt lat="50.967808021232486" lon="10.321040041744709">
        <ele>192.88</ele>
        <time>2024-09-11T15:14:49Z</time>
      </trkpt>
      <trkpt lat="50.967779019847512" lon="10.321006011217833">
        <ele>195.77000000000001</ele>
        <time>2024-09-11T15:14:50Z</time>
      </trkpt>
      <trkpt lat="50.967542985454202" lon="10.321050016209483">
        <ele>198.65000000000001</ele>
        <time>2024-09-11T15:14:53Z</time>
      </trkpt>
      <trkpt lat="50.967472996562719" lon="10.320984972640872">
        <ele>199.61000000000001</ele>
        <time>2024-09-11T15:14:54Z</time>
      </trkpt>
      <trkpt lat="50.967395966872573" lon="10.320913977921009">
        <ele>200.09</ele>
        <time>2024-09-11T15:14:55Z</time>
      </trkpt>
      <trkpt lat="50.967312986031175" lon="10.320837032049894">
        <ele>200.56999999999999</ele>
        <time>2024-09-11T15:14:56Z</time>
      </trkpt>
      <trkpt lat="50.967225981876254" lon="10.320756984874606">
        <ele>201.05000000000001</ele>
        <time>2024-09-11T15:14:57Z</time>
      </trkpt>
      <trkpt lat="50.966457026079297" lon="10.31988400965929">
        <ele>204.90000000000001</ele>
        <time>2024-09-11T15:15:06Z</time>
      </trkpt>
      <trkpt lat="50.966371027752757" lon="10.319759035483003">
        <ele>204.90000000000001</ele>
        <time>2024-09-11T15:15:07Z</time>
      </trkpt>
      <trkpt lat="50.96558396704495" lon="10.318289017304778">
        <ele>206.81999999999999</ele>
        <time>2024-09-11T15:15:18Z</time>
      </trkpt>
      <trkpt lat="50.964752985164523" lon="10.316728977486491">
        <ele>210.66999999999999</ele>
        <time>2024-09-11T15:15:29Z</time>
      </trkpt>
      <trkpt lat="50.963902976363897" lon="10.316011989489198">
        <ele>214.03</ele>
        <time>2024-09-11T15:15:37Z</time>
      </trkpt>
      <trkpt lat="50.962966969236732" lon="10.315484013408422">
        <ele>221.24000000000001</ele>
        <time>2024-09-11T15:15:45Z</time>
      </trkpt>
      <trkpt lat="50.962303960695863" lon="10.315031977370381">
        <ele>225.09</ele>
        <time>2024-09-11T15:15:51Z</time>
      </trkpt>
      <trkpt lat="50.962197007611394" lon="10.314954025670886">
        <ele>226.05000000000001</ele>
        <time>2024-09-11T15:15:52Z</time>
      </trkpt>
      <trkpt lat="50.961261000484228" lon="10.314071998000145">
        <ele>232.78</ele>
        <time>2024-09-11T15:16:01Z</time>
      </trkpt>
      <trkpt lat="50.961052961647511" lon="10.313850967213511">
        <ele>233.74000000000001</ele>
        <time>2024-09-11T15:16:03Z</time>
      </trkpt>
      <trkpt lat="50.959973959252238" lon="10.312689989805222">
        <ele>240.94999999999999</ele>
        <time>2024-09-11T15:16:14Z</time>
      </trkpt>
      <trkpt lat="50.959580009803176" lon="10.312259998172522">
        <ele>243.34999999999999</ele>
        <time>2024-09-11T15:16:18Z</time>
      </trkpt>
      <trkpt lat="50.959482025355101" lon="10.312152039259672">
        <ele>243.83000000000001</ele>
        <time>2024-09-11T15:16:19Z</time>
      </trkpt>
      <trkpt lat="50.95877199433744" lon="10.311459023505449">
        <ele>247.68000000000001</ele>
        <time>2024-09-11T15:16:26Z</time>
      </trkpt>
      <trkpt lat="50.958667974919081" lon="10.31137403100729">
        <ele>247.19999999999999</ele>
        <time>2024-09-11T15:16:27Z</time>
      </trkpt>
      <trkpt lat="50.957589978352189" lon="10.310682021081448">
        <ele>246.72</ele>
        <time>2024-09-11T15:16:36Z</time>
      </trkpt>
      <trkpt lat="50.955998003482819" lon="10.309833018109202">
        <ele>244.78999999999999</ele>
        <time>2024-09-11T15:16:46Z</time>
      </trkpt>
      <trkpt lat="50.954901985824108" lon="10.309260031208396">
        <ele>245.27000000000001</ele>
        <time>2024-09-11T15:16:53Z</time>
      </trkpt>
      <trkpt lat="50.953882997855544" lon="10.308713028207421">
        <ele>246.22999999999999</ele>
        <time>2024-09-11T15:17:00Z</time>
      </trkpt>
      <trkpt lat="50.953119993209839" lon="10.308359982445836">
        <ele>248.63999999999999</ele>
        <time>2024-09-11T15:17:06Z</time>
      </trkpt>
      <trkpt lat="50.952998036518693" lon="10.308378003537655">
        <ele>249.59999999999999</ele>
        <time>2024-09-11T15:17:07Z</time>
      </trkpt>
      <trkpt lat="50.952746998518705" lon="10.308468025177717">
        <ele>251.52000000000001</ele>
        <time>2024-09-11T15:17:09Z</time>
      </trkpt>
      <trkpt lat="50.952622024342418" lon="10.308530973270535">
        <ele>252.47999999999999</ele>
        <time>2024-09-11T15:17:10Z</time>
      </trkpt>
      <trkpt lat="50.952512975782156" lon="10.308627029880881">
        <ele>252.96000000000001</ele>
        <time>2024-09-11T15:17:11Z</time>
      </trkpt>
      <trkpt lat="50.95213201828301" lon="10.30896901153028">
        <ele>255.37</ele>
        <time>2024-09-11T15:17:14Z</time>
      </trkpt>
      <trkpt lat="50.951986005529761" lon="10.309042017906904">
        <ele>256.32999999999998</ele>
        <time>2024-09-11T15:17:15Z</time>
      </trkpt>
      <trkpt lat="50.951821971684694" lon="10.30909700319171">
        <ele>256.81</ele>
        <time>2024-09-11T15:17:16Z</time>
      </trkpt>
      <trkpt lat="50.95168199390173" lon="10.30907797627151">
        <ele>257.29000000000002</ele>
        <time>2024-09-11T15:17:17Z</time>
      </trkpt>
      <trkpt lat="50.951541010290384" lon="10.309059033170342">
        <ele>258.25</ele>
        <time>2024-09-11T15:17:18Z</time>
      </trkpt>
      <trkpt lat="50.951400026679039" lon="10.309041012078524">
        <ele>259.20999999999998</ele>
        <time>2024-09-11T15:17:19Z</time>
      </trkpt>
      <trkpt lat="50.951263988390565" lon="10.309021985158324">
        <ele>261.13999999999999</ele>
        <time>2024-09-11T15:17:20Z</time>
      </trkpt>
      <trkpt lat="50.951125016435981" lon="10.309045035392046">
        <ele>263.06</ele>
        <time>2024-09-11T15:17:21Z</time>
      </trkpt>
      <trkpt lat="50.950976992025971" lon="10.309088034555316">
        <ele>264.98000000000002</ele>
        <time>2024-09-11T15:17:22Z</time>
      </trkpt>
      <trkpt lat="50.950827039778233" lon="10.309131033718586">
        <ele>266.42000000000002</ele>
        <time>2024-09-11T15:17:23Z</time>
      </trkpt>
      <trkpt lat="50.95067298039794" lon="10.309175960719585">
        <ele>267.86000000000001</ele>
        <time>2024-09-11T15:17:24Z</time>
      </trkpt>
      <trkpt lat="50.950509030371904" lon="10.30920697376132">
        <ele>270.26999999999998</ele>
        <time>2024-09-11T15:17:25Z</time>
      </trkpt>
      <trkpt lat="50.949356015771627" lon="10.309063978493214">
        <ele>286.61000000000001</ele>
        <time>2024-09-11T15:17:32Z</time>
      </trkpt>
      <trkpt lat="50.949086034670472" lon="10.308852000162005">
        <ele>290.45999999999998</ele>
        <time>2024-09-11T15:17:34Z</time>
      </trkpt>
      <trkpt lat="50.948813036084175" lon="10.308601967990398">
        <ele>293.33999999999997</ele>
        <time>2024-09-11T15:17:36Z</time>
      </trkpt>
      <trkpt lat="50.94867599196732" lon="10.308493003249168">
        <ele>294.30000000000001</ele>
        <time>2024-09-11T15:17:37Z</time>
      </trkpt>
      <trkpt lat="50.948540037497878" lon="10.308385966345668">
        <ele>294.77999999999997</ele>
        <time>2024-09-11T15:17:38Z</time>
      </trkpt>
      <trkpt lat="50.94839695841074" lon="10.308327963575721">
        <ele>295.74000000000001</ele>
        <time>2024-09-11T15:17:39Z</time>
      </trkpt>
      <trkpt lat="50.948247006163001" lon="10.308293011039495">
        <ele>296.22000000000003</ele>
        <time>2024-09-11T15:17:40Z</time>
      </trkpt>
      <trkpt lat="50.948098981752992" lon="10.308268032968044">
        <ele>297.18000000000001</ele>
        <time>2024-09-11T15:17:41Z</time>
      </trkpt>
      <trkpt lat="50.94794500619173" lon="10.30828102491796">
        <ele>298.14999999999998</ele>
        <time>2024-09-11T15:17:42Z</time>
      </trkpt>
      <trkpt lat="50.947789018973708" lon="10.308294016867876">
        <ele>298.63</ele>
        <time>2024-09-11T15:17:43Z</time>
      </trkpt>
      <trkpt lat="50.947634959593415" lon="10.308307008817792">
        <ele>299.11000000000001</ele>
        <time>2024-09-11T15:17:44Z</time>
      </trkpt>
      <trkpt lat="50.947482995688915" lon="10.308343973010778">
        <ele>299.58999999999997</ele>
        <time>2024-09-11T15:17:45Z</time>
      </trkpt>
      <trkpt lat="50.947322985157371" lon="10.308385966345668">
        <ele>300.06999999999999</ele>
        <time>2024-09-11T15:17:46Z</time>
      </trkpt>
      <trkpt lat="50.947164986282587" lon="10.308427959680557">
        <ele>300.55000000000001</ele>
        <time>2024-09-11T15:17:47Z</time>
      </trkpt>
      <trkpt lat="50.947012016549706" lon="10.308469031006098">
        <ele>301.02999999999997</ele>
        <time>2024-09-11T15:17:48Z</time>
      </trkpt>
      <trkpt lat="50.946856029331684" lon="10.308528961613774">
        <ele>301.50999999999999</ele>
        <time>2024-09-11T15:17:49Z</time>
      </trkpt>
      <trkpt lat="50.946335010230541" lon="10.308980997651815">
        <ele>303.91000000000003</ele>
        <time>2024-09-11T15:17:53Z</time>
      </trkpt>
      <trkpt lat="50.94622403383255" lon="10.309089040383697">
        <ele>304.88</ele>
        <time>2024-09-11T15:17:54Z</time>
      </trkpt>
      <trkpt lat="50.946124959737062" lon="10.309236980974674">
        <ele>305.83999999999997</ele>
        <time>2024-09-11T15:17:55Z</time>
      </trkpt>
      <trkpt lat="50.946028986945748" lon="10.309402020648122">
        <ele>307.27999999999997</ele>
        <time>2024-09-11T15:17:56Z</time>
      </trkpt>
      <trkpt lat="50.945937959477305" lon="10.309586003422737">
        <ele>308.24000000000001</ele>
        <time>2024-09-11T15:17:57Z</time>
      </trkpt>
      <trkpt lat="50.945846009999514" lon="10.309768980368972">
        <ele>310.16000000000003</ele>
        <time>2024-09-11T15:17:58Z</time>
      </trkpt>
      <trkpt lat="50.945039000362158" lon="10.311566982418299">
        <ele>317.37</ele>
        <time>2024-09-11T15:18:07Z</time>
      </trkpt>
      <trkpt lat="50.944876978173852" lon="10.311930002644658">
        <ele>318.32999999999998</ele>
        <time>2024-09-11T15:18:09Z</time>
      </trkpt>
      <trkpt lat="50.944781005382538" lon="10.312111973762512">
        <ele>318.81</ele>
        <time>2024-09-11T15:18:10Z</time>
      </trkpt>
      <trkpt lat="50.944672040641308" lon="10.312275001779199">
        <ele>319.30000000000001</ele>
        <time>2024-09-11T15:18:11Z</time>
      </trkpt>
      <trkpt lat="50.944545976817608" lon="10.312396958470345">
        <ele>319.77999999999997</ele>
        <time>2024-09-11T15:18:12Z</time>
      </trkpt>
      <trkpt lat="50.944422008469701" lon="10.312507012858987">
        <ele>319.77999999999997</ele>
        <time>2024-09-11T15:18:13Z</time>
      </trkpt>
      <trkpt lat="50.944295022636652" lon="10.312620000913739">
        <ele>320.25999999999999</ele>
        <time>2024-09-11T15:18:14Z</time>
      </trkpt>
      <trkpt lat="50.944137023761868" lon="10.312688983976841">
        <ele>320.74000000000001</ele>
        <time>2024-09-11T15:18:15Z</time>
      </trkpt>
      <trkpt lat="50.943977013230324" lon="10.312744975090027">
        <ele>321.22000000000003</ele>
        <time>2024-09-11T15:18:16Z</time>
      </trkpt>
      <trkpt lat="50.943590020760894" lon="10.31287900172174">
        <ele>321.22000000000003</ele>
        <time>2024-09-11T15:18:18Z</time>
      </trkpt>
      <trkpt lat="50.942498026415706" lon="10.313288038596511">
        <ele>326.5</ele>
        <time>2024-09-11T15:18:23Z</time>
      </trkpt>
      <trkpt lat="50.941737033426762" lon="10.313865970820189">
        <ele>331.79000000000002</ele>
        <time>2024-09-11T15:18:28Z</time>
      </trkpt>
      <trkpt lat="50.941532012075186" lon="10.314194038510323">
        <ele>333.70999999999998</ele>
        <time>2024-09-11T15:18:30Z</time>
      </trkpt>
      <trkpt lat="50.941264964640141" lon="10.314799966290593">
        <ele>338.04000000000002</ele>
        <time>2024-09-11T15:18:33Z</time>
      </trkpt>
      <trkpt lat="50.941158011555672" lon="10.315045975148678">
        <ele>339</ele>
        <time>2024-09-11T15:18:34Z</time>
      </trkpt>
      <trkpt lat="50.941147031262517" lon="10.315240016207099">
        <ele>340.44</ele>
        <time>2024-09-11T15:18:35Z</time>
      </trkpt>
      <trkpt lat="50.941133033484221" lon="10.315483007580042">
        <ele>341.41000000000003</ele>
        <time>2024-09-11T15:18:36Z</time>
      </trkpt>
      <trkpt lat="50.941119035705924" lon="10.315727004781365">
        <ele>343.32999999999998</ele>
        <time>2024-09-11T15:18:37Z</time>
      </trkpt>
      <trkpt lat="50.941081987693906" lon="10.315959015861154">
        <ele>344.76999999999998</ele>
        <time>2024-09-11T15:18:38Z</time>
      </trkpt>
      <trkpt lat="50.941033037379384" lon="10.316193038597703">
        <ele>345.73000000000002</ele>
        <time>2024-09-11T15:18:39Z</time>
      </trkpt>
      <trkpt lat="50.940980985760689" lon="10.316431000828743">
        <ele>347.17000000000002</ele>
        <time>2024-09-11T15:18:40Z</time>
      </trkpt>
      <trkpt lat="50.940890964120626" lon="10.31664096750319">
        <ele>348.62</ele>
        <time>2024-09-11T15:18:41Z</time>
      </trkpt>
      <trkpt lat="50.940783005207777" lon="10.316834002733231">
        <ele>350.06</ele>
        <time>2024-09-11T15:18:42Z</time>
      </trkpt>
      <trkpt lat="50.940415961667895" lon="10.317328032106161">
        <ele>354.86000000000001</ele>
        <time>2024-09-11T15:18:45Z</time>
      </trkpt>
      <trkpt lat="50.940279001370072" lon="10.317457029595971">
        <ele>356.31</ele>
        <time>2024-09-11T15:18:46Z</time>
      </trkpt>
      <trkpt lat="50.940107004716992" lon="10.317620979622006">
        <ele>358.23000000000002</ele>
        <time>2024-09-11T15:18:47Z</time>
      </trkpt>
      <trkpt lat="50.939417006447911" lon="10.318013001233339">
        <ele>366.88</ele>
        <time>2024-09-11T15:18:52Z</time>
      </trkpt>
      <trkpt lat="50.939269987866282" lon="10.318115008994937">
        <ele>368.31999999999999</ele>
        <time>2024-09-11T15:18:53Z</time>
      </trkpt>
      <trkpt lat="50.939192958176136" lon="10.318282982334495">
        <ele>369.27999999999997</ele>
        <time>2024-09-11T15:18:54Z</time>
      </trkpt>
      <trkpt lat="50.939122969284654" lon="10.318520022556186">
        <ele>371.20999999999998</ele>
        <time>2024-09-11T15:18:55Z</time>
      </trkpt>
      <trkpt lat="50.93907100148499" lon="10.31874499283731">
        <ele>372.64999999999998</ele>
        <time>2024-09-11T15:18:56Z</time>
      </trkpt>
      <trkpt lat="50.938977962359786" lon="10.319145983085036">
        <ele>376.49000000000001</ele>
        <time>2024-09-11T15:18:58Z</time>
      </trkpt>
      <trkpt lat="50.938934041187167" lon="10.319302976131439">
        <ele>378.42000000000002</ele>
        <time>2024-09-11T15:18:59Z</time>
      </trkpt>
      <trkpt lat="50.938863968476653" lon="10.319455023854971">
        <ele>380.33999999999997</ele>
        <time>2024-09-11T15:19:00Z</time>
      </trkpt>
      <trkpt lat="50.938765984028578" lon="10.319587960839272">
        <ele>381.77999999999997</ele>
        <time>2024-09-11T15:19:01Z</time>
      </trkpt>
      <trkpt lat="50.938616031780839" lon="10.319649986922741">
        <ele>383.22000000000003</ele>
        <time>2024-09-11T15:19:02Z</time>
      </trkpt>
      <trkpt lat="50.938462978228927" lon="10.319674964994192">
        <ele>384.66000000000003</ele>
        <time>2024-09-11T15:19:03Z</time>
      </trkpt>
      <trkpt lat="50.937409959733486" lon="10.319920973852277">
        <ele>397.16000000000003</ele>
        <time>2024-09-11T15:19:10Z</time>
      </trkpt>
      <trkpt lat="50.937263024970889" lon="10.319966990500689">
        <ele>398.60000000000002</ele>
        <time>2024-09-11T15:19:11Z</time>
      </trkpt>
      <trkpt lat="50.937109971418977" lon="10.320015018805861">
        <ele>400.05000000000001</ele>
        <time>2024-09-11T15:19:12Z</time>
      </trkpt>
      <trkpt lat="50.936949960887432" lon="10.320065980777144">
        <ele>401.49000000000001</ele>
        <time>2024-09-11T15:19:13Z</time>
      </trkpt>
      <trkpt lat="50.936785005033016" lon="10.32011803239584">
        <ele>403.41000000000003</ele>
        <time>2024-09-11T15:19:14Z</time>
      </trkpt>
      <trkpt lat="50.93662298284471" lon="10.320156002417207">
        <ele>404.85000000000002</ele>
        <time>2024-09-11T15:19:15Z</time>
      </trkpt>
      <trkpt lat="50.936446962878108" lon="10.3201649710536">
        <ele>406.29000000000002</ele>
        <time>2024-09-11T15:19:16Z</time>
      </trkpt>
      <trkpt lat="50.936265997588634" lon="10.320175029337406">
        <ele>407.74000000000001</ele>
        <time>2024-09-11T15:19:17Z</time>
      </trkpt>
      <trkpt lat="50.936076985672116" lon="10.320135969668627">
        <ele>409.18000000000001</ele>
        <time>2024-09-11T15:19:18Z</time>
      </trkpt>
      <trkpt lat="50.93587095849216" lon="10.320093976333737">
        <ele>410.62</ele>
        <time>2024-09-11T15:19:19Z</time>
      </trkpt>
      <trkpt lat="50.933976983651519" lon="10.31962601467967">
        <ele>423.60000000000002</ele>
        <time>2024-09-11T15:19:28Z</time>
      </trkpt>
      <trkpt lat="50.932275038212538" lon="10.319074988365173">
        <ele>437.06</ele>
        <time>2024-09-11T15:19:38Z</time>
      </trkpt>
      <trkpt lat="50.931291002780199" lon="10.318612977862358">
        <ele>443.31</ele>
        <time>2024-09-11T15:19:44Z</time>
      </trkpt>
      <trkpt lat="50.931181032210588" lon="10.31853100284934">
        <ele>443.79000000000002</ele>
        <time>2024-09-11T15:19:45Z</time>
      </trkpt>
      <trkpt lat="50.931087993085384" lon="10.318370992317796">
        <ele>444.26999999999998</ele>
        <time>2024-09-11T15:19:46Z</time>
      </trkpt>
      <trkpt lat="50.931001994758844" lon="10.318168988451362">
        <ele>444.26999999999998</ele>
        <time>2024-09-11T15:19:47Z</time>
      </trkpt>
      <trkpt lat="50.930908033624291" lon="10.317910993471742">
        <ele>444.26999999999998</ele>
        <time>2024-09-11T15:19:48Z</time>
      </trkpt>
      <trkpt lat="50.9306709934026" lon="10.317390980198979">
        <ele>443.31</ele>
        <time>2024-09-11T15:19:50Z</time>
      </trkpt>
      <trkpt lat="50.929951993748546" lon="10.316094970330596">
        <ele>441.38</ele>
        <time>2024-09-11T15:19:55Z</time>
      </trkpt>
      <trkpt lat="50.929397027939558" lon="10.315089980140328">
        <ele>438.5</ele>
        <time>2024-09-11T15:19:59Z</time>
      </trkpt>
      <trkpt lat="50.929297031834722" lon="10.314825028181076">
        <ele>437.54000000000002</ele>
        <time>2024-09-11T15:20:00Z</time>
      </trkpt>
      <trkpt lat="50.929242968559265" lon="10.314552029594779">
        <ele>436.57999999999998</ele>
        <time>2024-09-11T15:20:01Z</time>
      </trkpt>
      <trkpt lat="50.92920902185142" lon="10.314266039058566">
        <ele>435.13</ele>
        <time>2024-09-11T15:20:02Z</time>
      </trkpt>
      <trkpt lat="50.929217990487814" lon="10.313938977196813">
        <ele>433.69</ele>
        <time>2024-09-11T15:20:03Z</time>
      </trkpt>
      <trkpt lat="50.929226959124207" lon="10.313611999154091">
        <ele>431.76999999999998</ele>
        <time>2024-09-11T15:20:04Z</time>
      </trkpt>
      <trkpt lat="50.929298037663102" lon="10.313311005011201">
        <ele>429.85000000000002</ele>
        <time>2024-09-11T15:20:05Z</time>
      </trkpt>
      <trkpt lat="50.929371966049075" lon="10.312996013090014">
        <ele>427.92000000000002</ele>
        <time>2024-09-11T15:20:06Z</time>
      </trkpt>
      <trkpt lat="50.929443966597319" lon="10.312694013118744">
        <ele>426</ele>
        <time>2024-09-11T15:20:07Z</time>
      </trkpt>
      <trkpt lat="50.929503981024027" lon="10.312440041452646">
        <ele>424.56</ele>
        <time>2024-09-11T15:20:08Z</time>
      </trkpt>
      <trkpt lat="50.929480008780956" lon="10.312172994017601">
        <ele>423.12</ele>
        <time>2024-09-11T15:20:09Z</time>
      </trkpt>
      <trkpt lat="50.929451007395983" lon="10.311895972117782">
        <ele>421.68000000000001</ele>
        <time>2024-09-11T15:20:10Z</time>
      </trkpt>
      <trkpt lat="50.929388981312513" lon="10.311637977138162">
        <ele>420.23000000000002</ele>
        <time>2024-09-11T15:20:11Z</time>
      </trkpt>
      <trkpt lat="50.929310023784637" lon="10.311391968280077">
        <ele>418.79000000000002</ele>
        <time>2024-09-11T15:20:12Z</time>
      </trkpt>
      <trkpt lat="50.929180020466447" lon="10.311197005212307">
        <ele>417.35000000000002</ele>
        <time>2024-09-11T15:20:13Z</time>
      </trkpt>
      <trkpt lat="50.929026966914535" lon="10.31101000495255">
        <ele>415.91000000000003</ele>
        <time>2024-09-11T15:20:14Z</time>
      </trkpt>
      <trkpt lat="50.928877014666796" lon="10.310811018571258">
        <ele>414.47000000000003</ele>
        <time>2024-09-11T15:20:15Z</time>
      </trkpt>
      <trkpt lat="50.92875799164176" lon="10.310596022754908">
        <ele>413.01999999999998</ele>
        <time>2024-09-11T15:20:16Z</time>
      </trkpt>
      <trkpt lat="50.928663024678826" lon="10.310369040817022">
        <ele>411.57999999999998</ele>
        <time>2024-09-11T15:20:17Z</time>
      </trkpt>
      <trkpt lat="50.928605021908879" lon="10.310153961181641">
        <ele>410.13999999999999</ele>
        <time>2024-09-11T15:20:18Z</time>
      </trkpt>
      <trkpt lat="50.928583983331919" lon="10.309832012280822">
        <ele>408.69999999999999</ele>
        <time>2024-09-11T15:20:19Z</time>
      </trkpt>
      <trkpt lat="50.92856696806848" lon="10.309577034786344">
        <ele>407.25999999999999</ele>
        <time>2024-09-11T15:20:20Z</time>
      </trkpt>
      <trkpt lat="50.928532015532255" lon="10.30937603674829">
        <ele>405.81</ele>
        <time>2024-09-11T15:20:21Z</time>
      </trkpt>
      <trkpt lat="50.928448028862476" lon="10.309260031208396">
        <ele>403.88999999999999</ele>
        <time>2024-09-11T15:20:22Z</time>
      </trkpt>
      <trkpt lat="50.928334034979343" lon="10.309169003739953">
        <ele>402.44999999999999</ele>
        <time>2024-09-11T15:20:23Z</time>
      </trkpt>
      <trkpt lat="50.928197996690869" lon="10.309060038998723">
        <ele>401.00999999999999</ele>
        <time>2024-09-11T15:20:24Z</time>
      </trkpt>
      <trkpt lat="50.928047960624099" lon="10.308940010145307">
        <ele>399.07999999999998</ele>
        <time>2024-09-11T15:20:25Z</time>
      </trkpt>
      <trkpt lat="50.927913011983037" lon="10.30877597630024">
        <ele>397.16000000000003</ele>
        <time>2024-09-11T15:20:26Z</time>
      </trkpt>
      <trkpt lat="50.927800023928285" lon="10.308594005182385">
        <ele>395.72000000000003</ele>
        <time>2024-09-11T15:20:27Z</time>
      </trkpt>
      <trkpt lat="50.927700027823448" lon="10.30843198299408">
        <ele>393.80000000000001</ele>
        <time>2024-09-11T15:20:28Z</time>
      </trkpt>
      <trkpt lat="50.927519984543324" lon="10.30823802575469">
        <ele>390.91000000000003</ele>
        <time>2024-09-11T15:20:30Z</time>
      </trkpt>
      <trkpt lat="50.927435997873545" lon="10.308207012712955">
        <ele>389.47000000000003</ele>
        <time>2024-09-11T15:20:31Z</time>
      </trkpt>
      <trkpt lat="50.927360979840159" lon="10.308180022984743">
        <ele>388.02999999999997</ele>
        <time>2024-09-11T15:20:32Z</time>
      </trkpt>
      <trkpt lat="50.927303982898593" lon="10.308226039633155">
        <ele>386.11000000000001</ele>
        <time>2024-09-11T15:20:33Z</time>
      </trkpt>
      <trkpt lat="50.92725302092731" lon="10.308266021311283">
        <ele>384.66000000000003</ele>
        <time>2024-09-11T15:20:34Z</time>
      </trkpt>
      <trkpt lat="50.927226031199098" lon="10.30838898383081">
        <ele>382.74000000000001</ele>
        <time>2024-09-11T15:20:35Z</time>
      </trkpt>
      <trkpt lat="50.927212033420801" lon="10.308516975492239">
        <ele>381.30000000000001</ele>
        <time>2024-09-11T15:20:36Z</time>
      </trkpt>
      <trkpt lat="50.927216978743672" lon="10.308672962710261">
        <ele>379.86000000000001</ele>
        <time>2024-09-11T15:20:37Z</time>
      </trkpt>
      <trkpt lat="50.927199963480234" lon="10.309325996786356">
        <ele>375.05000000000001</ele>
        <time>2024-09-11T15:20:41Z</time>
      </trkpt>
      <trkpt lat="50.92716702260077" lon="10.309491036459804">
        <ele>373.13</ele>
        <time>2024-09-11T15:20:42Z</time>
      </trkpt>
      <trkpt lat="50.927107008174062" lon="10.309649035334587">
        <ele>371.69</ele>
        <time>2024-09-11T15:20:43Z</time>
      </trkpt>
      <trkpt lat="50.927010029554367" lon="10.309778032824397">
        <ele>370.24000000000001</ele>
        <time>2024-09-11T15:20:44Z</time>
      </trkpt>
      <trkpt lat="50.926908021792769" lon="10.309893032535911">
        <ele>368.80000000000001</ele>
        <time>2024-09-11T15:20:45Z</time>
      </trkpt>
      <trkpt lat="50.926794027909636" lon="10.309995040297508">
        <ele>367.36000000000001</ele>
        <time>2024-09-11T15:20:46Z</time>
      </trkpt>
      <trkpt lat="50.926676010712981" lon="10.310098975896835">
        <ele>365.92000000000002</ele>
        <time>2024-09-11T15:20:47Z</time>
      </trkpt>
      <trkpt lat="50.926563022658229" lon="10.310199977830052">
        <ele>364.48000000000002</ele>
        <time>2024-09-11T15:20:48Z</time>
      </trkpt>
      <trkpt lat="50.926080979406834" lon="10.310815963894129">
        <ele>357.26999999999998</ele>
        <time>2024-09-11T15:20:53Z</time>
      </trkpt>
      <trkpt lat="50.925902025774121" lon="10.310979997739196">
        <ele>354.38</ele>
        <time>2024-09-11T15:20:55Z</time>
      </trkpt>
      <trkpt lat="50.92579398304224" lon="10.311033977195621">
        <ele>352.94</ele>
        <time>2024-09-11T15:20:56Z</time>
      </trkpt>
      <trkpt lat="50.925694992765784" lon="10.310968011617661">
        <ele>351.98000000000002</ele>
        <time>2024-09-11T15:20:57Z</time>
      </trkpt>
      <trkpt lat="50.925579993054271" lon="10.310890981927514">
        <ele>350.54000000000002</ele>
        <time>2024-09-11T15:20:58Z</time>
      </trkpt>
      <trkpt lat="50.925458958372474" lon="10.310770031064749">
        <ele>348.62</ele>
        <time>2024-09-11T15:20:59Z</time>
      </trkpt>
      <trkpt lat="50.925334990024567" lon="10.310625024139881">
        <ele>347.17000000000002</ele>
        <time>2024-09-11T15:21:00Z</time>
      </trkpt>
      <trkpt lat="50.925204986706376" lon="10.310470964759588">
        <ele>345.73000000000002</ele>
        <time>2024-09-11T15:21:01Z</time>
      </trkpt>
      <trkpt lat="50.92403101734817" lon="10.309376958757639">
        <ele>336.60000000000002</ele>
        <time>2024-09-11T15:21:09Z</time>
      </trkpt>
      <trkpt lat="50.923878969624639" lon="10.309246033430099">
        <ele>335.16000000000003</ele>
        <time>2024-09-11T15:21:10Z</time>
      </trkpt>
      <trkpt lat="50.922481035813689" lon="10.307992016896605">
        <ele>327.94999999999999</ele>
        <time>2024-09-11T15:21:19Z</time>
      </trkpt>
      <trkpt lat="50.922103011980653" lon="10.307579040527344">
        <ele>326.99000000000001</ele>
        <time>2024-09-11T15:21:22Z</time>
      </trkpt>
      <trkpt lat="50.921582998707891" lon="10.306954002007842">
        <ele>324.10000000000002</ele>
        <time>2024-09-11T15:21:27Z</time>
      </trkpt>
      <trkpt lat="50.921463975682855" lon="10.306888036429882">
        <ele>323.13999999999999</ele>
        <time>2024-09-11T15:21:28Z</time>
      </trkpt>
      <trkpt lat="50.921340007334948" lon="10.306849982589483">
        <ele>322.66000000000003</ele>
        <time>2024-09-11T15:21:29Z</time>
      </trkpt>
      <trkpt lat="50.921212015673518" lon="10.306849982589483">
        <ele>322.18000000000001</ele>
        <time>2024-09-11T15:21:30Z</time>
      </trkpt>
      <trkpt lat="50.921097015962005" lon="10.306900022551417">
        <ele>321.22000000000003</ele>
        <time>2024-09-11T15:21:31Z</time>
      </trkpt>
      <trkpt lat="50.920969024300575" lon="10.306976968422532">
        <ele>321.22000000000003</ele>
        <time>2024-09-11T15:21:32Z</time>
      </trkpt>
      <trkpt lat="50.920837009325624" lon="10.30705600976944">
        <ele>321.22000000000003</ele>
        <time>2024-09-11T15:21:33Z</time>
      </trkpt>
      <trkpt lat="50.920706000179052" lon="10.307133961468935">
        <ele>321.22000000000003</ele>
        <time>2024-09-11T15:21:34Z</time>
      </trkpt>
      <trkpt lat="50.920339962467551" lon="10.307435039430857">
        <ele>321.69999999999999</ele>
        <time>2024-09-11T15:21:37Z</time>
      </trkpt>
      <trkpt lat="50.920061012730002" lon="10.307484995573759">
        <ele>321.69999999999999</ele>
        <time>2024-09-11T15:21:39Z</time>
      </trkpt>
      <trkpt lat="50.919926986098289" lon="10.307441996410489">
        <ele>321.69999999999999</ele>
        <time>2024-09-11T15:21:40Z</time>
      </trkpt>
      <trkpt lat="50.919366991147399" lon="10.30729397200048">
        <ele>323.13999999999999</ele>
        <time>2024-09-11T15:21:44Z</time>
      </trkpt>
      <trkpt lat="50.919233970344067" lon="10.307331020012498">
        <ele>323.13999999999999</ele>
        <time>2024-09-11T15:21:45Z</time>
      </trkpt>
      <trkpt lat="50.919094998389482" lon="10.307368990033865">
        <ele>323.62</ele>
        <time>2024-09-11T15:21:46Z</time>
      </trkpt>
      <trkpt lat="50.918957032263279" lon="10.307451970875263">
        <ele>323.62</ele>
        <time>2024-09-11T15:21:47Z</time>
      </trkpt>
      <trkpt lat="50.918827028945088" lon="10.307562025263906">
        <ele>323.62</ele>
        <time>2024-09-11T15:21:48Z</time>
      </trkpt>
      <trkpt lat="50.91784399934113" lon="10.308443969115615">
        <ele>326.99000000000001</ele>
        <time>2024-09-11T15:21:55Z</time>
      </trkpt>
      <trkpt lat="50.91612302698195" lon="10.309755988419056">
        <ele>328.43000000000001</ele>
        <time>2024-09-11T15:22:04Z</time>
      </trkpt>
      <trkpt lat="50.915326997637749" lon="10.310010965913534">
        <ele>329.38999999999999</ele>
        <time>2024-09-11T15:22:08Z</time>
      </trkpt>
      <trkpt lat="50.915104039013386" lon="10.310018006712198">
        <ele>329.38999999999999</ele>
        <time>2024-09-11T15:22:09Z</time>
      </trkpt>
      <trkpt lat="50.913516003638506" lon="10.309983976185322">
        <ele>330.35000000000002</ele>
        <time>2024-09-11T15:22:16Z</time>
      </trkpt>
      <trkpt lat="50.913307964801788" lon="10.310067040845752">
        <ele>330.82999999999998</ele>
        <time>2024-09-11T15:22:17Z</time>
      </trkpt>
      <trkpt lat="50.912886019796133" lon="10.310202995315194">
        <ele>332.26999999999998</ele>
        <time>2024-09-11T15:22:19Z</time>
      </trkpt>
      <trkpt lat="50.912672029808164" lon="10.310239959508181">
        <ele>332.75</ele>
        <time>2024-09-11T15:22:20Z</time>
      </trkpt>
      <trkpt lat="50.912455022335052" lon="10.310239959508181">
        <ele>333.23000000000002</ele>
        <time>2024-09-11T15:22:21Z</time>
      </trkpt>
      <trkpt lat="50.910637993365526" lon="10.30976302921772">
        <ele>337.07999999999998</ele>
        <time>2024-09-11T15:22:29Z</time>
      </trkpt>
      <trkpt lat="50.908665983006358" lon="10.308859962970018">
        <ele>339.95999999999998</ele>
        <time>2024-09-11T15:22:37Z</time>
      </trkpt>
      <trkpt lat="50.907047018408775" lon="10.307940971106291">
        <ele>343.81</ele>
        <time>2024-09-11T15:22:44Z</time>
      </trkpt>
      <trkpt lat="50.90467200614512" lon="10.306525016203523">
        <ele>348.13</ele>
        <time>2024-09-11T15:22:54Z</time>
      </trkpt>
      <trkpt lat="50.90420002117753" lon="10.306443963199854">
        <ele>350.06</ele>
        <time>2024-09-11T15:22:56Z</time>
      </trkpt>
      <trkpt lat="50.903958035632968" lon="10.306419990956783">
        <ele>351.01999999999998</ele>
        <time>2024-09-11T15:22:57Z</time>
      </trkpt>
      <trkpt lat="50.902710976079106" lon="10.306426025927067">
        <ele>354.38</ele>
        <time>2024-09-11T15:23:02Z</time>
      </trkpt>
      <trkpt lat="50.902468990534544" lon="10.306336004287004">
        <ele>355.33999999999997</ele>
        <time>2024-09-11T15:23:03Z</time>
      </trkpt>
      <trkpt lat="50.900867041200399" lon="10.305326990783215">
        <ele>362.55000000000001</ele>
        <time>2024-09-11T15:23:10Z</time>
      </trkpt>
      <trkpt lat="50.900665959343314" lon="10.30510101467371">
        <ele>363.51999999999998</ele>
        <time>2024-09-11T15:23:11Z</time>
      </trkpt>
      <trkpt lat="50.90048398822546" lon="10.304842013865709">
        <ele>364.48000000000002</ele>
        <time>2024-09-11T15:23:12Z</time>
      </trkpt>
      <trkpt lat="50.899935979396105" lon="10.304084960371256">
        <ele>366.39999999999998</ele>
        <time>2024-09-11T15:23:15Z</time>
      </trkpt>
      <trkpt lat="50.899727018550038" lon="10.30389997176826">
        <ele>366.88</ele>
        <time>2024-09-11T15:23:16Z</time>
      </trkpt>
      <trkpt lat="50.89826999232173" lon="10.302625000476837">
        <ele>371.69</ele>
        <time>2024-09-11T15:23:24Z</time>
      </trkpt>
      <trkpt lat="50.897821979597211" lon="10.302111022174358">
        <ele>372.17000000000002</ele>
        <time>2024-09-11T15:23:28Z</time>
      </trkpt>
      <trkpt lat="50.897418977692723" lon="10.301602995023131">
        <ele>370.73000000000002</ele>
        <time>2024-09-11T15:23:32Z</time>
      </trkpt>
      <trkpt lat="50.897313030436635" lon="10.301483971998096">
        <ele>370.73000000000002</ele>
        <time>2024-09-11T15:23:33Z</time>
      </trkpt>
      <trkpt lat="50.897209011018276" lon="10.301366038620472">
        <ele>370.24000000000001</ele>
        <time>2024-09-11T15:23:34Z</time>
      </trkpt>
      <trkpt lat="50.896324971690774" lon="10.300745023414493">
        <ele>368.31999999999999</ele>
        <time>2024-09-11T15:23:43Z</time>
      </trkpt>
      <trkpt lat="50.89607996866107" lon="10.300609990954399">
        <ele>368.31999999999999</ele>
        <time>2024-09-11T15:23:47Z</time>
      </trkpt>
      <trkpt lat="50.896047027781606" lon="10.30059196986258">
        <ele>368.80000000000001</ele>
        <time>2024-09-11T15:23:48Z</time>
      </trkpt>
      <trkpt lat="50.896043004468083" lon="10.30067402869463">
        <ele>369.27999999999997</ele>
        <time>2024-09-11T15:23:49Z</time>
      </trkpt>
      <trkpt lat="50.896053984761238" lon="10.30076103284955">
        <ele>369.75999999999999</ele>
        <time>2024-09-11T15:23:50Z</time>
      </trkpt>
      <trkpt lat="50.896071000024676" lon="10.300904028117657">
        <ele>369.75999999999999</ele>
        <time>2024-09-11T15:23:51Z</time>
      </trkpt>
      <trkpt lat="50.896093966439366" lon="10.301090022549033">
        <ele>370.24000000000001</ele>
        <time>2024-09-11T15:23:52Z</time>
      </trkpt>
      <trkpt lat="50.896117016673088" lon="10.301318010315299">
        <ele>370.24000000000001</ele>
        <time>2024-09-11T15:23:53Z</time>
      </trkpt>
      <trkpt lat="50.896109975874424" lon="10.301528982818127">
        <ele>370.73000000000002</ele>
        <time>2024-09-11T15:23:54Z</time>
      </trkpt>
      <trkpt lat="50.896103018894792" lon="10.301732998341322">
        <ele>370.73000000000002</ele>
        <time>2024-09-11T15:23:55Z</time>
      </trkpt>
      <trkpt lat="50.896086003631353" lon="10.301950005814433">
        <ele>370.24000000000001</ele>
        <time>2024-09-11T15:23:56Z</time>
      </trkpt>
      <trkpt lat="50.896051973104477" lon="10.302132982760668">
        <ele>370.24000000000001</ele>
        <time>2024-09-11T15:23:57Z</time>
      </trkpt>
      <trkpt lat="50.89599497616291" lon="10.302310008555651">
        <ele>370.24000000000001</ele>
        <time>2024-09-11T15:23:58Z</time>
      </trkpt>
      <trkpt lat="50.895868996158242" lon="10.302563980221748">
        <ele>370.24000000000001</ele>
        <time>2024-09-11T15:24:00Z</time>
      </trkpt>
      <trkpt lat="50.895823985338211" lon="10.30265299603343">
        <ele>370.24000000000001</ele>
        <time>2024-09-11T15:24:01Z</time>
      </trkpt>
      <trkpt lat="50.895789032801986" lon="10.302723990753293">
        <ele>370.24000000000001</ele>
        <time>2024-09-11T15:24:02Z</time>
      </trkpt>
      <trkpt lat="50.895718038082123" lon="10.302892969921231">
        <ele>369.75999999999999</ele>
        <time>2024-09-11T15:24:05Z</time>
      </trkpt>
      <trkpt lat="50.89567000977695" lon="10.303084999322891">
        <ele>369.27999999999997</ele>
        <time>2024-09-11T15:24:07Z</time>
      </trkpt>
      <trkpt lat="50.895634973421693" lon="10.303224977105856">
        <ele>368.80000000000001</ele>
        <time>2024-09-11T15:24:08Z</time>
      </trkpt>
      <trkpt lat="50.8956069778651" lon="10.303373001515865">
        <ele>368.80000000000001</ele>
        <time>2024-09-11T15:24:09Z</time>
      </trkpt>
      <trkpt lat="50.895637990906835" lon="10.303549021482468">
        <ele>369.27999999999997</ele>
        <time>2024-09-11T15:24:10Z</time>
      </trkpt>
      <trkpt lat="50.89567000977695" lon="10.303735015913844">
        <ele>369.27999999999997</ele>
        <time>2024-09-11T15:24:11Z</time>
      </trkpt>
      <trkpt lat="50.895720971748233" lon="10.303913969546556">
        <ele>369.27999999999997</ele>
        <time>2024-09-11T15:24:12Z</time>
      </trkpt>
      <trkpt lat="50.895806970074773" lon="10.304101975634694">
        <ele>369.27999999999997</ele>
        <time>2024-09-11T15:24:13Z</time>
      </trkpt>
      <trkpt lat="50.895936973392963" lon="10.304257040843368">
        <ele>369.75999999999999</ele>
        <time>2024-09-11T15:24:14Z</time>
      </trkpt>
      <trkpt lat="50.896086003631353" lon="10.304424008354545">
        <ele>370.24000000000001</ele>
        <time>2024-09-11T15:24:15Z</time>
      </trkpt>
      <trkpt lat="50.896926037967205" lon="10.305410977452993">
        <ele>372.64999999999998</ele>
        <time>2024-09-11T15:24:20Z</time>
      </trkpt>
      <trkpt lat="50.897831032052636" lon="10.306646972894669">
        <ele>369.75999999999999</ele>
        <time>2024-09-11T15:24:27Z</time>
      </trkpt>
      <trkpt lat="50.897953994572163" lon="10.306860040873289">
        <ele>369.27999999999997</ele>
        <time>2024-09-11T15:24:28Z</time>
      </trkpt>
      <trkpt lat="50.89859495870769" lon="10.308058988302946">
        <ele>368.31999999999999</ele>
        <time>2024-09-11T15:24:32Z</time>
      </trkpt>
      <trkpt lat="50.899395011365414" lon="10.309562031179667">
        <ele>372.17000000000002</ele>
        <time>2024-09-11T15:24:37Z</time>
      </trkpt>
      <trkpt lat="50.899503976106644" lon="10.309653980657458">
        <ele>372.64999999999998</ele>
        <time>2024-09-11T15:24:38Z</time>
      </trkpt>
      <trkpt lat="50.899607995525002" lon="10.309740984812379">
        <ele>373.61000000000001</ele>
        <time>2024-09-11T15:24:39Z</time>
      </trkpt>
      <trkpt lat="50.899718971922994" lon="10.309834023937583">
        <ele>374.08999999999997</ele>
        <time>2024-09-11T15:24:40Z</time>
      </trkpt>
      <trkpt lat="50.899834977462888" lon="10.309931002557278">
        <ele>375.05000000000001</ele>
        <time>2024-09-11T15:24:41Z</time>
      </trkpt>
      <trkpt lat="50.900653973221779" lon="10.310617983341217">
        <ele>381.30000000000001</ele>
        <time>2024-09-11T15:24:47Z</time>
      </trkpt>
      <trkpt lat="50.900783976539969" lon="10.310726026073098">
        <ele>383.22000000000003</ele>
        <time>2024-09-11T15:24:48Z</time>
      </trkpt>
      <trkpt lat="50.900868969038129" lon="10.310883019119501">
        <ele>384.66000000000003</ele>
        <time>2024-09-11T15:24:49Z</time>
      </trkpt>
      <trkpt lat="50.900907022878528" lon="10.311045963317156">
        <ele>386.11000000000001</ele>
        <time>2024-09-11T15:24:50Z</time>
      </trkpt>
      <trkpt lat="50.900915991514921" lon="10.311205973848701">
        <ele>388.02999999999997</ele>
        <time>2024-09-11T15:24:51Z</time>
      </trkpt>
      <trkpt lat="50.900922026485205" lon="10.311381993815303">
        <ele>389.94999999999999</ele>
        <time>2024-09-11T15:24:52Z</time>
      </trkpt>
      <trkpt lat="50.9008480142802" lon="10.311494981870055">
        <ele>390.91000000000003</ele>
        <time>2024-09-11T15:24:53Z</time>
      </trkpt>
      <trkpt lat="50.90076201595366" lon="10.311625991016626">
        <ele>392.36000000000001</ele>
        <time>2024-09-11T15:24:54Z</time>
      </trkpt>
      <trkpt lat="50.900669982656837" lon="10.311766974627972">
        <ele>393.31999999999999</ele>
        <time>2024-09-11T15:24:55Z</time>
      </trkpt>
      <trkpt lat="50.900560012087226" lon="10.311935031786561">
        <ele>394.75999999999999</ele>
        <time>2024-09-11T15:24:57Z</time>
      </trkpt>
      <trkpt lat="50.900475019589067" lon="10.312117002904415">
        <ele>394.75999999999999</ele>
        <time>2024-09-11T15:24:58Z</time>
      </trkpt>
      <trkpt lat="50.900411987677217" lon="10.312251029536128">
        <ele>395.24000000000001</ele>
        <time>2024-09-11T15:24:59Z</time>
      </trkpt>
      <trkpt lat="50.900335963815451" lon="10.312411962077022">
        <ele>395.72000000000003</ele>
        <time>2024-09-11T15:25:00Z</time>
      </trkpt>
      <trkpt lat="50.900237979367375" lon="10.3126220125705">
        <ele>395.72000000000003</ele>
        <time>2024-09-11T15:25:01Z</time>
      </trkpt>
      <trkpt lat="50.900001022964716" lon="10.313333971425891">
        <ele>396.19999999999999</ele>
        <time>2024-09-11T15:25:04Z</time>
      </trkpt>
      <trkpt lat="50.899919969961047" lon="10.313576040789485">
        <ele>395.72000000000003</ele>
        <time>2024-09-11T15:25:05Z</time>
      </trkpt>
      <trkpt lat="50.899845035746694" lon="10.313806962221861">
        <ele>395.72000000000003</ele>
        <time>2024-09-11T15:25:06Z</time>
      </trkpt>
      <trkpt lat="50.899783009663224" lon="10.314065041020513">
        <ele>395.24000000000001</ele>
        <time>2024-09-11T15:25:07Z</time>
      </trkpt>
      <trkpt lat="50.899716038256884" lon="10.314336027950048">
        <ele>394.75999999999999</ele>
        <time>2024-09-11T15:25:08Z</time>
      </trkpt>
      <trkpt lat="50.899601960554719" lon="10.3147909976542">
        <ele>392.83999999999997</ele>
        <time>2024-09-11T15:25:10Z</time>
      </trkpt>
      <trkpt lat="50.899556027725339" lon="10.314965005964041">
        <ele>391.38999999999999</ele>
        <time>2024-09-11T15:25:11Z</time>
      </trkpt>
      <trkpt lat="50.899507999420166" lon="10.315145971253514">
        <ele>390.43000000000001</ele>
        <time>2024-09-11T15:25:12Z</time>
      </trkpt>
      <trkpt lat="50.899463994428515" lon="10.31530799344182">
        <ele>388.99000000000001</ele>
        <time>2024-09-11T15:25:13Z</time>
      </trkpt>
      <trkpt lat="50.899373972788453" lon="10.315505973994732">
        <ele>387.55000000000001</ele>
        <time>2024-09-11T15:25:14Z</time>
      </trkpt>
      <trkpt lat="50.899265008047223" lon="10.315661039203405">
        <ele>386.58999999999997</ele>
        <time>2024-09-11T15:25:15Z</time>
      </trkpt>
      <trkpt lat="50.899126036092639" lon="10.315843010321259">
        <ele>385.14999999999998</ele>
        <time>2024-09-11T15:25:16Z</time>
      </trkpt>
      <trkpt lat="50.898985974490643" lon="10.316025987267494">
        <ele>383.69999999999999</ele>
        <time>2024-09-11T15:25:17Z</time>
      </trkpt>
      <trkpt lat="50.898848008364439" lon="10.316198989748955">
        <ele>382.25999999999999</ele>
        <time>2024-09-11T15:25:18Z</time>
      </trkpt>
      <trkpt lat="50.898511977866292" lon="10.316498978063464">
        <ele>379.86000000000001</ele>
        <time>2024-09-11T15:25:20Z</time>
      </trkpt>
      <trkpt lat="50.897656017914414" lon="10.317681999877095">
        <ele>374.56999999999999</ele>
        <time>2024-09-11T15:25:27Z</time>
      </trkpt>
      <trkpt lat="50.897554010152817" lon="10.317853996530175">
        <ele>374.08999999999997</ele>
        <time>2024-09-11T15:25:28Z</time>
      </trkpt>
      <trkpt lat="50.897481003776193" lon="10.318044014275074">
        <ele>373.61000000000001</ele>
        <time>2024-09-11T15:25:29Z</time>
      </trkpt>
      <trkpt lat="50.897401962429285" lon="10.31824903562665">
        <ele>373.61000000000001</ele>
        <time>2024-09-11T15:25:30Z</time>
      </trkpt>
      <trkpt lat="50.897340020164847" lon="10.31852999702096">
        <ele>373.13</ele>
        <time>2024-09-11T15:25:31Z</time>
      </trkpt>
      <trkpt lat="50.89730397798121" lon="10.318814981728792">
        <ele>373.61000000000001</ele>
        <time>2024-09-11T15:25:32Z</time>
      </trkpt>
      <trkpt lat="50.897127036005259" lon="10.319960033521056">
        <ele>373.13</ele>
        <time>2024-09-11T15:25:36Z</time>
      </trkpt>
      <trkpt lat="50.897062998265028" lon="10.320216016843915">
        <ele>373.61000000000001</ele>
        <time>2024-09-11T15:25:37Z</time>
      </trkpt>
      <trkpt lat="50.896982029080391" lon="10.320401005446911">
        <ele>373.61000000000001</ele>
        <time>2024-09-11T15:25:38Z</time>
      </trkpt>
      <trkpt lat="50.896900976076722" lon="10.320576019585133">
        <ele>374.08999999999997</ele>
        <time>2024-09-11T15:25:39Z</time>
      </trkpt>
      <trkpt lat="50.896772984415293" lon="10.320752961561084">
        <ele>374.56999999999999</ele>
        <time>2024-09-11T15:25:40Z</time>
      </trkpt>
      <trkpt lat="50.896629989147186" lon="10.320948008447886">
        <ele>375.05000000000001</ele>
        <time>2024-09-11T15:25:41Z</time>
      </trkpt>
      <trkpt lat="50.896480958908796" lon="10.321140959858894">
        <ele>375.05000000000001</ele>
        <time>2024-09-11T15:25:42Z</time>
      </trkpt>
      <trkpt lat="50.895431963726878" lon="10.322127006947994">
        <ele>379.86000000000001</ele>
        <time>2024-09-11T15:25:48Z</time>
      </trkpt>
      <trkpt lat="50.895177992060781" lon="10.322507964447141">
        <ele>381.77999999999997</ele>
        <time>2024-09-11T15:25:50Z</time>
      </trkpt>
      <trkpt lat="50.89504798874259" lon="10.322702005505562">
        <ele>382.74000000000001</ele>
        <time>2024-09-11T15:25:51Z</time>
      </trkpt>
      <trkpt lat="50.894919997081161" lon="10.322895040735602">
        <ele>383.69999999999999</ele>
        <time>2024-09-11T15:25:52Z</time>
      </trkpt>
      <trkpt lat="50.894701983779669" lon="10.323222018778324">
        <ele>385.14999999999998</ele>
        <time>2024-09-11T15:25:54Z</time>
      </trkpt>
      <trkpt lat="50.894530992954969" lon="10.323302987962961">
        <ele>386.11000000000001</ele>
        <time>2024-09-11T15:25:55Z</time>
      </trkpt>
      <trkpt lat="50.894373999908566" lon="10.323377000167966">
        <ele>386.58999999999997</ele>
        <time>2024-09-11T15:25:56Z</time>
      </trkpt>
      <trkpt lat="50.894022965803742" lon="10.323473978787661">
        <ele>388.02999999999997</ele>
        <time>2024-09-11T15:25:58Z</time>
      </trkpt>
      <trkpt lat="50.89380101300776" lon="10.323522007092834">
        <ele>388.50999999999999</ele>
        <time>2024-09-11T15:25:59Z</time>
      </trkpt>
      <trkpt lat="50.893458025529981" lon="10.323749994859099">
        <ele>389.94999999999999</ele>
        <time>2024-09-11T15:26:01Z</time>
      </trkpt>
      <trkpt lat="50.893128030002117" lon="10.323931965976954">
        <ele>391.38999999999999</ele>
        <time>2024-09-11T15:26:03Z</time>
      </trkpt>
      <trkpt lat="50.89294396340847" lon="10.323979994282126">
        <ele>391.87</ele>
        <time>2024-09-11T15:26:04Z</time>
      </trkpt>
      <trkpt lat="50.892761992290616" lon="10.324027016758919">
        <ele>392.83999999999997</ele>
        <time>2024-09-11T15:26:05Z</time>
      </trkpt>
      <trkpt lat="50.892568035051227" lon="10.32411502674222">
        <ele>393.80000000000001</ele>
        <time>2024-09-11T15:26:06Z</time>
      </trkpt>
      <trkpt lat="50.892397966235876" lon="10.32424503006041">
        <ele>394.75999999999999</ele>
        <time>2024-09-11T15:26:07Z</time>
      </trkpt>
      <trkpt lat="50.892229992896318" lon="10.32437302172184">
        <ele>396.19999999999999</ele>
        <time>2024-09-11T15:26:08Z</time>
      </trkpt>
      <trkpt lat="50.8917819801718" lon="10.32493201084435">
        <ele>400.52999999999997</ele>
        <time>2024-09-11T15:26:11Z</time>
      </trkpt>
      <trkpt lat="50.890961978584528" lon="10.326300021260977">
        <ele>413.5</ele>
        <time>2024-09-11T15:26:17Z</time>
      </trkpt>
      <trkpt lat="50.890595018863678" lon="10.327108036726713">
        <ele>420.23000000000002</ele>
        <time>2024-09-11T15:26:20Z</time>
      </trkpt>
      <trkpt lat="50.890046004205942" lon="10.328457020223141">
        <ele>434.17000000000002</ele>
        <time>2024-09-11T15:26:26Z</time>
      </trkpt>
      <trkpt lat="50.889978026971221" lon="10.328668998554349">
        <ele>436.10000000000002</ele>
        <time>2024-09-11T15:26:27Z</time>
      </trkpt>
      <trkpt lat="50.889929998666048" lon="10.3288200404495">
        <ele>438.5</ele>
        <time>2024-09-11T15:26:28Z</time>
      </trkpt>
      <trkpt lat="50.8898910228163" lon="10.328972004354">
        <ele>440.42000000000002</ele>
        <time>2024-09-11T15:26:29Z</time>
      </trkpt>
      <trkpt lat="50.889873001724482" lon="10.329127991572022">
        <ele>441.86000000000001</ele>
        <time>2024-09-11T15:26:30Z</time>
      </trkpt>
      <trkpt lat="50.889855986461043" lon="10.329274004325271">
        <ele>443.79000000000002</ele>
        <time>2024-09-11T15:26:31Z</time>
      </trkpt>
      <trkpt lat="50.889831008389592" lon="10.329486988484859">
        <ele>446.19</ele>
        <time>2024-09-11T15:26:32Z</time>
      </trkpt>
      <trkpt lat="50.889833020046353" lon="10.329499980434775">
        <ele>448.11000000000001</ele>
        <time>2024-09-11T15:26:33Z</time>
      </trkpt>
      <trkpt lat="50.88984701782465" lon="10.329609028995037">
        <ele>449.06999999999999</ele>
        <time>2024-09-11T15:26:34Z</time>
      </trkpt>
      <trkpt lat="50.889895968139172" lon="10.329817989841104">
        <ele>450.02999999999997</ele>
        <time>2024-09-11T15:26:35Z</time>
      </trkpt>
      <trkpt lat="50.890003005042672" lon="10.329844979569316">
        <ele>451</ele>
        <time>2024-09-11T15:26:36Z</time>
      </trkpt>
      <trkpt lat="50.890119010582566" lon="10.329734003171325">
        <ele>451.95999999999998</ele>
        <time>2024-09-11T15:26:37Z</time>
      </trkpt>
      <trkpt lat="50.890226969495416" lon="10.329593019559979">
        <ele>452.44</ele>
        <time>2024-09-11T15:26:38Z</time>
      </trkpt>
      <trkpt lat="50.89034297503531" lon="10.329441977664828">
        <ele>453.39999999999998</ele>
        <time>2024-09-11T15:26:39Z</time>
      </trkpt>
      <trkpt lat="50.891271019354463" lon="10.328227020800114">
        <ele>463.00999999999999</ele>
        <time>2024-09-11T15:26:45Z</time>
      </trkpt>
      <trkpt lat="50.892084985971451" lon="10.327347004786134">
        <ele>469.25999999999999</ele>
        <time>2024-09-11T15:26:51Z</time>
      </trkpt>
      <trkpt lat="50.892755035310984" lon="10.326965963467956">
        <ele>476.47000000000003</ele>
        <time>2024-09-11T15:26:57Z</time>
      </trkpt>
      <trkpt lat="50.89289995841682" lon="10.326912989839911">
        <ele>478.38999999999999</ele>
        <time>2024-09-11T15:26:58Z</time>
      </trkpt>
      <trkpt lat="50.892960978671908" lon="10.326920030638576">
        <ele>479.83999999999997</ele>
        <time>2024-09-11T15:26:59Z</time>
      </trkpt>
      <trkpt lat="50.893071033060551" lon="10.326934028416872">
        <ele>481.75999999999999</ele>
        <time>2024-09-11T15:27:00Z</time>
      </trkpt>
      <trkpt lat="50.893150996416807" lon="10.326994964852929">
        <ele>483.19999999999999</ele>
        <time>2024-09-11T15:27:01Z</time>
      </trkpt>
      <trkpt lat="50.893236994743347" lon="10.327061014249921">
        <ele>484.63999999999999</ele>
        <time>2024-09-11T15:27:02Z</time>
      </trkpt>
      <trkpt lat="50.893318969756365" lon="10.32712496817112">
        <ele>486.07999999999998</ele>
        <time>2024-09-11T15:27:03Z</time>
      </trkpt>
      <trkpt lat="50.893399016931653" lon="10.327204009518027">
        <ele>487.52999999999997</ele>
        <time>2024-09-11T15:27:04Z</time>
      </trkpt>
      <trkpt lat="50.89350001886487" lon="10.327320015057921">
        <ele>488.97000000000003</ele>
        <time>2024-09-11T15:27:05Z</time>
      </trkpt>
      <trkpt lat="50.893540000542998" lon="10.327429985627532">
        <ele>490.41000000000003</ele>
        <time>2024-09-11T15:27:06Z</time>
      </trkpt>
      <trkpt lat="50.893587023019791" lon="10.327558983117342">
        <ele>491.85000000000002</ele>
        <time>2024-09-11T15:27:07Z</time>
      </trkpt>
      <trkpt lat="50.893760025501251" lon="10.328040020540357">
        <ele>497.13999999999999</ele>
        <time>2024-09-11T15:27:11Z</time>
      </trkpt>
      <trkpt lat="50.893793972209096" lon="10.32817698083818">
        <ele>498.10000000000002</ele>
        <time>2024-09-11T15:27:12Z</time>
      </trkpt>
      <trkpt lat="50.893812999129295" lon="10.3282830119133">
        <ele>499.06</ele>
        <time>2024-09-11T15:27:13Z</time>
      </trkpt>
      <trkpt lat="50.89384401217103" lon="10.328719038516283">
        <ele>501.45999999999998</ele>
        <time>2024-09-11T15:27:17Z</time>
      </trkpt>
      <trkpt lat="50.893751978874207" lon="10.329491011798382">
        <ele>504.35000000000002</ele>
        <time>2024-09-11T15:27:22Z</time>
      </trkpt>
      <trkpt lat="50.893693976104259" lon="10.32993801869452">
        <ele>507.23000000000002</ele>
        <time>2024-09-11T15:27:26Z</time>
      </trkpt>
      <trkpt lat="50.893646031618118" lon="10.330156031996012">
        <ele>507.70999999999998</ele>
        <time>2024-09-11T15:27:27Z</time>
      </trkpt>
      <trkpt lat="50.893577970564365" lon="10.330470018088818">
        <ele>509.63999999999999</ele>
        <time>2024-09-11T15:27:29Z</time>
      </trkpt>
      <trkpt lat="50.893440004438162" lon="10.331106958910823">
        <ele>513</ele>
        <time>2024-09-11T15:27:33Z</time>
      </trkpt>
      <trkpt lat="50.893406979739666" lon="10.331258000805974">
        <ele>513.96000000000004</ele>
        <time>2024-09-11T15:27:34Z</time>
      </trkpt>
      <trkpt lat="50.893374038860202" lon="10.331413988023996">
        <ele>514.44000000000005</ele>
        <time>2024-09-11T15:27:35Z</time>
      </trkpt>
      <trkpt lat="50.893280999734998" lon="10.332067022100091">
        <ele>516.85000000000002</ele>
        <time>2024-09-11T15:27:39Z</time>
      </trkpt>
      <trkpt lat="50.89326398447156" lon="10.332276988774538">
        <ele>517.80999999999995</ele>
        <time>2024-09-11T15:27:40Z</time>
      </trkpt>
      <trkpt lat="50.893291980028152" lon="10.332568008452654">
        <ele>519.25</ele>
        <time>2024-09-11T15:27:42Z</time>
      </trkpt>
      <trkpt lat="50.893341014161706" lon="10.333093972876668">
        <ele>521.64999999999998</ele>
        <time>2024-09-11T15:27:45Z</time>
      </trkpt>
      <trkpt lat="50.893363980576396" lon="10.333335036411881">
        <ele>522.61000000000001</ele>
        <time>2024-09-11T15:27:46Z</time>
      </trkpt>
      <trkpt lat="50.893490966409445" lon="10.335354991257191">
        <ele>528.38</ele>
        <time>2024-09-11T15:27:53Z</time>
      </trkpt>
      <trkpt lat="50.893505970016122" lon="10.335616003721952">
        <ele>529.34000000000003</ele>
        <time>2024-09-11T15:27:54Z</time>
      </trkpt>
      <trkpt lat="50.89352298527956" lon="10.335885984823108">
        <ele>529.82000000000005</ele>
        <time>2024-09-11T15:27:55Z</time>
      </trkpt>
      <trkpt lat="50.893589034676552" lon="10.336137022823095">
        <ele>530.78999999999996</ele>
        <time>2024-09-11T15:27:56Z</time>
      </trkpt>
      <trkpt lat="50.893655000254512" lon="10.336394011974335">
        <ele>531.26999999999998</ele>
        <time>2024-09-11T15:27:57Z</time>
      </trkpt>
      <trkpt lat="50.893722977489233" lon="10.336654018610716">
        <ele>532.23000000000002</ele>
        <time>2024-09-11T15:27:58Z</time>
      </trkpt>
      <trkpt lat="50.893790032714605" lon="10.336915031075478">
        <ele>532.71000000000004</ele>
        <time>2024-09-11T15:27:59Z</time>
      </trkpt>
      <trkpt lat="50.893955994397402" lon="10.337610980495811">
        <ele>535.59000000000003</ele>
        <time>2024-09-11T15:28:02Z</time>
      </trkpt>
      <trkpt lat="50.893990024924278" lon="10.337833017110825">
        <ele>536.54999999999995</ele>
        <time>2024-09-11T15:28:03Z</time>
      </trkpt>
      <trkpt lat="50.893977032974362" lon="10.33805999904871">
        <ele>537.50999999999999</ele>
        <time>2024-09-11T15:28:04Z</time>
      </trkpt>
      <trkpt lat="50.893950965255499" lon="10.338521003723145">
        <ele>538.96000000000004</ele>
        <time>2024-09-11T15:28:06Z</time>
      </trkpt>
      <trkpt lat="50.893969992175698" lon="10.338632985949516">
        <ele>539.91999999999996</ele>
        <time>2024-09-11T15:28:07Z</time>
      </trkpt>
      <trkpt lat="50.894021959975362" lon="10.338849993422627">
        <ele>541.36000000000001</ele>
        <time>2024-09-11T15:28:08Z</time>
      </trkpt>
      <trkpt lat="50.894346004351974" lon="10.339658008888364">
        <ele>546.16999999999996</ele>
        <time>2024-09-11T15:28:12Z</time>
      </trkpt>
      <trkpt lat="50.89442303404212" lon="10.339851966127753">
        <ele>547.13</ele>
        <time>2024-09-11T15:28:13Z</time>
      </trkpt>
      <trkpt lat="50.89442303404212" lon="10.339976018294692">
        <ele>548.57000000000005</ele>
        <time>2024-09-11T15:28:14Z</time>
      </trkpt>
      <trkpt lat="50.894398977980018" lon="10.34016402438283">
        <ele>550.00999999999999</ele>
        <time>2024-09-11T15:28:15Z</time>
      </trkpt>
      <trkpt lat="50.894357990473509" lon="10.340295033529401">
        <ele>550.97000000000003</ele>
        <time>2024-09-11T15:28:16Z</time>
      </trkpt>
      <trkpt lat="50.894315997138619" lon="10.340430987998843">
        <ele>551.92999999999995</ele>
        <time>2024-09-11T15:28:17Z</time>
      </trkpt>
      <trkpt lat="50.894315997138619" lon="10.340527966618538">
        <ele>553.38</ele>
        <time>2024-09-11T15:28:18Z</time>
      </trkpt>
      <trkpt lat="50.894332006573677" lon="10.340643972158432">
        <ele>554.82000000000005</ele>
        <time>2024-09-11T15:28:19Z</time>
      </trkpt>
      <trkpt lat="50.894414987415075" lon="10.340742040425539">
        <ele>555.29999999999995</ele>
        <time>2024-09-11T15:28:20Z</time>
      </trkpt>
      <trkpt lat="50.894502997398376" lon="10.340848993510008">
        <ele>555.77999999999997</ele>
        <time>2024-09-11T15:28:21Z</time>
      </trkpt>
      <trkpt lat="50.894593019038439" lon="10.340951001271605">
        <ele>556.25999999999999</ele>
        <time>2024-09-11T15:28:22Z</time>
      </trkpt>
      <trkpt lat="50.894701983779669" lon="10.341074969619513">
        <ele>556.74000000000001</ele>
        <time>2024-09-11T15:28:23Z</time>
      </trkpt>
      <trkpt lat="50.894763004034758" lon="10.341226011514664">
        <ele>556.74000000000001</ele>
        <time>2024-09-11T15:28:24Z</time>
      </trkpt>
      <trkpt lat="50.894833998754621" lon="10.34143396653235">
        <ele>556.74000000000001</ele>
        <time>2024-09-11T15:28:25Z</time>
      </trkpt>
      <trkpt lat="50.89485302567482" lon="10.341657008975744">
        <ele>556.74000000000001</ele>
        <time>2024-09-11T15:28:26Z</time>
      </trkpt>
      <trkpt lat="50.894895019009709" lon="10.342151038348675">
        <ele>556.74000000000001</ele>
        <time>2024-09-11T15:28:28Z</time>
      </trkpt>
      <trkpt lat="50.894913962110877" lon="10.342425964772701">
        <ele>556.74000000000001</ele>
        <time>2024-09-11T15:28:29Z</time>
      </trkpt>
      <trkpt lat="50.894884038716555" lon="10.342664010822773">
        <ele>556.74000000000001</ele>
        <time>2024-09-11T15:28:30Z</time>
      </trkpt>
      <trkpt lat="50.894735008478165" lon="10.343130966648459">
        <ele>556.74000000000001</ele>
        <time>2024-09-11T15:28:32Z</time>
      </trkpt>
      <trkpt lat="50.894616991281509" lon="10.343312015756965">
        <ele>556.74000000000001</ele>
        <time>2024-09-11T15:28:33Z</time>
      </trkpt>
      <trkpt lat="50.89450903236866" lon="10.34343003295362">
        <ele>556.74000000000001</ele>
        <time>2024-09-11T15:28:34Z</time>
      </trkpt>
      <trkpt lat="50.894395038485527" lon="10.343552995473146">
        <ele>556.25999999999999</ele>
        <time>2024-09-11T15:28:35Z</time>
      </trkpt>
      <trkpt lat="50.894270986318588" lon="10.343687022104859">
        <ele>555.77999999999997</ele>
        <time>2024-09-11T15:28:36Z</time>
      </trkpt>
      <trkpt lat="50.894154980778694" lon="10.343836974352598">
        <ele>555.29999999999995</ele>
        <time>2024-09-11T15:28:37Z</time>
      </trkpt>
      <trkpt lat="50.8940389752388" lon="10.344048030674458">
        <ele>555.29999999999995</ele>
        <time>2024-09-11T15:28:38Z</time>
      </trkpt>
      <trkpt lat="50.893921041861176" lon="10.344262020662427">
        <ele>554.82000000000005</ele>
        <time>2024-09-11T15:28:39Z</time>
      </trkpt>
      <trkpt lat="50.893804030492902" lon="10.344473998993635">
        <ele>554.34000000000003</ele>
        <time>2024-09-11T15:28:40Z</time>
      </trkpt>
      <trkpt lat="50.893693976104259" lon="10.344672985374928">
        <ele>553.86000000000001</ele>
        <time>2024-09-11T15:28:41Z</time>
      </trkpt>
      <trkpt lat="50.893604960292578" lon="10.344839030876756">
        <ele>552.89999999999998</ele>
        <time>2024-09-11T15:28:42Z</time>
      </trkpt>
      <trkpt lat="50.893542012199759" lon="10.345074981451035">
        <ele>551.92999999999995</ele>
        <time>2024-09-11T15:28:43Z</time>
      </trkpt>
      <trkpt lat="50.893475040793419" lon="10.345327025279403">
        <ele>550.97000000000003</ele>
        <time>2024-09-11T15:28:44Z</time>
      </trkpt>
      <trkpt lat="50.893426006659865" lon="10.345582002773881">
        <ele>550.00999999999999</ele>
        <time>2024-09-11T15:28:45Z</time>
      </trkpt>
      <trkpt lat="50.893397005274892" lon="10.345889031887054">
        <ele>548.57000000000005</ele>
        <time>2024-09-11T15:28:46Z</time>
      </trkpt>
      <trkpt lat="50.893365992233157" lon="10.346215004101396">
        <ele>547.13</ele>
        <time>2024-09-11T15:28:47Z</time>
      </trkpt>
      <trkpt lat="50.892943041399121" lon="10.348884975537658">
        <ele>537.02999999999997</ele>
        <time>2024-09-11T15:28:55Z</time>
      </trkpt>
      <trkpt lat="50.892765009775758" lon="10.349856019020081">
        <ele>531.75</ele>
        <time>2024-09-11T15:28:59Z</time>
      </trkpt>
      <trkpt lat="50.89272603392601" lon="10.350036984309554">
        <ele>530.78999999999996</ele>
        <time>2024-09-11T15:29:00Z</time>
      </trkpt>
      <trkpt lat="50.892657972872257" lon="10.350185008719563">
        <ele>529.34000000000003</ele>
        <time>2024-09-11T15:29:01Z</time>
      </trkpt>
      <trkpt lat="50.89257599785924" lon="10.350276958197355">
        <ele>527.89999999999998</ele>
        <time>2024-09-11T15:29:02Z</time>
      </trkpt>
      <trkpt lat="50.892486982047558" lon="10.350377038121223">
        <ele>526.94000000000005</ele>
        <time>2024-09-11T15:29:03Z</time>
      </trkpt>
      <trkpt lat="50.892393020913005" lon="10.350481979548931">
        <ele>525.5</ele>
        <time>2024-09-11T15:29:04Z</time>
      </trkpt>
      <trkpt lat="50.892323032021523" lon="10.350641990080476">
        <ele>524.05999999999995</ele>
        <time>2024-09-11T15:29:05Z</time>
      </trkpt>
      <trkpt lat="50.892268968746066" lon="10.350809041410685">
        <ele>522.61000000000001</ele>
        <time>2024-09-11T15:29:06Z</time>
      </trkpt>
      <trkpt lat="50.89221297763288" lon="10.350984977558255">
        <ele>521.64999999999998</ele>
        <time>2024-09-11T15:29:07Z</time>
      </trkpt>
      <trkpt lat="50.892150029540062" lon="10.351164015009999">
        <ele>520.69000000000005</ele>
        <time>2024-09-11T15:29:08Z</time>
      </trkpt>
      <trkpt lat="50.89201700873673" lon="10.351502979174256">
        <ele>518.76999999999998</ele>
        <time>2024-09-11T15:29:10Z</time>
      </trkpt>
      <trkpt lat="50.891499007120728" lon="10.352995041757822">
        <ele>509.63999999999999</ele>
        <time>2024-09-11T15:29:19Z</time>
      </trkpt>
      <trkpt lat="50.891423989087343" lon="10.353144994005561">
        <ele>508.19</ele>
        <time>2024-09-11T15:29:20Z</time>
      </trkpt>
      <trkpt lat="50.891349976882339" lon="10.353294024243951">
        <ele>507.23000000000002</ele>
        <time>2024-09-11T15:29:21Z</time>
      </trkpt>
      <trkpt lat="50.891277976334095" lon="10.353438025340438">
        <ele>505.79000000000002</ele>
        <time>2024-09-11T15:29:22Z</time>
      </trkpt>
      <trkpt lat="50.891205975785851" lon="10.353581020608544">
        <ele>504.82999999999998</ele>
        <time>2024-09-11T15:29:23Z</time>
      </trkpt>
      <trkpt lat="50.891133975237608" lon="10.353725021705031">
        <ele>503.38999999999999</ele>
        <time>2024-09-11T15:29:24Z</time>
      </trkpt>
      <trkpt lat="50.891062980517745" lon="10.353867011144757">
        <ele>501.94999999999999</ele>
        <time>2024-09-11T15:29:25Z</time>
      </trkpt>
      <trkpt lat="50.890789981931448" lon="10.354351988062263">
        <ele>495.69999999999999</ele>
        <time>2024-09-11T15:29:29Z</time>
      </trkpt>
      <trkpt lat="50.890297964215279" lon="10.35479698330164">
        <ele>481.75999999999999</ele>
        <time>2024-09-11T15:29:38Z</time>
      </trkpt>
      <trkpt lat="50.890076011419296" lon="10.354987001046538">
        <ele>476.47000000000003</ele>
        <time>2024-09-11T15:29:42Z</time>
      </trkpt>
      <trkpt lat="50.889691030606627" lon="10.355627965182066">
        <ele>468.77999999999997</ele>
        <time>2024-09-11T15:29:49Z</time>
      </trkpt>
      <trkpt lat="50.889551974833012" lon="10.356037002056837">
        <ele>463.49000000000001</ele>
        <time>2024-09-11T15:29:53Z</time>
      </trkpt>
      <trkpt lat="50.889540994539857" lon="10.35615099593997">
        <ele>462.05000000000001</ele>
        <time>2024-09-11T15:29:54Z</time>
      </trkpt>
      <trkpt lat="50.889529008418322" lon="10.356274964287877">
        <ele>461.08999999999997</ele>
        <time>2024-09-11T15:29:55Z</time>
      </trkpt>
      <trkpt lat="50.889494977891445" lon="10.356877958402038">
        <ele>458.69</ele>
        <time>2024-09-11T15:30:00Z</time>
      </trkpt>
      <trkpt lat="50.889500007033348" lon="10.356998993083835">
        <ele>458.69</ele>
        <time>2024-09-11T15:30:01Z</time>
      </trkpt>
      <trkpt lat="50.8895059581846" lon="10.357122039422393">
        <ele>458.69</ele>
        <time>2024-09-11T15:30:02Z</time>
      </trkpt>
      <trkpt lat="50.889524985104799" lon="10.357381040230393">
        <ele>458.20999999999998</ele>
        <time>2024-09-11T15:30:04Z</time>
      </trkpt>
      <trkpt lat="50.889561027288437" lon="10.357764009386301">
        <ele>457.72000000000003</ele>
        <time>2024-09-11T15:30:07Z</time>
      </trkpt>
      <trkpt lat="50.889572007581592" lon="10.35789200104773">
        <ele>456.75999999999999</ele>
        <time>2024-09-11T15:30:08Z</time>
      </trkpt>
      <trkpt lat="50.889583993703127" lon="10.358014041557908">
        <ele>456.27999999999997</ele>
        <time>2024-09-11T15:30:09Z</time>
      </trkpt>
      <trkpt lat="50.889606038108468" lon="10.358258038759232">
        <ele>455.80000000000001</ele>
        <time>2024-09-11T15:30:11Z</time>
      </trkpt>
      <trkpt lat="50.889878030866385" lon="10.359125984832644">
        <ele>451.48000000000002</ele>
        <time>2024-09-11T15:30:18Z</time>
      </trkpt>
      <trkpt lat="50.889949025586247" lon="10.359230004251003">
        <ele>451</ele>
        <time>2024-09-11T15:30:19Z</time>
      </trkpt>
      <trkpt lat="50.890152035281062" lon="10.359528986737132">
        <ele>449.06999999999999</ele>
        <time>2024-09-11T15:30:22Z</time>
      </trkpt>
      <trkpt lat="50.890218000859022" lon="10.359625965356827">
        <ele>448.58999999999997</ele>
        <time>2024-09-11T15:30:23Z</time>
      </trkpt>
      <trkpt lat="50.890268040820956" lon="10.35973702557385">
        <ele>448.11000000000001</ele>
        <time>2024-09-11T15:30:24Z</time>
      </trkpt>
      <trkpt lat="50.890311039984226" lon="10.359854958951473">
        <ele>447.14999999999998</ele>
        <time>2024-09-11T15:30:25Z</time>
      </trkpt>
      <trkpt lat="50.890353033319116" lon="10.359978005290031">
        <ele>446.67000000000002</ele>
        <time>2024-09-11T15:30:26Z</time>
      </trkpt>
      <trkpt lat="50.890393014997244" lon="10.360099039971828">
        <ele>446.67000000000002</ele>
        <time>2024-09-11T15:30:27Z</time>
      </trkpt>
      <trkpt lat="50.89042603969574" lon="10.360224014148116">
        <ele>446.19</ele>
        <time>2024-09-11T15:30:28Z</time>
      </trkpt>
      <trkpt lat="50.890542967244983" lon="10.360778979957104">
        <ele>444.75</ele>
        <time>2024-09-11T15:30:33Z</time>
      </trkpt>
      <trkpt lat="50.890635000541806" lon="10.36121902987361">
        <ele>442.81999999999999</ele>
        <time>2024-09-11T15:30:37Z</time>
      </trkpt>
      <trkpt lat="50.890653021633625" lon="10.361301004886627">
        <ele>442.33999999999997</ele>
        <time>2024-09-11T15:30:38Z</time>
      </trkpt>
      <trkpt lat="50.890625026077032" lon="10.361428996548057">
        <ele>442.33999999999997</ele>
        <time>2024-09-11T15:30:39Z</time>
      </trkpt>
      <trkpt lat="50.890569034963846" lon="10.361498985439539">
        <ele>441.86000000000001</ele>
        <time>2024-09-11T15:30:40Z</time>
      </trkpt>
      <trkpt lat="50.890499968081713" lon="10.361588001251221">
        <ele>441.86000000000001</ele>
        <time>2024-09-11T15:30:41Z</time>
      </trkpt>
      <trkpt lat="50.890416987240314" lon="10.361720016226172">
        <ele>441.86000000000001</ele>
        <time>2024-09-11T15:30:42Z</time>
      </trkpt>
      <trkpt lat="50.890370970591903" lon="10.361868040636182">
        <ele>442.33999999999997</ele>
        <time>2024-09-11T15:30:43Z</time>
      </trkpt>
      <trkpt lat="50.890329983085394" lon="10.361997960135341">
        <ele>442.33999999999997</ele>
        <time>2024-09-11T15:30:44Z</time>
      </trkpt>
      <trkpt lat="50.890298970043659" lon="10.362128969281912">
        <ele>442.33999999999997</ele>
        <time>2024-09-11T15:30:45Z</time>
      </trkpt>
      <trkpt lat="50.890288995578885" lon="10.362250003963709">
        <ele>442.33999999999997</ele>
        <time>2024-09-11T15:30:46Z</time>
      </trkpt>
      <trkpt lat="50.890283966436982" lon="10.362368021160364">
        <ele>442.33999999999997</ele>
        <time>2024-09-11T15:30:47Z</time>
      </trkpt>
      <trkpt lat="50.890294024720788" lon="10.362472040578723">
        <ele>442.81999999999999</ele>
        <time>2024-09-11T15:30:48Z</time>
      </trkpt>
      <trkpt lat="50.890302993357182" lon="10.362568013370037">
        <ele>442.81999999999999</ele>
        <time>2024-09-11T15:30:49Z</time>
      </trkpt>
      <trkpt lat="50.890312967821956" lon="10.362675972282887">
        <ele>442.81999999999999</ele>
        <time>2024-09-11T15:30:50Z</time>
      </trkpt>
      <trkpt lat="50.890420004725456" lon="10.363554982468486">
        <ele>442.81999999999999</ele>
        <time>2024-09-11T15:30:57Z</time>
      </trkpt>
      <trkpt lat="50.890442971140146" lon="10.363679034635425">
        <ele>443.31</ele>
        <time>2024-09-11T15:30:58Z</time>
      </trkpt>
      <trkpt lat="50.890508014708757" lon="10.364043982699513">
        <ele>445.23000000000002</ele>
        <time>2024-09-11T15:31:01Z</time>
      </trkpt>
      <trkpt lat="50.890843961387873" lon="10.365317026153207">
        <ele>449.06999999999999</ele>
        <time>2024-09-11T15:31:12Z</time>
      </trkpt>
      <trkpt lat="50.890886038541794" lon="10.365562029182911">
        <ele>448.58999999999997</ele>
        <time>2024-09-11T15:31:14Z</time>
      </trkpt>
      <trkpt lat="50.890889978036284" lon="10.36569002084434">
        <ele>448.58999999999997</ele>
        <time>2024-09-11T15:31:15Z</time>
      </trkpt>
      <trkpt lat="50.890874974429607" lon="10.366423018276691">
        <ele>445.70999999999998</ele>
        <time>2024-09-11T15:31:21Z</time>
      </trkpt>
      <trkpt lat="50.890862988308072" lon="10.366555033251643">
        <ele>445.23000000000002</ele>
        <time>2024-09-11T15:31:22Z</time>
      </trkpt>
      <trkpt lat="50.890851002186537" lon="10.366681013256311">
        <ele>444.75</ele>
        <time>2024-09-11T15:31:23Z</time>
      </trkpt>
      <trkpt lat="50.890840021893382" lon="10.366801964119077">
        <ele>444.26999999999998</ele>
        <time>2024-09-11T15:31:24Z</time>
      </trkpt>
      <trkpt lat="50.890853013843298" lon="10.366890979930758">
        <ele>443.31</ele>
        <time>2024-09-11T15:31:25Z</time>
      </trkpt>
      <trkpt lat="50.890869023278356" lon="10.366998016834259">
        <ele>442.81999999999999</ele>
        <time>2024-09-11T15:31:26Z</time>
      </trkpt>
      <trkpt lat="50.890883021056652" lon="10.367092983797193">
        <ele>441.86000000000001</ele>
        <time>2024-09-11T15:31:27Z</time>
      </trkpt>
      <trkpt lat="50.890903975814581" lon="10.367231033742428">
        <ele>440.42000000000002</ele>
        <time>2024-09-11T15:31:29Z</time>
      </trkpt>
      <trkpt lat="50.890906993299723" lon="10.367304962128401">
        <ele>439.45999999999998</ele>
        <time>2024-09-11T15:31:30Z</time>
      </trkpt>
      <trkpt lat="50.890913028270006" lon="10.367447035387158">
        <ele>437.06</ele>
        <time>2024-09-11T15:31:32Z</time>
      </trkpt>
      <trkpt lat="50.890915961936116" lon="10.367520041763783">
        <ele>436.10000000000002</ele>
        <time>2024-09-11T15:31:33Z</time>
      </trkpt>
      <trkpt lat="50.890917973592877" lon="10.367590030655265">
        <ele>435.13</ele>
        <time>2024-09-11T15:31:34Z</time>
      </trkpt>
      <trkpt lat="50.890920991078019" lon="10.367653984576464">
        <ele>434.17000000000002</ele>
        <time>2024-09-11T15:31:35Z</time>
      </trkpt>
      <trkpt lat="50.890924008563161" lon="10.367725985124707">
        <ele>433.69</ele>
        <time>2024-09-11T15:31:36Z</time>
      </trkpt>
      <trkpt lat="50.890907999128103" lon="10.367803014814854">
        <ele>433.20999999999998</ele>
        <time>2024-09-11T15:31:37Z</time>
      </trkpt>
      <trkpt lat="50.890869023278356" lon="10.36788197234273">
        <ele>432.25</ele>
        <time>2024-09-11T15:31:38Z</time>
      </trkpt>
      <trkpt lat="50.890820994973183" lon="10.367977023124695">
        <ele>432.25</ele>
        <time>2024-09-11T15:31:39Z</time>
      </trkpt>
      <trkpt lat="50.89077103883028" lon="10.368076013401151">
        <ele>432.25</ele>
        <time>2024-09-11T15:31:40Z</time>
      </trkpt>
      <trkpt lat="50.890731979161501" lon="10.368153965100646">
        <ele>432.73000000000002</ele>
        <time>2024-09-11T15:31:41Z</time>
      </trkpt>
      <trkpt lat="50.890645980834961" lon="10.368253039196134">
        <ele>432.73000000000002</ele>
        <time>2024-09-11T15:31:42Z</time>
      </trkpt>
      <trkpt lat="50.890576997771859" lon="10.36833300255239">
        <ele>432.73000000000002</ele>
        <time>2024-09-11T15:31:43Z</time>
      </trkpt>
      <trkpt lat="50.890006022527814" lon="10.368918981403112">
        <ele>433.20999999999998</ele>
        <time>2024-09-11T15:31:51Z</time>
      </trkpt>
      <trkpt lat="50.88993402197957" lon="10.368985030800104">
        <ele>433.69</ele>
        <time>2024-09-11T15:31:52Z</time>
      </trkpt>
      <trkpt lat="50.889215022325516" lon="10.369503032416105">
        <ele>436.57999999999998</ele>
        <time>2024-09-11T15:32:02Z</time>
      </trkpt>
      <trkpt lat="50.88914000429213" lon="10.369539996609092">
        <ele>437.06</ele>
        <time>2024-09-11T15:32:03Z</time>
      </trkpt>
      <trkpt lat="50.889061968773603" lon="10.369571009650826">
        <ele>437.06</ele>
        <time>2024-09-11T15:32:04Z</time>
      </trkpt>
      <trkpt lat="50.88847397826612" lon="10.369590036571026">
        <ele>438.5</ele>
        <time>2024-09-11T15:32:11Z</time>
      </trkpt>
      <trkpt lat="50.888239033520222" lon="10.369518036022782">
        <ele>439.45999999999998</ele>
        <time>2024-09-11T15:32:14Z</time>
      </trkpt>
      <trkpt lat="50.888154963031411" lon="10.369486017152667">
        <ele>439.94</ele>
        <time>2024-09-11T15:32:15Z</time>
      </trkpt>
      <trkpt lat="50.888061001896858" lon="10.369469001889229">
        <ele>439.94</ele>
        <time>2024-09-11T15:32:16Z</time>
      </trkpt>
      <trkpt lat="50.887966034933925" lon="10.369488028809428">
        <ele>440.89999999999998</ele>
        <time>2024-09-11T15:32:17Z</time>
      </trkpt>
      <trkpt lat="50.887867966666818" lon="10.369510995224118">
        <ele>441.38</ele>
        <time>2024-09-11T15:32:18Z</time>
      </trkpt>
      <trkpt lat="50.887769982218742" lon="10.369560029357672">
        <ele>441.86000000000001</ele>
        <time>2024-09-11T15:32:19Z</time>
      </trkpt>
      <trkpt lat="50.887683983892202" lon="10.369652984663844">
        <ele>442.33999999999997</ele>
        <time>2024-09-11T15:32:20Z</time>
      </trkpt>
      <trkpt lat="50.887599997222424" lon="10.369760021567345">
        <ele>443.31</ele>
        <time>2024-09-11T15:32:21Z</time>
      </trkpt>
      <trkpt lat="50.887509975582361" lon="10.369874015450478">
        <ele>443.79000000000002</ele>
        <time>2024-09-11T15:32:22Z</time>
      </trkpt>
      <trkpt lat="50.887418026104569" lon="10.369990020990372">
        <ele>444.75</ele>
        <time>2024-09-11T15:32:23Z</time>
      </trkpt>
      <trkpt lat="50.886458968743682" lon="10.371164996176958">
        <ele>450.02999999999997</ele>
        <time>2024-09-11T15:32:33Z</time>
      </trkpt>
      <trkpt lat="50.885217022150755" lon="10.372652029618621">
        <ele>458.20999999999998</ele>
        <time>2024-09-11T15:32:46Z</time>
      </trkpt>
      <trkpt lat="50.884688040241599" lon="10.373410005122423">
        <ele>460.61000000000001</ele>
        <time>2024-09-11T15:32:52Z</time>
      </trkpt>
      <trkpt lat="50.884381011128426" lon="10.374011993408203">
        <ele>461.08999999999997</ele>
        <time>2024-09-11T15:32:56Z</time>
      </trkpt>
      <trkpt lat="50.884298030287027" lon="10.374341988936067">
        <ele>462.05000000000001</ele>
        <time>2024-09-11T15:32:58Z</time>
      </trkpt>
      <trkpt lat="50.884256036952138" lon="10.374708026647568">
        <ele>463.00999999999999</ele>
        <time>2024-09-11T15:33:00Z</time>
      </trkpt>
      <trkpt lat="50.884208008646965" lon="10.374852027744055">
        <ele>463.49000000000001</ele>
        <time>2024-09-11T15:33:01Z</time>
      </trkpt>
      <trkpt lat="50.884158974513412" lon="10.375000974163413">
        <ele>463.49000000000001</ele>
        <time>2024-09-11T15:33:02Z</time>
      </trkpt>
      <trkpt lat="50.884060990065336" lon="10.375131983309984">
        <ele>463.97000000000003</ele>
        <time>2024-09-11T15:33:03Z</time>
      </trkpt>
      <trkpt lat="50.883969962596893" lon="10.37523097358644">
        <ele>463.97000000000003</ele>
        <time>2024-09-11T15:33:04Z</time>
      </trkpt>
      <trkpt lat="50.883879018947482" lon="10.375328036025167">
        <ele>464.44999999999999</ele>
        <time>2024-09-11T15:33:05Z</time>
      </trkpt>
      <trkpt lat="50.883770976215601" lon="10.375386038795114">
        <ele>464.93000000000001</ele>
        <time>2024-09-11T15:33:06Z</time>
      </trkpt>
      <trkpt lat="50.883669974282384" lon="10.375432977452874">
        <ele>465.42000000000002</ele>
        <time>2024-09-11T15:33:07Z</time>
      </trkpt>
      <trkpt lat="50.883586993440986" lon="10.375471031293273">
        <ele>466.38</ele>
        <time>2024-09-11T15:33:08Z</time>
      </trkpt>
      <trkpt lat="50.883474005386233" lon="10.375441024079919">
        <ele>466.86000000000001</ele>
        <time>2024-09-11T15:33:09Z</time>
      </trkpt>
      <trkpt lat="50.883377026766539" lon="10.375414034351707">
        <ele>467.33999999999997</ele>
        <time>2024-09-11T15:33:10Z</time>
      </trkpt>
      <trkpt lat="50.883279964327812" lon="10.375387966632843">
        <ele>468.30000000000001</ele>
        <time>2024-09-11T15:33:11Z</time>
      </trkpt>
      <trkpt lat="50.883096987381577" lon="10.375339016318321">
        <ele>469.74000000000001</ele>
        <time>2024-09-11T15:33:13Z</time>
      </trkpt>
      <trkpt lat="50.883009983226657" lon="10.375314960256219">
        <ele>470.22000000000003</ele>
        <time>2024-09-11T15:33:14Z</time>
      </trkpt>
      <trkpt lat="50.882732961326838" lon="10.375240026041865">
        <ele>472.13999999999999</ele>
        <time>2024-09-11T15:33:17Z</time>
      </trkpt>
      <trkpt lat="50.882426016032696" lon="10.37520800717175">
        <ele>474.06999999999999</ele>
        <time>2024-09-11T15:33:20Z</time>
      </trkpt>
      <trkpt lat="50.881375009194016" lon="10.375313032418489">
        <ele>482.24000000000001</ele>
        <time>2024-09-11T15:33:29Z</time>
      </trkpt>
      <trkpt lat="50.881150960922241" lon="10.375292999669909">
        <ele>484.16000000000003</ele>
        <time>2024-09-11T15:33:31Z</time>
      </trkpt>
      <trkpt lat="50.880708983168006" lon="10.375092001631856">
        <ele>488.97000000000003</ele>
        <time>2024-09-11T15:33:35Z</time>
      </trkpt>
      <trkpt lat="50.87962101213634" lon="10.374432010576129">
        <ele>501.94999999999999</ele>
        <time>2024-09-11T15:33:44Z</time>
      </trkpt>
      <trkpt lat="50.878977030515671" lon="10.374201005324721">
        <ele>506.26999999999998</ele>
        <time>2024-09-11T15:33:49Z</time>
      </trkpt>
      <trkpt lat="50.878840992227197" lon="10.374177033081651">
        <ele>506.75</ele>
        <time>2024-09-11T15:33:50Z</time>
      </trkpt>
      <trkpt lat="50.878707971423864" lon="10.374167980626225">
        <ele>507.70999999999998</ele>
        <time>2024-09-11T15:33:51Z</time>
      </trkpt>
      <trkpt lat="50.877323029562831" lon="10.374248027801514">
        <ele>518.28999999999996</ele>
        <time>2024-09-11T15:34:01Z</time>
      </trkpt>
      <trkpt lat="50.877183973789215" lon="10.374303013086319">
        <ele>519.25</ele>
        <time>2024-09-11T15:34:02Z</time>
      </trkpt>
      <trkpt lat="50.877037039026618" lon="10.374362021684647">
        <ele>520.69000000000005</ele>
        <time>2024-09-11T15:34:03Z</time>
      </trkpt>
      <trkpt lat="50.876896977424622" lon="10.374470986425877">
        <ele>522.13</ele>
        <time>2024-09-11T15:34:04Z</time>
      </trkpt>
      <trkpt lat="50.87674199603498" lon="10.374612975865602">
        <ele>523.58000000000004</ele>
        <time>2024-09-11T15:34:05Z</time>
      </trkpt>
      <trkpt lat="50.876605035737157" lon="10.374759994447231">
        <ele>524.53999999999996</ele>
        <time>2024-09-11T15:34:06Z</time>
      </trkpt>
      <trkpt lat="50.87581898085773" lon="10.375630035996437">
        <ele>530.78999999999996</ele>
        <time>2024-09-11T15:34:11Z</time>
      </trkpt>
      <trkpt lat="50.875685960054398" lon="10.375855006277561">
        <ele>531.75</ele>
        <time>2024-09-11T15:34:12Z</time>
      </trkpt>
      <trkpt lat="50.875446991994977" lon="10.37626001983881">
        <ele>533.66999999999996</ele>
        <time>2024-09-11T15:34:14Z</time>
      </trkpt>
      <trkpt lat="50.875340960919857" lon="10.376439979299903">
        <ele>534.63</ele>
        <time>2024-09-11T15:34:15Z</time>
      </trkpt>
      <trkpt lat="50.875211963430047" lon="10.376533018425107">
        <ele>535.11000000000001</ele>
        <time>2024-09-11T15:34:16Z</time>
      </trkpt>
      <trkpt lat="50.875063017010689" lon="10.376584986224771">
        <ele>536.07000000000005</ele>
        <time>2024-09-11T15:34:17Z</time>
      </trkpt>
      <trkpt lat="50.874899988994002" lon="10.376640977337956">
        <ele>536.54999999999995</ele>
        <time>2024-09-11T15:34:18Z</time>
      </trkpt>
      <trkpt lat="50.874372012913227" lon="10.376834012567997">
        <ele>538.48000000000002</ele>
        <time>2024-09-11T15:34:21Z</time>
      </trkpt>
      <trkpt lat="50.874190963804722" lon="10.376911964267492">
        <ele>538.96000000000004</ele>
        <time>2024-09-11T15:34:22Z</time>
      </trkpt>
      <trkpt lat="50.873039038851857" lon="10.377583019435406">
        <ele>543.75999999999999</ele>
        <time>2024-09-11T15:34:29Z</time>
      </trkpt>
      <trkpt lat="50.872686998918653" lon="10.377724003046751">
        <ele>545.69000000000005</ele>
        <time>2024-09-11T15:34:31Z</time>
      </trkpt>
      <trkpt lat="50.872325990349054" lon="10.377741018310189">
        <ele>547.13</ele>
        <time>2024-09-11T15:34:33Z</time>
      </trkpt>
      <trkpt lat="50.872152987867594" lon="10.377716040238738">
        <ele>548.57000000000005</ele>
        <time>2024-09-11T15:34:34Z</time>
      </trkpt>
      <trkpt lat="50.871985014528036" lon="10.37765602581203">
        <ele>550.00999999999999</ele>
        <time>2024-09-11T15:34:35Z</time>
      </trkpt>
      <trkpt lat="50.871834978461266" lon="10.377546977251768">
        <ele>551.45000000000005</ele>
        <time>2024-09-11T15:34:36Z</time>
      </trkpt>
      <trkpt lat="50.871677985414863" lon="10.3774019703269">
        <ele>552.89999999999998</ele>
        <time>2024-09-11T15:34:37Z</time>
      </trkpt>
      <trkpt lat="50.8715879637748" lon="10.377223016694188">
        <ele>554.34000000000003</ele>
        <time>2024-09-11T15:34:38Z</time>
      </trkpt>
      <trkpt lat="50.871509006246924" lon="10.376988993957639">
        <ele>555.77999999999997</ele>
        <time>2024-09-11T15:34:39Z</time>
      </trkpt>
      <trkpt lat="50.871462989598513" lon="10.376715995371342">
        <ele>557.22000000000003</ele>
        <time>2024-09-11T15:34:40Z</time>
      </trkpt>
      <trkpt lat="50.871462989598513" lon="10.376433022320271">
        <ele>558.17999999999995</ele>
        <time>2024-09-11T15:34:41Z</time>
      </trkpt>
      <trkpt lat="50.871462989598513" lon="10.376135967671871">
        <ele>559.62</ele>
        <time>2024-09-11T15:34:42Z</time>
      </trkpt>
      <trkpt lat="50.871516969054937" lon="10.375823993235826">
        <ele>561.07000000000005</ele>
        <time>2024-09-11T15:34:43Z</time>
      </trkpt>
      <trkpt lat="50.871558040380478" lon="10.375581001862884">
        <ele>562.50999999999999</ele>
        <time>2024-09-11T15:34:44Z</time>
      </trkpt>
      <trkpt lat="50.871591987088323" lon="10.37538000382483">
        <ele>563.95000000000005</ele>
        <time>2024-09-11T15:34:45Z</time>
      </trkpt>
      <trkpt lat="50.871612019836903" lon="10.375250000506639">
        <ele>565.38999999999999</ele>
        <time>2024-09-11T15:34:46Z</time>
      </trkpt>
      <trkpt lat="50.87158402428031" lon="10.375153021886945">
        <ele>566.83000000000004</ele>
        <time>2024-09-11T15:34:47Z</time>
      </trkpt>
      <trkpt lat="50.87152099236846" lon="10.375105999410152">
        <ele>568.27999999999997</ele>
        <time>2024-09-11T15:34:48Z</time>
      </trkpt>
      <trkpt lat="50.87143499404192" lon="10.375113962218165">
        <ele>570.20000000000005</ele>
        <time>2024-09-11T15:34:49Z</time>
      </trkpt>
      <trkpt lat="50.871338015422225" lon="10.375223010778427">
        <ele>571.63999999999999</ele>
        <time>2024-09-11T15:34:50Z</time>
      </trkpt>
      <trkpt lat="50.871217986568809" lon="10.375357959419489">
        <ele>573.08000000000004</ele>
        <time>2024-09-11T15:34:51Z</time>
      </trkpt>
      <trkpt lat="50.870782965794206" lon="10.375914014875889">
        <ele>577.40999999999997</ele>
        <time>2024-09-11T15:34:54Z</time>
      </trkpt>
      <trkpt lat="50.870637958869338" lon="10.376145020127296">
        <ele>579.33000000000004</ele>
        <time>2024-09-11T15:34:55Z</time>
      </trkpt>
      <trkpt lat="50.870506027713418" lon="10.376430004835129">
        <ele>580.76999999999998</ele>
        <time>2024-09-11T15:34:56Z</time>
      </trkpt>
      <trkpt lat="50.86993396282196" lon="10.377806983888149">
        <ele>588.46000000000004</ele>
        <time>2024-09-11T15:35:01Z</time>
      </trkpt>
      <trkpt lat="50.869765989482403" lon="10.378002030774951">
        <ele>589.90999999999997</ele>
        <time>2024-09-11T15:35:02Z</time>
      </trkpt>
      <trkpt lat="50.869401041418314" lon="10.378427999094129">
        <ele>592.30999999999995</ele>
        <time>2024-09-11T15:35:04Z</time>
      </trkpt>
      <trkpt lat="50.869216974824667" lon="10.378642994910479">
        <ele>593.26999999999998</ele>
        <time>2024-09-11T15:35:05Z</time>
      </trkpt>
      <trkpt lat="50.869040032848716" lon="10.378916999325156">
        <ele>594.23000000000002</ele>
        <time>2024-09-11T15:35:06Z</time>
      </trkpt>
      <trkpt lat="50.867987014353275" lon="10.381285976618528">
        <ele>605.28999999999996</ele>
        <time>2024-09-11T15:35:14Z</time>
      </trkpt>
      <trkpt lat="50.867856005206704" lon="10.381497032940388">
        <ele>606.73000000000002</ele>
        <time>2024-09-11T15:35:15Z</time>
      </trkpt>
      <trkpt lat="50.867741005495191" lon="10.381661988794804">
        <ele>608.16999999999996</ele>
        <time>2024-09-11T15:35:16Z</time>
      </trkpt>
      <trkpt lat="50.867601027712226" lon="10.381800960749388">
        <ele>609.61000000000001</ele>
        <time>2024-09-11T15:35:17Z</time>
      </trkpt>
      <trkpt lat="50.867447974160314" lon="10.381852006539702">
        <ele>610.57000000000005</ele>
        <time>2024-09-11T15:35:18Z</time>
      </trkpt>
      <trkpt lat="50.867277989163995" lon="10.381909003481269">
        <ele>612.01999999999998</ele>
        <time>2024-09-11T15:35:19Z</time>
      </trkpt>
      <trkpt lat="50.867109009996057" lon="10.381929958239198">
        <ele>613.46000000000004</ele>
        <time>2024-09-11T15:35:20Z</time>
      </trkpt>
      <trkpt lat="50.866931984201074" lon="10.381916966289282">
        <ele>614.41999999999996</ele>
        <time>2024-09-11T15:35:21Z</time>
      </trkpt>
      <trkpt lat="50.866756970062852" lon="10.381829962134361">
        <ele>615.86000000000001</ele>
        <time>2024-09-11T15:35:22Z</time>
      </trkpt>
      <trkpt lat="50.866580028086901" lon="10.381689984351397">
        <ele>617.29999999999995</ele>
        <time>2024-09-11T15:35:23Z</time>
      </trkpt>
      <trkpt lat="50.866017015650868" lon="10.381281031295657">
        <ele>621.14999999999998</ele>
        <time>2024-09-11T15:35:26Z</time>
      </trkpt>
      <trkpt lat="50.865809982642531" lon="10.381210958585143">
        <ele>622.59000000000003</ele>
        <time>2024-09-11T15:35:27Z</time>
      </trkpt>
      <trkpt lat="50.865593980997801" lon="10.381175000220537">
        <ele>623.54999999999995</ele>
        <time>2024-09-11T15:35:28Z</time>
      </trkpt>
      <trkpt lat="50.865370016545057" lon="10.381166031584144">
        <ele>624.99000000000001</ele>
        <time>2024-09-11T15:35:29Z</time>
      </trkpt>
      <trkpt lat="50.865145968273282" lon="10.381157984957099">
        <ele>625.96000000000004</ele>
        <time>2024-09-11T15:35:30Z</time>
      </trkpt>
      <trkpt lat="50.864480026066303" lon="10.381177011877298">
        <ele>629.79999999999995</ele>
        <time>2024-09-11T15:35:33Z</time>
      </trkpt>
      <trkpt lat="50.863446034491062" lon="10.380997974425554">
        <ele>635.57000000000005</ele>
        <time>2024-09-11T15:35:38Z</time>
      </trkpt>
      <trkpt lat="50.863264985382557" lon="10.38105295971036">
        <ele>636.04999999999995</ele>
        <time>2024-09-11T15:35:39Z</time>
      </trkpt>
      <trkpt lat="50.863093994557858" lon="10.381165025755763">
        <ele>636.52999999999997</ele>
        <time>2024-09-11T15:35:40Z</time>
      </trkpt>
      <trkpt lat="50.862921997904778" lon="10.381314978003502">
        <ele>637.49000000000001</ele>
        <time>2024-09-11T15:35:41Z</time>
      </trkpt>
      <trkpt lat="50.862769028171897" lon="10.381494015455246">
        <ele>637.97000000000003</ele>
        <time>2024-09-11T15:35:42Z</time>
      </trkpt>
      <trkpt lat="50.862621003761888" lon="10.381684033200145">
        <ele>638.92999999999995</ele>
        <time>2024-09-11T15:35:43Z</time>
      </trkpt>
      <trkpt lat="50.862473985180259" lon="10.381872039288282">
        <ele>639.40999999999997</ele>
        <time>2024-09-11T15:35:44Z</time>
      </trkpt>
      <trkpt lat="50.862286984920502" lon="10.381993995979428">
        <ele>639.40999999999997</ele>
        <time>2024-09-11T15:35:45Z</time>
      </trkpt>
      <trkpt lat="50.862104007974267" lon="10.382075970992446">
        <ele>639.88999999999999</ele>
        <time>2024-09-11T15:35:46Z</time>
      </trkpt>
      <trkpt lat="50.861916001886129" lon="10.382122993469238">
        <ele>639.88999999999999</ele>
        <time>2024-09-11T15:35:47Z</time>
      </trkpt>
      <trkpt lat="50.861738976091146" lon="10.382114024832845">
        <ele>639.88999999999999</ele>
        <time>2024-09-11T15:35:48Z</time>
      </trkpt>
      <trkpt lat="50.861592963337898" lon="10.382059039548039">
        <ele>640.38</ele>
        <time>2024-09-11T15:35:49Z</time>
      </trkpt>
      <trkpt lat="50.861442005261779" lon="10.381914032623172">
        <ele>640.86000000000001</ele>
        <time>2024-09-11T15:35:50Z</time>
      </trkpt>
      <trkpt lat="50.861300015822053" lon="10.381779000163078">
        <ele>641.82000000000005</ele>
        <time>2024-09-11T15:35:51Z</time>
      </trkpt>
      <trkpt lat="50.860346993431449" lon="10.380920022726059">
        <ele>648.54999999999995</ele>
        <time>2024-09-11T15:35:59Z</time>
      </trkpt>
      <trkpt lat="50.860301982611418" lon="10.380883980542421">
        <ele>649.02999999999997</ele>
        <time>2024-09-11T15:36:00Z</time>
      </trkpt>
      <trkpt lat="50.860210033133626" lon="10.380918011069298">
        <ele>649.99000000000001</ele>
        <time>2024-09-11T15:36:01Z</time>
      </trkpt>
      <trkpt lat="50.860183965414762" lon="10.380985988304019">
        <ele>650.47000000000003</ele>
        <time>2024-09-11T15:36:02Z</time>
      </trkpt>
      <trkpt lat="50.860153958201408" lon="10.381064023822546">
        <ele>651.42999999999995</ele>
        <time>2024-09-11T15:36:03Z</time>
      </trkpt>
      <trkpt lat="50.860119005665183" lon="10.381155973300338">
        <ele>651.90999999999997</ele>
        <time>2024-09-11T15:36:04Z</time>
      </trkpt>
      <trkpt lat="50.860080029815435" lon="10.381257981061935">
        <ele>653.35000000000002</ele>
        <time>2024-09-11T15:36:05Z</time>
      </trkpt>
      <trkpt lat="50.860023032873869" lon="10.381392007693648">
        <ele>654.30999999999995</ele>
        <time>2024-09-11T15:36:06Z</time>
      </trkpt>
      <trkpt lat="50.859957989305258" lon="10.381542965769768">
        <ele>655.27999999999997</ele>
        <time>2024-09-11T15:36:07Z</time>
      </trkpt>
      <trkpt lat="50.859807031229138" lon="10.381888970732689">
        <ele>656.24000000000001</ele>
        <time>2024-09-11T15:36:09Z</time>
      </trkpt>
      <trkpt lat="50.859635034576058" lon="10.382283004000783">
        <ele>657.67999999999995</ele>
        <time>2024-09-11T15:36:11Z</time>
      </trkpt>
      <trkpt lat="50.859155002981424" lon="10.383449010550976">
        <ele>661.51999999999998</ele>
        <time>2024-09-11T15:36:17Z</time>
      </trkpt>
      <trkpt lat="50.859104041010141" lon="10.383582031354308">
        <ele>661.51999999999998</ele>
        <time>2024-09-11T15:36:18Z</time>
      </trkpt>
      <trkpt lat="50.859104041010141" lon="10.383735001087189">
        <ele>661.51999999999998</ele>
        <time>2024-09-11T15:36:19Z</time>
      </trkpt>
      <trkpt lat="50.859104041010141" lon="10.383905991911888">
        <ele>661.51999999999998</ele>
        <time>2024-09-11T15:36:20Z</time>
      </trkpt>
      <trkpt lat="50.859104041010141" lon="10.384090980514884">
        <ele>661.03999999999996</ele>
        <time>2024-09-11T15:36:21Z</time>
      </trkpt>
      <trkpt lat="50.859160032123327" lon="10.384290972724557">
        <ele>661.03999999999996</ele>
        <time>2024-09-11T15:36:22Z</time>
      </trkpt>
      <trkpt lat="50.859221974387765" lon="10.384455006569624">
        <ele>660.55999999999995</ele>
        <time>2024-09-11T15:36:23Z</time>
      </trkpt>
      <trkpt lat="50.859280982986093" lon="10.384604958817363">
        <ele>660.08000000000004</ele>
        <time>2024-09-11T15:36:24Z</time>
      </trkpt>
      <trkpt lat="50.85933999158442" lon="10.384751977398992">
        <ele>660.08000000000004</ele>
        <time>2024-09-11T15:36:25Z</time>
      </trkpt>
      <trkpt lat="50.859320964664221" lon="10.384995974600315">
        <ele>660.08000000000004</ele>
        <time>2024-09-11T15:36:26Z</time>
      </trkpt>
      <trkpt lat="50.85927695967257" lon="10.385208036750555">
        <ele>660.08000000000004</ele>
        <time>2024-09-11T15:36:27Z</time>
      </trkpt>
      <trkpt lat="50.859227003529668" lon="10.385444993153214">
        <ele>660.08000000000004</ele>
        <time>2024-09-11T15:36:28Z</time>
      </trkpt>
      <trkpt lat="50.859172018244863" lon="10.385691002011299">
        <ele>660.55999999999995</ele>
        <time>2024-09-11T15:36:29Z</time>
      </trkpt>
      <trkpt lat="50.858654016628861" lon="10.387724032625556">
        <ele>663.92999999999995</ele>
        <time>2024-09-11T15:36:36Z</time>
      </trkpt>
      <trkpt lat="50.858054962009192" lon="10.39009896107018">
        <ele>669.70000000000005</ele>
        <time>2024-09-11T15:36:43Z</time>
      </trkpt>
      <trkpt lat="50.857726978138089" lon="10.391349038109183">
        <ele>674.01999999999998</ele>
        <time>2024-09-11T15:36:47Z</time>
      </trkpt>
      <trkpt lat="50.857678027823567" lon="10.391618013381958">
        <ele>674.98000000000002</ele>
        <time>2024-09-11T15:36:48Z</time>
      </trkpt>
      <trkpt lat="50.857647014781833" lon="10.391906015574932">
        <ele>676.41999999999996</ele>
        <time>2024-09-11T15:36:49Z</time>
      </trkpt>
      <trkpt lat="50.857697976753116" lon="10.393971987068653">
        <ele>683.14999999999998</ele>
        <time>2024-09-11T15:36:55Z</time>
      </trkpt>
      <trkpt lat="50.857786992564797" lon="10.397494984790683">
        <ele>687.96000000000004</ele>
        <time>2024-09-11T15:37:04Z</time>
      </trkpt>
      <trkpt lat="50.85781498812139" lon="10.398543979972601">
        <ele>689.39999999999998</ele>
        <time>2024-09-11T15:37:07Z</time>
      </trkpt>
      <trkpt lat="50.857766037806869" lon="10.398822007700801">
        <ele>689.88</ele>
        <time>2024-09-11T15:37:08Z</time>
      </trkpt>
      <trkpt lat="50.857723038643599" lon="10.399029962718487">
        <ele>690.36000000000001</ele>
        <time>2024-09-11T15:37:09Z</time>
      </trkpt>
      <trkpt lat="50.857637962326407" lon="10.399183016270399">
        <ele>690.84000000000003</ele>
        <time>2024-09-11T15:37:10Z</time>
      </trkpt>
      <trkpt lat="50.857532015070319" lon="10.39931301958859">
        <ele>691.80999999999995</ele>
        <time>2024-09-11T15:37:11Z</time>
      </trkpt>
      <trkpt lat="50.857388013973832" lon="10.399455009028316">
        <ele>692.28999999999996</ele>
        <time>2024-09-11T15:37:12Z</time>
      </trkpt>
      <trkpt lat="50.857229009270668" lon="10.399516029283404">
        <ele>692.76999999999998</ele>
        <time>2024-09-11T15:37:13Z</time>
      </trkpt>
      <trkpt lat="50.857062041759491" lon="10.399579983204603">
        <ele>693.25</ele>
        <time>2024-09-11T15:37:14Z</time>
      </trkpt>
      <trkpt lat="50.856871018186212" lon="10.399622982367873">
        <ele>693.25</ele>
        <time>2024-09-11T15:37:15Z</time>
      </trkpt>
      <trkpt lat="50.855871979147196" lon="10.399767989292741">
        <ele>694.69000000000005</ele>
        <time>2024-09-11T15:37:20Z</time>
      </trkpt>
      <trkpt lat="50.855681961402297" lon="10.399863040074706">
        <ele>695.16999999999996</ele>
        <time>2024-09-11T15:37:21Z</time>
      </trkpt>
      <trkpt lat="50.855198996141553" lon="10.400233017280698">
        <ele>696.61000000000001</ele>
        <time>2024-09-11T15:37:24Z</time>
      </trkpt>
      <trkpt lat="50.855103023350239" lon="10.400395961478353">
        <ele>697.09000000000003</ele>
        <time>2024-09-11T15:37:25Z</time>
      </trkpt>
      <trkpt lat="50.854625003412366" lon="10.401172041893005">
        <ele>698.52999999999997</ele>
        <time>2024-09-11T15:37:29Z</time>
      </trkpt>
      <trkpt lat="50.854502040892839" lon="10.401295004412532">
        <ele>698.52999999999997</ele>
        <time>2024-09-11T15:37:30Z</time>
      </trkpt>
      <trkpt lat="50.854367008432746" lon="10.40137798525393">
        <ele>699.01999999999998</ele>
        <time>2024-09-11T15:37:31Z</time>
      </trkpt>
      <trkpt lat="50.854235999286175" lon="10.401392988860607">
        <ele>699.01999999999998</ele>
        <time>2024-09-11T15:37:32Z</time>
      </trkpt>
      <trkpt lat="50.854101972654462" lon="10.401408998295665">
        <ele>699.01999999999998</ele>
        <time>2024-09-11T15:37:33Z</time>
      </trkpt>
      <trkpt lat="50.853975992649794" lon="10.401474041864276">
        <ele>699.01999999999998</ele>
        <time>2024-09-11T15:37:34Z</time>
      </trkpt>
      <trkpt lat="50.853858981281519" lon="10.401605973020196">
        <ele>698.52999999999997</ele>
        <time>2024-09-11T15:37:35Z</time>
      </trkpt>
      <trkpt lat="50.853744987398386" lon="10.401790039613843">
        <ele>698.52999999999997</ele>
        <time>2024-09-11T15:37:36Z</time>
      </trkpt>
      <trkpt lat="50.85362303070724" lon="10.401989025995135">
        <ele>698.04999999999995</ele>
        <time>2024-09-11T15:37:37Z</time>
      </trkpt>
      <trkpt lat="50.853512976318598" lon="10.402221959084272">
        <ele>698.04999999999995</ele>
        <time>2024-09-11T15:37:38Z</time>
      </trkpt>
      <trkpt lat="50.853414991870522" lon="10.402481965720654">
        <ele>697.57000000000005</ele>
        <time>2024-09-11T15:37:39Z</time>
      </trkpt>
      <trkpt lat="50.85332203656435" lon="10.402754964306951">
        <ele>697.57000000000005</ele>
        <time>2024-09-11T15:37:40Z</time>
      </trkpt>
      <trkpt lat="50.853265961632133" lon="10.403073979541659">
        <ele>697.09000000000003</ele>
        <time>2024-09-11T15:37:41Z</time>
      </trkpt>
      <trkpt lat="50.853209970518947" lon="10.403398023918271">
        <ele>696.61000000000001</ele>
        <time>2024-09-11T15:37:42Z</time>
      </trkpt>
      <trkpt lat="50.853054989129305" lon="10.40427996776998">
        <ele>695.64999999999998</ele>
        <time>2024-09-11T15:37:45Z</time>
      </trkpt>
      <trkpt lat="50.852981982752681" lon="10.404537040740252">
        <ele>695.16999999999996</ele>
        <time>2024-09-11T15:37:46Z</time>
      </trkpt>
      <trkpt lat="50.852890033274889" lon="10.404757987707853">
        <ele>695.16999999999996</ele>
        <time>2024-09-11T15:37:47Z</time>
      </trkpt>
      <trkpt lat="50.852803029119968" lon="10.404946999624372">
        <ele>694.69000000000005</ele>
        <time>2024-09-11T15:37:48Z</time>
      </trkpt>
      <trkpt lat="50.852686017751694" lon="10.405074991285801">
        <ele>694.21000000000004</ele>
        <time>2024-09-11T15:37:49Z</time>
      </trkpt>
      <trkpt lat="50.852580992504954" lon="10.405189990997314">
        <ele>694.21000000000004</ele>
        <time>2024-09-11T15:37:50Z</time>
      </trkpt>
      <trkpt lat="50.852414024993777" lon="10.405254028737545">
        <ele>693.73000000000002</ele>
        <time>2024-09-11T15:37:51Z</time>
      </trkpt>
      <trkpt lat="50.852255020290613" lon="10.405297027900815">
        <ele>693.25</ele>
        <time>2024-09-11T15:37:52Z</time>
      </trkpt>
      <trkpt lat="50.852082017809153" lon="10.405284035950899">
        <ele>692.76999999999998</ele>
        <time>2024-09-11T15:37:53Z</time>
      </trkpt>
      <trkpt lat="50.851896023377776" lon="10.405232990160584">
        <ele>692.76999999999998</ele>
        <time>2024-09-11T15:37:54Z</time>
      </trkpt>
      <trkpt lat="50.851701982319355" lon="10.40517901070416">
        <ele>692.28999999999996</ele>
        <time>2024-09-11T15:37:55Z</time>
      </trkpt>
      <trkpt lat="50.851506013423204" lon="10.405124025419354">
        <ele>692.28999999999996</ele>
        <time>2024-09-11T15:37:56Z</time>
      </trkpt>
      <trkpt lat="50.850044041872025" lon="10.40502998046577">
        <ele>696.61000000000001</ele>
        <time>2024-09-11T15:38:03Z</time>
      </trkpt>
      <trkpt lat="50.849210964515805" lon="10.405054036527872">
        <ele>699.5</ele>
        <time>2024-09-11T15:38:07Z</time>
      </trkpt>
      <trkpt lat="50.847918977960944" lon="10.404761005192995">
        <ele>704.77999999999997</ele>
        <time>2024-09-11T15:38:14Z</time>
      </trkpt>
      <trkpt lat="50.847745975479484" lon="10.404811967164278">
        <ele>705.25999999999999</ele>
        <time>2024-09-11T15:38:15Z</time>
      </trkpt>
      <trkpt lat="50.847564004361629" lon="10.404880028218031">
        <ele>706.23000000000002</ele>
        <time>2024-09-11T15:38:16Z</time>
      </trkpt>
      <trkpt lat="50.846610981971025" lon="10.405377997085452">
        <ele>706.71000000000004</ele>
        <time>2024-09-11T15:38:21Z</time>
      </trkpt>
      <trkpt lat="50.845571039244533" lon="10.406435960903764">
        <ele>703.34000000000003</ele>
        <time>2024-09-11T15:38:27Z</time>
      </trkpt>
      <trkpt lat="50.845456961542368" lon="10.406563030555844">
        <ele>702.86000000000001</ele>
        <time>2024-09-11T15:38:28Z</time>
      </trkpt>
      <trkpt lat="50.845293011516333" lon="10.406593037769198">
        <ele>701.89999999999998</ele>
        <time>2024-09-11T15:38:29Z</time>
      </trkpt>
      <trkpt lat="50.845221010968089" lon="10.406606029719114">
        <ele>700.94000000000005</ele>
        <time>2024-09-11T15:38:30Z</time>
      </trkpt>
      <trkpt lat="50.845100982114673" lon="10.406494969502091">
        <ele>699.98000000000002</ele>
        <time>2024-09-11T15:38:31Z</time>
      </trkpt>
      <trkpt lat="50.845000986009836" lon="10.406401008367538">
        <ele>699.01999999999998</ele>
        <time>2024-09-11T15:38:32Z</time>
      </trkpt>
      <trkpt lat="50.844896966591477" lon="10.406303023919463">
        <ele>698.04999999999995</ele>
        <time>2024-09-11T15:38:33Z</time>
      </trkpt>
      <trkpt lat="50.844762017950416" lon="10.406260024756193">
        <ele>697.09000000000003</ele>
        <time>2024-09-11T15:38:34Z</time>
      </trkpt>
      <trkpt lat="50.844634026288986" lon="10.4062320291996">
        <ele>696.13</ele>
        <time>2024-09-11T15:38:35Z</time>
      </trkpt>
      <trkpt lat="50.844495976343751" lon="10.406260024756193">
        <ele>695.64999999999998</ele>
        <time>2024-09-11T15:38:36Z</time>
      </trkpt>
      <trkpt lat="50.844345018267632" lon="10.406335964798927">
        <ele>694.69000000000005</ele>
        <time>2024-09-11T15:38:37Z</time>
      </trkpt>
      <trkpt lat="50.844175033271313" lon="10.406421041116118">
        <ele>693.73000000000002</ele>
        <time>2024-09-11T15:38:38Z</time>
      </trkpt>
      <trkpt lat="50.842941971495748" lon="10.407008025795221">
        <ele>689.39999999999998</ele>
        <time>2024-09-11T15:38:44Z</time>
      </trkpt>
      <trkpt lat="50.842603007331491" lon="10.407121013849974">
        <ele>688.44000000000005</ele>
        <time>2024-09-11T15:38:46Z</time>
      </trkpt>
      <trkpt lat="50.84240997210145" lon="10.407096035778522">
        <ele>687.96000000000004</ele>
        <time>2024-09-11T15:38:47Z</time>
      </trkpt>
      <trkpt lat="50.842250967398286" lon="10.407064016908407">
        <ele>687</ele>
        <time>2024-09-11T15:38:48Z</time>
      </trkpt>
      <trkpt lat="50.842093974351883" lon="10.4069849755615">
        <ele>686.03999999999996</ele>
        <time>2024-09-11T15:38:49Z</time>
      </trkpt>
      <trkpt lat="50.841962965205312" lon="10.406867964193225">
        <ele>685.55999999999995</ele>
        <time>2024-09-11T15:38:50Z</time>
      </trkpt>
      <trkpt lat="50.841835979372263" lon="10.406719017773867">
        <ele>685.08000000000004</ele>
        <time>2024-09-11T15:38:51Z</time>
      </trkpt>
      <trkpt lat="50.841709999367595" lon="10.406518019735813">
        <ele>684.60000000000002</ele>
        <time>2024-09-11T15:38:52Z</time>
      </trkpt>
      <trkpt lat="50.841585025191307" lon="10.406319033354521">
        <ele>684.12</ele>
        <time>2024-09-11T15:38:53Z</time>
      </trkpt>
      <trkpt lat="50.841466002166271" lon="10.406130021438003">
        <ele>683.63</ele>
        <time>2024-09-11T15:38:54Z</time>
      </trkpt>
      <trkpt lat="50.841317977756262" lon="10.4059540014714">
        <ele>683.14999999999998</ele>
        <time>2024-09-11T15:38:55Z</time>
      </trkpt>
      <trkpt lat="50.841138018295169" lon="10.40584403090179">
        <ele>682.66999999999996</ele>
        <time>2024-09-11T15:38:56Z</time>
      </trkpt>
      <trkpt lat="50.840956969186664" lon="10.405778987333179">
        <ele>681.71000000000004</ele>
        <time>2024-09-11T15:38:57Z</time>
      </trkpt>
      <trkpt lat="50.84077600389719" lon="10.405714027583599">
        <ele>680.75</ele>
        <time>2024-09-11T15:38:58Z</time>
      </trkpt>
      <trkpt lat="50.840584980323911" lon="10.405693994835019">
        <ele>680.26999999999998</ele>
        <time>2024-09-11T15:38:59Z</time>
      </trkpt>
      <trkpt lat="50.840398985892534" lon="10.405730037018657">
        <ele>679.30999999999995</ele>
        <time>2024-09-11T15:39:00Z</time>
      </trkpt>
      <trkpt lat="50.840205028653145" lon="10.405790973454714">
        <ele>678.83000000000004</ele>
        <time>2024-09-11T15:39:01Z</time>
      </trkpt>
      <trkpt lat="50.840019034221768" lon="10.40588996373117">
        <ele>677.38999999999999</ele>
        <time>2024-09-11T15:39:02Z</time>
      </trkpt>
      <trkpt lat="50.839833039790392" lon="10.40601602755487">
        <ele>676.41999999999996</ele>
        <time>2024-09-11T15:39:03Z</time>
      </trkpt>
      <trkpt lat="50.839651990681887" lon="10.406139995902777">
        <ele>675.46000000000004</ele>
        <time>2024-09-11T15:39:04Z</time>
      </trkpt>
      <trkpt lat="50.839482005685568" lon="10.406293971464038">
        <ele>674.01999999999998</ele>
        <time>2024-09-11T15:39:05Z</time>
      </trkpt>
      <trkpt lat="50.839312020689249" lon="10.406483989208937">
        <ele>672.58000000000004</ele>
        <time>2024-09-11T15:39:06Z</time>
      </trkpt>
      <trkpt lat="50.839168019592762" lon="10.406723041087389">
        <ele>670.65999999999997</ele>
        <time>2024-09-11T15:39:07Z</time>
      </trkpt>
      <trkpt lat="50.839024018496275" lon="10.40696301497519">
        <ele>669.22000000000003</ele>
        <time>2024-09-11T15:39:08Z</time>
      </trkpt>
      <trkpt lat="50.838888986036181" lon="10.407188991084695">
        <ele>667.76999999999998</ele>
        <time>2024-09-11T15:39:09Z</time>
      </trkpt>
      <trkpt lat="50.838769963011146" lon="10.407385965809226">
        <ele>666.33000000000004</ele>
        <time>2024-09-11T15:39:10Z</time>
      </trkpt>
      <trkpt lat="50.838669966906309" lon="10.40756399743259">
        <ele>665.37</ele>
        <time>2024-09-11T15:39:11Z</time>
      </trkpt>
      <trkpt lat="50.838590003550053" lon="10.407721996307373">
        <ele>663.92999999999995</ele>
        <time>2024-09-11T15:39:12Z</time>
      </trkpt>
      <trkpt lat="50.83860601298511" lon="10.407997006550431">
        <ele>663.45000000000005</ele>
        <time>2024-09-11T15:39:13Z</time>
      </trkpt>
      <trkpt lat="50.83864901214838" lon="10.408175038173795">
        <ele>662.49000000000001</ele>
        <time>2024-09-11T15:39:14Z</time>
      </trkpt>
      <trkpt lat="50.838721012696624" lon="10.408349968492985">
        <ele>661.51999999999998</ele>
        <time>2024-09-11T15:39:15Z</time>
      </trkpt>
      <trkpt lat="50.838804999366403" lon="10.408551972359419">
        <ele>661.03999999999996</ele>
        <time>2024-09-11T15:39:16Z</time>
      </trkpt>
      <trkpt lat="50.83888596855104" lon="10.408749030902982">
        <ele>662.00999999999999</ele>
        <time>2024-09-11T15:39:17Z</time>
      </trkpt>
      <trkpt lat="50.838975990191102" lon="10.408966960385442">
        <ele>662.49000000000001</ele>
        <time>2024-09-11T15:39:18Z</time>
      </trkpt>
      <trkpt lat="50.839028963819146" lon="10.409215986728668">
        <ele>662.49000000000001</ele>
        <time>2024-09-11T15:39:19Z</time>
      </trkpt>
      <trkpt lat="50.839091995730996" lon="10.409510023891926">
        <ele>662.49000000000001</ele>
        <time>2024-09-11T15:39:20Z</time>
      </trkpt>
      <trkpt lat="50.839404975995421" lon="10.411165030673146">
        <ele>660.55999999999995</ele>
        <time>2024-09-11T15:39:25Z</time>
      </trkpt>
      <trkpt lat="50.839545037597418" lon="10.41315196081996">
        <ele>656.72000000000003</ele>
        <time>2024-09-11T15:39:31Z</time>
      </trkpt>
      <trkpt lat="50.839853994548321" lon="10.414620973169804">
        <ele>651.90999999999997</ele>
        <time>2024-09-11T15:39:36Z</time>
      </trkpt>
      <trkpt lat="50.839921971783042" lon="10.414846027269959">
        <ele>650.47000000000003</ele>
        <time>2024-09-11T15:39:37Z</time>
      </trkpt>
      <trkpt lat="50.840038983151317" lon="10.414989022538066">
        <ele>649.02999999999997</ele>
        <time>2024-09-11T15:39:38Z</time>
      </trkpt>
      <trkpt lat="50.840139985084534" lon="10.415070997551084">
        <ele>647.59000000000003</ele>
        <time>2024-09-11T15:39:39Z</time>
      </trkpt>
      <trkpt lat="50.840263031423092" lon="10.41517099365592">
        <ele>646.62</ele>
        <time>2024-09-11T15:39:40Z</time>
      </trkpt>
      <trkpt lat="50.8406269736588" lon="10.415466036647558">
        <ele>643.74000000000001</ele>
        <time>2024-09-11T15:39:42Z</time>
      </trkpt>
      <trkpt lat="50.840773992240429" lon="10.415650019422174">
        <ele>642.77999999999997</ele>
        <time>2024-09-11T15:39:43Z</time>
      </trkpt>
      <trkpt lat="50.840922016650438" lon="10.415835008025169">
        <ele>641.34000000000003</ele>
        <time>2024-09-11T15:39:44Z</time>
      </trkpt>
      <trkpt lat="50.841093007475138" lon="10.416115969419479">
        <ele>638.45000000000005</ele>
        <time>2024-09-11T15:39:46Z</time>
      </trkpt>
      <trkpt lat="50.841136006638408" lon="10.416255025193095">
        <ele>637.00999999999999</ele>
        <time>2024-09-11T15:39:47Z</time>
      </trkpt>
      <trkpt lat="50.841165008023381" lon="10.416347980499268">
        <ele>636.04999999999995</ele>
        <time>2024-09-11T15:39:48Z</time>
      </trkpt>
      <trkpt lat="50.841122008860111" lon="10.416584014892578">
        <ele>634.61000000000001</ele>
        <time>2024-09-11T15:39:49Z</time>
      </trkpt>
      <trkpt lat="50.841084960848093" lon="10.41663103736937">
        <ele>633.16999999999996</ele>
        <time>2024-09-11T15:39:50Z</time>
      </trkpt>
      <trkpt lat="50.840951018035412" lon="10.416799010708928">
        <ele>632.67999999999995</ele>
        <time>2024-09-11T15:39:51Z</time>
      </trkpt>
      <trkpt lat="50.840802993625402" lon="10.416872017085552">
        <ele>632.20000000000005</ele>
        <time>2024-09-11T15:39:52Z</time>
      </trkpt>
      <trkpt lat="50.839635981246829" lon="10.417455984279513">
        <ele>632.67999999999995</ele>
        <time>2024-09-11T15:39:58Z</time>
      </trkpt>
      <trkpt lat="50.838966015726328" lon="10.417848005890846">
        <ele>632.20000000000005</ele>
        <time>2024-09-11T15:40:02Z</time>
      </trkpt>
      <trkpt lat="50.838826037943363" lon="10.418020002543926">
        <ele>631.24000000000001</ele>
        <time>2024-09-11T15:40:03Z</time>
      </trkpt>
      <trkpt lat="50.838722018525004" lon="10.418225023895502">
        <ele>630.27999999999997</ele>
        <time>2024-09-11T15:40:04Z</time>
      </trkpt>
      <trkpt lat="50.838173003867269" lon="10.419352976605296">
        <ele>626.44000000000005</ele>
        <time>2024-09-11T15:40:09Z</time>
      </trkpt>
      <trkpt lat="50.838106032460928" lon="10.419528996571898">
        <ele>625.47000000000003</ele>
        <time>2024-09-11T15:40:10Z</time>
      </trkpt>
      <trkpt lat="50.83809002302587" lon="10.419757990166545">
        <ele>624.99000000000001</ele>
        <time>2024-09-11T15:40:11Z</time>
      </trkpt>
      <trkpt lat="50.838118018582463" lon="10.420039035379887">
        <ele>624.02999999999997</ele>
        <time>2024-09-11T15:40:12Z</time>
      </trkpt>
      <trkpt lat="50.838162023574114" lon="10.420209020376205">
        <ele>623.54999999999995</ele>
        <time>2024-09-11T15:40:13Z</time>
      </trkpt>
      <trkpt lat="50.838223965838552" lon="10.420451005920768">
        <ele>623.54999999999995</ele>
        <time>2024-09-11T15:40:14Z</time>
      </trkpt>
      <trkpt lat="50.838292026892304" lon="10.420719981193542">
        <ele>623.07000000000005</ele>
        <time>2024-09-11T15:40:15Z</time>
      </trkpt>
      <trkpt lat="50.838366961106658" lon="10.421012006700039">
        <ele>622.11000000000001</ele>
        <time>2024-09-11T15:40:16Z</time>
      </trkpt>
      <trkpt lat="50.838404009118676" lon="10.421329010277987">
        <ele>621.14999999999998</ele>
        <time>2024-09-11T15:40:17Z</time>
      </trkpt>
      <trkpt lat="50.838592015206814" lon="10.422612028196454">
        <ele>619.23000000000002</ele>
        <time>2024-09-11T15:40:21Z</time>
      </trkpt>
      <trkpt lat="50.838662004098296" lon="10.422850996255875">
        <ele>618.75</ele>
        <time>2024-09-11T15:40:22Z</time>
      </trkpt>
      <trkpt lat="50.838726041838527" lon="10.423042019829154">
        <ele>618.25999999999999</ele>
        <time>2024-09-11T15:40:23Z</time>
      </trkpt>
      <trkpt lat="50.838839029893279" lon="10.42322700843215">
        <ele>617.77999999999997</ele>
        <time>2024-09-11T15:40:24Z</time>
      </trkpt>
      <trkpt lat="50.838960986584425" lon="10.423348965123296">
        <ele>617.29999999999995</ele>
        <time>2024-09-11T15:40:25Z</time>
      </trkpt>
      <trkpt lat="50.839041033759713" lon="10.423429012298584">
        <ele>616.82000000000005</ele>
        <time>2024-09-11T15:40:26Z</time>
      </trkpt>
      <trkpt lat="50.839106999337673" lon="10.42361400090158">
        <ele>615.86000000000001</ele>
        <time>2024-09-11T15:40:27Z</time>
      </trkpt>
      <trkpt lat="50.839147986844182" lon="10.423736041411757">
        <ele>614.89999999999998</ele>
        <time>2024-09-11T15:40:28Z</time>
      </trkpt>
      <trkpt lat="50.839138012379408" lon="10.423910971730947">
        <ele>614.41999999999996</ele>
        <time>2024-09-11T15:40:29Z</time>
      </trkpt>
      <trkpt lat="50.839127032086253" lon="10.424115993082523">
        <ele>613.46000000000004</ele>
        <time>2024-09-11T15:40:30Z</time>
      </trkpt>
      <trkpt lat="50.839042039588094" lon="10.424283966422081">
        <ele>612.5</ele>
        <time>2024-09-11T15:40:31Z</time>
      </trkpt>
      <trkpt lat="50.838941037654877" lon="10.424487981945276">
        <ele>611.53999999999996</ele>
        <time>2024-09-11T15:40:32Z</time>
      </trkpt>
      <trkpt lat="50.838826037943363" lon="10.424717981368303">
        <ele>611.05999999999995</ele>
        <time>2024-09-11T15:40:33Z</time>
      </trkpt>
      <trkpt lat="50.838706009089947" lon="10.424957033246756">
        <ele>609.61000000000001</ele>
        <time>2024-09-11T15:40:34Z</time>
      </trkpt>
      <trkpt lat="50.838583968579769" lon="10.42520203627646">
        <ele>608.64999999999998</ele>
        <time>2024-09-11T15:40:35Z</time>
      </trkpt>
      <trkpt lat="50.8384770154953" lon="10.42546397075057">
        <ele>607.69000000000005</ele>
        <time>2024-09-11T15:40:36Z</time>
      </trkpt>
      <trkpt lat="50.838181972503662" lon="10.426318002864718">
        <ele>603.85000000000002</ele>
        <time>2024-09-11T15:40:39Z</time>
      </trkpt>
      <trkpt lat="50.838078036904335" lon="10.426602987572551">
        <ele>602.88</ele>
        <time>2024-09-11T15:40:40Z</time>
      </trkpt>
      <trkpt lat="50.837920038029552" lon="10.426798034459352">
        <ele>601.44000000000005</ele>
        <time>2024-09-11T15:40:41Z</time>
      </trkpt>
      <trkpt lat="50.837730020284653" lon="10.426982017233968">
        <ele>600.96000000000004</ele>
        <time>2024-09-11T15:40:42Z</time>
      </trkpt>
      <trkpt lat="50.837517958134413" lon="10.427186032757163">
        <ele>599.51999999999998</ele>
        <time>2024-09-11T15:40:43Z</time>
      </trkpt>
      <trkpt lat="50.83729600533843" lon="10.427450984716415">
        <ele>598.55999999999995</ele>
        <time>2024-09-11T15:40:44Z</time>
      </trkpt>
      <trkpt lat="50.836369972676039" lon="10.428527975454926">
        <ele>594.23000000000002</ele>
        <time>2024-09-11T15:40:49Z</time>
      </trkpt>
      <trkpt lat="50.836209962144494" lon="10.428596958518028">
        <ele>593.75</ele>
        <time>2024-09-11T15:40:50Z</time>
      </trkpt>
      <trkpt lat="50.836036037653685" lon="10.428634006530046">
        <ele>592.78999999999996</ele>
        <time>2024-09-11T15:40:51Z</time>
      </trkpt>
      <trkpt lat="50.835873009636998" lon="10.428602993488312">
        <ele>592.78999999999996</ele>
        <time>2024-09-11T15:40:52Z</time>
      </trkpt>
      <trkpt lat="50.83570696413517" lon="10.428531998768449">
        <ele>592.78999999999996</ele>
        <time>2024-09-11T15:40:53Z</time>
      </trkpt>
      <trkpt lat="50.835586013272405" lon="10.428428985178471">
        <ele>595.19000000000005</ele>
        <time>2024-09-11T15:40:54Z</time>
      </trkpt>
      <trkpt lat="50.835478976368904" lon="10.428193034604192">
        <ele>597.60000000000002</ele>
        <time>2024-09-11T15:40:55Z</time>
      </trkpt>
      <trkpt lat="50.835478976368904" lon="10.428193034604192">
        <ele>598.55999999999995</ele>
        <time>2024-09-11T15:40:56Z</time>
      </trkpt>
      <trkpt lat="50.834748996421695" lon="10.428021037951112">
        <ele>601.91999999999996</ele>
        <time>2024-09-11T15:40:59Z</time>
      </trkpt>
      <trkpt lat="50.834704991430044" lon="10.428084991872311">
        <ele>602.88</ele>
        <time>2024-09-11T15:41:00Z</time>
      </trkpt>
      <trkpt lat="50.834578005596995" lon="10.428268974646926">
        <ele>603.85000000000002</ele>
        <time>2024-09-11T15:41:01Z</time>
      </trkpt>
      <trkpt lat="50.834432998672128" lon="10.428477013483644">
        <ele>604.80999999999995</ele>
        <time>2024-09-11T15:41:02Z</time>
      </trkpt>
      <trkpt lat="50.834278017282486" lon="10.428701983764768">
        <ele>605.76999999999998</ele>
        <time>2024-09-11T15:41:03Z</time>
      </trkpt>
      <trkpt lat="50.833119973540306" lon="10.430164961144328">
        <ele>612.98000000000002</ele>
        <time>2024-09-11T15:41:10Z</time>
      </trkpt>
      <trkpt lat="50.832409020513296" lon="10.430796034634113">
        <ele>614.41999999999996</ele>
        <time>2024-09-11T15:41:14Z</time>
      </trkpt>
      <trkpt lat="50.832227971404791" lon="10.431001977995038">
        <ele>614.89999999999998</ele>
        <time>2024-09-11T15:41:15Z</time>
      </trkpt>
      <trkpt lat="50.832047006115317" lon="10.431257039308548">
        <ele>614.41999999999996</ele>
        <time>2024-09-11T15:41:16Z</time>
      </trkpt>
      <trkpt lat="50.830546980723739" lon="10.433851992711425">
        <ele>608.16999999999996</ele>
        <time>2024-09-11T15:41:25Z</time>
      </trkpt>
      <trkpt lat="50.829622037708759" lon="10.435471041128039">
        <ele>604.33000000000004</ele>
        <time>2024-09-11T15:41:31Z</time>
      </trkpt>
      <trkpt lat="50.829033963382244" lon="10.43691398575902">
        <ele>599.51999999999998</ele>
        <time>2024-09-11T15:41:37Z</time>
      </trkpt>
      <trkpt lat="50.828991970047355" lon="10.437098974362016">
        <ele>599.03999999999996</ele>
        <time>2024-09-11T15:41:38Z</time>
      </trkpt>
      <trkpt lat="50.828901026397943" lon="10.43893301859498">
        <ele>593.26999999999998</ele>
        <time>2024-09-11T15:41:48Z</time>
      </trkpt>
      <trkpt lat="50.829219035804272" lon="10.440774019807577">
        <ele>584.62</ele>
        <time>2024-09-11T15:41:58Z</time>
      </trkpt>
      <trkpt lat="50.829370999708772" lon="10.441668033599854">
        <ele>581.73000000000002</ele>
        <time>2024-09-11T15:42:03Z</time>
      </trkpt>
      <trkpt lat="50.829398995265365" lon="10.441841036081314">
        <ele>580.76999999999998</ele>
        <time>2024-09-11T15:42:04Z</time>
      </trkpt>
      <trkpt lat="50.829380974173546" lon="10.442001968622208">
        <ele>580.28999999999996</ele>
        <time>2024-09-11T15:42:05Z</time>
      </trkpt>
      <trkpt lat="50.829344009980559" lon="10.442174971103668">
        <ele>579.33000000000004</ele>
        <time>2024-09-11T15:42:06Z</time>
      </trkpt>
      <trkpt lat="50.829306039959192" lon="10.442353002727032">
        <ele>578.37</ele>
        <time>2024-09-11T15:42:07Z</time>
      </trkpt>
      <trkpt lat="50.829078974202275" lon="10.443418007344007">
        <ele>573.55999999999995</ele>
        <time>2024-09-11T15:42:13Z</time>
      </trkpt>
      <trkpt lat="50.829039998352528" lon="10.443558990955353">
        <ele>573.08000000000004</ele>
        <time>2024-09-11T15:42:14Z</time>
      </trkpt>
      <trkpt lat="50.828949976712465" lon="10.443820003420115">
        <ele>571.63999999999999</ele>
        <time>2024-09-11T15:42:16Z</time>
      </trkpt>
      <trkpt lat="50.828909995034337" lon="10.44393802061677">
        <ele>570.67999999999995</ele>
        <time>2024-09-11T15:42:17Z</time>
      </trkpt>
      <trkpt lat="50.828827014192939" lon="10.444179000332952">
        <ele>569.24000000000001</ele>
        <time>2024-09-11T15:42:19Z</time>
      </trkpt>
      <trkpt lat="50.828736992552876" lon="10.444310009479523">
        <ele>567.32000000000005</ele>
        <time>2024-09-11T15:42:21Z</time>
      </trkpt>
      <trkpt lat="50.828500958159566" lon="10.444570016115904">
        <ele>564.90999999999997</ele>
        <time>2024-09-11T15:42:25Z</time>
      </trkpt>
      <trkpt lat="50.828423006460071" lon="10.444612009450793">
        <ele>564.42999999999995</ele>
        <time>2024-09-11T15:42:26Z</time>
      </trkpt>
      <trkpt lat="50.828312030062079" lon="10.444672023877501">
        <ele>563.95000000000005</ele>
        <time>2024-09-11T15:42:27Z</time>
      </trkpt>
      <trkpt lat="50.828240029513836" lon="10.444683004170656">
        <ele>563.95000000000005</ele>
        <time>2024-09-11T15:42:28Z</time>
      </trkpt>
      <trkpt lat="50.828142967075109" lon="10.444698007777333">
        <ele>563.47000000000003</ele>
        <time>2024-09-11T15:42:29Z</time>
      </trkpt>
      <trkpt lat="50.827570986002684" lon="10.444802027195692">
        <ele>562.50999999999999</ele>
        <time>2024-09-11T15:42:36Z</time>
      </trkpt>
      <trkpt lat="50.827504014596343" lon="10.444847960025072">
        <ele>562.50999999999999</ele>
        <time>2024-09-11T15:42:37Z</time>
      </trkpt>
      <trkpt lat="50.827007973566651" lon="10.445189019665122">
        <ele>560.59000000000003</ele>
        <time>2024-09-11T15:42:44Z</time>
      </trkpt>
      <trkpt lat="50.82691702991724" lon="10.44525196775794">
        <ele>560.11000000000001</ele>
        <time>2024-09-11T15:42:45Z</time>
      </trkpt>
      <trkpt lat="50.826867995783687" lon="10.445247022435069">
        <ele>559.62</ele>
        <time>2024-09-11T15:42:46Z</time>
      </trkpt>
      <trkpt lat="50.826797001063824" lon="10.445239981636405">
        <ele>558.65999999999997</ele>
        <time>2024-09-11T15:42:47Z</time>
      </trkpt>
      <trkpt lat="50.826729023829103" lon="10.445234030485153">
        <ele>558.17999999999995</ele>
        <time>2024-09-11T15:42:48Z</time>
      </trkpt>
      <trkpt lat="50.826388970017433" lon="10.445202011615038">
        <ele>555.77999999999997</ele>
        <time>2024-09-11T15:42:53Z</time>
      </trkpt>
      <trkpt lat="50.826313029974699" lon="10.445194970816374">
        <ele>555.29999999999995</ele>
        <time>2024-09-11T15:42:54Z</time>
      </trkpt>
      <trkpt lat="50.82623097114265" lon="10.445187008008361">
        <ele>555.29999999999995</ele>
        <time>2024-09-11T15:42:55Z</time>
      </trkpt>
      <trkpt lat="50.825627977028489" lon="10.445040995255113">
        <ele>553.38</ele>
        <time>2024-09-11T15:43:04Z</time>
      </trkpt>
      <trkpt lat="50.825567962601781" lon="10.445025991648436">
        <ele>553.38</ele>
        <time>2024-09-11T15:43:05Z</time>
      </trkpt>
      <trkpt lat="50.825446005910635" lon="10.444995984435081">
        <ele>553.38</ele>
        <time>2024-09-11T15:43:07Z</time>
      </trkpt>
      <trkpt lat="50.825415998697281" lon="10.445016017183661">
        <ele>553.38</ele>
        <time>2024-09-11T15:43:08Z</time>
      </trkpt>
      <trkpt lat="50.825377022847533" lon="10.44505700469017">
        <ele>553.86000000000001</ele>
        <time>2024-09-11T15:43:09Z</time>
      </trkpt>
      <trkpt lat="50.825339974835515" lon="10.445095980539918">
        <ele>553.86000000000001</ele>
        <time>2024-09-11T15:43:10Z</time>
      </trkpt>
      <trkpt lat="50.825307033956051" lon="10.445130011066794">
        <ele>553.86000000000001</ele>
        <time>2024-09-11T15:43:11Z</time>
      </trkpt>
      <trkpt lat="50.825282977893949" lon="10.445154989138246">
        <ele>554.34000000000003</ele>
        <time>2024-09-11T15:43:12Z</time>
      </trkpt>
      <trkpt lat="50.825270991772413" lon="10.445168986916542">
        <ele>554.82000000000005</ele>
        <time>2024-09-11T15:43:13Z</time>
      </trkpt>
      <trkpt lat="50.825259005650878" lon="10.445180973038077">
        <ele>554.82000000000005</ele>
        <time>2024-09-11T15:43:14Z</time>
      </trkpt>
      <trkpt lat="50.825250037014484" lon="10.445191031321883">
        <ele>554.82000000000005</ele>
        <time>2024-09-11T15:43:15Z</time>
      </trkpt>
      <trkpt lat="50.825250037014484" lon="10.445191031321883">
        <ele>555.29999999999995</ele>
        <time>2024-09-11T15:43:16Z</time>
      </trkpt>
      <trkpt lat="50.825211983174086" lon="10.445230007171631">
        <ele>556.25999999999999</ele>
        <time>2024-09-11T15:43:19Z</time>
      </trkpt>
      <trkpt lat="50.82509103231132" lon="10.44535799883306">
        <ele>556.74000000000001</ele>
        <time>2024-09-11T15:43:25Z</time>
      </trkpt>
      <trkpt lat="50.825067982077599" lon="10.445381971076131">
        <ele>556.74000000000001</ele>
        <time>2024-09-11T15:43:26Z</time>
      </trkpt>
      <trkpt lat="50.825030012056231" lon="10.445438968017697">
        <ele>556.74000000000001</ele>
        <time>2024-09-11T15:43:27Z</time>
      </trkpt>
      <trkpt lat="50.825035041198134" lon="10.445495964959264">
        <ele>557.22000000000003</ele>
        <time>2024-09-11T15:43:28Z</time>
      </trkpt>
      <trkpt lat="50.825039986521006" lon="10.445561008527875">
        <ele>557.22000000000003</ele>
        <time>2024-09-11T15:43:29Z</time>
      </trkpt>
      <trkpt lat="50.825046021491289" lon="10.445644995197654">
        <ele>557.22000000000003</ele>
        <time>2024-09-11T15:43:30Z</time>
      </trkpt>
      <trkpt lat="50.825118022039533" lon="10.446325019001961">
        <ele>558.65999999999997</ele>
        <time>2024-09-11T15:43:36Z</time>
      </trkpt>
      <trkpt lat="50.825132019817829" lon="10.44645301066339">
        <ele>558.65999999999997</ele>
        <time>2024-09-11T15:43:37Z</time>
      </trkpt>
      <trkpt lat="50.825208965688944" lon="10.446723997592926">
        <ele>559.62</ele>
        <time>2024-09-11T15:43:39Z</time>
      </trkpt>
      <trkpt lat="50.825251964852214" lon="10.446856012567878">
        <ele>559.62</ele>
        <time>2024-09-11T15:43:40Z</time>
      </trkpt>
      <trkpt lat="50.825509959831834" lon="10.447658998891711">
        <ele>561.54999999999995</ele>
        <time>2024-09-11T15:43:45Z</time>
      </trkpt>
      <trkpt lat="50.825568968430161" lon="10.447829989716411">
        <ele>562.50999999999999</ele>
        <time>2024-09-11T15:43:46Z</time>
      </trkpt>
      <trkpt lat="50.825738031417131" lon="10.448321001604199">
        <ele>564.42999999999995</ele>
        <time>2024-09-11T15:43:49Z</time>
      </trkpt>
      <trkpt lat="50.82582101225853" lon="10.448452010750771">
        <ele>564.90999999999997</ele>
        <time>2024-09-11T15:43:50Z</time>
      </trkpt>
      <trkpt lat="50.826243041083217" lon="10.4491170309484">
        <ele>568.75999999999999</ele>
        <time>2024-09-11T15:43:55Z</time>
      </trkpt>
      <trkpt lat="50.826319986954331" lon="10.449262037873268">
        <ele>569.72000000000003</ele>
        <time>2024-09-11T15:43:56Z</time>
      </trkpt>
      <trkpt lat="50.826384024694562" lon="10.449427999556065">
        <ele>570.67999999999995</ele>
        <time>2024-09-11T15:43:57Z</time>
      </trkpt>
      <trkpt lat="50.82642300054431" lon="10.449607959017158">
        <ele>572.12</ele>
        <time>2024-09-11T15:43:58Z</time>
      </trkpt>
      <trkpt lat="50.826461976394057" lon="10.44978397898376">
        <ele>573.08000000000004</ele>
        <time>2024-09-11T15:43:59Z</time>
      </trkpt>
      <trkpt lat="50.826500030234456" lon="10.449959998950362">
        <ele>574.03999999999996</ele>
        <time>2024-09-11T15:44:00Z</time>
      </trkpt>
      <trkpt lat="50.826660040766001" lon="10.451659010723233">
        <ele>582.70000000000005</ele>
        <time>2024-09-11T15:44:09Z</time>
      </trkpt>
      <trkpt lat="50.826736986637115" lon="10.452214982360601">
        <ele>584.62</ele>
        <time>2024-09-11T15:44:12Z</time>
      </trkpt>
      <trkpt lat="50.826797001063824" lon="10.45238102786243">
        <ele>585.10000000000002</ele>
        <time>2024-09-11T15:44:13Z</time>
      </trkpt>
      <trkpt lat="50.826858021318913" lon="10.452542966231704">
        <ele>586.05999999999995</ele>
        <time>2024-09-11T15:44:14Z</time>
      </trkpt>
      <trkpt lat="50.826922981068492" lon="10.452709011733532">
        <ele>586.53999999999996</ele>
        <time>2024-09-11T15:44:15Z</time>
      </trkpt>
      <trkpt lat="50.826995987445116" lon="10.452868016436696">
        <ele>586.53999999999996</ele>
        <time>2024-09-11T15:44:16Z</time>
      </trkpt>
      <trkpt lat="50.827077962458134" lon="10.453012017533183">
        <ele>587.01999999999998</ele>
        <time>2024-09-11T15:44:17Z</time>
      </trkpt>
      <trkpt lat="50.82805797457695" lon="10.454419003799558">
        <ele>588.95000000000005</ele>
        <time>2024-09-11T15:44:28Z</time>
      </trkpt>
      <trkpt lat="50.828228965401649" lon="10.454684961587191">
        <ele>588.95000000000005</ele>
        <time>2024-09-11T15:44:30Z</time>
      </trkpt>
      <trkpt lat="50.828276993706822" lon="10.454856958240271">
        <ele>588.95000000000005</ele>
        <time>2024-09-11T15:44:31Z</time>
      </trkpt>
      <trkpt lat="50.828314963728189" lon="10.455038007348776">
        <ele>588.46000000000004</ele>
        <time>2024-09-11T15:44:32Z</time>
      </trkpt>
      <trkpt lat="50.828355029225349" lon="10.455229030922055">
        <ele>588.46000000000004</ele>
        <time>2024-09-11T15:44:33Z</time>
      </trkpt>
      <trkpt lat="50.828342037275434" lon="10.455395998433232">
        <ele>588.46000000000004</ele>
        <time>2024-09-11T15:44:34Z</time>
      </trkpt>
      <trkpt lat="50.828323010355234" lon="10.455578975379467">
        <ele>588.46000000000004</ele>
        <time>2024-09-11T15:44:35Z</time>
      </trkpt>
      <trkpt lat="50.828294008970261" lon="10.455762958154082">
        <ele>587.98000000000002</ele>
        <time>2024-09-11T15:44:36Z</time>
      </trkpt>
      <trkpt lat="50.828267019242048" lon="10.455940989777446">
        <ele>587.98000000000002</ele>
        <time>2024-09-11T15:44:37Z</time>
      </trkpt>
      <trkpt lat="50.828210022300482" lon="10.456308033317327">
        <ele>588.95000000000005</ele>
        <time>2024-09-11T15:44:39Z</time>
      </trkpt>
      <trkpt lat="50.828232988715172" lon="10.456524034962058">
        <ele>588.95000000000005</ele>
        <time>2024-09-11T15:44:40Z</time>
      </trkpt>
      <trkpt lat="50.82827003672719" lon="10.456752022728324">
        <ele>589.42999999999995</ele>
        <time>2024-09-11T15:44:41Z</time>
      </trkpt>
      <trkpt lat="50.828423006460071" lon="10.457503041252494">
        <ele>590.87</ele>
        <time>2024-09-11T15:44:44Z</time>
      </trkpt>
      <trkpt lat="50.828477991744876" lon="10.457763969898224">
        <ele>591.83000000000004</ele>
        <time>2024-09-11T15:44:45Z</time>
      </trkpt>
      <trkpt lat="50.828564995899796" lon="10.45801299624145">
        <ele>592.30999999999995</ele>
        <time>2024-09-11T15:44:46Z</time>
      </trkpt>
      <trkpt lat="50.828676978126168" lon="10.458244001492858">
        <ele>592.78999999999996</ele>
        <time>2024-09-11T15:44:47Z</time>
      </trkpt>
      <trkpt lat="50.828793989494443" lon="10.458483975380659">
        <ele>593.75</ele>
        <time>2024-09-11T15:44:48Z</time>
      </trkpt>
      <trkpt lat="50.828918963670731" lon="10.458725960925221">
        <ele>594.71000000000004</ele>
        <time>2024-09-11T15:44:49Z</time>
      </trkpt>
      <trkpt lat="50.830122018232942" lon="10.460510971024632">
        <ele>603.36000000000001</ele>
        <time>2024-09-11T15:44:57Z</time>
      </trkpt>
      <trkpt lat="50.830750996246934" lon="10.461543034762144">
        <ele>608.64999999999998</ele>
        <time>2024-09-11T15:45:02Z</time>
      </trkpt>
      <trkpt lat="50.831348961219192" lon="10.462159020826221">
        <ele>612.5</ele>
        <time>2024-09-11T15:45:06Z</time>
      </trkpt>
      <trkpt lat="50.83149597980082" lon="10.462214006111026">
        <ele>613.46000000000004</ele>
        <time>2024-09-11T15:45:07Z</time>
      </trkpt>
      <trkpt lat="50.831637969240546" lon="10.462267985567451">
        <ele>613.94000000000005</ele>
        <time>2024-09-11T15:45:08Z</time>
      </trkpt>
      <trkpt lat="50.831818012520671" lon="10.462243007495999">
        <ele>614.41999999999996</ele>
        <time>2024-09-11T15:45:09Z</time>
      </trkpt>
      <trkpt lat="50.831992020830512" lon="10.462219035252929">
        <ele>614.89999999999998</ele>
        <time>2024-09-11T15:45:10Z</time>
      </trkpt>
      <trkpt lat="50.832548998296261" lon="10.462187016382813">
        <ele>615.38</ele>
        <time>2024-09-11T15:45:13Z</time>
      </trkpt>
      <trkpt lat="50.832743039354682" lon="10.462191961705685">
        <ele>615.38</ele>
        <time>2024-09-11T15:45:14Z</time>
      </trkpt>
      <trkpt lat="50.832931967452168" lon="10.462243007495999">
        <ele>615.38</ele>
        <time>2024-09-11T15:45:15Z</time>
      </trkpt>
      <trkpt lat="50.833101030439138" lon="10.462360018864274">
        <ele>615.86000000000001</ele>
        <time>2024-09-11T15:45:16Z</time>
      </trkpt>
      <trkpt lat="50.833276966586709" lon="10.46247904188931">
        <ele>615.86000000000001</ele>
        <time>2024-09-11T15:45:17Z</time>
      </trkpt>
      <trkpt lat="50.833445023745298" lon="10.462637040764093">
        <ele>616.34000000000003</ele>
        <time>2024-09-11T15:45:18Z</time>
      </trkpt>
      <trkpt lat="50.833937963470817" lon="10.463181026279926">
        <ele>617.29999999999995</ele>
        <time>2024-09-11T15:45:21Z</time>
      </trkpt>
      <trkpt lat="50.834082970395684" lon="10.463400967419147">
        <ele>617.29999999999995</ele>
        <time>2024-09-11T15:45:22Z</time>
      </trkpt>
      <trkpt lat="50.834211967885494" lon="10.463657034561038">
        <ele>617.29999999999995</ele>
        <time>2024-09-11T15:45:23Z</time>
      </trkpt>
      <trkpt lat="50.835269009694457" lon="10.465754019096494">
        <ele>618.25999999999999</ele>
        <time>2024-09-11T15:45:31Z</time>
      </trkpt>
      <trkpt lat="50.835786005482078" lon="10.467141978442669">
        <ele>619.71000000000004</ele>
        <time>2024-09-11T15:45:36Z</time>
      </trkpt>
      <trkpt lat="50.836712038144469" lon="10.468895975500345">
        <ele>624.02999999999997</ele>
        <time>2024-09-11T15:45:43Z</time>
      </trkpt>
      <trkpt lat="50.836830977350473" lon="10.469114994630218">
        <ele>624.50999999999999</ele>
        <time>2024-09-11T15:45:44Z</time>
      </trkpt>
      <trkpt lat="50.837120991200209" lon="10.470081008970737">
        <ele>626.91999999999996</ele>
        <time>2024-09-11T15:45:48Z</time>
      </trkpt>
      <trkpt lat="50.837215958163142" lon="10.470287036150694">
        <ele>627.39999999999998</ele>
        <time>2024-09-11T15:45:49Z</time>
      </trkpt>
      <trkpt lat="50.837330035865307" lon="10.470468001440167">
        <ele>627.88</ele>
        <time>2024-09-11T15:45:50Z</time>
      </trkpt>
      <trkpt lat="50.837857006117702" lon="10.471264030784369">
        <ele>629.79999999999995</ele>
        <time>2024-09-11T15:45:55Z</time>
      </trkpt>
      <trkpt lat="50.837994972243905" lon="10.471366038545966">
        <ele>629.79999999999995</ele>
        <time>2024-09-11T15:45:56Z</time>
      </trkpt>
      <trkpt lat="50.838144002482295" lon="10.471452036872506">
        <ele>630.27999999999997</ele>
        <time>2024-09-11T15:45:57Z</time>
      </trkpt>
      <trkpt lat="50.839114040136337" lon="10.472168019041419">
        <ele>633.64999999999998</ele>
        <time>2024-09-11T15:46:03Z</time>
      </trkpt>
      <trkpt lat="50.83925100043416" lon="10.47236398793757">
        <ele>634.61000000000001</ele>
        <time>2024-09-11T15:46:04Z</time>
      </trkpt>
      <trkpt lat="50.839391984045506" lon="10.472572026774287">
        <ele>635.09000000000003</ele>
        <time>2024-09-11T15:46:05Z</time>
      </trkpt>
      <trkpt lat="50.839974023401737" lon="10.473432010039687">
        <ele>638.92999999999995</ele>
        <time>2024-09-11T15:46:09Z</time>
      </trkpt>
      <trkpt lat="50.840313993394375" lon="10.474431971088052">
        <ele>644.70000000000005</ele>
        <time>2024-09-11T15:46:13Z</time>
      </trkpt>
      <trkpt lat="50.840437961742282" lon="10.475035971030593">
        <ele>648.54999999999995</ele>
        <time>2024-09-11T15:46:15Z</time>
      </trkpt>
      <trkpt lat="50.840510968118906" lon="10.475376024842262">
        <ele>650.47000000000003</ele>
        <time>2024-09-11T15:46:16Z</time>
      </trkpt>
      <trkpt lat="50.840859990566969" lon="10.477575017139316">
        <ele>664.40999999999997</ele>
        <time>2024-09-11T15:46:23Z</time>
      </trkpt>
      <trkpt lat="50.841103987768292" lon="10.479925973340869">
        <ele>676.90999999999997</ele>
        <time>2024-09-11T15:46:30Z</time>
      </trkpt>
      <trkpt lat="50.841151010245085" lon="10.480115991085768">
        <ele>678.35000000000002</ele>
        <time>2024-09-11T15:46:31Z</time>
      </trkpt>
      <trkpt lat="50.841199038550258" lon="10.480252029374242">
        <ele>680.26999999999998</ele>
        <time>2024-09-11T15:46:32Z</time>
      </trkpt>
      <trkpt lat="50.841237008571625" lon="10.480359988287091">
        <ele>682.19000000000005</ele>
        <time>2024-09-11T15:46:33Z</time>
      </trkpt>
      <trkpt lat="50.841282019391656" lon="10.480410028249025">
        <ele>684.12</ele>
        <time>2024-09-11T15:46:34Z</time>
      </trkpt>
      <trkpt lat="50.841342033818364" lon="10.480429977178574">
        <ele>685.55999999999995</ele>
        <time>2024-09-11T15:46:35Z</time>
      </trkpt>
      <trkpt lat="50.841404981911182" lon="10.480436012148857">
        <ele>687.48000000000002</ele>
        <time>2024-09-11T15:46:36Z</time>
      </trkpt>
      <trkpt lat="50.841493997722864" lon="10.480373986065388">
        <ele>689.39999999999998</ele>
        <time>2024-09-11T15:46:37Z</time>
      </trkpt>
      <trkpt lat="50.841587036848068" lon="10.480225039646029">
        <ele>690.84000000000003</ele>
        <time>2024-09-11T15:46:38Z</time>
      </trkpt>
      <trkpt lat="50.841680997982621" lon="10.480073997750878">
        <ele>692.28999999999996</ele>
        <time>2024-09-11T15:46:39Z</time>
      </trkpt>
      <trkpt lat="50.841786023229361" lon="10.479939971119165">
        <ele>694.21000000000004</ele>
        <time>2024-09-11T15:46:40Z</time>
      </trkpt>
      <trkpt lat="50.841894987970591" lon="10.479863025248051">
        <ele>695.64999999999998</ele>
        <time>2024-09-11T15:46:41Z</time>
      </trkpt>
      <trkpt lat="50.842096991837025" lon="10.47979798167944">
        <ele>697.09000000000003</ele>
        <time>2024-09-11T15:46:42Z</time>
      </trkpt>
      <trkpt lat="50.842269994318485" lon="10.479742996394634">
        <ele>699.01999999999998</ele>
        <time>2024-09-11T15:46:43Z</time>
      </trkpt>
      <trkpt lat="50.842431010678411" lon="10.479691028594971">
        <ele>700.46000000000004</ele>
        <time>2024-09-11T15:46:44Z</time>
      </trkpt>
      <trkpt lat="50.84260200150311" lon="10.479724975302815">
        <ele>701.89999999999998</ele>
        <time>2024-09-11T15:46:45Z</time>
      </trkpt>
      <trkpt lat="50.842757988721132" lon="10.479759005829692">
        <ele>703.34000000000003</ele>
        <time>2024-09-11T15:46:46Z</time>
      </trkpt>
      <trkpt lat="50.842909030616283" lon="10.479859001934528">
        <ele>704.77999999999997</ele>
        <time>2024-09-11T15:46:47Z</time>
      </trkpt>
      <trkpt lat="50.84391200914979" lon="10.480656959116459">
        <ele>716.32000000000005</ele>
        <time>2024-09-11T15:46:55Z</time>
      </trkpt>
      <trkpt lat="50.844231024384499" lon="10.481004975736141">
        <ele>720.15999999999997</ele>
        <time>2024-09-11T15:46:58Z</time>
      </trkpt>
      <trkpt lat="50.844336971640587" lon="10.481119975447655">
        <ele>721.13</ele>
        <time>2024-09-11T15:46:59Z</time>
      </trkpt>
      <trkpt lat="50.844435039907694" lon="10.481197005137801">
        <ele>722.09000000000003</ele>
        <time>2024-09-11T15:47:00Z</time>
      </trkpt>
      <trkpt lat="50.844551967456937" lon="10.481256013736129">
        <ele>723.04999999999995</ele>
        <time>2024-09-11T15:47:01Z</time>
      </trkpt>
      <trkpt lat="50.844691023230553" lon="10.481293983757496">
        <ele>724.00999999999999</ele>
        <time>2024-09-11T15:47:02Z</time>
      </trkpt>
      <trkpt lat="50.844823960214853" lon="10.481275962665677">
        <ele>724.49000000000001</ele>
        <time>2024-09-11T15:47:03Z</time>
      </trkpt>
      <trkpt lat="50.84606297314167" lon="10.480835996568203">
        <ele>728.82000000000005</ele>
        <time>2024-09-11T15:47:12Z</time>
      </trkpt>
      <trkpt lat="50.84730701521039" lon="10.479859001934528">
        <ele>736.02999999999997</ele>
        <time>2024-09-11T15:47:20Z</time>
      </trkpt>
      <trkpt lat="50.84885498508811" lon="10.478033004328609">
        <ele>749.97000000000003</ele>
        <time>2024-09-11T15:47:29Z</time>
      </trkpt>
      <trkpt lat="50.850124005228281" lon="10.476132994517684">
        <ele>757.17999999999995</ele>
        <time>2024-09-11T15:47:37Z</time>
      </trkpt>
      <trkpt lat="50.851084990426898" lon="10.474815024062991">
        <ele>755.25</ele>
        <time>2024-09-11T15:47:43Z</time>
      </trkpt>
      <trkpt lat="50.851679015904665" lon="10.474327029660344">
        <ele>752.37</ele>
        <time>2024-09-11T15:47:47Z</time>
      </trkpt>
      <trkpt lat="50.85183902643621" lon="10.474369022995234">
        <ele>751.40999999999997</ele>
        <time>2024-09-11T15:47:48Z</time>
      </trkpt>
      <trkpt lat="50.85199099034071" lon="10.474410010501742">
        <ele>750.92999999999995</ele>
        <time>2024-09-11T15:47:49Z</time>
      </trkpt>
      <trkpt lat="50.852114036679268" lon="10.474484022706747">
        <ele>750.92999999999995</ele>
        <time>2024-09-11T15:47:50Z</time>
      </trkpt>
      <trkpt lat="50.852236999198794" lon="10.474562980234623">
        <ele>749.97000000000003</ele>
        <time>2024-09-11T15:47:51Z</time>
      </trkpt>
      <trkpt lat="50.852457024157047" lon="10.474769007414579">
        <ele>749</ele>
        <time>2024-09-11T15:47:52Z</time>
      </trkpt>
      <trkpt lat="50.852675959467888" lon="10.474974028766155">
        <ele>747.55999999999995</ele>
        <time>2024-09-11T15:47:53Z</time>
      </trkpt>
      <trkpt lat="50.852908976376057" lon="10.475191958248615">
        <ele>746.12</ele>
        <time>2024-09-11T15:47:54Z</time>
      </trkpt>
      <trkpt lat="50.854848967865109" lon="10.47692097723484">
        <ele>735.54999999999995</ele>
        <time>2024-09-11T15:48:02Z</time>
      </trkpt>
      <trkpt lat="50.857092970982194" lon="10.478095030412078">
        <ele>724.00999999999999</ele>
        <time>2024-09-11T15:48:11Z</time>
      </trkpt>
      <trkpt lat="50.858805980533361" lon="10.478397030383348">
        <ele>717.75999999999999</ele>
        <time>2024-09-11T15:48:18Z</time>
      </trkpt>
      <trkpt lat="50.859920019283891" lon="10.479035982862115">
        <ele>710.54999999999995</ele>
        <time>2024-09-11T15:48:24Z</time>
      </trkpt>
      <trkpt lat="50.860054967924953" lon="10.479233041405678">
        <ele>709.11000000000001</ele>
        <time>2024-09-11T15:48:25Z</time>
      </trkpt>
      <trkpt lat="50.86013400927186" lon="10.479348041117191">
        <ele>707.66999999999996</ele>
        <time>2024-09-11T15:48:26Z</time>
      </trkpt>
      <trkpt lat="50.860254038125277" lon="10.479678958654404">
        <ele>706.23000000000002</ele>
        <time>2024-09-11T15:48:27Z</time>
      </trkpt>
      <trkpt lat="50.860332995653152" lon="10.479931002482772">
        <ele>704.29999999999995</ele>
        <time>2024-09-11T15:48:28Z</time>
      </trkpt>
      <trkpt lat="50.860409019514918" lon="10.480234008282423">
        <ele>702.86000000000001</ele>
        <time>2024-09-11T15:48:29Z</time>
      </trkpt>
      <trkpt lat="50.860472973436117" lon="10.480533996596932">
        <ele>700.94000000000005</ele>
        <time>2024-09-11T15:48:30Z</time>
      </trkpt>
      <trkpt lat="50.860526030883193" lon="10.480888970196247">
        <ele>699.01999999999998</ele>
        <time>2024-09-11T15:48:31Z</time>
      </trkpt>
      <trkpt lat="50.86058403365314" lon="10.481269005686045">
        <ele>697.57000000000005</ele>
        <time>2024-09-11T15:48:32Z</time>
      </trkpt>
      <trkpt lat="50.860827025026083" lon="10.482774982228875">
        <ele>693.73000000000002</ele>
        <time>2024-09-11T15:48:36Z</time>
      </trkpt>
      <trkpt lat="50.860939007252455" lon="10.483095003291965">
        <ele>693.25</ele>
        <time>2024-09-11T15:48:37Z</time>
      </trkpt>
      <trkpt lat="50.861053001135588" lon="10.483418041840196">
        <ele>692.28999999999996</ele>
        <time>2024-09-11T15:48:38Z</time>
      </trkpt>
      <trkpt lat="50.861851964145899" lon="10.486026993021369">
        <ele>683.63</ele>
        <time>2024-09-11T15:48:46Z</time>
      </trkpt>
      <trkpt lat="50.861880965530872" lon="10.486335027962923">
        <ele>682.19000000000005</ele>
        <time>2024-09-11T15:48:47Z</time>
      </trkpt>
      <trkpt lat="50.861894963309169" lon="10.48665102571249">
        <ele>681.23000000000002</ele>
        <time>2024-09-11T15:48:48Z</time>
      </trkpt>
      <trkpt lat="50.862000994384289" lon="10.487630032002926">
        <ele>678.35000000000002</ele>
        <time>2024-09-11T15:48:51Z</time>
      </trkpt>
      <trkpt lat="50.862104007974267" lon="10.487960027530789">
        <ele>677.38999999999999</ele>
        <time>2024-09-11T15:48:52Z</time>
      </trkpt>
      <trkpt lat="50.862610023468733" lon="10.49008903093636">
        <ele>668.25</ele>
        <time>2024-09-11T15:48:59Z</time>
      </trkpt>
      <trkpt lat="50.862600971013308" lon="10.490269996225834">
        <ele>667.28999999999996</ele>
        <time>2024-09-11T15:49:00Z</time>
      </trkpt>
      <trkpt lat="50.862565012648702" lon="10.490581970661879">
        <ele>665.85000000000002</ele>
        <time>2024-09-11T15:49:01Z</time>
      </trkpt>
      <trkpt lat="50.862533999606967" lon="10.490853041410446">
        <ele>664.40999999999997</ele>
        <time>2024-09-11T15:49:02Z</time>
      </trkpt>
      <trkpt lat="50.86249896325171" lon="10.491150012239814">
        <ele>662.97000000000003</ele>
        <time>2024-09-11T15:49:03Z</time>
      </trkpt>
      <trkpt lat="50.862214984372258" lon="10.493758963420987">
        <ele>648.07000000000005</ele>
        <time>2024-09-11T15:49:11Z</time>
      </trkpt>
      <trkpt lat="50.862214984372258" lon="10.494027016684413">
        <ele>646.62</ele>
        <time>2024-09-11T15:49:12Z</time>
      </trkpt>
      <trkpt lat="50.862214984372258" lon="10.494111003354192">
        <ele>644.70000000000005</ele>
        <time>2024-09-11T15:49:13Z</time>
      </trkpt>
      <trkpt lat="50.862302994355559" lon="10.494357012212276">
        <ele>643.25999999999999</ele>
        <time>2024-09-11T15:49:14Z</time>
      </trkpt>
      <trkpt lat="50.862322021275759" lon="10.494410991668701">
        <ele>642.29999999999995</ele>
        <time>2024-09-11T15:49:15Z</time>
      </trkpt>
      <trkpt lat="50.862376000732183" lon="10.494437981396914">
        <ele>641.34000000000003</ele>
        <time>2024-09-11T15:49:16Z</time>
      </trkpt>
      <trkpt lat="50.862451018765569" lon="10.494475029408932">
        <ele>640.38</ele>
        <time>2024-09-11T15:49:17Z</time>
      </trkpt>
      <trkpt lat="50.862489994615316" lon="10.494459019973874">
        <ele>640.38</ele>
        <time>2024-09-11T15:49:18Z</time>
      </trkpt>
      <trkpt lat="50.862600971013308" lon="10.494410991668701">
        <ele>639.88999999999999</ele>
        <time>2024-09-11T15:49:19Z</time>
      </trkpt>
      <trkpt lat="50.862667020410299" lon="10.494245029985905">
        <ele>638.92999999999995</ele>
        <time>2024-09-11T15:49:20Z</time>
      </trkpt>
      <trkpt lat="50.862740026786923" lon="10.494058029726148">
        <ele>637.97000000000003</ele>
        <time>2024-09-11T15:49:21Z</time>
      </trkpt>
      <trkpt lat="50.862837005406618" lon="10.493810009211302">
        <ele>637.00999999999999</ele>
        <time>2024-09-11T15:49:22Z</time>
      </trkpt>
      <trkpt lat="50.862929038703442" lon="10.493744965642691">
        <ele>636.04999999999995</ele>
        <time>2024-09-11T15:49:23Z</time>
      </trkpt>
      <trkpt lat="50.86307899095118" lon="10.493697021156549">
        <ele>635.09000000000003</ele>
        <time>2024-09-11T15:49:24Z</time>
      </trkpt>
      <trkpt lat="50.863288035616279" lon="10.493682017549872">
        <ele>634.13</ele>
        <time>2024-09-11T15:49:25Z</time>
      </trkpt>
      <trkpt lat="50.86342298425734" lon="10.493740020319819">
        <ele>633.16999999999996</ele>
        <time>2024-09-11T15:49:26Z</time>
      </trkpt>
      <trkpt lat="50.863595986738801" lon="10.493815038353205">
        <ele>631.72000000000003</ele>
        <time>2024-09-11T15:49:27Z</time>
      </trkpt>
      <trkpt lat="50.863777035847306" lon="10.4938929900527">
        <ele>630.75999999999999</ele>
        <time>2024-09-11T15:49:28Z</time>
      </trkpt>
      <trkpt lat="50.863949032500386" lon="10.493960967287421">
        <ele>629.32000000000005</ele>
        <time>2024-09-11T15:49:29Z</time>
      </trkpt>
      <trkpt lat="50.864138966426253" lon="10.493971025571227">
        <ele>627.88</ele>
        <time>2024-09-11T15:49:30Z</time>
      </trkpt>
      <trkpt lat="50.864316998049617" lon="10.493979994207621">
        <ele>626.44000000000005</ele>
        <time>2024-09-11T15:49:31Z</time>
      </trkpt>
      <trkpt lat="50.864464016631246" lon="10.493958033621311">
        <ele>624.99000000000001</ele>
        <time>2024-09-11T15:49:32Z</time>
      </trkpt>
      <trkpt lat="50.864640036597848" lon="10.493917968124151">
        <ele>623.54999999999995</ele>
        <time>2024-09-11T15:49:33Z</time>
      </trkpt>
      <trkpt lat="50.864680018275976" lon="10.493866000324488">
        <ele>622.59000000000003</ele>
        <time>2024-09-11T15:49:34Z</time>
      </trkpt>
      <trkpt lat="50.864789988845587" lon="10.493724010884762">
        <ele>621.14999999999998</ele>
        <time>2024-09-11T15:49:35Z</time>
      </trkpt>
      <trkpt lat="50.864801974967122" lon="10.493531981483102">
        <ele>620.19000000000005</ele>
        <time>2024-09-11T15:49:36Z</time>
      </trkpt>
      <trkpt lat="50.864781020209193" lon="10.493357973173261">
        <ele>619.23000000000002</ele>
        <time>2024-09-11T15:49:37Z</time>
      </trkpt>
      <trkpt lat="50.864717988297343" lon="10.493125962093472">
        <ele>617.77999999999997</ele>
        <time>2024-09-11T15:49:38Z</time>
      </trkpt>
      <trkpt lat="50.864643976092339" lon="10.492939967662096">
        <ele>616.82000000000005</ele>
        <time>2024-09-11T15:49:39Z</time>
      </trkpt>
      <trkpt lat="50.864612041041255" lon="10.492739975452423">
        <ele>615.38</ele>
        <time>2024-09-11T15:49:40Z</time>
      </trkpt>
      <trkpt lat="50.864573987200856" lon="10.492486003786325">
        <ele>613.94000000000005</ele>
        <time>2024-09-11T15:49:41Z</time>
      </trkpt>
      <trkpt lat="50.864554038271308" lon="10.492231026291847">
        <ele>612.5</ele>
        <time>2024-09-11T15:49:42Z</time>
      </trkpt>
      <trkpt lat="50.864554038271308" lon="10.491941012442112">
        <ele>611.05999999999995</ele>
        <time>2024-09-11T15:49:43Z</time>
      </trkpt>
      <trkpt lat="50.86471002548933" lon="10.489528030157089">
        <ele>597.12</ele>
        <time>2024-09-11T15:49:51Z</time>
      </trkpt>
      <trkpt lat="50.864758975803852" lon="10.488959988579154">
        <ele>594.23000000000002</ele>
        <time>2024-09-11T15:49:53Z</time>
      </trkpt>
      <trkpt lat="50.864761993288994" lon="10.488677015528083">
        <ele>592.30999999999995</ele>
        <time>2024-09-11T15:49:54Z</time>
      </trkpt>
      <trkpt lat="50.864722011610866" lon="10.488393036648631">
        <ele>590.87</ele>
        <time>2024-09-11T15:49:55Z</time>
      </trkpt>
      <trkpt lat="50.864511039108038" lon="10.486863004043698">
        <ele>582.70000000000005</ele>
        <time>2024-09-11T15:50:00Z</time>
      </trkpt>
      <trkpt lat="50.864511039108038" lon="10.486562009900808">
        <ele>580.76999999999998</ele>
        <time>2024-09-11T15:50:01Z</time>
      </trkpt>
      <trkpt lat="50.864519001916051" lon="10.486270990222692">
        <ele>578.85000000000002</ele>
        <time>2024-09-11T15:50:02Z</time>
      </trkpt>
      <trkpt lat="50.864567030221224" lon="10.485967984423041">
        <ele>576.92999999999995</ele>
        <time>2024-09-11T15:50:03Z</time>
      </trkpt>
      <trkpt lat="50.864617992192507" lon="10.485652992501855">
        <ele>575.49000000000001</ele>
        <time>2024-09-11T15:50:04Z</time>
      </trkpt>
      <trkpt lat="50.864914963021874" lon="10.483791958540678">
        <ele>564.42999999999995</ele>
        <time>2024-09-11T15:50:11Z</time>
      </trkpt>
      <trkpt lat="50.864945976063609" lon="10.483661033213139">
        <ele>562.50999999999999</ele>
        <time>2024-09-11T15:50:12Z</time>
      </trkpt>
      <trkpt lat="50.864991992712021" lon="10.483572017401457">
        <ele>561.07000000000005</ele>
        <time>2024-09-11T15:50:13Z</time>
      </trkpt>
      <trkpt lat="50.865047983825207" lon="10.483527006581426">
        <ele>559.62</ele>
        <time>2024-09-11T15:50:14Z</time>
      </trkpt>
      <trkpt lat="50.865144040435553" lon="10.483547961339355">
        <ele>558.17999999999995</ele>
        <time>2024-09-11T15:50:15Z</time>
      </trkpt>
      <trkpt lat="50.865198019891977" lon="10.483575034886599">
        <ele>556.25999999999999</ele>
        <time>2024-09-11T15:50:16Z</time>
      </trkpt>
      <trkpt lat="50.865198019891977" lon="10.483575034886599">
        <ele>554.34000000000003</ele>
        <time>2024-09-11T15:50:17Z</time>
      </trkpt>
      <trkpt lat="50.865254011005163" lon="10.483915004879236">
        <ele>552.40999999999997</ele>
        <time>2024-09-11T15:50:18Z</time>
      </trkpt>
      <trkpt lat="50.865304972976446" lon="10.484195966273546">
        <ele>549.52999999999997</ele>
        <time>2024-09-11T15:50:19Z</time>
      </trkpt>
      <trkpt lat="50.865361969918013" lon="10.484510036185384">
        <ele>546.64999999999998</ele>
        <time>2024-09-11T15:50:20Z</time>
      </trkpt>
      <trkpt lat="50.865416033193469" lon="10.484808012843132">
        <ele>543.75999999999999</ele>
        <time>2024-09-11T15:50:21Z</time>
      </trkpt>
      <trkpt lat="50.865501025691628" lon="10.485118981450796">
        <ele>541.36000000000001</ele>
        <time>2024-09-11T15:50:22Z</time>
      </trkpt>
      <trkpt lat="50.86559297516942" lon="10.485416036099195">
        <ele>538.96000000000004</ele>
        <time>2024-09-11T15:50:23Z</time>
      </trkpt>
      <trkpt lat="50.865723984315991" lon="10.48572801053524">
        <ele>536.07000000000005</ele>
        <time>2024-09-11T15:50:24Z</time>
      </trkpt>
      <trkpt lat="50.86589396931231" lon="10.485968990251422">
        <ele>533.66999999999996</ele>
        <time>2024-09-11T15:50:25Z</time>
      </trkpt>
      <trkpt lat="50.866066971793771" lon="10.486196978017688">
        <ele>531.26999999999998</ele>
        <time>2024-09-11T15:50:26Z</time>
      </trkpt>
      <trkpt lat="50.866246009245515" lon="10.486434018239379">
        <ele>528.86000000000001</ele>
        <time>2024-09-11T15:50:27Z</time>
      </trkpt>
      <trkpt lat="50.867106998339295" lon="10.487904036417603">
        <ele>515.88</ele>
        <time>2024-09-11T15:50:33Z</time>
      </trkpt>
      <trkpt lat="50.868082987144589" lon="10.489459969103336">
        <ele>500.5</ele>
        <time>2024-09-11T15:50:40Z</time>
      </trkpt>
      <trkpt lat="50.869569014757872" lon="10.490784980356693">
        <ele>484.63999999999999</ele>
        <time>2024-09-11T15:50:49Z</time>
      </trkpt>
      <trkpt lat="50.8700389880687" lon="10.491053033620119">
        <ele>481.75999999999999</ele>
        <time>2024-09-11T15:50:52Z</time>
      </trkpt>
      <trkpt lat="50.870349034667015" lon="10.491167027503252">
        <ele>479.83999999999997</ele>
        <time>2024-09-11T15:50:54Z</time>
      </trkpt>
      <trkpt lat="50.87117800489068" lon="10.491427034139633">
        <ele>474.55000000000001</ele>
        <time>2024-09-11T15:50:59Z</time>
      </trkpt>
      <trkpt lat="50.872720023617148" lon="10.492334039881825">
        <ele>465.42000000000002</ele>
        <time>2024-09-11T15:51:07Z</time>
      </trkpt>
      <trkpt lat="50.874262964352965" lon="10.493627032265067">
        <ele>455.80000000000001</ele>
        <time>2024-09-11T15:51:15Z</time>
      </trkpt>
      <trkpt lat="50.874405959621072" lon="10.493789976462722">
        <ele>454.36000000000001</ele>
        <time>2024-09-11T15:51:16Z</time>
      </trkpt>
      <trkpt lat="50.874511990696192" lon="10.493967002257705">
        <ele>452.92000000000002</ele>
        <time>2024-09-11T15:51:17Z</time>
      </trkpt>
      <trkpt lat="50.874682981520891" lon="10.494312001392245">
        <ele>450.51999999999998</ele>
        <time>2024-09-11T15:51:19Z</time>
      </trkpt>
      <trkpt lat="50.874750036746264" lon="10.494488021358848">
        <ele>449.55000000000001</ele>
        <time>2024-09-11T15:51:20Z</time>
      </trkpt>
      <trkpt lat="50.874814996495843" lon="10.494655994698405">
        <ele>448.11000000000001</ele>
        <time>2024-09-11T15:51:21Z</time>
      </trkpt>
      <trkpt lat="50.874888002872467" lon="10.494801001623273">
        <ele>447.14999999999998</ele>
        <time>2024-09-11T15:51:22Z</time>
      </trkpt>
      <trkpt lat="50.874956985935569" lon="10.494939973577857">
        <ele>446.19</ele>
        <time>2024-09-11T15:51:23Z</time>
      </trkpt>
      <trkpt lat="50.875021023675799" lon="10.495066959410906">
        <ele>445.23000000000002</ele>
        <time>2024-09-11T15:51:24Z</time>
      </trkpt>
      <trkpt lat="50.87511096149683" lon="10.495248008519411">
        <ele>444.75</ele>
        <time>2024-09-11T15:51:25Z</time>
      </trkpt>
      <trkpt lat="50.875165024772286" lon="10.495291007682681">
        <ele>443.79000000000002</ele>
        <time>2024-09-11T15:51:26Z</time>
      </trkpt>
      <trkpt lat="50.875260997563601" lon="10.495366025716066">
        <ele>442.81999999999999</ele>
        <time>2024-09-11T15:51:27Z</time>
      </trkpt>
      <trkpt lat="50.875367028638721" lon="10.495449006557465">
        <ele>441.86000000000001</ele>
        <time>2024-09-11T15:51:28Z</time>
      </trkpt>
      <trkpt lat="50.875828033313155" lon="10.495771039277315">
        <ele>439.94</ele>
        <time>2024-09-11T15:51:32Z</time>
      </trkpt>
      <trkpt lat="50.87594797834754" lon="10.49584899097681">
        <ele>438.98000000000002</ele>
        <time>2024-09-11T15:51:33Z</time>
      </trkpt>
      <trkpt lat="50.876036994159222" lon="10.495971031486988">
        <ele>438.5</ele>
        <time>2024-09-11T15:51:34Z</time>
      </trkpt>
      <trkpt lat="50.87611997500062" lon="10.496085025370121">
        <ele>437.54000000000002</ele>
        <time>2024-09-11T15:51:35Z</time>
      </trkpt>
      <trkpt lat="50.876172026619315" lon="10.496280994266272">
        <ele>437.06</ele>
        <time>2024-09-11T15:51:36Z</time>
      </trkpt>
      <trkpt lat="50.876220976933837" lon="10.496462965384126">
        <ele>436.57999999999998</ele>
        <time>2024-09-11T15:51:37Z</time>
      </trkpt>
      <trkpt lat="50.876649962738156" lon="10.497851008549333">
        <ele>430.32999999999998</ele>
        <time>2024-09-11T15:51:45Z</time>
      </trkpt>
      <trkpt lat="50.877368962392211" lon="10.499078035354614">
        <ele>425.04000000000002</ele>
        <time>2024-09-11T15:51:54Z</time>
      </trkpt>
      <trkpt lat="50.877441968768835" lon="10.499190017580986">
        <ele>424.56</ele>
        <time>2024-09-11T15:51:55Z</time>
      </trkpt>
      <trkpt lat="50.878059966489673" lon="10.500200958922505">
        <ele>420.23000000000002</ele>
        <time>2024-09-11T15:52:04Z</time>
      </trkpt>
      <trkpt lat="50.878434972837567" lon="10.500919036567211">
        <ele>416.38999999999999</ele>
        <time>2024-09-11T15:52:10Z</time>
      </trkpt>
      <trkpt lat="50.878494987264276" lon="10.501034036278725">
        <ele>415.91000000000003</ele>
        <time>2024-09-11T15:52:11Z</time>
      </trkpt>
      <trkpt lat="50.878558019176126" lon="10.50115498714149">
        <ele>415.43000000000001</ele>
        <time>2024-09-11T15:52:12Z</time>
      </trkpt>
      <trkpt lat="50.878773014992476" lon="10.501501997932792">
        <ele>416.87</ele>
        <time>2024-09-11T15:52:15Z</time>
      </trkpt>
      <trkpt lat="50.879037966951728" lon="10.501878010109067">
        <ele>418.31</ele>
        <time>2024-09-11T15:52:18Z</time>
      </trkpt>
      <trkpt lat="50.879382966086268" lon="10.502716032788157">
        <ele>420.23000000000002</ele>
        <time>2024-09-11T15:52:25Z</time>
      </trkpt>
      <trkpt lat="50.879531996324658" lon="10.503126997500658">
        <ele>420.23000000000002</ele>
        <time>2024-09-11T15:52:28Z</time>
      </trkpt>
      <trkpt lat="50.880075981840491" lon="10.504842018708587">
        <ele>420.23000000000002</ele>
        <time>2024-09-11T15:52:40Z</time>
      </trkpt>
      <trkpt lat="50.88063002564013" lon="10.506412032991648">
        <ele>415.91000000000003</ele>
        <time>2024-09-11T15:52:51Z</time>
      </trkpt>
      <trkpt lat="50.881356988102198" lon="10.507972994819283">
        <ele>411.57999999999998</ele>
        <time>2024-09-11T15:53:03Z</time>
      </trkpt>
      <trkpt lat="50.882094008848071" lon="10.510130999609828">
        <ele>403.41000000000003</ele>
        <time>2024-09-11T15:53:18Z</time>
      </trkpt>
      <trkpt lat="50.882343035191298" lon="10.511216958984733">
        <ele>401.49000000000001</ele>
        <time>2024-09-11T15:53:25Z</time>
      </trkpt>
      <trkpt lat="50.882369019091129" lon="10.511375963687897">
        <ele>401.49000000000001</ele>
        <time>2024-09-11T15:53:26Z</time>
      </trkpt>
      <trkpt lat="50.882601030170918" lon="10.512827960774302">
        <ele>397.63999999999999</ele>
        <time>2024-09-11T15:53:35Z</time>
      </trkpt>
      <trkpt lat="50.882762968540192" lon="10.514476010575891">
        <ele>391.38999999999999</ele>
        <time>2024-09-11T15:53:43Z</time>
      </trkpt>
      <trkpt lat="50.882686022669077" lon="10.515286037698388">
        <ele>389.94999999999999</ele>
        <time>2024-09-11T15:53:46Z</time>
      </trkpt>
      <trkpt lat="50.882617961615324" lon="10.515553001314402">
        <ele>389.47000000000003</ele>
        <time>2024-09-11T15:53:47Z</time>
      </trkpt>
      <trkpt lat="50.882546966895461" lon="10.515825999900699">
        <ele>389.47000000000003</ele>
        <time>2024-09-11T15:53:48Z</time>
      </trkpt>
      <trkpt lat="50.88245702907443" lon="10.516094975173473">
        <ele>389.47000000000003</ele>
        <time>2024-09-11T15:53:49Z</time>
      </trkpt>
      <trkpt lat="50.882355021312833" lon="10.516347019001842">
        <ele>389.47000000000003</ele>
        <time>2024-09-11T15:53:50Z</time>
      </trkpt>
      <trkpt lat="50.881680026650429" lon="10.518014011904597">
        <ele>391.38999999999999</ele>
        <time>2024-09-11T15:53:58Z</time>
      </trkpt>
      <trkpt lat="50.881547005847096" lon="10.5183419957757">
        <ele>391.38999999999999</ele>
        <time>2024-09-11T15:54:01Z</time>
      </trkpt>
      <trkpt lat="50.881442986428738" lon="10.518411984667182">
        <ele>391.38999999999999</ele>
        <time>2024-09-11T15:54:02Z</time>
      </trkpt>
      <trkpt lat="50.881380038335919" lon="10.518380971625447">
        <ele>391.38999999999999</ele>
        <time>2024-09-11T15:54:03Z</time>
      </trkpt>
      <trkpt lat="50.881256991997361" lon="10.51832003518939">
        <ele>391.38999999999999</ele>
        <time>2024-09-11T15:54:05Z</time>
      </trkpt>
      <trkpt lat="50.881212987005711" lon="10.518296984955668">
        <ele>391.38999999999999</ele>
        <time>2024-09-11T15:54:06Z</time>
      </trkpt>
      <trkpt lat="50.881176022812724" lon="10.51827896386385">
        <ele>391.38999999999999</ele>
        <time>2024-09-11T15:54:07Z</time>
      </trkpt>
      <trkpt lat="50.881070997565985" lon="10.518597979098558">
        <ele>391.87</ele>
        <time>2024-09-11T15:54:11Z</time>
      </trkpt>
      <trkpt lat="50.881050964817405" lon="10.518693029880524">
        <ele>391.87</ele>
        <time>2024-09-11T15:54:22Z</time>
      </trkpt>
      <trkpt lat="50.880903024226427" lon="10.51855699159205">
        <ele>391.87</ele>
        <time>2024-09-11T15:57:08Z</time>
      </trkpt>
      <trkpt lat="50.880958009511232" lon="10.518733011558652">
        <ele>378.42000000000002</ele>
        <time>2024-09-11T15:57:33Z</time>
      </trkpt>
      <trkpt lat="50.880987010896206" lon="10.518804006278515">
        <ele>384.18000000000001</ele>
        <time>2024-09-11T15:58:22Z</time>
      </trkpt>
      <trkpt lat="50.88106001727283" lon="10.518967034295201">
        <ele>388.99000000000001</ele>
        <time>2024-09-11T15:58:25Z</time>
      </trkpt>
      <trkpt lat="50.881291022524238" lon="10.519344974309206">
        <ele>392.36000000000001</ele>
        <time>2024-09-11T15:58:36Z</time>
      </trkpt>
      <trkpt lat="50.881286999210715" lon="10.519423009827733">
        <ele>392.36000000000001</ele>
        <time>2024-09-11T15:58:38Z</time>
      </trkpt>
      <trkpt lat="50.881280964240432" lon="10.519526023417711">
        <ele>392.36000000000001</ele>
        <time>2024-09-11T15:58:39Z</time>
      </trkpt>
      <trkpt lat="50.881266966462135" lon="10.520377960056067">
        <ele>393.31999999999999</ele>
        <time>2024-09-11T15:58:47Z</time>
      </trkpt>
      <trkpt lat="50.881266966462135" lon="10.520377960056067">
        <ele>393.31999999999999</ele>
        <time>2024-09-11T15:59:00Z</time>
      </trkpt>
      <trkpt lat="50.881279036402702" lon="10.520520033314824">
        <ele>393.31999999999999</ele>
        <time>2024-09-11T15:59:05Z</time>
      </trkpt>
      <trkpt lat="50.881224973127246" lon="10.520703010261059">
        <ele>393.31999999999999</ele>
        <time>2024-09-11T15:59:06Z</time>
      </trkpt>
      <trkpt lat="50.881158001720905" lon="10.520753972232342">
        <ele>393.31999999999999</ele>
        <time>2024-09-11T15:59:07Z</time>
      </trkpt>
      <trkpt lat="50.881069991737604" lon="10.520820021629333">
        <ele>393.31999999999999</ele>
        <time>2024-09-11T15:59:08Z</time>
      </trkpt>
      <trkpt lat="50.880963960662484" lon="10.520898979157209">
        <ele>393.31999999999999</ele>
        <time>2024-09-11T15:59:09Z</time>
      </trkpt>
      <trkpt lat="50.880848038941622" lon="10.520987994968891">
        <ele>393.31999999999999</ele>
        <time>2024-09-11T15:59:10Z</time>
      </trkpt>
      <trkpt lat="50.879873977974057" lon="10.521899024024606">
        <ele>395.24000000000001</ele>
        <time>2024-09-11T15:59:17Z</time>
      </trkpt>
      <trkpt lat="50.87844000197947" lon="10.523595018312335">
        <ele>398.60000000000002</ele>
        <time>2024-09-11T15:59:26Z</time>
      </trkpt>
      <trkpt lat="50.877701975405216" lon="10.524392975494266">
        <ele>400.05000000000001</ele>
        <time>2024-09-11T15:59:30Z</time>
      </trkpt>
      <trkpt lat="50.87605501525104" lon="10.525611033663154">
        <ele>401.97000000000003</ele>
        <time>2024-09-11T15:59:37Z</time>
      </trkpt>
      <trkpt lat="50.87321799248457" lon="10.527267968282104">
        <ele>410.62</ele>
        <time>2024-09-11T15:59:48Z</time>
      </trkpt>
      <trkpt lat="50.871975040063262" lon="10.528753995895386">
        <ele>419.26999999999998</ele>
        <time>2024-09-11T15:59:54Z</time>
      </trkpt>
      <trkpt lat="50.871430970728397" lon="10.529669970273972">
        <ele>424.07999999999998</ele>
        <time>2024-09-11T15:59:57Z</time>
      </trkpt>
      <trkpt lat="50.870180977508426" lon="10.532367015257478">
        <ele>437.06</ele>
        <time>2024-09-11T16:00:05Z</time>
      </trkpt>
      <trkpt lat="50.869740005582571" lon="10.534155964851379">
        <ele>440.89999999999998</ele>
        <time>2024-09-11T16:00:10Z</time>
      </trkpt>
      <trkpt lat="50.869385031983256" lon="10.537331029772758">
        <ele>439.45999999999998</ele>
        <time>2024-09-11T16:00:17Z</time>
      </trkpt>
      <trkpt lat="50.869207000359893" lon="10.538244992494583">
        <ele>438.98000000000002</ele>
        <time>2024-09-11T16:00:19Z</time>
      </trkpt>
      <trkpt lat="50.868311980739236" lon="10.540585974231362">
        <ele>437.06</ele>
        <time>2024-09-11T16:00:25Z</time>
      </trkpt>
      <trkpt lat="50.866769962012768" lon="10.542688993737102">
        <ele>432.73000000000002</ele>
        <time>2024-09-11T16:00:32Z</time>
      </trkpt>
      <trkpt lat="50.866375006735325" lon="10.543238008394837">
        <ele>432.25</ele>
        <time>2024-09-11T16:00:34Z</time>
      </trkpt>
      <trkpt lat="50.866193035617471" lon="10.543549982830882">
        <ele>432.25</ele>
        <time>2024-09-11T16:00:35Z</time>
      </trkpt>
      <trkpt lat="50.866024978458881" lon="10.543864974752069">
        <ele>432.25</ele>
        <time>2024-09-11T16:00:36Z</time>
      </trkpt>
      <trkpt lat="50.865885000675917" lon="10.544220032170415">
        <ele>432.25</ele>
        <time>2024-09-11T16:00:37Z</time>
      </trkpt>
      <trkpt lat="50.86576103232801" lon="10.544578023254871">
        <ele>432.25</ele>
        <time>2024-09-11T16:00:38Z</time>
      </trkpt>
      <trkpt lat="50.865644020959735" lon="10.544955041259527">
        <ele>432.25</ele>
        <time>2024-09-11T16:00:39Z</time>
      </trkpt>
      <trkpt lat="50.865531032904983" lon="10.545328035950661">
        <ele>432.73000000000002</ele>
        <time>2024-09-11T16:00:40Z</time>
      </trkpt>
      <trkpt lat="50.865432964637876" lon="10.545719973742962">
        <ele>432.25</ele>
        <time>2024-09-11T16:00:41Z</time>
      </trkpt>
      <trkpt lat="50.865346966311336" lon="10.546128004789352">
        <ele>432.25</ele>
        <time>2024-09-11T16:00:42Z</time>
      </trkpt>
      <trkpt lat="50.864872969686985" lon="10.548063972964883">
        <ele>431.76999999999998</ele>
        <time>2024-09-11T16:00:47Z</time>
      </trkpt>
      <trkpt lat="50.864318003877997" lon="10.549536002799869">
        <ele>431.76999999999998</ele>
        <time>2024-09-11T16:00:52Z</time>
      </trkpt>
      <trkpt lat="50.864156987518072" lon="10.549715962260962">
        <ele>432.25</ele>
        <time>2024-09-11T16:00:53Z</time>
      </trkpt>
      <trkpt lat="50.863587018102407" lon="10.550191970542073">
        <ele>433.20999999999998</ele>
        <time>2024-09-11T16:00:56Z</time>
      </trkpt>
      <trkpt lat="50.863424995914102" lon="10.55042096413672">
        <ele>433.69</ele>
        <time>2024-09-11T16:00:57Z</time>
      </trkpt>
      <trkpt lat="50.863285018131137" lon="10.550672002136707">
        <ele>434.17000000000002</ele>
        <time>2024-09-11T16:00:58Z</time>
      </trkpt>
      <trkpt lat="50.863156020641327" lon="10.550955981016159">
        <ele>434.64999999999998</ele>
        <time>2024-09-11T16:00:59Z</time>
      </trkpt>
      <trkpt lat="50.863036997616291" lon="10.551262004300952">
        <ele>435.13</ele>
        <time>2024-09-11T16:01:00Z</time>
      </trkpt>
      <trkpt lat="50.862930966541171" lon="10.551575990393758">
        <ele>436.10000000000002</ele>
        <time>2024-09-11T16:01:01Z</time>
      </trkpt>
      <trkpt lat="50.862851003184915" lon="10.551867010071874">
        <ele>436.57999999999998</ele>
        <time>2024-09-11T16:01:02Z</time>
      </trkpt>
      <trkpt lat="50.862800041213632" lon="10.552134979516268">
        <ele>437.06</ele>
        <time>2024-09-11T16:01:03Z</time>
      </trkpt>
      <trkpt lat="50.862701972946525" lon="10.552638983353972">
        <ele>437.54000000000002</ele>
        <time>2024-09-11T16:01:05Z</time>
      </trkpt>
      <trkpt lat="50.86262796074152" lon="10.552882980555296">
        <ele>437.54000000000002</ele>
        <time>2024-09-11T16:01:06Z</time>
      </trkpt>
      <trkpt lat="50.862535005435348" lon="10.553132006898522">
        <ele>437.54000000000002</ele>
        <time>2024-09-11T16:01:07Z</time>
      </trkpt>
      <trkpt lat="50.862436015158892" lon="10.553382961079478">
        <ele>437.54000000000002</ele>
        <time>2024-09-11T16:01:08Z</time>
      </trkpt>
      <trkpt lat="50.86232403293252" lon="10.553624024614692">
        <ele>437.54000000000002</ele>
        <time>2024-09-11T16:01:09Z</time>
      </trkpt>
      <trkpt lat="50.861731013283134" lon="10.55471601895988">
        <ele>436.57999999999998</ele>
        <time>2024-09-11T16:01:14Z</time>
      </trkpt>
      <trkpt lat="50.861572008579969" lon="10.55486798286438">
        <ele>436.57999999999998</ele>
        <time>2024-09-11T16:01:15Z</time>
      </trkpt>
      <trkpt lat="50.861413003876805" lon="10.555019024759531">
        <ele>436.57999999999998</ele>
        <time>2024-09-11T16:01:16Z</time>
      </trkpt>
      <trkpt lat="50.861259028315544" lon="10.555132012814283">
        <ele>436.57999999999998</ele>
        <time>2024-09-11T16:01:17Z</time>
      </trkpt>
      <trkpt lat="50.861076973378658" lon="10.555242989212275">
        <ele>436.57999999999998</ele>
        <time>2024-09-11T16:01:18Z</time>
      </trkpt>
      <trkpt lat="50.860891984775662" lon="10.555355977267027">
        <ele>436.57999999999998</ele>
        <time>2024-09-11T16:01:19Z</time>
      </trkpt>
      <trkpt lat="50.85978901013732" lon="10.555922007188201">
        <ele>436.57999999999998</ele>
        <time>2024-09-11T16:01:26Z</time>
      </trkpt>
      <trkpt lat="50.858769016340375" lon="10.556771010160446">
        <ele>442.33999999999997</ele>
        <time>2024-09-11T16:01:36Z</time>
      </trkpt>
      <trkpt lat="50.858053034171462" lon="10.557624958455563">
        <ele>447.63</ele>
        <time>2024-09-11T16:01:44Z</time>
      </trkpt>
      <trkpt lat="50.857982961460948" lon="10.557764014229178">
        <ele>448.58999999999997</ele>
        <time>2024-09-11T16:01:45Z</time>
      </trkpt>
      <trkpt lat="50.857901992276311" lon="10.557926036417484">
        <ele>449.55000000000001</ele>
        <time>2024-09-11T16:01:46Z</time>
      </trkpt>
      <trkpt lat="50.857868967577815" lon="10.558072971180081">
        <ele>450.51999999999998</ele>
        <time>2024-09-11T16:01:47Z</time>
      </trkpt>
      <trkpt lat="50.857838960364461" lon="10.558247985318303">
        <ele>451</ele>
        <time>2024-09-11T16:01:48Z</time>
      </trkpt>
      <trkpt lat="50.857815993949771" lon="10.558398021385074">
        <ele>451</ele>
        <time>2024-09-11T16:01:49Z</time>
      </trkpt>
      <trkpt lat="50.857833009213209" lon="10.558602036908269">
        <ele>451</ele>
        <time>2024-09-11T16:01:50Z</time>
      </trkpt>
      <trkpt lat="50.857848012819886" lon="10.558784008026123">
        <ele>451</ele>
        <time>2024-09-11T16:01:51Z</time>
      </trkpt>
      <trkpt lat="50.857881037518382" lon="10.559621024876833">
        <ele>450.51999999999998</ele>
        <time>2024-09-11T16:01:56Z</time>
      </trkpt>
      <trkpt lat="50.857868967577815" lon="10.559747004881501">
        <ele>450.02999999999997</ele>
        <time>2024-09-11T16:01:57Z</time>
      </trkpt>
      <trkpt lat="50.857858993113041" lon="10.559856975451112">
        <ele>449.55000000000001</ele>
        <time>2024-09-11T16:01:58Z</time>
      </trkpt>
      <trkpt lat="50.857816999778152" lon="10.559954959899187">
        <ele>449.06999999999999</ele>
        <time>2024-09-11T16:01:59Z</time>
      </trkpt>
      <trkpt lat="50.857804007828236" lon="10.560071971267462">
        <ele>448.11000000000001</ele>
        <time>2024-09-11T16:02:00Z</time>
      </trkpt>
      <trkpt lat="50.857816999778152" lon="10.560165010392666">
        <ele>447.63</ele>
        <time>2024-09-11T16:02:01Z</time>
      </trkpt>
      <trkpt lat="50.857838038355112" lon="10.560308005660772">
        <ele>446.67000000000002</ele>
        <time>2024-09-11T16:02:02Z</time>
      </trkpt>
      <trkpt lat="50.857832003384829" lon="10.560382017865777">
        <ele>445.70999999999998</ele>
        <time>2024-09-11T16:02:03Z</time>
      </trkpt>
      <trkpt lat="50.857819011434913" lon="10.561436964198947">
        <ele>439.45999999999998</ele>
        <time>2024-09-11T16:02:12Z</time>
      </trkpt>
      <trkpt lat="50.857867039740086" lon="10.562569024041295">
        <ele>430.81</ele>
        <time>2024-09-11T16:02:21Z</time>
      </trkpt>
      <trkpt lat="50.857872990891337" lon="10.562683017924428">
        <ele>429.85000000000002</ele>
        <time>2024-09-11T16:02:22Z</time>
      </trkpt>
      <trkpt lat="50.857880031690001" lon="10.562803968787193">
        <ele>428.88999999999999</ele>
        <time>2024-09-11T16:02:23Z</time>
      </trkpt>
      <trkpt lat="50.857898974791169" lon="10.563171012327075">
        <ele>426.48000000000002</ele>
        <time>2024-09-11T16:02:26Z</time>
      </trkpt>
      <trkpt lat="50.857930993661284" lon="10.56374098174274">
        <ele>423.60000000000002</ele>
        <time>2024-09-11T16:02:31Z</time>
      </trkpt>
      <trkpt lat="50.857939962297678" lon="10.563849024474621">
        <ele>423.12</ele>
        <time>2024-09-11T16:02:32Z</time>
      </trkpt>
      <trkpt lat="50.857949014753103" lon="10.563941979780793">
        <ele>423.12</ele>
        <time>2024-09-11T16:02:33Z</time>
      </trkpt>
      <trkpt lat="50.857955971732736" lon="10.564024038612843">
        <ele>422.63999999999999</ele>
        <time>2024-09-11T16:02:34Z</time>
      </trkpt>
      <trkpt lat="50.857881037518382" lon="10.564169967547059">
        <ele>422.63999999999999</ele>
        <time>2024-09-11T16:02:35Z</time>
      </trkpt>
      <trkpt lat="50.857869973406196" lon="10.564237022772431">
        <ele>422.63999999999999</ele>
        <time>2024-09-11T16:02:36Z</time>
      </trkpt>
      <trkpt lat="50.857901992276311" lon="10.564384963363409">
        <ele>422.63999999999999</ele>
        <time>2024-09-11T16:02:37Z</time>
      </trkpt>
      <trkpt lat="50.857915990054607" lon="10.564518989995122">
        <ele>422.16000000000003</ele>
        <time>2024-09-11T16:02:38Z</time>
      </trkpt>
      <trkpt lat="50.857944991439581" lon="10.564791988581419">
        <ele>422.16000000000003</ele>
        <time>2024-09-11T16:02:40Z</time>
      </trkpt>
      <trkpt lat="50.858011040836573" lon="10.564925009384751">
        <ele>422.16000000000003</ele>
        <time>2024-09-11T16:02:41Z</time>
      </trkpt>
      <trkpt lat="50.85807197727263" lon="10.565045960247517">
        <ele>422.16000000000003</ele>
        <time>2024-09-11T16:02:42Z</time>
      </trkpt>
      <trkpt lat="50.858131991699338" lon="10.565189039334655">
        <ele>422.16000000000003</ele>
        <time>2024-09-11T16:02:43Z</time>
      </trkpt>
      <trkpt lat="50.858174990862608" lon="10.565339997410774">
        <ele>421.68000000000001</ele>
        <time>2024-09-11T16:02:44Z</time>
      </trkpt>
      <trkpt lat="50.858220001682639" lon="10.565495984628797">
        <ele>421.19</ele>
        <time>2024-09-11T16:02:45Z</time>
      </trkpt>
      <trkpt lat="50.858263000845909" lon="10.565657000988722">
        <ele>421.19</ele>
        <time>2024-09-11T16:02:46Z</time>
      </trkpt>
      <trkpt lat="50.858669020235538" lon="10.567217040807009">
        <ele>420.23000000000002</ele>
        <time>2024-09-11T16:02:56Z</time>
      </trkpt>
      <trkpt lat="50.859395982697606" lon="10.568709019571543">
        <ele>419.75</ele>
        <time>2024-09-11T16:03:07Z</time>
      </trkpt>
      <trkpt lat="50.859453985467553" lon="10.568856038153172">
        <ele>419.75</ele>
        <time>2024-09-11T16:03:08Z</time>
      </trkpt>
      <trkpt lat="50.859492039307952" lon="10.569021999835968">
        <ele>419.26999999999998</ele>
        <time>2024-09-11T16:03:09Z</time>
      </trkpt>
      <trkpt lat="50.85955398157239" lon="10.569233978167176">
        <ele>419.75</ele>
        <time>2024-09-11T16:03:10Z</time>
      </trkpt>
      <trkpt lat="50.859576025977731" lon="10.569362975656986">
        <ele>419.75</ele>
        <time>2024-09-11T16:03:11Z</time>
      </trkpt>
      <trkpt lat="50.859604021534324" lon="10.569529021158814">
        <ele>419.75</ele>
        <time>2024-09-11T16:03:12Z</time>
      </trkpt>
      <trkpt lat="50.859800996258855" lon="10.570691004395485">
        <ele>421.68000000000001</ele>
        <time>2024-09-11T16:03:19Z</time>
      </trkpt>
      <trkpt lat="50.860021021217108" lon="10.572842974215746">
        <ele>418.31</ele>
        <time>2024-09-11T16:03:32Z</time>
      </trkpt>
      <trkpt lat="50.860107019543648" lon="10.573726007714868">
        <ele>416.87</ele>
        <time>2024-09-11T16:03:38Z</time>
      </trkpt>
      <trkpt lat="50.860068965703249" lon="10.573976039886475">
        <ele>415.43000000000001</ele>
        <time>2024-09-11T16:03:44Z</time>
      </trkpt>
      <trkpt lat="50.860020015388727" lon="10.574025996029377">
        <ele>414.94999999999999</ele>
        <time>2024-09-11T16:03:45Z</time>
      </trkpt>
      <trkpt lat="50.85993804037571" lon="10.574146024882793">
        <ele>414.94999999999999</ele>
        <time>2024-09-11T16:03:46Z</time>
      </trkpt>
      <trkpt lat="50.859842989593744" lon="10.574175026267767">
        <ele>414.47000000000003</ele>
        <time>2024-09-11T16:03:47Z</time>
      </trkpt>
      <trkpt lat="50.859745005145669" lon="10.574217019602656">
        <ele>414.47000000000003</ele>
        <time>2024-09-11T16:03:48Z</time>
      </trkpt>
      <trkpt lat="50.859109992161393" lon="10.574577022343874">
        <ele>413.98000000000002</ele>
        <time>2024-09-11T16:03:54Z</time>
      </trkpt>
      <trkpt lat="50.85901603102684" lon="10.574629995971918">
        <ele>413.98000000000002</ele>
        <time>2024-09-11T16:03:55Z</time>
      </trkpt>
      <trkpt lat="50.858920980244875" lon="10.574646005406976">
        <ele>413.98000000000002</ele>
        <time>2024-09-11T16:03:56Z</time>
      </trkpt>
      <trkpt lat="50.858813021332026" lon="10.574652962386608">
        <ele>413.5</ele>
        <time>2024-09-11T16:03:57Z</time>
      </trkpt>
      <trkpt lat="50.858702966943383" lon="10.574661009013653">
        <ele>413.5</ele>
        <time>2024-09-11T16:03:58Z</time>
      </trkpt>
      <trkpt lat="50.858589978888631" lon="10.574662014842033">
        <ele>413.01999999999998</ele>
        <time>2024-09-11T16:03:59Z</time>
      </trkpt>
      <trkpt lat="50.857092970982194" lon="10.574640976265073">
        <ele>411.10000000000002</ele>
        <time>2024-09-11T16:04:13Z</time>
      </trkpt>
      <trkpt lat="50.856986017897725" lon="10.574687998741865">
        <ele>411.57999999999998</ele>
        <time>2024-09-11T16:04:14Z</time>
      </trkpt>
      <trkpt lat="50.856942012906075" lon="10.574824959039688">
        <ele>412.54000000000002</ele>
        <time>2024-09-11T16:04:15Z</time>
      </trkpt>
      <trkpt lat="50.856841010972857" lon="10.575140034779906">
        <ele>413.98000000000002</ele>
        <time>2024-09-11T16:04:17Z</time>
      </trkpt>
      <trkpt lat="50.856788959354162" lon="10.5753009673208">
        <ele>414.94999999999999</ele>
        <time>2024-09-11T16:04:18Z</time>
      </trkpt>
      <trkpt lat="50.856569018214941" lon="10.575920976698399">
        <ele>417.35000000000002</ele>
        <time>2024-09-11T16:04:22Z</time>
      </trkpt>
      <trkpt lat="50.856489976868033" lon="10.57605299167335">
        <ele>418.31</ele>
        <time>2024-09-11T16:04:23Z</time>
      </trkpt>
      <trkpt lat="50.856412025168538" lon="10.576185006648302">
        <ele>419.26999999999998</ele>
        <time>2024-09-11T16:04:24Z</time>
      </trkpt>
      <trkpt lat="50.856262994930148" lon="10.576431015506387">
        <ele>421.68000000000001</ele>
        <time>2024-09-11T16:04:26Z</time>
      </trkpt>
      <trkpt lat="50.856165010482073" lon="10.576523970812559">
        <ele>423.12</ele>
        <time>2024-09-11T16:04:27Z</time>
      </trkpt>
      <trkpt lat="50.856063002720475" lon="10.576619021594524">
        <ele>424.56</ele>
        <time>2024-09-11T16:04:28Z</time>
      </trkpt>
      <trkpt lat="50.855859993025661" lon="10.576809961348772">
        <ele>427.44</ele>
        <time>2024-09-11T16:04:30Z</time>
      </trkpt>
      <trkpt lat="50.854715025052428" lon="10.577268032357097">
        <ele>438.01999999999998</ele>
        <time>2024-09-11T16:04:40Z</time>
      </trkpt>
      <trkpt lat="50.854276986792684" lon="10.577474981546402">
        <ele>442.81999999999999</ele>
        <time>2024-09-11T16:04:44Z</time>
      </trkpt>
      <trkpt lat="50.854171039536595" lon="10.577556034550071">
        <ele>444.26999999999998</ele>
        <time>2024-09-11T16:04:45Z</time>
      </trkpt>
      <trkpt lat="50.854079006239772" lon="10.577630968764424">
        <ele>444.75</ele>
        <time>2024-09-11T16:04:46Z</time>
      </trkpt>
      <trkpt lat="50.854008011519909" lon="10.577773964032531">
        <ele>446.67000000000002</ele>
        <time>2024-09-11T16:04:47Z</time>
      </trkpt>
      <trkpt lat="50.853963000699878" lon="10.577926011756063">
        <ele>448.11000000000001</ele>
        <time>2024-09-11T16:04:48Z</time>
      </trkpt>
      <trkpt lat="50.853918995708227" lon="10.57809297926724">
        <ele>449.06999999999999</ele>
        <time>2024-09-11T16:04:49Z</time>
      </trkpt>
      <trkpt lat="50.853874990716577" lon="10.578261958435178">
        <ele>450.02999999999997</ele>
        <time>2024-09-11T16:04:50Z</time>
      </trkpt>
      <trkpt lat="50.853867027908564" lon="10.5784369725734">
        <ele>451</ele>
        <time>2024-09-11T16:04:51Z</time>
      </trkpt>
      <trkpt lat="50.853865016251802" lon="10.578637970611453">
        <ele>452.44</ele>
        <time>2024-09-11T16:04:52Z</time>
      </trkpt>
      <trkpt lat="50.853863004595041" lon="10.578854978084564">
        <ele>453.39999999999998</ele>
        <time>2024-09-11T16:04:53Z</time>
      </trkpt>
      <trkpt lat="50.853846995159984" lon="10.580711988732219">
        <ele>458.69</ele>
        <time>2024-09-11T16:05:00Z</time>
      </trkpt>
      <trkpt lat="50.853896029293537" lon="10.582533041015267">
        <ele>461.56999999999999</ele>
        <time>2024-09-11T16:05:06Z</time>
      </trkpt>
      <trkpt lat="50.853970041498542" lon="10.585176022723317">
        <ele>463.00999999999999</ele>
        <time>2024-09-11T16:05:15Z</time>
      </trkpt>
      <trkpt lat="50.85379502736032" lon="10.586877968162298">
        <ele>461.56999999999999</ele>
        <time>2024-09-11T16:05:21Z</time>
      </trkpt>
      <trkpt lat="50.853716991841793" lon="10.587145015597343">
        <ele>461.56999999999999</ele>
        <time>2024-09-11T16:05:22Z</time>
      </trkpt>
      <trkpt lat="50.853637028485537" lon="10.587416002526879">
        <ele>461.56999999999999</ele>
        <time>2024-09-11T16:05:23Z</time>
      </trkpt>
      <trkpt lat="50.853550024330616" lon="10.587681038305163">
        <ele>461.56999999999999</ele>
        <time>2024-09-11T16:05:24Z</time>
      </trkpt>
      <trkpt lat="50.853449022397399" lon="10.587941966950893">
        <ele>462.05000000000001</ele>
        <time>2024-09-11T16:05:25Z</time>
      </trkpt>
      <trkpt lat="50.852942001074553" lon="10.589249040931463">
        <ele>462.05000000000001</ele>
        <time>2024-09-11T16:05:30Z</time>
      </trkpt>
      <trkpt lat="50.852718958631158" lon="10.590097038075328">
        <ele>462.05000000000001</ele>
        <time>2024-09-11T16:05:33Z</time>
      </trkpt>
      <trkpt lat="50.852690041065216" lon="10.590413035824895">
        <ele>462.05000000000001</ele>
        <time>2024-09-11T16:05:34Z</time>
      </trkpt>
      <trkpt lat="50.852665985003114" lon="10.590759962797165">
        <ele>462.05000000000001</ele>
        <time>2024-09-11T16:05:35Z</time>
      </trkpt>
      <trkpt lat="50.852602031081915" lon="10.592700038105249">
        <ele>463.00999999999999</ele>
        <time>2024-09-11T16:05:40Z</time>
      </trkpt>
      <trkpt lat="50.852583004161716" lon="10.595697993412614">
        <ele>461.56999999999999</ele>
        <time>2024-09-11T16:05:49Z</time>
      </trkpt>
      <trkpt lat="50.852419976145029" lon="10.598578015342355">
        <ele>457.24000000000001</ele>
        <time>2024-09-11T16:05:58Z</time>
      </trkpt>
      <trkpt lat="50.852067014202476" lon="10.600878009572625">
        <ele>451</ele>
        <time>2024-09-11T16:06:05Z</time>
      </trkpt>
      <trkpt lat="50.851559992879629" lon="10.603613024577498">
        <ele>441.86000000000001</ele>
        <time>2024-09-11T16:06:12Z</time>
      </trkpt>
      <trkpt lat="50.851049032062292" lon="10.606494974344969">
        <ele>431.29000000000002</ele>
        <time>2024-09-11T16:06:18Z</time>
      </trkpt>
      <trkpt lat="50.850464981049299" lon="10.609635002911091">
        <ele>420.23000000000002</ele>
        <time>2024-09-11T16:06:26Z</time>
      </trkpt>
      <trkpt lat="50.849915966391563" lon="10.612745024263859">
        <ele>406.76999999999998</ele>
        <time>2024-09-11T16:06:35Z</time>
      </trkpt>
      <trkpt lat="50.849277013912797" lon="10.615093968808651">
        <ele>397.63999999999999</ele>
        <time>2024-09-11T16:06:44Z</time>
      </trkpt>
      <trkpt lat="50.84827302955091" lon="10.616493998095393">
        <ele>399.56999999999999</ele>
        <time>2024-09-11T16:06:51Z</time>
      </trkpt>
      <trkpt lat="50.84762996993959" lon="10.616942010819912">
        <ele>400.52999999999997</ele>
        <time>2024-09-11T16:06:54Z</time>
      </trkpt>
      <trkpt lat="50.847384966909885" lon="10.617070002481341">
        <ele>401.00999999999999</ele>
        <time>2024-09-11T16:06:55Z</time>
      </trkpt>
      <trkpt lat="50.84505395963788" lon="10.617885980755091">
        <ele>404.85000000000002</ele>
        <time>2024-09-11T16:07:04Z</time>
      </trkpt>
      <trkpt lat="50.843597017228603" lon="10.618949979543686">
        <ele>409.66000000000003</ele>
        <time>2024-09-11T16:07:10Z</time>
      </trkpt>
      <trkpt lat="50.841804966330528" lon="10.620914027094841">
        <ele>418.31</ele>
        <time>2024-09-11T16:07:18Z</time>
      </trkpt>
      <trkpt lat="50.840072007849813" lon="10.62372699379921">
        <ele>423.60000000000002</ele>
        <time>2024-09-11T16:07:27Z</time>
      </trkpt>
      <trkpt lat="50.838835006579757" lon="10.626698965206742">
        <ele>426.95999999999998</ele>
        <time>2024-09-11T16:07:35Z</time>
      </trkpt>
      <trkpt lat="50.838009975850582" lon="10.62901102937758">
        <ele>433.20999999999998</ele>
        <time>2024-09-11T16:07:41Z</time>
      </trkpt>
      <trkpt lat="50.837589036673307" lon="10.629954999312758">
        <ele>437.54000000000002</ele>
        <time>2024-09-11T16:07:45Z</time>
      </trkpt>
      <trkpt lat="50.83686500787735" lon="10.631480002775788">
        <ele>442.33999999999997</ele>
        <time>2024-09-11T16:07:53Z</time>
      </trkpt>
      <trkpt lat="50.83600795827806" lon="10.633255038410425">
        <ele>447.14999999999998</ele>
        <time>2024-09-11T16:08:01Z</time>
      </trkpt>
      <trkpt lat="50.835216036066413" lon="10.634894035756588">
        <ele>452.92000000000002</ele>
        <time>2024-09-11T16:08:09Z</time>
      </trkpt>
      <trkpt lat="50.834232000634074" lon="10.636185016483068">
        <ele>455.31999999999999</ele>
        <time>2024-09-11T16:08:17Z</time>
      </trkpt>
      <trkpt lat="50.83289097994566" lon="10.63739100471139">
        <ele>449.55000000000001</ele>
        <time>2024-09-11T16:08:24Z</time>
      </trkpt>
      <trkpt lat="50.831287018954754" lon="10.638881977647543">
        <ele>441.86000000000001</ele>
        <time>2024-09-11T16:08:32Z</time>
      </trkpt>
      <trkpt lat="50.831102030351758" lon="10.639122035354376">
        <ele>440.89999999999998</ele>
        <time>2024-09-11T16:08:33Z</time>
      </trkpt>
      <trkpt lat="50.830951994284987" lon="10.639453958719969">
        <ele>439.94</ele>
        <time>2024-09-11T16:08:34Z</time>
      </trkpt>
      <trkpt lat="50.830801036208868" lon="10.639788983389735">
        <ele>439.45999999999998</ele>
        <time>2024-09-11T16:08:35Z</time>
      </trkpt>
      <trkpt lat="50.829704012721777" lon="10.642894981428981">
        <ele>430.81</ele>
        <time>2024-09-11T16:08:43Z</time>
      </trkpt>
      <trkpt lat="50.829271003603935" lon="10.643982030451298">
        <ele>427.92000000000002</ele>
        <time>2024-09-11T16:08:46Z</time>
      </trkpt>
      <trkpt lat="50.829086015000939" lon="10.644269026815891">
        <ele>426.95999999999998</ele>
        <time>2024-09-11T16:08:47Z</time>
      </trkpt>
      <trkpt lat="50.828904965892434" lon="10.64454797655344">
        <ele>426</ele>
        <time>2024-09-11T16:08:48Z</time>
      </trkpt>
      <trkpt lat="50.828570025041699" lon="10.645064972341061">
        <ele>424.56</ele>
        <time>2024-09-11T16:08:50Z</time>
      </trkpt>
      <trkpt lat="50.828430969268084" lon="10.645365966483951">
        <ele>423.60000000000002</ele>
        <time>2024-09-11T16:08:51Z</time>
      </trkpt>
      <trkpt lat="50.82786301150918" lon="10.647104037925601">
        <ele>419.26999999999998</ele>
        <time>2024-09-11T16:08:57Z</time>
      </trkpt>
      <trkpt lat="50.827589007094502" lon="10.64880296587944">
        <ele>413.98000000000002</ele>
        <time>2024-09-11T16:09:05Z</time>
      </trkpt>
      <trkpt lat="50.827581966295838" lon="10.64901502802968">
        <ele>413.5</ele>
        <time>2024-09-11T16:09:06Z</time>
      </trkpt>
      <trkpt lat="50.827607028186321" lon="10.650093024596572">
        <ele>408.69999999999999</ele>
        <time>2024-09-11T16:09:11Z</time>
      </trkpt>
      <trkpt lat="50.827733008190989" lon="10.651094997301698">
        <ele>402.93000000000001</ele>
        <time>2024-09-11T16:09:16Z</time>
      </trkpt>
      <trkpt lat="50.828230977058411" lon="10.652630981057882">
        <ele>399.56999999999999</ele>
        <time>2024-09-11T16:09:25Z</time>
      </trkpt>
      <trkpt lat="50.828449996188283" lon="10.653323996812105">
        <ele>398.60000000000002</ele>
        <time>2024-09-11T16:09:29Z</time>
      </trkpt>
      <trkpt lat="50.828504981473088" lon="10.653498005121946">
        <ele>398.60000000000002</ele>
        <time>2024-09-11T16:09:30Z</time>
      </trkpt>
      <trkpt lat="50.828547980636358" lon="10.653691040351987">
        <ele>398.12</ele>
        <time>2024-09-11T16:09:31Z</time>
      </trkpt>
      <trkpt lat="50.829159021377563" lon="10.65572096966207">
        <ele>394.27999999999997</ele>
        <time>2024-09-11T16:09:43Z</time>
      </trkpt>
      <trkpt lat="50.829501003026962" lon="10.657101972028613">
        <ele>391.87</ele>
        <time>2024-09-11T16:09:51Z</time>
      </trkpt>
      <trkpt lat="50.829512989148498" lon="10.657281009480357">
        <ele>391.38999999999999</ele>
        <time>2024-09-11T16:09:52Z</time>
      </trkpt>
      <trkpt lat="50.829493962228298" lon="10.657452000305057">
        <ele>391.87</ele>
        <time>2024-09-11T16:09:53Z</time>
      </trkpt>
      <trkpt lat="50.829470995813608" lon="10.657835975289345">
        <ele>391.87</ele>
        <time>2024-09-11T16:09:55Z</time>
      </trkpt>
      <trkpt lat="50.829480970278382" lon="10.658042002469301">
        <ele>391.87</ele>
        <time>2024-09-11T16:09:56Z</time>
      </trkpt>
      <trkpt lat="50.829526986926794" lon="10.658210981637239">
        <ele>391.87</ele>
        <time>2024-09-11T16:09:57Z</time>
      </trkpt>
      <trkpt lat="50.829573003575206" lon="10.658379960805178">
        <ele>391.87</ele>
        <time>2024-09-11T16:09:58Z</time>
      </trkpt>
      <trkpt lat="50.829618014395237" lon="10.658546006307006">
        <ele>391.87</ele>
        <time>2024-09-11T16:09:59Z</time>
      </trkpt>
      <trkpt lat="50.829664031043649" lon="10.658715991303325">
        <ele>391.38999999999999</ele>
        <time>2024-09-11T16:10:00Z</time>
      </trkpt>
      <trkpt lat="50.829710969701409" lon="10.658888993784785">
        <ele>390.91000000000003</ele>
        <time>2024-09-11T16:10:01Z</time>
      </trkpt>
      <trkpt lat="50.829994026571512" lon="10.659928014501929">
        <ele>388.50999999999999</ele>
        <time>2024-09-11T16:10:07Z</time>
      </trkpt>
      <trkpt lat="50.830020010471344" lon="10.660117026418447">
        <ele>388.02999999999997</ele>
        <time>2024-09-11T16:10:08Z</time>
      </trkpt>
      <trkpt lat="50.830037025734782" lon="10.660311989486217">
        <ele>388.02999999999997</ele>
        <time>2024-09-11T16:10:09Z</time>
      </trkpt>
      <trkpt lat="50.830137021839619" lon="10.66141203045845">
        <ele>385.14999999999998</ele>
        <time>2024-09-11T16:10:15Z</time>
      </trkpt>
      <trkpt lat="50.830149007961154" lon="10.661590984091163">
        <ele>384.18000000000001</ele>
        <time>2024-09-11T16:10:16Z</time>
      </trkpt>
      <trkpt lat="50.830167029052973" lon="10.662169000133872">
        <ele>382.74000000000001</ele>
        <time>2024-09-11T16:10:19Z</time>
      </trkpt>
      <trkpt lat="50.830148002132773" lon="10.662354994565248">
        <ele>382.25999999999999</ele>
        <time>2024-09-11T16:10:20Z</time>
      </trkpt>
      <trkpt lat="50.8301190007478" lon="10.662524979561567">
        <ele>381.77999999999997</ele>
        <time>2024-09-11T16:10:21Z</time>
      </trkpt>
      <trkpt lat="50.829761009663343" lon="10.663772961124778">
        <ele>380.81999999999999</ele>
        <time>2024-09-11T16:10:28Z</time>
      </trkpt>
      <trkpt lat="50.829485999420285" lon="10.665112975984812">
        <ele>380.81999999999999</ele>
        <time>2024-09-11T16:10:34Z</time>
      </trkpt>
      <trkpt lat="50.829477030783892" lon="10.665374994277954">
        <ele>380.81999999999999</ele>
        <time>2024-09-11T16:10:35Z</time>
      </trkpt>
      <trkpt lat="50.829489016905427" lon="10.665643969550729">
        <ele>380.81999999999999</ele>
        <time>2024-09-11T16:10:36Z</time>
      </trkpt>
      <trkpt lat="50.829550037160516" lon="10.66592400893569">
        <ele>380.81999999999999</ele>
        <time>2024-09-11T16:10:37Z</time>
      </trkpt>
      <trkpt lat="50.829622037708759" lon="10.666201030835509">
        <ele>380.81999999999999</ele>
        <time>2024-09-11T16:10:38Z</time>
      </trkpt>
      <trkpt lat="50.829743994399905" lon="10.66680695861578">
        <ele>381.30000000000001</ele>
        <time>2024-09-11T16:10:40Z</time>
      </trkpt>
      <trkpt lat="50.829808032140136" lon="10.667133014649153">
        <ele>381.30000000000001</ele>
        <time>2024-09-11T16:10:41Z</time>
      </trkpt>
      <trkpt lat="50.829836027696729" lon="10.667491005733609">
        <ele>381.30000000000001</ele>
        <time>2024-09-11T16:10:42Z</time>
      </trkpt>
      <trkpt lat="50.829836027696729" lon="10.667842961847782">
        <ele>381.30000000000001</ele>
        <time>2024-09-11T16:10:43Z</time>
      </trkpt>
      <trkpt lat="50.829800991341472" lon="10.668212017044425">
        <ele>381.30000000000001</ele>
        <time>2024-09-11T16:10:44Z</time>
      </trkpt>
      <trkpt lat="50.829746006056666" lon="10.668576965108514">
        <ele>381.30000000000001</ele>
        <time>2024-09-11T16:10:45Z</time>
      </trkpt>
      <trkpt lat="50.829676017165184" lon="10.66895498894155">
        <ele>381.30000000000001</ele>
        <time>2024-09-11T16:10:46Z</time>
      </trkpt>
      <trkpt lat="50.829580966383219" lon="10.669309962540865">
        <ele>382.25999999999999</ele>
        <time>2024-09-11T16:10:47Z</time>
      </trkpt>
      <trkpt lat="50.828822990879416" lon="10.671733003109694">
        <ele>387.55000000000001</ele>
        <time>2024-09-11T16:10:54Z</time>
      </trkpt>
      <trkpt lat="50.827822024002671" lon="10.674946960061789">
        <ele>399.56999999999999</ele>
        <time>2024-09-11T16:11:03Z</time>
      </trkpt>
      <trkpt lat="50.82700302824378" lon="10.677814995869994">
        <ele>411.57999999999998</ele>
        <time>2024-09-11T16:11:11Z</time>
      </trkpt>
      <trkpt lat="50.826632967218757" lon="10.680004013702273">
        <ele>417.82999999999998</ele>
        <time>2024-09-11T16:11:17Z</time>
      </trkpt>
      <trkpt lat="50.826533976942301" lon="10.680700968950987">
        <ele>419.26999999999998</ele>
        <time>2024-09-11T16:11:19Z</time>
      </trkpt>
      <trkpt lat="50.826483014971018" lon="10.681036999449134">
        <ele>419.26999999999998</ele>
        <time>2024-09-11T16:11:20Z</time>
      </trkpt>
      <trkpt lat="50.826427023857832" lon="10.68135098554194">
        <ele>419.26999999999998</ele>
        <time>2024-09-11T16:11:21Z</time>
      </trkpt>
      <trkpt lat="50.826039025560021" lon="10.682664010673761">
        <ele>416.38999999999999</ele>
        <time>2024-09-11T16:11:27Z</time>
      </trkpt>
      <trkpt lat="50.825917990878224" lon="10.683192992582917">
        <ele>413.98000000000002</ele>
        <time>2024-09-11T16:11:30Z</time>
      </trkpt>
      <trkpt lat="50.825803996995091" lon="10.683878967538476">
        <ele>410.62</ele>
        <time>2024-09-11T16:11:34Z</time>
      </trkpt>
      <trkpt lat="50.825755968689919" lon="10.684214998036623">
        <ele>409.66000000000003</ele>
        <time>2024-09-11T16:11:36Z</time>
      </trkpt>
      <trkpt lat="50.825517000630498" lon="10.685802027583122">
        <ele>405.81</ele>
        <time>2024-09-11T16:11:46Z</time>
      </trkpt>
      <trkpt lat="50.825294964015484" lon="10.686490014195442">
        <ele>404.85000000000002</ele>
        <time>2024-09-11T16:11:50Z</time>
      </trkpt>
      <trkpt lat="50.825111987069249" lon="10.686966022476554">
        <ele>404.37</ele>
        <time>2024-09-11T16:11:53Z</time>
      </trkpt>
      <trkpt lat="50.825057001784444" lon="10.68710901774466">
        <ele>403.88999999999999</ele>
        <time>2024-09-11T16:11:54Z</time>
      </trkpt>
      <trkpt lat="50.82462097518146" lon="10.687959026545286">
        <ele>403.41000000000003</ele>
        <time>2024-09-11T16:12:00Z</time>
      </trkpt>
      <trkpt lat="50.824234988540411" lon="10.688474010676146">
        <ele>403.88999999999999</ele>
        <time>2024-09-11T16:12:04Z</time>
      </trkpt>
      <trkpt lat="50.82296303473413" lon="10.690157013013959">
        <ele>411.10000000000002</ele>
        <time>2024-09-11T16:12:18Z</time>
      </trkpt>
      <trkpt lat="50.822555003687739" lon="10.691088996827602">
        <ele>412.54000000000002</ele>
        <time>2024-09-11T16:12:24Z</time>
      </trkpt>
      <trkpt lat="50.82249297760427" lon="10.691242972388864">
        <ele>412.54000000000002</ele>
        <time>2024-09-11T16:12:25Z</time>
      </trkpt>
      <trkpt lat="50.822460958734155" lon="10.691419998183846">
        <ele>412.54000000000002</ele>
        <time>2024-09-11T16:12:26Z</time>
      </trkpt>
      <trkpt lat="50.822428017854691" lon="10.69160096347332">
        <ele>412.54000000000002</ele>
        <time>2024-09-11T16:12:27Z</time>
      </trkpt>
      <trkpt lat="50.822415025904775" lon="10.691796010360122">
        <ele>412.06</ele>
        <time>2024-09-11T16:12:28Z</time>
      </trkpt>
      <trkpt lat="50.822420977056026" lon="10.691991979256272">
        <ele>412.06</ele>
        <time>2024-09-11T16:12:29Z</time>
      </trkpt>
      <trkpt lat="50.822432963177562" lon="10.692367991432548">
        <ele>411.10000000000002</ele>
        <time>2024-09-11T16:12:31Z</time>
      </trkpt>
      <trkpt lat="50.822356017306447" lon="10.69347096607089">
        <ele>411.10000000000002</ele>
        <time>2024-09-11T16:12:37Z</time>
      </trkpt>
      <trkpt lat="50.822259038686752" lon="10.69383398629725">
        <ele>411.57999999999998</ele>
        <time>2024-09-11T16:12:39Z</time>
      </trkpt>
      <trkpt lat="50.822210004553199" lon="10.694010006263852">
        <ele>412.54000000000002</ele>
        <time>2024-09-11T16:12:40Z</time>
      </trkpt>
      <trkpt lat="50.821479018777609" lon="10.696161976084113">
        <ele>418.79000000000002</ele>
        <time>2024-09-11T16:12:53Z</time>
      </trkpt>
      <trkpt lat="50.82083897665143" lon="10.698408996686339">
        <ele>413.98000000000002</ele>
        <time>2024-09-11T16:13:06Z</time>
      </trkpt>
      <trkpt lat="50.820638984441757" lon="10.699110981076956">
        <ele>412.54000000000002</ele>
        <time>2024-09-11T16:13:10Z</time>
      </trkpt>
      <trkpt lat="50.820145960897207" lon="10.700841005891562">
        <ele>411.10000000000002</ele>
        <time>2024-09-11T16:13:20Z</time>
      </trkpt>
      <trkpt lat="50.820096004754305" lon="10.701021971181035">
        <ele>411.57999999999998</ele>
        <time>2024-09-11T16:13:21Z</time>
      </trkpt>
      <trkpt lat="50.820002965629101" lon="10.701362024992704">
        <ele>412.06</ele>
        <time>2024-09-11T16:13:23Z</time>
      </trkpt>
      <trkpt lat="50.81991302780807" lon="10.701689003035426">
        <ele>412.54000000000002</ele>
        <time>2024-09-11T16:13:25Z</time>
      </trkpt>
      <trkpt lat="50.81991302780807" lon="10.701823029667139">
        <ele>413.01999999999998</ele>
        <time>2024-09-11T16:13:26Z</time>
      </trkpt>
      <trkpt lat="50.81993599422276" lon="10.701983040198684">
        <ele>413.01999999999998</ele>
        <time>2024-09-11T16:13:27Z</time>
      </trkpt>
      <trkpt lat="50.819970024749637" lon="10.7021289691329">
        <ele>413.01999999999998</ele>
        <time>2024-09-11T16:13:28Z</time>
      </trkpt>
      <trkpt lat="50.820013023912907" lon="10.702265007421374">
        <ele>413.01999999999998</ele>
        <time>2024-09-11T16:13:29Z</time>
      </trkpt>
      <trkpt lat="50.820029033347964" lon="10.702424012124538">
        <ele>413.01999999999998</ele>
        <time>2024-09-11T16:13:30Z</time>
      </trkpt>
      <trkpt lat="50.819969018921256" lon="10.702561978250742">
        <ele>413.5</ele>
        <time>2024-09-11T16:13:31Z</time>
      </trkpt>
      <trkpt lat="50.819895006716251" lon="10.702683012932539">
        <ele>413.5</ele>
        <time>2024-09-11T16:13:32Z</time>
      </trkpt>
      <trkpt lat="50.819812025874853" lon="10.702816033735871">
        <ele>413.98000000000002</ele>
        <time>2024-09-11T16:13:33Z</time>
      </trkpt>
      <trkpt lat="50.819728039205074" lon="10.702952994033694">
        <ele>413.98000000000002</ele>
        <time>2024-09-11T16:13:34Z</time>
      </trkpt>
      <trkpt lat="50.819642040878534" lon="10.703091965988278">
        <ele>413.98000000000002</ele>
        <time>2024-09-11T16:13:35Z</time>
      </trkpt>
      <trkpt lat="50.819560987874866" lon="10.703247031196952">
        <ele>413.98000000000002</ele>
        <time>2024-09-11T16:13:36Z</time>
      </trkpt>
      <trkpt lat="50.819502985104918" lon="10.703421961516142">
        <ele>414.47000000000003</ele>
        <time>2024-09-11T16:13:37Z</time>
      </trkpt>
      <trkpt lat="50.81948303617537" lon="10.703618014231324">
        <ele>414.47000000000003</ele>
        <time>2024-09-11T16:13:38Z</time>
      </trkpt>
      <trkpt lat="50.819470966234803" lon="10.703817000612617">
        <ele>414.94999999999999</ele>
        <time>2024-09-11T16:13:39Z</time>
      </trkpt>
      <trkpt lat="50.819497033953667" lon="10.704015986993909">
        <ele>415.43000000000001</ele>
        <time>2024-09-11T16:13:40Z</time>
      </trkpt>
      <trkpt lat="50.819562999531627" lon="10.704195024445653">
        <ele>415.43000000000001</ele>
        <time>2024-09-11T16:13:41Z</time>
      </trkpt>
      <trkpt lat="50.819637011736631" lon="10.704369032755494">
        <ele>415.43000000000001</ele>
        <time>2024-09-11T16:13:42Z</time>
      </trkpt>
      <trkpt lat="50.819708006456494" lon="10.704532982781529">
        <ele>414.94999999999999</ele>
        <time>2024-09-11T16:13:43Z</time>
      </trkpt>
      <trkpt lat="50.819775983691216" lon="10.704691987484694">
        <ele>414.94999999999999</ele>
        <time>2024-09-11T16:13:44Z</time>
      </trkpt>
      <trkpt lat="50.820572013035417" lon="10.706586968153715">
        <ele>410.13999999999999</ele>
        <time>2024-09-11T16:13:56Z</time>
      </trkpt>
      <trkpt lat="50.82141799852252" lon="10.70827298797667">
        <ele>403.41000000000003</ele>
        <time>2024-09-11T16:14:06Z</time>
      </trkpt>
      <trkpt lat="50.822337996214628" lon="10.709623983129859">
        <ele>400.52999999999997</ele>
        <time>2024-09-11T16:14:12Z</time>
      </trkpt>
      <trkpt lat="50.822469005361199" lon="10.70990402251482">
        <ele>400.05000000000001</ele>
        <time>2024-09-11T16:14:13Z</time>
      </trkpt>
      <trkpt lat="50.822584005072713" lon="10.710214991122484">
        <ele>400.05000000000001</ele>
        <time>2024-09-11T16:14:14Z</time>
      </trkpt>
      <trkpt lat="50.822689030319452" lon="10.710530988872051">
        <ele>399.56999999999999</ele>
        <time>2024-09-11T16:14:15Z</time>
      </trkpt>
      <trkpt lat="50.822774022817612" lon="10.710884034633636">
        <ele>399.07999999999998</ele>
        <time>2024-09-11T16:14:16Z</time>
      </trkpt>
      <trkpt lat="50.823445999994874" lon="10.713031981140375">
        <ele>397.63999999999999</ele>
        <time>2024-09-11T16:14:22Z</time>
      </trkpt>
      <trkpt lat="50.82360902801156" lon="10.713357031345367">
        <ele>397.16000000000003</ele>
        <time>2024-09-11T16:14:23Z</time>
      </trkpt>
      <trkpt lat="50.824857009574771" lon="10.71533901616931">
        <ele>394.27999999999997</ele>
        <time>2024-09-11T16:14:30Z</time>
      </trkpt>
      <trkpt lat="50.824965974316001" lon="10.715679991990328">
        <ele>393.80000000000001</ele>
        <time>2024-09-11T16:14:31Z</time>
      </trkpt>
      <trkpt lat="50.825458997860551" lon="10.717402976006269">
        <ele>390.91000000000003</ele>
        <time>2024-09-11T16:14:36Z</time>
      </trkpt>
      <trkpt lat="50.825497973710299" lon="10.717780999839306">
        <ele>389.94999999999999</ele>
        <time>2024-09-11T16:14:37Z</time>
      </trkpt>
      <trkpt lat="50.825782958418131" lon="10.720048975199461">
        <ele>383.22000000000003</ele>
        <time>2024-09-11T16:14:44Z</time>
      </trkpt>
      <trkpt lat="50.826121000573039" lon="10.721456967294216">
        <ele>380.81999999999999</ele>
        <time>2024-09-11T16:14:51Z</time>
      </trkpt>
      <trkpt lat="50.826117983087897" lon="10.721623012796044">
        <ele>380.81999999999999</ele>
        <time>2024-09-11T16:14:52Z</time>
      </trkpt>
      <trkpt lat="50.826113959774375" lon="10.721795009449124">
        <ele>381.30000000000001</ele>
        <time>2024-09-11T16:14:53Z</time>
      </trkpt>
      <trkpt lat="50.826104991137981" lon="10.7221710216254">
        <ele>381.77999999999997</ele>
        <time>2024-09-11T16:14:55Z</time>
      </trkpt>
      <trkpt lat="50.826109014451504" lon="10.722340000793338">
        <ele>381.77999999999997</ele>
        <time>2024-09-11T16:14:56Z</time>
      </trkpt>
      <trkpt lat="50.826148996129632" lon="10.722486013546586">
        <ele>381.77999999999997</ele>
        <time>2024-09-11T16:14:57Z</time>
      </trkpt>
      <trkpt lat="50.826193001121283" lon="10.722620040178299">
        <ele>381.77999999999997</ele>
        <time>2024-09-11T16:14:58Z</time>
      </trkpt>
      <trkpt lat="50.826243963092566" lon="10.722749959677458">
        <ele>381.77999999999997</ele>
        <time>2024-09-11T16:14:59Z</time>
      </trkpt>
      <trkpt lat="50.826299032196403" lon="10.72288197465241">
        <ele>381.77999999999997</ele>
        <time>2024-09-11T16:15:00Z</time>
      </trkpt>
      <trkpt lat="50.82635996863246" lon="10.723012983798981">
        <ele>381.77999999999997</ele>
        <time>2024-09-11T16:15:01Z</time>
      </trkpt>
      <trkpt lat="50.826735980808735" lon="10.723968017846346">
        <ele>379.86000000000001</ele>
        <time>2024-09-11T16:15:10Z</time>
      </trkpt>
      <trkpt lat="50.826735980808735" lon="10.723968017846346">
        <ele>379.38</ele>
        <time>2024-09-11T16:15:20Z</time>
      </trkpt>
      <trkpt lat="50.826772022992373" lon="10.724104978144169">
        <ele>378.42000000000002</ele>
        <time>2024-09-11T16:15:29Z</time>
      </trkpt>
      <trkpt lat="50.826752996072173" lon="10.724276974797249">
        <ele>378.42000000000002</ele>
        <time>2024-09-11T16:15:30Z</time>
      </trkpt>
      <trkpt lat="50.826700022444129" lon="10.724307987838984">
        <ele>378.42000000000002</ele>
        <time>2024-09-11T16:15:31Z</time>
      </trkpt>
      <trkpt lat="50.826626010239124" lon="10.724351992830634">
        <ele>377.94</ele>
        <time>2024-09-11T16:15:32Z</time>
      </trkpt>
      <trkpt lat="50.826533976942301" lon="10.724405972287059">
        <ele>377.94</ele>
        <time>2024-09-11T16:15:33Z</time>
      </trkpt>
      <trkpt lat="50.825590007007122" lon="10.724849039688706">
        <ele>376.49000000000001</ele>
        <time>2024-09-11T16:15:40Z</time>
      </trkpt>
      <trkpt lat="50.823794016614556" lon="10.725663006305695">
        <ele>378.42000000000002</ele>
        <time>2024-09-11T16:15:50Z</time>
      </trkpt>
      <trkpt lat="50.821887971833348" lon="10.727054988965392">
        <ele>383.69999999999999</ele>
        <time>2024-09-11T16:16:00Z</time>
      </trkpt>
      <trkpt lat="50.820277975872159" lon="10.728087974712253">
        <ele>385.63</ele>
        <time>2024-09-11T16:16:08Z</time>
      </trkpt>
      <trkpt lat="50.818364974111319" lon="10.728703960776329">
        <ele>383.69999999999999</ele>
        <time>2024-09-11T16:16:16Z</time>
      </trkpt>
      <trkpt lat="50.817223023623228" lon="10.728996992111206">
        <ele>384.66000000000003</ele>
        <time>2024-09-11T16:16:22Z</time>
      </trkpt>
      <trkpt lat="50.81617402844131" lon="10.729588000103831">
        <ele>387.06999999999999</ele>
        <time>2024-09-11T16:16:30Z</time>
      </trkpt>
      <trkpt lat="50.814619017764926" lon="10.730726011097431">
        <ele>392.83999999999997</ele>
        <time>2024-09-11T16:16:42Z</time>
      </trkpt>
      <trkpt lat="50.813319990411401" lon="10.731144016608596">
        <ele>394.27999999999997</ele>
        <time>2024-09-11T16:16:52Z</time>
      </trkpt>
      <trkpt lat="50.813162997364998" lon="10.731089031323791">
        <ele>394.27999999999997</ele>
        <time>2024-09-11T16:16:53Z</time>
      </trkpt>
      <trkpt lat="50.8130609896034" lon="10.731086013838649">
        <ele>394.75999999999999</ele>
        <time>2024-09-11T16:16:55Z</time>
      </trkpt>
      <trkpt lat="50.813002986833453" lon="10.731159020215273">
        <ele>395.24000000000001</ele>
        <time>2024-09-11T16:16:56Z</time>
      </trkpt>
      <trkpt lat="50.812991000711918" lon="10.731218028813601">
        <ele>395.72000000000003</ele>
        <time>2024-09-11T16:16:57Z</time>
      </trkpt>
      <trkpt lat="50.813007010146976" lon="10.731341997161508">
        <ele>396.19999999999999</ele>
        <time>2024-09-11T16:16:58Z</time>
      </trkpt>
      <trkpt lat="50.813012961298227" lon="10.731390025466681">
        <ele>396.68000000000001</ele>
        <time>2024-09-11T16:16:59Z</time>
      </trkpt>
      <trkpt lat="50.813098959624767" lon="10.73160401545465">
        <ele>396.68000000000001</ele>
        <time>2024-09-11T16:17:00Z</time>
      </trkpt>
      <trkpt lat="50.813098959624767" lon="10.731774000450969">
        <ele>396.68000000000001</ele>
        <time>2024-09-11T16:17:01Z</time>
      </trkpt>
      <trkpt lat="50.813086973503232" lon="10.73196804150939">
        <ele>396.68000000000001</ele>
        <time>2024-09-11T16:17:02Z</time>
      </trkpt>
      <trkpt lat="50.813074987381697" lon="10.732175996527076">
        <ele>396.68000000000001</ele>
        <time>2024-09-11T16:17:03Z</time>
      </trkpt>
      <trkpt lat="50.813064007088542" lon="10.732397027313709">
        <ele>396.68000000000001</ele>
        <time>2024-09-11T16:17:04Z</time>
      </trkpt>
      <trkpt lat="50.812813974916935" lon="10.734381023794413">
        <ele>396.68000000000001</ele>
        <time>2024-09-11T16:17:12Z</time>
      </trkpt>
      <trkpt lat="50.812388006597757" lon="10.737030040472746">
        <ele>397.63999999999999</ele>
        <time>2024-09-11T16:17:20Z</time>
      </trkpt>
      <trkpt lat="50.811632964760065" lon="10.74170202948153">
        <ele>400.52999999999997</ele>
        <time>2024-09-11T16:17:33Z</time>
      </trkpt>
      <trkpt lat="50.811564987525344" lon="10.742039987817407">
        <ele>401.00999999999999</ele>
        <time>2024-09-11T16:17:34Z</time>
      </trkpt>
      <trkpt lat="50.811488041654229" lon="10.742376018315554">
        <ele>401.00999999999999</ele>
        <time>2024-09-11T16:17:35Z</time>
      </trkpt>
      <trkpt lat="50.811373963952065" lon="10.742695033550262">
        <ele>401.00999999999999</ele>
        <time>2024-09-11T16:17:36Z</time>
      </trkpt>
      <trkpt lat="50.811244966462255" lon="10.743003990501165">
        <ele>401.00999999999999</ele>
        <time>2024-09-11T16:17:37Z</time>
      </trkpt>
      <trkpt lat="50.811090990900993" lon="10.743282018229365">
        <ele>401.49000000000001</ele>
        <time>2024-09-11T16:17:38Z</time>
      </trkpt>
      <trkpt lat="50.810929974541068" lon="10.743546970188618">
        <ele>401.49000000000001</ele>
        <time>2024-09-11T16:17:39Z</time>
      </trkpt>
      <trkpt lat="50.810744985938072" lon="10.743777975440025">
        <ele>401.97000000000003</ele>
        <time>2024-09-11T16:17:40Z</time>
      </trkpt>
      <trkpt lat="50.81054599955678" lon="10.743987020105124">
        <ele>402.44999999999999</ele>
        <time>2024-09-11T16:17:41Z</time>
      </trkpt>
      <trkpt lat="50.810328992083669" lon="10.744154993444681">
        <ele>402.44999999999999</ele>
        <time>2024-09-11T16:17:42Z</time>
      </trkpt>
      <trkpt lat="50.8100959751755" lon="10.74428197927773">
        <ele>402.93000000000001</ele>
        <time>2024-09-11T16:17:43Z</time>
      </trkpt>
      <trkpt lat="50.809852983802557" lon="10.744375018402934">
        <ele>403.41000000000003</ele>
        <time>2024-09-11T16:17:44Z</time>
      </trkpt>
      <trkpt lat="50.809608986601233" lon="10.744407959282398">
        <ele>403.88999999999999</ele>
        <time>2024-09-11T16:17:45Z</time>
      </trkpt>
      <trkpt lat="50.809380998834968" lon="10.744438972324133">
        <ele>404.37</ele>
        <time>2024-09-11T16:17:46Z</time>
      </trkpt>
      <trkpt lat="50.809175977483392" lon="10.744465962052345">
        <ele>404.37</ele>
        <time>2024-09-11T16:17:47Z</time>
      </trkpt>
      <trkpt lat="50.808990988880396" lon="10.744491023942828">
        <ele>404.85000000000002</ele>
        <time>2024-09-11T16:17:48Z</time>
      </trkpt>
      <trkpt lat="50.808799965307117" lon="10.74451700784266">
        <ele>405.32999999999998</ele>
        <time>2024-09-11T16:17:49Z</time>
      </trkpt>
      <trkpt lat="50.806931974366307" lon="10.745164006948471">
        <ele>408.69999999999999</ele>
        <time>2024-09-11T16:17:58Z</time>
      </trkpt>
      <trkpt lat="50.804642960429192" lon="10.746036982163787">
        <ele>413.98000000000002</ele>
        <time>2024-09-11T16:18:08Z</time>
      </trkpt>
      <trkpt lat="50.80266198143363" lon="10.746792024001479">
        <ele>418.79000000000002</ele>
        <time>2024-09-11T16:18:16Z</time>
      </trkpt>
      <trkpt lat="50.799499992281199" lon="10.747999018058181">
        <ele>426.95999999999998</ele>
        <time>2024-09-11T16:18:28Z</time>
      </trkpt>
      <trkpt lat="50.796099035069346" lon="10.749282035976648">
        <ele>436.57999999999998</ele>
        <time>2024-09-11T16:18:41Z</time>
      </trkpt>
      <trkpt lat="50.79413197003305" lon="10.750327007845044">
        <ele>441.86000000000001</ele>
        <time>2024-09-11T16:18:49Z</time>
      </trkpt>
      <trkpt lat="50.792904021218419" lon="10.751828961074352">
        <ele>447.14999999999998</ele>
        <time>2024-09-11T16:18:55Z</time>
      </trkpt>
      <trkpt lat="50.791792999953032" lon="10.754166003316641">
        <ele>453.39999999999998</ele>
        <time>2024-09-11T16:19:02Z</time>
      </trkpt>
      <trkpt lat="50.790422977879643" lon="10.757456989958882">
        <ele>460.13</ele>
        <time>2024-09-11T16:19:11Z</time>
      </trkpt>
      <trkpt lat="50.789138032123446" lon="10.76054303906858">
        <ele>467.81999999999999</ele>
        <time>2024-09-11T16:19:19Z</time>
      </trkpt>
      <trkpt lat="50.787745965644717" lon="10.763992024585605">
        <ele>474.06999999999999</ele>
        <time>2024-09-11T16:19:28Z</time>
      </trkpt>
      <trkpt lat="50.787095027044415" lon="10.765904020518064">
        <ele>477.43000000000001</ele>
        <time>2024-09-11T16:19:33Z</time>
      </trkpt>
      <trkpt lat="50.787052027881145" lon="10.766324959695339">
        <ele>477.91000000000003</ele>
        <time>2024-09-11T16:19:34Z</time>
      </trkpt>
      <trkpt lat="50.787010034546256" lon="10.766749000176787">
        <ele>477.91000000000003</ele>
        <time>2024-09-11T16:19:35Z</time>
      </trkpt>
      <trkpt lat="50.786988995969296" lon="10.767174968495965">
        <ele>477.91000000000003</ele>
        <time>2024-09-11T16:19:36Z</time>
      </trkpt>
      <trkpt lat="50.787000982090831" lon="10.767616024240851">
        <ele>478.38999999999999</ele>
        <time>2024-09-11T16:19:37Z</time>
      </trkpt>
      <trkpt lat="50.787029983475804" lon="10.768056996166706">
        <ele>477.91000000000003</ele>
        <time>2024-09-11T16:19:38Z</time>
      </trkpt>
      <trkpt lat="50.787072982639074" lon="10.768496040254831">
        <ele>477.91000000000003</ele>
        <time>2024-09-11T16:19:39Z</time>
      </trkpt>
      <trkpt lat="50.787420999258757" lon="10.772279966622591">
        <ele>475.02999999999997</ele>
        <time>2024-09-11T16:19:48Z</time>
      </trkpt>
      <trkpt lat="50.787413958460093" lon="10.774646010249853">
        <ele>470.69999999999999</ele>
        <time>2024-09-11T16:19:55Z</time>
      </trkpt>
      <trkpt lat="50.787230981513858" lon="10.77552099712193">
        <ele>467.81999999999999</ele>
        <time>2024-09-11T16:19:58Z</time>
      </trkpt>
      <trkpt lat="50.786911966279149" lon="10.77667904086411">
        <ele>464.44999999999999</ele>
        <time>2024-09-11T16:20:02Z</time>
      </trkpt>
      <trkpt lat="50.7868040073663" lon="10.776956984773278">
        <ele>464.44999999999999</ele>
        <time>2024-09-11T16:20:03Z</time>
      </trkpt>
      <trkpt lat="50.786695964634418" lon="10.777235012501478">
        <ele>463.97000000000003</ele>
        <time>2024-09-11T16:20:04Z</time>
      </trkpt>
      <trkpt lat="50.786563027650118" lon="10.777464006096125">
        <ele>463.97000000000003</ele>
        <time>2024-09-11T16:20:05Z</time>
      </trkpt>
      <trkpt lat="50.786419026553631" lon="10.777682019397616">
        <ele>463.97000000000003</ele>
        <time>2024-09-11T16:20:06Z</time>
      </trkpt>
      <trkpt lat="50.786244012415409" lon="10.777863990515471">
        <ele>463.97000000000003</ele>
        <time>2024-09-11T16:20:07Z</time>
      </trkpt>
      <trkpt lat="50.786064974963665" lon="10.778049984946847">
        <ele>463.97000000000003</ele>
        <time>2024-09-11T16:20:08Z</time>
      </trkpt>
      <trkpt lat="50.785734979435802" lon="10.778471007943153">
        <ele>463.49000000000001</ele>
        <time>2024-09-11T16:20:10Z</time>
      </trkpt>
      <trkpt lat="50.78560397028923" lon="10.778694972395897">
        <ele>463.97000000000003</ele>
        <time>2024-09-11T16:20:11Z</time>
      </trkpt>
      <trkpt lat="50.785131985321641" lon="10.779525032266974">
        <ele>465.89999999999998</ele>
        <time>2024-09-11T16:20:15Z</time>
      </trkpt>
      <trkpt lat="50.784344002604485" lon="10.780582996085286">
        <ele>467.33999999999997</ele>
        <time>2024-09-11T16:20:22Z</time>
      </trkpt>
      <trkpt lat="50.783573035150766" lon="10.78147198073566">
        <ele>467.81999999999999</ele>
        <time>2024-09-11T16:20:30Z</time>
      </trkpt>
      <trkpt lat="50.782583970576525" lon="10.78207497484982">
        <ele>467.81999999999999</ele>
        <time>2024-09-11T16:20:39Z</time>
      </trkpt>
      <trkpt lat="50.782467965036631" lon="10.782123003154993">
        <ele>467.81999999999999</ele>
        <time>2024-09-11T16:20:40Z</time>
      </trkpt>
      <trkpt lat="50.782125983387232" lon="10.782314026728272">
        <ele>469.25999999999999</ele>
        <time>2024-09-11T16:20:43Z</time>
      </trkpt>
      <trkpt lat="50.781984999775887" lon="10.78239499591291">
        <ele>469.74000000000001</ele>
        <time>2024-09-11T16:20:44Z</time>
      </trkpt>
      <trkpt lat="50.781912999227643" lon="10.782484011724591">
        <ele>470.22000000000003</ele>
        <time>2024-09-11T16:20:45Z</time>
      </trkpt>
      <trkpt lat="50.781560037285089" lon="10.782976029440761">
        <ele>472.63</ele>
        <time>2024-09-11T16:20:49Z</time>
      </trkpt>
      <trkpt lat="50.781485019251704" lon="10.783121036365628">
        <ele>473.11000000000001</ele>
        <time>2024-09-11T16:20:50Z</time>
      </trkpt>
      <trkpt lat="50.781428022310138" lon="10.783293033018708">
        <ele>473.58999999999997</ele>
        <time>2024-09-11T16:20:51Z</time>
      </trkpt>
      <trkpt lat="50.781371025368571" lon="10.783464023843408">
        <ele>474.06999999999999</ele>
        <time>2024-09-11T16:20:52Z</time>
      </trkpt>
      <trkpt lat="50.781318973749876" lon="10.783636020496488">
        <ele>475.02999999999997</ele>
        <time>2024-09-11T16:20:53Z</time>
      </trkpt>
      <trkpt lat="50.781008005142212" lon="10.784808984026313">
        <ele>475.50999999999999</ele>
        <time>2024-09-11T16:21:00Z</time>
      </trkpt>
      <trkpt lat="50.780964000150561" lon="10.784939993172884">
        <ele>475.50999999999999</ele>
        <time>2024-09-11T16:21:01Z</time>
      </trkpt>
      <trkpt lat="50.780912032350898" lon="10.784997995942831">
        <ele>475.50999999999999</ele>
        <time>2024-09-11T16:21:02Z</time>
      </trkpt>
      <trkpt lat="50.780860986560583" lon="10.785055998712778">
        <ele>475.50999999999999</ele>
        <time>2024-09-11T16:21:04Z</time>
      </trkpt>
      <trkpt lat="50.780833996832371" lon="10.785087011754513">
        <ele>475.50999999999999</ele>
        <time>2024-09-11T16:21:05Z</time>
      </trkpt>
      <trkpt lat="50.780808012932539" lon="10.785191031172872">
        <ele>475.50999999999999</ele>
        <time>2024-09-11T16:21:06Z</time>
      </trkpt>
      <trkpt lat="50.780813964083791" lon="10.785321034491062">
        <ele>475.50999999999999</ele>
        <time>2024-09-11T16:21:07Z</time>
      </trkpt>
      <trkpt lat="50.780821004882455" lon="10.785457994788885">
        <ele>475.99000000000001</ele>
        <time>2024-09-11T16:21:08Z</time>
      </trkpt>
      <trkpt lat="50.78089501708746" lon="10.787021974101663">
        <ele>476.94999999999999</ele>
        <time>2024-09-11T16:21:17Z</time>
      </trkpt>
      <trkpt lat="50.780957965180278" lon="10.788868004456162">
        <ele>481.75999999999999</ele>
        <time>2024-09-11T16:21:27Z</time>
      </trkpt>
      <trkpt lat="50.780962994322181" lon="10.789005970582366">
        <ele>482.24000000000001</ele>
        <time>2024-09-11T16:21:28Z</time>
      </trkpt>
      <trkpt lat="50.780971040949225" lon="10.789225995540619">
        <ele>483.19999999999999</ele>
        <time>2024-09-11T16:21:30Z</time>
      </trkpt>
      <trkpt lat="50.780974980443716" lon="10.789338983595371">
        <ele>483.19999999999999</ele>
        <time>2024-09-11T16:21:31Z</time>
      </trkpt>
      <trkpt lat="50.780993001535535" lon="10.78942297026515">
        <ele>483.68000000000001</ele>
        <time>2024-09-11T16:21:32Z</time>
      </trkpt>
      <trkpt lat="50.78104698099196" lon="10.789530007168651">
        <ele>483.19999999999999</ele>
        <time>2024-09-11T16:21:33Z</time>
      </trkpt>
      <trkpt lat="50.78111001290381" lon="10.789622962474823">
        <ele>483.19999999999999</ele>
        <time>2024-09-11T16:21:34Z</time>
      </trkpt>
      <trkpt lat="50.781193999573588" lon="10.789681971073151">
        <ele>482.72000000000003</ele>
        <time>2024-09-11T16:21:35Z</time>
      </trkpt>
      <trkpt lat="50.781255019828677" lon="10.789724970236421">
        <ele>482.72000000000003</ele>
        <time>2024-09-11T16:21:36Z</time>
      </trkpt>
      <trkpt lat="50.781316040083766" lon="10.789767969399691">
        <ele>482.72000000000003</ele>
        <time>2024-09-11T16:21:37Z</time>
      </trkpt>
      <trkpt lat="50.781401032581925" lon="10.789827983826399">
        <ele>483.19999999999999</ele>
        <time>2024-09-11T16:21:38Z</time>
      </trkpt>
      <trkpt lat="50.781494993716478" lon="10.789894033223391">
        <ele>483.19999999999999</ele>
        <time>2024-09-11T16:21:39Z</time>
      </trkpt>
      <trkpt lat="50.782211981713772" lon="10.790400970727205">
        <ele>484.16000000000003</ele>
        <time>2024-09-11T16:21:47Z</time>
      </trkpt>
      <trkpt lat="50.782452039420605" lon="10.790570033714175">
        <ele>485.12</ele>
        <time>2024-09-11T16:21:50Z</time>
      </trkpt>
      <trkpt lat="50.782501995563507" lon="10.790604986250401">
        <ele>485.60000000000002</ele>
        <time>2024-09-11T16:21:51Z</time>
      </trkpt>
      <trkpt lat="50.782542983070016" lon="10.790635999292135">
        <ele>485.60000000000002</ele>
        <time>2024-09-11T16:21:52Z</time>
      </trkpt>
      <trkpt lat="50.782521022483706" lon="10.790749993175268">
        <ele>486.07999999999998</ele>
        <time>2024-09-11T16:21:53Z</time>
      </trkpt>
      <trkpt lat="50.782495038583875" lon="10.790890976786613">
        <ele>486.07999999999998</ele>
        <time>2024-09-11T16:21:54Z</time>
      </trkpt>
      <trkpt lat="50.782158002257347" lon="10.792271979153156">
        <ele>487.05000000000001</ele>
        <time>2024-09-11T16:22:02Z</time>
      </trkpt>
      <trkpt lat="50.781965972855687" lon="10.793116958811879">
        <ele>487.52999999999997</ele>
        <time>2024-09-11T16:22:07Z</time>
      </trkpt>
      <trkpt lat="50.781897995620966" lon="10.793625991791487">
        <ele>487.05000000000001</ele>
        <time>2024-09-11T16:22:10Z</time>
      </trkpt>
      <trkpt lat="50.781883997842669" lon="10.793797988444567">
        <ele>487.05000000000001</ele>
        <time>2024-09-11T16:22:11Z</time>
      </trkpt>
      <trkpt lat="50.781893972307444" lon="10.79397602006793">
        <ele>486.07999999999998</ele>
        <time>2024-09-11T16:22:12Z</time>
      </trkpt>
      <trkpt lat="50.782159008085728" lon="10.795619040727615">
        <ele>481.75999999999999</ele>
        <time>2024-09-11T16:22:20Z</time>
      </trkpt>
      <trkpt lat="50.782198989763856" lon="10.795869994908571">
        <ele>481.27999999999997</ele>
        <time>2024-09-11T16:22:21Z</time>
      </trkpt>
      <trkpt lat="50.782198989763856" lon="10.796099994331598">
        <ele>480.80000000000001</ele>
        <time>2024-09-11T16:22:22Z</time>
      </trkpt>
      <trkpt lat="50.782182980328798" lon="10.796360000967979">
        <ele>480.80000000000001</ele>
        <time>2024-09-11T16:22:23Z</time>
      </trkpt>
      <trkpt lat="50.781910987570882" lon="10.7989820279181">
        <ele>474.55000000000001</ele>
        <time>2024-09-11T16:22:32Z</time>
      </trkpt>
      <trkpt lat="50.781834963709116" lon="10.799754001200199">
        <ele>472.63</ele>
        <time>2024-09-11T16:22:35Z</time>
      </trkpt>
      <trkpt lat="50.781889026984572" lon="10.79997100867331">
        <ele>472.13999999999999</ele>
        <time>2024-09-11T16:22:36Z</time>
      </trkpt>
      <trkpt lat="50.781953986734152" lon="10.800230009481311">
        <ele>472.13999999999999</ele>
        <time>2024-09-11T16:22:37Z</time>
      </trkpt>
      <trkpt lat="50.782885970547795" lon="10.802964018657804">
        <ele>466.86000000000001</ele>
        <time>2024-09-11T16:22:47Z</time>
      </trkpt>
      <trkpt lat="50.782936010509729" lon="10.803280016407371">
        <ele>466.38</ele>
        <time>2024-09-11T16:22:48Z</time>
      </trkpt>
      <trkpt lat="50.782984960824251" lon="10.803596014156938">
        <ele>465.42000000000002</ele>
        <time>2024-09-11T16:22:49Z</time>
      </trkpt>
      <trkpt lat="50.783477984368801" lon="10.806271014735103">
        <ele>459.64999999999998</ele>
        <time>2024-09-11T16:22:58Z</time>
      </trkpt>
      <trkpt lat="50.783764980733395" lon="10.807095961645246">
        <ele>458.20999999999998</ele>
        <time>2024-09-11T16:23:01Z</time>
      </trkpt>
      <trkpt lat="50.784600991755724" lon="10.808763960376382">
        <ele>456.27999999999997</ele>
        <time>2024-09-11T16:23:06Z</time>
      </trkpt>
      <trkpt lat="50.786007978022099" lon="10.811670972034335">
        <ele>452.44</ele>
        <time>2024-09-11T16:23:14Z</time>
      </trkpt>
      <trkpt lat="50.787436002865434" lon="10.814582007005811">
        <ele>449.06999999999999</ele>
        <time>2024-09-11T16:23:22Z</time>
      </trkpt>
      <trkpt lat="50.789107019081712" lon="10.818193014711142">
        <ele>443.79000000000002</ele>
        <time>2024-09-11T16:23:32Z</time>
      </trkpt>
      <trkpt lat="50.790390037000179" lon="10.820480016991496">
        <ele>440.42000000000002</ele>
        <time>2024-09-11T16:23:39Z</time>
      </trkpt>
      <trkpt lat="50.791442971676588" lon="10.822150027379394">
        <ele>437.54000000000002</ele>
        <time>2024-09-11T16:23:45Z</time>
      </trkpt>
      <trkpt lat="50.791672971099615" lon="10.822728965431452">
        <ele>436.10000000000002</ele>
        <time>2024-09-11T16:23:47Z</time>
      </trkpt>
      <trkpt lat="50.79260503873229" lon="10.825959015637636">
        <ele>432.73000000000002</ele>
        <time>2024-09-11T16:23:56Z</time>
      </trkpt>
      <trkpt lat="50.793528975918889" lon="10.828749015927315">
        <ele>432.25</ele>
        <time>2024-09-11T16:24:04Z</time>
      </trkpt>
      <trkpt lat="50.794448973610997" lon="10.830723037943244">
        <ele>430.32999999999998</ele>
        <time>2024-09-11T16:24:10Z</time>
      </trkpt>
      <trkpt lat="50.796016976237297" lon="10.833495017141104">
        <ele>426.48000000000002</ele>
        <time>2024-09-11T16:24:19Z</time>
      </trkpt>
      <trkpt lat="50.797291025519371" lon="10.835445988923311">
        <ele>425.04000000000002</ele>
        <time>2024-09-11T16:24:26Z</time>
      </trkpt>
      <trkpt lat="50.797700984403491" lon="10.835820995271206">
        <ele>424.56</ele>
        <time>2024-09-11T16:24:28Z</time>
      </trkpt>
      <trkpt lat="50.797921009361744" lon="10.835984023287892">
        <ele>424.56</ele>
        <time>2024-09-11T16:24:29Z</time>
      </trkpt>
      <trkpt lat="50.799561012536287" lon="10.837192023172975">
        <ele>422.16000000000003</ele>
        <time>2024-09-11T16:24:36Z</time>
      </trkpt>
      <trkpt lat="50.800728024914861" lon="10.837943041697145">
        <ele>419.75</ele>
        <time>2024-09-11T16:24:42Z</time>
      </trkpt>
      <trkpt lat="50.802142973989248" lon="10.838791038841009">
        <ele>415.91000000000003</ele>
        <time>2024-09-11T16:24:50Z</time>
      </trkpt>
      <trkpt lat="50.802471963688731" lon="10.839120028540492">
        <ele>414.94999999999999</ele>
        <time>2024-09-11T16:24:52Z</time>
      </trkpt>
      <trkpt lat="50.803377963602543" lon="10.840459037572145">
        <ele>411.57999999999998</ele>
        <time>2024-09-11T16:24:58Z</time>
      </trkpt>
      <trkpt lat="50.804075002670288" lon="10.84180299192667">
        <ele>408.69999999999999</ele>
        <time>2024-09-11T16:25:03Z</time>
      </trkpt>
      <trkpt lat="50.80448797903955" lon="10.842610001564026">
        <ele>406.76999999999998</ele>
        <time>2024-09-11T16:25:06Z</time>
      </trkpt>
      <trkpt lat="50.804671039804816" lon="10.84287797100842">
        <ele>405.32999999999998</ele>
        <time>2024-09-11T16:25:07Z</time>
      </trkpt>
      <trkpt lat="50.804837001487613" lon="10.843120962381363">
        <ele>404.37</ele>
        <time>2024-09-11T16:25:08Z</time>
      </trkpt>
      <trkpt lat="50.804975973442197" lon="10.843387003988028">
        <ele>402.93000000000001</ele>
        <time>2024-09-11T16:25:09Z</time>
      </trkpt>
      <trkpt lat="50.805073035880923" lon="10.843592025339603">
        <ele>401.97000000000003</ele>
        <time>2024-09-11T16:25:10Z</time>
      </trkpt>
      <trkpt lat="50.805182000622153" lon="10.84386401809752">
        <ele>400.52999999999997</ele>
        <time>2024-09-11T16:25:11Z</time>
      </trkpt>
      <trkpt lat="50.805258024483919" lon="10.84414598532021">
        <ele>399.07999999999998</ele>
        <time>2024-09-11T16:25:12Z</time>
      </trkpt>
      <trkpt lat="50.805328013375401" lon="10.844431975856423">
        <ele>397.63999999999999</ele>
        <time>2024-09-11T16:25:13Z</time>
      </trkpt>
      <trkpt lat="50.805395990610123" lon="10.844714026898146">
        <ele>396.19999999999999</ele>
        <time>2024-09-11T16:25:14Z</time>
      </trkpt>
      <trkpt lat="50.805975012481213" lon="10.846691988408566">
        <ele>392.36000000000001</ele>
        <time>2024-09-11T16:25:21Z</time>
      </trkpt>
      <trkpt lat="50.806097975000739" lon="10.846963981166482">
        <ele>391.87</ele>
        <time>2024-09-11T16:25:22Z</time>
      </trkpt>
      <trkpt lat="50.806368039920926" lon="10.847449963912368">
        <ele>389.94999999999999</ele>
        <time>2024-09-11T16:25:24Z</time>
      </trkpt>
      <trkpt lat="50.806510029360652" lon="10.847595976665616">
        <ele>389.47000000000003</ele>
        <time>2024-09-11T16:25:25Z</time>
      </trkpt>
      <trkpt lat="50.806666016578674" lon="10.847741989418864">
        <ele>388.50999999999999</ele>
        <time>2024-09-11T16:25:26Z</time>
      </trkpt>
      <trkpt lat="50.806845976039767" lon="10.847851037979126">
        <ele>387.55000000000001</ele>
        <time>2024-09-11T16:25:27Z</time>
      </trkpt>
      <trkpt lat="50.807047979906201" lon="10.847938964143395">
        <ele>387.06999999999999</ele>
        <time>2024-09-11T16:25:28Z</time>
      </trkpt>
      <trkpt lat="50.807256018742919" lon="10.848030997440219">
        <ele>386.11000000000001</ele>
        <time>2024-09-11T16:25:29Z</time>
      </trkpt>
      <trkpt lat="50.808023968711495" lon="10.848392006009817">
        <ele>383.69999999999999</ele>
        <time>2024-09-11T16:25:33Z</time>
      </trkpt>
      <trkpt lat="50.808179033920169" lon="10.8485690318048">
        <ele>383.22000000000003</ele>
        <time>2024-09-11T16:25:34Z</time>
      </trkpt>
      <trkpt lat="50.808338960632682" lon="10.848751002922654">
        <ele>382.74000000000001</ele>
        <time>2024-09-11T16:25:35Z</time>
      </trkpt>
      <trkpt lat="50.808499976992607" lon="10.848933979868889">
        <ele>382.74000000000001</ele>
        <time>2024-09-11T16:25:36Z</time>
      </trkpt>
      <trkpt lat="50.808659987524152" lon="10.849151993170381">
        <ele>382.25999999999999</ele>
        <time>2024-09-11T16:25:37Z</time>
      </trkpt>
      <trkpt lat="50.808925023302436" lon="10.849665971472859">
        <ele>382.25999999999999</ele>
        <time>2024-09-11T16:25:39Z</time>
      </trkpt>
      <trkpt lat="50.809031976386905" lon="10.849961014464498">
        <ele>381.77999999999997</ele>
        <time>2024-09-11T16:25:40Z</time>
      </trkpt>
      <trkpt lat="50.809349985793233" lon="10.850866008549929">
        <ele>379.86000000000001</ele>
        <time>2024-09-11T16:25:43Z</time>
      </trkpt>
      <trkpt lat="50.809495998546481" lon="10.851114029064775">
        <ele>378.42000000000002</ele>
        <time>2024-09-11T16:25:44Z</time>
      </trkpt>
      <trkpt lat="50.809650979936123" lon="10.851356014609337">
        <ele>377.44999999999999</ele>
        <time>2024-09-11T16:25:45Z</time>
      </trkpt>
      <trkpt lat="50.810205023735762" lon="10.851959008723497">
        <ele>373.61000000000001</ele>
        <time>2024-09-11T16:25:48Z</time>
      </trkpt>
      <trkpt lat="50.810842970386147" lon="10.852390006184578">
        <ele>370.73000000000002</ele>
        <time>2024-09-11T16:25:51Z</time>
      </trkpt>
      <trkpt lat="50.81209497526288" lon="10.853215958923101">
        <ele>364.95999999999998</ele>
        <time>2024-09-11T16:25:57Z</time>
      </trkpt>
      <trkpt lat="50.812253979966044" lon="10.853403965011239">
        <ele>364</ele>
        <time>2024-09-11T16:25:58Z</time>
      </trkpt>
      <trkpt lat="50.812518009915948" lon="10.85383202880621">
        <ele>362.55000000000001</ele>
        <time>2024-09-11T16:26:00Z</time>
      </trkpt>
      <trkpt lat="50.812648013234138" lon="10.854126987978816">
        <ele>361.58999999999997</ele>
        <time>2024-09-11T16:26:01Z</time>
      </trkpt>
      <trkpt lat="50.812763012945652" lon="10.854420019313693">
        <ele>360.14999999999998</ele>
        <time>2024-09-11T16:26:02Z</time>
      </trkpt>
      <trkpt lat="50.813234997913241" lon="10.856404015794396">
        <ele>353.42000000000002</ele>
        <time>2024-09-11T16:26:09Z</time>
      </trkpt>
      <trkpt lat="50.813273973762989" lon="10.856702998280525">
        <ele>352.45999999999998</ele>
        <time>2024-09-11T16:26:10Z</time>
      </trkpt>
      <trkpt lat="50.813454017043114" lon="10.85789498873055">
        <ele>348.13</ele>
        <time>2024-09-11T16:26:14Z</time>
      </trkpt>
      <trkpt lat="50.813848972320557" lon="10.859670024365187">
        <ele>341.41000000000003</ele>
        <time>2024-09-11T16:26:20Z</time>
      </trkpt>
      <trkpt lat="50.813988028094172" lon="10.86023798212409">
        <ele>339.95999999999998</ele>
        <time>2024-09-11T16:26:22Z</time>
      </trkpt>
      <trkpt lat="50.814059022814035" lon="10.86049497127533">
        <ele>339.48000000000002</ele>
        <time>2024-09-11T16:26:23Z</time>
      </trkpt>
      <trkpt lat="50.814159018918872" lon="10.860721031203866">
        <ele>338.51999999999998</ele>
        <time>2024-09-11T16:26:24Z</time>
      </trkpt>
      <trkpt lat="50.814351970329881" lon="10.861157979816198">
        <ele>337.56</ele>
        <time>2024-09-11T16:26:26Z</time>
      </trkpt>
      <trkpt lat="50.814450038596988" lon="10.861380016431212">
        <ele>336.60000000000002</ele>
        <time>2024-09-11T16:26:27Z</time>
      </trkpt>
      <trkpt lat="50.814501000568271" lon="10.86163398809731">
        <ele>336.12</ele>
        <time>2024-09-11T16:26:28Z</time>
      </trkpt>
      <trkpt lat="50.814537964761257" lon="10.861906986683607">
        <ele>335.16000000000003</ele>
        <time>2024-09-11T16:26:29Z</time>
      </trkpt>
      <trkpt lat="50.814570989459753" lon="10.86219297721982">
        <ele>334.68000000000001</ele>
        <time>2024-09-11T16:26:30Z</time>
      </trkpt>
      <trkpt lat="50.814672997221351" lon="10.863067964091897">
        <ele>333.70999999999998</ele>
        <time>2024-09-11T16:26:33Z</time>
      </trkpt>
      <trkpt lat="50.814704010263085" lon="10.863342974334955">
        <ele>333.23000000000002</ele>
        <time>2024-09-11T16:26:34Z</time>
      </trkpt>
      <trkpt lat="50.815016990527511" lon="10.866054017096758">
        <ele>328.91000000000003</ele>
        <time>2024-09-11T16:26:43Z</time>
      </trkpt>
      <trkpt lat="50.815084967762232" lon="10.866635972633958">
        <ele>327.47000000000003</ele>
        <time>2024-09-11T16:26:45Z</time>
      </trkpt>
      <trkpt lat="50.815115980803967" lon="10.866904025897384">
        <ele>326.99000000000001</ele>
        <time>2024-09-11T16:26:46Z</time>
      </trkpt>
      <trkpt lat="50.815132996067405" lon="10.867199990898371">
        <ele>326.5</ele>
        <time>2024-09-11T16:26:47Z</time>
      </trkpt>
      <trkpt lat="50.815097037702799" lon="10.86773400194943">
        <ele>325.06</ele>
        <time>2024-09-11T16:26:49Z</time>
      </trkpt>
      <trkpt lat="50.815045991912484" lon="10.867975987493992">
        <ele>324.57999999999998</ele>
        <time>2024-09-11T16:26:50Z</time>
      </trkpt>
      <trkpt lat="50.814914982765913" lon="10.868234988301992">
        <ele>323.62</ele>
        <time>2024-09-11T16:26:51Z</time>
      </trkpt>
      <trkpt lat="50.814803000539541" lon="10.868411008268595">
        <ele>322.66000000000003</ele>
        <time>2024-09-11T16:26:52Z</time>
      </trkpt>
      <trkpt lat="50.814690012484789" lon="10.868589961901307">
        <ele>322.18000000000001</ele>
        <time>2024-09-11T16:26:53Z</time>
      </trkpt>
      <trkpt lat="50.814566966146231" lon="10.868782997131348">
        <ele>321.69999999999999</ele>
        <time>2024-09-11T16:26:54Z</time>
      </trkpt>
      <trkpt lat="50.814437968656421" lon="10.868986006826162">
        <ele>321.22000000000003</ele>
        <time>2024-09-11T16:26:55Z</time>
      </trkpt>
      <trkpt lat="50.814308971166611" lon="10.869189016520977">
        <ele>320.74000000000001</ele>
        <time>2024-09-11T16:26:56Z</time>
      </trkpt>
      <trkpt lat="50.813572034239769" lon="10.870473040267825">
        <ele>322.66000000000003</ele>
        <time>2024-09-11T16:27:02Z</time>
      </trkpt>
      <trkpt lat="50.813470026478171" lon="10.870698010548949">
        <ele>322.66000000000003</ele>
        <time>2024-09-11T16:27:03Z</time>
      </trkpt>
      <trkpt lat="50.813356032595038" lon="10.870949970558286">
        <ele>322.18000000000001</ele>
        <time>2024-09-11T16:27:04Z</time>
      </trkpt>
      <trkpt lat="50.813280008733273" lon="10.871177958324552">
        <ele>322.18000000000001</ele>
        <time>2024-09-11T16:27:05Z</time>
      </trkpt>
      <trkpt lat="50.813230974599719" lon="10.871509965509176">
        <ele>321.69999999999999</ele>
        <time>2024-09-11T16:27:06Z</time>
      </trkpt>
      <trkpt lat="50.81321001984179" lon="10.871793022379279">
        <ele>321.69999999999999</ele>
        <time>2024-09-11T16:27:07Z</time>
      </trkpt>
      <trkpt lat="50.81318898126483" lon="10.872073983773589">
        <ele>321.69999999999999</ele>
        <time>2024-09-11T16:27:08Z</time>
      </trkpt>
      <trkpt lat="50.81323298625648" lon="10.872665997594595">
        <ele>322.18000000000001</ele>
        <time>2024-09-11T16:27:10Z</time>
      </trkpt>
      <trkpt lat="50.813328959047794" lon="10.873240996152163">
        <ele>321.69999999999999</ele>
        <time>2024-09-11T16:27:12Z</time>
      </trkpt>
      <trkpt lat="50.813420992344618" lon="10.873505026102066">
        <ele>321.22000000000003</ele>
        <time>2024-09-11T16:27:13Z</time>
      </trkpt>
      <trkpt lat="50.813514031469822" lon="10.873760003596544">
        <ele>321.22000000000003</ele>
        <time>2024-09-11T16:27:14Z</time>
      </trkpt>
      <trkpt lat="50.813994985073805" lon="10.87506297044456">
        <ele>317.85000000000002</ele>
        <time>2024-09-11T16:27:19Z</time>
      </trkpt>
      <trkpt lat="50.814088024199009" lon="10.875310990959406">
        <ele>317.37</ele>
        <time>2024-09-11T16:27:20Z</time>
      </trkpt>
      <trkpt lat="50.814163964241743" lon="10.875565968453884">
        <ele>316.88999999999999</ele>
        <time>2024-09-11T16:27:21Z</time>
      </trkpt>
      <trkpt lat="50.814208975061774" lon="10.875852964818478">
        <ele>316.41000000000003</ele>
        <time>2024-09-11T16:27:22Z</time>
      </trkpt>
      <trkpt lat="50.814253985881805" lon="10.876139961183071">
        <ele>315.93000000000001</ele>
        <time>2024-09-11T16:27:23Z</time>
      </trkpt>
      <trkpt lat="50.81428499892354" lon="10.876431986689568">
        <ele>315.44999999999999</ele>
        <time>2024-09-11T16:27:24Z</time>
      </trkpt>
      <trkpt lat="50.814309976994991" lon="10.877027017995715">
        <ele>314.97000000000003</ele>
        <time>2024-09-11T16:27:26Z</time>
      </trkpt>
      <trkpt lat="50.814272006973624" lon="10.879496997222304">
        <ele>314.49000000000001</ele>
        <time>2024-09-11T16:27:34Z</time>
      </trkpt>
      <trkpt lat="50.814217021688819" lon="10.881867986172438">
        <ele>316.41000000000003</ele>
        <time>2024-09-11T16:27:42Z</time>
      </trkpt>
      <trkpt lat="50.814234958961606" lon="10.882120030000806">
        <ele>315.93000000000001</ele>
        <time>2024-09-11T16:27:43Z</time>
      </trkpt>
      <trkpt lat="50.814278963953257" lon="10.882366038858891">
        <ele>315.44999999999999</ele>
        <time>2024-09-11T16:27:44Z</time>
      </trkpt>
      <trkpt lat="50.814621029421687" lon="10.883615026250482">
        <ele>312.56999999999999</ele>
        <time>2024-09-11T16:27:49Z</time>
      </trkpt>
      <trkpt lat="50.814965022727847" lon="10.885305991396308">
        <ele>312.08999999999997</ele>
        <time>2024-09-11T16:27:55Z</time>
      </trkpt>
      <trkpt lat="50.814965022727847" lon="10.885628024116158">
        <ele>311.60000000000002</ele>
        <time>2024-09-11T16:27:56Z</time>
      </trkpt>
      <trkpt lat="50.815006010234356" lon="10.886973990127444">
        <ele>310.63999999999999</ele>
        <time>2024-09-11T16:28:01Z</time>
      </trkpt>
      <trkpt lat="50.815091002732515" lon="10.887601040303707">
        <ele>309.68000000000001</ele>
        <time>2024-09-11T16:28:04Z</time>
      </trkpt>
      <trkpt lat="50.815315973013639" lon="10.889232996851206">
        <ele>312.56999999999999</ele>
        <time>2024-09-11T16:28:12Z</time>
      </trkpt>
      <trkpt lat="50.815546978265047" lon="10.890905018895864">
        <ele>314.49000000000001</ele>
        <time>2024-09-11T16:28:18Z</time>
      </trkpt>
      <trkpt lat="50.815611016005278" lon="10.891194026917219">
        <ele>314.49000000000001</ele>
        <time>2024-09-11T16:28:19Z</time>
      </trkpt>
      <trkpt lat="50.815712017938495" lon="10.891483034938574">
        <ele>314.49000000000001</ele>
        <time>2024-09-11T16:28:20Z</time>
      </trkpt>
      <trkpt lat="50.815831040963531" lon="10.89173398911953">
        <ele>314.00999999999999</ele>
        <time>2024-09-11T16:28:21Z</time>
      </trkpt>
      <trkpt lat="50.815952997654676" lon="10.89199298992753">
        <ele>314.00999999999999</ele>
        <time>2024-09-11T16:28:22Z</time>
      </trkpt>
      <trkpt lat="50.816080989316106" lon="10.892260959371924">
        <ele>313.52999999999997</ele>
        <time>2024-09-11T16:28:23Z</time>
      </trkpt>
      <trkpt lat="50.817440031096339" lon="10.894544022157788">
        <ele>311.60000000000002</ele>
        <time>2024-09-11T16:28:32Z</time>
      </trkpt>
      <trkpt lat="50.817660978063941" lon="10.894982982426882">
        <ele>311.60000000000002</ele>
        <time>2024-09-11T16:28:34Z</time>
      </trkpt>
      <trkpt lat="50.81774496473372" lon="10.895200995728374">
        <ele>311.60000000000002</ele>
        <time>2024-09-11T16:28:35Z</time>
      </trkpt>
      <trkpt lat="50.817782012745738" lon="10.895382966846228">
        <ele>311.60000000000002</ele>
        <time>2024-09-11T16:28:36Z</time>
      </trkpt>
      <trkpt lat="50.817798022180796" lon="10.895691001787782">
        <ele>311.12</ele>
        <time>2024-09-11T16:28:37Z</time>
      </trkpt>
      <trkpt lat="50.817777989432216" lon="10.895893005654216">
        <ele>312.08999999999997</ele>
        <time>2024-09-11T16:28:38Z</time>
      </trkpt>
      <trkpt lat="50.817749993875623" lon="10.89618201367557">
        <ele>311.60000000000002</ele>
        <time>2024-09-11T16:28:39Z</time>
      </trkpt>
      <trkpt lat="50.81772300414741" lon="10.896458029747009">
        <ele>311.60000000000002</ele>
        <time>2024-09-11T16:28:40Z</time>
      </trkpt>
      <trkpt lat="50.817691991105676" lon="10.896792970597744">
        <ele>311.12</ele>
        <time>2024-09-11T16:28:41Z</time>
      </trkpt>
      <trkpt lat="50.817753011360765" lon="10.89708499610424">
        <ele>311.60000000000002</ele>
        <time>2024-09-11T16:28:42Z</time>
      </trkpt>
      <trkpt lat="50.817819982767105" lon="10.89740602299571">
        <ele>311.60000000000002</ele>
        <time>2024-09-11T16:28:43Z</time>
      </trkpt>
      <trkpt lat="50.818145032972097" lon="10.898687029257417">
        <ele>312.56999999999999</ele>
        <time>2024-09-11T16:28:47Z</time>
      </trkpt>
      <trkpt lat="50.818262966349721" lon="10.898957010358572">
        <ele>312.56999999999999</ele>
        <time>2024-09-11T16:28:48Z</time>
      </trkpt>
      <trkpt lat="50.818391041830182" lon="10.899245012551546">
        <ele>312.08999999999997</ele>
        <time>2024-09-11T16:28:49Z</time>
      </trkpt>
      <trkpt lat="50.819309027865529" lon="10.901021976023912">
        <ele>302.94999999999999</ele>
        <time>2024-09-11T16:28:56Z</time>
      </trkpt>
      <trkpt lat="50.819357978180051" lon="10.901274019852281">
        <ele>301.99000000000001</ele>
        <time>2024-09-11T16:28:57Z</time>
      </trkpt>
      <trkpt lat="50.819410029798746" lon="10.901540983468294">
        <ele>301.02999999999997</ele>
        <time>2024-09-11T16:28:58Z</time>
      </trkpt>
      <trkpt lat="50.81942000426352" lon="10.901825968176126">
        <ele>299.58999999999997</ele>
        <time>2024-09-11T16:28:59Z</time>
      </trkpt>
      <trkpt lat="50.819406006485224" lon="10.902141965925694">
        <ele>298.14999999999998</ele>
        <time>2024-09-11T16:29:00Z</time>
      </trkpt>
      <trkpt lat="50.819391002878547" lon="10.902484031394124">
        <ele>297.18000000000001</ele>
        <time>2024-09-11T16:29:01Z</time>
      </trkpt>
      <trkpt lat="50.81937599927187" lon="10.902833975851536">
        <ele>296.69999999999999</ele>
        <time>2024-09-11T16:29:02Z</time>
      </trkpt>
      <trkpt lat="50.819354960694909" lon="10.904126968234777">
        <ele>294.77999999999997</ele>
        <time>2024-09-11T16:29:06Z</time>
      </trkpt>
      <trkpt lat="50.819407012313604" lon="10.904402984306216">
        <ele>294.30000000000001</ele>
        <time>2024-09-11T16:29:07Z</time>
      </trkpt>
      <trkpt lat="50.819495022296906" lon="10.904643964022398">
        <ele>293.81999999999999</ele>
        <time>2024-09-11T16:29:08Z</time>
      </trkpt>
      <trkpt lat="50.820172028616071" lon="10.906474990770221">
        <ele>289.97000000000003</ele>
        <time>2024-09-11T16:29:14Z</time>
      </trkpt>
      <trkpt lat="50.82036598585546" lon="10.906971031799912">
        <ele>289.00999999999999</ele>
        <time>2024-09-11T16:29:16Z</time>
      </trkpt>
      <trkpt lat="50.820490038022399" lon="10.90709500014782">
        <ele>288.05000000000001</ele>
        <time>2024-09-11T16:29:17Z</time>
      </trkpt>
      <trkpt lat="50.82062004134059" lon="10.907205976545811">
        <ele>286.13</ele>
        <time>2024-09-11T16:29:18Z</time>
      </trkpt>
      <trkpt lat="50.820777034386992" lon="10.907271020114422">
        <ele>283.73000000000002</ele>
        <time>2024-09-11T16:29:19Z</time>
      </trkpt>
      <trkpt lat="50.820950958877802" lon="10.907342014834285">
        <ele>280.83999999999997</ele>
        <time>2024-09-11T16:29:20Z</time>
      </trkpt>
      <trkpt lat="50.821314984932542" lon="10.907547036185861">
        <ele>275.06999999999999</ele>
        <time>2024-09-11T16:29:22Z</time>
      </trkpt>
      <trkpt lat="50.821487987414002" lon="10.907706962898374">
        <ele>272.19</ele>
        <time>2024-09-11T16:29:23Z</time>
      </trkpt>
      <trkpt lat="50.821638023480773" lon="10.907965963706374">
        <ele>269.31</ele>
        <time>2024-09-11T16:29:24Z</time>
      </trkpt>
      <trkpt lat="50.821783030405641" lon="10.908217001706362">
        <ele>266.89999999999998</ele>
        <time>2024-09-11T16:29:25Z</time>
      </trkpt>
      <trkpt lat="50.821928959339857" lon="10.908468961715698">
        <ele>264.01999999999998</ele>
        <time>2024-09-11T16:29:26Z</time>
      </trkpt>
      <trkpt lat="50.82206298597157" lon="10.908700972795486">
        <ele>261.62</ele>
        <time>2024-09-11T16:29:27Z</time>
      </trkpt>
      <trkpt lat="50.822184020653367" lon="10.908910017460585">
        <ele>259.20999999999998</ele>
        <time>2024-09-11T16:29:28Z</time>
      </trkpt>
      <trkpt lat="50.822282005101442" lon="10.909081008285284">
        <ele>256.81</ele>
        <time>2024-09-11T16:29:29Z</time>
      </trkpt>
      <trkpt lat="50.822310000658035" lon="10.909259039908648">
        <ele>255.37</ele>
        <time>2024-09-11T16:29:30Z</time>
      </trkpt>
      <trkpt lat="50.822317963466048" lon="10.909442016854882">
        <ele>253.93000000000001</ele>
        <time>2024-09-11T16:29:31Z</time>
      </trkpt>
      <trkpt lat="50.822290973737836" lon="10.909724989905953">
        <ele>253.44</ele>
        <time>2024-09-11T16:29:32Z</time>
      </trkpt>
      <trkpt lat="50.822260966524482" lon="10.910046016797423">
        <ele>253.44</ele>
        <time>2024-09-11T16:29:33Z</time>
      </trkpt>
      <trkpt lat="50.822211010381579" lon="10.910248020663857">
        <ele>253.44</ele>
        <time>2024-09-11T16:29:34Z</time>
      </trkpt>
      <trkpt lat="50.822152001783252" lon="10.910483971238136">
        <ele>253.44</ele>
        <time>2024-09-11T16:29:35Z</time>
      </trkpt>
      <trkpt lat="50.822088969871402" lon="10.910732997581363">
        <ele>252.96000000000001</ele>
        <time>2024-09-11T16:29:36Z</time>
      </trkpt>
      <trkpt lat="50.822038007900119" lon="10.910824025049806">
        <ele>252.47999999999999</ele>
        <time>2024-09-11T16:29:37Z</time>
      </trkpt>
      <trkpt lat="50.821896018460393" lon="10.911075985059142">
        <ele>251.52000000000001</ele>
        <time>2024-09-11T16:29:38Z</time>
      </trkpt>
      <trkpt lat="50.821797028183937" lon="10.911120995879173">
        <ele>250.56</ele>
        <time>2024-09-11T16:29:39Z</time>
      </trkpt>
      <trkpt lat="50.821615979075432" lon="10.911188973113894">
        <ele>249.59999999999999</ele>
        <time>2024-09-11T16:29:40Z</time>
      </trkpt>
      <trkpt lat="50.821427972987294" lon="10.911215962842107">
        <ele>248.63999999999999</ele>
        <time>2024-09-11T16:29:41Z</time>
      </trkpt>
      <trkpt lat="50.820498000830412" lon="10.911276983097196">
        <ele>243.83000000000001</ele>
        <time>2024-09-11T16:29:46Z</time>
      </trkpt>
      <trkpt lat="50.820264983922243" lon="10.911269020289183">
        <ele>242.87</ele>
        <time>2024-09-11T16:29:47Z</time>
      </trkpt>
      <trkpt lat="50.820097010582685" lon="10.911338003352284">
        <ele>242.38999999999999</ele>
        <time>2024-09-11T16:29:48Z</time>
      </trkpt>
      <trkpt lat="50.819968013092875" lon="10.911461971700191">
        <ele>241.91</ele>
        <time>2024-09-11T16:29:49Z</time>
      </trkpt>
      <trkpt lat="50.819804985076189" lon="10.911577977240086">
        <ele>240.94999999999999</ele>
        <time>2024-09-11T16:29:50Z</time>
      </trkpt>
      <trkpt lat="50.819626031443477" lon="10.911713009700179">
        <ele>239.99000000000001</ele>
        <time>2024-09-11T16:29:51Z</time>
      </trkpt>
      <trkpt lat="50.819407012313604" lon="10.911913001909852">
        <ele>239.02000000000001</ele>
        <time>2024-09-11T16:29:52Z</time>
      </trkpt>
      <trkpt lat="50.819324031472206" lon="10.912153981626034">
        <ele>237.58000000000001</ele>
        <time>2024-09-11T16:29:53Z</time>
      </trkpt>
      <trkpt lat="50.819213977083564" lon="10.912470985203981">
        <ele>237.09999999999999</ele>
        <time>2024-09-11T16:29:54Z</time>
      </trkpt>
      <trkpt lat="50.819192016497254" lon="10.912699978798628">
        <ele>236.62</ele>
        <time>2024-09-11T16:29:55Z</time>
      </trkpt>
      <trkpt lat="50.819170977920294" lon="10.912922015413642">
        <ele>236.13999999999999</ele>
        <time>2024-09-11T16:29:56Z</time>
      </trkpt>
      <trkpt lat="50.819265022873878" lon="10.913167018443346">
        <ele>235.18000000000001</ele>
        <time>2024-09-11T16:29:57Z</time>
      </trkpt>
      <trkpt lat="50.819340040907264" lon="10.913363993167877">
        <ele>234.69999999999999</ele>
        <time>2024-09-11T16:29:58Z</time>
      </trkpt>
      <trkpt lat="50.819440959021449" lon="10.913557028397918">
        <ele>234.22</ele>
        <time>2024-09-11T16:29:59Z</time>
      </trkpt>
      <trkpt lat="50.819556964561343" lon="10.913775963708758">
        <ele>233.74000000000001</ele>
        <time>2024-09-11T16:30:00Z</time>
      </trkpt>
      <trkpt lat="50.820553991943598" lon="10.915897004306316">
        <ele>231.33000000000001</ele>
        <time>2024-09-11T16:30:08Z</time>
      </trkpt>
      <trkpt lat="50.820660023018718" lon="10.916148964315653">
        <ele>231.33000000000001</ele>
        <time>2024-09-11T16:30:09Z</time>
      </trkpt>
      <trkpt lat="50.820747027173638" lon="10.916445013135672">
        <ele>231.33000000000001</ele>
        <time>2024-09-11T16:30:10Z</time>
      </trkpt>
      <trkpt lat="50.820821039378643" lon="10.916761010885239">
        <ele>230.84999999999999</ele>
        <time>2024-09-11T16:30:11Z</time>
      </trkpt>
      <trkpt lat="50.820866972208023" lon="10.917067034170032">
        <ele>231.33000000000001</ele>
        <time>2024-09-11T16:30:12Z</time>
      </trkpt>
      <trkpt lat="50.820916006341577" lon="10.917384037747979">
        <ele>231.81</ele>
        <time>2024-09-11T16:30:13Z</time>
      </trkpt>
      <trkpt lat="50.820957999676466" lon="10.91766600497067">
        <ele>231.81</ele>
        <time>2024-09-11T16:30:14Z</time>
      </trkpt>
      <trkpt lat="50.820994963869452" lon="10.91790497303009">
        <ele>232.78</ele>
        <time>2024-09-11T16:30:15Z</time>
      </trkpt>
      <trkpt lat="50.821056989952922" lon="10.91811996884644">
        <ele>232.78</ele>
        <time>2024-09-11T16:30:16Z</time>
      </trkpt>
      <trkpt lat="50.821164026856422" lon="10.918303029611707">
        <ele>235.18000000000001</ele>
        <time>2024-09-11T16:30:17Z</time>
      </trkpt>
      <trkpt lat="50.821282966062427" lon="10.91850696131587">
        <ele>236.62</ele>
        <time>2024-09-11T16:30:18Z</time>
      </trkpt>
      <trkpt lat="50.821426967158914" lon="10.918752970173955">
        <ele>237.09999999999999</ele>
        <time>2024-09-11T16:30:19Z</time>
      </trkpt>
      <trkpt lat="50.822623986750841" lon="10.920747024938464">
        <ele>236.62</ele>
        <time>2024-09-11T16:30:27Z</time>
      </trkpt>
      <trkpt lat="50.823022965341806" lon="10.921267038211226">
        <ele>238.06</ele>
        <time>2024-09-11T16:30:30Z</time>
      </trkpt>
      <trkpt lat="50.823126984760165" lon="10.921419002115726">
        <ele>237.58000000000001</ele>
        <time>2024-09-11T16:30:31Z</time>
      </trkpt>
      <trkpt lat="50.823183981701732" lon="10.92159703373909">
        <ele>238.53999999999999</ele>
        <time>2024-09-11T16:30:32Z</time>
      </trkpt>
      <trkpt lat="50.823183981701732" lon="10.92179199680686">
        <ele>238.06</ele>
        <time>2024-09-11T16:30:33Z</time>
      </trkpt>
      <trkpt lat="50.823183981701732" lon="10.921995006501675">
        <ele>238.53999999999999</ele>
        <time>2024-09-11T16:30:34Z</time>
      </trkpt>
      <trkpt lat="50.823196973651648" lon="10.922204973176122">
        <ele>238.53999999999999</ele>
        <time>2024-09-11T16:30:35Z</time>
      </trkpt>
      <trkpt lat="50.823237039148808" lon="10.922446036711335">
        <ele>238.53999999999999</ele>
        <time>2024-09-11T16:30:36Z</time>
      </trkpt>
      <trkpt lat="50.823531998321414" lon="10.924138007685542">
        <ele>249.59999999999999</ele>
        <time>2024-09-11T16:30:42Z</time>
      </trkpt>
      <trkpt lat="50.823535015806556" lon="10.924450987949967">
        <ele>250.56</ele>
        <time>2024-09-11T16:30:43Z</time>
      </trkpt>
      <trkpt lat="50.823516994714737" lon="10.924743013456464">
        <ele>251.52000000000001</ele>
        <time>2024-09-11T16:30:44Z</time>
      </trkpt>
      <trkpt lat="50.823484975844622" lon="10.925268977880478">
        <ele>253.44</ele>
        <time>2024-09-11T16:30:46Z</time>
      </trkpt>
      <trkpt lat="50.823521018028259" lon="10.925475005060434">
        <ele>254.41</ele>
        <time>2024-09-11T16:30:47Z</time>
      </trkpt>
      <trkpt lat="50.823569968342781" lon="10.925731994211674">
        <ele>254.88999999999999</ele>
        <time>2024-09-11T16:30:48Z</time>
      </trkpt>
      <trkpt lat="50.82365202717483" lon="10.925879012793303">
        <ele>255.37</ele>
        <time>2024-09-11T16:30:49Z</time>
      </trkpt>
      <trkpt lat="50.82378395833075" lon="10.926117980852723">
        <ele>256.32999999999998</ele>
        <time>2024-09-11T16:30:50Z</time>
      </trkpt>
      <trkpt lat="50.823903987184167" lon="10.926252007484436">
        <ele>256.81</ele>
        <time>2024-09-11T16:30:51Z</time>
      </trkpt>
      <trkpt lat="50.824857009574771" lon="10.927320029586554">
        <ele>256.81</ele>
        <time>2024-09-11T16:30:57Z</time>
      </trkpt>
      <trkpt lat="50.82491903565824" lon="10.927492026239634">
        <ele>256.81</ele>
        <time>2024-09-11T16:30:58Z</time>
      </trkpt>
      <trkpt lat="50.824979972094297" lon="10.927753960713744">
        <ele>257.29000000000002</ele>
        <time>2024-09-11T16:30:59Z</time>
      </trkpt>
      <trkpt lat="50.825009979307652" lon="10.928031988441944">
        <ele>257.29000000000002</ele>
        <time>2024-09-11T16:31:00Z</time>
      </trkpt>
      <trkpt lat="50.825019031763077" lon="10.928363995626569">
        <ele>258.25</ele>
        <time>2024-09-11T16:31:01Z</time>
      </trkpt>
      <trkpt lat="50.825000004842877" lon="10.928663983941078">
        <ele>257.76999999999998</ele>
        <time>2024-09-11T16:31:02Z</time>
      </trkpt>
      <trkpt lat="50.824949964880943" lon="10.928981993347406">
        <ele>257.29000000000002</ele>
        <time>2024-09-11T16:31:03Z</time>
      </trkpt>
      <trkpt lat="50.824868995696306" lon="10.929192965850234">
        <ele>256.81</ele>
        <time>2024-09-11T16:31:04Z</time>
      </trkpt>
      <trkpt lat="50.824721977114677" lon="10.929421037435532">
        <ele>256.32999999999998</ele>
        <time>2024-09-11T16:31:05Z</time>
      </trkpt>
      <trkpt lat="50.824568001553416" lon="10.929562021046877">
        <ele>255.84999999999999</ele>
        <time>2024-09-11T16:31:06Z</time>
      </trkpt>
      <trkpt lat="50.824411008507013" lon="10.929732006043196">
        <ele>254.88999999999999</ele>
        <time>2024-09-11T16:31:07Z</time>
      </trkpt>
      <trkpt lat="50.824290979653597" lon="10.929898973554373">
        <ele>254.41</ele>
        <time>2024-09-11T16:31:08Z</time>
      </trkpt>
      <trkpt lat="50.824181009083986" lon="10.930147999897599">
        <ele>254.41</ele>
        <time>2024-09-11T16:31:09Z</time>
      </trkpt>
      <trkpt lat="50.824085036292672" lon="10.930367019027472">
        <ele>254.41</ele>
        <time>2024-09-11T16:31:10Z</time>
      </trkpt>
      <trkpt lat="50.824062991887331" lon="10.930626019835472">
        <ele>253.93000000000001</ele>
        <time>2024-09-11T16:31:11Z</time>
      </trkpt>
      <trkpt lat="50.824042037129402" lon="10.930882003158331">
        <ele>254.41</ele>
        <time>2024-09-11T16:31:12Z</time>
      </trkpt>
      <trkpt lat="50.82406198605895" lon="10.931148966774344">
        <ele>255.37</ele>
        <time>2024-09-11T16:31:13Z</time>
      </trkpt>
      <trkpt lat="50.824085036292672" lon="10.931447027251124">
        <ele>255.84999999999999</ele>
        <time>2024-09-11T16:31:14Z</time>
      </trkpt>
      <trkpt lat="50.824269019067287" lon="10.932975970208645">
        <ele>259.20999999999998</ele>
        <time>2024-09-11T16:31:20Z</time>
      </trkpt>
      <trkpt lat="50.824299026280642" lon="10.933173028752208">
        <ele>259.20999999999998</ele>
        <time>2024-09-11T16:31:21Z</time>
      </trkpt>
      <trkpt lat="50.824320986866951" lon="10.933305965736508">
        <ele>258.73000000000002</ele>
        <time>2024-09-11T16:31:22Z</time>
      </trkpt>
      <trkpt lat="50.82440497353673" lon="10.933432029560208">
        <ele>258.73000000000002</ele>
        <time>2024-09-11T16:31:23Z</time>
      </trkpt>
      <trkpt lat="50.824492983520031" lon="10.933563960716128">
        <ele>258.25</ele>
        <time>2024-09-11T16:31:24Z</time>
      </trkpt>
      <trkpt lat="50.824586022645235" lon="10.933592040091753">
        <ele>258.25</ele>
        <time>2024-09-11T16:31:25Z</time>
      </trkpt>
      <trkpt lat="50.824706973508" lon="10.933627998456359">
        <ele>258.25</ele>
        <time>2024-09-11T16:31:26Z</time>
      </trkpt>
      <trkpt lat="50.824823984876275" lon="10.933663034811616">
        <ele>257.76999999999998</ele>
        <time>2024-09-11T16:31:27Z</time>
      </trkpt>
      <trkpt lat="50.824937978759408" lon="10.933696981519461">
        <ele>257.76999999999998</ele>
        <time>2024-09-11T16:31:28Z</time>
      </trkpt>
      <trkpt lat="50.82504996098578" lon="10.933731012046337">
        <ele>257.29000000000002</ele>
        <time>2024-09-11T16:31:29Z</time>
      </trkpt>
      <trkpt lat="50.825159009546041" lon="10.933779962360859">
        <ele>257.29000000000002</ele>
        <time>2024-09-11T16:31:30Z</time>
      </trkpt>
      <trkpt lat="50.825287001207471" lon="10.933907032012939">
        <ele>257.29000000000002</ele>
        <time>2024-09-11T16:31:31Z</time>
      </trkpt>
      <trkpt lat="50.825334023684263" lon="10.934029994532466">
        <ele>257.76999999999998</ele>
        <time>2024-09-11T16:31:32Z</time>
      </trkpt>
      <trkpt lat="50.825397977605462" lon="10.934193022549152">
        <ele>257.76999999999998</ele>
        <time>2024-09-11T16:31:33Z</time>
      </trkpt>
      <trkpt lat="50.825579026713967" lon="10.934719992801547">
        <ele>259.69</ele>
        <time>2024-09-11T16:31:36Z</time>
      </trkpt>
      <trkpt lat="50.825637029483914" lon="10.934884026646614">
        <ele>260.17000000000002</ele>
        <time>2024-09-11T16:31:37Z</time>
      </trkpt>
      <trkpt lat="50.825815983116627" lon="10.935393981635571">
        <ele>261.62</ele>
        <time>2024-09-11T16:31:40Z</time>
      </trkpt>
      <trkpt lat="50.825880020856857" lon="10.935537982732058">
        <ele>262.10000000000002</ele>
        <time>2024-09-11T16:31:41Z</time>
      </trkpt>
      <trkpt lat="50.825971970334649" lon="10.935648959130049">
        <ele>262.10000000000002</ele>
        <time>2024-09-11T16:31:42Z</time>
      </trkpt>
      <trkpt lat="50.826066015288234" lon="10.93575800769031">
        <ele>262.10000000000002</ele>
        <time>2024-09-11T16:31:43Z</time>
      </trkpt>
      <trkpt lat="50.826173974201083" lon="10.93584400601685">
        <ele>262.10000000000002</ele>
        <time>2024-09-11T16:31:44Z</time>
      </trkpt>
      <trkpt lat="50.827036974951625" lon="10.93646896071732">
        <ele>264.5</ele>
        <time>2024-09-11T16:31:52Z</time>
      </trkpt>
      <trkpt lat="50.828125029802322" lon="10.937167005613446">
        <ele>268.35000000000002</ele>
        <time>2024-09-11T16:32:02Z</time>
      </trkpt>
      <trkpt lat="50.828472040593624" lon="10.937351994216442">
        <ele>268.82999999999998</ele>
        <time>2024-09-11T16:32:05Z</time>
      </trkpt>
      <trkpt lat="50.828612018376589" lon="10.937426006421447">
        <ele>268.82999999999998</ele>
        <time>2024-09-11T16:32:06Z</time>
      </trkpt>
      <trkpt lat="50.828717965632677" lon="10.937440004199743">
        <ele>269.31</ele>
        <time>2024-09-11T16:32:07Z</time>
      </trkpt>
      <trkpt lat="50.829554982483387" lon="10.93747797422111">
        <ele>270.75</ele>
        <time>2024-09-11T16:32:14Z</time>
      </trkpt>
      <trkpt lat="50.830500964075327" lon="10.93726197257638">
        <ele>272.67000000000002</ele>
        <time>2024-09-11T16:32:22Z</time>
      </trkpt>
      <trkpt lat="50.830833977088332" lon="10.937114031985402">
        <ele>274.11000000000001</ele>
        <time>2024-09-11T16:32:25Z</time>
      </trkpt>
      <trkpt lat="50.830937996506691" lon="10.93706700950861">
        <ele>274.11000000000001</ele>
        <time>2024-09-11T16:32:26Z</time>
      </trkpt>
      <trkpt lat="50.832038959488273" lon="10.936382040381432">
        <ele>276.51999999999998</ele>
        <time>2024-09-11T16:32:36Z</time>
      </trkpt>
      <trkpt lat="50.832153037190437" lon="10.936310039833188">
        <ele>276.51999999999998</ele>
        <time>2024-09-11T16:32:37Z</time>
      </trkpt>
      <trkpt lat="50.832273988053203" lon="10.936281960457563">
        <ele>276.51999999999998</ele>
        <time>2024-09-11T16:32:38Z</time>
      </trkpt>
      <trkpt lat="50.832397034391761" lon="10.936252037063241">
        <ele>276.04000000000002</ele>
        <time>2024-09-11T16:32:39Z</time>
      </trkpt>
      <trkpt lat="50.832517985254526" lon="10.936223035678267">
        <ele>276.04000000000002</ele>
        <time>2024-09-11T16:32:40Z</time>
      </trkpt>
      <trkpt lat="50.832634996622801" lon="10.936203002929687">
        <ele>275.56</ele>
        <time>2024-09-11T16:32:41Z</time>
      </trkpt>
      <trkpt lat="50.832873964682221" lon="10.936203002929687">
        <ele>275.06999999999999</ele>
        <time>2024-09-11T16:32:43Z</time>
      </trkpt>
      <trkpt lat="50.832990976050496" lon="10.936203002929687">
        <ele>275.06999999999999</ele>
        <time>2024-09-11T16:32:44Z</time>
      </trkpt>
      <trkpt lat="50.833111004903913" lon="10.936214989051223">
        <ele>274.58999999999997</ele>
        <time>2024-09-11T16:32:45Z</time>
      </trkpt>
      <trkpt lat="50.833224998787045" lon="10.93625295907259">
        <ele>274.11000000000001</ele>
        <time>2024-09-11T16:32:46Z</time>
      </trkpt>
      <trkpt lat="50.833339998498559" lon="10.936338035389781">
        <ele>273.63</ele>
        <time>2024-09-11T16:32:47Z</time>
      </trkpt>
      <trkpt lat="50.833441000431776" lon="10.936439037322998">
        <ele>273.63</ele>
        <time>2024-09-11T16:32:48Z</time>
      </trkpt>
      <trkpt lat="50.833542002364993" lon="10.936540039256215">
        <ele>273.63</ele>
        <time>2024-09-11T16:32:49Z</time>
      </trkpt>
      <trkpt lat="50.833639986813068" lon="10.936639029532671">
        <ele>273.14999999999998</ele>
        <time>2024-09-11T16:32:50Z</time>
      </trkpt>
      <trkpt lat="50.834650006145239" lon="10.937757007777691">
        <ele>273.63</ele>
        <time>2024-09-11T16:33:00Z</time>
      </trkpt>
      <trkpt lat="50.835648039355874" lon="10.938854031264782">
        <ele>273.14999999999998</ele>
        <time>2024-09-11T16:33:10Z</time>
      </trkpt>
      <trkpt lat="50.836128992959857" lon="10.939391981810331">
        <ele>272.67000000000002</ele>
        <time>2024-09-11T16:33:15Z</time>
      </trkpt>
      <trkpt lat="50.83622102625668" lon="10.93949600122869">
        <ele>272.67000000000002</ele>
        <time>2024-09-11T16:33:16Z</time>
      </trkpt>
      <trkpt lat="50.83688898012042" lon="10.940493028610945">
        <ele>270.75</ele>
        <time>2024-09-11T16:33:24Z</time>
      </trkpt>
      <trkpt lat="50.837115040048957" lon="10.940996026620269">
        <ele>269.31</ele>
        <time>2024-09-11T16:33:31Z</time>
      </trkpt>
      <trkpt lat="50.837125014513731" lon="10.941022010520101">
        <ele>269.31</ele>
        <time>2024-09-11T16:33:39Z</time>
      </trkpt>
      <trkpt lat="50.837125014513731" lon="10.941022010520101">
        <ele>269.31</ele>
        <time>2024-09-11T16:34:16Z</time>
      </trkpt>
      <trkpt lat="50.837150998413563" lon="10.941087976098061">
        <ele>268.82999999999998</ele>
        <time>2024-09-11T16:34:20Z</time>
      </trkpt>
      <trkpt lat="50.837392983958125" lon="10.941866990178823">
        <ele>266.89999999999998</ele>
        <time>2024-09-11T16:34:26Z</time>
      </trkpt>
      <trkpt lat="50.837546037510037" lon="10.942571992054582">
        <ele>265.94</ele>
        <time>2024-09-11T16:34:30Z</time>
      </trkpt>
      <trkpt lat="50.837851976975799" lon="10.944017032161355">
        <ele>267.38</ele>
        <time>2024-09-11T16:34:38Z</time>
      </trkpt>
      <trkpt lat="50.837880978360772" lon="10.944167990237474">
        <ele>266.89999999999998</ele>
        <time>2024-09-11T16:34:39Z</time>
      </trkpt>
      <trkpt lat="50.837934035807848" lon="10.944441994652152">
        <ele>266.42000000000002</ele>
        <time>2024-09-11T16:34:41Z</time>
      </trkpt>
      <trkpt lat="50.838027996942401" lon="10.944933006539941">
        <ele>265.94</ele>
        <time>2024-09-11T16:34:47Z</time>
      </trkpt>
      <trkpt lat="50.838048029690981" lon="10.945050017908216">
        <ele>266.42000000000002</ele>
        <time>2024-09-11T16:34:56Z</time>
      </trkpt>
      <trkpt lat="50.838115001097322" lon="10.945428041741252">
        <ele>267.38</ele>
        <time>2024-09-11T16:35:23Z</time>
      </trkpt>
      <trkpt lat="50.838242992758751" lon="10.946108987554908">
        <ele>269.31</ele>
        <time>2024-09-11T16:35:29Z</time>
      </trkpt>
      <trkpt lat="50.838265959173441" lon="10.946245025843382">
        <ele>269.31</ele>
        <time>2024-09-11T16:35:30Z</time>
      </trkpt>
      <trkpt lat="50.838387999683619" lon="10.946965031325817">
        <ele>269.79000000000002</ele>
        <time>2024-09-11T16:35:35Z</time>
      </trkpt>
      <trkpt lat="50.838410966098309" lon="10.947102997452021">
        <ele>270.26999999999998</ele>
        <time>2024-09-11T16:35:36Z</time>
      </trkpt>
      <trkpt lat="50.838435022160411" lon="10.947243981063366">
        <ele>270.75</ele>
        <time>2024-09-11T16:35:37Z</time>
      </trkpt>
      <trkpt lat="50.838457988575101" lon="10.947385970503092">
        <ele>271.23000000000002</ele>
        <time>2024-09-11T16:35:38Z</time>
      </trkpt>
      <trkpt lat="50.838481960818172" lon="10.947524020448327">
        <ele>271.70999999999998</ele>
        <time>2024-09-11T16:35:39Z</time>
      </trkpt>
      <trkpt lat="50.838602995499969" lon="10.948452986776829">
        <ele>273.14999999999998</ele>
        <time>2024-09-11T16:35:47Z</time>
      </trkpt>
      <trkpt lat="50.838630991056561" lon="10.948721962049603">
        <ele>273.63</ele>
        <time>2024-09-11T16:35:54Z</time>
      </trkpt>
      <trkpt lat="50.838630991056561" lon="10.948721962049603">
        <ele>273.63</ele>
        <time>2024-09-11T16:35:59Z</time>
      </trkpt>
      <trkpt lat="50.838626967743039" lon="10.948787005618215">
        <ele>273.14999999999998</ele>
        <time>2024-09-11T16:36:00Z</time>
      </trkpt>
      <trkpt lat="50.83862503990531" lon="10.948827993124723">
        <ele>273.63</ele>
        <time>2024-09-11T16:36:01Z</time>
      </trkpt>
      <trkpt lat="50.838614981621504" lon="10.948980962857604">
        <ele>274.11000000000001</ele>
        <time>2024-09-11T16:36:06Z</time>
      </trkpt>
      <trkpt lat="50.838611964136362" lon="10.94903502613306">
        <ele>274.11000000000001</ele>
        <time>2024-09-11T16:36:07Z</time>
      </trkpt>
      <trkpt lat="50.838485984131694" lon="10.949167963117361">
        <ele>274.11000000000001</ele>
        <time>2024-09-11T16:36:08Z</time>
      </trkpt>
      <trkpt lat="50.838497970253229" lon="10.949262008070946">
        <ele>274.58999999999997</ele>
        <time>2024-09-11T16:36:09Z</time>
      </trkpt>
      <trkpt lat="50.838539963588119" lon="10.949350018054247">
        <ele>274.58999999999997</ele>
        <time>2024-09-11T16:36:10Z</time>
      </trkpt>
      <trkpt lat="50.83858598023653" lon="10.949395028874278">
        <ele>274.58999999999997</ele>
        <time>2024-09-11T16:36:11Z</time>
      </trkpt>
      <trkpt lat="50.838697962462902" lon="10.949270976707339">
        <ele>274.58999999999997</ele>
        <time>2024-09-11T16:36:12Z</time>
      </trkpt>
      <trkpt lat="50.83875797688961" lon="10.949306013062596">
        <ele>274.58999999999997</ele>
        <time>2024-09-11T16:36:13Z</time>
      </trkpt>
      <trkpt lat="50.838836012408137" lon="10.949351023882627">
        <ele>274.58999999999997</ele>
        <time>2024-09-11T16:36:14Z</time>
      </trkpt>
      <trkpt lat="50.838922010734677" lon="10.94940098002553">
        <ele>274.11000000000001</ele>
        <time>2024-09-11T16:36:15Z</time>
      </trkpt>
      <trkpt lat="50.839791968464851" lon="10.949892997741699">
        <ele>271.70999999999998</ele>
        <time>2024-09-11T16:36:24Z</time>
      </trkpt>
      <trkpt lat="50.83989498205483" lon="10.949955023825169">
        <ele>270.75</ele>
        <time>2024-09-11T16:36:25Z</time>
      </trkpt>
      <trkpt lat="50.840011993423104" lon="10.950016966089606">
        <ele>270.26999999999998</ele>
        <time>2024-09-11T16:36:26Z</time>
      </trkpt>
      <trkpt lat="50.840250961482525" lon="10.950143029913306">
        <ele>268.82999999999998</ele>
        <time>2024-09-11T16:36:28Z</time>
      </trkpt>
      <trkpt lat="50.840365961194038" lon="10.950200026854873">
        <ele>268.35000000000002</ele>
        <time>2024-09-11T16:36:29Z</time>
      </trkpt>
      <trkpt lat="50.840478027239442" lon="10.950251994654536">
        <ele>267.86000000000001</ele>
        <time>2024-09-11T16:36:30Z</time>
      </trkpt>
      <trkpt lat="50.840723030269146" lon="10.950365988537669">
        <ele>266.42000000000002</ele>
        <time>2024-09-11T16:36:33Z</time>
      </trkpt>
      <trkpt lat="50.840768963098526" lon="10.95038803294301">
        <ele>265.94</ele>
        <time>2024-09-11T16:36:34Z</time>
      </trkpt>
      <trkpt lat="50.840802993625402" lon="10.950403036549687">
        <ele>265.45999999999998</ele>
        <time>2024-09-11T16:36:35Z</time>
      </trkpt>
      <trkpt lat="50.840827971696854" lon="10.950415022671223">
        <ele>264.98000000000002</ele>
        <time>2024-09-11T16:36:36Z</time>
      </trkpt>
      <trkpt lat="50.840854961425066" lon="10.950428014621139">
        <ele>264.5</ele>
        <time>2024-09-11T16:36:37Z</time>
      </trkpt>
      <trkpt lat="50.840887986123562" lon="10.950443018227816">
        <ele>264.5</ele>
        <time>2024-09-11T16:36:38Z</time>
      </trkpt>
      <trkpt lat="50.840936014428735" lon="10.950465984642506">
        <ele>264.5</ele>
        <time>2024-09-11T16:36:39Z</time>
      </trkpt>
      <trkpt lat="50.840992005541921" lon="10.950493980199099">
        <ele>264.01999999999998</ele>
        <time>2024-09-11T16:36:40Z</time>
      </trkpt>
      <trkpt lat="50.84105595946312" lon="10.950529016554356">
        <ele>264.01999999999998</ele>
        <time>2024-09-11T16:36:41Z</time>
      </trkpt>
      <trkpt lat="50.841181017458439" lon="10.950594982132316">
        <ele>264.01999999999998</ele>
        <time>2024-09-11T16:36:43Z</time>
      </trkpt>
      <trkpt lat="50.841930024325848" lon="10.951010975986719">
        <ele>265.94</ele>
        <time>2024-09-11T16:36:52Z</time>
      </trkpt>
      <trkpt lat="50.842183995991945" lon="10.951156988739967">
        <ele>266.89999999999998</ele>
        <time>2024-09-11T16:36:55Z</time>
      </trkpt>
      <trkpt lat="50.843380009755492" lon="10.951815973967314">
        <ele>268.35000000000002</ele>
        <time>2024-09-11T16:37:07Z</time>
      </trkpt>
      <trkpt lat="50.844141002744436" lon="10.952204978093505">
        <ele>268.35000000000002</ele>
        <time>2024-09-11T16:37:15Z</time>
      </trkpt>
      <trkpt lat="50.845018001273274" lon="10.952676041051745">
        <ele>267.38</ele>
        <time>2024-09-11T16:37:26Z</time>
      </trkpt>
      <trkpt lat="50.845211036503315" lon="10.952775031328201">
        <ele>266.89999999999998</ele>
        <time>2024-09-11T16:37:29Z</time>
      </trkpt>
      <trkpt lat="50.845261998474598" lon="10.952801015228033">
        <ele>266.42000000000002</ele>
        <time>2024-09-11T16:37:30Z</time>
      </trkpt>
      <trkpt lat="50.845379009842873" lon="10.952862035483122">
        <ele>265.45999999999998</ele>
        <time>2024-09-11T16:37:38Z</time>
      </trkpt>
      <trkpt lat="50.845553018152714" lon="10.952950967475772">
        <ele>268.35000000000002</ele>
        <time>2024-09-11T16:38:07Z</time>
      </trkpt>
      <trkpt lat="50.845970017835498" lon="10.953175015747547">
        <ele>266.89999999999998</ele>
        <time>2024-09-11T16:38:13Z</time>
      </trkpt>
      <trkpt lat="50.84614796563983" lon="10.953269982710481">
        <ele>267.86000000000001</ele>
        <time>2024-09-11T16:38:15Z</time>
      </trkpt>
      <trkpt lat="50.847210958600044" lon="10.953822014853358">
        <ele>269.79000000000002</ele>
        <time>2024-09-11T16:38:25Z</time>
      </trkpt>
      <trkpt lat="50.848513003438711" lon="10.954532967880368">
        <ele>269.79000000000002</ele>
        <time>2024-09-11T16:38:37Z</time>
      </trkpt>
      <trkpt lat="50.849425960332155" lon="10.95502900891006">
        <ele>268.35000000000002</ele>
        <time>2024-09-11T16:38:46Z</time>
      </trkpt>
      <trkpt lat="50.850557014346123" lon="10.955640971660614">
        <ele>266.89999999999998</ele>
        <time>2024-09-11T16:38:56Z</time>
      </trkpt>
      <trkpt lat="50.852043963968754" lon="10.956438006833196">
        <ele>265.45999999999998</ele>
        <time>2024-09-11T16:39:09Z</time>
      </trkpt>
      <trkpt lat="50.852197017520666" lon="10.956521993502975">
        <ele>265.45999999999998</ele>
        <time>2024-09-11T16:39:11Z</time>
      </trkpt>
      <trkpt lat="50.852258959785104" lon="10.956717040389776">
        <ele>264.98000000000002</ele>
        <time>2024-09-11T16:39:12Z</time>
      </trkpt>
      <trkpt lat="50.852396003901958" lon="10.956744030117989">
        <ele>264.98000000000002</ele>
        <time>2024-09-11T16:39:14Z</time>
      </trkpt>
      <trkpt lat="50.852430034428835" lon="10.956737995147705">
        <ele>264.98000000000002</ele>
        <time>2024-09-11T16:39:15Z</time>
      </trkpt>
      <trkpt lat="50.852659028023481" lon="10.956763979047537">
        <ele>264.98000000000002</ele>
        <time>2024-09-11T16:39:17Z</time>
      </trkpt>
      <trkpt lat="50.852759024128318" lon="10.956818964332342">
        <ele>264.98000000000002</ele>
        <time>2024-09-11T16:39:18Z</time>
      </trkpt>
      <trkpt lat="50.853762002661824" lon="10.957362027838826">
        <ele>262.57999999999998</ele>
        <time>2024-09-11T16:39:27Z</time>
      </trkpt>
      <trkpt lat="50.854917028918862" lon="10.957987988367677">
        <ele>263.06</ele>
        <time>2024-09-11T16:39:37Z</time>
      </trkpt>
      <trkpt lat="50.855653965845704" lon="10.958387972787023">
        <ele>262.57999999999998</ele>
        <time>2024-09-11T16:39:45Z</time>
      </trkpt>
      <trkpt lat="50.855751028284431" lon="10.958440024405718">
        <ele>262.10000000000002</ele>
        <time>2024-09-11T16:39:47Z</time>
      </trkpt>
      <trkpt lat="50.855778018012643" lon="10.958455028012395">
        <ele>261.62</ele>
        <time>2024-09-11T16:39:48Z</time>
      </trkpt>
      <trkpt lat="50.855857981368899" lon="10.958685027435422">
        <ele>261.62</ele>
        <time>2024-09-11T16:39:50Z</time>
      </trkpt>
      <trkpt lat="50.855927970260382" lon="10.958690978586674">
        <ele>261.62</ele>
        <time>2024-09-11T16:39:51Z</time>
      </trkpt>
      <trkpt lat="50.855927970260382" lon="10.958690978586674">
        <ele>261.13999999999999</ele>
        <time>2024-09-11T16:39:52Z</time>
      </trkpt>
      <trkpt lat="50.856035007163882" lon="10.95861897803843">
        <ele>261.13999999999999</ele>
        <time>2024-09-11T16:39:53Z</time>
      </trkpt>
      <trkpt lat="50.856077000498772" lon="10.958643034100533">
        <ele>260.64999999999998</ele>
        <time>2024-09-11T16:39:54Z</time>
      </trkpt>
      <trkpt lat="50.856140032410622" lon="10.958678992465138">
        <ele>260.64999999999998</ele>
        <time>2024-09-11T16:39:55Z</time>
      </trkpt>
      <trkpt lat="50.856221001595259" lon="10.95872400328517">
        <ele>260.64999999999998</ele>
        <time>2024-09-11T16:39:56Z</time>
      </trkpt>
      <trkpt lat="50.856711007654667" lon="10.958986021578312">
        <ele>261.13999999999999</ele>
        <time>2024-09-11T16:40:02Z</time>
      </trkpt>
      <trkpt lat="50.85682600736618" lon="10.959047041833401">
        <ele>261.13999999999999</ele>
        <time>2024-09-11T16:40:04Z</time>
      </trkpt>
      <trkpt lat="50.85688803344965" lon="10.959079982712865">
        <ele>261.13999999999999</ele>
        <time>2024-09-11T16:40:05Z</time>
      </trkpt>
      <trkpt lat="50.856959028169513" lon="10.959118036553264">
        <ele>261.13999999999999</ele>
        <time>2024-09-11T16:40:06Z</time>
      </trkpt>
      <trkpt lat="50.857853963971138" lon="10.959589015692472">
        <ele>261.13999999999999</ele>
        <time>2024-09-11T16:40:16Z</time>
      </trkpt>
      <trkpt lat="50.858557038009167" lon="10.959951030090451">
        <ele>261.13999999999999</ele>
        <time>2024-09-11T16:40:24Z</time>
      </trkpt>
      <trkpt lat="50.858590984717011" lon="10.959967961534858">
        <ele>261.13999999999999</ele>
        <time>2024-09-11T16:40:25Z</time>
      </trkpt>
      <trkpt lat="50.858643958345056" lon="10.959997968748212">
        <ele>261.13999999999999</ele>
        <time>2024-09-11T16:40:34Z</time>
      </trkpt>
      <trkpt lat="50.858926009386778" lon="10.960159990936518">
        <ele>262.10000000000002</ele>
        <time>2024-09-11T16:40:50Z</time>
      </trkpt>
      <trkpt lat="50.85991901345551" lon="10.960707999765873">
        <ele>263.06</ele>
        <time>2024-09-11T16:40:59Z</time>
      </trkpt>
      <trkpt lat="50.861058030277491" lon="10.961314011365175">
        <ele>259.69</ele>
        <time>2024-09-11T16:41:08Z</time>
      </trkpt>
      <trkpt lat="50.863113021478057" lon="10.962455039843917">
        <ele>256.32999999999998</ele>
        <time>2024-09-11T16:41:20Z</time>
      </trkpt>
      <trkpt lat="50.865816017612815" lon="10.963894966989756">
        <ele>252.96000000000001</ele>
        <time>2024-09-11T16:41:36Z</time>
      </trkpt>
      <trkpt lat="50.868278034031391" lon="10.965231964364648">
        <ele>251.03999999999999</ele>
        <time>2024-09-11T16:41:51Z</time>
      </trkpt>
      <trkpt lat="50.869922982528806" lon="10.96611499786377">
        <ele>250.08000000000001</ele>
        <time>2024-09-11T16:42:02Z</time>
      </trkpt>
      <trkpt lat="50.870954962447286" lon="10.966682033613324">
        <ele>246.72</ele>
        <time>2024-09-11T16:42:11Z</time>
      </trkpt>
      <trkpt lat="50.8717140275985" lon="10.967154018580914">
        <ele>242.38999999999999</ele>
        <time>2024-09-11T16:42:18Z</time>
      </trkpt>
      <trkpt lat="50.872461022809148" lon="10.967736979946494">
        <ele>239.50999999999999</ele>
        <time>2024-09-11T16:42:25Z</time>
      </trkpt>
      <trkpt lat="50.872547021135688" lon="10.96783303655684">
        <ele>239.50999999999999</ele>
        <time>2024-09-11T16:42:26Z</time>
      </trkpt>
      <trkpt lat="50.87263603694737" lon="10.967954993247986">
        <ele>239.50999999999999</ele>
        <time>2024-09-11T16:42:27Z</time>
      </trkpt>
      <trkpt lat="50.872711976990104" lon="10.968088014051318">
        <ele>239.02000000000001</ele>
        <time>2024-09-11T16:42:28Z</time>
      </trkpt>
      <trkpt lat="50.872775008901954" lon="10.968246012926102">
        <ele>238.53999999999999</ele>
        <time>2024-09-11T16:42:29Z</time>
      </trkpt>
      <trkpt lat="50.873188991099596" lon="10.968976998701692">
        <ele>236.62</ele>
        <time>2024-09-11T16:42:34Z</time>
      </trkpt>
      <trkpt lat="50.873298039659858" lon="10.969066014513373">
        <ele>236.62</ele>
        <time>2024-09-11T16:42:35Z</time>
      </trkpt>
      <trkpt lat="50.873404992744327" lon="10.969154024496675">
        <ele>236.62</ele>
        <time>2024-09-11T16:42:36Z</time>
      </trkpt>
      <trkpt lat="50.873514041304588" lon="10.969243962317705">
        <ele>236.13999999999999</ele>
        <time>2024-09-11T16:42:37Z</time>
      </trkpt>
      <trkpt lat="50.873633986338973" lon="10.969304982572794">
        <ele>235.66</ele>
        <time>2024-09-11T16:42:38Z</time>
      </trkpt>
      <trkpt lat="50.873752003535628" lon="10.969355022534728">
        <ele>235.66</ele>
        <time>2024-09-11T16:42:39Z</time>
      </trkpt>
      <trkpt lat="50.873870020732284" lon="10.96940497867763">
        <ele>235.18000000000001</ele>
        <time>2024-09-11T16:42:40Z</time>
      </trkpt>
      <trkpt lat="50.875050025060773" lon="10.969808986410499">
        <ele>232.30000000000001</ele>
        <time>2024-09-11T16:42:50Z</time>
      </trkpt>
      <trkpt lat="50.875690989196301" lon="10.970106041058898">
        <ele>230.84999999999999</ele>
        <time>2024-09-11T16:42:56Z</time>
      </trkpt>
      <trkpt lat="50.875690989196301" lon="10.970106041058898">
        <ele>230.84999999999999</ele>
        <time>2024-09-11T16:42:57Z</time>
      </trkpt>
      <trkpt lat="50.875755026936531" lon="10.97017602995038">
        <ele>230.37</ele>
        <time>2024-09-11T16:42:58Z</time>
      </trkpt>
      <trkpt lat="50.875789979472756" lon="10.970213999971747">
        <ele>230.37</ele>
        <time>2024-09-11T16:42:59Z</time>
      </trkpt>
      <trkpt lat="50.875835996121168" lon="10.970263034105301">
        <ele>229.88999999999999</ele>
        <time>2024-09-11T16:43:00Z</time>
      </trkpt>
      <trkpt lat="50.875893998891115" lon="10.9703269880265">
        <ele>229.88999999999999</ele>
        <time>2024-09-11T16:43:01Z</time>
      </trkpt>
      <trkpt lat="50.876672007143497" lon="10.971155036240816">
        <ele>228.44999999999999</ele>
        <time>2024-09-11T16:43:10Z</time>
      </trkpt>
      <trkpt lat="50.877405004575849" lon="10.971840005367994">
        <ele>226.53</ele>
        <time>2024-09-11T16:43:17Z</time>
      </trkpt>
      <trkpt lat="50.877526039257646" lon="10.971891973167658">
        <ele>226.05000000000001</ele>
        <time>2024-09-11T16:43:18Z</time>
      </trkpt>
      <trkpt lat="50.877641960978508" lon="10.971907982602715">
        <ele>225.56999999999999</ele>
        <time>2024-09-11T16:43:19Z</time>
      </trkpt>
      <trkpt lat="50.878120986744761" lon="10.971998004242778">
        <ele>224.61000000000001</ele>
        <time>2024-09-11T16:43:23Z</time>
      </trkpt>
      <trkpt lat="50.878219977021217" lon="10.972089031711221">
        <ele>224.61000000000001</ele>
        <time>2024-09-11T16:43:24Z</time>
      </trkpt>
      <trkpt lat="50.878317961469293" lon="10.972179975360632">
        <ele>224.61000000000001</ele>
        <time>2024-09-11T16:43:25Z</time>
      </trkpt>
      <trkpt lat="50.878408988937736" lon="10.972295980900526">
        <ele>224.61000000000001</ele>
        <time>2024-09-11T16:43:26Z</time>
      </trkpt>
      <trkpt lat="50.878485012799501" lon="10.972435036674142">
        <ele>224.61000000000001</ele>
        <time>2024-09-11T16:43:27Z</time>
      </trkpt>
      <trkpt lat="50.878562964498997" lon="10.972576020285487">
        <ele>224.61000000000001</ele>
        <time>2024-09-11T16:43:28Z</time>
      </trkpt>
      <trkpt lat="50.878638988360763" lon="10.972734019160271">
        <ele>224.61000000000001</ele>
        <time>2024-09-11T16:43:29Z</time>
      </trkpt>
      <trkpt lat="50.878705959767103" lon="10.972901992499828">
        <ele>225.09</ele>
        <time>2024-09-11T16:43:30Z</time>
      </trkpt>
      <trkpt lat="50.879565021023154" lon="10.974790016189218">
        <ele>232.30000000000001</ele>
        <time>2024-09-11T16:43:42Z</time>
      </trkpt>
      <trkpt lat="50.880540004000068" lon="10.976207982748747">
        <ele>240.94999999999999</ele>
        <time>2024-09-11T16:43:50Z</time>
      </trkpt>
      <trkpt lat="50.882171038538218" lon="10.978477969765663">
        <ele>251.52000000000001</ele>
        <time>2024-09-11T16:44:00Z</time>
      </trkpt>
      <trkpt lat="50.884468015283346" lon="10.981665020808578">
        <ele>252.96000000000001</ele>
        <time>2024-09-11T16:44:13Z</time>
      </trkpt>
      <trkpt lat="50.885053994134068" lon="10.982328029349446">
        <ele>252</ele>
        <time>2024-09-11T16:44:16Z</time>
      </trkpt>
      <trkpt lat="50.886252019554377" lon="10.983542986214161">
        <ele>248.16</ele>
        <time>2024-09-11T16:44:23Z</time>
      </trkpt>
      <trkpt lat="50.887251980602741" lon="10.984509000554681">
        <ele>243.83000000000001</ele>
        <time>2024-09-11T16:44:31Z</time>
      </trkpt>
      <trkpt lat="50.888272980228066" lon="10.985442996025085">
        <ele>240.47</ele>
        <time>2024-09-11T16:44:41Z</time>
      </trkpt>
      <trkpt lat="50.889242012053728" lon="10.986063005402684">
        <ele>236.62</ele>
        <time>2024-09-11T16:44:50Z</time>
      </trkpt>
      <trkpt lat="50.889422977343202" lon="10.986199965700507">
        <ele>236.62</ele>
        <time>2024-09-11T16:44:52Z</time>
      </trkpt>
      <trkpt lat="50.889531020075083" lon="10.986321000382304">
        <ele>237.09999999999999</ele>
        <time>2024-09-11T16:44:53Z</time>
      </trkpt>
      <trkpt lat="50.889624981209636" lon="10.986426025629044">
        <ele>237.09999999999999</ele>
        <time>2024-09-11T16:44:54Z</time>
      </trkpt>
      <trkpt lat="50.890580015257001" lon="10.987562024965882">
        <ele>239.02000000000001</ele>
        <time>2024-09-11T16:45:04Z</time>
      </trkpt>
      <trkpt lat="50.891712997108698" lon="10.98899700678885">
        <ele>241.91</ele>
        <time>2024-09-11T16:45:16Z</time>
      </trkpt>
      <trkpt lat="50.892613967880607" lon="10.990147003903985">
        <ele>246.22999999999999</ele>
        <time>2024-09-11T16:45:24Z</time>
      </trkpt>
      <trkpt lat="50.893791038542986" lon="10.991615010425448">
        <ele>250.08000000000001</ele>
        <time>2024-09-11T16:45:31Z</time>
      </trkpt>
      <trkpt lat="50.895948959514499" lon="10.994375003501773">
        <ele>256.32999999999998</ele>
        <time>2024-09-11T16:45:42Z</time>
      </trkpt>
      <trkpt lat="50.898887990042567" lon="10.99789003841579">
        <ele>266.42000000000002</ele>
        <time>2024-09-11T16:45:56Z</time>
      </trkpt>
      <trkpt lat="50.901173986494541" lon="11.000597979873419">
        <ele>278.92000000000002</ele>
        <time>2024-09-11T16:46:07Z</time>
      </trkpt>
      <trkpt lat="50.902367988601327" lon="11.00279001519084">
        <ele>284.20999999999998</ele>
        <time>2024-09-11T16:46:14Z</time>
      </trkpt>
      <trkpt lat="50.903536006808281" lon="11.00553902797401">
        <ele>290.94</ele>
        <time>2024-09-11T16:46:23Z</time>
      </trkpt>
      <trkpt lat="50.904593970626593" lon="11.007238961756229">
        <ele>296.22000000000003</ele>
        <time>2024-09-11T16:46:31Z</time>
      </trkpt>
      <trkpt lat="50.905522014945745" lon="11.008200030773878">
        <ele>300.06999999999999</ele>
        <time>2024-09-11T16:46:37Z</time>
      </trkpt>
      <trkpt lat="50.905996011570096" lon="11.008662963286042">
        <ele>303.43000000000001</ele>
        <time>2024-09-11T16:46:40Z</time>
      </trkpt>
      <trkpt lat="50.906151998788118" lon="11.008812999352813">
        <ele>303.91000000000003</ele>
        <time>2024-09-11T16:46:41Z</time>
      </trkpt>
      <trkpt lat="50.907425964251161" lon="11.009931983426213">
        <ele>308.24000000000001</ele>
        <time>2024-09-11T16:46:49Z</time>
      </trkpt>
      <trkpt lat="50.909006036818027" lon="11.011462016031146">
        <ele>302.94999999999999</ele>
        <time>2024-09-11T16:46:59Z</time>
      </trkpt>
      <trkpt lat="50.910086967051029" lon="11.013172008097172">
        <ele>299.58999999999997</ele>
        <time>2024-09-11T16:47:07Z</time>
      </trkpt>
      <trkpt lat="50.910732038319111" lon="11.015193974599242">
        <ele>298.14999999999998</ele>
        <time>2024-09-11T16:47:15Z</time>
      </trkpt>
      <trkpt lat="50.911086006090045" lon="11.017621960490942">
        <ele>300.06999999999999</ele>
        <time>2024-09-11T16:47:24Z</time>
      </trkpt>
      <trkpt lat="50.911410972476006" lon="11.020876988768578">
        <ele>299.58999999999997</ele>
        <time>2024-09-11T16:47:36Z</time>
      </trkpt>
      <trkpt lat="50.911893015727401" lon="11.024773987010121">
        <ele>298.14999999999998</ele>
        <time>2024-09-11T16:47:49Z</time>
      </trkpt>
      <trkpt lat="50.912606986239552" lon="11.027526017278433">
        <ele>295.74000000000001</ele>
        <time>2024-09-11T16:47:58Z</time>
      </trkpt>
      <trkpt lat="50.913701998069882" lon="11.030049975961447">
        <ele>296.69999999999999</ele>
        <time>2024-09-11T16:48:07Z</time>
      </trkpt>
      <trkpt lat="50.915088029578328" lon="11.032180991023779">
        <ele>301.50999999999999</ele>
        <time>2024-09-11T16:48:15Z</time>
      </trkpt>
      <trkpt lat="50.917061967775226" lon="11.0342469625175">
        <ele>309.68000000000001</ele>
        <time>2024-09-11T16:48:24Z</time>
      </trkpt>
      <trkpt lat="50.919978031888604" lon="11.037180041894317">
        <ele>324.10000000000002</ele>
        <time>2024-09-11T16:48:37Z</time>
      </trkpt>
      <trkpt lat="50.92153899371624" lon="11.038218978792429">
        <ele>333.23000000000002</ele>
        <time>2024-09-11T16:48:44Z</time>
      </trkpt>
      <trkpt lat="50.923198023810983" lon="11.03849901817739">
        <ele>341.41000000000003</ele>
        <time>2024-09-11T16:48:51Z</time>
      </trkpt>
      <trkpt lat="50.926638040691614" lon="11.039005033671856">
        <ele>352.45999999999998</ele>
        <time>2024-09-11T16:49:05Z</time>
      </trkpt>
      <trkpt lat="50.9293810185045" lon="11.039406023919582">
        <ele>345.25</ele>
        <time>2024-09-11T16:49:16Z</time>
      </trkpt>
      <trkpt lat="50.931039964780211" lon="11.039648009464145">
        <ele>337.56</ele>
        <time>2024-09-11T16:49:24Z</time>
      </trkpt>
      <trkpt lat="50.931188995018601" lon="11.039669970050454">
        <ele>337.07999999999998</ele>
        <time>2024-09-11T16:49:25Z</time>
      </trkpt>
      <trkpt lat="50.931974966078997" lon="11.039784969761968">
        <ele>337.56</ele>
        <time>2024-09-11T16:49:32Z</time>
      </trkpt>
      <trkpt lat="50.932865962386131" lon="11.039914973080158">
        <ele>340.92000000000002</ele>
        <time>2024-09-11T16:49:41Z</time>
      </trkpt>
      <trkpt lat="50.932962018996477" lon="11.039928970858455">
        <ele>341.88999999999999</ele>
        <time>2024-09-11T16:49:42Z</time>
      </trkpt>
      <trkpt lat="50.93382703140378" lon="11.040060985833406">
        <ele>346.69</ele>
        <time>2024-09-11T16:49:53Z</time>
      </trkpt>
      <trkpt lat="50.933863995596766" lon="11.040066014975309">
        <ele>346.69</ele>
        <time>2024-09-11T16:49:54Z</time>
      </trkpt>
      <trkpt lat="50.933891991153359" lon="11.040069032460451">
        <ele>347.17000000000002</ele>
        <time>2024-09-11T16:49:55Z</time>
      </trkpt>
      <trkpt lat="50.93391302973032" lon="11.040070960298181">
        <ele>347.17000000000002</ele>
        <time>2024-09-11T16:49:56Z</time>
      </trkpt>
      <trkpt lat="50.933931972831488" lon="11.040072971954942">
        <ele>347.64999999999998</ele>
        <time>2024-09-11T16:49:57Z</time>
      </trkpt>
      <trkpt lat="50.933950999751687" lon="11.040074983611703">
        <ele>347.64999999999998</ele>
        <time>2024-09-11T16:49:58Z</time>
      </trkpt>
      <trkpt lat="50.933963991701603" lon="11.040076995268464">
        <ele>348.13</ele>
        <time>2024-09-11T16:49:59Z</time>
      </trkpt>
      <trkpt lat="50.933976983651519" lon="11.040078001096845">
        <ele>348.62</ele>
        <time>2024-09-11T16:50:00Z</time>
      </trkpt>
      <trkpt lat="50.933976983651519" lon="11.040078001096845">
        <ele>348.62</ele>
        <time>2024-09-11T16:50:01Z</time>
      </trkpt>
      <trkpt lat="50.933976983651519" lon="11.040078001096845">
        <ele>348.62</ele>
        <time>2024-09-11T16:50:17Z</time>
      </trkpt>
      <trkpt lat="50.933976983651519" lon="11.040078001096845">
        <ele>349.10000000000002</ele>
        <time>2024-09-11T16:51:06Z</time>
      </trkpt>
      <trkpt lat="50.933976983651519" lon="11.040078001096845">
        <ele>349.10000000000002</ele>
        <time>2024-09-11T16:51:58Z</time>
      </trkpt>
      <trkpt lat="50.933976983651519" lon="11.040078001096845">
        <ele>348.62</ele>
        <time>2024-09-11T16:52:53Z</time>
      </trkpt>
      <trkpt lat="50.933976983651519" lon="11.040078001096845">
        <ele>348.62</ele>
        <time>2024-09-11T16:53:38Z</time>
      </trkpt>
      <trkpt lat="50.933968015015125" lon="11.040076995268464">
        <ele>348.62</ele>
        <time>2024-09-11T16:53:39Z</time>
      </trkpt>
      <trkpt lat="50.933993998914957" lon="11.040080012753606">
        <ele>348.13</ele>
        <time>2024-09-11T16:53:40Z</time>
      </trkpt>
      <trkpt lat="50.934103969484568" lon="11.040090993046761">
        <ele>347.64999999999998</ele>
        <time>2024-09-11T16:53:42Z</time>
      </trkpt>
      <trkpt lat="50.934897987172008" lon="11.040214961394668">
        <ele>347.17000000000002</ele>
        <time>2024-09-11T16:53:49Z</time>
      </trkpt>
      <trkpt lat="50.93632198870182" lon="11.040358962491155">
        <ele>346.69</ele>
        <time>2024-09-11T16:53:58Z</time>
      </trkpt>
      <trkpt lat="50.937520014122128" lon="11.040086969733238">
        <ele>345.73000000000002</ele>
        <time>2024-09-11T16:54:05Z</time>
      </trkpt>
      <trkpt lat="50.939077036455274" lon="11.039073010906577">
        <ele>329.87</ele>
        <time>2024-09-11T16:54:14Z</time>
      </trkpt>
      <trkpt lat="50.940947039052844" lon="11.037579020485282">
        <ele>314.97000000000003</ele>
        <time>2024-09-11T16:54:25Z</time>
      </trkpt>
      <trkpt lat="50.942276995629072" lon="11.036096010357141">
        <ele>309.19999999999999</ele>
        <time>2024-09-11T16:54:35Z</time>
      </trkpt>
      <trkpt lat="50.943354992195964" lon="11.034486014395952">
        <ele>306.31999999999999</ele>
        <time>2024-09-11T16:54:44Z</time>
      </trkpt>
      <trkpt lat="50.94454899430275" lon="11.032617017626762">
        <ele>301.50999999999999</ele>
        <time>2024-09-11T16:54:53Z</time>
      </trkpt>
      <trkpt lat="50.945810973644257" lon="11.03063796646893">
        <ele>294.77999999999997</ele>
        <time>2024-09-11T16:55:02Z</time>
      </trkpt>
      <trkpt lat="50.947209997102618" lon="11.028442997485399">
        <ele>286.13</ele>
        <time>2024-09-11T16:55:12Z</time>
      </trkpt>
      <trkpt lat="50.948687978088856" lon="11.026008976623416">
        <ele>277.48000000000002</ele>
        <time>2024-09-11T16:55:23Z</time>
      </trkpt>
      <trkpt lat="50.949208997189999" lon="11.024976996704936">
        <ele>273.14999999999998</ele>
        <time>2024-09-11T16:55:29Z</time>
      </trkpt>
      <trkpt lat="50.949253002181649" lon="11.024853028357029">
        <ele>272.19</ele>
        <time>2024-09-11T16:55:30Z</time>
      </trkpt>
      <trkpt lat="50.949365990236402" lon="11.024535018950701">
        <ele>269.79000000000002</ele>
        <time>2024-09-11T16:55:36Z</time>
      </trkpt>
      <trkpt lat="50.949399014934897" lon="11.024443991482258">
        <ele>269.31</ele>
        <time>2024-09-11T16:55:38Z</time>
      </trkpt>
      <trkpt lat="50.949521977454424" lon="11.024096980690956">
        <ele>268.35000000000002</ele>
        <time>2024-09-11T16:55:41Z</time>
      </trkpt>
      <trkpt lat="50.94957897439599" lon="11.02393495850265">
        <ele>267.86000000000001</ele>
        <time>2024-09-11T16:55:42Z</time>
      </trkpt>
      <trkpt lat="50.950050037354231" lon="11.022586980834603">
        <ele>265.45999999999998</ele>
        <time>2024-09-11T16:55:49Z</time>
      </trkpt>
      <trkpt lat="50.950492015108466" lon="11.021432960405946">
        <ele>261.13999999999999</ele>
        <time>2024-09-11T16:55:55Z</time>
      </trkpt>
      <trkpt lat="50.950593017041683" lon="11.02128803730011">
        <ele>260.17000000000002</ele>
        <time>2024-09-11T16:55:56Z</time>
      </trkpt>
      <trkpt lat="50.950697036460042" lon="11.0211400128901">
        <ele>259.69</ele>
        <time>2024-09-11T16:55:57Z</time>
      </trkpt>
      <trkpt lat="50.950812958180904" lon="11.020988970994949">
        <ele>258.73000000000002</ele>
        <time>2024-09-11T16:55:58Z</time>
      </trkpt>
      <trkpt lat="50.950942039489746" lon="11.020895009860396">
        <ele>257.76999999999998</ele>
        <time>2024-09-11T16:55:59Z</time>
      </trkpt>
      <trkpt lat="50.951071036979556" lon="11.020800964906812">
        <ele>257.29000000000002</ele>
        <time>2024-09-11T16:56:00Z</time>
      </trkpt>
      <trkpt lat="50.951200034469366" lon="11.020707003772259">
        <ele>256.32999999999998</ele>
        <time>2024-09-11T16:56:01Z</time>
      </trkpt>
      <trkpt lat="50.951341018080711" lon="11.020630979910493">
        <ele>255.84999999999999</ele>
        <time>2024-09-11T16:56:02Z</time>
      </trkpt>
      <trkpt lat="50.951477978378534" lon="11.020578006282449">
        <ele>254.88999999999999</ele>
        <time>2024-09-11T16:56:03Z</time>
      </trkpt>
      <trkpt lat="50.951614016667008" lon="11.020525032654405">
        <ele>253.93000000000001</ele>
        <time>2024-09-11T16:56:04Z</time>
      </trkpt>
      <trkpt lat="50.951776038855314" lon="11.020528972148895">
        <ele>253.44</ele>
        <time>2024-09-11T16:56:05Z</time>
      </trkpt>
      <trkpt lat="50.951914004981518" lon="11.020549004897475">
        <ele>252.47999999999999</ele>
        <time>2024-09-11T16:56:06Z</time>
      </trkpt>
      <trkpt lat="50.952053982764482" lon="11.020569959655404">
        <ele>252</ele>
        <time>2024-09-11T16:56:07Z</time>
      </trkpt>
      <trkpt lat="50.952193038538098" lon="11.020590998232365">
        <ele>251.03999999999999</ele>
        <time>2024-09-11T16:56:08Z</time>
      </trkpt>
      <trkpt lat="50.952345002442598" lon="11.020673979073763">
        <ele>250.08000000000001</ele>
        <time>2024-09-11T16:56:09Z</time>
      </trkpt>
      <trkpt lat="50.95247601158917" lon="11.020762994885445">
        <ele>249.12</ele>
        <time>2024-09-11T16:56:10Z</time>
      </trkpt>
      <trkpt lat="50.952733000740409" lon="11.020938009023666">
        <ele>247.19999999999999</ele>
        <time>2024-09-11T16:56:12Z</time>
      </trkpt>
      <trkpt lat="50.952851017937064" lon="11.021089972928166">
        <ele>246.22999999999999</ele>
        <time>2024-09-11T16:56:13Z</time>
      </trkpt>
      <trkpt lat="50.953047992661595" lon="11.021391972899437">
        <ele>244.78999999999999</ele>
        <time>2024-09-11T16:56:15Z</time>
      </trkpt>
      <trkpt lat="50.953145977109671" lon="11.021563969552517">
        <ele>244.31</ele>
        <time>2024-09-11T16:56:16Z</time>
      </trkpt>
      <trkpt lat="50.953406989574432" lon="11.022352958098054">
        <ele>243.83000000000001</ele>
        <time>2024-09-11T16:56:20Z</time>
      </trkpt>
      <trkpt lat="50.954063963145018" lon="11.024120030924678">
        <ele>242.87</ele>
        <time>2024-09-11T16:56:30Z</time>
      </trkpt>
      <trkpt lat="50.954383984208107" lon="11.02463903836906">
        <ele>240.47</ele>
        <time>2024-09-11T16:56:34Z</time>
      </trkpt>
      <trkpt lat="50.954551035538316" lon="11.024826038628817">
        <ele>239.50999999999999</ele>
        <time>2024-09-11T16:56:36Z</time>
      </trkpt>
      <trkpt lat="50.955111030489206" lon="11.025389973074198">
        <ele>236.62</ele>
        <time>2024-09-11T16:56:43Z</time>
      </trkpt>
      <trkpt lat="50.955193005502224" lon="11.025455016642809">
        <ele>236.13999999999999</ele>
        <time>2024-09-11T16:56:44Z</time>
      </trkpt>
      <trkpt lat="50.95527296885848" lon="11.025519976392388">
        <ele>236.13999999999999</ele>
        <time>2024-09-11T16:56:45Z</time>
      </trkpt>
      <trkpt lat="50.95535603351891" lon="11.02558602578938">
        <ele>235.66</ele>
        <time>2024-09-11T16:56:46Z</time>
      </trkpt>
      <trkpt lat="50.955438008531928" lon="11.02565098553896">
        <ele>235.66</ele>
        <time>2024-09-11T16:56:47Z</time>
      </trkpt>
      <trkpt lat="50.955589972436428" lon="11.02580102160573">
        <ele>234.69999999999999</ele>
        <time>2024-09-11T16:56:49Z</time>
      </trkpt>
      <trkpt lat="50.955663984641433" lon="11.025884002447128">
        <ele>234.22</ele>
        <time>2024-09-11T16:56:50Z</time>
      </trkpt>
      <trkpt lat="50.95574302598834" lon="11.02597301825881">
        <ele>233.74000000000001</ele>
        <time>2024-09-11T16:56:51Z</time>
      </trkpt>
      <trkpt lat="50.955979982391" lon="11.026227995753288">
        <ele>230.84999999999999</ele>
        <time>2024-09-11T16:56:54Z</time>
      </trkpt>
      <trkpt lat="50.956349959596992" lon="11.026699980720878">
        <ele>227.49000000000001</ele>
        <time>2024-09-11T16:56:59Z</time>
      </trkpt>
      <trkpt lat="50.956422965973616" lon="11.02681003510952">
        <ele>227.00999999999999</ele>
        <time>2024-09-11T16:57:00Z</time>
      </trkpt>
      <trkpt lat="50.956895034760237" lon="11.027468014508486">
        <ele>223.16</ele>
        <time>2024-09-11T16:57:06Z</time>
      </trkpt>
      <trkpt lat="50.956957982853055" lon="11.027568010613322">
        <ele>222.19999999999999</ele>
        <time>2024-09-11T16:57:07Z</time>
      </trkpt>
      <trkpt lat="50.957529963925481" lon="11.028707027435303">
        <ele>218.36000000000001</ele>
        <time>2024-09-11T16:57:18Z</time>
      </trkpt>
      <trkpt lat="50.958190960809588" lon="11.030102027580142">
        <ele>217.88</ele>
        <time>2024-09-11T16:57:31Z</time>
      </trkpt>
      <trkpt lat="50.958291040733457" lon="11.030315011739731">
        <ele>217.88</ele>
        <time>2024-09-11T16:57:33Z</time>
      </trkpt>
      <trkpt lat="50.95834200270474" lon="11.030424982309341">
        <ele>217.88</ele>
        <time>2024-09-11T16:57:34Z</time>
      </trkpt>
      <trkpt lat="50.958898980170488" lon="11.031669024378061">
        <ele>216.91</ele>
        <time>2024-09-11T16:57:45Z</time>
      </trkpt>
      <trkpt lat="50.959570035338402" lon="11.033130995929241">
        <ele>217.40000000000001</ele>
        <time>2024-09-11T16:57:58Z</time>
      </trkpt>
      <trkpt lat="50.959899025037885" lon="11.033824011683464">
        <ele>216.91</ele>
        <time>2024-09-11T16:58:05Z</time>
      </trkpt>
      <trkpt lat="50.960031040012836" lon="11.03405199944973">
        <ele>216.43000000000001</ele>
        <time>2024-09-11T16:58:10Z</time>
      </trkpt>
      <trkpt lat="50.960054006427526" lon="11.034453995525837">
        <ele>216.43000000000001</ele>
        <time>2024-09-11T16:58:12Z</time>
      </trkpt>
      <trkpt lat="50.960054006427526" lon="11.034453995525837">
        <ele>216.43000000000001</ele>
        <time>2024-09-11T16:58:22Z</time>
      </trkpt>
      <trkpt lat="50.960088958963752" lon="11.034151995554566">
        <ele>216.43000000000001</ele>
        <time>2024-09-11T16:58:49Z</time>
      </trkpt>
      <trkpt lat="50.960132963955402" lon="11.034228019416332">
        <ele>216.43000000000001</ele>
        <time>2024-09-11T16:58:50Z</time>
      </trkpt>
      <trkpt lat="50.960207981988788" lon="11.034338995814323">
        <ele>216.43000000000001</ele>
        <time>2024-09-11T16:58:52Z</time>
      </trkpt>
      <trkpt lat="50.960290962830186" lon="11.034385012462735">
        <ele>216.43000000000001</ele>
        <time>2024-09-11T16:58:53Z</time>
      </trkpt>
      <trkpt lat="50.960372015833855" lon="11.034430023282766">
        <ele>216.43000000000001</ele>
        <time>2024-09-11T16:58:54Z</time>
      </trkpt>
      <trkpt lat="50.960419960319996" lon="11.034431029111147">
        <ele>215.94999999999999</ele>
        <time>2024-09-11T16:58:55Z</time>
      </trkpt>
      <trkpt lat="50.960510987788439" lon="11.034418037161231">
        <ele>215.94999999999999</ele>
        <time>2024-09-11T16:58:56Z</time>
      </trkpt>
      <trkpt lat="50.960597991943359" lon="11.034398004412651">
        <ele>215.94999999999999</ele>
        <time>2024-09-11T16:58:57Z</time>
      </trkpt>
      <trkpt lat="50.960693964734674" lon="11.034371014684439">
        <ele>215.94999999999999</ele>
        <time>2024-09-11T16:58:58Z</time>
      </trkpt>
      <trkpt lat="50.961561994627118" lon="11.03411796502769">
        <ele>214.99000000000001</ele>
        <time>2024-09-11T16:59:07Z</time>
      </trkpt>
      <trkpt lat="50.963073000311852" lon="11.03362200781703">
        <ele>212.11000000000001</ele>
        <time>2024-09-11T16:59:21Z</time>
      </trkpt>
      <trkpt lat="50.964287035167217" lon="11.033263010904193">
        <ele>210.66999999999999</ele>
        <time>2024-09-11T16:59:32Z</time>
      </trkpt>
      <trkpt lat="50.964910984039307" lon="11.033057989552617">
        <ele>206.34</ele>
        <time>2024-09-11T16:59:38Z</time>
      </trkpt>
      <trkpt lat="50.965535016730428" lon="11.032817009836435">
        <ele>200.09</ele>
        <time>2024-09-11T16:59:44Z</time>
      </trkpt>
      <trkpt lat="50.965636018663645" lon="11.032774010673165">
        <ele>199.13</ele>
        <time>2024-09-11T16:59:45Z</time>
      </trkpt>
      <trkpt lat="50.965736014768481" lon="11.032713996246457">
        <ele>198.16999999999999</ele>
        <time>2024-09-11T16:59:46Z</time>
      </trkpt>
      <trkpt lat="50.966710997745395" lon="11.032014023512602">
        <ele>188.56</ele>
        <time>2024-09-11T16:59:57Z</time>
      </trkpt>
      <trkpt lat="50.966785009950399" lon="11.031955014914274">
        <ele>188.08000000000001</ele>
        <time>2024-09-11T16:59:58Z</time>
      </trkpt>
      <trkpt lat="50.967465033754706" lon="11.031790981069207">
        <ele>180.87</ele>
        <time>2024-09-11T17:00:08Z</time>
      </trkpt>
      <trkpt lat="50.967871975153685" lon="11.031700959429145">
        <ele>178.94</ele>
        <time>2024-09-11T17:00:13Z</time>
      </trkpt>
      <trkpt lat="50.968129970133305" lon="11.031637005507946">
        <ele>178.94</ele>
        <time>2024-09-11T17:00:16Z</time>
      </trkpt>
      <trkpt lat="50.968691976740956" lon="11.031503984704614">
        <ele>181.34999999999999</ele>
        <time>2024-09-11T17:00:22Z</time>
      </trkpt>
      <trkpt lat="50.96936303190887" lon="11.031313966959715">
        <ele>187.11000000000001</ele>
        <time>2024-09-11T17:00:32Z</time>
      </trkpt>
      <trkpt lat="50.969952028244734" lon="11.031154040247202">
        <ele>192.40000000000001</ele>
        <time>2024-09-11T17:00:41Z</time>
      </trkpt>
      <trkpt lat="50.970044983550906" lon="11.03113099001348">
        <ele>194.80000000000001</ele>
        <time>2024-09-11T17:00:43Z</time>
      </trkpt>
      <trkpt lat="50.970089994370937" lon="11.031119003891945">
        <ele>195.77000000000001</ele>
        <time>2024-09-11T17:00:44Z</time>
      </trkpt>
      <trkpt lat="50.970227038487792" lon="11.031084973365068">
        <ele>195.77000000000001</ele>
        <time>2024-09-11T17:00:47Z</time>
      </trkpt>
      <trkpt lat="50.970297027379274" lon="11.03106795810163">
        <ele>196.25</ele>
        <time>2024-09-11T17:00:48Z</time>
      </trkpt>
      <trkpt lat="50.971024995669723" lon="11.030813986435533">
        <ele>197.69</ele>
        <time>2024-09-11T17:00:59Z</time>
      </trkpt>
      <trkpt lat="50.971515001729131" lon="11.030407967045903">
        <ele>197.21000000000001</ele>
        <time>2024-09-11T17:01:08Z</time>
      </trkpt>
      <trkpt lat="50.97181398421526" lon="11.030240999534726">
        <ele>198.16999999999999</ele>
        <time>2024-09-11T17:01:16Z</time>
      </trkpt>
      <trkpt lat="50.971864024177194" lon="11.030231025069952">
        <ele>198.65000000000001</ele>
        <time>2024-09-11T17:01:23Z</time>
      </trkpt>
      <trkpt lat="50.971864024177194" lon="11.030231025069952">
        <ele>198.65000000000001</ele>
        <time>2024-09-11T17:02:04Z</time>
      </trkpt>
      <trkpt lat="50.971927978098392" lon="11.030248962342739">
        <ele>199.13</ele>
        <time>2024-09-11T17:02:06Z</time>
      </trkpt>
      <trkpt lat="50.97198598086834" lon="11.030265977606177">
        <ele>199.13</ele>
        <time>2024-09-11T17:02:07Z</time>
      </trkpt>
      <trkpt lat="50.972013976424932" lon="11.030274024233222">
        <ele>199.61000000000001</ele>
        <time>2024-09-11T17:02:08Z</time>
      </trkpt>
      <trkpt lat="50.972107015550137" lon="11.030380977317691">
        <ele>200.09</ele>
        <time>2024-09-11T17:02:09Z</time>
      </trkpt>
      <trkpt lat="50.972165018320084" lon="11.030452977865934">
        <ele>200.09</ele>
        <time>2024-09-11T17:02:10Z</time>
      </trkpt>
      <trkpt lat="50.972207011654973" lon="11.030509974807501">
        <ele>200.09</ele>
        <time>2024-09-11T17:02:11Z</time>
      </trkpt>
      <trkpt lat="50.972251016646624" lon="11.030631009489298">
        <ele>200.09</ele>
        <time>2024-09-11T17:02:12Z</time>
      </trkpt>
      <trkpt lat="50.972293009981513" lon="11.030746009200811">
        <ele>200.09</ele>
        <time>2024-09-11T17:02:13Z</time>
      </trkpt>
      <trkpt lat="50.972741022706032" lon="11.032108990475535">
        <ele>199.13</ele>
        <time>2024-09-11T17:02:23Z</time>
      </trkpt>
      <trkpt lat="50.972777986899018" lon="11.032217033207417">
        <ele>198.16999999999999</ele>
        <time>2024-09-11T17:02:24Z</time>
      </trkpt>
      <trkpt lat="50.972963981330395" lon="11.032740985974669">
        <ele>190.96000000000001</ele>
        <time>2024-09-11T17:02:32Z</time>
      </trkpt>
      <trkpt lat="50.972984014078975" lon="11.032796977087855">
        <ele>187.59</ele>
        <time>2024-09-11T17:02:45Z</time>
      </trkpt>
      <trkpt lat="50.972984014078975" lon="11.032796977087855">
        <ele>186.63</ele>
        <time>2024-09-11T17:03:23Z</time>
      </trkpt>
      <trkpt lat="50.973160034045577" lon="11.033266028389335">
        <ele>179.41999999999999</ele>
        <time>2024-09-11T17:03:31Z</time>
      </trkpt>
      <trkpt lat="50.973196998238564" lon="11.033371975645423">
        <ele>178.46000000000001</ele>
        <time>2024-09-11T17:03:32Z</time>
      </trkpt>
      <trkpt lat="50.97323396243155" lon="11.033486975356936">
        <ele>177.5</ele>
        <time>2024-09-11T17:03:33Z</time>
      </trkpt>
      <trkpt lat="50.973276039585471" lon="11.033616978675127">
        <ele>176.53999999999999</ele>
        <time>2024-09-11T17:03:34Z</time>
      </trkpt>
      <trkpt lat="50.97331702709198" lon="11.033742958679795">
        <ele>175.09999999999999</ele>
        <time>2024-09-11T17:03:35Z</time>
      </trkpt>
      <trkpt lat="50.973357008770108" lon="11.033866005018353">
        <ele>174.13999999999999</ele>
        <time>2024-09-11T17:03:36Z</time>
      </trkpt>
      <trkpt lat="50.973720028996468" lon="11.034913994371891">
        <ele>173.16999999999999</ele>
        <time>2024-09-11T17:03:46Z</time>
      </trkpt>
      <trkpt lat="50.973983975127339" lon="11.035585971549153">
        <ele>175.09999999999999</ele>
        <time>2024-09-11T17:03:52Z</time>
      </trkpt>
      <trkpt lat="50.974032003432512" lon="11.035682028159499">
        <ele>176.53999999999999</ele>
        <time>2024-09-11T17:03:53Z</time>
      </trkpt>
      <trkpt lat="50.974128982052207" lon="11.03587799705565">
        <ele>177.5</ele>
        <time>2024-09-11T17:03:55Z</time>
      </trkpt>
      <trkpt lat="50.974215986207128" lon="11.03605099953711">
        <ele>178.46000000000001</ele>
        <time>2024-09-11T17:03:57Z</time>
      </trkpt>
      <trkpt lat="50.974257979542017" lon="11.03613599203527">
        <ele>178.94</ele>
        <time>2024-09-11T17:03:58Z</time>
      </trkpt>
      <trkpt lat="50.974303996190429" lon="11.036227019503713">
        <ele>178.94</ele>
        <time>2024-09-11T17:03:59Z</time>
      </trkpt>
      <trkpt lat="50.974354958161712" lon="11.03632802143693">
        <ele>178.94</ele>
        <time>2024-09-11T17:04:00Z</time>
      </trkpt>
      <trkpt lat="50.974407009780407" lon="11.036432040855289">
        <ele>178.94</ele>
        <time>2024-09-11T17:04:01Z</time>
      </trkpt>
      <trkpt lat="50.97445797175169" lon="11.036533964797854">
        <ele>179.41999999999999</ele>
        <time>2024-09-11T17:04:02Z</time>
      </trkpt>
      <trkpt lat="50.974617982283235" lon="11.036854991689324">
        <ele>180.38</ele>
        <time>2024-09-11T17:04:05Z</time>
      </trkpt>
      <trkpt lat="50.974669028073549" lon="11.036956999450922">
        <ele>180.38</ele>
        <time>2024-09-11T17:04:06Z</time>
      </trkpt>
      <trkpt lat="50.974816968664527" lon="11.037252964451909">
        <ele>180.87</ele>
        <time>2024-09-11T17:04:09Z</time>
      </trkpt>
      <trkpt lat="50.975097008049488" lon="11.037756968289614">
        <ele>182.31</ele>
        <time>2024-09-11T17:04:14Z</time>
      </trkpt>
      <trkpt lat="50.975149981677532" lon="11.037841960787773">
        <ele>182.31</ele>
        <time>2024-09-11T17:04:15Z</time>
      </trkpt>
      <trkpt lat="50.975203961133957" lon="11.037928964942694">
        <ele>182.31</ele>
        <time>2024-09-11T17:04:16Z</time>
      </trkpt>
      <trkpt lat="50.975258024409413" lon="11.038015969097614">
        <ele>182.31</ele>
        <time>2024-09-11T17:04:17Z</time>
      </trkpt>
      <trkpt lat="50.975312003865838" lon="11.038102973252535">
        <ele>182.31</ele>
        <time>2024-09-11T17:04:18Z</time>
      </trkpt>
      <trkpt lat="50.975339999422431" lon="11.038148989900947">
        <ele>182.31</ele>
        <time>2024-09-11T17:04:19Z</time>
      </trkpt>
      <trkpt lat="50.97542398609221" lon="11.038239011541009">
        <ele>182.31</ele>
        <time>2024-09-11T17:04:20Z</time>
      </trkpt>
      <trkpt lat="50.97548802383244" lon="11.038307994604111">
        <ele>181.83000000000001</ele>
        <time>2024-09-11T17:04:21Z</time>
      </trkpt>
      <trkpt lat="50.975551977753639" lon="11.038376977667212">
        <ele>182.31</ele>
        <time>2024-09-11T17:04:22Z</time>
      </trkpt>
      <trkpt lat="50.975620960816741" lon="11.038450989872217">
        <ele>182.78999999999999</ele>
        <time>2024-09-11T17:04:23Z</time>
      </trkpt>
      <trkpt lat="50.976015999913216" lon="11.038730023428798">
        <ele>187.11000000000001</ele>
        <time>2024-09-11T17:04:28Z</time>
      </trkpt>
      <trkpt lat="50.976177016273141" lon="11.038791965693235">
        <ele>186.63</ele>
        <time>2024-09-11T17:04:30Z</time>
      </trkpt>
      <trkpt lat="50.9762620087713" lon="11.038803029805422">
        <ele>186.63</ele>
        <time>2024-09-11T17:04:31Z</time>
      </trkpt>
      <trkpt lat="50.976349012926221" lon="11.038814010098577">
        <ele>186.63</ele>
        <time>2024-09-11T17:04:32Z</time>
      </trkpt>
      <trkpt lat="50.976429982110858" lon="11.038814010098577">
        <ele>186.15000000000001</ele>
        <time>2024-09-11T17:04:33Z</time>
      </trkpt>
      <trkpt lat="50.976514974609017" lon="11.038814010098577">
        <ele>185.66999999999999</ele>
        <time>2024-09-11T17:04:34Z</time>
      </trkpt>
      <trkpt lat="50.97694898955524" lon="11.0387799795717">
        <ele>184.71000000000001</ele>
        <time>2024-09-11T17:04:39Z</time>
      </trkpt>
      <trkpt lat="50.977608980610967" lon="11.038496000692248">
        <ele>186.15000000000001</ele>
        <time>2024-09-11T17:04:49Z</time>
      </trkpt>
      <trkpt lat="50.977608980610967" lon="11.038496000692248">
        <ele>186.63</ele>
        <time>2024-09-11T17:04:58Z</time>
      </trkpt>
      <trkpt lat="50.977686010301113" lon="11.038450989872217">
        <ele>187.11000000000001</ele>
        <time>2024-09-11T17:05:18Z</time>
      </trkpt>
      <trkpt lat="50.977745018899441" lon="11.038317969068885">
        <ele>187.59</ele>
        <time>2024-09-11T17:05:19Z</time>
      </trkpt>
      <trkpt lat="50.977729009464383" lon="11.038245968520641">
        <ele>187.59</ele>
        <time>2024-09-11T17:05:20Z</time>
      </trkpt>
      <trkpt lat="50.977708976715803" lon="11.038163993507624">
        <ele>188.08000000000001</ele>
        <time>2024-09-11T17:05:21Z</time>
      </trkpt>
      <trkpt lat="50.977685004472733" lon="11.038076989352703">
        <ele>188.08000000000001</ele>
        <time>2024-09-11T17:05:22Z</time>
      </trkpt>
      <trkpt lat="50.977662038058043" lon="11.037989985197783">
        <ele>188.08000000000001</ele>
        <time>2024-09-11T17:05:23Z</time>
      </trkpt>
      <trkpt lat="50.97763798199594" lon="11.037901975214481">
        <ele>188.08000000000001</ele>
        <time>2024-09-11T17:05:24Z</time>
      </trkpt>
      <trkpt lat="50.977638987824321" lon="11.03729403577745">
        <ele>188.56</ele>
        <time>2024-09-11T17:05:34Z</time>
      </trkpt>
      <trkpt lat="50.977748036384583" lon="11.037191022187471">
        <ele>187.59</ele>
        <time>2024-09-11T17:05:42Z</time>
      </trkpt>
      <trkpt lat="50.977882985025644" lon="11.037064958363771">
        <ele>186.63</ele>
        <time>2024-09-11T17:05:47Z</time>
      </trkpt>
      <trkpt lat="50.977882985025644" lon="11.037064958363771">
        <ele>187.59</ele>
        <time>2024-09-11T17:05:59Z</time>
      </trkpt>
      <trkpt lat="50.97752901725471" lon="11.037397971376777">
        <ele>200.56999999999999</ele>
        <time>2024-09-11T17:07:17Z</time>
      </trkpt>
      <trkpt lat="50.97752901725471" lon="11.037397971376777">
        <ele>219.31999999999999</ele>
        <time>2024-09-11T17:07:21Z</time>
      </trkpt>
      <trkpt lat="50.977546032518148" lon="11.037504002451897">
        <ele>217.88</ele>
        <time>2024-09-11T17:07:22Z</time>
      </trkpt>
      <trkpt lat="50.977553995326161" lon="11.037551024928689">
        <ele>217.40000000000001</ele>
        <time>2024-09-11T17:07:23Z</time>
      </trkpt>
      <trkpt lat="50.977562963962555" lon="11.037603998556733">
        <ele>217.40000000000001</ele>
        <time>2024-09-11T17:07:24Z</time>
      </trkpt>
      <trkpt lat="50.97757201641798" lon="11.037654960528016">
        <ele>217.88</ele>
        <time>2024-09-11T17:07:25Z</time>
      </trkpt>
      <trkpt lat="50.977584002539515" lon="11.037700977176428">
        <ele>217.88</ele>
        <time>2024-09-11T17:07:26Z</time>
      </trkpt>
      <trkpt lat="50.977599006146193" lon="11.037755962461233">
        <ele>218.36000000000001</ele>
        <time>2024-09-11T17:07:27Z</time>
      </trkpt>
      <trkpt lat="50.977690033614635" lon="11.038094004616141">
        <ele>226.53</ele>
        <time>2024-09-11T17:07:37Z</time>
      </trkpt>
      <trkpt lat="50.977690033614635" lon="11.038094004616141">
        <ele>234.69999999999999</ele>
        <time>2024-09-11T17:08:14Z</time>
      </trkpt>
      <trkpt lat="50.977715011686087" lon="11.038188971579075">
        <ele>236.62</ele>
        <time>2024-09-11T17:08:34Z</time>
      </trkpt>
      <trkpt lat="50.977721968665719" lon="11.038213027641177">
        <ele>236.62</ele>
        <time>2024-09-11T17:08:35Z</time>
      </trkpt>
      <trkpt lat="50.977721968665719" lon="11.038213027641177">
        <ele>236.62</ele>
        <time>2024-09-11T17:08:36Z</time>
      </trkpt>
      <trkpt lat="50.977721968665719" lon="11.038213027641177">
        <ele>236.62</ele>
        <time>2024-09-11T17:08:37Z</time>
      </trkpt>
      <trkpt lat="50.977686010301113" lon="11.03824001736939">
        <ele>236.62</ele>
        <time>2024-09-11T17:08:38Z</time>
      </trkpt>
      <trkpt lat="50.977574028074741" lon="11.038324004039168">
        <ele>235.18000000000001</ele>
        <time>2024-09-11T17:08:39Z</time>
      </trkpt>
      <trkpt lat="50.977470008656383" lon="11.038402039557695">
        <ele>234.69999999999999</ele>
        <time>2024-09-11T17:08:40Z</time>
      </trkpt>
      <trkpt lat="50.977366995066404" lon="11.038466999307275">
        <ele>233.74000000000001</ele>
        <time>2024-09-11T17:08:41Z</time>
      </trkpt>
      <trkpt lat="50.976479016244411" lon="11.038705967366695">
        <ele>230.37</ele>
        <time>2024-09-11T17:08:50Z</time>
      </trkpt>
      <trkpt lat="50.976181961596012" lon="11.038673026487231">
        <ele>222.68000000000001</ele>
        <time>2024-09-11T17:08:57Z</time>
      </trkpt>
      <trkpt lat="50.976181961596012" lon="11.038673026487231">
        <ele>219.80000000000001</ele>
        <time>2024-09-11T17:09:12Z</time>
      </trkpt>
      <trkpt lat="50.976106021553278" lon="11.03864997625351">
        <ele>217.88</ele>
        <time>2024-09-11T17:09:37Z</time>
      </trkpt>
      <trkpt lat="50.976035026833415" lon="11.03862700983882">
        <ele>216.43000000000001</ele>
        <time>2024-09-11T17:09:38Z</time>
      </trkpt>
      <trkpt lat="50.975361037999392" lon="11.037976993247867">
        <ele>213.55000000000001</ele>
        <time>2024-09-11T17:09:45Z</time>
      </trkpt>
      <trkpt lat="50.97531896084547" lon="11.037902981042862">
        <ele>213.06999999999999</ele>
        <time>2024-09-11T17:09:46Z</time>
      </trkpt>
      <trkpt lat="50.974917970597744" lon="11.037180963903666">
        <ele>211.15000000000001</ele>
        <time>2024-09-11T17:09:52Z</time>
      </trkpt>
      <trkpt lat="50.974854016676545" lon="11.037055989727378">
        <ele>211.15000000000001</ele>
        <time>2024-09-11T17:09:53Z</time>
      </trkpt>
      <trkpt lat="50.974340960383415" lon="11.036052005365491">
        <ele>212.59</ele>
        <time>2024-09-11T17:10:03Z</time>
      </trkpt>
      <trkpt lat="50.97422101534903" lon="11.035842038691044">
        <ele>212.59</ele>
        <time>2024-09-11T17:10:05Z</time>
      </trkpt>
      <trkpt lat="50.974167035892606" lon="11.03572603315115">
        <ele>212.59</ele>
        <time>2024-09-11T17:10:06Z</time>
      </trkpt>
      <trkpt lat="50.973652973771095" lon="11.034424994140863">
        <ele>211.63</ele>
        <time>2024-09-11T17:10:16Z</time>
      </trkpt>
      <trkpt lat="50.973153999075294" lon="11.032880041748285">
        <ele>212.11000000000001</ele>
        <time>2024-09-11T17:10:27Z</time>
      </trkpt>
      <trkpt lat="50.972645971924067" lon="11.031384961679578">
        <ele>210.19</ele>
        <time>2024-09-11T17:10:37Z</time>
      </trkpt>
      <trkpt lat="50.971833011135459" lon="11.028737034648657">
        <ele>207.78</ele>
        <time>2024-09-11T17:10:54Z</time>
      </trkpt>
      <trkpt lat="50.971435038372874" lon="11.026779022067785">
        <ele>205.38</ele>
        <time>2024-09-11T17:11:06Z</time>
      </trkpt>
      <trkpt lat="50.971412993967533" lon="11.02661800570786">
        <ele>205.38</ele>
        <time>2024-09-11T17:11:07Z</time>
      </trkpt>
      <trkpt lat="50.971412993967533" lon="11.026270994916558">
        <ele>204.90000000000001</ele>
        <time>2024-09-11T17:11:09Z</time>
      </trkpt>
      <trkpt lat="50.971413999795914" lon="11.026104027405381">
        <ele>204.90000000000001</ele>
        <time>2024-09-11T17:11:10Z</time>
      </trkpt>
      <trkpt lat="50.97142799757421" lon="11.025958014652133">
        <ele>204.90000000000001</ele>
        <time>2024-09-11T17:11:11Z</time>
      </trkpt>
      <trkpt lat="50.971473008394241" lon="11.02560899220407">
        <ele>205.38</ele>
        <time>2024-09-11T17:11:14Z</time>
      </trkpt>
      <trkpt lat="50.97170602530241" lon="11.025011027231812">
        <ele>206.34</ele>
        <time>2024-09-11T17:11:20Z</time>
      </trkpt>
      <trkpt lat="50.972240958362818" lon="11.023672018200159">
        <ele>206.34</ele>
        <time>2024-09-11T17:11:31Z</time>
      </trkpt>
      <trkpt lat="50.972596015781164" lon="11.022641966119409">
        <ele>209.69999999999999</ele>
        <time>2024-09-11T17:11:40Z</time>
      </trkpt>
      <trkpt lat="50.972608001902699" lon="11.022607013583183">
        <ele>210.19</ele>
        <time>2024-09-11T17:11:49Z</time>
      </trkpt>
      <trkpt lat="50.972615964710712" lon="11.022583041340113">
        <ele>210.19</ele>
        <time>2024-09-11T17:12:10Z</time>
      </trkpt>
      <trkpt lat="50.972633985802531" lon="11.022533001378179">
        <ele>210.66999999999999</ele>
        <time>2024-09-11T17:12:11Z</time>
      </trkpt>
      <trkpt lat="50.972656030207872" lon="11.022467035800219">
        <ele>211.15000000000001</ele>
        <time>2024-09-11T17:12:12Z</time>
      </trkpt>
      <trkpt lat="50.972727024927735" lon="11.022455971688032">
        <ele>211.63</ele>
        <time>2024-09-11T17:12:13Z</time>
      </trkpt>
      <trkpt lat="50.972773963585496" lon="11.022451026365161">
        <ele>212.59</ele>
        <time>2024-09-11T17:12:14Z</time>
      </trkpt>
      <trkpt lat="50.972830960527062" lon="11.022445997223258">
        <ele>213.55000000000001</ele>
        <time>2024-09-11T17:12:15Z</time>
      </trkpt>
      <trkpt lat="50.972903966903687" lon="11.022505005821586">
        <ele>214.50999999999999</ele>
        <time>2024-09-11T17:12:16Z</time>
      </trkpt>
      <trkpt lat="50.972945960238576" lon="11.022594021633267">
        <ele>214.99000000000001</ele>
        <time>2024-09-11T17:12:17Z</time>
      </trkpt>
      <trkpt lat="50.972983008250594" lon="11.022673984989524">
        <ele>215.47</ele>
        <time>2024-09-11T17:12:18Z</time>
      </trkpt>
      <trkpt lat="50.973101025447249" lon="11.022931979969144">
        <ele>216.43000000000001</ele>
        <time>2024-09-11T17:12:22Z</time>
      </trkpt>
      <trkpt lat="50.973196998238564" lon="11.023000041022897">
        <ele>216.43000000000001</ele>
        <time>2024-09-11T17:12:23Z</time>
      </trkpt>
      <trkpt lat="50.973222982138395" lon="11.022976990789175">
        <ele>215.94999999999999</ele>
        <time>2024-09-11T17:12:24Z</time>
      </trkpt>
      <trkpt lat="50.973257012665272" lon="11.02294497191906">
        <ele>215.94999999999999</ele>
        <time>2024-09-11T17:12:25Z</time>
      </trkpt>
      <trkpt lat="50.973298000171781" lon="11.022908007726073">
        <ele>215.47</ele>
        <time>2024-09-11T17:12:26Z</time>
      </trkpt>
      <trkpt lat="50.973408976569772" lon="11.022805999964476">
        <ele>215.47</ele>
        <time>2024-09-11T17:12:27Z</time>
      </trkpt>
      <trkpt lat="50.973408976569772" lon="11.022805999964476">
        <ele>215.47</ele>
        <time>2024-09-11T17:12:28Z</time>
      </trkpt>
      <trkpt lat="50.973750958219171" lon="11.02240702137351">
        <ele>215.94999999999999</ele>
        <time>2024-09-11T17:12:34Z</time>
      </trkpt>
      <trkpt lat="50.97385598346591" lon="11.022247010841966">
        <ele>215.94999999999999</ele>
        <time>2024-09-11T17:12:36Z</time>
      </trkpt>
      <trkpt lat="50.973987998440862" lon="11.022054981440306">
        <ele>216.43000000000001</ele>
        <time>2024-09-11T17:12:38Z</time>
      </trkpt>
      <trkpt lat="50.9740050137043" lon="11.022013993933797">
        <ele>216.43000000000001</ele>
        <time>2024-09-11T17:12:39Z</time>
      </trkpt>
      <trkpt lat="50.974041977897286" lon="11.021917015314102">
        <ele>216.43000000000001</ele>
        <time>2024-09-11T17:12:40Z</time>
      </trkpt>
      <trkpt lat="50.974345989525318" lon="11.021045967936516">
        <ele>218.84</ele>
        <time>2024-09-11T17:12:48Z</time>
      </trkpt>
      <trkpt lat="50.974367028102279" lon="11.020919987931848">
        <ele>219.80000000000001</ele>
        <time>2024-09-11T17:12:49Z</time>
      </trkpt>
      <trkpt lat="50.974482027813792" lon="11.020300984382629">
        <ele>221.24000000000001</ele>
        <time>2024-09-11T17:12:54Z</time>
      </trkpt>
      <trkpt lat="50.974528966471553" lon="11.020181039348245">
        <ele>221.72</ele>
        <time>2024-09-11T17:12:55Z</time>
      </trkpt>
      <trkpt lat="50.97458504140377" lon="11.020092023536563">
        <ele>222.19999999999999</ele>
        <time>2024-09-11T17:12:56Z</time>
      </trkpt>
      <trkpt lat="50.974695011973381" lon="11.019839979708195">
        <ele>222.68000000000001</ele>
        <time>2024-09-11T17:12:59Z</time>
      </trkpt>
      <trkpt lat="50.97471697255969" lon="11.019779965281487">
        <ele>222.68000000000001</ele>
        <time>2024-09-11T17:13:00Z</time>
      </trkpt>
      <trkpt lat="50.974731976166368" lon="11.019737971946597">
        <ele>222.68000000000001</ele>
        <time>2024-09-11T17:13:01Z</time>
      </trkpt>
      <trkpt lat="50.974739016965032" lon="11.019716011360288">
        <ele>223.16</ele>
        <time>2024-09-11T17:13:02Z</time>
      </trkpt>
      <trkpt lat="50.974739016965032" lon="11.019716011360288">
        <ele>223.63999999999999</ele>
        <time>2024-09-11T17:13:03Z</time>
      </trkpt>
      <trkpt lat="50.974739016965032" lon="11.019716011360288">
        <ele>223.63999999999999</ele>
        <time>2024-09-11T17:13:04Z</time>
      </trkpt>
      <trkpt lat="50.974739016965032" lon="11.019716011360288">
        <ele>225.09</ele>
        <time>2024-09-11T17:13:18Z</time>
      </trkpt>
      <trkpt lat="50.974741028621793" lon="11.019683992490172">
        <ele>225.09</ele>
        <time>2024-09-11T17:13:42Z</time>
      </trkpt>
      <trkpt lat="50.97475997172296" lon="11.019343016669154">
        <ele>226.05000000000001</ele>
        <time>2024-09-11T17:13:46Z</time>
      </trkpt>
      <trkpt lat="50.974808000028133" lon="11.019242014735937">
        <ele>226.05000000000001</ele>
        <time>2024-09-11T17:13:47Z</time>
      </trkpt>
      <trkpt lat="50.97484496422112" lon="11.019174037501216">
        <ele>225.56999999999999</ele>
        <time>2024-09-11T17:13:48Z</time>
      </trkpt>
      <trkpt lat="50.974887041375041" lon="11.019096001982689">
        <ele>225.56999999999999</ele>
        <time>2024-09-11T17:13:49Z</time>
      </trkpt>
      <trkpt lat="50.974936997517943" lon="11.019015032798052">
        <ele>225.09</ele>
        <time>2024-09-11T17:13:50Z</time>
      </trkpt>
      <trkpt lat="50.974996006116271" lon="11.018932973966002">
        <ele>225.09</ele>
        <time>2024-09-11T17:13:51Z</time>
      </trkpt>
      <trkpt lat="50.975529011338949" lon="11.018203999847174">
        <ele>222.19999999999999</ele>
        <time>2024-09-11T17:14:01Z</time>
      </trkpt>
      <trkpt lat="50.975661026313901" lon="11.018048012629151">
        <ele>220.75999999999999</ele>
        <time>2024-09-11T17:14:06Z</time>
      </trkpt>
      <trkpt lat="50.975712994113564" lon="11.018124958500266">
        <ele>219.80000000000001</ele>
        <time>2024-09-11T17:14:07Z</time>
      </trkpt>
      <trkpt lat="50.975730009377003" lon="11.018182961270213">
        <ele>219.31999999999999</ele>
        <time>2024-09-11T17:14:08Z</time>
      </trkpt>
      <trkpt lat="50.975752975791693" lon="11.018264014273882">
        <ele>218.84</ele>
        <time>2024-09-11T17:14:09Z</time>
      </trkpt>
      <trkpt lat="50.975779965519905" lon="11.018358981236815">
        <ele>218.36000000000001</ele>
        <time>2024-09-11T17:14:10Z</time>
      </trkpt>
      <trkpt lat="50.97581198439002" lon="11.018471969291568">
        <ele>217.88</ele>
        <time>2024-09-11T17:14:11Z</time>
      </trkpt>
      <trkpt lat="50.975836040452123" lon="11.018568025901914">
        <ele>217.40000000000001</ele>
        <time>2024-09-11T17:14:12Z</time>
      </trkpt>
      <trkpt lat="50.9761549718678" lon="11.020103003829718">
        <ele>208.74000000000001</ele>
        <time>2024-09-11T17:14:23Z</time>
      </trkpt>
      <trkpt lat="50.97632696852088" lon="11.020939014852047">
        <ele>211.63</ele>
        <time>2024-09-11T17:14:30Z</time>
      </trkpt>
      <trkpt lat="50.976401986554265" lon="11.021101959049702">
        <ele>212.11000000000001</ele>
        <time>2024-09-11T17:14:31Z</time>
      </trkpt>
      <trkpt lat="50.976500976830721" lon="11.021251995116472">
        <ele>213.06999999999999</ele>
        <time>2024-09-11T17:14:33Z</time>
      </trkpt>
      <trkpt lat="50.976565014570951" lon="11.021300023421645">
        <ele>213.06999999999999</ele>
        <time>2024-09-11T17:14:34Z</time>
      </trkpt>
      <trkpt lat="50.976627040654421" lon="11.021346962079406">
        <ele>213.55000000000001</ele>
        <time>2024-09-11T17:14:36Z</time>
      </trkpt>
      <trkpt lat="50.976695017889142" lon="11.021340005099773">
        <ele>214.03</ele>
        <time>2024-09-11T17:14:37Z</time>
      </trkpt>
      <trkpt lat="50.976738017052412" lon="11.02133497595787">
        <ele>214.03</ele>
        <time>2024-09-11T17:14:38Z</time>
      </trkpt>
      <trkpt lat="50.976782022044063" lon="11.021330030634999">
        <ele>214.03</ele>
        <time>2024-09-11T17:14:39Z</time>
      </trkpt>
      <trkpt lat="50.97688402980566" lon="11.021533962339163">
        <ele>214.50999999999999</ele>
        <time>2024-09-11T17:14:40Z</time>
      </trkpt>
      <trkpt lat="50.976903978735209" lon="11.021601017564535">
        <ele>214.50999999999999</ele>
        <time>2024-09-11T17:14:41Z</time>
      </trkpt>
      <trkpt lat="50.976928034797311" lon="11.02167896926403">
        <ele>214.99000000000001</ele>
        <time>2024-09-11T17:14:42Z</time>
      </trkpt>
      <trkpt lat="50.976953012868762" lon="11.021760022267699">
        <ele>214.99000000000001</ele>
        <time>2024-09-11T17:14:43Z</time>
      </trkpt>
      <trkpt lat="50.976978996768594" lon="11.021836968138814">
        <ele>214.50999999999999</ele>
        <time>2024-09-11T17:14:44Z</time>
      </trkpt>
      <trkpt lat="50.977073041722178" lon="11.02204198949039">
        <ele>214.99000000000001</ele>
        <time>2024-09-11T17:14:47Z</time>
      </trkpt>
      <trkpt lat="50.977102965116501" lon="11.022104015573859">
        <ele>214.99000000000001</ele>
        <time>2024-09-11T17:14:48Z</time>
      </trkpt>
      <trkpt lat="50.977136995643377" lon="11.022164030000567">
        <ele>214.99000000000001</ele>
        <time>2024-09-11T17:14:49Z</time>
      </trkpt>
      <trkpt lat="50.977168008685112" lon="11.022217003628612">
        <ele>214.99000000000001</ele>
        <time>2024-09-11T17:14:50Z</time>
      </trkpt>
      <trkpt lat="50.977188963443041" lon="11.022254973649979">
        <ele>214.50999999999999</ele>
        <time>2024-09-11T17:14:51Z</time>
      </trkpt>
      <trkpt lat="50.977204972878098" lon="11.022282969206572">
        <ele>214.50999999999999</ele>
        <time>2024-09-11T17:14:52Z</time>
      </trkpt>
      <trkpt lat="50.977204972878098" lon="11.022282969206572">
        <ele>214.03</ele>
        <time>2024-09-11T17:14:53Z</time>
      </trkpt>
      <trkpt lat="50.977204972878098" lon="11.022282969206572">
        <ele>212.11000000000001</ele>
        <time>2024-09-11T17:15:00Z</time>
      </trkpt>
      <trkpt lat="50.977161973714828" lon="11.022826032713056">
        <ele>207.78</ele>
        <time>2024-09-11T17:15:13Z</time>
      </trkpt>
      <trkpt lat="50.97712098620832" lon="11.022891998291016">
        <ele>206.34</ele>
        <time>2024-09-11T17:15:25Z</time>
      </trkpt>
      <trkpt lat="50.977088967338204" lon="11.023411005735397">
        <ele>230.37</ele>
        <time>2024-09-11T17:17:55Z</time>
      </trkpt>
      <trkpt lat="50.977093996480107" lon="11.023296006023884">
        <ele>200.09</ele>
        <time>2024-09-11T17:18:03Z</time>
      </trkpt>
      <trkpt lat="50.97705896012485" lon="11.02298897691071">
        <ele>185.19</ele>
        <time>2024-09-11T17:18:05Z</time>
      </trkpt>
      <trkpt lat="50.977132972329855" lon="11.022911025211215">
        <ele>183.27000000000001</ele>
        <time>2024-09-11T17:18:06Z</time>
      </trkpt>
      <trkpt lat="50.97712098620832" lon="11.022891998291016">
        <ele>182.78999999999999</ele>
        <time>2024-09-11T17:18:07Z</time>
      </trkpt>
      <trkpt lat="50.97712098620832" lon="11.022891998291016">
        <ele>183.75</ele>
        <time>2024-09-11T17:18:08Z</time>
      </trkpt>
      <trkpt lat="50.977122997865081" lon="11.022888980805874">
        <ele>184.71000000000001</ele>
        <time>2024-09-11T17:18:09Z</time>
      </trkpt>
      <trkpt lat="50.9771410189569" lon="11.02285897359252">
        <ele>185.66999999999999</ele>
        <time>2024-09-11T17:18:10Z</time>
      </trkpt>
      <trkpt lat="50.977162979543209" lon="11.022823015227914">
        <ele>186.15000000000001</ele>
        <time>2024-09-11T17:18:11Z</time>
      </trkpt>
      <trkpt lat="50.977284014225006" lon="11.022626040503383">
        <ele>190.47999999999999</ele>
        <time>2024-09-11T17:18:19Z</time>
      </trkpt>
      <trkpt lat="50.977387027814984" lon="11.022567031905055">
        <ele>191.44</ele>
        <time>2024-09-11T17:18:20Z</time>
      </trkpt>
      <trkpt lat="50.9774000197649" lon="11.022592009976506">
        <ele>192.40000000000001</ele>
        <time>2024-09-11T17:18:21Z</time>
      </trkpt>
      <trkpt lat="50.977414017543197" lon="11.022614976391196">
        <ele>192.88</ele>
        <time>2024-09-11T17:18:22Z</time>
      </trkpt>
      <trkpt lat="50.977429021149874" lon="11.022640960291028">
        <ele>193.36000000000001</ele>
        <time>2024-09-11T17:18:23Z</time>
      </trkpt>
      <trkpt lat="50.977444024756551" lon="11.022666022181511">
        <ele>193.36000000000001</ele>
        <time>2024-09-11T17:18:24Z</time>
      </trkpt>
      <trkpt lat="50.977506972849369" lon="11.02277398109436">
        <ele>194.31999999999999</ele>
        <time>2024-09-11T17:18:27Z</time>
      </trkpt>
      <trkpt lat="50.977548966184258" lon="11.022845981642604">
        <ele>194.80000000000001</ele>
        <time>2024-09-11T17:18:28Z</time>
      </trkpt>
      <trkpt lat="50.977599006146193" lon="11.022929968312383">
        <ele>195.28</ele>
        <time>2024-09-11T17:18:29Z</time>
      </trkpt>
      <trkpt lat="50.977652985602617" lon="11.023022001609206">
        <ele>195.28</ele>
        <time>2024-09-11T17:18:30Z</time>
      </trkpt>
      <trkpt lat="50.977709982544184" lon="11.02311797440052">
        <ele>195.28</ele>
        <time>2024-09-11T17:18:31Z</time>
      </trkpt>
      <trkpt lat="50.97808700054884" lon="11.023772014304996">
        <ele>195.28</ele>
        <time>2024-09-11T17:18:40Z</time>
      </trkpt>
      <trkpt lat="50.978117007762194" lon="11.023830017074943">
        <ele>195.28</ele>
        <time>2024-09-11T17:18:41Z</time>
      </trkpt>
      <trkpt lat="50.97823703661561" lon="11.024053981527686">
        <ele>195.28</ele>
        <time>2024-09-11T17:18:44Z</time>
      </trkpt>
      <trkpt lat="50.978271989151835" lon="11.024122964590788">
        <ele>195.28</ele>
        <time>2024-09-11T17:18:45Z</time>
      </trkpt>
      <trkpt lat="50.978332003578544" lon="11.024036966264248">
        <ele>195.28</ele>
        <time>2024-09-11T17:18:46Z</time>
      </trkpt>
      <trkpt lat="50.978373996913433" lon="11.024004025384784">
        <ele>195.77000000000001</ele>
        <time>2024-09-11T17:18:47Z</time>
      </trkpt>
      <trkpt lat="50.978425964713097" lon="11.023963959887624">
        <ele>195.77000000000001</ele>
        <time>2024-09-11T17:18:48Z</time>
      </trkpt>
      <trkpt lat="50.978492014110088" lon="11.023914003744721">
        <ele>195.77000000000001</ele>
        <time>2024-09-11T17:18:49Z</time>
      </trkpt>
      <trkpt lat="50.978564014658332" lon="11.023858012631536">
        <ele>195.28</ele>
        <time>2024-09-11T17:18:50Z</time>
      </trkpt>
      <trkpt lat="50.978784039616585" lon="11.023679981008172">
        <ele>194.80000000000001</ele>
        <time>2024-09-11T17:18:53Z</time>
      </trkpt>
      <trkpt lat="50.978855034336448" lon="11.023616027086973">
        <ele>194.31999999999999</ele>
        <time>2024-09-11T17:18:54Z</time>
      </trkpt>
      <trkpt lat="50.979536985978484" lon="11.02302803657949">
        <ele>193.36000000000001</ele>
        <time>2024-09-11T17:19:02Z</time>
      </trkpt>
      <trkpt lat="50.979632958769798" lon="11.022947989404202">
        <ele>193.84</ele>
        <time>2024-09-11T17:19:03Z</time>
      </trkpt>
      <trkpt lat="50.980846993625164" lon="11.021908968687057">
        <ele>199.13</ele>
        <time>2024-09-11T17:19:15Z</time>
      </trkpt>
      <trkpt lat="50.98223302513361" lon="11.021016966551542">
        <ele>202.97999999999999</ele>
        <time>2024-09-11T17:19:28Z</time>
      </trkpt>
      <trkpt lat="50.982479033991694" lon="11.020854022353888">
        <ele>204.41999999999999</ele>
        <time>2024-09-11T17:19:32Z</time>
      </trkpt>
      <trkpt lat="50.982571989297867" lon="11.02077498100698">
        <ele>204.90000000000001</ele>
        <time>2024-09-11T17:19:34Z</time>
      </trkpt>
      <trkpt lat="50.98262001760304" lon="11.020733993500471">
        <ele>205.38</ele>
        <time>2024-09-11T17:19:35Z</time>
      </trkpt>
      <trkpt lat="50.982669973745942" lon="11.020692000165582">
        <ele>205.38</ele>
        <time>2024-09-11T17:19:36Z</time>
      </trkpt>
      <trkpt lat="50.982807017862797" lon="11.020574988797307">
        <ele>206.34</ele>
        <time>2024-09-11T17:19:39Z</time>
      </trkpt>
      <trkpt lat="50.982807017862797" lon="11.020574988797307">
        <ele>206.81999999999999</ele>
        <time>2024-09-11T17:19:40Z</time>
      </trkpt>
      <trkpt lat="50.983042968437076" lon="11.020682025700808">
        <ele>207.30000000000001</ele>
        <time>2024-09-11T17:19:41Z</time>
      </trkpt>
      <trkpt lat="50.983042968437076" lon="11.020682025700808">
        <ele>207.30000000000001</ele>
        <time>2024-09-11T17:19:42Z</time>
      </trkpt>
      <trkpt lat="50.98309401422739" lon="11.020756959915161">
        <ele>207.78</ele>
        <time>2024-09-11T17:19:43Z</time>
      </trkpt>
      <trkpt lat="50.98315604031086" lon="11.020846981555223">
        <ele>208.25999999999999</ele>
        <time>2024-09-11T17:19:44Z</time>
      </trkpt>
      <trkpt lat="50.983218988403678" lon="11.020940020680428">
        <ele>208.74000000000001</ele>
        <time>2024-09-11T17:19:45Z</time>
      </trkpt>
      <trkpt lat="50.983289983123541" lon="11.021044962108135">
        <ele>208.74000000000001</ele>
        <time>2024-09-11T17:19:46Z</time>
      </trkpt>
      <trkpt lat="50.983855007216334" lon="11.021875021979213">
        <ele>213.06999999999999</ele>
        <time>2024-09-11T17:19:55Z</time>
      </trkpt>
      <trkpt lat="50.984000014141202" lon="11.022088006138802">
        <ele>216.43000000000001</ele>
        <time>2024-09-11T17:20:04Z</time>
      </trkpt>
      <trkpt lat="50.984137980267406" lon="11.022291015833616">
        <ele>216.91</ele>
        <time>2024-09-11T17:20:15Z</time>
      </trkpt>
      <trkpt lat="50.984185002744198" lon="11.022243993356824">
        <ele>216.91</ele>
        <time>2024-09-11T17:20:16Z</time>
      </trkpt>
      <trkpt lat="50.984230013564229" lon="11.022198982536793">
        <ele>216.91</ele>
        <time>2024-09-11T17:20:17Z</time>
      </trkpt>
      <trkpt lat="50.984290027990937" lon="11.022138968110085">
        <ele>216.43000000000001</ele>
        <time>2024-09-11T17:20:18Z</time>
      </trkpt>
      <trkpt lat="50.984362028539181" lon="11.022066967561841">
        <ele>215.47</ele>
        <time>2024-09-11T17:20:19Z</time>
      </trkpt>
      <trkpt lat="50.984434029087424" lon="11.021995972841978">
        <ele>214.99000000000001</ele>
        <time>2024-09-11T17:20:20Z</time>
      </trkpt>
      <trkpt lat="50.984749021008611" lon="11.021679975092411">
        <ele>213.06999999999999</ele>
        <time>2024-09-11T17:20:24Z</time>
      </trkpt>
      <trkpt lat="50.985504984855652" lon="11.020957035943866">
        <ele>209.22</ele>
        <time>2024-09-11T17:20:35Z</time>
      </trkpt>
      <trkpt lat="50.985765997320414" lon="11.020689988508821">
        <ele>207.78</ele>
        <time>2024-09-11T17:20:42Z</time>
      </trkpt>
      <trkpt lat="50.986343007534742" lon="11.020108032971621">
        <ele>202.97999999999999</ele>
        <time>2024-09-11T17:20:51Z</time>
      </trkpt>
      <trkpt lat="50.986395981162786" lon="11.020053969696164">
        <ele>202.00999999999999</ele>
        <time>2024-09-11T17:20:53Z</time>
      </trkpt>
      <trkpt lat="50.986400004476309" lon="11.019945004954934">
        <ele>201.53</ele>
        <time>2024-09-11T17:20:54Z</time>
      </trkpt>
      <trkpt lat="50.986377038061619" lon="11.019895970821381">
        <ele>200.56999999999999</ele>
        <time>2024-09-11T17:20:55Z</time>
      </trkpt>
      <trkpt lat="50.986344013363123" lon="11.019827993586659">
        <ele>200.09</ele>
        <time>2024-09-11T17:20:56Z</time>
      </trkpt>
      <trkpt lat="50.986305037513375" lon="11.019745012745261">
        <ele>199.61000000000001</ele>
        <time>2024-09-11T17:20:57Z</time>
      </trkpt>
      <trkpt lat="50.986262038350105" lon="11.019652979448438">
        <ele>199.13</ele>
        <time>2024-09-11T17:20:58Z</time>
      </trkpt>
      <trkpt lat="50.986214010044932" lon="11.01955097168684">
        <ele>198.65000000000001</ele>
        <time>2024-09-11T17:20:59Z</time>
      </trkpt>
      <trkpt lat="50.986161036416888" lon="11.019439995288849">
        <ele>199.13</ele>
        <time>2024-09-11T17:21:00Z</time>
      </trkpt>
      <trkpt lat="50.986107978969812" lon="11.019326001405716">
        <ele>199.13</ele>
        <time>2024-09-11T17:21:01Z</time>
      </trkpt>
      <trkpt lat="50.986052993685007" lon="11.019209995865822">
        <ele>199.13</ele>
        <time>2024-09-11T17:21:02Z</time>
      </trkpt>
      <trkpt lat="50.985995996743441" lon="11.019089967012405">
        <ele>199.13</ele>
        <time>2024-09-11T17:21:03Z</time>
      </trkpt>
      <trkpt lat="50.985879991203547" lon="11.018844963982701">
        <ele>199.61000000000001</ele>
        <time>2024-09-11T17:21:05Z</time>
      </trkpt>
      <trkpt lat="50.985396020114422" lon="11.017819019034505">
        <ele>202.00999999999999</ele>
        <time>2024-09-11T17:21:15Z</time>
      </trkpt>
      <trkpt lat="50.98537003621459" lon="11.017665965482593">
        <ele>202.97999999999999</ele>
        <time>2024-09-11T17:21:20Z</time>
      </trkpt>
      <trkpt lat="50.985402977094054" lon="11.017627995461226">
        <ele>202.97999999999999</ele>
        <time>2024-09-11T17:21:21Z</time>
      </trkpt>
      <trkpt lat="50.985446982085705" lon="11.017579967156053">
        <ele>203.46000000000001</ele>
        <time>2024-09-11T17:21:22Z</time>
      </trkpt>
      <trkpt lat="50.985851995646954" lon="11.017129020765424">
        <ele>205.38</ele>
        <time>2024-09-11T17:21:30Z</time>
      </trkpt>
      <trkpt lat="50.985890971496701" lon="11.017085015773773">
        <ele>205.86000000000001</ele>
        <time>2024-09-11T17:21:31Z</time>
      </trkpt>
      <trkpt lat="50.986155001446605" lon="11.016776980832219">
        <ele>207.30000000000001</ele>
        <time>2024-09-11T17:21:40Z</time>
      </trkpt>
      <trkpt lat="50.986757995560765" lon="11.016126964241266">
        <ele>207.30000000000001</ele>
        <time>2024-09-11T17:21:48Z</time>
      </trkpt>
      <trkpt lat="50.987810008227825" lon="11.014949977397919">
        <ele>210.19</ele>
        <time>2024-09-11T17:22:00Z</time>
      </trkpt>
      <trkpt lat="50.988213010132313" lon="11.01449903100729">
        <ele>210.19</ele>
        <time>2024-09-11T17:22:05Z</time>
      </trkpt>
      <trkpt lat="50.988287022337317" lon="11.01441596634686">
        <ele>209.69999999999999</ele>
        <time>2024-09-11T17:22:06Z</time>
      </trkpt>
      <trkpt lat="50.989229986444116" lon="11.013454981148243">
        <ele>207.78</ele>
        <time>2024-09-11T17:22:17Z</time>
      </trkpt>
      <trkpt lat="50.990344025194645" lon="11.012636991217732">
        <ele>206.34</ele>
        <time>2024-09-11T17:22:29Z</time>
      </trkpt>
      <trkpt lat="50.991411041468382" lon="11.011846996843815">
        <ele>203.46000000000001</ele>
        <time>2024-09-11T17:22:40Z</time>
      </trkpt>
      <trkpt lat="50.992148984223604" lon="11.011316003277898">
        <ele>202.00999999999999</ele>
        <time>2024-09-11T17:22:48Z</time>
      </trkpt>
      <trkpt lat="50.992244035005569" lon="11.011247020214796">
        <ele>202.00999999999999</ele>
        <time>2024-09-11T17:22:49Z</time>
      </trkpt>
      <trkpt lat="50.993322031572461" lon="11.010468006134033">
        <ele>197.21000000000001</ele>
        <time>2024-09-11T17:23:00Z</time>
      </trkpt>
      <trkpt lat="50.994474962353706" lon="11.009635012596846">
        <ele>194.80000000000001</ele>
        <time>2024-09-11T17:23:12Z</time>
      </trkpt>
      <trkpt lat="50.994636984542012" lon="11.009525964036584">
        <ele>195.28</ele>
        <time>2024-09-11T17:23:14Z</time>
      </trkpt>
      <trkpt lat="50.994896991178393" lon="11.00934399291873">
        <ele>197.21000000000001</ele>
        <time>2024-09-11T17:23:20Z</time>
      </trkpt>
      <trkpt lat="50.995078962296247" lon="11.009217007085681">
        <ele>197.69</ele>
        <time>2024-09-11T17:23:30Z</time>
      </trkpt>
      <trkpt lat="50.99527602083981" lon="11.009078035131097">
        <ele>198.65000000000001</ele>
        <time>2024-09-11T17:23:55Z</time>
      </trkpt>
      <trkpt lat="50.99547098390758" lon="11.00893503986299">
        <ele>199.61000000000001</ele>
        <time>2024-09-11T17:23:59Z</time>
      </trkpt>
      <trkpt lat="50.995522029697895" lon="11.008896986022592">
        <ele>199.61000000000001</ele>
        <time>2024-09-11T17:24:00Z</time>
      </trkpt>
      <trkpt lat="50.9961589705199" lon="11.008428018540144">
        <ele>200.56999999999999</ele>
        <time>2024-09-11T17:24:07Z</time>
      </trkpt>
      <trkpt lat="50.997451040893793" lon="11.007469967007637">
        <ele>199.61000000000001</ele>
        <time>2024-09-11T17:24:21Z</time>
      </trkpt>
      <trkpt lat="50.998112037777901" lon="11.006989013403654">
        <ele>200.56999999999999</ele>
        <time>2024-09-11T17:24:30Z</time>
      </trkpt>
      <trkpt lat="50.998318986967206" lon="11.00685004144907">
        <ele>201.53</ele>
        <time>2024-09-11T17:24:39Z</time>
      </trkpt>
      <trkpt lat="50.998758031055331" lon="11.006534965708852">
        <ele>202.00999999999999</ele>
        <time>2024-09-11T17:24:45Z</time>
      </trkpt>
      <trkpt lat="50.999718010425568" lon="11.005781013518572">
        <ele>201.53</ele>
        <time>2024-09-11T17:24:55Z</time>
      </trkpt>
      <trkpt lat="51.000677989795804" lon="11.004883982241154">
        <ele>201.05000000000001</ele>
        <time>2024-09-11T17:25:05Z</time>
      </trkpt>
      <trkpt lat="51.001622965559363" lon="11.003989968448877">
        <ele>197.69</ele>
        <time>2024-09-11T17:25:16Z</time>
      </trkpt>
      <trkpt lat="51.001954972743988" lon="11.003663996234536">
        <ele>196.25</ele>
        <time>2024-09-11T17:25:24Z</time>
      </trkpt>
      <trkpt lat="51.001954972743988" lon="11.003663996234536">
        <ele>196.25</ele>
        <time>2024-09-11T17:25:37Z</time>
      </trkpt>
      <trkpt lat="51.00202102214098" lon="11.003605993464589">
        <ele>196.25</ele>
        <time>2024-09-11T17:26:21Z</time>
      </trkpt>
      <trkpt lat="51.002062009647489" lon="11.003569029271603">
        <ele>196.25</ele>
        <time>2024-09-11T17:26:22Z</time>
      </trkpt>
      <trkpt lat="51.0021080262959" lon="11.003528041765094">
        <ele>196.25</ele>
        <time>2024-09-11T17:26:23Z</time>
      </trkpt>
      <trkpt lat="51.002154964953661" lon="11.003485964611173">
        <ele>196.72999999999999</ele>
        <time>2024-09-11T17:26:24Z</time>
      </trkpt>
      <trkpt lat="51.002346994355321" lon="11.003476995974779">
        <ele>196.72999999999999</ele>
        <time>2024-09-11T17:26:25Z</time>
      </trkpt>
      <trkpt lat="51.002386976033449" lon="11.003580009564757">
        <ele>197.21000000000001</ele>
        <time>2024-09-11T17:26:26Z</time>
      </trkpt>
      <trkpt lat="51.002426035702229" lon="11.003687968477607">
        <ele>197.21000000000001</ele>
        <time>2024-09-11T17:26:27Z</time>
      </trkpt>
      <trkpt lat="51.002461994066834" lon="11.003801040351391">
        <ele>197.21000000000001</ele>
        <time>2024-09-11T17:26:28Z</time>
      </trkpt>
      <trkpt lat="51.002910006791353" lon="11.005086991935968">
        <ele>197.21000000000001</ele>
        <time>2024-09-11T17:26:38Z</time>
      </trkpt>
      <trkpt lat="51.00337503477931" lon="11.006279988214374">
        <ele>197.69</ele>
        <time>2024-09-11T17:26:48Z</time>
      </trkpt>
      <trkpt lat="51.004111971706152" lon="11.007889984175563">
        <ele>196.25</ele>
        <time>2024-09-11T17:26:59Z</time>
      </trkpt>
      <trkpt lat="51.004886040464044" lon="11.009718999266624">
        <ele>192.88</ele>
        <time>2024-09-11T17:27:11Z</time>
      </trkpt>
      <trkpt lat="51.005393983796239" lon="11.011821012943983">
        <ele>188.56</ele>
        <time>2024-09-11T17:27:23Z</time>
      </trkpt>
      <trkpt lat="51.005645021796227" lon="11.013078968971968">
        <ele>186.15000000000001</ele>
        <time>2024-09-11T17:27:32Z</time>
      </trkpt>
      <trkpt lat="51.005681985989213" lon="11.013260018080473">
        <ele>184.71000000000001</ele>
        <time>2024-09-11T17:27:41Z</time>
      </trkpt>
      <trkpt lat="51.005690032616258" lon="11.013299999758601">
        <ele>184.71000000000001</ele>
        <time>2024-09-11T17:27:52Z</time>
      </trkpt>
      <trkpt lat="51.005699001252651" lon="11.013349033892155">
        <ele>184.71000000000001</ele>
        <time>2024-09-11T17:27:53Z</time>
      </trkpt>
      <trkpt lat="51.005715010687709" lon="11.013424973934889">
        <ele>184.22999999999999</ele>
        <time>2024-09-11T17:27:54Z</time>
      </trkpt>
      <trkpt lat="51.005733031779528" lon="11.013513989746571">
        <ele>184.22999999999999</ele>
        <time>2024-09-11T17:27:55Z</time>
      </trkpt>
      <trkpt lat="51.005750969052315" lon="11.013606023043394">
        <ele>184.22999999999999</ele>
        <time>2024-09-11T17:27:56Z</time>
      </trkpt>
      <trkpt lat="51.005767984315753" lon="11.013694033026695">
        <ele>183.75</ele>
        <time>2024-09-11T17:27:57Z</time>
      </trkpt>
      <trkpt lat="51.005946015939116" lon="11.01460799574852">
        <ele>182.31</ele>
        <time>2024-09-11T17:28:05Z</time>
      </trkpt>
      <trkpt lat="51.006023967638612" lon="11.015005968511105">
        <ele>182.31</ele>
        <time>2024-09-11T17:28:13Z</time>
      </trkpt>
      <trkpt lat="51.006078030914068" lon="11.015234040096402">
        <ele>182.31</ele>
        <time>2024-09-11T17:28:22Z</time>
      </trkpt>
      <trkpt lat="51.006110971793532" lon="11.01544601842761">
        <ele>181.83000000000001</ele>
        <time>2024-09-11T17:28:24Z</time>
      </trkpt>
      <trkpt lat="51.006207028403878" lon="11.015588007867336">
        <ele>181.83000000000001</ele>
        <time>2024-09-11T17:28:25Z</time>
      </trkpt>
      <trkpt lat="51.006285985931754" lon="11.015600999817252">
        <ele>181.34999999999999</ele>
        <time>2024-09-11T17:28:26Z</time>
      </trkpt>
      <trkpt lat="51.006388999521732" lon="11.01561801508069">
        <ele>181.34999999999999</ele>
        <time>2024-09-11T17:28:27Z</time>
      </trkpt>
      <trkpt lat="51.006476003676653" lon="11.015647016465664">
        <ele>181.34999999999999</ele>
        <time>2024-09-11T17:28:28Z</time>
      </trkpt>
      <trkpt lat="51.007030969485641" lon="11.015929989516735">
        <ele>180.87</ele>
        <time>2024-09-11T17:28:34Z</time>
      </trkpt>
      <trkpt lat="51.007054019719362" lon="11.01596100255847">
        <ele>180.87</ele>
        <time>2024-09-11T17:28:35Z</time>
      </trkpt>
      <trkpt lat="51.007097018882632" lon="11.016143979504704">
        <ele>180.87</ele>
        <time>2024-09-11T17:28:36Z</time>
      </trkpt>
      <trkpt lat="51.007120991125703" lon="11.016251016408205">
        <ele>180.38</ele>
        <time>2024-09-11T17:28:37Z</time>
      </trkpt>
      <trkpt lat="51.007147980853915" lon="11.016366016119719">
        <ele>180.38</ele>
        <time>2024-09-11T17:28:38Z</time>
      </trkpt>
      <trkpt lat="51.007417039945722" lon="11.017725979909301">
        <ele>180.87</ele>
        <time>2024-09-11T17:28:47Z</time>
      </trkpt>
      <trkpt lat="51.007562968879938" lon="11.018480015918612">
        <ele>181.83000000000001</ele>
        <time>2024-09-11T17:28:54Z</time>
      </trkpt>
      <trkpt lat="51.007599011063576" lon="11.018653018400073">
        <ele>181.83000000000001</ele>
        <time>2024-09-11T17:28:59Z</time>
      </trkpt>
      <trkpt lat="51.007599011063576" lon="11.018653018400073">
        <ele>182.31</ele>
        <time>2024-09-11T17:29:15Z</time>
      </trkpt>
      <trkpt lat="51.00760898552835" lon="11.018704986199737">
        <ele>182.78999999999999</ele>
        <time>2024-09-11T17:30:01Z</time>
      </trkpt>
      <trkpt lat="51.007676962763071" lon="11.018956024199724">
        <ele>184.71000000000001</ele>
        <time>2024-09-11T17:30:04Z</time>
      </trkpt>
      <trkpt lat="51.007730020210147" lon="11.019035987555981">
        <ele>185.19</ele>
        <time>2024-09-11T17:30:05Z</time>
      </trkpt>
      <trkpt lat="51.007785005494952" lon="11.019118968397379">
        <ele>185.66999999999999</ele>
        <time>2024-09-11T17:30:06Z</time>
      </trkpt>
      <trkpt lat="51.008405014872551" lon="11.020062016323209">
        <ele>187.59</ele>
        <time>2024-09-11T17:30:15Z</time>
      </trkpt>
      <trkpt lat="51.009075986221433" lon="11.020999029278755">
        <ele>188.08000000000001</ele>
        <time>2024-09-11T17:30:25Z</time>
      </trkpt>
      <trkpt lat="51.009315038099885" lon="11.021340005099773">
        <ele>189.03999999999999</ele>
        <time>2024-09-11T17:30:29Z</time>
      </trkpt>
      <trkpt lat="51.009504972025752" lon="11.021587019786239">
        <ele>189.03999999999999</ele>
        <time>2024-09-11T17:30:32Z</time>
      </trkpt>
      <trkpt lat="51.009571021422744" lon="11.021671006456017">
        <ele>189.03999999999999</ele>
        <time>2024-09-11T17:30:33Z</time>
      </trkpt>
      <trkpt lat="51.009661965072155" lon="11.021705036982894">
        <ele>188.56</ele>
        <time>2024-09-11T17:30:34Z</time>
      </trkpt>
      <trkpt lat="51.009755004197359" lon="11.021723980084062">
        <ele>188.08000000000001</ele>
        <time>2024-09-11T17:30:35Z</time>
      </trkpt>
      <trkpt lat="51.009848965331912" lon="11.02174200117588">
        <ele>187.59</ele>
        <time>2024-09-11T17:30:36Z</time>
      </trkpt>
      <trkpt lat="51.009948961436749" lon="11.02176102809608">
        <ele>187.11000000000001</ele>
        <time>2024-09-11T17:30:37Z</time>
      </trkpt>
      <trkpt lat="51.010727975517511" lon="11.021915003657341">
        <ele>186.15000000000001</ele>
        <time>2024-09-11T17:30:46Z</time>
      </trkpt>
      <trkpt lat="51.010772986337543" lon="11.021922966465354">
        <ele>187.11000000000001</ele>
        <time>2024-09-11T17:30:47Z</time>
      </trkpt>
      <trkpt lat="51.010782038792968" lon="11.022009970620275">
        <ele>187.11000000000001</ele>
        <time>2024-09-11T17:30:48Z</time>
      </trkpt>
      <trkpt lat="51.010718001052737" lon="11.022971039637923">
        <ele>187.59</ele>
        <time>2024-09-11T17:30:56Z</time>
      </trkpt>
      <trkpt lat="51.010696040466428" lon="11.023516030982137">
        <ele>189.52000000000001</ele>
        <time>2024-09-11T17:31:02Z</time>
      </trkpt>
      <trkpt lat="51.010733004659414" lon="11.023520976305008">
        <ele>190</ele>
        <time>2024-09-11T17:31:03Z</time>
      </trkpt>
      <trkpt lat="51.010779021307826" lon="11.023526005446911">
        <ele>190.47999999999999</ele>
        <time>2024-09-11T17:31:04Z</time>
      </trkpt>
      <trkpt lat="51.010833000764251" lon="11.023532962426543">
        <ele>190.96000000000001</ele>
        <time>2024-09-11T17:31:05Z</time>
      </trkpt>
      <trkpt lat="51.01089402101934" lon="11.023540003225207">
        <ele>191.44</ele>
        <time>2024-09-11T17:31:06Z</time>
      </trkpt>
      <trkpt lat="51.0109599865973" lon="11.02354796603322">
        <ele>192.40000000000001</ele>
        <time>2024-09-11T17:31:07Z</time>
      </trkpt>
      <trkpt lat="51.011029975488782" lon="11.023557018488646">
        <ele>192.40000000000001</ele>
        <time>2024-09-11T17:31:08Z</time>
      </trkpt>
      <trkpt lat="51.011560969054699" lon="11.023621978238225">
        <ele>195.77000000000001</ele>
        <time>2024-09-11T17:31:17Z</time>
      </trkpt>
      <trkpt lat="51.011552000418305" lon="11.023763967677951">
        <ele>195.77000000000001</ele>
        <time>2024-09-11T17:31:18Z</time>
      </trkpt>
      <trkpt lat="51.011547977104783" lon="11.023834962397814">
        <ele>195.77000000000001</ele>
        <time>2024-09-11T17:31:19Z</time>
      </trkpt>
      <trkpt lat="51.011543031781912" lon="11.023925989866257">
        <ele>195.77000000000001</ele>
        <time>2024-09-11T17:31:20Z</time>
      </trkpt>
      <trkpt lat="51.011536996811628" lon="11.024031015112996">
        <ele>195.77000000000001</ele>
        <time>2024-09-11T17:31:21Z</time>
      </trkpt>
      <trkpt lat="51.011530039831996" lon="11.024133022874594">
        <ele>195.28</ele>
        <time>2024-09-11T17:31:22Z</time>
      </trkpt>
      <trkpt lat="51.011525010690093" lon="11.024228995665908">
        <ele>195.28</ele>
        <time>2024-09-11T17:31:23Z</time>
      </trkpt>
      <trkpt lat="51.011503972113132" lon="11.02457701228559">
        <ele>195.77000000000001</ele>
        <time>2024-09-11T17:31:27Z</time>
      </trkpt>
      <trkpt lat="51.011501038447022" lon="11.02464197203517">
        <ele>195.77000000000001</ele>
        <time>2024-09-11T17:31:28Z</time>
      </trkpt>
      <trkpt lat="51.011588964611292" lon="11.024734005331993">
        <ele>195.77000000000001</ele>
        <time>2024-09-11T17:31:29Z</time>
      </trkpt>
      <trkpt lat="51.011655014008284" lon="11.024744985625148">
        <ele>195.77000000000001</ele>
        <time>2024-09-11T17:31:30Z</time>
      </trkpt>
      <trkpt lat="51.011743023991585" lon="11.024758983403444">
        <ele>195.77000000000001</ele>
        <time>2024-09-11T17:31:31Z</time>
      </trkpt>
      <trkpt lat="51.01184100843966" lon="11.024773987010121">
        <ele>195.77000000000001</ele>
        <time>2024-09-11T17:31:32Z</time>
      </trkpt>
      <trkpt lat="51.012802999466658" lon="11.024967022240162">
        <ele>193.84</ele>
        <time>2024-09-11T17:31:42Z</time>
      </trkpt>
      <trkpt lat="51.012924034148455" lon="11.024992000311613">
        <ele>193.36000000000001</ele>
        <time>2024-09-11T17:31:44Z</time>
      </trkpt>
      <trkpt lat="51.012970972806215" lon="11.025001974776387">
        <ele>193.36000000000001</ele>
        <time>2024-09-11T17:31:45Z</time>
      </trkpt>
      <trkpt lat="51.013025958091021" lon="11.025165002793074">
        <ele>193.36000000000001</ele>
        <time>2024-09-11T17:31:46Z</time>
      </trkpt>
      <trkpt lat="51.013015983626246" lon="11.025273967534304">
        <ele>192.88</ele>
        <time>2024-09-11T17:31:47Z</time>
      </trkpt>
      <trkpt lat="51.013006009161472" lon="11.025406988337636">
        <ele>192.88</ele>
        <time>2024-09-11T17:31:48Z</time>
      </trkpt>
      <trkpt lat="51.012993017211556" lon="11.025560041889548">
        <ele>192.40000000000001</ele>
        <time>2024-09-11T17:31:49Z</time>
      </trkpt>
      <trkpt lat="51.012901989743114" lon="11.026834007352591">
        <ele>191.44</ele>
        <time>2024-09-11T17:31:58Z</time>
      </trkpt>
      <trkpt lat="51.012854967266321" lon="11.027222005650401">
        <ele>190</ele>
        <time>2024-09-11T17:32:07Z</time>
      </trkpt>
      <trkpt lat="51.012854967266321" lon="11.027222005650401">
        <ele>190.47999999999999</ele>
        <time>2024-09-11T17:32:24Z</time>
      </trkpt>
      <trkpt lat="51.012812973931432" lon="11.027429960668087">
        <ele>190.47999999999999</ele>
        <time>2024-09-11T17:33:05Z</time>
      </trkpt>
      <trkpt lat="51.013670023530722" lon="11.027938993647695">
        <ele>190.96000000000001</ele>
        <time>2024-09-11T17:33:15Z</time>
      </trkpt>
      <trkpt lat="51.013712016865611" lon="11.027946034446359">
        <ele>190.96000000000001</ele>
        <time>2024-09-11T17:33:16Z</time>
      </trkpt>
      <trkpt lat="51.013778988271952" lon="11.027860036119819">
        <ele>190.96000000000001</ele>
        <time>2024-09-11T17:33:17Z</time>
      </trkpt>
      <trkpt lat="51.013786029070616" lon="11.027774037793279">
        <ele>191.44</ele>
        <time>2024-09-11T17:33:18Z</time>
      </trkpt>
      <trkpt lat="51.013792986050248" lon="11.027683010324836">
        <ele>190.96000000000001</ele>
        <time>2024-09-11T17:33:19Z</time>
      </trkpt>
      <trkpt lat="51.013801032677293" lon="11.027593994513154">
        <ele>190.96000000000001</ele>
        <time>2024-09-11T17:33:20Z</time>
      </trkpt>
      <trkpt lat="51.013895999640226" lon="11.026352969929576">
        <ele>192.40000000000001</ele>
        <time>2024-09-11T17:33:32Z</time>
      </trkpt>
      <trkpt lat="51.01396900601685" lon="11.025429032742977">
        <ele>192.40000000000001</ele>
        <time>2024-09-11T17:33:41Z</time>
      </trkpt>
      <trkpt lat="51.014149971306324" lon="11.024419013410807">
        <ele>189.52000000000001</ele>
        <time>2024-09-11T17:33:50Z</time>
      </trkpt>
      <trkpt lat="51.014304030686617" lon="11.024115001782775">
        <ele>188.08000000000001</ele>
        <time>2024-09-11T17:33:54Z</time>
      </trkpt>
      <trkpt lat="51.01437795907259" lon="11.023980975151062">
        <ele>187.11000000000001</ele>
        <time>2024-09-11T17:33:56Z</time>
      </trkpt>
      <trkpt lat="51.014412995427847" lon="11.02395398542285">
        <ele>186.63</ele>
        <time>2024-09-11T17:33:57Z</time>
      </trkpt>
      <trkpt lat="51.014669984579086" lon="11.023829011246562">
        <ele>184.22999999999999</ele>
        <time>2024-09-11T17:34:08Z</time>
      </trkpt>
      <trkpt lat="51.014705020934343" lon="11.023834962397814">
        <ele>184.22999999999999</ele>
        <time>2024-09-11T17:34:09Z</time>
      </trkpt>
      <trkpt lat="51.014750031754375" lon="11.023842003196478">
        <ele>184.22999999999999</ele>
        <time>2024-09-11T17:34:10Z</time>
      </trkpt>
      <trkpt lat="51.014798982068896" lon="11.023849966004491">
        <ele>184.22999999999999</ele>
        <time>2024-09-11T17:34:11Z</time>
      </trkpt>
      <trkpt lat="51.014994028955698" lon="11.023835968226194">
        <ele>184.22999999999999</ele>
        <time>2024-09-11T17:34:17Z</time>
      </trkpt>
      <trkpt lat="51.014994028955698" lon="11.023805039003491">
        <ele>184.22999999999999</ele>
        <time>2024-09-11T17:34:18Z</time>
      </trkpt>
      <trkpt lat="51.014994028955698" lon="11.023775031790137">
        <ele>184.22999999999999</ele>
        <time>2024-09-11T17:34:20Z</time>
      </trkpt>
      <trkpt lat="51.014909958466887" lon="11.023877039551735">
        <ele>184.71000000000001</ele>
        <time>2024-09-11T17:34:21Z</time>
      </trkpt>
      <trkpt lat="51.014510979875922" lon="11.023875027894974">
        <ele>184.22999999999999</ele>
        <time>2024-09-11T17:34:29Z</time>
      </trkpt>
      <trkpt lat="51.014414001256227" lon="11.023951973766088">
        <ele>184.22999999999999</ele>
        <time>2024-09-11T17:34:31Z</time>
      </trkpt>
      <trkpt lat="51.014372007921338" lon="11.023986004292965">
        <ele>183.27000000000001</ele>
        <time>2024-09-11T17:34:38Z</time>
      </trkpt>
      <trkpt lat="51.014239992946386" lon="11.023906962946057">
        <ele>181.34999999999999</ele>
        <time>2024-09-11T18:07:25Z</time>
      </trkpt>
      <trkpt lat="51.014243010431528" lon="11.023912997916341">
        <ele>181.83000000000001</ele>
        <time>2024-09-11T18:07:51Z</time>
      </trkpt>
      <trkpt lat="51.014239992946386" lon="11.023909980431199">
        <ele>181.83000000000001</ele>
        <time>2024-09-11T18:08:34Z</time>
      </trkpt>
      <trkpt lat="51.014243010431528" lon="11.023922972381115">
        <ele>181.83000000000001</ele>
        <time>2024-09-11T18:08:45Z</time>
      </trkpt>
      <trkpt lat="51.014304030686617" lon="11.024115001782775">
        <ele>181.83000000000001</ele>
        <time>2024-09-11T18:08:47Z</time>
      </trkpt>
      <trkpt lat="51.014266982674599" lon="11.024184990674257">
        <ele>181.83000000000001</ele>
        <time>2024-09-11T18:08:48Z</time>
      </trkpt>
      <trkpt lat="51.014221971854568" lon="11.024270989000797">
        <ele>181.83000000000001</ele>
        <time>2024-09-11T18:08:49Z</time>
      </trkpt>
      <trkpt lat="51.014157012104988" lon="11.024394035339355">
        <ele>181.83000000000001</ele>
        <time>2024-09-11T18:08:50Z</time>
      </trkpt>
      <trkpt lat="51.013951990753412" lon="11.02556498721242">
        <ele>183.27000000000001</ele>
        <time>2024-09-11T18:08:59Z</time>
      </trkpt>
      <trkpt lat="51.013823999091983" lon="11.027302974835038">
        <ele>185.19</ele>
        <time>2024-09-11T18:09:13Z</time>
      </trkpt>
      <trkpt lat="51.013783011585474" lon="11.027815025299788">
        <ele>185.66999999999999</ele>
        <time>2024-09-11T18:09:18Z</time>
      </trkpt>
      <trkpt lat="51.013733977451921" lon="11.027949973940849">
        <ele>186.15000000000001</ele>
        <time>2024-09-11T18:09:19Z</time>
      </trkpt>
      <trkpt lat="51.01368997246027" lon="11.027942011132836">
        <ele>186.15000000000001</ele>
        <time>2024-09-11T18:09:20Z</time>
      </trkpt>
      <trkpt lat="51.013634987175465" lon="11.027932958677411">
        <ele>186.15000000000001</ele>
        <time>2024-09-11T18:09:21Z</time>
      </trkpt>
      <trkpt lat="51.013572039082646" lon="11.027921978384256">
        <ele>185.66999999999999</ele>
        <time>2024-09-11T18:09:22Z</time>
      </trkpt>
      <trkpt lat="51.013295017182827" lon="11.027874033898115">
        <ele>185.66999999999999</ele>
        <time>2024-09-11T18:09:30Z</time>
      </trkpt>
      <trkpt lat="51.013295017182827" lon="11.027874033898115">
        <ele>186.15000000000001</ele>
        <time>2024-09-11T18:10:09Z</time>
      </trkpt>
      <trkpt lat="51.013104999437928" lon="11.027840003371239">
        <ele>185.66999999999999</ele>
        <time>2024-09-11T18:10:36Z</time>
      </trkpt>
      <trkpt lat="51.012991005554795" lon="11.027815025299788">
        <ele>184.71000000000001</ele>
        <time>2024-09-11T18:10:38Z</time>
      </trkpt>
      <trkpt lat="51.012939959764481" lon="11.027803961187601">
        <ele>184.71000000000001</ele>
        <time>2024-09-11T18:10:39Z</time>
      </trkpt>
      <trkpt lat="51.012858990579844" lon="11.027675969526172">
        <ele>184.22999999999999</ele>
        <time>2024-09-11T18:10:40Z</time>
      </trkpt>
      <trkpt lat="51.012868965044618" lon="11.027570022270083">
        <ele>183.75</ele>
        <time>2024-09-11T18:10:41Z</time>
      </trkpt>
      <trkpt lat="51.012882962822914" lon="11.027439013123512">
        <ele>183.75</ele>
        <time>2024-09-11T18:10:42Z</time>
      </trkpt>
      <trkpt lat="51.012891009449959" lon="11.027281014248729">
        <ele>183.27000000000001</ele>
        <time>2024-09-11T18:10:43Z</time>
      </trkpt>
      <trkpt lat="51.012891009449959" lon="11.027075992897153">
        <ele>183.27000000000001</ele>
        <time>2024-09-11T18:10:44Z</time>
      </trkpt>
      <trkpt lat="51.013006009161472" lon="11.025397013872862">
        <ele>180.87</ele>
        <time>2024-09-11T18:10:53Z</time>
      </trkpt>
      <trkpt lat="51.013178005814552" lon="11.023315032944083">
        <ele>180.87</ele>
        <time>2024-09-11T18:11:04Z</time>
      </trkpt>
      <trkpt lat="51.013299040496349" lon="11.021110005676746">
        <ele>181.34999999999999</ele>
        <time>2024-09-11T18:11:16Z</time>
      </trkpt>
      <trkpt lat="51.013299040496349" lon="11.020464012399316">
        <ele>182.31</ele>
        <time>2024-09-11T18:11:23Z</time>
      </trkpt>
      <trkpt lat="51.013299040496349" lon="11.020298972725868">
        <ele>182.78999999999999</ele>
        <time>2024-09-11T18:11:31Z</time>
      </trkpt>
      <trkpt lat="51.013299040496349" lon="11.020230995491147">
        <ele>183.27000000000001</ele>
        <time>2024-09-11T18:12:11Z</time>
      </trkpt>
      <trkpt lat="51.013255035504699" lon="11.019300017505884">
        <ele>183.27000000000001</ele>
        <time>2024-09-11T18:12:17Z</time>
      </trkpt>
      <trkpt lat="51.012969966977835" lon="11.017101025208831">
        <ele>186.15000000000001</ele>
        <time>2024-09-11T18:12:28Z</time>
      </trkpt>
      <trkpt lat="51.012541987001896" lon="11.015266980975866">
        <ele>188.08000000000001</ele>
        <time>2024-09-11T18:12:38Z</time>
      </trkpt>
      <trkpt lat="51.011713016778231" lon="11.012760959565639">
        <ele>185.66999999999999</ele>
        <time>2024-09-11T18:12:53Z</time>
      </trkpt>
      <trkpt lat="51.010900977998972" lon="11.0107840038836">
        <ele>182.78999999999999</ele>
        <time>2024-09-11T18:13:04Z</time>
      </trkpt>
      <trkpt lat="51.00984301418066" lon="11.008445033803582">
        <ele>184.71000000000001</ele>
        <time>2024-09-11T18:13:17Z</time>
      </trkpt>
      <trkpt lat="51.009067017585039" lon="11.006365986540914">
        <ele>184.71000000000001</ele>
        <time>2024-09-11T18:13:28Z</time>
      </trkpt>
      <trkpt lat="51.00846997462213" lon="11.004371009767056">
        <ele>183.75</ele>
        <time>2024-09-11T18:13:38Z</time>
      </trkpt>
      <trkpt lat="51.007829010486603" lon="11.002398999407887">
        <ele>182.78999999999999</ele>
        <time>2024-09-11T18:13:49Z</time>
      </trkpt>
      <trkpt lat="51.007346967235208" lon="11.001059990376234">
        <ele>183.75</ele>
        <time>2024-09-11T18:13:58Z</time>
      </trkpt>
      <trkpt lat="51.006591003388166" lon="10.999701032415032">
        <ele>190</ele>
        <time>2024-09-11T18:14:08Z</time>
      </trkpt>
      <trkpt lat="51.005955990403891" lon="10.998927969485521">
        <ele>192.88</ele>
        <time>2024-09-11T18:14:15Z</time>
      </trkpt>
      <trkpt lat="51.005723979324102" lon="10.998709034174681">
        <ele>192.88</ele>
        <time>2024-09-11T18:14:17Z</time>
      </trkpt>
      <trkpt lat="51.005676034837961" lon="10.998653965070844">
        <ele>193.36000000000001</ele>
        <time>2024-09-11T18:14:18Z</time>
      </trkpt>
      <trkpt lat="51.005019983276725" lon="10.997919039800763">
        <ele>193.36000000000001</ele>
        <time>2024-09-11T18:14:26Z</time>
      </trkpt>
      <trkpt lat="51.004951000213623" lon="10.997844021767378">
        <ele>193.36000000000001</ele>
        <time>2024-09-11T18:14:33Z</time>
      </trkpt>
      <trkpt lat="51.004895009100437" lon="10.997781995683908">
        <ele>193.84</ele>
        <time>2024-09-11T18:15:11Z</time>
      </trkpt>
      <trkpt lat="51.004434004426003" lon="10.997330965474248">
        <ele>194.31999999999999</ele>
        <time>2024-09-11T18:15:17Z</time>
      </trkpt>
      <trkpt lat="51.004114989191294" lon="10.997036006301641">
        <ele>194.80000000000001</ele>
        <time>2024-09-11T18:15:20Z</time>
      </trkpt>
      <trkpt lat="51.003994960337877" lon="10.996969034895301">
        <ele>194.80000000000001</ele>
        <time>2024-09-11T18:15:21Z</time>
      </trkpt>
      <trkpt lat="51.003449968993664" lon="10.996455978602171">
        <ele>194.80000000000001</ele>
        <time>2024-09-11T18:15:26Z</time>
      </trkpt>
      <trkpt lat="51.003364976495504" lon="10.996328992769122">
        <ele>195.28</ele>
        <time>2024-09-11T18:15:27Z</time>
      </trkpt>
      <trkpt lat="51.003279983997345" lon="10.996202006936073">
        <ele>195.77000000000001</ele>
        <time>2024-09-11T18:15:28Z</time>
      </trkpt>
      <trkpt lat="51.003148974850774" lon="10.995983993634582">
        <ele>196.72999999999999</ele>
        <time>2024-09-11T18:15:30Z</time>
      </trkpt>
      <trkpt lat="51.00311703979969" lon="10.995871005579829">
        <ele>197.69</ele>
        <time>2024-09-11T18:15:31Z</time>
      </trkpt>
      <trkpt lat="51.003080997616053" lon="10.995747037231922">
        <ele>198.16999999999999</ele>
        <time>2024-09-11T18:15:32Z</time>
      </trkpt>
      <trkpt lat="51.003062976524234" lon="10.995643017813563">
        <ele>199.13</ele>
        <time>2024-09-11T18:15:33Z</time>
      </trkpt>
      <trkpt lat="51.003062976524234" lon="10.995489964261651">
        <ele>199.61000000000001</ele>
        <time>2024-09-11T18:15:34Z</time>
      </trkpt>
      <trkpt lat="51.003062976524234" lon="10.995332971215248">
        <ele>200.09</ele>
        <time>2024-09-11T18:15:35Z</time>
      </trkpt>
      <trkpt lat="51.003062976524234" lon="10.995146976783872">
        <ele>200.56999999999999</ele>
        <time>2024-09-11T18:15:36Z</time>
      </trkpt>
      <trkpt lat="51.003125002607703" lon="10.995023008435965">
        <ele>201.05000000000001</ele>
        <time>2024-09-11T18:15:37Z</time>
      </trkpt>
      <trkpt lat="51.003200020641088" lon="10.994872972369194">
        <ele>201.53</ele>
        <time>2024-09-11T18:15:38Z</time>
      </trkpt>
      <trkpt lat="51.003295993432403" lon="10.994730982929468">
        <ele>201.53</ele>
        <time>2024-09-11T18:15:39Z</time>
      </trkpt>
      <trkpt lat="51.003401018679142" lon="10.9946050029248">
        <ele>202.00999999999999</ele>
        <time>2024-09-11T18:15:40Z</time>
      </trkpt>
      <trkpt lat="51.003508977591991" lon="10.994474999606609">
        <ele>202.00999999999999</ele>
        <time>2024-09-11T18:15:41Z</time>
      </trkpt>
      <trkpt lat="51.003953972831368" lon="10.994037967175245">
        <ele>202.97999999999999</ele>
        <time>2024-09-11T18:15:45Z</time>
      </trkpt>
      <trkpt lat="51.004052963107824" lon="10.993946017697453">
        <ele>203.46000000000001</ele>
        <time>2024-09-11T18:15:46Z</time>
      </trkpt>
      <trkpt lat="51.004150025546551" lon="10.993946017697453">
        <ele>204.41999999999999</ele>
        <time>2024-09-11T18:15:47Z</time>
      </trkpt>
      <trkpt lat="51.004252033308148" lon="10.994020029902458">
        <ele>204.90000000000001</ele>
        <time>2024-09-11T18:15:48Z</time>
      </trkpt>
      <trkpt lat="51.004315987229347" lon="10.994110973551869">
        <ele>205.38</ele>
        <time>2024-09-11T18:15:49Z</time>
      </trkpt>
      <trkpt lat="51.004354963079095" lon="10.99424097687006">
        <ele>205.86000000000001</ele>
        <time>2024-09-11T18:15:50Z</time>
      </trkpt>
      <trkpt lat="51.004360998049378" lon="10.99434700794518">
        <ele>206.81999999999999</ele>
        <time>2024-09-11T18:15:51Z</time>
      </trkpt>
      <trkpt lat="51.004368038848042" lon="10.994467958807945">
        <ele>207.30000000000001</ele>
        <time>2024-09-11T18:15:52Z</time>
      </trkpt>
      <trkpt lat="51.004362003877759" lon="10.994578013196588">
        <ele>207.30000000000001</ele>
        <time>2024-09-11T18:15:53Z</time>
      </trkpt>
      <trkpt lat="51.004325039684772" lon="10.994698964059353">
        <ele>207.78</ele>
        <time>2024-09-11T18:15:54Z</time>
      </trkpt>
      <trkpt lat="51.004265025258064" lon="10.994889987632632">
        <ele>208.74000000000001</ele>
        <time>2024-09-11T18:15:55Z</time>
      </trkpt>
      <trkpt lat="51.004190007224679" lon="10.994975985959172">
        <ele>209.22</ele>
        <time>2024-09-11T18:15:56Z</time>
      </trkpt>
      <trkpt lat="51.003329018130898" lon="10.995961027219892">
        <ele>213.06999999999999</ele>
        <time>2024-09-11T18:16:03Z</time>
      </trkpt>
      <trkpt lat="51.00187299773097" lon="10.997514026239514">
        <ele>212.11000000000001</ele>
        <time>2024-09-11T18:16:12Z</time>
      </trkpt>
      <trkpt lat="50.999438976868987" lon="10.999613022431731">
        <ele>211.15000000000001</ele>
        <time>2024-09-11T18:16:25Z</time>
      </trkpt>
      <trkpt lat="50.996933961287141" lon="11.001127967610955">
        <ele>208.25999999999999</ele>
        <time>2024-09-11T18:16:38Z</time>
      </trkpt>
      <trkpt lat="50.994573030620813" lon="11.00214502774179">
        <ele>205.38</ele>
        <time>2024-09-11T18:16:50Z</time>
      </trkpt>
      <trkpt lat="50.992592973634601" lon="11.002909038215876">
        <ele>203.46000000000001</ele>
        <time>2024-09-11T18:17:01Z</time>
      </trkpt>
      <trkpt lat="50.989844966679811" lon="11.003943029791117">
        <ele>205.38</ele>
        <time>2024-09-11T18:17:17Z</time>
      </trkpt>
      <trkpt lat="50.987617978826165" lon="11.004804018884897">
        <ele>208.25999999999999</ele>
        <time>2024-09-11T18:17:30Z</time>
      </trkpt>
      <trkpt lat="50.985267022624612" lon="11.005709012970328">
        <ele>213.55000000000001</ele>
        <time>2024-09-11T18:17:43Z</time>
      </trkpt>
      <trkpt lat="50.98363297060132" lon="11.00633698515594">
        <ele>217.88</ele>
        <time>2024-09-11T18:17:52Z</time>
      </trkpt>
      <trkpt lat="50.981888025999069" lon="11.006988007575274">
        <ele>220.28</ele>
        <time>2024-09-11T18:18:02Z</time>
      </trkpt>
      <trkpt lat="50.980283981189132" lon="11.007591001689434">
        <ele>220.28</ele>
        <time>2024-09-11T18:18:12Z</time>
      </trkpt>
      <trkpt lat="50.979264993220568" lon="11.007972965016961">
        <ele>220.28</ele>
        <time>2024-09-11T18:18:21Z</time>
      </trkpt>
      <trkpt lat="50.978075014427304" lon="11.008331039920449">
        <ele>221.24000000000001</ele>
        <time>2024-09-11T18:18:32Z</time>
      </trkpt>
      <trkpt lat="50.97705896012485" lon="11.008503036573529">
        <ele>223.16</ele>
        <time>2024-09-11T18:18:41Z</time>
      </trkpt>
      <trkpt lat="50.97611297853291" lon="11.008687019348145">
        <ele>225.09</ele>
        <time>2024-09-11T18:18:49Z</time>
      </trkpt>
      <trkpt lat="50.976048018783331" lon="11.008708979934454">
        <ele>225.09</ele>
        <time>2024-09-11T18:18:50Z</time>
      </trkpt>
      <trkpt lat="50.974409021437168" lon="11.00928196683526">
        <ele>225.56999999999999</ele>
        <time>2024-09-11T18:19:04Z</time>
      </trkpt>
      <trkpt lat="50.974067039787769" lon="11.009446000680327">
        <ele>223.63999999999999</ele>
        <time>2024-09-11T18:19:07Z</time>
      </trkpt>
      <trkpt lat="50.973955979570746" lon="11.009498974308372">
        <ele>222.68000000000001</ele>
        <time>2024-09-11T18:19:08Z</time>
      </trkpt>
      <trkpt lat="50.973853971809149" lon="11.009555971249938">
        <ele>221.72</ele>
        <time>2024-09-11T18:19:09Z</time>
      </trkpt>
      <trkpt lat="50.97374701872468" lon="11.009626965969801">
        <ele>220.75999999999999</ele>
        <time>2024-09-11T18:19:10Z</time>
      </trkpt>
      <trkpt lat="50.97364098764956" lon="11.009695027023554">
        <ele>220.28</ele>
        <time>2024-09-11T18:19:11Z</time>
      </trkpt>
      <trkpt lat="50.973318032920361" lon="11.009911028668284">
        <ele>218.84</ele>
        <time>2024-09-11T18:19:14Z</time>
      </trkpt>
      <trkpt lat="50.973208984360099" lon="11.009985962882638">
        <ele>217.88</ele>
        <time>2024-09-11T18:19:15Z</time>
      </trkpt>
      <trkpt lat="50.972768012434244" lon="11.010282011702657">
        <ele>214.99000000000001</ele>
        <time>2024-09-11T18:19:21Z</time>
      </trkpt>
      <trkpt lat="50.972678996622562" lon="11.010339008644223">
        <ele>213.55000000000001</ele>
        <time>2024-09-11T18:19:24Z</time>
      </trkpt>
      <trkpt lat="50.972626022994518" lon="11.010180003941059">
        <ele>213.55000000000001</ele>
        <time>2024-09-11T18:19:25Z</time>
      </trkpt>
      <trkpt lat="50.972610013559461" lon="11.010130969807506">
        <ele>213.55000000000001</ele>
        <time>2024-09-11T18:19:26Z</time>
      </trkpt>
      <trkpt lat="50.972557039931417" lon="11.009973976761103">
        <ele>213.06999999999999</ele>
        <time>2024-09-11T18:19:29Z</time>
      </trkpt>
      <trkpt lat="50.972540024667978" lon="11.009922008961439">
        <ele>213.55000000000001</ele>
        <time>2024-09-11T18:19:30Z</time>
      </trkpt>
      <trkpt lat="50.972520997747779" lon="11.009865012019873">
        <ele>213.55000000000001</ele>
        <time>2024-09-11T18:19:31Z</time>
      </trkpt>
      <trkpt lat="50.972405998036265" lon="11.009507020935416">
        <ele>214.50999999999999</ele>
        <time>2024-09-11T18:19:38Z</time>
      </trkpt>
      <trkpt lat="50.972312036901712" lon="11.009168978780508">
        <ele>214.99000000000001</ele>
        <time>2024-09-11T18:19:44Z</time>
      </trkpt>
      <trkpt lat="50.972298039123416" lon="11.009121034294367">
        <ele>214.99000000000001</ele>
        <time>2024-09-11T18:19:45Z</time>
      </trkpt>
      <trkpt lat="50.972283035516739" lon="11.0090640373528">
        <ele>214.99000000000001</ele>
        <time>2024-09-11T18:19:46Z</time>
      </trkpt>
      <trkpt lat="50.972267026081681" lon="11.009005028754473">
        <ele>214.99000000000001</ele>
        <time>2024-09-11T18:19:47Z</time>
      </trkpt>
      <trkpt lat="50.972253028303385" lon="11.008951971307397">
        <ele>214.99000000000001</ele>
        <time>2024-09-11T18:19:48Z</time>
      </trkpt>
      <trkpt lat="50.972155965864658" lon="11.008596997708082">
        <ele>217.40000000000001</ele>
        <time>2024-09-11T18:19:57Z</time>
      </trkpt>
      <trkpt lat="50.972149008885026" lon="11.008569002151489">
        <ele>217.88</ele>
        <time>2024-09-11T18:19:58Z</time>
      </trkpt>
      <trkpt lat="50.972140962257981" lon="11.008541006594896">
        <ele>217.88</ele>
        <time>2024-09-11T18:19:59Z</time>
      </trkpt>
      <trkpt lat="50.972132999449968" lon="11.008509993553162">
        <ele>218.36000000000001</ele>
        <time>2024-09-11T18:20:00Z</time>
      </trkpt>
      <trkpt lat="50.972125958651304" lon="11.00848400965333">
        <ele>218.36000000000001</ele>
        <time>2024-09-11T18:20:01Z</time>
      </trkpt>
      <trkpt lat="50.972226960584521" lon="11.008303966373205">
        <ele>187.11000000000001</ele>
        <time>2024-09-11T21:18:36Z</time>
      </trkpt>
      <trkpt lat="50.972112966701388" lon="11.008483003824949">
        <ele>222.19999999999999</ele>
        <time>2024-09-11T21:18:56Z</time>
      </trkpt>
      <trkpt lat="50.97213601693511" lon="11.008523991331458">
        <ele>222.19999999999999</ele>
        <time>2024-09-11T21:18:58Z</time>
      </trkpt>
      <trkpt lat="50.972148003056645" lon="11.008565984666348">
        <ele>221.72</ele>
        <time>2024-09-11T21:18:59Z</time>
      </trkpt>
      <trkpt lat="50.972164012491703" lon="11.008623987436295">
        <ele>221.24000000000001</ele>
        <time>2024-09-11T21:19:00Z</time>
      </trkpt>
      <trkpt lat="50.972181027755141" lon="11.008689031004906">
        <ele>220.75999999999999</ele>
        <time>2024-09-11T21:19:01Z</time>
      </trkpt>
      <trkpt lat="50.972245987504721" lon="11.008926993235946">
        <ele>219.80000000000001</ele>
        <time>2024-09-11T21:19:04Z</time>
      </trkpt>
      <trkpt lat="50.972269959747791" lon="11.009016009047627">
        <ele>219.31999999999999</ele>
        <time>2024-09-11T21:19:05Z</time>
      </trkpt>
      <trkpt lat="50.972292004153132" lon="11.009096978232265">
        <ele>218.84</ele>
        <time>2024-09-11T21:19:06Z</time>
      </trkpt>
      <trkpt lat="50.972418989986181" lon="11.009551025927067">
        <ele>217.40000000000001</ele>
        <time>2024-09-11T21:19:12Z</time>
      </trkpt>
      <trkpt lat="50.972442962229252" lon="11.009630989283323">
        <ele>217.40000000000001</ele>
        <time>2024-09-11T21:19:13Z</time>
      </trkpt>
      <trkpt lat="50.972481016069651" lon="11.009745988994837">
        <ele>216.91</ele>
        <time>2024-09-11T21:19:15Z</time>
      </trkpt>
      <trkpt lat="50.97250297665596" lon="11.009810026735067">
        <ele>216.91</ele>
        <time>2024-09-11T21:19:16Z</time>
      </trkpt>
      <trkpt lat="50.972525021061301" lon="11.009875992313027">
        <ele>216.43000000000001</ele>
        <time>2024-09-11T21:19:17Z</time>
      </trkpt>
      <trkpt lat="50.972544969990849" lon="11.009936006739736">
        <ele>216.43000000000001</ele>
        <time>2024-09-11T21:19:18Z</time>
      </trkpt>
      <trkpt lat="50.972562991082668" lon="11.009990992024541">
        <ele>215.94999999999999</ele>
        <time>2024-09-11T21:19:19Z</time>
      </trkpt>
      <trkpt lat="50.972582018002868" lon="11.010048994794488">
        <ele>215.94999999999999</ele>
        <time>2024-09-11T21:19:20Z</time>
      </trkpt>
      <trkpt lat="50.972600039094687" lon="11.010101968422532">
        <ele>215.47</ele>
        <time>2024-09-11T21:19:21Z</time>
      </trkpt>
      <trkpt lat="50.972614036872983" lon="11.010143039748073">
        <ele>215.47</ele>
        <time>2024-09-11T21:19:22Z</time>
      </trkpt>
      <trkpt lat="50.972634991630912" lon="11.010205987840891">
        <ele>214.50999999999999</ele>
        <time>2024-09-11T21:19:26Z</time>
      </trkpt>
      <trkpt lat="50.97267203964293" lon="11.010344037786126">
        <ele>214.03</ele>
        <time>2024-09-11T21:19:29Z</time>
      </trkpt>
      <trkpt lat="50.972704980522394" lon="11.010322999209166">
        <ele>214.03</ele>
        <time>2024-09-11T21:19:30Z</time>
      </trkpt>
      <trkpt lat="50.972748985514045" lon="11.010293997824192">
        <ele>214.03</ele>
        <time>2024-09-11T21:19:31Z</time>
      </trkpt>
      <trkpt lat="50.973023995757103" lon="11.010114960372448">
        <ele>214.50999999999999</ele>
        <time>2024-09-11T21:19:36Z</time>
      </trkpt>
      <trkpt lat="50.973089961335063" lon="11.010071039199829">
        <ele>214.50999999999999</ele>
        <time>2024-09-11T21:19:37Z</time>
      </trkpt>
      <trkpt lat="50.973159028217196" lon="11.010027034208179">
        <ele>214.50999999999999</ele>
        <time>2024-09-11T21:19:38Z</time>
      </trkpt>
      <trkpt lat="50.973822036758065" lon="11.009577009826899">
        <ele>220.75999999999999</ele>
        <time>2024-09-11T21:19:54Z</time>
      </trkpt>
      <trkpt lat="50.974636003375053" lon="11.009185994043946">
        <ele>225.09</ele>
        <time>2024-09-11T21:20:03Z</time>
      </trkpt>
      <trkpt lat="50.975868981331587" lon="11.008775029331446">
        <ele>226.53</ele>
        <time>2024-09-11T21:20:07Z</time>
      </trkpt>
      <trkpt lat="50.976694012060761" lon="11.008564978837967">
        <ele>227.49000000000001</ele>
        <time>2024-09-11T21:20:13Z</time>
      </trkpt>
      <trkpt lat="50.976846981793642" lon="11.008538994938135">
        <ele>227.49000000000001</ele>
        <time>2024-09-11T21:20:14Z</time>
      </trkpt>
      <trkpt lat="50.97843199968338" lon="11.008308995515108">
        <ele>227.49000000000001</ele>
        <time>2024-09-11T21:20:25Z</time>
      </trkpt>
      <trkpt lat="50.980127993971109" lon="11.00779602304101">
        <ele>222.68000000000001</ele>
        <time>2024-09-11T21:20:37Z</time>
      </trkpt>
      <trkpt lat="50.981919961050153" lon="11.007147012278438">
        <ele>220.28</ele>
        <time>2024-09-11T21:20:48Z</time>
      </trkpt>
      <trkpt lat="50.984113002195954" lon="11.006308989599347">
        <ele>214.99000000000001</ele>
        <time>2024-09-11T21:21:01Z</time>
      </trkpt>
      <trkpt lat="50.985613027587533" lon="11.005739020183682">
        <ele>210.19</ele>
        <time>2024-09-11T21:21:10Z</time>
      </trkpt>
      <trkpt lat="50.987758040428162" lon="11.004913989454508">
        <ele>209.22</ele>
        <time>2024-09-11T21:21:23Z</time>
      </trkpt>
      <trkpt lat="50.989938005805016" lon="11.004071021452546">
        <ele>206.34</ele>
        <time>2024-09-11T21:21:36Z</time>
      </trkpt>
      <trkpt lat="50.990090975537896" lon="11.00401402451098">
        <ele>205.86000000000001</ele>
        <time>2024-09-11T21:21:37Z</time>
      </trkpt>
      <trkpt lat="50.992403039708734" lon="11.003136020153761">
        <ele>202.00999999999999</ele>
        <time>2024-09-11T21:21:51Z</time>
      </trkpt>
      <trkpt lat="50.99435300566256" lon="11.002386007457972">
        <ele>200.56999999999999</ele>
        <time>2024-09-11T21:22:02Z</time>
      </trkpt>
      <trkpt lat="50.997094977647066" lon="11.001247996464372">
        <ele>200.09</ele>
        <time>2024-09-11T21:22:18Z</time>
      </trkpt>
      <trkpt lat="50.999247031286359" lon="10.999948969110847">
        <ele>198.65000000000001</ele>
        <time>2024-09-11T21:22:31Z</time>
      </trkpt>
      <trkpt lat="51.000997005030513" lon="10.998523961752653">
        <ele>199.13</ele>
        <time>2024-09-11T21:22:42Z</time>
      </trkpt>
      <trkpt lat="51.003056019544601" lon="10.996443992480636">
        <ele>197.69</ele>
        <time>2024-09-11T21:22:56Z</time>
      </trkpt>
      <trkpt lat="51.003748029470444" lon="10.99563798867166">
        <ele>194.80000000000001</ele>
        <time>2024-09-11T21:23:03Z</time>
      </trkpt>
      <trkpt lat="51.004339959472418" lon="10.995069025084376">
        <ele>191.44</ele>
        <time>2024-09-11T21:23:10Z</time>
      </trkpt>
      <trkpt lat="51.004410032182932" lon="10.995057038962841">
        <ele>190.96000000000001</ele>
        <time>2024-09-11T21:23:11Z</time>
      </trkpt>
      <trkpt lat="51.004482032731175" lon="10.995043963193893">
        <ele>190.96000000000001</ele>
        <time>2024-09-11T21:23:12Z</time>
      </trkpt>
      <trkpt lat="51.004541963338852" lon="10.995057038962841">
        <ele>190.47999999999999</ele>
        <time>2024-09-11T21:23:13Z</time>
      </trkpt>
      <trkpt lat="51.004608012735844" lon="10.995083022862673">
        <ele>190.47999999999999</ele>
        <time>2024-09-11T21:23:14Z</time>
      </trkpt>
      <trkpt lat="51.004659980535507" lon="10.99514496512711">
        <ele>190</ele>
        <time>2024-09-11T21:23:15Z</time>
      </trkpt>
      <trkpt lat="51.004714965820312" lon="10.995211014524102">
        <ele>190</ele>
        <time>2024-09-11T21:23:16Z</time>
      </trkpt>
      <trkpt lat="51.005214024335146" lon="10.995833035558462">
        <ele>188.56</ele>
        <time>2024-09-11T21:23:25Z</time>
      </trkpt>
      <trkpt lat="51.005237996578217" lon="10.995949963107705">
        <ele>188.08000000000001</ele>
        <time>2024-09-11T21:23:26Z</time>
      </trkpt>
      <trkpt lat="51.005245037376881" lon="10.99604501388967">
        <ele>187.11000000000001</ele>
        <time>2024-09-11T21:23:33Z</time>
      </trkpt>
      <trkpt lat="51.005258029326797" lon="10.996231008321047">
        <ele>187.59</ele>
        <time>2024-09-11T21:23:51Z</time>
      </trkpt>
      <trkpt lat="51.005264986306429" lon="10.996323963627219">
        <ele>187.59</ele>
        <time>2024-09-11T21:23:52Z</time>
      </trkpt>
      <trkpt lat="51.005247971042991" lon="10.996483974158764">
        <ele>187.59</ele>
        <time>2024-09-11T21:23:53Z</time>
      </trkpt>
      <trkpt lat="51.00520103238523" lon="10.996577013283968">
        <ele>187.59</ele>
        <time>2024-09-11T21:23:54Z</time>
      </trkpt>
      <trkpt lat="51.005153004080057" lon="10.99666996859014">
        <ele>188.08000000000001</ele>
        <time>2024-09-11T21:23:55Z</time>
      </trkpt>
      <trkpt lat="51.005102964118123" lon="10.996768958866596">
        <ele>188.08000000000001</ele>
        <time>2024-09-11T21:23:56Z</time>
      </trkpt>
      <trkpt lat="51.004742039367557" lon="10.997477984055877">
        <ele>188.08000000000001</ele>
        <time>2024-09-11T21:24:04Z</time>
      </trkpt>
      <trkpt lat="51.004712032154202" lon="10.997536992654204">
        <ele>188.08000000000001</ele>
        <time>2024-09-11T21:24:05Z</time>
      </trkpt>
      <trkpt lat="51.00468403659761" lon="10.997590972110629">
        <ele>188.08000000000001</ele>
        <time>2024-09-11T21:24:06Z</time>
      </trkpt>
      <trkpt lat="51.00468697026372" lon="10.997773027047515">
        <ele>188.08000000000001</ele>
        <time>2024-09-11T21:24:07Z</time>
      </trkpt>
      <trkpt lat="51.004715971648693" lon="10.99780797958374">
        <ele>188.56</ele>
        <time>2024-09-11T21:24:08Z</time>
      </trkpt>
      <trkpt lat="51.004785960540175" lon="10.997882997617126">
        <ele>188.56</ele>
        <time>2024-09-11T21:24:09Z</time>
      </trkpt>
      <trkpt lat="51.004848992452025" lon="10.997950974851847">
        <ele>188.56</ele>
        <time>2024-09-11T21:24:10Z</time>
      </trkpt>
      <trkpt lat="51.004916969686747" lon="10.998023981228471">
        <ele>188.08000000000001</ele>
        <time>2024-09-11T21:24:11Z</time>
      </trkpt>
      <trkpt lat="51.005482999607921" lon="10.998589005321264">
        <ele>185.19</ele>
        <time>2024-09-11T21:24:18Z</time>
      </trkpt>
      <trkpt lat="51.005757004022598" lon="10.998737029731274">
        <ele>184.22999999999999</ele>
        <time>2024-09-11T21:24:21Z</time>
      </trkpt>
      <trkpt lat="51.005845014005899" lon="10.998810036107898">
        <ele>184.22999999999999</ele>
        <time>2024-09-11T21:24:22Z</time>
      </trkpt>
      <trkpt lat="51.006736010313034" lon="10.99988903850317">
        <ele>181.83000000000001</ele>
        <time>2024-09-11T21:24:32Z</time>
      </trkpt>
      <trkpt lat="51.006972966715693" lon="11.000282987952232">
        <ele>181.83000000000001</ele>
        <time>2024-09-11T21:24:35Z</time>
      </trkpt>
      <trkpt lat="51.007319977506995" lon="11.00098698399961">
        <ele>180.87</ele>
        <time>2024-09-11T21:24:40Z</time>
      </trkpt>
      <trkpt lat="51.007377980276942" lon="11.001142971217632">
        <ele>180.87</ele>
        <time>2024-09-11T21:24:41Z</time>
      </trkpt>
      <trkpt lat="51.007613008841872" lon="11.001769015565515">
        <ele>180.38</ele>
        <time>2024-09-11T21:24:45Z</time>
      </trkpt>
      <trkpt lat="51.008467962965369" lon="11.004365980625153">
        <ele>179.90000000000001</ele>
        <time>2024-09-11T21:25:00Z</time>
      </trkpt>
      <trkpt lat="51.00917698815465" lon="11.006715008988976">
        <ele>181.34999999999999</ele>
        <time>2024-09-11T21:25:13Z</time>
      </trkpt>
      <trkpt lat="51.010094974189997" lon="11.00902103818953">
        <ele>185.19</ele>
        <time>2024-09-11T21:25:27Z</time>
      </trkpt>
      <trkpt lat="51.010755971074104" lon="11.010467000305653">
        <ele>183.27000000000001</ele>
        <time>2024-09-11T21:25:37Z</time>
      </trkpt>
      <trkpt lat="51.011515958234668" lon="11.012219991534948">
        <ele>182.31</ele>
        <time>2024-09-11T21:25:49Z</time>
      </trkpt>
      <trkpt lat="51.012208973988891" lon="11.014213040471077">
        <ele>188.08000000000001</ele>
        <time>2024-09-11T21:26:01Z</time>
      </trkpt>
      <trkpt lat="51.012977007776499" lon="11.017141006886959">
        <ele>190.47999999999999</ele>
        <time>2024-09-11T21:26:17Z</time>
      </trkpt>
      <trkpt lat="51.013299040496349" lon="11.020091017708182">
        <ele>185.66999999999999</ele>
        <time>2024-09-11T21:26:31Z</time>
      </trkpt>
      <trkpt lat="51.013202983886003" lon="11.023006998002529">
        <ele>181.34999999999999</ele>
        <time>2024-09-11T21:26:45Z</time>
      </trkpt>
      <trkpt lat="51.012965021654963" lon="11.025920966640115">
        <ele>181.34999999999999</ele>
        <time>2024-09-11T21:27:00Z</time>
      </trkpt>
      <trkpt lat="51.012892015278339" lon="11.027064006775618">
        <ele>180.38</ele>
        <time>2024-09-11T21:27:08Z</time>
      </trkpt>
      <trkpt lat="51.012853961437941" lon="11.027225023135543">
        <ele>179.90000000000001</ele>
        <time>2024-09-11T21:27:16Z</time>
      </trkpt>
      <trkpt lat="51.012853961437941" lon="11.027225023135543">
        <ele>179.90000000000001</ele>
        <time>2024-09-11T21:27:54Z</time>
      </trkpt>
      <trkpt lat="51.012793025001884" lon="11.027568010613322">
        <ele>179.90000000000001</ele>
        <time>2024-09-11T21:28:24Z</time>
      </trkpt>
      <trkpt lat="51.012881034985185" lon="11.027791975066066">
        <ele>179.41999999999999</ele>
        <time>2024-09-11T21:28:25Z</time>
      </trkpt>
      <trkpt lat="51.012920010834932" lon="11.02780002169311">
        <ele>179.41999999999999</ele>
        <time>2024-09-11T21:28:26Z</time>
      </trkpt>
      <trkpt lat="51.012966027483344" lon="11.027809996157885">
        <ele>178.94</ele>
        <time>2024-09-11T21:28:27Z</time>
      </trkpt>
      <trkpt lat="51.013023024424911" lon="11.02782198227942">
        <ele>178.46000000000001</ele>
        <time>2024-09-11T21:28:28Z</time>
      </trkpt>
      <trkpt lat="51.013089995831251" lon="11.027835980057716">
        <ele>177.97999999999999</ele>
        <time>2024-09-11T21:28:29Z</time>
      </trkpt>
      <trkpt lat="51.013152021914721" lon="11.027848972007632">
        <ele>177.5</ele>
        <time>2024-09-11T21:28:30Z</time>
      </trkpt>
      <trkpt lat="51.013708999380469" lon="11.027945028617978">
        <ele>173.66</ele>
        <time>2024-09-11T21:28:39Z</time>
      </trkpt>
      <trkpt lat="51.013777982443571" lon="11.027872022241354">
        <ele>173.66</ele>
        <time>2024-09-11T21:28:40Z</time>
      </trkpt>
      <trkpt lat="51.013784017413855" lon="11.027802033349872">
        <ele>173.16999999999999</ele>
        <time>2024-09-11T21:28:41Z</time>
      </trkpt>
      <trkpt lat="51.013790974393487" lon="11.027717040851712">
        <ele>173.16999999999999</ele>
        <time>2024-09-11T21:28:42Z</time>
      </trkpt>
      <trkpt lat="51.013798015192151" lon="11.027626013383269">
        <ele>173.16999999999999</ele>
        <time>2024-09-11T21:28:43Z</time>
      </trkpt>
      <trkpt lat="51.013805978000164" lon="11.027530040591955">
        <ele>172.69</ele>
        <time>2024-09-11T21:28:44Z</time>
      </trkpt>
      <trkpt lat="51.013920977711678" lon="11.025878973305225">
        <ele>171.72999999999999</ele>
        <time>2024-09-11T21:28:59Z</time>
      </trkpt>
      <trkpt lat="51.014109989628196" lon="11.024565026164055">
        <ele>171.25</ele>
        <time>2024-09-11T21:29:11Z</time>
      </trkpt>
      <trkpt lat="51.014192970469594" lon="11.024325974285603">
        <ele>170.77000000000001</ele>
        <time>2024-09-11T21:29:14Z</time>
      </trkpt>
      <trkpt lat="51.014453982934356" lon="11.023920960724354">
        <ele>170.77000000000001</ele>
        <time>2024-09-11T21:29:25Z</time>
      </trkpt>
    </trkseg>
  </trk>

</gpx>